<?xml version="1.0" encoding="UTF-8" standalone="no" ?>
<gpx xmlns="http://www.topografix.com/GPX/1/1" xmlns:xsi="http://www.w3.org/2001/XMLSchema-instance" xsi:schemaLocation="http://www.topografix.com/GPX/1/1 http://www.topografix.com/GPX/1/1/gpx.xsd" version="1.1" creator="VisuGPX - https://www.visugpx.com">
  <metadata>
    <name>83 - D+   -   Plan Aups </name>
    <desc><![CDATA[83 - D+   -   Plan Aups - Trois chênes - voie Gombault - grotte Ste Marie Madeleine -]]></desc>
  </metadata>
  <trk>
    <name><![CDATA[Plan Aups Ste Baume sentier Gombault 2025-10-05-01]]></name>
    <trkseg>
      <trkpt lat="43.33535" lon="5.76557">
        <ele>683</ele>
        <time>2025-10-05T07:10:16Z</time>
      </trkpt>
      <trkpt lat="43.33535" lon="5.76557">
        <ele>683</ele>
        <time>2025-10-05T07:10:17Z</time>
      </trkpt>
      <trkpt lat="43.33535" lon="5.76557">
        <ele>683.1</ele>
        <time>2025-10-05T07:10:18Z</time>
      </trkpt>
      <trkpt lat="43.33535" lon="5.76557">
        <ele>683.1</ele>
        <time>2025-10-05T07:10:19Z</time>
      </trkpt>
      <trkpt lat="43.33535" lon="5.76557">
        <ele>683.1</ele>
        <time>2025-10-05T07:10:20Z</time>
      </trkpt>
      <trkpt lat="43.33535" lon="5.76557">
        <ele>683.1</ele>
        <time>2025-10-05T07:10:21Z</time>
      </trkpt>
      <trkpt lat="43.33535" lon="5.76557">
        <ele>683</ele>
        <time>2025-10-05T07:10:22Z</time>
      </trkpt>
      <trkpt lat="43.33536" lon="5.76558">
        <ele>683</ele>
        <time>2025-10-05T07:10:23Z</time>
      </trkpt>
      <trkpt lat="43.33535" lon="5.76559">
        <ele>683.1</ele>
        <time>2025-10-05T07:10:24Z</time>
      </trkpt>
      <trkpt lat="43.33535" lon="5.76559">
        <ele>683.1</ele>
        <time>2025-10-05T07:10:25Z</time>
      </trkpt>
      <trkpt lat="43.33535" lon="5.76559">
        <ele>683.2</ele>
        <time>2025-10-05T07:10:26Z</time>
      </trkpt>
      <trkpt lat="43.33535" lon="5.76559">
        <ele>683.2</ele>
        <time>2025-10-05T07:10:27Z</time>
      </trkpt>
      <trkpt lat="43.33535" lon="5.76559">
        <ele>683.2</ele>
        <time>2025-10-05T07:10:28Z</time>
      </trkpt>
      <trkpt lat="43.33535" lon="5.76559">
        <ele>683.2</ele>
        <time>2025-10-05T07:10:29Z</time>
      </trkpt>
      <trkpt lat="43.33535" lon="5.76558">
        <ele>683.2</ele>
        <time>2025-10-05T07:10:30Z</time>
      </trkpt>
      <trkpt lat="43.33534" lon="5.76558">
        <ele>683</ele>
        <time>2025-10-05T07:10:31Z</time>
      </trkpt>
      <trkpt lat="43.33534" lon="5.76558">
        <ele>682.9</ele>
        <time>2025-10-05T07:10:32Z</time>
      </trkpt>
      <trkpt lat="43.33534" lon="5.76558">
        <ele>682.8</ele>
        <time>2025-10-05T07:10:33Z</time>
      </trkpt>
      <trkpt lat="43.33535" lon="5.76558">
        <ele>682.8</ele>
        <time>2025-10-05T07:10:34Z</time>
      </trkpt>
      <trkpt lat="43.33535" lon="5.76558">
        <ele>682.8</ele>
        <time>2025-10-05T07:10:35Z</time>
      </trkpt>
      <trkpt lat="43.33535" lon="5.76558">
        <ele>682.8</ele>
        <time>2025-10-05T07:10:36Z</time>
      </trkpt>
      <trkpt lat="43.33535" lon="5.76559">
        <ele>682.9</ele>
        <time>2025-10-05T07:10:37Z</time>
      </trkpt>
      <trkpt lat="43.33535" lon="5.76559">
        <ele>682.9</ele>
        <time>2025-10-05T07:10:38Z</time>
      </trkpt>
      <trkpt lat="43.33535" lon="5.76559">
        <ele>682.8</ele>
        <time>2025-10-05T07:10:39Z</time>
      </trkpt>
      <trkpt lat="43.33535" lon="5.7656">
        <ele>682.7</ele>
        <time>2025-10-05T07:10:40Z</time>
      </trkpt>
      <trkpt lat="43.33535" lon="5.7656">
        <ele>682.8</ele>
        <time>2025-10-05T07:10:41Z</time>
      </trkpt>
      <trkpt lat="43.33535" lon="5.7656">
        <ele>682.9</ele>
        <time>2025-10-05T07:10:42Z</time>
      </trkpt>
      <trkpt lat="43.33535" lon="5.76559">
        <ele>682.7</ele>
        <time>2025-10-05T07:10:43Z</time>
      </trkpt>
      <trkpt lat="43.33536" lon="5.76559">
        <ele>682.7</ele>
        <time>2025-10-05T07:10:44Z</time>
      </trkpt>
      <trkpt lat="43.33536" lon="5.76559">
        <ele>682.6</ele>
        <time>2025-10-05T07:10:45Z</time>
      </trkpt>
      <trkpt lat="43.33536" lon="5.76559">
        <ele>682.6</ele>
        <time>2025-10-05T07:10:46Z</time>
      </trkpt>
      <trkpt lat="43.33535" lon="5.7656">
        <ele>682.5</ele>
        <time>2025-10-05T07:10:47Z</time>
      </trkpt>
      <trkpt lat="43.33535" lon="5.7656">
        <ele>682.6</ele>
        <time>2025-10-05T07:10:48Z</time>
      </trkpt>
      <trkpt lat="43.33535" lon="5.7656">
        <ele>682.6</ele>
        <time>2025-10-05T07:10:49Z</time>
      </trkpt>
      <trkpt lat="43.33535" lon="5.7656">
        <ele>682.7</ele>
        <time>2025-10-05T07:10:50Z</time>
      </trkpt>
      <trkpt lat="43.33535" lon="5.7656">
        <ele>682.7</ele>
        <time>2025-10-05T07:10:51Z</time>
      </trkpt>
      <trkpt lat="43.33535" lon="5.76561">
        <ele>682.8</ele>
        <time>2025-10-05T07:10:52Z</time>
      </trkpt>
      <trkpt lat="43.33535" lon="5.76561">
        <ele>682.8</ele>
        <time>2025-10-05T07:10:53Z</time>
      </trkpt>
      <trkpt lat="43.33535" lon="5.76561">
        <ele>682.8</ele>
        <time>2025-10-05T07:10:54Z</time>
      </trkpt>
      <trkpt lat="43.33535" lon="5.76561">
        <ele>682.9</ele>
        <time>2025-10-05T07:10:55Z</time>
      </trkpt>
      <trkpt lat="43.33535" lon="5.76561">
        <ele>683</ele>
        <time>2025-10-05T07:10:56Z</time>
      </trkpt>
      <trkpt lat="43.33535" lon="5.76561">
        <ele>683.1</ele>
        <time>2025-10-05T07:10:57Z</time>
      </trkpt>
      <trkpt lat="43.33535" lon="5.76561">
        <ele>683</ele>
        <time>2025-10-05T07:10:58Z</time>
      </trkpt>
      <trkpt lat="43.33535" lon="5.76561">
        <ele>683</ele>
        <time>2025-10-05T07:10:59Z</time>
      </trkpt>
      <trkpt lat="43.33535" lon="5.7656">
        <ele>683</ele>
        <time>2025-10-05T07:11:00Z</time>
      </trkpt>
      <trkpt lat="43.33535" lon="5.76561">
        <ele>683</ele>
        <time>2025-10-05T07:11:01Z</time>
      </trkpt>
      <trkpt lat="43.33535" lon="5.76562">
        <ele>683</ele>
        <time>2025-10-05T07:11:02Z</time>
      </trkpt>
      <trkpt lat="43.33536" lon="5.76562">
        <ele>683.1</ele>
        <time>2025-10-05T07:11:03Z</time>
      </trkpt>
      <trkpt lat="43.33536" lon="5.76562">
        <ele>683.1</ele>
        <time>2025-10-05T07:11:04Z</time>
      </trkpt>
      <trkpt lat="43.33535" lon="5.76562">
        <ele>683.1</ele>
        <time>2025-10-05T07:11:05Z</time>
      </trkpt>
      <trkpt lat="43.33536" lon="5.76562">
        <ele>683.1</ele>
        <time>2025-10-05T07:11:06Z</time>
      </trkpt>
      <trkpt lat="43.33536" lon="5.76562">
        <ele>683.1</ele>
        <time>2025-10-05T07:11:07Z</time>
      </trkpt>
      <trkpt lat="43.33536" lon="5.76562">
        <ele>683.1</ele>
        <time>2025-10-05T07:11:08Z</time>
      </trkpt>
      <trkpt lat="43.33536" lon="5.76563">
        <ele>683.1</ele>
        <time>2025-10-05T07:11:09Z</time>
      </trkpt>
      <trkpt lat="43.33536" lon="5.76563">
        <ele>683</ele>
        <time>2025-10-05T07:11:10Z</time>
      </trkpt>
      <trkpt lat="43.33535" lon="5.76562">
        <ele>683</ele>
        <time>2025-10-05T07:11:11Z</time>
      </trkpt>
      <trkpt lat="43.33535" lon="5.76562">
        <ele>683</ele>
        <time>2025-10-05T07:11:12Z</time>
      </trkpt>
      <trkpt lat="43.33535" lon="5.76562">
        <ele>682.9</ele>
        <time>2025-10-05T07:11:13Z</time>
      </trkpt>
      <trkpt lat="43.33535" lon="5.76562">
        <ele>682.8</ele>
        <time>2025-10-05T07:11:14Z</time>
      </trkpt>
      <trkpt lat="43.33536" lon="5.76562">
        <ele>682.9</ele>
        <time>2025-10-05T07:11:15Z</time>
      </trkpt>
      <trkpt lat="43.33535" lon="5.76562">
        <ele>682.8</ele>
        <time>2025-10-05T07:11:16Z</time>
      </trkpt>
      <trkpt lat="43.33536" lon="5.76562">
        <ele>682.8</ele>
        <time>2025-10-05T07:11:17Z</time>
      </trkpt>
      <trkpt lat="43.33536" lon="5.76562">
        <ele>682.8</ele>
        <time>2025-10-05T07:11:18Z</time>
      </trkpt>
      <trkpt lat="43.33536" lon="5.76562">
        <ele>682.8</ele>
        <time>2025-10-05T07:11:19Z</time>
      </trkpt>
      <trkpt lat="43.33536" lon="5.76562">
        <ele>682.8</ele>
        <time>2025-10-05T07:11:20Z</time>
      </trkpt>
      <trkpt lat="43.33536" lon="5.76562">
        <ele>682.8</ele>
        <time>2025-10-05T07:11:21Z</time>
      </trkpt>
      <trkpt lat="43.33536" lon="5.76561">
        <ele>682.9</ele>
        <time>2025-10-05T07:11:22Z</time>
      </trkpt>
      <trkpt lat="43.33535" lon="5.76561">
        <ele>683</ele>
        <time>2025-10-05T07:11:23Z</time>
      </trkpt>
      <trkpt lat="43.33535" lon="5.76561">
        <ele>683.1</ele>
        <time>2025-10-05T07:11:24Z</time>
      </trkpt>
      <trkpt lat="43.33535" lon="5.7656">
        <ele>683.2</ele>
        <time>2025-10-05T07:11:25Z</time>
      </trkpt>
      <trkpt lat="43.33535" lon="5.76561">
        <ele>683.1</ele>
        <time>2025-10-05T07:11:26Z</time>
      </trkpt>
      <trkpt lat="43.33535" lon="5.76561">
        <ele>683.2</ele>
        <time>2025-10-05T07:11:27Z</time>
      </trkpt>
      <trkpt lat="43.33535" lon="5.76561">
        <ele>683.2</ele>
        <time>2025-10-05T07:11:28Z</time>
      </trkpt>
      <trkpt lat="43.33535" lon="5.76561">
        <ele>683.2</ele>
        <time>2025-10-05T07:11:29Z</time>
      </trkpt>
      <trkpt lat="43.33536" lon="5.76561">
        <ele>683.3</ele>
        <time>2025-10-05T07:11:30Z</time>
      </trkpt>
      <trkpt lat="43.33536" lon="5.76561">
        <ele>683.3</ele>
        <time>2025-10-05T07:11:31Z</time>
      </trkpt>
      <trkpt lat="43.33536" lon="5.76562">
        <ele>683.3</ele>
        <time>2025-10-05T07:11:32Z</time>
      </trkpt>
      <trkpt lat="43.33536" lon="5.76561">
        <ele>683.4</ele>
        <time>2025-10-05T07:11:33Z</time>
      </trkpt>
      <trkpt lat="43.33537" lon="5.76561">
        <ele>683.4</ele>
        <time>2025-10-05T07:11:34Z</time>
      </trkpt>
      <trkpt lat="43.33537" lon="5.76561">
        <ele>683.4</ele>
        <time>2025-10-05T07:11:35Z</time>
      </trkpt>
      <trkpt lat="43.33537" lon="5.76561">
        <ele>683.3</ele>
        <time>2025-10-05T07:11:36Z</time>
      </trkpt>
      <trkpt lat="43.33537" lon="5.76561">
        <ele>683.3</ele>
        <time>2025-10-05T07:11:37Z</time>
      </trkpt>
      <trkpt lat="43.33537" lon="5.76561">
        <ele>683.2</ele>
        <time>2025-10-05T07:11:38Z</time>
      </trkpt>
      <trkpt lat="43.33537" lon="5.7656">
        <ele>683.2</ele>
        <time>2025-10-05T07:11:39Z</time>
      </trkpt>
      <trkpt lat="43.33537" lon="5.76559">
        <ele>683.2</ele>
        <time>2025-10-05T07:11:40Z</time>
      </trkpt>
      <trkpt lat="43.33537" lon="5.76559">
        <ele>683.2</ele>
        <time>2025-10-05T07:11:41Z</time>
      </trkpt>
      <trkpt lat="43.33537" lon="5.76559">
        <ele>683.1</ele>
        <time>2025-10-05T07:11:42Z</time>
      </trkpt>
      <trkpt lat="43.33538" lon="5.76558">
        <ele>683.1</ele>
        <time>2025-10-05T07:11:43Z</time>
      </trkpt>
      <trkpt lat="43.33537" lon="5.76558">
        <ele>683</ele>
        <time>2025-10-05T07:11:44Z</time>
      </trkpt>
      <trkpt lat="43.33538" lon="5.76558">
        <ele>683</ele>
        <time>2025-10-05T07:11:45Z</time>
      </trkpt>
      <trkpt lat="43.33538" lon="5.76558">
        <ele>683.2</ele>
        <time>2025-10-05T07:11:46Z</time>
      </trkpt>
      <trkpt lat="43.33538" lon="5.76558">
        <ele>683.1</ele>
        <time>2025-10-05T07:11:47Z</time>
      </trkpt>
      <trkpt lat="43.33538" lon="5.76558">
        <ele>682.9</ele>
        <time>2025-10-05T07:11:48Z</time>
      </trkpt>
      <trkpt lat="43.33538" lon="5.76558">
        <ele>682.9</ele>
        <time>2025-10-05T07:11:49Z</time>
      </trkpt>
      <trkpt lat="43.33538" lon="5.76558">
        <ele>682.9</ele>
        <time>2025-10-05T07:11:50Z</time>
      </trkpt>
      <trkpt lat="43.33538" lon="5.76558">
        <ele>682.9</ele>
        <time>2025-10-05T07:11:51Z</time>
      </trkpt>
      <trkpt lat="43.33538" lon="5.76558">
        <ele>682.9</ele>
        <time>2025-10-05T07:11:52Z</time>
      </trkpt>
      <trkpt lat="43.33538" lon="5.76558">
        <ele>682.9</ele>
        <time>2025-10-05T07:11:53Z</time>
      </trkpt>
      <trkpt lat="43.33538" lon="5.76558">
        <ele>682.8</ele>
        <time>2025-10-05T07:11:54Z</time>
      </trkpt>
      <trkpt lat="43.33538" lon="5.76558">
        <ele>682.7</ele>
        <time>2025-10-05T07:11:55Z</time>
      </trkpt>
      <trkpt lat="43.33538" lon="5.76558">
        <ele>682.7</ele>
        <time>2025-10-05T07:11:56Z</time>
      </trkpt>
      <trkpt lat="43.33538" lon="5.76558">
        <ele>682.5</ele>
        <time>2025-10-05T07:11:57Z</time>
      </trkpt>
      <trkpt lat="43.33538" lon="5.76558">
        <ele>682.4</ele>
        <time>2025-10-05T07:11:58Z</time>
      </trkpt>
      <trkpt lat="43.33538" lon="5.76558">
        <ele>682.3</ele>
        <time>2025-10-05T07:11:59Z</time>
      </trkpt>
      <trkpt lat="43.33538" lon="5.76558">
        <ele>682.2</ele>
        <time>2025-10-05T07:12:00Z</time>
      </trkpt>
      <trkpt lat="43.33538" lon="5.76558">
        <ele>682.2</ele>
        <time>2025-10-05T07:12:01Z</time>
      </trkpt>
      <trkpt lat="43.33538" lon="5.76558">
        <ele>682.2</ele>
        <time>2025-10-05T07:12:02Z</time>
      </trkpt>
      <trkpt lat="43.33539" lon="5.76558">
        <ele>682.2</ele>
        <time>2025-10-05T07:12:03Z</time>
      </trkpt>
      <trkpt lat="43.33539" lon="5.76558">
        <ele>682.2</ele>
        <time>2025-10-05T07:12:04Z</time>
      </trkpt>
      <trkpt lat="43.33539" lon="5.76558">
        <ele>682.2</ele>
        <time>2025-10-05T07:12:05Z</time>
      </trkpt>
      <trkpt lat="43.33539" lon="5.76558">
        <ele>682.2</ele>
        <time>2025-10-05T07:12:06Z</time>
      </trkpt>
      <trkpt lat="43.33539" lon="5.76558">
        <ele>682.3</ele>
        <time>2025-10-05T07:12:07Z</time>
      </trkpt>
      <trkpt lat="43.33539" lon="5.76558">
        <ele>682.3</ele>
        <time>2025-10-05T07:12:08Z</time>
      </trkpt>
      <trkpt lat="43.33539" lon="5.76558">
        <ele>682.1</ele>
        <time>2025-10-05T07:12:09Z</time>
      </trkpt>
      <trkpt lat="43.33539" lon="5.76558">
        <ele>682</ele>
        <time>2025-10-05T07:12:10Z</time>
      </trkpt>
      <trkpt lat="43.33539" lon="5.76558">
        <ele>682</ele>
        <time>2025-10-05T07:12:11Z</time>
      </trkpt>
      <trkpt lat="43.33539" lon="5.76558">
        <ele>681.9</ele>
        <time>2025-10-05T07:12:12Z</time>
      </trkpt>
      <trkpt lat="43.33539" lon="5.76558">
        <ele>681.9</ele>
        <time>2025-10-05T07:12:13Z</time>
      </trkpt>
      <trkpt lat="43.33538" lon="5.76558">
        <ele>681.9</ele>
        <time>2025-10-05T07:12:14Z</time>
      </trkpt>
      <trkpt lat="43.33538" lon="5.76558">
        <ele>681.9</ele>
        <time>2025-10-05T07:12:15Z</time>
      </trkpt>
      <trkpt lat="43.33538" lon="5.76558">
        <ele>682</ele>
        <time>2025-10-05T07:12:16Z</time>
      </trkpt>
      <trkpt lat="43.33538" lon="5.76558">
        <ele>682.1</ele>
        <time>2025-10-05T07:12:17Z</time>
      </trkpt>
      <trkpt lat="43.33538" lon="5.76559">
        <ele>682.2</ele>
        <time>2025-10-05T07:12:18Z</time>
      </trkpt>
      <trkpt lat="43.33539" lon="5.76559">
        <ele>682.3</ele>
        <time>2025-10-05T07:12:19Z</time>
      </trkpt>
      <trkpt lat="43.33538" lon="5.76559">
        <ele>682.3</ele>
        <time>2025-10-05T07:12:20Z</time>
      </trkpt>
      <trkpt lat="43.33538" lon="5.76559">
        <ele>682.4</ele>
        <time>2025-10-05T07:12:21Z</time>
      </trkpt>
      <trkpt lat="43.33538" lon="5.76559">
        <ele>682.4</ele>
        <time>2025-10-05T07:12:22Z</time>
      </trkpt>
      <trkpt lat="43.33538" lon="5.76559">
        <ele>682.4</ele>
        <time>2025-10-05T07:12:23Z</time>
      </trkpt>
      <trkpt lat="43.33538" lon="5.76559">
        <ele>682.4</ele>
        <time>2025-10-05T07:12:24Z</time>
      </trkpt>
      <trkpt lat="43.33538" lon="5.76559">
        <ele>682.4</ele>
        <time>2025-10-05T07:12:25Z</time>
      </trkpt>
      <trkpt lat="43.33538" lon="5.76559">
        <ele>682.4</ele>
        <time>2025-10-05T07:12:26Z</time>
      </trkpt>
      <trkpt lat="43.33538" lon="5.76559">
        <ele>682.5</ele>
        <time>2025-10-05T07:12:27Z</time>
      </trkpt>
      <trkpt lat="43.33539" lon="5.7656">
        <ele>682.7</ele>
        <time>2025-10-05T07:12:28Z</time>
      </trkpt>
      <trkpt lat="43.33539" lon="5.76559">
        <ele>682.7</ele>
        <time>2025-10-05T07:12:29Z</time>
      </trkpt>
      <trkpt lat="43.33539" lon="5.76559">
        <ele>682.6</ele>
        <time>2025-10-05T07:12:30Z</time>
      </trkpt>
      <trkpt lat="43.33539" lon="5.76559">
        <ele>682.6</ele>
        <time>2025-10-05T07:12:31Z</time>
      </trkpt>
      <trkpt lat="43.33539" lon="5.76559">
        <ele>682.6</ele>
        <time>2025-10-05T07:12:32Z</time>
      </trkpt>
      <trkpt lat="43.3354" lon="5.76559">
        <ele>682.6</ele>
        <time>2025-10-05T07:12:33Z</time>
      </trkpt>
      <trkpt lat="43.3354" lon="5.76559">
        <ele>682.5</ele>
        <time>2025-10-05T07:12:34Z</time>
      </trkpt>
      <trkpt lat="43.3354" lon="5.76559">
        <ele>682.5</ele>
        <time>2025-10-05T07:12:35Z</time>
      </trkpt>
      <trkpt lat="43.3354" lon="5.76559">
        <ele>682.4</ele>
        <time>2025-10-05T07:12:36Z</time>
      </trkpt>
      <trkpt lat="43.3354" lon="5.76559">
        <ele>682.3</ele>
        <time>2025-10-05T07:12:37Z</time>
      </trkpt>
      <trkpt lat="43.3354" lon="5.76559">
        <ele>682.2</ele>
        <time>2025-10-05T07:12:38Z</time>
      </trkpt>
      <trkpt lat="43.3354" lon="5.76559">
        <ele>682.2</ele>
        <time>2025-10-05T07:12:39Z</time>
      </trkpt>
      <trkpt lat="43.3354" lon="5.76559">
        <ele>682.1</ele>
        <time>2025-10-05T07:12:40Z</time>
      </trkpt>
      <trkpt lat="43.3354" lon="5.76559">
        <ele>682.1</ele>
        <time>2025-10-05T07:12:41Z</time>
      </trkpt>
      <trkpt lat="43.3354" lon="5.76559">
        <ele>682.1</ele>
        <time>2025-10-05T07:12:42Z</time>
      </trkpt>
      <trkpt lat="43.3354" lon="5.76559">
        <ele>682.1</ele>
        <time>2025-10-05T07:12:43Z</time>
      </trkpt>
      <trkpt lat="43.3354" lon="5.76559">
        <ele>682.2</ele>
        <time>2025-10-05T07:12:44Z</time>
      </trkpt>
      <trkpt lat="43.3354" lon="5.7656">
        <ele>682.2</ele>
        <time>2025-10-05T07:12:45Z</time>
      </trkpt>
      <trkpt lat="43.3354" lon="5.7656">
        <ele>682.1</ele>
        <time>2025-10-05T07:12:46Z</time>
      </trkpt>
      <trkpt lat="43.3354" lon="5.7656">
        <ele>682</ele>
        <time>2025-10-05T07:12:47Z</time>
      </trkpt>
      <trkpt lat="43.3354" lon="5.7656">
        <ele>681.9</ele>
        <time>2025-10-05T07:12:48Z</time>
      </trkpt>
      <trkpt lat="43.3354" lon="5.7656">
        <ele>681.9</ele>
        <time>2025-10-05T07:12:49Z</time>
      </trkpt>
      <trkpt lat="43.33541" lon="5.7656">
        <ele>681.8</ele>
        <time>2025-10-05T07:12:50Z</time>
      </trkpt>
      <trkpt lat="43.33541" lon="5.76559">
        <ele>681.7</ele>
        <time>2025-10-05T07:12:51Z</time>
      </trkpt>
      <trkpt lat="43.33541" lon="5.76559">
        <ele>681.7</ele>
        <time>2025-10-05T07:12:52Z</time>
      </trkpt>
      <trkpt lat="43.33541" lon="5.76559">
        <ele>681.7</ele>
        <time>2025-10-05T07:12:53Z</time>
      </trkpt>
      <trkpt lat="43.33541" lon="5.76559">
        <ele>681.7</ele>
        <time>2025-10-05T07:12:54Z</time>
      </trkpt>
      <trkpt lat="43.33541" lon="5.76559">
        <ele>681.8</ele>
        <time>2025-10-05T07:12:55Z</time>
      </trkpt>
      <trkpt lat="43.33541" lon="5.76559">
        <ele>681.8</ele>
        <time>2025-10-05T07:12:56Z</time>
      </trkpt>
      <trkpt lat="43.33541" lon="5.76559">
        <ele>681.7</ele>
        <time>2025-10-05T07:12:57Z</time>
      </trkpt>
      <trkpt lat="43.33541" lon="5.76559">
        <ele>681.7</ele>
        <time>2025-10-05T07:12:58Z</time>
      </trkpt>
      <trkpt lat="43.33541" lon="5.76559">
        <ele>681.7</ele>
        <time>2025-10-05T07:12:59Z</time>
      </trkpt>
      <trkpt lat="43.33541" lon="5.76559">
        <ele>681.5</ele>
        <time>2025-10-05T07:13:00Z</time>
      </trkpt>
      <trkpt lat="43.33541" lon="5.76559">
        <ele>681.4</ele>
        <time>2025-10-05T07:13:01Z</time>
      </trkpt>
      <trkpt lat="43.33541" lon="5.76559">
        <ele>681.4</ele>
        <time>2025-10-05T07:13:02Z</time>
      </trkpt>
      <trkpt lat="43.33541" lon="5.76559">
        <ele>681.3</ele>
        <time>2025-10-05T07:13:03Z</time>
      </trkpt>
      <trkpt lat="43.33541" lon="5.76559">
        <ele>681.3</ele>
        <time>2025-10-05T07:13:04Z</time>
      </trkpt>
      <trkpt lat="43.33541" lon="5.76559">
        <ele>681.3</ele>
        <time>2025-10-05T07:13:05Z</time>
      </trkpt>
      <trkpt lat="43.33541" lon="5.76559">
        <ele>681.2</ele>
        <time>2025-10-05T07:13:06Z</time>
      </trkpt>
      <trkpt lat="43.33541" lon="5.76559">
        <ele>681.1</ele>
        <time>2025-10-05T07:13:07Z</time>
      </trkpt>
      <trkpt lat="43.3354" lon="5.76559">
        <ele>681.1</ele>
        <time>2025-10-05T07:13:08Z</time>
      </trkpt>
      <trkpt lat="43.3354" lon="5.76559">
        <ele>681.1</ele>
        <time>2025-10-05T07:13:09Z</time>
      </trkpt>
      <trkpt lat="43.33541" lon="5.76559">
        <ele>681</ele>
        <time>2025-10-05T07:13:10Z</time>
      </trkpt>
      <trkpt lat="43.33541" lon="5.76559">
        <ele>681.1</ele>
        <time>2025-10-05T07:13:11Z</time>
      </trkpt>
      <trkpt lat="43.33541" lon="5.76557">
        <ele>681.1</ele>
        <time>2025-10-05T07:13:12Z</time>
      </trkpt>
      <trkpt lat="43.33541" lon="5.76556">
        <ele>681</ele>
        <time>2025-10-05T07:13:13Z</time>
      </trkpt>
      <trkpt lat="43.33541" lon="5.76555">
        <ele>681</ele>
        <time>2025-10-05T07:13:14Z</time>
      </trkpt>
      <trkpt lat="43.33541" lon="5.76555">
        <ele>680.9</ele>
        <time>2025-10-05T07:13:15Z</time>
      </trkpt>
      <trkpt lat="43.3354" lon="5.76555">
        <ele>680.9</ele>
        <time>2025-10-05T07:13:16Z</time>
      </trkpt>
      <trkpt lat="43.3354" lon="5.76556">
        <ele>680.9</ele>
        <time>2025-10-05T07:13:17Z</time>
      </trkpt>
      <trkpt lat="43.3354" lon="5.76556">
        <ele>680.9</ele>
        <time>2025-10-05T07:13:18Z</time>
      </trkpt>
      <trkpt lat="43.3354" lon="5.76556">
        <ele>681</ele>
        <time>2025-10-05T07:13:19Z</time>
      </trkpt>
      <trkpt lat="43.33541" lon="5.76555">
        <ele>681</ele>
        <time>2025-10-05T07:13:20Z</time>
      </trkpt>
      <trkpt lat="43.33541" lon="5.76556">
        <ele>681</ele>
        <time>2025-10-05T07:13:21Z</time>
      </trkpt>
      <trkpt lat="43.3354" lon="5.76556">
        <ele>680.9</ele>
        <time>2025-10-05T07:13:22Z</time>
      </trkpt>
      <trkpt lat="43.3354" lon="5.76556">
        <ele>680.9</ele>
        <time>2025-10-05T07:13:23Z</time>
      </trkpt>
      <trkpt lat="43.3354" lon="5.76557">
        <ele>680.9</ele>
        <time>2025-10-05T07:13:24Z</time>
      </trkpt>
      <trkpt lat="43.3354" lon="5.76558">
        <ele>680.8</ele>
        <time>2025-10-05T07:13:25Z</time>
      </trkpt>
      <trkpt lat="43.3354" lon="5.76558">
        <ele>680.8</ele>
        <time>2025-10-05T07:13:26Z</time>
      </trkpt>
      <trkpt lat="43.3354" lon="5.76559">
        <ele>680.9</ele>
        <time>2025-10-05T07:13:27Z</time>
      </trkpt>
      <trkpt lat="43.33539" lon="5.76559">
        <ele>680.8</ele>
        <time>2025-10-05T07:13:28Z</time>
      </trkpt>
      <trkpt lat="43.3354" lon="5.76558">
        <ele>680.8</ele>
        <time>2025-10-05T07:13:29Z</time>
      </trkpt>
      <trkpt lat="43.3354" lon="5.76558">
        <ele>680.8</ele>
        <time>2025-10-05T07:13:30Z</time>
      </trkpt>
      <trkpt lat="43.3354" lon="5.76558">
        <ele>680.8</ele>
        <time>2025-10-05T07:13:31Z</time>
      </trkpt>
      <trkpt lat="43.33539" lon="5.76558">
        <ele>680.7</ele>
        <time>2025-10-05T07:13:32Z</time>
      </trkpt>
      <trkpt lat="43.3354" lon="5.76558">
        <ele>680.7</ele>
        <time>2025-10-05T07:13:33Z</time>
      </trkpt>
      <trkpt lat="43.3354" lon="5.76558">
        <ele>680.7</ele>
        <time>2025-10-05T07:13:34Z</time>
      </trkpt>
      <trkpt lat="43.3354" lon="5.76558">
        <ele>680.7</ele>
        <time>2025-10-05T07:13:35Z</time>
      </trkpt>
      <trkpt lat="43.3354" lon="5.76558">
        <ele>680.8</ele>
        <time>2025-10-05T07:13:36Z</time>
      </trkpt>
      <trkpt lat="43.3354" lon="5.76558">
        <ele>680.8</ele>
        <time>2025-10-05T07:13:37Z</time>
      </trkpt>
      <trkpt lat="43.3354" lon="5.76558">
        <ele>680.7</ele>
        <time>2025-10-05T07:13:38Z</time>
      </trkpt>
      <trkpt lat="43.3354" lon="5.76558">
        <ele>680.6</ele>
        <time>2025-10-05T07:13:39Z</time>
      </trkpt>
      <trkpt lat="43.3354" lon="5.76558">
        <ele>680.6</ele>
        <time>2025-10-05T07:13:40Z</time>
      </trkpt>
      <trkpt lat="43.33541" lon="5.76558">
        <ele>680.5</ele>
        <time>2025-10-05T07:13:41Z</time>
      </trkpt>
      <trkpt lat="43.33541" lon="5.76558">
        <ele>680.7</ele>
        <time>2025-10-05T07:13:42Z</time>
      </trkpt>
      <trkpt lat="43.33541" lon="5.76558">
        <ele>680.7</ele>
        <time>2025-10-05T07:13:43Z</time>
      </trkpt>
      <trkpt lat="43.33541" lon="5.76558">
        <ele>680.8</ele>
        <time>2025-10-05T07:13:44Z</time>
      </trkpt>
      <trkpt lat="43.33542" lon="5.76558">
        <ele>680.9</ele>
        <time>2025-10-05T07:13:45Z</time>
      </trkpt>
      <trkpt lat="43.33542" lon="5.76558">
        <ele>680.9</ele>
        <time>2025-10-05T07:13:46Z</time>
      </trkpt>
      <trkpt lat="43.33542" lon="5.76558">
        <ele>680.9</ele>
        <time>2025-10-05T07:13:47Z</time>
      </trkpt>
      <trkpt lat="43.33542" lon="5.76558">
        <ele>680.9</ele>
        <time>2025-10-05T07:13:48Z</time>
      </trkpt>
      <trkpt lat="43.33542" lon="5.76558">
        <ele>680.9</ele>
        <time>2025-10-05T07:13:49Z</time>
      </trkpt>
      <trkpt lat="43.33542" lon="5.76558">
        <ele>680.9</ele>
        <time>2025-10-05T07:13:50Z</time>
      </trkpt>
      <trkpt lat="43.33542" lon="5.76559">
        <ele>680.7</ele>
        <time>2025-10-05T07:13:51Z</time>
      </trkpt>
      <trkpt lat="43.33542" lon="5.76559">
        <ele>680.7</ele>
        <time>2025-10-05T07:13:52Z</time>
      </trkpt>
      <trkpt lat="43.33542" lon="5.76559">
        <ele>680.6</ele>
        <time>2025-10-05T07:13:53Z</time>
      </trkpt>
      <trkpt lat="43.33542" lon="5.7656">
        <ele>680.6</ele>
        <time>2025-10-05T07:13:54Z</time>
      </trkpt>
      <trkpt lat="43.33542" lon="5.7656">
        <ele>680.6</ele>
        <time>2025-10-05T07:13:55Z</time>
      </trkpt>
      <trkpt lat="43.33542" lon="5.7656">
        <ele>680.8</ele>
        <time>2025-10-05T07:13:56Z</time>
      </trkpt>
      <trkpt lat="43.33542" lon="5.7656">
        <ele>681</ele>
        <time>2025-10-05T07:13:57Z</time>
      </trkpt>
      <trkpt lat="43.33542" lon="5.7656">
        <ele>681.3</ele>
        <time>2025-10-05T07:13:58Z</time>
      </trkpt>
      <trkpt lat="43.33541" lon="5.7656">
        <ele>681.5</ele>
        <time>2025-10-05T07:13:59Z</time>
      </trkpt>
      <trkpt lat="43.33541" lon="5.76561">
        <ele>681.8</ele>
        <time>2025-10-05T07:14:00Z</time>
      </trkpt>
      <trkpt lat="43.33542" lon="5.76561">
        <ele>681.9</ele>
        <time>2025-10-05T07:14:01Z</time>
      </trkpt>
      <trkpt lat="43.33542" lon="5.7656">
        <ele>681.9</ele>
        <time>2025-10-05T07:14:02Z</time>
      </trkpt>
      <trkpt lat="43.33542" lon="5.7656">
        <ele>682</ele>
        <time>2025-10-05T07:14:03Z</time>
      </trkpt>
      <trkpt lat="43.33543" lon="5.76559">
        <ele>682</ele>
        <time>2025-10-05T07:14:04Z</time>
      </trkpt>
      <trkpt lat="43.33542" lon="5.76559">
        <ele>682</ele>
        <time>2025-10-05T07:14:05Z</time>
      </trkpt>
      <trkpt lat="43.33543" lon="5.76559">
        <ele>681.9</ele>
        <time>2025-10-05T07:14:06Z</time>
      </trkpt>
      <trkpt lat="43.33543" lon="5.76559">
        <ele>681.8</ele>
        <time>2025-10-05T07:14:07Z</time>
      </trkpt>
      <trkpt lat="43.33543" lon="5.7656">
        <ele>681.8</ele>
        <time>2025-10-05T07:14:08Z</time>
      </trkpt>
      <trkpt lat="43.33543" lon="5.7656">
        <ele>681.7</ele>
        <time>2025-10-05T07:14:09Z</time>
      </trkpt>
      <trkpt lat="43.33542" lon="5.7656">
        <ele>681.7</ele>
        <time>2025-10-05T07:14:10Z</time>
      </trkpt>
      <trkpt lat="43.33542" lon="5.7656">
        <ele>681.6</ele>
        <time>2025-10-05T07:14:11Z</time>
      </trkpt>
      <trkpt lat="43.33542" lon="5.7656">
        <ele>681.6</ele>
        <time>2025-10-05T07:14:12Z</time>
      </trkpt>
      <trkpt lat="43.33542" lon="5.7656">
        <ele>681.5</ele>
        <time>2025-10-05T07:14:13Z</time>
      </trkpt>
      <trkpt lat="43.33542" lon="5.7656">
        <ele>681.5</ele>
        <time>2025-10-05T07:14:14Z</time>
      </trkpt>
      <trkpt lat="43.33542" lon="5.7656">
        <ele>681.5</ele>
        <time>2025-10-05T07:14:15Z</time>
      </trkpt>
      <trkpt lat="43.33541" lon="5.7656">
        <ele>681.5</ele>
        <time>2025-10-05T07:14:16Z</time>
      </trkpt>
      <trkpt lat="43.33541" lon="5.7656">
        <ele>681.4</ele>
        <time>2025-10-05T07:14:17Z</time>
      </trkpt>
      <trkpt lat="43.33541" lon="5.7656">
        <ele>681.3</ele>
        <time>2025-10-05T07:14:18Z</time>
      </trkpt>
      <trkpt lat="43.33541" lon="5.7656">
        <ele>681.3</ele>
        <time>2025-10-05T07:14:19Z</time>
      </trkpt>
      <trkpt lat="43.33541" lon="5.7656">
        <ele>681.1</ele>
        <time>2025-10-05T07:14:20Z</time>
      </trkpt>
      <trkpt lat="43.33541" lon="5.7656">
        <ele>681.2</ele>
        <time>2025-10-05T07:14:21Z</time>
      </trkpt>
      <trkpt lat="43.33541" lon="5.76559">
        <ele>681.3</ele>
        <time>2025-10-05T07:14:22Z</time>
      </trkpt>
      <trkpt lat="43.33541" lon="5.76559">
        <ele>681.3</ele>
        <time>2025-10-05T07:14:23Z</time>
      </trkpt>
      <trkpt lat="43.33541" lon="5.76559">
        <ele>681.2</ele>
        <time>2025-10-05T07:14:24Z</time>
      </trkpt>
      <trkpt lat="43.3354" lon="5.76559">
        <ele>681.2</ele>
        <time>2025-10-05T07:14:25Z</time>
      </trkpt>
      <trkpt lat="43.3354" lon="5.76558">
        <ele>681.1</ele>
        <time>2025-10-05T07:14:26Z</time>
      </trkpt>
      <trkpt lat="43.3354" lon="5.76558">
        <ele>681.2</ele>
        <time>2025-10-05T07:14:27Z</time>
      </trkpt>
      <trkpt lat="43.3354" lon="5.76558">
        <ele>681.2</ele>
        <time>2025-10-05T07:14:28Z</time>
      </trkpt>
      <trkpt lat="43.3354" lon="5.76558">
        <ele>681.2</ele>
        <time>2025-10-05T07:14:29Z</time>
      </trkpt>
      <trkpt lat="43.3354" lon="5.76558">
        <ele>681.2</ele>
        <time>2025-10-05T07:14:30Z</time>
      </trkpt>
      <trkpt lat="43.3354" lon="5.76558">
        <ele>681.3</ele>
        <time>2025-10-05T07:14:31Z</time>
      </trkpt>
      <trkpt lat="43.3354" lon="5.76558">
        <ele>681.4</ele>
        <time>2025-10-05T07:14:32Z</time>
      </trkpt>
      <trkpt lat="43.3354" lon="5.76558">
        <ele>681.4</ele>
        <time>2025-10-05T07:14:33Z</time>
      </trkpt>
      <trkpt lat="43.3354" lon="5.76558">
        <ele>681.4</ele>
        <time>2025-10-05T07:14:34Z</time>
      </trkpt>
      <trkpt lat="43.3354" lon="5.76558">
        <ele>681.4</ele>
        <time>2025-10-05T07:14:35Z</time>
      </trkpt>
      <trkpt lat="43.3354" lon="5.76557">
        <ele>681.3</ele>
        <time>2025-10-05T07:14:36Z</time>
      </trkpt>
      <trkpt lat="43.3354" lon="5.76557">
        <ele>681.3</ele>
        <time>2025-10-05T07:14:37Z</time>
      </trkpt>
      <trkpt lat="43.3354" lon="5.76557">
        <ele>681.3</ele>
        <time>2025-10-05T07:14:38Z</time>
      </trkpt>
      <trkpt lat="43.3354" lon="5.76557">
        <ele>681.4</ele>
        <time>2025-10-05T07:14:39Z</time>
      </trkpt>
      <trkpt lat="43.3354" lon="5.76557">
        <ele>681.3</ele>
        <time>2025-10-05T07:14:40Z</time>
      </trkpt>
      <trkpt lat="43.3354" lon="5.76557">
        <ele>681.2</ele>
        <time>2025-10-05T07:14:41Z</time>
      </trkpt>
      <trkpt lat="43.3354" lon="5.76557">
        <ele>681.1</ele>
        <time>2025-10-05T07:14:42Z</time>
      </trkpt>
      <trkpt lat="43.3354" lon="5.76557">
        <ele>681.1</ele>
        <time>2025-10-05T07:14:43Z</time>
      </trkpt>
      <trkpt lat="43.3354" lon="5.76556">
        <ele>681</ele>
        <time>2025-10-05T07:14:44Z</time>
      </trkpt>
      <trkpt lat="43.33539" lon="5.76556">
        <ele>681.1</ele>
        <time>2025-10-05T07:14:45Z</time>
      </trkpt>
      <trkpt lat="43.33539" lon="5.76556">
        <ele>681.1</ele>
        <time>2025-10-05T07:14:46Z</time>
      </trkpt>
      <trkpt lat="43.33539" lon="5.76556">
        <ele>681.1</ele>
        <time>2025-10-05T07:14:47Z</time>
      </trkpt>
      <trkpt lat="43.33539" lon="5.76557">
        <ele>681.1</ele>
        <time>2025-10-05T07:14:48Z</time>
      </trkpt>
      <trkpt lat="43.33538" lon="5.76556">
        <ele>681.1</ele>
        <time>2025-10-05T07:14:49Z</time>
      </trkpt>
      <trkpt lat="43.33538" lon="5.76557">
        <ele>681.2</ele>
        <time>2025-10-05T07:14:50Z</time>
      </trkpt>
      <trkpt lat="43.33538" lon="5.76557">
        <ele>681.2</ele>
        <time>2025-10-05T07:14:51Z</time>
      </trkpt>
      <trkpt lat="43.33537" lon="5.76557">
        <ele>681.2</ele>
        <time>2025-10-05T07:14:52Z</time>
      </trkpt>
      <trkpt lat="43.33537" lon="5.76557">
        <ele>681.2</ele>
        <time>2025-10-05T07:14:53Z</time>
      </trkpt>
      <trkpt lat="43.33537" lon="5.76557">
        <ele>681.3</ele>
        <time>2025-10-05T07:14:54Z</time>
      </trkpt>
      <trkpt lat="43.33537" lon="5.76557">
        <ele>681.3</ele>
        <time>2025-10-05T07:14:55Z</time>
      </trkpt>
      <trkpt lat="43.33537" lon="5.76557">
        <ele>681.3</ele>
        <time>2025-10-05T07:14:56Z</time>
      </trkpt>
      <trkpt lat="43.33537" lon="5.76557">
        <ele>681.3</ele>
        <time>2025-10-05T07:14:57Z</time>
      </trkpt>
      <trkpt lat="43.33537" lon="5.76557">
        <ele>681.3</ele>
        <time>2025-10-05T07:14:58Z</time>
      </trkpt>
      <trkpt lat="43.33536" lon="5.76557">
        <ele>681.3</ele>
        <time>2025-10-05T07:14:59Z</time>
      </trkpt>
      <trkpt lat="43.33536" lon="5.76557">
        <ele>681.4</ele>
        <time>2025-10-05T07:15:00Z</time>
      </trkpt>
      <trkpt lat="43.33536" lon="5.76557">
        <ele>681.3</ele>
        <time>2025-10-05T07:15:01Z</time>
      </trkpt>
      <trkpt lat="43.33536" lon="5.76557">
        <ele>681.2</ele>
        <time>2025-10-05T07:15:02Z</time>
      </trkpt>
      <trkpt lat="43.33537" lon="5.76557">
        <ele>681.2</ele>
        <time>2025-10-05T07:15:03Z</time>
      </trkpt>
      <trkpt lat="43.33537" lon="5.76557">
        <ele>681.3</ele>
        <time>2025-10-05T07:15:04Z</time>
      </trkpt>
      <trkpt lat="43.33537" lon="5.76557">
        <ele>681.3</ele>
        <time>2025-10-05T07:15:05Z</time>
      </trkpt>
      <trkpt lat="43.33537" lon="5.76557">
        <ele>681.3</ele>
        <time>2025-10-05T07:15:06Z</time>
      </trkpt>
      <trkpt lat="43.33537" lon="5.76557">
        <ele>681.3</ele>
        <time>2025-10-05T07:15:07Z</time>
      </trkpt>
      <trkpt lat="43.33537" lon="5.76557">
        <ele>681.4</ele>
        <time>2025-10-05T07:15:08Z</time>
      </trkpt>
      <trkpt lat="43.33537" lon="5.76557">
        <ele>681.7</ele>
        <time>2025-10-05T07:15:09Z</time>
      </trkpt>
      <trkpt lat="43.33537" lon="5.76557">
        <ele>681.8</ele>
        <time>2025-10-05T07:15:10Z</time>
      </trkpt>
      <trkpt lat="43.33537" lon="5.76557">
        <ele>682</ele>
        <time>2025-10-05T07:15:11Z</time>
      </trkpt>
      <trkpt lat="43.33537" lon="5.76557">
        <ele>682.2</ele>
        <time>2025-10-05T07:15:12Z</time>
      </trkpt>
      <trkpt lat="43.33537" lon="5.76557">
        <ele>682.2</ele>
        <time>2025-10-05T07:15:13Z</time>
      </trkpt>
      <trkpt lat="43.33537" lon="5.76557">
        <ele>682.2</ele>
        <time>2025-10-05T07:15:14Z</time>
      </trkpt>
      <trkpt lat="43.33537" lon="5.76557">
        <ele>682.3</ele>
        <time>2025-10-05T07:15:15Z</time>
      </trkpt>
      <trkpt lat="43.33537" lon="5.76557">
        <ele>682.3</ele>
        <time>2025-10-05T07:15:16Z</time>
      </trkpt>
      <trkpt lat="43.33537" lon="5.76556">
        <ele>682.3</ele>
        <time>2025-10-05T07:15:17Z</time>
      </trkpt>
      <trkpt lat="43.33537" lon="5.76556">
        <ele>682.2</ele>
        <time>2025-10-05T07:15:18Z</time>
      </trkpt>
      <trkpt lat="43.33537" lon="5.76556">
        <ele>682.1</ele>
        <time>2025-10-05T07:15:19Z</time>
      </trkpt>
      <trkpt lat="43.33537" lon="5.76556">
        <ele>682</ele>
        <time>2025-10-05T07:15:20Z</time>
      </trkpt>
      <trkpt lat="43.33537" lon="5.76556">
        <ele>681.9</ele>
        <time>2025-10-05T07:15:21Z</time>
      </trkpt>
      <trkpt lat="43.33537" lon="5.76556">
        <ele>681.9</ele>
        <time>2025-10-05T07:15:22Z</time>
      </trkpt>
      <trkpt lat="43.33537" lon="5.76556">
        <ele>681.9</ele>
        <time>2025-10-05T07:15:23Z</time>
      </trkpt>
      <trkpt lat="43.33537" lon="5.76556">
        <ele>682</ele>
        <time>2025-10-05T07:15:24Z</time>
      </trkpt>
      <trkpt lat="43.33537" lon="5.76556">
        <ele>682</ele>
        <time>2025-10-05T07:15:25Z</time>
      </trkpt>
      <trkpt lat="43.33537" lon="5.76556">
        <ele>682</ele>
        <time>2025-10-05T07:15:26Z</time>
      </trkpt>
      <trkpt lat="43.33537" lon="5.76556">
        <ele>681.9</ele>
        <time>2025-10-05T07:15:27Z</time>
      </trkpt>
      <trkpt lat="43.33537" lon="5.76556">
        <ele>681.9</ele>
        <time>2025-10-05T07:15:28Z</time>
      </trkpt>
      <trkpt lat="43.33537" lon="5.76556">
        <ele>681.9</ele>
        <time>2025-10-05T07:15:29Z</time>
      </trkpt>
      <trkpt lat="43.33537" lon="5.76556">
        <ele>681.9</ele>
        <time>2025-10-05T07:15:30Z</time>
      </trkpt>
      <trkpt lat="43.33537" lon="5.76556">
        <ele>681.8</ele>
        <time>2025-10-05T07:15:31Z</time>
      </trkpt>
      <trkpt lat="43.33537" lon="5.76556">
        <ele>681.9</ele>
        <time>2025-10-05T07:15:32Z</time>
      </trkpt>
      <trkpt lat="43.33536" lon="5.76556">
        <ele>681.9</ele>
        <time>2025-10-05T07:15:33Z</time>
      </trkpt>
      <trkpt lat="43.33537" lon="5.76556">
        <ele>681.9</ele>
        <time>2025-10-05T07:15:34Z</time>
      </trkpt>
      <trkpt lat="43.33537" lon="5.76556">
        <ele>681.9</ele>
        <time>2025-10-05T07:15:35Z</time>
      </trkpt>
      <trkpt lat="43.33537" lon="5.76556">
        <ele>681.8</ele>
        <time>2025-10-05T07:15:36Z</time>
      </trkpt>
      <trkpt lat="43.33537" lon="5.76556">
        <ele>681.8</ele>
        <time>2025-10-05T07:15:37Z</time>
      </trkpt>
      <trkpt lat="43.33537" lon="5.76556">
        <ele>681.8</ele>
        <time>2025-10-05T07:15:38Z</time>
      </trkpt>
      <trkpt lat="43.33537" lon="5.76556">
        <ele>681.8</ele>
        <time>2025-10-05T07:15:39Z</time>
      </trkpt>
      <trkpt lat="43.33537" lon="5.76556">
        <ele>681.7</ele>
        <time>2025-10-05T07:15:40Z</time>
      </trkpt>
      <trkpt lat="43.33537" lon="5.76556">
        <ele>681.6</ele>
        <time>2025-10-05T07:15:41Z</time>
      </trkpt>
      <trkpt lat="43.33537" lon="5.76556">
        <ele>681.5</ele>
        <time>2025-10-05T07:15:42Z</time>
      </trkpt>
      <trkpt lat="43.33537" lon="5.76556">
        <ele>681.6</ele>
        <time>2025-10-05T07:15:43Z</time>
      </trkpt>
      <trkpt lat="43.33537" lon="5.76556">
        <ele>681.5</ele>
        <time>2025-10-05T07:15:44Z</time>
      </trkpt>
      <trkpt lat="43.33537" lon="5.76556">
        <ele>681.5</ele>
        <time>2025-10-05T07:15:45Z</time>
      </trkpt>
      <trkpt lat="43.33537" lon="5.76556">
        <ele>681.4</ele>
        <time>2025-10-05T07:15:46Z</time>
      </trkpt>
      <trkpt lat="43.33538" lon="5.76556">
        <ele>681.3</ele>
        <time>2025-10-05T07:15:47Z</time>
      </trkpt>
      <trkpt lat="43.33538" lon="5.76556">
        <ele>681.2</ele>
        <time>2025-10-05T07:15:48Z</time>
      </trkpt>
      <trkpt lat="43.33538" lon="5.76556">
        <ele>681.2</ele>
        <time>2025-10-05T07:15:49Z</time>
      </trkpt>
      <trkpt lat="43.33538" lon="5.76556">
        <ele>681.2</ele>
        <time>2025-10-05T07:15:50Z</time>
      </trkpt>
      <trkpt lat="43.33538" lon="5.76556">
        <ele>681.3</ele>
        <time>2025-10-05T07:15:51Z</time>
      </trkpt>
      <trkpt lat="43.33538" lon="5.76556">
        <ele>681.3</ele>
        <time>2025-10-05T07:15:52Z</time>
      </trkpt>
      <trkpt lat="43.33538" lon="5.76556">
        <ele>681.3</ele>
        <time>2025-10-05T07:15:53Z</time>
      </trkpt>
      <trkpt lat="43.33538" lon="5.76555">
        <ele>681.1</ele>
        <time>2025-10-05T07:15:54Z</time>
      </trkpt>
      <trkpt lat="43.33538" lon="5.76556">
        <ele>681.2</ele>
        <time>2025-10-05T07:15:55Z</time>
      </trkpt>
      <trkpt lat="43.33538" lon="5.76556">
        <ele>681.2</ele>
        <time>2025-10-05T07:15:56Z</time>
      </trkpt>
      <trkpt lat="43.33538" lon="5.76556">
        <ele>681.3</ele>
        <time>2025-10-05T07:15:57Z</time>
      </trkpt>
      <trkpt lat="43.33538" lon="5.76556">
        <ele>681.3</ele>
        <time>2025-10-05T07:15:58Z</time>
      </trkpt>
      <trkpt lat="43.33538" lon="5.76556">
        <ele>681.3</ele>
        <time>2025-10-05T07:15:59Z</time>
      </trkpt>
      <trkpt lat="43.33538" lon="5.76556">
        <ele>681.3</ele>
        <time>2025-10-05T07:16:00Z</time>
      </trkpt>
      <trkpt lat="43.33538" lon="5.76556">
        <ele>681.3</ele>
        <time>2025-10-05T07:16:01Z</time>
      </trkpt>
      <trkpt lat="43.33538" lon="5.76556">
        <ele>681.2</ele>
        <time>2025-10-05T07:16:02Z</time>
      </trkpt>
      <trkpt lat="43.33538" lon="5.76556">
        <ele>681.2</ele>
        <time>2025-10-05T07:16:03Z</time>
      </trkpt>
      <trkpt lat="43.33538" lon="5.76556">
        <ele>681.1</ele>
        <time>2025-10-05T07:16:04Z</time>
      </trkpt>
      <trkpt lat="43.33538" lon="5.76556">
        <ele>681.1</ele>
        <time>2025-10-05T07:16:05Z</time>
      </trkpt>
      <trkpt lat="43.33538" lon="5.76556">
        <ele>681.1</ele>
        <time>2025-10-05T07:16:06Z</time>
      </trkpt>
      <trkpt lat="43.33538" lon="5.76557">
        <ele>681.1</ele>
        <time>2025-10-05T07:16:07Z</time>
      </trkpt>
      <trkpt lat="43.33538" lon="5.76557">
        <ele>681.1</ele>
        <time>2025-10-05T07:16:08Z</time>
      </trkpt>
      <trkpt lat="43.33538" lon="5.76557">
        <ele>681.1</ele>
        <time>2025-10-05T07:16:09Z</time>
      </trkpt>
      <trkpt lat="43.33538" lon="5.76557">
        <ele>681.1</ele>
        <time>2025-10-05T07:16:10Z</time>
      </trkpt>
      <trkpt lat="43.33538" lon="5.76556">
        <ele>681.1</ele>
        <time>2025-10-05T07:16:11Z</time>
      </trkpt>
      <trkpt lat="43.33538" lon="5.76557">
        <ele>681.1</ele>
        <time>2025-10-05T07:16:12Z</time>
      </trkpt>
      <trkpt lat="43.33538" lon="5.76557">
        <ele>681.1</ele>
        <time>2025-10-05T07:16:13Z</time>
      </trkpt>
      <trkpt lat="43.33538" lon="5.76557">
        <ele>681.2</ele>
        <time>2025-10-05T07:16:14Z</time>
      </trkpt>
      <trkpt lat="43.33538" lon="5.76557">
        <ele>681.3</ele>
        <time>2025-10-05T07:16:15Z</time>
      </trkpt>
      <trkpt lat="43.33538" lon="5.76556">
        <ele>681.3</ele>
        <time>2025-10-05T07:16:16Z</time>
      </trkpt>
      <trkpt lat="43.33538" lon="5.76557">
        <ele>681.3</ele>
        <time>2025-10-05T07:16:17Z</time>
      </trkpt>
      <trkpt lat="43.33538" lon="5.76556">
        <ele>681.2</ele>
        <time>2025-10-05T07:16:18Z</time>
      </trkpt>
      <trkpt lat="43.33538" lon="5.76556">
        <ele>681.1</ele>
        <time>2025-10-05T07:16:19Z</time>
      </trkpt>
      <trkpt lat="43.33538" lon="5.76556">
        <ele>681.1</ele>
        <time>2025-10-05T07:16:20Z</time>
      </trkpt>
      <trkpt lat="43.33538" lon="5.76556">
        <ele>681</ele>
        <time>2025-10-05T07:16:21Z</time>
      </trkpt>
      <trkpt lat="43.33538" lon="5.76556">
        <ele>681.1</ele>
        <time>2025-10-05T07:16:22Z</time>
      </trkpt>
      <trkpt lat="43.33538" lon="5.76556">
        <ele>681.1</ele>
        <time>2025-10-05T07:16:23Z</time>
      </trkpt>
      <trkpt lat="43.33538" lon="5.76556">
        <ele>681.2</ele>
        <time>2025-10-05T07:16:24Z</time>
      </trkpt>
      <trkpt lat="43.33537" lon="5.76556">
        <ele>681.2</ele>
        <time>2025-10-05T07:16:25Z</time>
      </trkpt>
      <trkpt lat="43.33537" lon="5.76556">
        <ele>681.2</ele>
        <time>2025-10-05T07:16:26Z</time>
      </trkpt>
      <trkpt lat="43.33537" lon="5.76556">
        <ele>681.2</ele>
        <time>2025-10-05T07:16:27Z</time>
      </trkpt>
      <trkpt lat="43.33537" lon="5.76556">
        <ele>681.1</ele>
        <time>2025-10-05T07:16:28Z</time>
      </trkpt>
      <trkpt lat="43.33537" lon="5.76556">
        <ele>681.1</ele>
        <time>2025-10-05T07:16:29Z</time>
      </trkpt>
      <trkpt lat="43.33537" lon="5.76556">
        <ele>681.1</ele>
        <time>2025-10-05T07:16:30Z</time>
      </trkpt>
      <trkpt lat="43.33537" lon="5.76556">
        <ele>681.2</ele>
        <time>2025-10-05T07:16:31Z</time>
      </trkpt>
      <trkpt lat="43.33537" lon="5.76556">
        <ele>681.3</ele>
        <time>2025-10-05T07:16:32Z</time>
      </trkpt>
      <trkpt lat="43.33537" lon="5.76556">
        <ele>681.4</ele>
        <time>2025-10-05T07:16:33Z</time>
      </trkpt>
      <trkpt lat="43.33537" lon="5.76556">
        <ele>681.4</ele>
        <time>2025-10-05T07:16:34Z</time>
      </trkpt>
      <trkpt lat="43.33537" lon="5.76556">
        <ele>681.4</ele>
        <time>2025-10-05T07:16:35Z</time>
      </trkpt>
      <trkpt lat="43.33537" lon="5.76556">
        <ele>681.5</ele>
        <time>2025-10-05T07:16:36Z</time>
      </trkpt>
      <trkpt lat="43.33536" lon="5.76556">
        <ele>681.5</ele>
        <time>2025-10-05T07:16:37Z</time>
      </trkpt>
      <trkpt lat="43.33536" lon="5.76556">
        <ele>681.4</ele>
        <time>2025-10-05T07:16:38Z</time>
      </trkpt>
      <trkpt lat="43.33536" lon="5.76556">
        <ele>681.5</ele>
        <time>2025-10-05T07:16:39Z</time>
      </trkpt>
      <trkpt lat="43.33537" lon="5.76556">
        <ele>681.5</ele>
        <time>2025-10-05T07:16:40Z</time>
      </trkpt>
      <trkpt lat="43.33537" lon="5.76557">
        <ele>681.5</ele>
        <time>2025-10-05T07:16:41Z</time>
      </trkpt>
      <trkpt lat="43.33537" lon="5.76557">
        <ele>681.5</ele>
        <time>2025-10-05T07:16:42Z</time>
      </trkpt>
      <trkpt lat="43.33538" lon="5.76557">
        <ele>681.5</ele>
        <time>2025-10-05T07:16:43Z</time>
      </trkpt>
      <trkpt lat="43.33538" lon="5.76557">
        <ele>681.4</ele>
        <time>2025-10-05T07:16:44Z</time>
      </trkpt>
      <trkpt lat="43.33538" lon="5.76557">
        <ele>681.4</ele>
        <time>2025-10-05T07:16:45Z</time>
      </trkpt>
      <trkpt lat="43.33537" lon="5.76557">
        <ele>681.4</ele>
        <time>2025-10-05T07:16:46Z</time>
      </trkpt>
      <trkpt lat="43.33537" lon="5.76557">
        <ele>681.4</ele>
        <time>2025-10-05T07:16:47Z</time>
      </trkpt>
      <trkpt lat="43.33537" lon="5.76557">
        <ele>681.4</ele>
        <time>2025-10-05T07:16:48Z</time>
      </trkpt>
      <trkpt lat="43.33537" lon="5.76557">
        <ele>681.5</ele>
        <time>2025-10-05T07:16:49Z</time>
      </trkpt>
      <trkpt lat="43.33537" lon="5.76557">
        <ele>681.5</ele>
        <time>2025-10-05T07:16:50Z</time>
      </trkpt>
      <trkpt lat="43.33537" lon="5.76557">
        <ele>681.5</ele>
        <time>2025-10-05T07:16:51Z</time>
      </trkpt>
      <trkpt lat="43.33537" lon="5.76557">
        <ele>681.5</ele>
        <time>2025-10-05T07:16:52Z</time>
      </trkpt>
      <trkpt lat="43.33538" lon="5.76557">
        <ele>681.5</ele>
        <time>2025-10-05T07:16:53Z</time>
      </trkpt>
      <trkpt lat="43.33538" lon="5.76557">
        <ele>681.6</ele>
        <time>2025-10-05T07:16:54Z</time>
      </trkpt>
      <trkpt lat="43.33538" lon="5.76557">
        <ele>681.7</ele>
        <time>2025-10-05T07:16:55Z</time>
      </trkpt>
      <trkpt lat="43.33538" lon="5.76557">
        <ele>681.7</ele>
        <time>2025-10-05T07:16:56Z</time>
      </trkpt>
      <trkpt lat="43.33538" lon="5.76557">
        <ele>681.7</ele>
        <time>2025-10-05T07:16:57Z</time>
      </trkpt>
      <trkpt lat="43.33538" lon="5.76557">
        <ele>681.8</ele>
        <time>2025-10-05T07:16:58Z</time>
      </trkpt>
      <trkpt lat="43.33538" lon="5.76557">
        <ele>681.7</ele>
        <time>2025-10-05T07:16:59Z</time>
      </trkpt>
      <trkpt lat="43.33538" lon="5.76557">
        <ele>681.7</ele>
        <time>2025-10-05T07:17:00Z</time>
      </trkpt>
      <trkpt lat="43.33538" lon="5.76557">
        <ele>681.7</ele>
        <time>2025-10-05T07:17:01Z</time>
      </trkpt>
      <trkpt lat="43.33537" lon="5.76557">
        <ele>681.7</ele>
        <time>2025-10-05T07:17:02Z</time>
      </trkpt>
      <trkpt lat="43.33537" lon="5.76557">
        <ele>681.9</ele>
        <time>2025-10-05T07:17:03Z</time>
      </trkpt>
      <trkpt lat="43.33537" lon="5.76557">
        <ele>681.9</ele>
        <time>2025-10-05T07:17:04Z</time>
      </trkpt>
      <trkpt lat="43.33537" lon="5.76557">
        <ele>682</ele>
        <time>2025-10-05T07:17:05Z</time>
      </trkpt>
      <trkpt lat="43.33537" lon="5.76557">
        <ele>681.9</ele>
        <time>2025-10-05T07:17:06Z</time>
      </trkpt>
      <trkpt lat="43.33537" lon="5.76557">
        <ele>681.8</ele>
        <time>2025-10-05T07:17:07Z</time>
      </trkpt>
      <trkpt lat="43.33537" lon="5.76557">
        <ele>681.7</ele>
        <time>2025-10-05T07:17:08Z</time>
      </trkpt>
      <trkpt lat="43.33537" lon="5.76556">
        <ele>681.7</ele>
        <time>2025-10-05T07:17:09Z</time>
      </trkpt>
      <trkpt lat="43.33537" lon="5.76556">
        <ele>681.7</ele>
        <time>2025-10-05T07:17:10Z</time>
      </trkpt>
      <trkpt lat="43.33537" lon="5.76556">
        <ele>681.7</ele>
        <time>2025-10-05T07:17:11Z</time>
      </trkpt>
      <trkpt lat="43.33537" lon="5.76556">
        <ele>681.7</ele>
        <time>2025-10-05T07:17:12Z</time>
      </trkpt>
      <trkpt lat="43.33536" lon="5.76556">
        <ele>681.7</ele>
        <time>2025-10-05T07:17:13Z</time>
      </trkpt>
      <trkpt lat="43.33536" lon="5.76556">
        <ele>681.7</ele>
        <time>2025-10-05T07:17:14Z</time>
      </trkpt>
      <trkpt lat="43.33536" lon="5.76556">
        <ele>681.8</ele>
        <time>2025-10-05T07:17:15Z</time>
      </trkpt>
      <trkpt lat="43.33536" lon="5.76556">
        <ele>681.8</ele>
        <time>2025-10-05T07:17:16Z</time>
      </trkpt>
      <trkpt lat="43.33536" lon="5.76556">
        <ele>681.8</ele>
        <time>2025-10-05T07:17:17Z</time>
      </trkpt>
      <trkpt lat="43.33536" lon="5.76556">
        <ele>681.8</ele>
        <time>2025-10-05T07:17:18Z</time>
      </trkpt>
      <trkpt lat="43.33536" lon="5.76556">
        <ele>681.7</ele>
        <time>2025-10-05T07:17:19Z</time>
      </trkpt>
      <trkpt lat="43.33536" lon="5.76556">
        <ele>681.7</ele>
        <time>2025-10-05T07:17:20Z</time>
      </trkpt>
      <trkpt lat="43.33536" lon="5.76556">
        <ele>681.9</ele>
        <time>2025-10-05T07:17:21Z</time>
      </trkpt>
      <trkpt lat="43.33536" lon="5.76556">
        <ele>682</ele>
        <time>2025-10-05T07:17:22Z</time>
      </trkpt>
      <trkpt lat="43.33536" lon="5.76556">
        <ele>682.2</ele>
        <time>2025-10-05T07:17:23Z</time>
      </trkpt>
      <trkpt lat="43.33536" lon="5.76556">
        <ele>682.2</ele>
        <time>2025-10-05T07:17:24Z</time>
      </trkpt>
      <trkpt lat="43.33536" lon="5.76556">
        <ele>682.3</ele>
        <time>2025-10-05T07:17:25Z</time>
      </trkpt>
      <trkpt lat="43.33536" lon="5.76555">
        <ele>682.4</ele>
        <time>2025-10-05T07:17:26Z</time>
      </trkpt>
      <trkpt lat="43.33536" lon="5.76555">
        <ele>682.5</ele>
        <time>2025-10-05T07:17:27Z</time>
      </trkpt>
      <trkpt lat="43.33536" lon="5.76555">
        <ele>682.5</ele>
        <time>2025-10-05T07:17:28Z</time>
      </trkpt>
      <trkpt lat="43.33536" lon="5.76555">
        <ele>682.5</ele>
        <time>2025-10-05T07:17:29Z</time>
      </trkpt>
      <trkpt lat="43.33536" lon="5.76555">
        <ele>682.5</ele>
        <time>2025-10-05T07:17:30Z</time>
      </trkpt>
      <trkpt lat="43.33536" lon="5.76555">
        <ele>682.5</ele>
        <time>2025-10-05T07:17:31Z</time>
      </trkpt>
      <trkpt lat="43.33536" lon="5.76555">
        <ele>682.4</ele>
        <time>2025-10-05T07:17:32Z</time>
      </trkpt>
      <trkpt lat="43.33535" lon="5.76555">
        <ele>682.3</ele>
        <time>2025-10-05T07:17:33Z</time>
      </trkpt>
      <trkpt lat="43.33535" lon="5.76555">
        <ele>682.4</ele>
        <time>2025-10-05T07:17:34Z</time>
      </trkpt>
      <trkpt lat="43.33535" lon="5.76555">
        <ele>682.4</ele>
        <time>2025-10-05T07:17:35Z</time>
      </trkpt>
      <trkpt lat="43.33535" lon="5.76555">
        <ele>682.3</ele>
        <time>2025-10-05T07:17:36Z</time>
      </trkpt>
      <trkpt lat="43.33535" lon="5.76555">
        <ele>682.3</ele>
        <time>2025-10-05T07:17:37Z</time>
      </trkpt>
      <trkpt lat="43.33535" lon="5.76555">
        <ele>682.4</ele>
        <time>2025-10-05T07:17:38Z</time>
      </trkpt>
      <trkpt lat="43.33535" lon="5.76555">
        <ele>682.5</ele>
        <time>2025-10-05T07:17:39Z</time>
      </trkpt>
      <trkpt lat="43.33535" lon="5.76555">
        <ele>682.6</ele>
        <time>2025-10-05T07:17:40Z</time>
      </trkpt>
      <trkpt lat="43.33535" lon="5.76555">
        <ele>682.8</ele>
        <time>2025-10-05T07:17:41Z</time>
      </trkpt>
      <trkpt lat="43.33535" lon="5.76555">
        <ele>682.9</ele>
        <time>2025-10-05T07:17:42Z</time>
      </trkpt>
      <trkpt lat="43.33535" lon="5.76555">
        <ele>683</ele>
        <time>2025-10-05T07:17:43Z</time>
      </trkpt>
      <trkpt lat="43.33535" lon="5.76555">
        <ele>683</ele>
        <time>2025-10-05T07:17:44Z</time>
      </trkpt>
      <trkpt lat="43.33535" lon="5.76555">
        <ele>682.9</ele>
        <time>2025-10-05T07:17:45Z</time>
      </trkpt>
      <trkpt lat="43.33535" lon="5.76555">
        <ele>682.9</ele>
        <time>2025-10-05T07:17:46Z</time>
      </trkpt>
      <trkpt lat="43.33535" lon="5.76555">
        <ele>682.8</ele>
        <time>2025-10-05T07:17:47Z</time>
      </trkpt>
      <trkpt lat="43.33535" lon="5.76555">
        <ele>682.8</ele>
        <time>2025-10-05T07:17:48Z</time>
      </trkpt>
      <trkpt lat="43.33535" lon="5.76555">
        <ele>682.8</ele>
        <time>2025-10-05T07:17:49Z</time>
      </trkpt>
      <trkpt lat="43.33535" lon="5.76555">
        <ele>682.8</ele>
        <time>2025-10-05T07:17:50Z</time>
      </trkpt>
      <trkpt lat="43.33535" lon="5.76556">
        <ele>682.8</ele>
        <time>2025-10-05T07:17:51Z</time>
      </trkpt>
      <trkpt lat="43.33535" lon="5.76556">
        <ele>682.7</ele>
        <time>2025-10-05T07:17:52Z</time>
      </trkpt>
      <trkpt lat="43.33535" lon="5.76556">
        <ele>682.8</ele>
        <time>2025-10-05T07:17:53Z</time>
      </trkpt>
      <trkpt lat="43.33534" lon="5.76557">
        <ele>682.8</ele>
        <time>2025-10-05T07:17:54Z</time>
      </trkpt>
      <trkpt lat="43.33534" lon="5.76557">
        <ele>682.7</ele>
        <time>2025-10-05T07:17:55Z</time>
      </trkpt>
      <trkpt lat="43.33534" lon="5.76557">
        <ele>682.7</ele>
        <time>2025-10-05T07:17:56Z</time>
      </trkpt>
      <trkpt lat="43.33534" lon="5.76558">
        <ele>682.7</ele>
        <time>2025-10-05T07:17:57Z</time>
      </trkpt>
      <trkpt lat="43.33534" lon="5.76558">
        <ele>682.6</ele>
        <time>2025-10-05T07:17:58Z</time>
      </trkpt>
      <trkpt lat="43.33533" lon="5.76558">
        <ele>682.6</ele>
        <time>2025-10-05T07:17:59Z</time>
      </trkpt>
      <trkpt lat="43.33533" lon="5.76559">
        <ele>682.7</ele>
        <time>2025-10-05T07:18:00Z</time>
      </trkpt>
      <trkpt lat="43.33534" lon="5.76559">
        <ele>682.6</ele>
        <time>2025-10-05T07:18:01Z</time>
      </trkpt>
      <trkpt lat="43.33534" lon="5.7656">
        <ele>682.6</ele>
        <time>2025-10-05T07:18:02Z</time>
      </trkpt>
      <trkpt lat="43.33534" lon="5.7656">
        <ele>682.7</ele>
        <time>2025-10-05T07:18:03Z</time>
      </trkpt>
      <trkpt lat="43.33533" lon="5.76561">
        <ele>682.8</ele>
        <time>2025-10-05T07:18:04Z</time>
      </trkpt>
      <trkpt lat="43.33533" lon="5.76561">
        <ele>682.9</ele>
        <time>2025-10-05T07:18:05Z</time>
      </trkpt>
      <trkpt lat="43.33533" lon="5.76562">
        <ele>683</ele>
        <time>2025-10-05T07:18:06Z</time>
      </trkpt>
      <trkpt lat="43.33532" lon="5.76562">
        <ele>683.1</ele>
        <time>2025-10-05T07:18:07Z</time>
      </trkpt>
      <trkpt lat="43.33532" lon="5.76563">
        <ele>683.4</ele>
        <time>2025-10-05T07:18:08Z</time>
      </trkpt>
      <trkpt lat="43.33531" lon="5.76564">
        <ele>683.3</ele>
        <time>2025-10-05T07:18:09Z</time>
      </trkpt>
      <trkpt lat="43.33531" lon="5.76565">
        <ele>683.3</ele>
        <time>2025-10-05T07:18:10Z</time>
      </trkpt>
      <trkpt lat="43.3353" lon="5.76566">
        <ele>683.2</ele>
        <time>2025-10-05T07:18:11Z</time>
      </trkpt>
      <trkpt lat="43.3353" lon="5.76567">
        <ele>683.1</ele>
        <time>2025-10-05T07:18:12Z</time>
      </trkpt>
      <trkpt lat="43.3353" lon="5.76567">
        <ele>683</ele>
        <time>2025-10-05T07:18:13Z</time>
      </trkpt>
      <trkpt lat="43.33529" lon="5.76568">
        <ele>682.9</ele>
        <time>2025-10-05T07:18:14Z</time>
      </trkpt>
      <trkpt lat="43.33529" lon="5.76568">
        <ele>682.9</ele>
        <time>2025-10-05T07:18:15Z</time>
      </trkpt>
      <trkpt lat="43.33528" lon="5.76568">
        <ele>682.7</ele>
        <time>2025-10-05T07:18:16Z</time>
      </trkpt>
      <trkpt lat="43.33528" lon="5.76568">
        <ele>682.7</ele>
        <time>2025-10-05T07:18:17Z</time>
      </trkpt>
      <trkpt lat="43.33527" lon="5.76568">
        <ele>682.6</ele>
        <time>2025-10-05T07:18:18Z</time>
      </trkpt>
      <trkpt lat="43.33526" lon="5.76567">
        <ele>682.5</ele>
        <time>2025-10-05T07:18:19Z</time>
      </trkpt>
      <trkpt lat="43.33526" lon="5.76568">
        <ele>682.4</ele>
        <time>2025-10-05T07:18:20Z</time>
      </trkpt>
      <trkpt lat="43.33525" lon="5.76568">
        <ele>682.3</ele>
        <time>2025-10-05T07:18:21Z</time>
      </trkpt>
      <trkpt lat="43.33524" lon="5.76569">
        <ele>682.1</ele>
        <time>2025-10-05T07:18:22Z</time>
      </trkpt>
      <trkpt lat="43.33523" lon="5.7657">
        <ele>682.1</ele>
        <time>2025-10-05T07:18:23Z</time>
      </trkpt>
      <trkpt lat="43.33523" lon="5.7657">
        <ele>682</ele>
        <time>2025-10-05T07:18:24Z</time>
      </trkpt>
      <trkpt lat="43.33523" lon="5.76571">
        <ele>682</ele>
        <time>2025-10-05T07:18:25Z</time>
      </trkpt>
      <trkpt lat="43.33522" lon="5.76572">
        <ele>682</ele>
        <time>2025-10-05T07:18:26Z</time>
      </trkpt>
      <trkpt lat="43.33521" lon="5.76574">
        <ele>681.9</ele>
        <time>2025-10-05T07:18:27Z</time>
      </trkpt>
      <trkpt lat="43.33521" lon="5.76575">
        <ele>681.9</ele>
        <time>2025-10-05T07:18:28Z</time>
      </trkpt>
      <trkpt lat="43.33521" lon="5.76577">
        <ele>681.9</ele>
        <time>2025-10-05T07:18:29Z</time>
      </trkpt>
      <trkpt lat="43.3352" lon="5.76578">
        <ele>682.1</ele>
        <time>2025-10-05T07:18:30Z</time>
      </trkpt>
      <trkpt lat="43.3352" lon="5.76579">
        <ele>682.2</ele>
        <time>2025-10-05T07:18:31Z</time>
      </trkpt>
      <trkpt lat="43.3352" lon="5.7658">
        <ele>682.3</ele>
        <time>2025-10-05T07:18:32Z</time>
      </trkpt>
      <trkpt lat="43.3352" lon="5.76581">
        <ele>682.6</ele>
        <time>2025-10-05T07:18:33Z</time>
      </trkpt>
      <trkpt lat="43.3352" lon="5.76582">
        <ele>682.8</ele>
        <time>2025-10-05T07:18:34Z</time>
      </trkpt>
      <trkpt lat="43.33519" lon="5.76584">
        <ele>682.9</ele>
        <time>2025-10-05T07:18:35Z</time>
      </trkpt>
      <trkpt lat="43.33519" lon="5.76585">
        <ele>683</ele>
        <time>2025-10-05T07:18:36Z</time>
      </trkpt>
      <trkpt lat="43.33519" lon="5.76587">
        <ele>683.3</ele>
        <time>2025-10-05T07:18:37Z</time>
      </trkpt>
      <trkpt lat="43.33519" lon="5.76588">
        <ele>683.1</ele>
        <time>2025-10-05T07:18:38Z</time>
      </trkpt>
      <trkpt lat="43.33519" lon="5.7659">
        <ele>683</ele>
        <time>2025-10-05T07:18:39Z</time>
      </trkpt>
      <trkpt lat="43.33519" lon="5.76592">
        <ele>682.9</ele>
        <time>2025-10-05T07:18:40Z</time>
      </trkpt>
      <trkpt lat="43.33518" lon="5.76593">
        <ele>682.7</ele>
        <time>2025-10-05T07:18:41Z</time>
      </trkpt>
      <trkpt lat="43.33518" lon="5.76595">
        <ele>682.8</ele>
        <time>2025-10-05T07:18:42Z</time>
      </trkpt>
      <trkpt lat="43.33517" lon="5.76595">
        <ele>682.8</ele>
        <time>2025-10-05T07:18:43Z</time>
      </trkpt>
      <trkpt lat="43.33517" lon="5.76597">
        <ele>683</ele>
        <time>2025-10-05T07:18:44Z</time>
      </trkpt>
      <trkpt lat="43.33517" lon="5.76598">
        <ele>683</ele>
        <time>2025-10-05T07:18:45Z</time>
      </trkpt>
      <trkpt lat="43.33517" lon="5.76599">
        <ele>682.9</ele>
        <time>2025-10-05T07:18:46Z</time>
      </trkpt>
      <trkpt lat="43.33516" lon="5.76601">
        <ele>682.9</ele>
        <time>2025-10-05T07:18:47Z</time>
      </trkpt>
      <trkpt lat="43.33516" lon="5.76602">
        <ele>682.9</ele>
        <time>2025-10-05T07:18:48Z</time>
      </trkpt>
      <trkpt lat="43.33516" lon="5.76603">
        <ele>682.9</ele>
        <time>2025-10-05T07:18:49Z</time>
      </trkpt>
      <trkpt lat="43.33516" lon="5.76605">
        <ele>682.9</ele>
        <time>2025-10-05T07:18:50Z</time>
      </trkpt>
      <trkpt lat="43.33516" lon="5.76606">
        <ele>682.9</ele>
        <time>2025-10-05T07:18:51Z</time>
      </trkpt>
      <trkpt lat="43.33515" lon="5.76607">
        <ele>682.8</ele>
        <time>2025-10-05T07:18:52Z</time>
      </trkpt>
      <trkpt lat="43.33515" lon="5.76608">
        <ele>682.8</ele>
        <time>2025-10-05T07:18:53Z</time>
      </trkpt>
      <trkpt lat="43.33514" lon="5.7661">
        <ele>682.8</ele>
        <time>2025-10-05T07:18:54Z</time>
      </trkpt>
      <trkpt lat="43.33514" lon="5.76611">
        <ele>682.9</ele>
        <time>2025-10-05T07:18:55Z</time>
      </trkpt>
      <trkpt lat="43.33514" lon="5.76612">
        <ele>683</ele>
        <time>2025-10-05T07:18:56Z</time>
      </trkpt>
      <trkpt lat="43.33514" lon="5.76614">
        <ele>683</ele>
        <time>2025-10-05T07:18:57Z</time>
      </trkpt>
      <trkpt lat="43.33513" lon="5.76615">
        <ele>682.9</ele>
        <time>2025-10-05T07:18:58Z</time>
      </trkpt>
      <trkpt lat="43.33513" lon="5.76617">
        <ele>682.9</ele>
        <time>2025-10-05T07:18:59Z</time>
      </trkpt>
      <trkpt lat="43.33513" lon="5.76618">
        <ele>682.9</ele>
        <time>2025-10-05T07:19:00Z</time>
      </trkpt>
      <trkpt lat="43.33512" lon="5.7662">
        <ele>682.9</ele>
        <time>2025-10-05T07:19:01Z</time>
      </trkpt>
      <trkpt lat="43.33512" lon="5.76621">
        <ele>682.9</ele>
        <time>2025-10-05T07:19:02Z</time>
      </trkpt>
      <trkpt lat="43.33512" lon="5.76622">
        <ele>682.9</ele>
        <time>2025-10-05T07:19:03Z</time>
      </trkpt>
      <trkpt lat="43.33512" lon="5.76624">
        <ele>682.8</ele>
        <time>2025-10-05T07:19:04Z</time>
      </trkpt>
      <trkpt lat="43.33512" lon="5.76625">
        <ele>682.9</ele>
        <time>2025-10-05T07:19:05Z</time>
      </trkpt>
      <trkpt lat="43.33512" lon="5.76626">
        <ele>682.9</ele>
        <time>2025-10-05T07:19:06Z</time>
      </trkpt>
      <trkpt lat="43.33512" lon="5.76628">
        <ele>683</ele>
        <time>2025-10-05T07:19:07Z</time>
      </trkpt>
      <trkpt lat="43.33512" lon="5.76629">
        <ele>683</ele>
        <time>2025-10-05T07:19:08Z</time>
      </trkpt>
      <trkpt lat="43.33511" lon="5.76631">
        <ele>683</ele>
        <time>2025-10-05T07:19:09Z</time>
      </trkpt>
      <trkpt lat="43.33511" lon="5.76632">
        <ele>682.9</ele>
        <time>2025-10-05T07:19:10Z</time>
      </trkpt>
      <trkpt lat="43.33511" lon="5.76633">
        <ele>682.9</ele>
        <time>2025-10-05T07:19:11Z</time>
      </trkpt>
      <trkpt lat="43.33511" lon="5.76635">
        <ele>682.9</ele>
        <time>2025-10-05T07:19:12Z</time>
      </trkpt>
      <trkpt lat="43.3351" lon="5.76636">
        <ele>682.9</ele>
        <time>2025-10-05T07:19:13Z</time>
      </trkpt>
      <trkpt lat="43.3351" lon="5.76637">
        <ele>682.9</ele>
        <time>2025-10-05T07:19:14Z</time>
      </trkpt>
      <trkpt lat="43.3351" lon="5.76638">
        <ele>682.9</ele>
        <time>2025-10-05T07:19:15Z</time>
      </trkpt>
      <trkpt lat="43.3351" lon="5.7664">
        <ele>683</ele>
        <time>2025-10-05T07:19:16Z</time>
      </trkpt>
      <trkpt lat="43.3351" lon="5.76641">
        <ele>683.1</ele>
        <time>2025-10-05T07:19:17Z</time>
      </trkpt>
      <trkpt lat="43.33509" lon="5.76642">
        <ele>683.2</ele>
        <time>2025-10-05T07:19:18Z</time>
      </trkpt>
      <trkpt lat="43.33509" lon="5.76643">
        <ele>683.3</ele>
        <time>2025-10-05T07:19:19Z</time>
      </trkpt>
      <trkpt lat="43.33509" lon="5.76645">
        <ele>683.4</ele>
        <time>2025-10-05T07:19:20Z</time>
      </trkpt>
      <trkpt lat="43.33509" lon="5.76646">
        <ele>683.6</ele>
        <time>2025-10-05T07:19:21Z</time>
      </trkpt>
      <trkpt lat="43.33509" lon="5.76647">
        <ele>683.7</ele>
        <time>2025-10-05T07:19:22Z</time>
      </trkpt>
      <trkpt lat="43.3351" lon="5.76649">
        <ele>683.7</ele>
        <time>2025-10-05T07:19:23Z</time>
      </trkpt>
      <trkpt lat="43.3351" lon="5.7665">
        <ele>683.7</ele>
        <time>2025-10-05T07:19:24Z</time>
      </trkpt>
      <trkpt lat="43.3351" lon="5.76651">
        <ele>683.8</ele>
        <time>2025-10-05T07:19:25Z</time>
      </trkpt>
      <trkpt lat="43.3351" lon="5.76652">
        <ele>683.8</ele>
        <time>2025-10-05T07:19:26Z</time>
      </trkpt>
      <trkpt lat="43.3351" lon="5.76654">
        <ele>683.7</ele>
        <time>2025-10-05T07:19:27Z</time>
      </trkpt>
      <trkpt lat="43.3351" lon="5.76656">
        <ele>683.6</ele>
        <time>2025-10-05T07:19:28Z</time>
      </trkpt>
      <trkpt lat="43.3351" lon="5.76657">
        <ele>683.5</ele>
        <time>2025-10-05T07:19:29Z</time>
      </trkpt>
      <trkpt lat="43.3351" lon="5.76658">
        <ele>683.8</ele>
        <time>2025-10-05T07:19:30Z</time>
      </trkpt>
      <trkpt lat="43.3351" lon="5.76659">
        <ele>683.7</ele>
        <time>2025-10-05T07:19:31Z</time>
      </trkpt>
      <trkpt lat="43.3351" lon="5.7666">
        <ele>683.6</ele>
        <time>2025-10-05T07:19:32Z</time>
      </trkpt>
      <trkpt lat="43.3351" lon="5.76663">
        <ele>683.5</ele>
        <time>2025-10-05T07:19:33Z</time>
      </trkpt>
      <trkpt lat="43.3351" lon="5.76665">
        <ele>683.5</ele>
        <time>2025-10-05T07:19:34Z</time>
      </trkpt>
      <trkpt lat="43.3351" lon="5.76666">
        <ele>683.5</ele>
        <time>2025-10-05T07:19:35Z</time>
      </trkpt>
      <trkpt lat="43.3351" lon="5.76668">
        <ele>683.5</ele>
        <time>2025-10-05T07:19:36Z</time>
      </trkpt>
      <trkpt lat="43.3351" lon="5.7667">
        <ele>683.5</ele>
        <time>2025-10-05T07:19:37Z</time>
      </trkpt>
      <trkpt lat="43.33511" lon="5.76671">
        <ele>683.5</ele>
        <time>2025-10-05T07:19:38Z</time>
      </trkpt>
      <trkpt lat="43.33511" lon="5.76672">
        <ele>683.5</ele>
        <time>2025-10-05T07:19:39Z</time>
      </trkpt>
      <trkpt lat="43.33511" lon="5.76674">
        <ele>683.6</ele>
        <time>2025-10-05T07:19:40Z</time>
      </trkpt>
      <trkpt lat="43.33511" lon="5.76675">
        <ele>683.6</ele>
        <time>2025-10-05T07:19:41Z</time>
      </trkpt>
      <trkpt lat="43.33511" lon="5.76676">
        <ele>683.7</ele>
        <time>2025-10-05T07:19:42Z</time>
      </trkpt>
      <trkpt lat="43.33511" lon="5.76677">
        <ele>683.7</ele>
        <time>2025-10-05T07:19:43Z</time>
      </trkpt>
      <trkpt lat="43.33511" lon="5.76678">
        <ele>683.7</ele>
        <time>2025-10-05T07:19:44Z</time>
      </trkpt>
      <trkpt lat="43.33511" lon="5.76679">
        <ele>683.8</ele>
        <time>2025-10-05T07:19:45Z</time>
      </trkpt>
      <trkpt lat="43.33511" lon="5.76679">
        <ele>683.9</ele>
        <time>2025-10-05T07:19:46Z</time>
      </trkpt>
      <trkpt lat="43.33511" lon="5.7668">
        <ele>683.9</ele>
        <time>2025-10-05T07:19:47Z</time>
      </trkpt>
      <trkpt lat="43.33511" lon="5.76682">
        <ele>684</ele>
        <time>2025-10-05T07:19:48Z</time>
      </trkpt>
      <trkpt lat="43.33511" lon="5.76683">
        <ele>684</ele>
        <time>2025-10-05T07:19:49Z</time>
      </trkpt>
      <trkpt lat="43.33511" lon="5.76684">
        <ele>684.1</ele>
        <time>2025-10-05T07:19:50Z</time>
      </trkpt>
      <trkpt lat="43.33511" lon="5.76685">
        <ele>684.1</ele>
        <time>2025-10-05T07:19:51Z</time>
      </trkpt>
      <trkpt lat="43.3351" lon="5.76686">
        <ele>684.2</ele>
        <time>2025-10-05T07:19:52Z</time>
      </trkpt>
      <trkpt lat="43.3351" lon="5.76687">
        <ele>684.2</ele>
        <time>2025-10-05T07:19:53Z</time>
      </trkpt>
      <trkpt lat="43.3351" lon="5.76688">
        <ele>684.2</ele>
        <time>2025-10-05T07:19:54Z</time>
      </trkpt>
      <trkpt lat="43.3351" lon="5.76689">
        <ele>684.3</ele>
        <time>2025-10-05T07:19:55Z</time>
      </trkpt>
      <trkpt lat="43.33509" lon="5.7669">
        <ele>684.3</ele>
        <time>2025-10-05T07:19:56Z</time>
      </trkpt>
      <trkpt lat="43.3351" lon="5.76691">
        <ele>684.3</ele>
        <time>2025-10-05T07:19:57Z</time>
      </trkpt>
      <trkpt lat="43.3351" lon="5.76693">
        <ele>684.3</ele>
        <time>2025-10-05T07:19:58Z</time>
      </trkpt>
      <trkpt lat="43.33509" lon="5.76695">
        <ele>684.4</ele>
        <time>2025-10-05T07:19:59Z</time>
      </trkpt>
      <trkpt lat="43.33509" lon="5.76696">
        <ele>684.5</ele>
        <time>2025-10-05T07:20:00Z</time>
      </trkpt>
      <trkpt lat="43.33508" lon="5.76697">
        <ele>684.5</ele>
        <time>2025-10-05T07:20:01Z</time>
      </trkpt>
      <trkpt lat="43.33508" lon="5.76699">
        <ele>684.5</ele>
        <time>2025-10-05T07:20:02Z</time>
      </trkpt>
      <trkpt lat="43.33508" lon="5.767">
        <ele>684.4</ele>
        <time>2025-10-05T07:20:03Z</time>
      </trkpt>
      <trkpt lat="43.33507" lon="5.76702">
        <ele>684.4</ele>
        <time>2025-10-05T07:20:04Z</time>
      </trkpt>
      <trkpt lat="43.33507" lon="5.76703">
        <ele>684.3</ele>
        <time>2025-10-05T07:20:05Z</time>
      </trkpt>
      <trkpt lat="43.33506" lon="5.76704">
        <ele>684.3</ele>
        <time>2025-10-05T07:20:06Z</time>
      </trkpt>
      <trkpt lat="43.33506" lon="5.76705">
        <ele>684.3</ele>
        <time>2025-10-05T07:20:07Z</time>
      </trkpt>
      <trkpt lat="43.33505" lon="5.76706">
        <ele>684.3</ele>
        <time>2025-10-05T07:20:08Z</time>
      </trkpt>
      <trkpt lat="43.33504" lon="5.76707">
        <ele>684.3</ele>
        <time>2025-10-05T07:20:09Z</time>
      </trkpt>
      <trkpt lat="43.33504" lon="5.76708">
        <ele>684.3</ele>
        <time>2025-10-05T07:20:10Z</time>
      </trkpt>
      <trkpt lat="43.33503" lon="5.76709">
        <ele>684.1</ele>
        <time>2025-10-05T07:20:11Z</time>
      </trkpt>
      <trkpt lat="43.33502" lon="5.7671">
        <ele>684.1</ele>
        <time>2025-10-05T07:20:12Z</time>
      </trkpt>
      <trkpt lat="43.33501" lon="5.76711">
        <ele>684.1</ele>
        <time>2025-10-05T07:20:13Z</time>
      </trkpt>
      <trkpt lat="43.33501" lon="5.76712">
        <ele>684.3</ele>
        <time>2025-10-05T07:20:14Z</time>
      </trkpt>
      <trkpt lat="43.335" lon="5.76713">
        <ele>684.5</ele>
        <time>2025-10-05T07:20:15Z</time>
      </trkpt>
      <trkpt lat="43.33499" lon="5.76714">
        <ele>684.6</ele>
        <time>2025-10-05T07:20:16Z</time>
      </trkpt>
      <trkpt lat="43.33498" lon="5.76715">
        <ele>684.6</ele>
        <time>2025-10-05T07:20:17Z</time>
      </trkpt>
      <trkpt lat="43.33498" lon="5.76716">
        <ele>684.9</ele>
        <time>2025-10-05T07:20:18Z</time>
      </trkpt>
      <trkpt lat="43.33497" lon="5.76716">
        <ele>685</ele>
        <time>2025-10-05T07:20:19Z</time>
      </trkpt>
      <trkpt lat="43.33496" lon="5.76717">
        <ele>685.1</ele>
        <time>2025-10-05T07:20:20Z</time>
      </trkpt>
      <trkpt lat="43.33497" lon="5.76718">
        <ele>685.1</ele>
        <time>2025-10-05T07:20:21Z</time>
      </trkpt>
      <trkpt lat="43.33496" lon="5.76719">
        <ele>685.3</ele>
        <time>2025-10-05T07:20:22Z</time>
      </trkpt>
      <trkpt lat="43.33496" lon="5.76719">
        <ele>685.4</ele>
        <time>2025-10-05T07:20:23Z</time>
      </trkpt>
      <trkpt lat="43.33495" lon="5.7672">
        <ele>685.4</ele>
        <time>2025-10-05T07:20:24Z</time>
      </trkpt>
      <trkpt lat="43.33495" lon="5.76721">
        <ele>685.3</ele>
        <time>2025-10-05T07:20:25Z</time>
      </trkpt>
      <trkpt lat="43.33494" lon="5.76722">
        <ele>685.4</ele>
        <time>2025-10-05T07:20:26Z</time>
      </trkpt>
      <trkpt lat="43.33493" lon="5.76722">
        <ele>685.4</ele>
        <time>2025-10-05T07:20:27Z</time>
      </trkpt>
      <trkpt lat="43.33493" lon="5.76723">
        <ele>685.4</ele>
        <time>2025-10-05T07:20:28Z</time>
      </trkpt>
      <trkpt lat="43.33493" lon="5.76724">
        <ele>685.4</ele>
        <time>2025-10-05T07:20:29Z</time>
      </trkpt>
      <trkpt lat="43.33492" lon="5.76724">
        <ele>685.5</ele>
        <time>2025-10-05T07:20:30Z</time>
      </trkpt>
      <trkpt lat="43.33491" lon="5.76726">
        <ele>685.5</ele>
        <time>2025-10-05T07:20:31Z</time>
      </trkpt>
      <trkpt lat="43.3349" lon="5.76728">
        <ele>685.6</ele>
        <time>2025-10-05T07:20:32Z</time>
      </trkpt>
      <trkpt lat="43.33489" lon="5.76729">
        <ele>685.6</ele>
        <time>2025-10-05T07:20:33Z</time>
      </trkpt>
      <trkpt lat="43.33488" lon="5.7673">
        <ele>685.6</ele>
        <time>2025-10-05T07:20:34Z</time>
      </trkpt>
      <trkpt lat="43.33488" lon="5.76731">
        <ele>685.6</ele>
        <time>2025-10-05T07:20:35Z</time>
      </trkpt>
      <trkpt lat="43.33488" lon="5.76731">
        <ele>685.7</ele>
        <time>2025-10-05T07:20:36Z</time>
      </trkpt>
      <trkpt lat="43.33487" lon="5.76732">
        <ele>685.8</ele>
        <time>2025-10-05T07:20:37Z</time>
      </trkpt>
      <trkpt lat="43.33487" lon="5.76733">
        <ele>685.9</ele>
        <time>2025-10-05T07:20:38Z</time>
      </trkpt>
      <trkpt lat="43.33486" lon="5.76734">
        <ele>686</ele>
        <time>2025-10-05T07:20:39Z</time>
      </trkpt>
      <trkpt lat="43.33485" lon="5.76735">
        <ele>686</ele>
        <time>2025-10-05T07:20:40Z</time>
      </trkpt>
      <trkpt lat="43.33485" lon="5.76736">
        <ele>686</ele>
        <time>2025-10-05T07:20:41Z</time>
      </trkpt>
      <trkpt lat="43.33484" lon="5.76737">
        <ele>686.1</ele>
        <time>2025-10-05T07:20:42Z</time>
      </trkpt>
      <trkpt lat="43.33484" lon="5.76738">
        <ele>686.2</ele>
        <time>2025-10-05T07:20:43Z</time>
      </trkpt>
      <trkpt lat="43.33483" lon="5.76738">
        <ele>686.2</ele>
        <time>2025-10-05T07:20:44Z</time>
      </trkpt>
      <trkpt lat="43.33482" lon="5.76739">
        <ele>686.3</ele>
        <time>2025-10-05T07:20:45Z</time>
      </trkpt>
      <trkpt lat="43.33481" lon="5.7674">
        <ele>686.4</ele>
        <time>2025-10-05T07:20:46Z</time>
      </trkpt>
      <trkpt lat="43.3348" lon="5.7674">
        <ele>686.5</ele>
        <time>2025-10-05T07:20:47Z</time>
      </trkpt>
      <trkpt lat="43.33479" lon="5.76741">
        <ele>686.5</ele>
        <time>2025-10-05T07:20:48Z</time>
      </trkpt>
      <trkpt lat="43.33479" lon="5.76742">
        <ele>686.6</ele>
        <time>2025-10-05T07:20:49Z</time>
      </trkpt>
      <trkpt lat="43.33478" lon="5.76744">
        <ele>686.7</ele>
        <time>2025-10-05T07:20:50Z</time>
      </trkpt>
      <trkpt lat="43.33477" lon="5.76745">
        <ele>686.9</ele>
        <time>2025-10-05T07:20:51Z</time>
      </trkpt>
      <trkpt lat="43.33476" lon="5.76745">
        <ele>687</ele>
        <time>2025-10-05T07:20:52Z</time>
      </trkpt>
      <trkpt lat="43.33476" lon="5.76746">
        <ele>687.1</ele>
        <time>2025-10-05T07:20:53Z</time>
      </trkpt>
      <trkpt lat="43.33476" lon="5.76747">
        <ele>687.1</ele>
        <time>2025-10-05T07:20:54Z</time>
      </trkpt>
      <trkpt lat="43.33475" lon="5.76748">
        <ele>687.2</ele>
        <time>2025-10-05T07:20:55Z</time>
      </trkpt>
      <trkpt lat="43.33475" lon="5.7675">
        <ele>687.2</ele>
        <time>2025-10-05T07:20:56Z</time>
      </trkpt>
      <trkpt lat="43.33474" lon="5.7675">
        <ele>687.2</ele>
        <time>2025-10-05T07:20:57Z</time>
      </trkpt>
      <trkpt lat="43.33474" lon="5.76752">
        <ele>687.3</ele>
        <time>2025-10-05T07:20:58Z</time>
      </trkpt>
      <trkpt lat="43.33474" lon="5.76753">
        <ele>687.3</ele>
        <time>2025-10-05T07:20:59Z</time>
      </trkpt>
      <trkpt lat="43.33474" lon="5.76753">
        <ele>687.4</ele>
        <time>2025-10-05T07:21:00Z</time>
      </trkpt>
      <trkpt lat="43.33473" lon="5.76754">
        <ele>687.4</ele>
        <time>2025-10-05T07:21:01Z</time>
      </trkpt>
      <trkpt lat="43.33473" lon="5.76756">
        <ele>687.5</ele>
        <time>2025-10-05T07:21:02Z</time>
      </trkpt>
      <trkpt lat="43.33473" lon="5.76757">
        <ele>687.3</ele>
        <time>2025-10-05T07:21:03Z</time>
      </trkpt>
      <trkpt lat="43.33473" lon="5.76759">
        <ele>687.5</ele>
        <time>2025-10-05T07:21:04Z</time>
      </trkpt>
      <trkpt lat="43.33472" lon="5.7676">
        <ele>687.6</ele>
        <time>2025-10-05T07:21:05Z</time>
      </trkpt>
      <trkpt lat="43.33472" lon="5.76761">
        <ele>687.7</ele>
        <time>2025-10-05T07:21:06Z</time>
      </trkpt>
      <trkpt lat="43.33472" lon="5.76762">
        <ele>687.8</ele>
        <time>2025-10-05T07:21:07Z</time>
      </trkpt>
      <trkpt lat="43.33472" lon="5.76764">
        <ele>687.8</ele>
        <time>2025-10-05T07:21:08Z</time>
      </trkpt>
      <trkpt lat="43.33472" lon="5.76765">
        <ele>687.9</ele>
        <time>2025-10-05T07:21:09Z</time>
      </trkpt>
      <trkpt lat="43.33471" lon="5.76767">
        <ele>687.9</ele>
        <time>2025-10-05T07:21:10Z</time>
      </trkpt>
      <trkpt lat="43.33471" lon="5.76769">
        <ele>688</ele>
        <time>2025-10-05T07:21:11Z</time>
      </trkpt>
      <trkpt lat="43.33471" lon="5.7677">
        <ele>688.2</ele>
        <time>2025-10-05T07:21:12Z</time>
      </trkpt>
      <trkpt lat="43.33471" lon="5.76772">
        <ele>688.3</ele>
        <time>2025-10-05T07:21:13Z</time>
      </trkpt>
      <trkpt lat="43.33472" lon="5.76774">
        <ele>688.5</ele>
        <time>2025-10-05T07:21:14Z</time>
      </trkpt>
      <trkpt lat="43.33472" lon="5.76775">
        <ele>688.7</ele>
        <time>2025-10-05T07:21:15Z</time>
      </trkpt>
      <trkpt lat="43.33472" lon="5.76776">
        <ele>688.9</ele>
        <time>2025-10-05T07:21:16Z</time>
      </trkpt>
      <trkpt lat="43.33472" lon="5.76778">
        <ele>688.8</ele>
        <time>2025-10-05T07:21:17Z</time>
      </trkpt>
      <trkpt lat="43.33471" lon="5.76779">
        <ele>689</ele>
        <time>2025-10-05T07:21:18Z</time>
      </trkpt>
      <trkpt lat="43.33471" lon="5.76781">
        <ele>688.9</ele>
        <time>2025-10-05T07:21:19Z</time>
      </trkpt>
      <trkpt lat="43.33471" lon="5.76782">
        <ele>688.9</ele>
        <time>2025-10-05T07:21:20Z</time>
      </trkpt>
      <trkpt lat="43.33471" lon="5.76783">
        <ele>688.9</ele>
        <time>2025-10-05T07:21:21Z</time>
      </trkpt>
      <trkpt lat="43.33472" lon="5.76785">
        <ele>688.9</ele>
        <time>2025-10-05T07:21:22Z</time>
      </trkpt>
      <trkpt lat="43.33472" lon="5.76786">
        <ele>689</ele>
        <time>2025-10-05T07:21:23Z</time>
      </trkpt>
      <trkpt lat="43.33472" lon="5.76788">
        <ele>689.1</ele>
        <time>2025-10-05T07:21:24Z</time>
      </trkpt>
      <trkpt lat="43.33472" lon="5.76789">
        <ele>689.1</ele>
        <time>2025-10-05T07:21:25Z</time>
      </trkpt>
      <trkpt lat="43.33472" lon="5.76791">
        <ele>689.1</ele>
        <time>2025-10-05T07:21:26Z</time>
      </trkpt>
      <trkpt lat="43.33472" lon="5.76792">
        <ele>689.1</ele>
        <time>2025-10-05T07:21:27Z</time>
      </trkpt>
      <trkpt lat="43.33472" lon="5.76794">
        <ele>689.1</ele>
        <time>2025-10-05T07:21:28Z</time>
      </trkpt>
      <trkpt lat="43.33472" lon="5.76795">
        <ele>689</ele>
        <time>2025-10-05T07:21:29Z</time>
      </trkpt>
      <trkpt lat="43.33471" lon="5.76797">
        <ele>689</ele>
        <time>2025-10-05T07:21:30Z</time>
      </trkpt>
      <trkpt lat="43.33471" lon="5.76799">
        <ele>688.6</ele>
        <time>2025-10-05T07:21:31Z</time>
      </trkpt>
      <trkpt lat="43.33471" lon="5.768">
        <ele>688.6</ele>
        <time>2025-10-05T07:21:32Z</time>
      </trkpt>
      <trkpt lat="43.33471" lon="5.76801">
        <ele>688.7</ele>
        <time>2025-10-05T07:21:33Z</time>
      </trkpt>
      <trkpt lat="43.3347" lon="5.76803">
        <ele>688.7</ele>
        <time>2025-10-05T07:21:34Z</time>
      </trkpt>
      <trkpt lat="43.33471" lon="5.76804">
        <ele>688.6</ele>
        <time>2025-10-05T07:21:35Z</time>
      </trkpt>
      <trkpt lat="43.3347" lon="5.76805">
        <ele>688.5</ele>
        <time>2025-10-05T07:21:36Z</time>
      </trkpt>
      <trkpt lat="43.3347" lon="5.76806">
        <ele>688.5</ele>
        <time>2025-10-05T07:21:37Z</time>
      </trkpt>
      <trkpt lat="43.3347" lon="5.76807">
        <ele>688.4</ele>
        <time>2025-10-05T07:21:38Z</time>
      </trkpt>
      <trkpt lat="43.33469" lon="5.76808">
        <ele>688.4</ele>
        <time>2025-10-05T07:21:39Z</time>
      </trkpt>
      <trkpt lat="43.33469" lon="5.7681">
        <ele>688.3</ele>
        <time>2025-10-05T07:21:40Z</time>
      </trkpt>
      <trkpt lat="43.33468" lon="5.76811">
        <ele>688.1</ele>
        <time>2025-10-05T07:21:41Z</time>
      </trkpt>
      <trkpt lat="43.33468" lon="5.76812">
        <ele>687.9</ele>
        <time>2025-10-05T07:21:42Z</time>
      </trkpt>
      <trkpt lat="43.33467" lon="5.76813">
        <ele>687.8</ele>
        <time>2025-10-05T07:21:43Z</time>
      </trkpt>
      <trkpt lat="43.33467" lon="5.76814">
        <ele>687.6</ele>
        <time>2025-10-05T07:21:44Z</time>
      </trkpt>
      <trkpt lat="43.33467" lon="5.76816">
        <ele>687.6</ele>
        <time>2025-10-05T07:21:45Z</time>
      </trkpt>
      <trkpt lat="43.33467" lon="5.76817">
        <ele>687.6</ele>
        <time>2025-10-05T07:21:46Z</time>
      </trkpt>
      <trkpt lat="43.33467" lon="5.76818">
        <ele>687.7</ele>
        <time>2025-10-05T07:21:47Z</time>
      </trkpt>
      <trkpt lat="43.33468" lon="5.7682">
        <ele>687.6</ele>
        <time>2025-10-05T07:21:48Z</time>
      </trkpt>
      <trkpt lat="43.33469" lon="5.76822">
        <ele>687.6</ele>
        <time>2025-10-05T07:21:49Z</time>
      </trkpt>
      <trkpt lat="43.3347" lon="5.76823">
        <ele>687.7</ele>
        <time>2025-10-05T07:21:50Z</time>
      </trkpt>
      <trkpt lat="43.33471" lon="5.76825">
        <ele>687.7</ele>
        <time>2025-10-05T07:21:51Z</time>
      </trkpt>
      <trkpt lat="43.33472" lon="5.76826">
        <ele>687.6</ele>
        <time>2025-10-05T07:21:52Z</time>
      </trkpt>
      <trkpt lat="43.33472" lon="5.76828">
        <ele>687.6</ele>
        <time>2025-10-05T07:21:53Z</time>
      </trkpt>
      <trkpt lat="43.33472" lon="5.76829">
        <ele>687.6</ele>
        <time>2025-10-05T07:21:54Z</time>
      </trkpt>
      <trkpt lat="43.33472" lon="5.76831">
        <ele>687.4</ele>
        <time>2025-10-05T07:21:55Z</time>
      </trkpt>
      <trkpt lat="43.33472" lon="5.76833">
        <ele>687.4</ele>
        <time>2025-10-05T07:21:56Z</time>
      </trkpt>
      <trkpt lat="43.33472" lon="5.76835">
        <ele>687.3</ele>
        <time>2025-10-05T07:21:57Z</time>
      </trkpt>
      <trkpt lat="43.33472" lon="5.76836">
        <ele>687.3</ele>
        <time>2025-10-05T07:21:58Z</time>
      </trkpt>
      <trkpt lat="43.33472" lon="5.76837">
        <ele>687.3</ele>
        <time>2025-10-05T07:21:59Z</time>
      </trkpt>
      <trkpt lat="43.33472" lon="5.76839">
        <ele>687.3</ele>
        <time>2025-10-05T07:22:00Z</time>
      </trkpt>
      <trkpt lat="43.33472" lon="5.76841">
        <ele>687.3</ele>
        <time>2025-10-05T07:22:01Z</time>
      </trkpt>
      <trkpt lat="43.33472" lon="5.76842">
        <ele>687.3</ele>
        <time>2025-10-05T07:22:02Z</time>
      </trkpt>
      <trkpt lat="43.33472" lon="5.76843">
        <ele>687.3</ele>
        <time>2025-10-05T07:22:03Z</time>
      </trkpt>
      <trkpt lat="43.33472" lon="5.76845">
        <ele>687.4</ele>
        <time>2025-10-05T07:22:04Z</time>
      </trkpt>
      <trkpt lat="43.33472" lon="5.76846">
        <ele>687.4</ele>
        <time>2025-10-05T07:22:05Z</time>
      </trkpt>
      <trkpt lat="43.33471" lon="5.76847">
        <ele>687.5</ele>
        <time>2025-10-05T07:22:06Z</time>
      </trkpt>
      <trkpt lat="43.33471" lon="5.76849">
        <ele>687.5</ele>
        <time>2025-10-05T07:22:07Z</time>
      </trkpt>
      <trkpt lat="43.33471" lon="5.7685">
        <ele>687.5</ele>
        <time>2025-10-05T07:22:08Z</time>
      </trkpt>
      <trkpt lat="43.33471" lon="5.76852">
        <ele>687.6</ele>
        <time>2025-10-05T07:22:09Z</time>
      </trkpt>
      <trkpt lat="43.33471" lon="5.76854">
        <ele>687.6</ele>
        <time>2025-10-05T07:22:10Z</time>
      </trkpt>
      <trkpt lat="43.33472" lon="5.76855">
        <ele>687.8</ele>
        <time>2025-10-05T07:22:11Z</time>
      </trkpt>
      <trkpt lat="43.33472" lon="5.76857">
        <ele>687.9</ele>
        <time>2025-10-05T07:22:12Z</time>
      </trkpt>
      <trkpt lat="43.33472" lon="5.76859">
        <ele>688</ele>
        <time>2025-10-05T07:22:13Z</time>
      </trkpt>
      <trkpt lat="43.33473" lon="5.7686">
        <ele>688</ele>
        <time>2025-10-05T07:22:14Z</time>
      </trkpt>
      <trkpt lat="43.33473" lon="5.76862">
        <ele>688</ele>
        <time>2025-10-05T07:22:15Z</time>
      </trkpt>
      <trkpt lat="43.33473" lon="5.76863">
        <ele>688</ele>
        <time>2025-10-05T07:22:16Z</time>
      </trkpt>
      <trkpt lat="43.33473" lon="5.76865">
        <ele>688.1</ele>
        <time>2025-10-05T07:22:17Z</time>
      </trkpt>
      <trkpt lat="43.33473" lon="5.76866">
        <ele>688.2</ele>
        <time>2025-10-05T07:22:18Z</time>
      </trkpt>
      <trkpt lat="43.33473" lon="5.76868">
        <ele>688.2</ele>
        <time>2025-10-05T07:22:19Z</time>
      </trkpt>
      <trkpt lat="43.33474" lon="5.7687">
        <ele>688.3</ele>
        <time>2025-10-05T07:22:20Z</time>
      </trkpt>
      <trkpt lat="43.33473" lon="5.76871">
        <ele>688.3</ele>
        <time>2025-10-05T07:22:21Z</time>
      </trkpt>
      <trkpt lat="43.33473" lon="5.76873">
        <ele>688.3</ele>
        <time>2025-10-05T07:22:22Z</time>
      </trkpt>
      <trkpt lat="43.33473" lon="5.76874">
        <ele>688.3</ele>
        <time>2025-10-05T07:22:23Z</time>
      </trkpt>
      <trkpt lat="43.33473" lon="5.76875">
        <ele>688.4</ele>
        <time>2025-10-05T07:22:24Z</time>
      </trkpt>
      <trkpt lat="43.33473" lon="5.76877">
        <ele>688.2</ele>
        <time>2025-10-05T07:22:25Z</time>
      </trkpt>
      <trkpt lat="43.33474" lon="5.76878">
        <ele>688.3</ele>
        <time>2025-10-05T07:22:26Z</time>
      </trkpt>
      <trkpt lat="43.33474" lon="5.7688">
        <ele>688.2</ele>
        <time>2025-10-05T07:22:27Z</time>
      </trkpt>
      <trkpt lat="43.33474" lon="5.76881">
        <ele>688.1</ele>
        <time>2025-10-05T07:22:28Z</time>
      </trkpt>
      <trkpt lat="43.33475" lon="5.76883">
        <ele>688</ele>
        <time>2025-10-05T07:22:29Z</time>
      </trkpt>
      <trkpt lat="43.33474" lon="5.76884">
        <ele>687.8</ele>
        <time>2025-10-05T07:22:30Z</time>
      </trkpt>
      <trkpt lat="43.33475" lon="5.76886">
        <ele>687.7</ele>
        <time>2025-10-05T07:22:31Z</time>
      </trkpt>
      <trkpt lat="43.33475" lon="5.76887">
        <ele>687.7</ele>
        <time>2025-10-05T07:22:32Z</time>
      </trkpt>
      <trkpt lat="43.33475" lon="5.76889">
        <ele>687.6</ele>
        <time>2025-10-05T07:22:33Z</time>
      </trkpt>
      <trkpt lat="43.33475" lon="5.7689">
        <ele>687.6</ele>
        <time>2025-10-05T07:22:34Z</time>
      </trkpt>
      <trkpt lat="43.33475" lon="5.76891">
        <ele>687.6</ele>
        <time>2025-10-05T07:22:35Z</time>
      </trkpt>
      <trkpt lat="43.33476" lon="5.76893">
        <ele>687.7</ele>
        <time>2025-10-05T07:22:36Z</time>
      </trkpt>
      <trkpt lat="43.33476" lon="5.76894">
        <ele>687.7</ele>
        <time>2025-10-05T07:22:37Z</time>
      </trkpt>
      <trkpt lat="43.33476" lon="5.76896">
        <ele>687.8</ele>
        <time>2025-10-05T07:22:38Z</time>
      </trkpt>
      <trkpt lat="43.33476" lon="5.76897">
        <ele>688</ele>
        <time>2025-10-05T07:22:39Z</time>
      </trkpt>
      <trkpt lat="43.33477" lon="5.76899">
        <ele>688.1</ele>
        <time>2025-10-05T07:22:40Z</time>
      </trkpt>
      <trkpt lat="43.33477" lon="5.769">
        <ele>688.1</ele>
        <time>2025-10-05T07:22:41Z</time>
      </trkpt>
      <trkpt lat="43.33477" lon="5.76902">
        <ele>688.2</ele>
        <time>2025-10-05T07:22:42Z</time>
      </trkpt>
      <trkpt lat="43.33478" lon="5.76904">
        <ele>688.3</ele>
        <time>2025-10-05T07:22:43Z</time>
      </trkpt>
      <trkpt lat="43.33478" lon="5.76906">
        <ele>688.4</ele>
        <time>2025-10-05T07:22:44Z</time>
      </trkpt>
      <trkpt lat="43.33478" lon="5.76907">
        <ele>688.4</ele>
        <time>2025-10-05T07:22:45Z</time>
      </trkpt>
      <trkpt lat="43.33478" lon="5.76908">
        <ele>688.5</ele>
        <time>2025-10-05T07:22:46Z</time>
      </trkpt>
      <trkpt lat="43.33478" lon="5.76909">
        <ele>688.5</ele>
        <time>2025-10-05T07:22:47Z</time>
      </trkpt>
      <trkpt lat="43.33477" lon="5.76911">
        <ele>688.5</ele>
        <time>2025-10-05T07:22:48Z</time>
      </trkpt>
      <trkpt lat="43.33477" lon="5.76912">
        <ele>688.5</ele>
        <time>2025-10-05T07:22:49Z</time>
      </trkpt>
      <trkpt lat="43.33477" lon="5.76913">
        <ele>688.6</ele>
        <time>2025-10-05T07:22:50Z</time>
      </trkpt>
      <trkpt lat="43.33477" lon="5.76914">
        <ele>688.7</ele>
        <time>2025-10-05T07:22:51Z</time>
      </trkpt>
      <trkpt lat="43.33477" lon="5.76915">
        <ele>688.8</ele>
        <time>2025-10-05T07:22:52Z</time>
      </trkpt>
      <trkpt lat="43.33476" lon="5.76916">
        <ele>688.9</ele>
        <time>2025-10-05T07:22:53Z</time>
      </trkpt>
      <trkpt lat="43.33476" lon="5.76916">
        <ele>689</ele>
        <time>2025-10-05T07:22:54Z</time>
      </trkpt>
      <trkpt lat="43.33476" lon="5.76917">
        <ele>689.1</ele>
        <time>2025-10-05T07:22:55Z</time>
      </trkpt>
      <trkpt lat="43.33475" lon="5.76917">
        <ele>689</ele>
        <time>2025-10-05T07:22:56Z</time>
      </trkpt>
      <trkpt lat="43.33476" lon="5.76918">
        <ele>689</ele>
        <time>2025-10-05T07:22:57Z</time>
      </trkpt>
      <trkpt lat="43.33475" lon="5.76919">
        <ele>689</ele>
        <time>2025-10-05T07:22:58Z</time>
      </trkpt>
      <trkpt lat="43.33475" lon="5.76919">
        <ele>689</ele>
        <time>2025-10-05T07:22:59Z</time>
      </trkpt>
      <trkpt lat="43.33475" lon="5.7692">
        <ele>689</ele>
        <time>2025-10-05T07:23:00Z</time>
      </trkpt>
      <trkpt lat="43.33475" lon="5.76921">
        <ele>689</ele>
        <time>2025-10-05T07:23:01Z</time>
      </trkpt>
      <trkpt lat="43.33474" lon="5.76921">
        <ele>688.9</ele>
        <time>2025-10-05T07:23:02Z</time>
      </trkpt>
      <trkpt lat="43.33474" lon="5.76922">
        <ele>689</ele>
        <time>2025-10-05T07:23:03Z</time>
      </trkpt>
      <trkpt lat="43.33474" lon="5.76922">
        <ele>689</ele>
        <time>2025-10-05T07:23:04Z</time>
      </trkpt>
      <trkpt lat="43.33473" lon="5.76923">
        <ele>689</ele>
        <time>2025-10-05T07:23:05Z</time>
      </trkpt>
      <trkpt lat="43.33473" lon="5.76924">
        <ele>689.1</ele>
        <time>2025-10-05T07:23:06Z</time>
      </trkpt>
      <trkpt lat="43.33472" lon="5.76925">
        <ele>689.1</ele>
        <time>2025-10-05T07:23:07Z</time>
      </trkpt>
      <trkpt lat="43.33472" lon="5.76926">
        <ele>689.2</ele>
        <time>2025-10-05T07:23:08Z</time>
      </trkpt>
      <trkpt lat="43.33471" lon="5.76927">
        <ele>689.3</ele>
        <time>2025-10-05T07:23:09Z</time>
      </trkpt>
      <trkpt lat="43.33471" lon="5.76927">
        <ele>689.4</ele>
        <time>2025-10-05T07:23:10Z</time>
      </trkpt>
      <trkpt lat="43.3347" lon="5.76929">
        <ele>689.5</ele>
        <time>2025-10-05T07:23:11Z</time>
      </trkpt>
      <trkpt lat="43.3347" lon="5.76929">
        <ele>689.6</ele>
        <time>2025-10-05T07:23:12Z</time>
      </trkpt>
      <trkpt lat="43.3347" lon="5.7693">
        <ele>689.7</ele>
        <time>2025-10-05T07:23:13Z</time>
      </trkpt>
      <trkpt lat="43.3347" lon="5.7693">
        <ele>689.8</ele>
        <time>2025-10-05T07:23:14Z</time>
      </trkpt>
      <trkpt lat="43.33469" lon="5.76931">
        <ele>689.9</ele>
        <time>2025-10-05T07:23:15Z</time>
      </trkpt>
      <trkpt lat="43.33469" lon="5.76932">
        <ele>690</ele>
        <time>2025-10-05T07:23:16Z</time>
      </trkpt>
      <trkpt lat="43.33468" lon="5.76933">
        <ele>690</ele>
        <time>2025-10-05T07:23:17Z</time>
      </trkpt>
      <trkpt lat="43.33468" lon="5.76934">
        <ele>690.1</ele>
        <time>2025-10-05T07:23:18Z</time>
      </trkpt>
      <trkpt lat="43.33467" lon="5.76934">
        <ele>690.1</ele>
        <time>2025-10-05T07:23:19Z</time>
      </trkpt>
      <trkpt lat="43.33466" lon="5.76935">
        <ele>690.2</ele>
        <time>2025-10-05T07:23:20Z</time>
      </trkpt>
      <trkpt lat="43.33465" lon="5.76936">
        <ele>690.1</ele>
        <time>2025-10-05T07:23:21Z</time>
      </trkpt>
      <trkpt lat="43.33465" lon="5.76937">
        <ele>690.2</ele>
        <time>2025-10-05T07:23:22Z</time>
      </trkpt>
      <trkpt lat="43.33465" lon="5.76938">
        <ele>690.3</ele>
        <time>2025-10-05T07:23:23Z</time>
      </trkpt>
      <trkpt lat="43.33464" lon="5.76939">
        <ele>690.4</ele>
        <time>2025-10-05T07:23:24Z</time>
      </trkpt>
      <trkpt lat="43.33464" lon="5.7694">
        <ele>690.5</ele>
        <time>2025-10-05T07:23:25Z</time>
      </trkpt>
      <trkpt lat="43.33464" lon="5.7694">
        <ele>690.5</ele>
        <time>2025-10-05T07:23:26Z</time>
      </trkpt>
      <trkpt lat="43.33464" lon="5.76941">
        <ele>690.4</ele>
        <time>2025-10-05T07:23:27Z</time>
      </trkpt>
      <trkpt lat="43.33463" lon="5.76942">
        <ele>690.5</ele>
        <time>2025-10-05T07:23:28Z</time>
      </trkpt>
      <trkpt lat="43.33463" lon="5.76943">
        <ele>690.5</ele>
        <time>2025-10-05T07:23:29Z</time>
      </trkpt>
      <trkpt lat="43.33462" lon="5.76945">
        <ele>690.5</ele>
        <time>2025-10-05T07:23:30Z</time>
      </trkpt>
      <trkpt lat="43.33461" lon="5.76947">
        <ele>690.6</ele>
        <time>2025-10-05T07:23:31Z</time>
      </trkpt>
      <trkpt lat="43.33462" lon="5.76949">
        <ele>690.6</ele>
        <time>2025-10-05T07:23:32Z</time>
      </trkpt>
      <trkpt lat="43.33461" lon="5.7695">
        <ele>690.7</ele>
        <time>2025-10-05T07:23:33Z</time>
      </trkpt>
      <trkpt lat="43.3346" lon="5.76951">
        <ele>690.8</ele>
        <time>2025-10-05T07:23:34Z</time>
      </trkpt>
      <trkpt lat="43.3346" lon="5.76951">
        <ele>690.8</ele>
        <time>2025-10-05T07:23:35Z</time>
      </trkpt>
      <trkpt lat="43.3346" lon="5.76952">
        <ele>690.9</ele>
        <time>2025-10-05T07:23:36Z</time>
      </trkpt>
      <trkpt lat="43.33459" lon="5.76953">
        <ele>691</ele>
        <time>2025-10-05T07:23:37Z</time>
      </trkpt>
      <trkpt lat="43.33458" lon="5.76954">
        <ele>691.3</ele>
        <time>2025-10-05T07:23:38Z</time>
      </trkpt>
      <trkpt lat="43.33459" lon="5.76955">
        <ele>691.3</ele>
        <time>2025-10-05T07:23:39Z</time>
      </trkpt>
      <trkpt lat="43.33458" lon="5.76955">
        <ele>691.4</ele>
        <time>2025-10-05T07:23:40Z</time>
      </trkpt>
      <trkpt lat="43.33457" lon="5.76957">
        <ele>691.5</ele>
        <time>2025-10-05T07:23:41Z</time>
      </trkpt>
      <trkpt lat="43.33457" lon="5.76957">
        <ele>691.5</ele>
        <time>2025-10-05T07:23:42Z</time>
      </trkpt>
      <trkpt lat="43.33457" lon="5.76957">
        <ele>691.5</ele>
        <time>2025-10-05T07:23:43Z</time>
      </trkpt>
      <trkpt lat="43.33457" lon="5.76957">
        <ele>691.5</ele>
        <time>2025-10-05T07:23:44Z</time>
      </trkpt>
      <trkpt lat="43.33456" lon="5.76958">
        <ele>691.5</ele>
        <time>2025-10-05T07:23:45Z</time>
      </trkpt>
      <trkpt lat="43.33455" lon="5.76958">
        <ele>691.6</ele>
        <time>2025-10-05T07:23:46Z</time>
      </trkpt>
      <trkpt lat="43.33454" lon="5.76959">
        <ele>691.6</ele>
        <time>2025-10-05T07:23:47Z</time>
      </trkpt>
      <trkpt lat="43.33453" lon="5.76959">
        <ele>691.7</ele>
        <time>2025-10-05T07:23:48Z</time>
      </trkpt>
      <trkpt lat="43.33452" lon="5.7696">
        <ele>691.8</ele>
        <time>2025-10-05T07:23:49Z</time>
      </trkpt>
      <trkpt lat="43.33451" lon="5.76961">
        <ele>692</ele>
        <time>2025-10-05T07:23:50Z</time>
      </trkpt>
      <trkpt lat="43.3345" lon="5.76962">
        <ele>692.1</ele>
        <time>2025-10-05T07:23:51Z</time>
      </trkpt>
      <trkpt lat="43.33449" lon="5.76962">
        <ele>692.2</ele>
        <time>2025-10-05T07:23:52Z</time>
      </trkpt>
      <trkpt lat="43.33448" lon="5.76962">
        <ele>692.3</ele>
        <time>2025-10-05T07:23:53Z</time>
      </trkpt>
      <trkpt lat="43.33447" lon="5.76963">
        <ele>692.5</ele>
        <time>2025-10-05T07:23:54Z</time>
      </trkpt>
      <trkpt lat="43.33447" lon="5.76963">
        <ele>692.6</ele>
        <time>2025-10-05T07:23:55Z</time>
      </trkpt>
      <trkpt lat="43.33446" lon="5.76964">
        <ele>692.7</ele>
        <time>2025-10-05T07:23:56Z</time>
      </trkpt>
      <trkpt lat="43.33446" lon="5.76964">
        <ele>692.8</ele>
        <time>2025-10-05T07:23:57Z</time>
      </trkpt>
      <trkpt lat="43.33445" lon="5.76965">
        <ele>693</ele>
        <time>2025-10-05T07:23:58Z</time>
      </trkpt>
      <trkpt lat="43.33445" lon="5.76965">
        <ele>693.1</ele>
        <time>2025-10-05T07:23:59Z</time>
      </trkpt>
      <trkpt lat="43.33444" lon="5.76965">
        <ele>693.2</ele>
        <time>2025-10-05T07:24:00Z</time>
      </trkpt>
      <trkpt lat="43.33443" lon="5.76965">
        <ele>693.3</ele>
        <time>2025-10-05T07:24:01Z</time>
      </trkpt>
      <trkpt lat="43.33442" lon="5.76966">
        <ele>693.4</ele>
        <time>2025-10-05T07:24:02Z</time>
      </trkpt>
      <trkpt lat="43.33442" lon="5.76967">
        <ele>693.5</ele>
        <time>2025-10-05T07:24:03Z</time>
      </trkpt>
      <trkpt lat="43.33441" lon="5.76969">
        <ele>693.6</ele>
        <time>2025-10-05T07:24:04Z</time>
      </trkpt>
      <trkpt lat="43.3344" lon="5.7697">
        <ele>693.7</ele>
        <time>2025-10-05T07:24:05Z</time>
      </trkpt>
      <trkpt lat="43.33439" lon="5.7697">
        <ele>693.8</ele>
        <time>2025-10-05T07:24:06Z</time>
      </trkpt>
      <trkpt lat="43.33439" lon="5.76971">
        <ele>693.9</ele>
        <time>2025-10-05T07:24:07Z</time>
      </trkpt>
      <trkpt lat="43.33438" lon="5.76972">
        <ele>694</ele>
        <time>2025-10-05T07:24:08Z</time>
      </trkpt>
      <trkpt lat="43.33437" lon="5.76972">
        <ele>694.1</ele>
        <time>2025-10-05T07:24:09Z</time>
      </trkpt>
      <trkpt lat="43.33436" lon="5.76973">
        <ele>694.2</ele>
        <time>2025-10-05T07:24:10Z</time>
      </trkpt>
      <trkpt lat="43.33436" lon="5.76974">
        <ele>694.3</ele>
        <time>2025-10-05T07:24:11Z</time>
      </trkpt>
      <trkpt lat="43.33436" lon="5.76974">
        <ele>694.3</ele>
        <time>2025-10-05T07:24:12Z</time>
      </trkpt>
      <trkpt lat="43.33436" lon="5.76975">
        <ele>694.5</ele>
        <time>2025-10-05T07:24:13Z</time>
      </trkpt>
      <trkpt lat="43.33435" lon="5.76976">
        <ele>694.5</ele>
        <time>2025-10-05T07:24:14Z</time>
      </trkpt>
      <trkpt lat="43.33434" lon="5.76976">
        <ele>694.5</ele>
        <time>2025-10-05T07:24:15Z</time>
      </trkpt>
      <trkpt lat="43.33434" lon="5.76976">
        <ele>694.5</ele>
        <time>2025-10-05T07:24:16Z</time>
      </trkpt>
      <trkpt lat="43.33434" lon="5.76977">
        <ele>694.5</ele>
        <time>2025-10-05T07:24:17Z</time>
      </trkpt>
      <trkpt lat="43.33433" lon="5.76977">
        <ele>694.7</ele>
        <time>2025-10-05T07:24:18Z</time>
      </trkpt>
      <trkpt lat="43.33432" lon="5.76978">
        <ele>694.8</ele>
        <time>2025-10-05T07:24:19Z</time>
      </trkpt>
      <trkpt lat="43.33431" lon="5.76978">
        <ele>695</ele>
        <time>2025-10-05T07:24:20Z</time>
      </trkpt>
      <trkpt lat="43.3343" lon="5.76978">
        <ele>695.1</ele>
        <time>2025-10-05T07:24:21Z</time>
      </trkpt>
      <trkpt lat="43.33429" lon="5.76978">
        <ele>695.1</ele>
        <time>2025-10-05T07:24:22Z</time>
      </trkpt>
      <trkpt lat="43.33429" lon="5.76979">
        <ele>695.2</ele>
        <time>2025-10-05T07:24:23Z</time>
      </trkpt>
      <trkpt lat="43.33428" lon="5.7698">
        <ele>695.3</ele>
        <time>2025-10-05T07:24:24Z</time>
      </trkpt>
      <trkpt lat="43.33427" lon="5.76981">
        <ele>695.4</ele>
        <time>2025-10-05T07:24:25Z</time>
      </trkpt>
      <trkpt lat="43.33427" lon="5.76982">
        <ele>695.5</ele>
        <time>2025-10-05T07:24:26Z</time>
      </trkpt>
      <trkpt lat="43.33426" lon="5.76982">
        <ele>695.4</ele>
        <time>2025-10-05T07:24:27Z</time>
      </trkpt>
      <trkpt lat="43.33425" lon="5.76983">
        <ele>695.5</ele>
        <time>2025-10-05T07:24:28Z</time>
      </trkpt>
      <trkpt lat="43.33424" lon="5.76984">
        <ele>695.6</ele>
        <time>2025-10-05T07:24:29Z</time>
      </trkpt>
      <trkpt lat="43.33424" lon="5.76984">
        <ele>695.7</ele>
        <time>2025-10-05T07:24:30Z</time>
      </trkpt>
      <trkpt lat="43.33423" lon="5.76985">
        <ele>695.7</ele>
        <time>2025-10-05T07:24:31Z</time>
      </trkpt>
      <trkpt lat="43.33422" lon="5.76985">
        <ele>695.8</ele>
        <time>2025-10-05T07:24:32Z</time>
      </trkpt>
      <trkpt lat="43.33421" lon="5.76986">
        <ele>695.9</ele>
        <time>2025-10-05T07:24:33Z</time>
      </trkpt>
      <trkpt lat="43.33421" lon="5.76987">
        <ele>696</ele>
        <time>2025-10-05T07:24:34Z</time>
      </trkpt>
      <trkpt lat="43.3342" lon="5.76987">
        <ele>696.1</ele>
        <time>2025-10-05T07:24:35Z</time>
      </trkpt>
      <trkpt lat="43.3342" lon="5.76988">
        <ele>696.2</ele>
        <time>2025-10-05T07:24:36Z</time>
      </trkpt>
      <trkpt lat="43.33418" lon="5.76988">
        <ele>696.1</ele>
        <time>2025-10-05T07:24:37Z</time>
      </trkpt>
      <trkpt lat="43.33417" lon="5.76988">
        <ele>696.2</ele>
        <time>2025-10-05T07:24:38Z</time>
      </trkpt>
      <trkpt lat="43.33416" lon="5.76989">
        <ele>696.3</ele>
        <time>2025-10-05T07:24:39Z</time>
      </trkpt>
      <trkpt lat="43.33416" lon="5.76989">
        <ele>696.4</ele>
        <time>2025-10-05T07:24:40Z</time>
      </trkpt>
      <trkpt lat="43.33415" lon="5.7699">
        <ele>696.6</ele>
        <time>2025-10-05T07:24:41Z</time>
      </trkpt>
      <trkpt lat="43.33414" lon="5.76991">
        <ele>696.7</ele>
        <time>2025-10-05T07:24:42Z</time>
      </trkpt>
      <trkpt lat="43.33413" lon="5.76992">
        <ele>696.8</ele>
        <time>2025-10-05T07:24:43Z</time>
      </trkpt>
      <trkpt lat="43.33412" lon="5.76993">
        <ele>696.9</ele>
        <time>2025-10-05T07:24:44Z</time>
      </trkpt>
      <trkpt lat="43.33411" lon="5.76993">
        <ele>697</ele>
        <time>2025-10-05T07:24:45Z</time>
      </trkpt>
      <trkpt lat="43.3341" lon="5.76993">
        <ele>697.1</ele>
        <time>2025-10-05T07:24:46Z</time>
      </trkpt>
      <trkpt lat="43.3341" lon="5.76993">
        <ele>697.1</ele>
        <time>2025-10-05T07:24:47Z</time>
      </trkpt>
      <trkpt lat="43.33409" lon="5.76994">
        <ele>697.2</ele>
        <time>2025-10-05T07:24:48Z</time>
      </trkpt>
      <trkpt lat="43.33409" lon="5.76994">
        <ele>697.4</ele>
        <time>2025-10-05T07:24:49Z</time>
      </trkpt>
      <trkpt lat="43.33408" lon="5.76994">
        <ele>697.6</ele>
        <time>2025-10-05T07:24:50Z</time>
      </trkpt>
      <trkpt lat="43.33407" lon="5.76995">
        <ele>697.7</ele>
        <time>2025-10-05T07:24:51Z</time>
      </trkpt>
      <trkpt lat="43.33406" lon="5.76995">
        <ele>697.8</ele>
        <time>2025-10-05T07:24:52Z</time>
      </trkpt>
      <trkpt lat="43.33405" lon="5.76995">
        <ele>697.9</ele>
        <time>2025-10-05T07:24:53Z</time>
      </trkpt>
      <trkpt lat="43.33404" lon="5.76996">
        <ele>697.9</ele>
        <time>2025-10-05T07:24:54Z</time>
      </trkpt>
      <trkpt lat="43.33403" lon="5.76996">
        <ele>698</ele>
        <time>2025-10-05T07:24:55Z</time>
      </trkpt>
      <trkpt lat="43.33402" lon="5.76997">
        <ele>698.1</ele>
        <time>2025-10-05T07:24:56Z</time>
      </trkpt>
      <trkpt lat="43.33401" lon="5.76997">
        <ele>698.2</ele>
        <time>2025-10-05T07:24:57Z</time>
      </trkpt>
      <trkpt lat="43.334" lon="5.76998">
        <ele>698.2</ele>
        <time>2025-10-05T07:24:58Z</time>
      </trkpt>
      <trkpt lat="43.33399" lon="5.76999">
        <ele>698.3</ele>
        <time>2025-10-05T07:24:59Z</time>
      </trkpt>
      <trkpt lat="43.33398" lon="5.77">
        <ele>698.4</ele>
        <time>2025-10-05T07:25:00Z</time>
      </trkpt>
      <trkpt lat="43.33398" lon="5.77001">
        <ele>698.5</ele>
        <time>2025-10-05T07:25:01Z</time>
      </trkpt>
      <trkpt lat="43.33397" lon="5.77001">
        <ele>698.6</ele>
        <time>2025-10-05T07:25:02Z</time>
      </trkpt>
      <trkpt lat="43.33396" lon="5.77002">
        <ele>698.6</ele>
        <time>2025-10-05T07:25:03Z</time>
      </trkpt>
      <trkpt lat="43.33395" lon="5.77003">
        <ele>698.7</ele>
        <time>2025-10-05T07:25:04Z</time>
      </trkpt>
      <trkpt lat="43.33394" lon="5.77004">
        <ele>698.7</ele>
        <time>2025-10-05T07:25:05Z</time>
      </trkpt>
      <trkpt lat="43.33393" lon="5.77005">
        <ele>698.8</ele>
        <time>2025-10-05T07:25:06Z</time>
      </trkpt>
      <trkpt lat="43.33392" lon="5.77005">
        <ele>698.9</ele>
        <time>2025-10-05T07:25:07Z</time>
      </trkpt>
      <trkpt lat="43.33391" lon="5.77006">
        <ele>699</ele>
        <time>2025-10-05T07:25:08Z</time>
      </trkpt>
      <trkpt lat="43.33391" lon="5.77006">
        <ele>698.8</ele>
        <time>2025-10-05T07:25:09Z</time>
      </trkpt>
      <trkpt lat="43.3339" lon="5.77007">
        <ele>698.7</ele>
        <time>2025-10-05T07:25:10Z</time>
      </trkpt>
      <trkpt lat="43.3339" lon="5.77007">
        <ele>698.7</ele>
        <time>2025-10-05T07:25:11Z</time>
      </trkpt>
      <trkpt lat="43.33389" lon="5.77008">
        <ele>698.8</ele>
        <time>2025-10-05T07:25:12Z</time>
      </trkpt>
      <trkpt lat="43.33388" lon="5.7701">
        <ele>698.8</ele>
        <time>2025-10-05T07:25:13Z</time>
      </trkpt>
      <trkpt lat="43.33387" lon="5.7701">
        <ele>699.1</ele>
        <time>2025-10-05T07:25:14Z</time>
      </trkpt>
      <trkpt lat="43.33387" lon="5.77011">
        <ele>699</ele>
        <time>2025-10-05T07:25:15Z</time>
      </trkpt>
      <trkpt lat="43.33386" lon="5.77012">
        <ele>699.2</ele>
        <time>2025-10-05T07:25:16Z</time>
      </trkpt>
      <trkpt lat="43.33385" lon="5.77012">
        <ele>699.4</ele>
        <time>2025-10-05T07:25:17Z</time>
      </trkpt>
      <trkpt lat="43.33384" lon="5.77013">
        <ele>699.6</ele>
        <time>2025-10-05T07:25:18Z</time>
      </trkpt>
      <trkpt lat="43.33384" lon="5.77013">
        <ele>699.9</ele>
        <time>2025-10-05T07:25:19Z</time>
      </trkpt>
      <trkpt lat="43.33383" lon="5.77014">
        <ele>699.4</ele>
        <time>2025-10-05T07:25:20Z</time>
      </trkpt>
      <trkpt lat="43.33382" lon="5.77014">
        <ele>699.8</ele>
        <time>2025-10-05T07:25:21Z</time>
      </trkpt>
      <trkpt lat="43.33381" lon="5.77014">
        <ele>700.1</ele>
        <time>2025-10-05T07:25:22Z</time>
      </trkpt>
      <trkpt lat="43.3338" lon="5.77015">
        <ele>700.4</ele>
        <time>2025-10-05T07:25:23Z</time>
      </trkpt>
      <trkpt lat="43.33379" lon="5.77016">
        <ele>700.8</ele>
        <time>2025-10-05T07:25:24Z</time>
      </trkpt>
      <trkpt lat="43.33379" lon="5.77017">
        <ele>701</ele>
        <time>2025-10-05T07:25:25Z</time>
      </trkpt>
      <trkpt lat="43.33378" lon="5.77017">
        <ele>701</ele>
        <time>2025-10-05T07:25:26Z</time>
      </trkpt>
      <trkpt lat="43.33377" lon="5.77018">
        <ele>701.1</ele>
        <time>2025-10-05T07:25:27Z</time>
      </trkpt>
      <trkpt lat="43.33376" lon="5.77019">
        <ele>701.2</ele>
        <time>2025-10-05T07:25:28Z</time>
      </trkpt>
      <trkpt lat="43.33375" lon="5.7702">
        <ele>701.3</ele>
        <time>2025-10-05T07:25:29Z</time>
      </trkpt>
      <trkpt lat="43.33375" lon="5.77021">
        <ele>701.3</ele>
        <time>2025-10-05T07:25:30Z</time>
      </trkpt>
      <trkpt lat="43.33374" lon="5.77022">
        <ele>701.4</ele>
        <time>2025-10-05T07:25:31Z</time>
      </trkpt>
      <trkpt lat="43.33373" lon="5.77022">
        <ele>701.4</ele>
        <time>2025-10-05T07:25:32Z</time>
      </trkpt>
      <trkpt lat="43.33372" lon="5.77023">
        <ele>701.4</ele>
        <time>2025-10-05T07:25:33Z</time>
      </trkpt>
      <trkpt lat="43.33371" lon="5.77024">
        <ele>701.2</ele>
        <time>2025-10-05T07:25:34Z</time>
      </trkpt>
      <trkpt lat="43.3337" lon="5.77024">
        <ele>701.2</ele>
        <time>2025-10-05T07:25:35Z</time>
      </trkpt>
      <trkpt lat="43.3337" lon="5.77024">
        <ele>701.1</ele>
        <time>2025-10-05T07:25:36Z</time>
      </trkpt>
      <trkpt lat="43.3337" lon="5.77024">
        <ele>701.1</ele>
        <time>2025-10-05T07:25:37Z</time>
      </trkpt>
      <trkpt lat="43.33369" lon="5.77024">
        <ele>701.1</ele>
        <time>2025-10-05T07:25:38Z</time>
      </trkpt>
      <trkpt lat="43.33369" lon="5.77024">
        <ele>701.1</ele>
        <time>2025-10-05T07:25:39Z</time>
      </trkpt>
      <trkpt lat="43.33368" lon="5.77025">
        <ele>701.1</ele>
        <time>2025-10-05T07:25:40Z</time>
      </trkpt>
      <trkpt lat="43.33367" lon="5.77026">
        <ele>701.2</ele>
        <time>2025-10-05T07:25:41Z</time>
      </trkpt>
      <trkpt lat="43.33365" lon="5.77027">
        <ele>701.2</ele>
        <time>2025-10-05T07:25:42Z</time>
      </trkpt>
      <trkpt lat="43.33365" lon="5.77028">
        <ele>701.3</ele>
        <time>2025-10-05T07:25:43Z</time>
      </trkpt>
      <trkpt lat="43.33363" lon="5.77028">
        <ele>701.3</ele>
        <time>2025-10-05T07:25:44Z</time>
      </trkpt>
      <trkpt lat="43.33363" lon="5.77029">
        <ele>701.4</ele>
        <time>2025-10-05T07:25:45Z</time>
      </trkpt>
      <trkpt lat="43.33361" lon="5.7703">
        <ele>701.4</ele>
        <time>2025-10-05T07:25:46Z</time>
      </trkpt>
      <trkpt lat="43.3336" lon="5.7703">
        <ele>701.5</ele>
        <time>2025-10-05T07:25:47Z</time>
      </trkpt>
      <trkpt lat="43.33359" lon="5.7703">
        <ele>701.7</ele>
        <time>2025-10-05T07:25:48Z</time>
      </trkpt>
      <trkpt lat="43.33359" lon="5.7703">
        <ele>701.9</ele>
        <time>2025-10-05T07:25:49Z</time>
      </trkpt>
      <trkpt lat="43.33357" lon="5.7703">
        <ele>701.9</ele>
        <time>2025-10-05T07:25:50Z</time>
      </trkpt>
      <trkpt lat="43.33357" lon="5.77031">
        <ele>702</ele>
        <time>2025-10-05T07:25:51Z</time>
      </trkpt>
      <trkpt lat="43.33355" lon="5.77031">
        <ele>702</ele>
        <time>2025-10-05T07:25:52Z</time>
      </trkpt>
      <trkpt lat="43.33354" lon="5.77031">
        <ele>702</ele>
        <time>2025-10-05T07:25:53Z</time>
      </trkpt>
      <trkpt lat="43.33354" lon="5.77031">
        <ele>702.1</ele>
        <time>2025-10-05T07:25:54Z</time>
      </trkpt>
      <trkpt lat="43.33353" lon="5.77031">
        <ele>702.1</ele>
        <time>2025-10-05T07:25:55Z</time>
      </trkpt>
      <trkpt lat="43.33352" lon="5.77031">
        <ele>702.1</ele>
        <time>2025-10-05T07:25:56Z</time>
      </trkpt>
      <trkpt lat="43.33351" lon="5.77032">
        <ele>702.2</ele>
        <time>2025-10-05T07:25:57Z</time>
      </trkpt>
      <trkpt lat="43.3335" lon="5.77032">
        <ele>702.2</ele>
        <time>2025-10-05T07:25:58Z</time>
      </trkpt>
      <trkpt lat="43.33349" lon="5.77033">
        <ele>702.3</ele>
        <time>2025-10-05T07:25:59Z</time>
      </trkpt>
      <trkpt lat="43.33349" lon="5.77033">
        <ele>702.2</ele>
        <time>2025-10-05T07:26:00Z</time>
      </trkpt>
      <trkpt lat="43.33348" lon="5.77033">
        <ele>702.1</ele>
        <time>2025-10-05T07:26:01Z</time>
      </trkpt>
      <trkpt lat="43.33348" lon="5.77033">
        <ele>702.2</ele>
        <time>2025-10-05T07:26:02Z</time>
      </trkpt>
      <trkpt lat="43.33348" lon="5.77032">
        <ele>702.3</ele>
        <time>2025-10-05T07:26:03Z</time>
      </trkpt>
      <trkpt lat="43.33347" lon="5.77033">
        <ele>702.4</ele>
        <time>2025-10-05T07:26:04Z</time>
      </trkpt>
      <trkpt lat="43.33347" lon="5.77033">
        <ele>702.4</ele>
        <time>2025-10-05T07:26:05Z</time>
      </trkpt>
      <trkpt lat="43.33346" lon="5.77033">
        <ele>702.5</ele>
        <time>2025-10-05T07:26:06Z</time>
      </trkpt>
      <trkpt lat="43.33345" lon="5.77034">
        <ele>702.6</ele>
        <time>2025-10-05T07:26:07Z</time>
      </trkpt>
      <trkpt lat="43.33344" lon="5.77034">
        <ele>702.7</ele>
        <time>2025-10-05T07:26:08Z</time>
      </trkpt>
      <trkpt lat="43.33343" lon="5.77034">
        <ele>702.8</ele>
        <time>2025-10-05T07:26:09Z</time>
      </trkpt>
      <trkpt lat="43.33342" lon="5.77035">
        <ele>702.9</ele>
        <time>2025-10-05T07:26:10Z</time>
      </trkpt>
      <trkpt lat="43.33341" lon="5.77036">
        <ele>702.8</ele>
        <time>2025-10-05T07:26:11Z</time>
      </trkpt>
      <trkpt lat="43.33341" lon="5.77036">
        <ele>702.8</ele>
        <time>2025-10-05T07:26:12Z</time>
      </trkpt>
      <trkpt lat="43.3334" lon="5.77036">
        <ele>702.7</ele>
        <time>2025-10-05T07:26:13Z</time>
      </trkpt>
      <trkpt lat="43.33339" lon="5.77037">
        <ele>702.7</ele>
        <time>2025-10-05T07:26:14Z</time>
      </trkpt>
      <trkpt lat="43.33338" lon="5.77038">
        <ele>702.7</ele>
        <time>2025-10-05T07:26:15Z</time>
      </trkpt>
      <trkpt lat="43.33337" lon="5.77038">
        <ele>702.9</ele>
        <time>2025-10-05T07:26:16Z</time>
      </trkpt>
      <trkpt lat="43.33336" lon="5.77038">
        <ele>702.9</ele>
        <time>2025-10-05T07:26:17Z</time>
      </trkpt>
      <trkpt lat="43.33335" lon="5.77039">
        <ele>703</ele>
        <time>2025-10-05T07:26:18Z</time>
      </trkpt>
      <trkpt lat="43.33334" lon="5.7704">
        <ele>703.3</ele>
        <time>2025-10-05T07:26:19Z</time>
      </trkpt>
      <trkpt lat="43.33333" lon="5.77042">
        <ele>703.6</ele>
        <time>2025-10-05T07:26:20Z</time>
      </trkpt>
      <trkpt lat="43.33331" lon="5.77043">
        <ele>703.8</ele>
        <time>2025-10-05T07:26:21Z</time>
      </trkpt>
      <trkpt lat="43.33331" lon="5.77044">
        <ele>703.8</ele>
        <time>2025-10-05T07:26:22Z</time>
      </trkpt>
      <trkpt lat="43.3333" lon="5.77045">
        <ele>703.9</ele>
        <time>2025-10-05T07:26:23Z</time>
      </trkpt>
      <trkpt lat="43.3333" lon="5.77046">
        <ele>704</ele>
        <time>2025-10-05T07:26:24Z</time>
      </trkpt>
      <trkpt lat="43.33329" lon="5.77046">
        <ele>704.1</ele>
        <time>2025-10-05T07:26:25Z</time>
      </trkpt>
      <trkpt lat="43.33329" lon="5.77047">
        <ele>704.2</ele>
        <time>2025-10-05T07:26:26Z</time>
      </trkpt>
      <trkpt lat="43.33329" lon="5.77049">
        <ele>704.2</ele>
        <time>2025-10-05T07:26:27Z</time>
      </trkpt>
      <trkpt lat="43.33329" lon="5.7705">
        <ele>704.3</ele>
        <time>2025-10-05T07:26:28Z</time>
      </trkpt>
      <trkpt lat="43.33329" lon="5.77051">
        <ele>704.3</ele>
        <time>2025-10-05T07:26:29Z</time>
      </trkpt>
      <trkpt lat="43.33328" lon="5.77053">
        <ele>704.3</ele>
        <time>2025-10-05T07:26:30Z</time>
      </trkpt>
      <trkpt lat="43.33327" lon="5.77054">
        <ele>704.4</ele>
        <time>2025-10-05T07:26:31Z</time>
      </trkpt>
      <trkpt lat="43.33327" lon="5.77055">
        <ele>704.4</ele>
        <time>2025-10-05T07:26:32Z</time>
      </trkpt>
      <trkpt lat="43.33326" lon="5.77056">
        <ele>704.4</ele>
        <time>2025-10-05T07:26:33Z</time>
      </trkpt>
      <trkpt lat="43.33325" lon="5.77057">
        <ele>704.4</ele>
        <time>2025-10-05T07:26:34Z</time>
      </trkpt>
      <trkpt lat="43.33325" lon="5.77058">
        <ele>704.4</ele>
        <time>2025-10-05T07:26:35Z</time>
      </trkpt>
      <trkpt lat="43.33325" lon="5.7706">
        <ele>704.4</ele>
        <time>2025-10-05T07:26:36Z</time>
      </trkpt>
      <trkpt lat="43.33324" lon="5.77062">
        <ele>704.3</ele>
        <time>2025-10-05T07:26:37Z</time>
      </trkpt>
      <trkpt lat="43.33323" lon="5.77063">
        <ele>704.3</ele>
        <time>2025-10-05T07:26:38Z</time>
      </trkpt>
      <trkpt lat="43.33323" lon="5.77063">
        <ele>704.2</ele>
        <time>2025-10-05T07:26:39Z</time>
      </trkpt>
      <trkpt lat="43.33322" lon="5.77064">
        <ele>704.1</ele>
        <time>2025-10-05T07:26:40Z</time>
      </trkpt>
      <trkpt lat="43.33322" lon="5.77065">
        <ele>704.1</ele>
        <time>2025-10-05T07:26:41Z</time>
      </trkpt>
      <trkpt lat="43.33321" lon="5.77067">
        <ele>704</ele>
        <time>2025-10-05T07:26:42Z</time>
      </trkpt>
      <trkpt lat="43.33321" lon="5.77068">
        <ele>703.9</ele>
        <time>2025-10-05T07:26:43Z</time>
      </trkpt>
      <trkpt lat="43.3332" lon="5.7707">
        <ele>703.7</ele>
        <time>2025-10-05T07:26:44Z</time>
      </trkpt>
      <trkpt lat="43.3332" lon="5.77072">
        <ele>703.6</ele>
        <time>2025-10-05T07:26:45Z</time>
      </trkpt>
      <trkpt lat="43.3332" lon="5.77073">
        <ele>703.5</ele>
        <time>2025-10-05T07:26:46Z</time>
      </trkpt>
      <trkpt lat="43.33319" lon="5.77076">
        <ele>703.5</ele>
        <time>2025-10-05T07:26:47Z</time>
      </trkpt>
      <trkpt lat="43.33319" lon="5.77078">
        <ele>703.4</ele>
        <time>2025-10-05T07:26:48Z</time>
      </trkpt>
      <trkpt lat="43.33319" lon="5.77079">
        <ele>703.5</ele>
        <time>2025-10-05T07:26:49Z</time>
      </trkpt>
      <trkpt lat="43.33319" lon="5.77081">
        <ele>703.2</ele>
        <time>2025-10-05T07:26:50Z</time>
      </trkpt>
      <trkpt lat="43.33318" lon="5.77082">
        <ele>703.3</ele>
        <time>2025-10-05T07:26:51Z</time>
      </trkpt>
      <trkpt lat="43.33318" lon="5.77084">
        <ele>703.4</ele>
        <time>2025-10-05T07:26:52Z</time>
      </trkpt>
      <trkpt lat="43.33318" lon="5.77086">
        <ele>703.5</ele>
        <time>2025-10-05T07:26:53Z</time>
      </trkpt>
      <trkpt lat="43.33317" lon="5.77089">
        <ele>703.7</ele>
        <time>2025-10-05T07:26:54Z</time>
      </trkpt>
      <trkpt lat="43.33317" lon="5.77091">
        <ele>703.7</ele>
        <time>2025-10-05T07:26:55Z</time>
      </trkpt>
      <trkpt lat="43.33317" lon="5.77093">
        <ele>703.9</ele>
        <time>2025-10-05T07:26:56Z</time>
      </trkpt>
      <trkpt lat="43.33317" lon="5.77094">
        <ele>704</ele>
        <time>2025-10-05T07:26:57Z</time>
      </trkpt>
      <trkpt lat="43.33316" lon="5.77096">
        <ele>704.1</ele>
        <time>2025-10-05T07:26:58Z</time>
      </trkpt>
      <trkpt lat="43.33317" lon="5.77097">
        <ele>704.1</ele>
        <time>2025-10-05T07:26:59Z</time>
      </trkpt>
      <trkpt lat="43.33317" lon="5.77098">
        <ele>704.2</ele>
        <time>2025-10-05T07:27:00Z</time>
      </trkpt>
      <trkpt lat="43.33317" lon="5.77101">
        <ele>704.2</ele>
        <time>2025-10-05T07:27:01Z</time>
      </trkpt>
      <trkpt lat="43.33315" lon="5.77104">
        <ele>704.3</ele>
        <time>2025-10-05T07:27:02Z</time>
      </trkpt>
      <trkpt lat="43.33315" lon="5.77106">
        <ele>704.3</ele>
        <time>2025-10-05T07:27:03Z</time>
      </trkpt>
      <trkpt lat="43.33314" lon="5.77108">
        <ele>704.3</ele>
        <time>2025-10-05T07:27:04Z</time>
      </trkpt>
      <trkpt lat="43.33315" lon="5.7711">
        <ele>704.3</ele>
        <time>2025-10-05T07:27:05Z</time>
      </trkpt>
      <trkpt lat="43.33315" lon="5.77111">
        <ele>704.3</ele>
        <time>2025-10-05T07:27:06Z</time>
      </trkpt>
      <trkpt lat="43.33314" lon="5.77113">
        <ele>704.4</ele>
        <time>2025-10-05T07:27:07Z</time>
      </trkpt>
      <trkpt lat="43.33314" lon="5.77115">
        <ele>704.4</ele>
        <time>2025-10-05T07:27:08Z</time>
      </trkpt>
      <trkpt lat="43.33314" lon="5.77117">
        <ele>704.4</ele>
        <time>2025-10-05T07:27:09Z</time>
      </trkpt>
      <trkpt lat="43.33313" lon="5.77117">
        <ele>704.4</ele>
        <time>2025-10-05T07:27:10Z</time>
      </trkpt>
      <trkpt lat="43.33312" lon="5.77118">
        <ele>704.4</ele>
        <time>2025-10-05T07:27:11Z</time>
      </trkpt>
      <trkpt lat="43.33312" lon="5.77119">
        <ele>704.5</ele>
        <time>2025-10-05T07:27:12Z</time>
      </trkpt>
      <trkpt lat="43.33311" lon="5.7712">
        <ele>704.5</ele>
        <time>2025-10-05T07:27:13Z</time>
      </trkpt>
      <trkpt lat="43.33311" lon="5.77121">
        <ele>704.7</ele>
        <time>2025-10-05T07:27:14Z</time>
      </trkpt>
      <trkpt lat="43.3331" lon="5.77123">
        <ele>704.8</ele>
        <time>2025-10-05T07:27:15Z</time>
      </trkpt>
      <trkpt lat="43.33309" lon="5.77123">
        <ele>704.9</ele>
        <time>2025-10-05T07:27:16Z</time>
      </trkpt>
      <trkpt lat="43.33308" lon="5.77124">
        <ele>704.9</ele>
        <time>2025-10-05T07:27:17Z</time>
      </trkpt>
      <trkpt lat="43.33308" lon="5.77125">
        <ele>705.1</ele>
        <time>2025-10-05T07:27:18Z</time>
      </trkpt>
      <trkpt lat="43.33307" lon="5.77125">
        <ele>705.3</ele>
        <time>2025-10-05T07:27:19Z</time>
      </trkpt>
      <trkpt lat="43.33307" lon="5.77126">
        <ele>705.5</ele>
        <time>2025-10-05T07:27:20Z</time>
      </trkpt>
      <trkpt lat="43.33306" lon="5.77127">
        <ele>705.7</ele>
        <time>2025-10-05T07:27:21Z</time>
      </trkpt>
      <trkpt lat="43.33304" lon="5.77126">
        <ele>705.8</ele>
        <time>2025-10-05T07:27:22Z</time>
      </trkpt>
      <trkpt lat="43.33303" lon="5.77125">
        <ele>705.9</ele>
        <time>2025-10-05T07:27:23Z</time>
      </trkpt>
      <trkpt lat="43.33302" lon="5.77125">
        <ele>706</ele>
        <time>2025-10-05T07:27:24Z</time>
      </trkpt>
      <trkpt lat="43.33301" lon="5.77125">
        <ele>706</ele>
        <time>2025-10-05T07:27:25Z</time>
      </trkpt>
      <trkpt lat="43.333" lon="5.77125">
        <ele>706.1</ele>
        <time>2025-10-05T07:27:26Z</time>
      </trkpt>
      <trkpt lat="43.333" lon="5.77124">
        <ele>706.2</ele>
        <time>2025-10-05T07:27:27Z</time>
      </trkpt>
      <trkpt lat="43.33299" lon="5.77124">
        <ele>706.3</ele>
        <time>2025-10-05T07:27:28Z</time>
      </trkpt>
      <trkpt lat="43.33299" lon="5.77122">
        <ele>706.6</ele>
        <time>2025-10-05T07:27:29Z</time>
      </trkpt>
      <trkpt lat="43.33299" lon="5.77121">
        <ele>706.9</ele>
        <time>2025-10-05T07:27:30Z</time>
      </trkpt>
      <trkpt lat="43.33298" lon="5.77121">
        <ele>707.1</ele>
        <time>2025-10-05T07:27:31Z</time>
      </trkpt>
      <trkpt lat="43.33298" lon="5.7712">
        <ele>707.2</ele>
        <time>2025-10-05T07:27:32Z</time>
      </trkpt>
      <trkpt lat="43.33297" lon="5.7712">
        <ele>707.4</ele>
        <time>2025-10-05T07:27:33Z</time>
      </trkpt>
      <trkpt lat="43.33297" lon="5.7712">
        <ele>707.6</ele>
        <time>2025-10-05T07:27:34Z</time>
      </trkpt>
      <trkpt lat="43.33296" lon="5.7712">
        <ele>707.8</ele>
        <time>2025-10-05T07:27:35Z</time>
      </trkpt>
      <trkpt lat="43.33296" lon="5.77118">
        <ele>707.9</ele>
        <time>2025-10-05T07:27:36Z</time>
      </trkpt>
      <trkpt lat="43.33295" lon="5.77118">
        <ele>708.1</ele>
        <time>2025-10-05T07:27:37Z</time>
      </trkpt>
      <trkpt lat="43.33295" lon="5.77117">
        <ele>708.3</ele>
        <time>2025-10-05T07:27:38Z</time>
      </trkpt>
      <trkpt lat="43.33295" lon="5.77116">
        <ele>708.4</ele>
        <time>2025-10-05T07:27:39Z</time>
      </trkpt>
      <trkpt lat="43.33294" lon="5.77116">
        <ele>708.5</ele>
        <time>2025-10-05T07:27:40Z</time>
      </trkpt>
      <trkpt lat="43.33293" lon="5.77115">
        <ele>708.5</ele>
        <time>2025-10-05T07:27:41Z</time>
      </trkpt>
      <trkpt lat="43.33292" lon="5.77115">
        <ele>708.7</ele>
        <time>2025-10-05T07:27:42Z</time>
      </trkpt>
      <trkpt lat="43.33292" lon="5.77114">
        <ele>708.9</ele>
        <time>2025-10-05T07:27:43Z</time>
      </trkpt>
      <trkpt lat="43.33292" lon="5.77113">
        <ele>709.1</ele>
        <time>2025-10-05T07:27:44Z</time>
      </trkpt>
      <trkpt lat="43.33292" lon="5.77112">
        <ele>709.4</ele>
        <time>2025-10-05T07:27:45Z</time>
      </trkpt>
      <trkpt lat="43.33292" lon="5.77112">
        <ele>709.6</ele>
        <time>2025-10-05T07:27:46Z</time>
      </trkpt>
      <trkpt lat="43.33292" lon="5.77112">
        <ele>709.9</ele>
        <time>2025-10-05T07:27:47Z</time>
      </trkpt>
      <trkpt lat="43.3329" lon="5.77112">
        <ele>710</ele>
        <time>2025-10-05T07:27:48Z</time>
      </trkpt>
      <trkpt lat="43.33291" lon="5.77111">
        <ele>710.2</ele>
        <time>2025-10-05T07:27:49Z</time>
      </trkpt>
      <trkpt lat="43.3329" lon="5.7711">
        <ele>710.3</ele>
        <time>2025-10-05T07:27:50Z</time>
      </trkpt>
      <trkpt lat="43.33291" lon="5.77109">
        <ele>710.5</ele>
        <time>2025-10-05T07:27:51Z</time>
      </trkpt>
      <trkpt lat="43.33291" lon="5.77108">
        <ele>710.8</ele>
        <time>2025-10-05T07:27:52Z</time>
      </trkpt>
      <trkpt lat="43.3329" lon="5.77108">
        <ele>711</ele>
        <time>2025-10-05T07:27:53Z</time>
      </trkpt>
      <trkpt lat="43.33288" lon="5.77107">
        <ele>711.2</ele>
        <time>2025-10-05T07:27:54Z</time>
      </trkpt>
      <trkpt lat="43.33288" lon="5.77107">
        <ele>711.3</ele>
        <time>2025-10-05T07:27:55Z</time>
      </trkpt>
      <trkpt lat="43.33288" lon="5.77106">
        <ele>711.5</ele>
        <time>2025-10-05T07:27:56Z</time>
      </trkpt>
      <trkpt lat="43.33287" lon="5.77106">
        <ele>711.7</ele>
        <time>2025-10-05T07:27:57Z</time>
      </trkpt>
      <trkpt lat="43.33287" lon="5.77106">
        <ele>711.9</ele>
        <time>2025-10-05T07:27:58Z</time>
      </trkpt>
      <trkpt lat="43.33286" lon="5.77106">
        <ele>712.1</ele>
        <time>2025-10-05T07:27:59Z</time>
      </trkpt>
      <trkpt lat="43.33285" lon="5.77106">
        <ele>712.3</ele>
        <time>2025-10-05T07:28:00Z</time>
      </trkpt>
      <trkpt lat="43.33285" lon="5.77106">
        <ele>712.7</ele>
        <time>2025-10-05T07:28:01Z</time>
      </trkpt>
      <trkpt lat="43.33285" lon="5.77106">
        <ele>712.9</ele>
        <time>2025-10-05T07:28:02Z</time>
      </trkpt>
      <trkpt lat="43.33284" lon="5.77106">
        <ele>713.1</ele>
        <time>2025-10-05T07:28:03Z</time>
      </trkpt>
      <trkpt lat="43.33284" lon="5.77106">
        <ele>713.3</ele>
        <time>2025-10-05T07:28:04Z</time>
      </trkpt>
      <trkpt lat="43.33283" lon="5.77107">
        <ele>713.5</ele>
        <time>2025-10-05T07:28:05Z</time>
      </trkpt>
      <trkpt lat="43.33282" lon="5.77107">
        <ele>713.7</ele>
        <time>2025-10-05T07:28:06Z</time>
      </trkpt>
      <trkpt lat="43.33281" lon="5.77107">
        <ele>713.9</ele>
        <time>2025-10-05T07:28:07Z</time>
      </trkpt>
      <trkpt lat="43.3328" lon="5.77107">
        <ele>714</ele>
        <time>2025-10-05T07:28:08Z</time>
      </trkpt>
      <trkpt lat="43.33279" lon="5.77108">
        <ele>714.3</ele>
        <time>2025-10-05T07:28:09Z</time>
      </trkpt>
      <trkpt lat="43.33279" lon="5.77108">
        <ele>714.5</ele>
        <time>2025-10-05T07:28:10Z</time>
      </trkpt>
      <trkpt lat="43.33279" lon="5.77108">
        <ele>714.6</ele>
        <time>2025-10-05T07:28:11Z</time>
      </trkpt>
      <trkpt lat="43.33279" lon="5.77108">
        <ele>714.7</ele>
        <time>2025-10-05T07:28:12Z</time>
      </trkpt>
      <trkpt lat="43.33279" lon="5.77109">
        <ele>714.9</ele>
        <time>2025-10-05T07:28:13Z</time>
      </trkpt>
      <trkpt lat="43.33278" lon="5.77109">
        <ele>715.1</ele>
        <time>2025-10-05T07:28:14Z</time>
      </trkpt>
      <trkpt lat="43.33278" lon="5.77109">
        <ele>715.3</ele>
        <time>2025-10-05T07:28:15Z</time>
      </trkpt>
      <trkpt lat="43.33277" lon="5.7711">
        <ele>715.5</ele>
        <time>2025-10-05T07:28:16Z</time>
      </trkpt>
      <trkpt lat="43.33276" lon="5.7711">
        <ele>715.8</ele>
        <time>2025-10-05T07:28:17Z</time>
      </trkpt>
      <trkpt lat="43.33276" lon="5.77111">
        <ele>716</ele>
        <time>2025-10-05T07:28:18Z</time>
      </trkpt>
      <trkpt lat="43.33275" lon="5.77111">
        <ele>716.2</ele>
        <time>2025-10-05T07:28:19Z</time>
      </trkpt>
      <trkpt lat="43.33274" lon="5.77111">
        <ele>716.3</ele>
        <time>2025-10-05T07:28:20Z</time>
      </trkpt>
      <trkpt lat="43.33274" lon="5.77111">
        <ele>716.5</ele>
        <time>2025-10-05T07:28:21Z</time>
      </trkpt>
      <trkpt lat="43.33273" lon="5.77112">
        <ele>716.8</ele>
        <time>2025-10-05T07:28:22Z</time>
      </trkpt>
      <trkpt lat="43.33273" lon="5.77112">
        <ele>717.1</ele>
        <time>2025-10-05T07:28:23Z</time>
      </trkpt>
      <trkpt lat="43.33272" lon="5.77112">
        <ele>717.3</ele>
        <time>2025-10-05T07:28:24Z</time>
      </trkpt>
      <trkpt lat="43.33271" lon="5.77112">
        <ele>717.5</ele>
        <time>2025-10-05T07:28:25Z</time>
      </trkpt>
      <trkpt lat="43.3327" lon="5.77112">
        <ele>717.5</ele>
        <time>2025-10-05T07:28:26Z</time>
      </trkpt>
      <trkpt lat="43.3327" lon="5.77112">
        <ele>717.6</ele>
        <time>2025-10-05T07:28:27Z</time>
      </trkpt>
      <trkpt lat="43.33269" lon="5.77112">
        <ele>717.7</ele>
        <time>2025-10-05T07:28:28Z</time>
      </trkpt>
      <trkpt lat="43.33268" lon="5.77112">
        <ele>717.9</ele>
        <time>2025-10-05T07:28:29Z</time>
      </trkpt>
      <trkpt lat="43.33267" lon="5.77112">
        <ele>718</ele>
        <time>2025-10-05T07:28:30Z</time>
      </trkpt>
      <trkpt lat="43.33266" lon="5.77112">
        <ele>718.1</ele>
        <time>2025-10-05T07:28:31Z</time>
      </trkpt>
      <trkpt lat="43.33266" lon="5.77112">
        <ele>718.2</ele>
        <time>2025-10-05T07:28:32Z</time>
      </trkpt>
      <trkpt lat="43.33265" lon="5.77112">
        <ele>718.3</ele>
        <time>2025-10-05T07:28:33Z</time>
      </trkpt>
      <trkpt lat="43.33264" lon="5.77112">
        <ele>718.5</ele>
        <time>2025-10-05T07:28:34Z</time>
      </trkpt>
      <trkpt lat="43.33264" lon="5.77112">
        <ele>718.7</ele>
        <time>2025-10-05T07:28:35Z</time>
      </trkpt>
      <trkpt lat="43.33263" lon="5.77112">
        <ele>718.8</ele>
        <time>2025-10-05T07:28:36Z</time>
      </trkpt>
      <trkpt lat="43.33263" lon="5.77111">
        <ele>719.1</ele>
        <time>2025-10-05T07:28:37Z</time>
      </trkpt>
      <trkpt lat="43.33263" lon="5.77111">
        <ele>719.2</ele>
        <time>2025-10-05T07:28:38Z</time>
      </trkpt>
      <trkpt lat="43.33262" lon="5.77111">
        <ele>719.3</ele>
        <time>2025-10-05T07:28:39Z</time>
      </trkpt>
      <trkpt lat="43.33262" lon="5.77111">
        <ele>719.3</ele>
        <time>2025-10-05T07:28:40Z</time>
      </trkpt>
      <trkpt lat="43.33261" lon="5.77111">
        <ele>719.5</ele>
        <time>2025-10-05T07:28:41Z</time>
      </trkpt>
      <trkpt lat="43.33261" lon="5.77111">
        <ele>719.6</ele>
        <time>2025-10-05T07:28:42Z</time>
      </trkpt>
      <trkpt lat="43.3326" lon="5.77111">
        <ele>719.8</ele>
        <time>2025-10-05T07:28:43Z</time>
      </trkpt>
      <trkpt lat="43.33259" lon="5.77111">
        <ele>720</ele>
        <time>2025-10-05T07:28:44Z</time>
      </trkpt>
      <trkpt lat="43.33259" lon="5.77111">
        <ele>720.1</ele>
        <time>2025-10-05T07:28:45Z</time>
      </trkpt>
      <trkpt lat="43.33257" lon="5.77111">
        <ele>720.2</ele>
        <time>2025-10-05T07:28:46Z</time>
      </trkpt>
      <trkpt lat="43.33257" lon="5.77111">
        <ele>720.4</ele>
        <time>2025-10-05T07:28:47Z</time>
      </trkpt>
      <trkpt lat="43.33257" lon="5.77113">
        <ele>720.6</ele>
        <time>2025-10-05T07:28:48Z</time>
      </trkpt>
      <trkpt lat="43.33257" lon="5.77115">
        <ele>720.8</ele>
        <time>2025-10-05T07:28:49Z</time>
      </trkpt>
      <trkpt lat="43.33256" lon="5.77115">
        <ele>721</ele>
        <time>2025-10-05T07:28:50Z</time>
      </trkpt>
      <trkpt lat="43.33256" lon="5.77116">
        <ele>721.2</ele>
        <time>2025-10-05T07:28:51Z</time>
      </trkpt>
      <trkpt lat="43.33255" lon="5.77116">
        <ele>721.3</ele>
        <time>2025-10-05T07:28:52Z</time>
      </trkpt>
      <trkpt lat="43.33255" lon="5.77117">
        <ele>721.4</ele>
        <time>2025-10-05T07:28:53Z</time>
      </trkpt>
      <trkpt lat="43.33254" lon="5.77117">
        <ele>721.5</ele>
        <time>2025-10-05T07:28:54Z</time>
      </trkpt>
      <trkpt lat="43.33254" lon="5.77118">
        <ele>721.6</ele>
        <time>2025-10-05T07:28:55Z</time>
      </trkpt>
      <trkpt lat="43.33254" lon="5.7712">
        <ele>721.6</ele>
        <time>2025-10-05T07:28:56Z</time>
      </trkpt>
      <trkpt lat="43.33254" lon="5.7712">
        <ele>721.7</ele>
        <time>2025-10-05T07:28:57Z</time>
      </trkpt>
      <trkpt lat="43.33252" lon="5.77121">
        <ele>721.8</ele>
        <time>2025-10-05T07:28:58Z</time>
      </trkpt>
      <trkpt lat="43.33252" lon="5.77121">
        <ele>721.9</ele>
        <time>2025-10-05T07:28:59Z</time>
      </trkpt>
      <trkpt lat="43.33251" lon="5.77122">
        <ele>721.9</ele>
        <time>2025-10-05T07:29:00Z</time>
      </trkpt>
      <trkpt lat="43.33251" lon="5.77122">
        <ele>722</ele>
        <time>2025-10-05T07:29:01Z</time>
      </trkpt>
      <trkpt lat="43.33251" lon="5.77123">
        <ele>722.1</ele>
        <time>2025-10-05T07:29:02Z</time>
      </trkpt>
      <trkpt lat="43.3325" lon="5.77124">
        <ele>722.1</ele>
        <time>2025-10-05T07:29:03Z</time>
      </trkpt>
      <trkpt lat="43.3325" lon="5.77125">
        <ele>722.2</ele>
        <time>2025-10-05T07:29:04Z</time>
      </trkpt>
      <trkpt lat="43.3325" lon="5.77125">
        <ele>722.3</ele>
        <time>2025-10-05T07:29:05Z</time>
      </trkpt>
      <trkpt lat="43.3325" lon="5.77126">
        <ele>722.4</ele>
        <time>2025-10-05T07:29:06Z</time>
      </trkpt>
      <trkpt lat="43.33249" lon="5.77127">
        <ele>722.6</ele>
        <time>2025-10-05T07:29:07Z</time>
      </trkpt>
      <trkpt lat="43.33248" lon="5.77128">
        <ele>722.6</ele>
        <time>2025-10-05T07:29:08Z</time>
      </trkpt>
      <trkpt lat="43.33247" lon="5.77129">
        <ele>722.8</ele>
        <time>2025-10-05T07:29:09Z</time>
      </trkpt>
      <trkpt lat="43.33247" lon="5.77129">
        <ele>723</ele>
        <time>2025-10-05T07:29:10Z</time>
      </trkpt>
      <trkpt lat="43.33247" lon="5.7713">
        <ele>723.2</ele>
        <time>2025-10-05T07:29:11Z</time>
      </trkpt>
      <trkpt lat="43.33246" lon="5.7713">
        <ele>723.2</ele>
        <time>2025-10-05T07:29:12Z</time>
      </trkpt>
      <trkpt lat="43.33245" lon="5.7713">
        <ele>723.4</ele>
        <time>2025-10-05T07:29:13Z</time>
      </trkpt>
      <trkpt lat="43.33244" lon="5.77129">
        <ele>723.5</ele>
        <time>2025-10-05T07:29:14Z</time>
      </trkpt>
      <trkpt lat="43.33244" lon="5.77129">
        <ele>723.6</ele>
        <time>2025-10-05T07:29:15Z</time>
      </trkpt>
      <trkpt lat="43.33243" lon="5.77129">
        <ele>723.7</ele>
        <time>2025-10-05T07:29:16Z</time>
      </trkpt>
      <trkpt lat="43.33242" lon="5.7713">
        <ele>723.8</ele>
        <time>2025-10-05T07:29:17Z</time>
      </trkpt>
      <trkpt lat="43.33242" lon="5.7713">
        <ele>723.9</ele>
        <time>2025-10-05T07:29:18Z</time>
      </trkpt>
      <trkpt lat="43.33241" lon="5.77129">
        <ele>724.1</ele>
        <time>2025-10-05T07:29:19Z</time>
      </trkpt>
      <trkpt lat="43.33241" lon="5.77129">
        <ele>724.3</ele>
        <time>2025-10-05T07:29:20Z</time>
      </trkpt>
      <trkpt lat="43.3324" lon="5.77128">
        <ele>724.5</ele>
        <time>2025-10-05T07:29:21Z</time>
      </trkpt>
      <trkpt lat="43.33239" lon="5.77128">
        <ele>724.7</ele>
        <time>2025-10-05T07:29:22Z</time>
      </trkpt>
      <trkpt lat="43.33238" lon="5.77128">
        <ele>724.9</ele>
        <time>2025-10-05T07:29:23Z</time>
      </trkpt>
      <trkpt lat="43.33237" lon="5.77128">
        <ele>725.1</ele>
        <time>2025-10-05T07:29:24Z</time>
      </trkpt>
      <trkpt lat="43.33237" lon="5.77128">
        <ele>725.4</ele>
        <time>2025-10-05T07:29:25Z</time>
      </trkpt>
      <trkpt lat="43.33236" lon="5.77128">
        <ele>725.6</ele>
        <time>2025-10-05T07:29:26Z</time>
      </trkpt>
      <trkpt lat="43.33236" lon="5.77128">
        <ele>725.8</ele>
        <time>2025-10-05T07:29:27Z</time>
      </trkpt>
      <trkpt lat="43.33236" lon="5.77128">
        <ele>725.9</ele>
        <time>2025-10-05T07:29:28Z</time>
      </trkpt>
      <trkpt lat="43.33236" lon="5.77128">
        <ele>726.1</ele>
        <time>2025-10-05T07:29:29Z</time>
      </trkpt>
      <trkpt lat="43.33236" lon="5.77128">
        <ele>726.2</ele>
        <time>2025-10-05T07:29:30Z</time>
      </trkpt>
      <trkpt lat="43.33236" lon="5.77129">
        <ele>726.4</ele>
        <time>2025-10-05T07:29:31Z</time>
      </trkpt>
      <trkpt lat="43.33236" lon="5.77128">
        <ele>726.5</ele>
        <time>2025-10-05T07:29:32Z</time>
      </trkpt>
      <trkpt lat="43.33235" lon="5.77129">
        <ele>726.5</ele>
        <time>2025-10-05T07:29:33Z</time>
      </trkpt>
      <trkpt lat="43.33234" lon="5.77129">
        <ele>726.7</ele>
        <time>2025-10-05T07:29:34Z</time>
      </trkpt>
      <trkpt lat="43.33233" lon="5.77129">
        <ele>726.9</ele>
        <time>2025-10-05T07:29:35Z</time>
      </trkpt>
      <trkpt lat="43.33233" lon="5.7713">
        <ele>727.1</ele>
        <time>2025-10-05T07:29:36Z</time>
      </trkpt>
      <trkpt lat="43.33232" lon="5.7713">
        <ele>727.2</ele>
        <time>2025-10-05T07:29:37Z</time>
      </trkpt>
      <trkpt lat="43.33231" lon="5.7713">
        <ele>727.3</ele>
        <time>2025-10-05T07:29:38Z</time>
      </trkpt>
      <trkpt lat="43.33231" lon="5.77129">
        <ele>727.4</ele>
        <time>2025-10-05T07:29:39Z</time>
      </trkpt>
      <trkpt lat="43.33231" lon="5.7713">
        <ele>727.5</ele>
        <time>2025-10-05T07:29:40Z</time>
      </trkpt>
      <trkpt lat="43.3323" lon="5.7713">
        <ele>727.6</ele>
        <time>2025-10-05T07:29:41Z</time>
      </trkpt>
      <trkpt lat="43.3323" lon="5.7713">
        <ele>727.7</ele>
        <time>2025-10-05T07:29:42Z</time>
      </trkpt>
      <trkpt lat="43.3323" lon="5.7713">
        <ele>727.8</ele>
        <time>2025-10-05T07:29:43Z</time>
      </trkpt>
      <trkpt lat="43.3323" lon="5.7713">
        <ele>727.9</ele>
        <time>2025-10-05T07:29:44Z</time>
      </trkpt>
      <trkpt lat="43.33229" lon="5.7713">
        <ele>728</ele>
        <time>2025-10-05T07:29:45Z</time>
      </trkpt>
      <trkpt lat="43.33228" lon="5.77129">
        <ele>728.1</ele>
        <time>2025-10-05T07:29:46Z</time>
      </trkpt>
      <trkpt lat="43.33228" lon="5.7713">
        <ele>728.4</ele>
        <time>2025-10-05T07:29:47Z</time>
      </trkpt>
      <trkpt lat="43.33228" lon="5.7713">
        <ele>728.5</ele>
        <time>2025-10-05T07:29:48Z</time>
      </trkpt>
      <trkpt lat="43.33227" lon="5.7713">
        <ele>728.7</ele>
        <time>2025-10-05T07:29:49Z</time>
      </trkpt>
      <trkpt lat="43.33226" lon="5.7713">
        <ele>729</ele>
        <time>2025-10-05T07:29:50Z</time>
      </trkpt>
      <trkpt lat="43.33225" lon="5.77132">
        <ele>729.4</ele>
        <time>2025-10-05T07:29:51Z</time>
      </trkpt>
      <trkpt lat="43.33224" lon="5.77133">
        <ele>729.7</ele>
        <time>2025-10-05T07:29:52Z</time>
      </trkpt>
      <trkpt lat="43.33223" lon="5.77133">
        <ele>730.1</ele>
        <time>2025-10-05T07:29:53Z</time>
      </trkpt>
      <trkpt lat="43.33222" lon="5.77135">
        <ele>730.4</ele>
        <time>2025-10-05T07:29:54Z</time>
      </trkpt>
      <trkpt lat="43.33222" lon="5.77135">
        <ele>730.8</ele>
        <time>2025-10-05T07:29:55Z</time>
      </trkpt>
      <trkpt lat="43.33221" lon="5.77136">
        <ele>731</ele>
        <time>2025-10-05T07:29:56Z</time>
      </trkpt>
      <trkpt lat="43.33221" lon="5.77136">
        <ele>731.2</ele>
        <time>2025-10-05T07:29:57Z</time>
      </trkpt>
      <trkpt lat="43.3322" lon="5.77137">
        <ele>731.4</ele>
        <time>2025-10-05T07:29:58Z</time>
      </trkpt>
      <trkpt lat="43.3322" lon="5.77137">
        <ele>731.5</ele>
        <time>2025-10-05T07:29:59Z</time>
      </trkpt>
      <trkpt lat="43.33219" lon="5.77138">
        <ele>731.7</ele>
        <time>2025-10-05T07:30:00Z</time>
      </trkpt>
      <trkpt lat="43.33218" lon="5.77138">
        <ele>731.8</ele>
        <time>2025-10-05T07:30:01Z</time>
      </trkpt>
      <trkpt lat="43.33217" lon="5.77138">
        <ele>731.9</ele>
        <time>2025-10-05T07:30:02Z</time>
      </trkpt>
      <trkpt lat="43.33216" lon="5.77139">
        <ele>732.1</ele>
        <time>2025-10-05T07:30:03Z</time>
      </trkpt>
      <trkpt lat="43.33215" lon="5.77139">
        <ele>732.3</ele>
        <time>2025-10-05T07:30:04Z</time>
      </trkpt>
      <trkpt lat="43.33215" lon="5.77139">
        <ele>732.4</ele>
        <time>2025-10-05T07:30:05Z</time>
      </trkpt>
      <trkpt lat="43.33214" lon="5.77139">
        <ele>732.5</ele>
        <time>2025-10-05T07:30:06Z</time>
      </trkpt>
      <trkpt lat="43.33213" lon="5.7714">
        <ele>732.6</ele>
        <time>2025-10-05T07:30:07Z</time>
      </trkpt>
      <trkpt lat="43.33213" lon="5.7714">
        <ele>732.7</ele>
        <time>2025-10-05T07:30:08Z</time>
      </trkpt>
      <trkpt lat="43.33212" lon="5.7714">
        <ele>732.8</ele>
        <time>2025-10-05T07:30:09Z</time>
      </trkpt>
      <trkpt lat="43.33211" lon="5.77141">
        <ele>733</ele>
        <time>2025-10-05T07:30:10Z</time>
      </trkpt>
      <trkpt lat="43.33211" lon="5.77141">
        <ele>733.1</ele>
        <time>2025-10-05T07:30:11Z</time>
      </trkpt>
      <trkpt lat="43.3321" lon="5.77142">
        <ele>733.1</ele>
        <time>2025-10-05T07:30:12Z</time>
      </trkpt>
      <trkpt lat="43.3321" lon="5.77143">
        <ele>733.1</ele>
        <time>2025-10-05T07:30:13Z</time>
      </trkpt>
      <trkpt lat="43.33209" lon="5.77143">
        <ele>733.1</ele>
        <time>2025-10-05T07:30:14Z</time>
      </trkpt>
      <trkpt lat="43.33209" lon="5.77143">
        <ele>733.1</ele>
        <time>2025-10-05T07:30:15Z</time>
      </trkpt>
      <trkpt lat="43.33208" lon="5.77143">
        <ele>733.2</ele>
        <time>2025-10-05T07:30:16Z</time>
      </trkpt>
      <trkpt lat="43.33207" lon="5.77143">
        <ele>733.2</ele>
        <time>2025-10-05T07:30:17Z</time>
      </trkpt>
      <trkpt lat="43.33206" lon="5.77143">
        <ele>733.3</ele>
        <time>2025-10-05T07:30:18Z</time>
      </trkpt>
      <trkpt lat="43.33205" lon="5.77144">
        <ele>733.3</ele>
        <time>2025-10-05T07:30:19Z</time>
      </trkpt>
      <trkpt lat="43.33204" lon="5.77146">
        <ele>733.3</ele>
        <time>2025-10-05T07:30:20Z</time>
      </trkpt>
      <trkpt lat="43.33203" lon="5.77146">
        <ele>733.6</ele>
        <time>2025-10-05T07:30:21Z</time>
      </trkpt>
      <trkpt lat="43.33203" lon="5.77147">
        <ele>733.8</ele>
        <time>2025-10-05T07:30:22Z</time>
      </trkpt>
      <trkpt lat="43.33202" lon="5.77147">
        <ele>734</ele>
        <time>2025-10-05T07:30:23Z</time>
      </trkpt>
      <trkpt lat="43.33201" lon="5.77148">
        <ele>734.2</ele>
        <time>2025-10-05T07:30:24Z</time>
      </trkpt>
      <trkpt lat="43.332" lon="5.77148">
        <ele>734.4</ele>
        <time>2025-10-05T07:30:25Z</time>
      </trkpt>
      <trkpt lat="43.33199" lon="5.77149">
        <ele>734.7</ele>
        <time>2025-10-05T07:30:26Z</time>
      </trkpt>
      <trkpt lat="43.33199" lon="5.77149">
        <ele>734.8</ele>
        <time>2025-10-05T07:30:27Z</time>
      </trkpt>
      <trkpt lat="43.33198" lon="5.77149">
        <ele>735</ele>
        <time>2025-10-05T07:30:28Z</time>
      </trkpt>
      <trkpt lat="43.33197" lon="5.77149">
        <ele>735.2</ele>
        <time>2025-10-05T07:30:29Z</time>
      </trkpt>
      <trkpt lat="43.33197" lon="5.7715">
        <ele>735.4</ele>
        <time>2025-10-05T07:30:30Z</time>
      </trkpt>
      <trkpt lat="43.33196" lon="5.7715">
        <ele>735.6</ele>
        <time>2025-10-05T07:30:31Z</time>
      </trkpt>
      <trkpt lat="43.33196" lon="5.7715">
        <ele>735.7</ele>
        <time>2025-10-05T07:30:32Z</time>
      </trkpt>
      <trkpt lat="43.33195" lon="5.77151">
        <ele>735.9</ele>
        <time>2025-10-05T07:30:33Z</time>
      </trkpt>
      <trkpt lat="43.33194" lon="5.77152">
        <ele>736</ele>
        <time>2025-10-05T07:30:34Z</time>
      </trkpt>
      <trkpt lat="43.33194" lon="5.77152">
        <ele>736.2</ele>
        <time>2025-10-05T07:30:35Z</time>
      </trkpt>
      <trkpt lat="43.33193" lon="5.77152">
        <ele>736.5</ele>
        <time>2025-10-05T07:30:36Z</time>
      </trkpt>
      <trkpt lat="43.33193" lon="5.77153">
        <ele>736.8</ele>
        <time>2025-10-05T07:30:37Z</time>
      </trkpt>
      <trkpt lat="43.33192" lon="5.77154">
        <ele>737</ele>
        <time>2025-10-05T07:30:38Z</time>
      </trkpt>
      <trkpt lat="43.33191" lon="5.77155">
        <ele>737.3</ele>
        <time>2025-10-05T07:30:39Z</time>
      </trkpt>
      <trkpt lat="43.33191" lon="5.77156">
        <ele>737.5</ele>
        <time>2025-10-05T07:30:40Z</time>
      </trkpt>
      <trkpt lat="43.3319" lon="5.77157">
        <ele>737.7</ele>
        <time>2025-10-05T07:30:41Z</time>
      </trkpt>
      <trkpt lat="43.3319" lon="5.77157">
        <ele>737.9</ele>
        <time>2025-10-05T07:30:42Z</time>
      </trkpt>
      <trkpt lat="43.3319" lon="5.77158">
        <ele>738</ele>
        <time>2025-10-05T07:30:43Z</time>
      </trkpt>
      <trkpt lat="43.33189" lon="5.77159">
        <ele>738.3</ele>
        <time>2025-10-05T07:30:44Z</time>
      </trkpt>
      <trkpt lat="43.33189" lon="5.77159">
        <ele>738.5</ele>
        <time>2025-10-05T07:30:45Z</time>
      </trkpt>
      <trkpt lat="43.33188" lon="5.77159">
        <ele>738.6</ele>
        <time>2025-10-05T07:30:46Z</time>
      </trkpt>
      <trkpt lat="43.33188" lon="5.77161">
        <ele>738.8</ele>
        <time>2025-10-05T07:30:47Z</time>
      </trkpt>
      <trkpt lat="43.33188" lon="5.77162">
        <ele>738.9</ele>
        <time>2025-10-05T07:30:48Z</time>
      </trkpt>
      <trkpt lat="43.33188" lon="5.77163">
        <ele>739.2</ele>
        <time>2025-10-05T07:30:49Z</time>
      </trkpt>
      <trkpt lat="43.33187" lon="5.77164">
        <ele>739.3</ele>
        <time>2025-10-05T07:30:50Z</time>
      </trkpt>
      <trkpt lat="43.33186" lon="5.77165">
        <ele>739.4</ele>
        <time>2025-10-05T07:30:51Z</time>
      </trkpt>
      <trkpt lat="43.33186" lon="5.77166">
        <ele>739.6</ele>
        <time>2025-10-05T07:30:52Z</time>
      </trkpt>
      <trkpt lat="43.33186" lon="5.77167">
        <ele>739.7</ele>
        <time>2025-10-05T07:30:53Z</time>
      </trkpt>
      <trkpt lat="43.33186" lon="5.77167">
        <ele>739.9</ele>
        <time>2025-10-05T07:30:54Z</time>
      </trkpt>
      <trkpt lat="43.33186" lon="5.77168">
        <ele>740</ele>
        <time>2025-10-05T07:30:55Z</time>
      </trkpt>
      <trkpt lat="43.33186" lon="5.77169">
        <ele>740</ele>
        <time>2025-10-05T07:30:56Z</time>
      </trkpt>
      <trkpt lat="43.33186" lon="5.7717">
        <ele>740.2</ele>
        <time>2025-10-05T07:30:57Z</time>
      </trkpt>
      <trkpt lat="43.33185" lon="5.77171">
        <ele>740.2</ele>
        <time>2025-10-05T07:30:58Z</time>
      </trkpt>
      <trkpt lat="43.33185" lon="5.77173">
        <ele>740.3</ele>
        <time>2025-10-05T07:30:59Z</time>
      </trkpt>
      <trkpt lat="43.33185" lon="5.77174">
        <ele>740.4</ele>
        <time>2025-10-05T07:31:00Z</time>
      </trkpt>
      <trkpt lat="43.33185" lon="5.77174">
        <ele>740.5</ele>
        <time>2025-10-05T07:31:01Z</time>
      </trkpt>
      <trkpt lat="43.33185" lon="5.77175">
        <ele>740.6</ele>
        <time>2025-10-05T07:31:02Z</time>
      </trkpt>
      <trkpt lat="43.33185" lon="5.77175">
        <ele>740.7</ele>
        <time>2025-10-05T07:31:03Z</time>
      </trkpt>
      <trkpt lat="43.33184" lon="5.77176">
        <ele>740.6</ele>
        <time>2025-10-05T07:31:04Z</time>
      </trkpt>
      <trkpt lat="43.33185" lon="5.77176">
        <ele>740.7</ele>
        <time>2025-10-05T07:31:05Z</time>
      </trkpt>
      <trkpt lat="43.33184" lon="5.77177">
        <ele>740.8</ele>
        <time>2025-10-05T07:31:06Z</time>
      </trkpt>
      <trkpt lat="43.33182" lon="5.77177">
        <ele>740.9</ele>
        <time>2025-10-05T07:31:07Z</time>
      </trkpt>
      <trkpt lat="43.33182" lon="5.77178">
        <ele>741</ele>
        <time>2025-10-05T07:31:08Z</time>
      </trkpt>
      <trkpt lat="43.33181" lon="5.77178">
        <ele>741.2</ele>
        <time>2025-10-05T07:31:09Z</time>
      </trkpt>
      <trkpt lat="43.33181" lon="5.77179">
        <ele>741.3</ele>
        <time>2025-10-05T07:31:10Z</time>
      </trkpt>
      <trkpt lat="43.33181" lon="5.77179">
        <ele>741.4</ele>
        <time>2025-10-05T07:31:11Z</time>
      </trkpt>
      <trkpt lat="43.33181" lon="5.7718">
        <ele>741.6</ele>
        <time>2025-10-05T07:31:12Z</time>
      </trkpt>
      <trkpt lat="43.33181" lon="5.77181">
        <ele>741.9</ele>
        <time>2025-10-05T07:31:13Z</time>
      </trkpt>
      <trkpt lat="43.33181" lon="5.77181">
        <ele>742.2</ele>
        <time>2025-10-05T07:31:14Z</time>
      </trkpt>
      <trkpt lat="43.33181" lon="5.77182">
        <ele>742.4</ele>
        <time>2025-10-05T07:31:15Z</time>
      </trkpt>
      <trkpt lat="43.3318" lon="5.77184">
        <ele>742.6</ele>
        <time>2025-10-05T07:31:16Z</time>
      </trkpt>
      <trkpt lat="43.3318" lon="5.77185">
        <ele>742.7</ele>
        <time>2025-10-05T07:31:17Z</time>
      </trkpt>
      <trkpt lat="43.33179" lon="5.77185">
        <ele>742.9</ele>
        <time>2025-10-05T07:31:18Z</time>
      </trkpt>
      <trkpt lat="43.33179" lon="5.77186">
        <ele>743.1</ele>
        <time>2025-10-05T07:31:19Z</time>
      </trkpt>
      <trkpt lat="43.33178" lon="5.77186">
        <ele>743.3</ele>
        <time>2025-10-05T07:31:20Z</time>
      </trkpt>
      <trkpt lat="43.33178" lon="5.77187">
        <ele>743.4</ele>
        <time>2025-10-05T07:31:21Z</time>
      </trkpt>
      <trkpt lat="43.33178" lon="5.77188">
        <ele>743.6</ele>
        <time>2025-10-05T07:31:22Z</time>
      </trkpt>
      <trkpt lat="43.33178" lon="5.77188">
        <ele>743.8</ele>
        <time>2025-10-05T07:31:23Z</time>
      </trkpt>
      <trkpt lat="43.33177" lon="5.77189">
        <ele>743.9</ele>
        <time>2025-10-05T07:31:24Z</time>
      </trkpt>
      <trkpt lat="43.33176" lon="5.77189">
        <ele>744</ele>
        <time>2025-10-05T07:31:25Z</time>
      </trkpt>
      <trkpt lat="43.33176" lon="5.7719">
        <ele>744.2</ele>
        <time>2025-10-05T07:31:26Z</time>
      </trkpt>
      <trkpt lat="43.33175" lon="5.7719">
        <ele>744.5</ele>
        <time>2025-10-05T07:31:27Z</time>
      </trkpt>
      <trkpt lat="43.33175" lon="5.77191">
        <ele>744.7</ele>
        <time>2025-10-05T07:31:28Z</time>
      </trkpt>
      <trkpt lat="43.33174" lon="5.77193">
        <ele>744.8</ele>
        <time>2025-10-05T07:31:29Z</time>
      </trkpt>
      <trkpt lat="43.33174" lon="5.77194">
        <ele>745</ele>
        <time>2025-10-05T07:31:30Z</time>
      </trkpt>
      <trkpt lat="43.33173" lon="5.77195">
        <ele>745.2</ele>
        <time>2025-10-05T07:31:31Z</time>
      </trkpt>
      <trkpt lat="43.33173" lon="5.77196">
        <ele>745.3</ele>
        <time>2025-10-05T07:31:32Z</time>
      </trkpt>
      <trkpt lat="43.33173" lon="5.77197">
        <ele>745.5</ele>
        <time>2025-10-05T07:31:33Z</time>
      </trkpt>
      <trkpt lat="43.33173" lon="5.77197">
        <ele>745.7</ele>
        <time>2025-10-05T07:31:34Z</time>
      </trkpt>
      <trkpt lat="43.33173" lon="5.77198">
        <ele>746</ele>
        <time>2025-10-05T07:31:35Z</time>
      </trkpt>
      <trkpt lat="43.33173" lon="5.77199">
        <ele>746.1</ele>
        <time>2025-10-05T07:31:36Z</time>
      </trkpt>
      <trkpt lat="43.33172" lon="5.772">
        <ele>746.3</ele>
        <time>2025-10-05T07:31:37Z</time>
      </trkpt>
      <trkpt lat="43.33172" lon="5.77202">
        <ele>746.6</ele>
        <time>2025-10-05T07:31:38Z</time>
      </trkpt>
      <trkpt lat="43.33172" lon="5.77203">
        <ele>746.7</ele>
        <time>2025-10-05T07:31:39Z</time>
      </trkpt>
      <trkpt lat="43.33172" lon="5.77204">
        <ele>746.8</ele>
        <time>2025-10-05T07:31:40Z</time>
      </trkpt>
      <trkpt lat="43.33172" lon="5.77204">
        <ele>746.9</ele>
        <time>2025-10-05T07:31:41Z</time>
      </trkpt>
      <trkpt lat="43.33173" lon="5.77203">
        <ele>747.1</ele>
        <time>2025-10-05T07:31:42Z</time>
      </trkpt>
      <trkpt lat="43.33174" lon="5.77202">
        <ele>747.3</ele>
        <time>2025-10-05T07:31:43Z</time>
      </trkpt>
      <trkpt lat="43.33175" lon="5.77202">
        <ele>747.5</ele>
        <time>2025-10-05T07:31:44Z</time>
      </trkpt>
      <trkpt lat="43.33174" lon="5.77202">
        <ele>747.6</ele>
        <time>2025-10-05T07:31:45Z</time>
      </trkpt>
      <trkpt lat="43.33174" lon="5.77203">
        <ele>747.6</ele>
        <time>2025-10-05T07:31:46Z</time>
      </trkpt>
      <trkpt lat="43.33173" lon="5.77203">
        <ele>747.6</ele>
        <time>2025-10-05T07:31:47Z</time>
      </trkpt>
      <trkpt lat="43.33172" lon="5.77204">
        <ele>747.7</ele>
        <time>2025-10-05T07:31:48Z</time>
      </trkpt>
      <trkpt lat="43.33171" lon="5.77205">
        <ele>747.7</ele>
        <time>2025-10-05T07:31:49Z</time>
      </trkpt>
      <trkpt lat="43.3317" lon="5.77206">
        <ele>747.9</ele>
        <time>2025-10-05T07:31:50Z</time>
      </trkpt>
      <trkpt lat="43.3317" lon="5.77207">
        <ele>748.1</ele>
        <time>2025-10-05T07:31:51Z</time>
      </trkpt>
      <trkpt lat="43.33169" lon="5.77206">
        <ele>748.2</ele>
        <time>2025-10-05T07:31:52Z</time>
      </trkpt>
      <trkpt lat="43.33168" lon="5.77207">
        <ele>748.5</ele>
        <time>2025-10-05T07:31:53Z</time>
      </trkpt>
      <trkpt lat="43.33167" lon="5.77208">
        <ele>748.6</ele>
        <time>2025-10-05T07:31:54Z</time>
      </trkpt>
      <trkpt lat="43.33166" lon="5.77209">
        <ele>748.7</ele>
        <time>2025-10-05T07:31:55Z</time>
      </trkpt>
      <trkpt lat="43.33166" lon="5.77209">
        <ele>748.9</ele>
        <time>2025-10-05T07:31:56Z</time>
      </trkpt>
      <trkpt lat="43.33165" lon="5.77211">
        <ele>749.1</ele>
        <time>2025-10-05T07:31:57Z</time>
      </trkpt>
      <trkpt lat="43.33165" lon="5.77212">
        <ele>749.4</ele>
        <time>2025-10-05T07:31:58Z</time>
      </trkpt>
      <trkpt lat="43.33165" lon="5.77213">
        <ele>749.5</ele>
        <time>2025-10-05T07:31:59Z</time>
      </trkpt>
      <trkpt lat="43.33164" lon="5.77213">
        <ele>749.7</ele>
        <time>2025-10-05T07:32:00Z</time>
      </trkpt>
      <trkpt lat="43.33164" lon="5.77213">
        <ele>749.8</ele>
        <time>2025-10-05T07:32:01Z</time>
      </trkpt>
      <trkpt lat="43.33163" lon="5.77214">
        <ele>750</ele>
        <time>2025-10-05T07:32:02Z</time>
      </trkpt>
      <trkpt lat="43.33162" lon="5.77215">
        <ele>750.2</ele>
        <time>2025-10-05T07:32:03Z</time>
      </trkpt>
      <trkpt lat="43.33162" lon="5.77216">
        <ele>750.4</ele>
        <time>2025-10-05T07:32:04Z</time>
      </trkpt>
      <trkpt lat="43.33161" lon="5.77216">
        <ele>750.5</ele>
        <time>2025-10-05T07:32:05Z</time>
      </trkpt>
      <trkpt lat="43.33161" lon="5.77217">
        <ele>750.8</ele>
        <time>2025-10-05T07:32:06Z</time>
      </trkpt>
      <trkpt lat="43.3316" lon="5.77218">
        <ele>751</ele>
        <time>2025-10-05T07:32:07Z</time>
      </trkpt>
      <trkpt lat="43.3316" lon="5.77219">
        <ele>751.1</ele>
        <time>2025-10-05T07:32:08Z</time>
      </trkpt>
      <trkpt lat="43.33159" lon="5.7722">
        <ele>751.2</ele>
        <time>2025-10-05T07:32:09Z</time>
      </trkpt>
      <trkpt lat="43.33159" lon="5.7722">
        <ele>751.3</ele>
        <time>2025-10-05T07:32:10Z</time>
      </trkpt>
      <trkpt lat="43.33159" lon="5.7722">
        <ele>751.4</ele>
        <time>2025-10-05T07:32:11Z</time>
      </trkpt>
      <trkpt lat="43.33159" lon="5.77221">
        <ele>751.5</ele>
        <time>2025-10-05T07:32:12Z</time>
      </trkpt>
      <trkpt lat="43.33159" lon="5.77222">
        <ele>751.5</ele>
        <time>2025-10-05T07:32:13Z</time>
      </trkpt>
      <trkpt lat="43.33158" lon="5.77223">
        <ele>751.6</ele>
        <time>2025-10-05T07:32:14Z</time>
      </trkpt>
      <trkpt lat="43.33159" lon="5.77224">
        <ele>751.8</ele>
        <time>2025-10-05T07:32:15Z</time>
      </trkpt>
      <trkpt lat="43.33159" lon="5.77227">
        <ele>752</ele>
        <time>2025-10-05T07:32:16Z</time>
      </trkpt>
      <trkpt lat="43.33159" lon="5.77228">
        <ele>752.2</ele>
        <time>2025-10-05T07:32:17Z</time>
      </trkpt>
      <trkpt lat="43.3316" lon="5.7723">
        <ele>752.4</ele>
        <time>2025-10-05T07:32:18Z</time>
      </trkpt>
      <trkpt lat="43.33159" lon="5.77232">
        <ele>752.6</ele>
        <time>2025-10-05T07:32:19Z</time>
      </trkpt>
      <trkpt lat="43.33159" lon="5.77233">
        <ele>752.9</ele>
        <time>2025-10-05T07:32:20Z</time>
      </trkpt>
      <trkpt lat="43.3316" lon="5.77235">
        <ele>753.1</ele>
        <time>2025-10-05T07:32:21Z</time>
      </trkpt>
      <trkpt lat="43.33159" lon="5.77237">
        <ele>753.2</ele>
        <time>2025-10-05T07:32:22Z</time>
      </trkpt>
      <trkpt lat="43.33159" lon="5.77238">
        <ele>753.3</ele>
        <time>2025-10-05T07:32:23Z</time>
      </trkpt>
      <trkpt lat="43.33159" lon="5.7724">
        <ele>753.4</ele>
        <time>2025-10-05T07:32:24Z</time>
      </trkpt>
      <trkpt lat="43.33159" lon="5.77242">
        <ele>753.4</ele>
        <time>2025-10-05T07:32:25Z</time>
      </trkpt>
      <trkpt lat="43.33159" lon="5.77242">
        <ele>753.4</ele>
        <time>2025-10-05T07:32:26Z</time>
      </trkpt>
      <trkpt lat="43.33159" lon="5.77243">
        <ele>753.5</ele>
        <time>2025-10-05T07:32:27Z</time>
      </trkpt>
      <trkpt lat="43.33158" lon="5.77244">
        <ele>753.5</ele>
        <time>2025-10-05T07:32:28Z</time>
      </trkpt>
      <trkpt lat="43.33158" lon="5.77245">
        <ele>753.5</ele>
        <time>2025-10-05T07:32:29Z</time>
      </trkpt>
      <trkpt lat="43.33158" lon="5.77246">
        <ele>753.6</ele>
        <time>2025-10-05T07:32:30Z</time>
      </trkpt>
      <trkpt lat="43.33158" lon="5.77246">
        <ele>753.7</ele>
        <time>2025-10-05T07:32:31Z</time>
      </trkpt>
      <trkpt lat="43.33158" lon="5.77247">
        <ele>753.7</ele>
        <time>2025-10-05T07:32:32Z</time>
      </trkpt>
      <trkpt lat="43.33158" lon="5.77247">
        <ele>753.7</ele>
        <time>2025-10-05T07:32:33Z</time>
      </trkpt>
      <trkpt lat="43.33158" lon="5.77247">
        <ele>753.7</ele>
        <time>2025-10-05T07:32:34Z</time>
      </trkpt>
      <trkpt lat="43.33158" lon="5.77247">
        <ele>753.7</ele>
        <time>2025-10-05T07:32:35Z</time>
      </trkpt>
      <trkpt lat="43.33159" lon="5.77247">
        <ele>753.7</ele>
        <time>2025-10-05T07:32:36Z</time>
      </trkpt>
      <trkpt lat="43.33159" lon="5.77247">
        <ele>753.7</ele>
        <time>2025-10-05T07:32:37Z</time>
      </trkpt>
      <trkpt lat="43.33159" lon="5.77248">
        <ele>753.6</ele>
        <time>2025-10-05T07:32:38Z</time>
      </trkpt>
      <trkpt lat="43.33159" lon="5.77248">
        <ele>753.6</ele>
        <time>2025-10-05T07:32:39Z</time>
      </trkpt>
      <trkpt lat="43.33159" lon="5.77249">
        <ele>753.5</ele>
        <time>2025-10-05T07:32:40Z</time>
      </trkpt>
      <trkpt lat="43.33159" lon="5.7725">
        <ele>753.5</ele>
        <time>2025-10-05T07:32:41Z</time>
      </trkpt>
      <trkpt lat="43.33159" lon="5.7725">
        <ele>753.4</ele>
        <time>2025-10-05T07:32:42Z</time>
      </trkpt>
      <trkpt lat="43.33159" lon="5.7725">
        <ele>753.4</ele>
        <time>2025-10-05T07:32:43Z</time>
      </trkpt>
      <trkpt lat="43.33159" lon="5.7725">
        <ele>753.3</ele>
        <time>2025-10-05T07:32:44Z</time>
      </trkpt>
      <trkpt lat="43.33159" lon="5.7725">
        <ele>753.3</ele>
        <time>2025-10-05T07:32:45Z</time>
      </trkpt>
      <trkpt lat="43.33159" lon="5.7725">
        <ele>753.2</ele>
        <time>2025-10-05T07:32:46Z</time>
      </trkpt>
      <trkpt lat="43.33159" lon="5.77251">
        <ele>753.2</ele>
        <time>2025-10-05T07:32:47Z</time>
      </trkpt>
      <trkpt lat="43.33159" lon="5.77251">
        <ele>753.2</ele>
        <time>2025-10-05T07:32:48Z</time>
      </trkpt>
      <trkpt lat="43.33158" lon="5.77251">
        <ele>753.2</ele>
        <time>2025-10-05T07:32:49Z</time>
      </trkpt>
      <trkpt lat="43.33158" lon="5.77251">
        <ele>753.2</ele>
        <time>2025-10-05T07:32:50Z</time>
      </trkpt>
      <trkpt lat="43.33158" lon="5.77252">
        <ele>753.2</ele>
        <time>2025-10-05T07:32:51Z</time>
      </trkpt>
      <trkpt lat="43.33158" lon="5.77252">
        <ele>753.2</ele>
        <time>2025-10-05T07:32:52Z</time>
      </trkpt>
      <trkpt lat="43.33158" lon="5.77251">
        <ele>753.2</ele>
        <time>2025-10-05T07:32:53Z</time>
      </trkpt>
      <trkpt lat="43.33158" lon="5.77251">
        <ele>753.1</ele>
        <time>2025-10-05T07:32:54Z</time>
      </trkpt>
      <trkpt lat="43.33158" lon="5.77251">
        <ele>753</ele>
        <time>2025-10-05T07:32:55Z</time>
      </trkpt>
      <trkpt lat="43.33159" lon="5.77251">
        <ele>753</ele>
        <time>2025-10-05T07:32:56Z</time>
      </trkpt>
      <trkpt lat="43.33159" lon="5.77251">
        <ele>753</ele>
        <time>2025-10-05T07:32:57Z</time>
      </trkpt>
      <trkpt lat="43.33158" lon="5.77251">
        <ele>753.1</ele>
        <time>2025-10-05T07:32:58Z</time>
      </trkpt>
      <trkpt lat="43.33159" lon="5.77251">
        <ele>753.1</ele>
        <time>2025-10-05T07:32:59Z</time>
      </trkpt>
      <trkpt lat="43.33159" lon="5.77251">
        <ele>753.2</ele>
        <time>2025-10-05T07:33:00Z</time>
      </trkpt>
      <trkpt lat="43.33159" lon="5.77252">
        <ele>753.2</ele>
        <time>2025-10-05T07:33:01Z</time>
      </trkpt>
      <trkpt lat="43.33159" lon="5.77252">
        <ele>753.2</ele>
        <time>2025-10-05T07:33:02Z</time>
      </trkpt>
      <trkpt lat="43.33159" lon="5.77252">
        <ele>753.3</ele>
        <time>2025-10-05T07:33:03Z</time>
      </trkpt>
      <trkpt lat="43.33159" lon="5.77252">
        <ele>753.3</ele>
        <time>2025-10-05T07:33:04Z</time>
      </trkpt>
      <trkpt lat="43.33158" lon="5.77252">
        <ele>753.4</ele>
        <time>2025-10-05T07:33:05Z</time>
      </trkpt>
      <trkpt lat="43.33158" lon="5.77252">
        <ele>753.4</ele>
        <time>2025-10-05T07:33:06Z</time>
      </trkpt>
      <trkpt lat="43.33158" lon="5.77252">
        <ele>753.5</ele>
        <time>2025-10-05T07:33:07Z</time>
      </trkpt>
      <trkpt lat="43.33158" lon="5.77252">
        <ele>753.4</ele>
        <time>2025-10-05T07:33:08Z</time>
      </trkpt>
      <trkpt lat="43.33159" lon="5.77252">
        <ele>753.4</ele>
        <time>2025-10-05T07:33:09Z</time>
      </trkpt>
      <trkpt lat="43.33159" lon="5.77252">
        <ele>753.3</ele>
        <time>2025-10-05T07:33:10Z</time>
      </trkpt>
      <trkpt lat="43.33159" lon="5.77252">
        <ele>753.2</ele>
        <time>2025-10-05T07:33:11Z</time>
      </trkpt>
      <trkpt lat="43.33159" lon="5.77253">
        <ele>753.1</ele>
        <time>2025-10-05T07:33:12Z</time>
      </trkpt>
      <trkpt lat="43.33159" lon="5.77253">
        <ele>753</ele>
        <time>2025-10-05T07:33:13Z</time>
      </trkpt>
      <trkpt lat="43.33158" lon="5.77254">
        <ele>752.9</ele>
        <time>2025-10-05T07:33:14Z</time>
      </trkpt>
      <trkpt lat="43.33157" lon="5.77254">
        <ele>752.8</ele>
        <time>2025-10-05T07:33:15Z</time>
      </trkpt>
      <trkpt lat="43.33157" lon="5.77254">
        <ele>752.8</ele>
        <time>2025-10-05T07:33:16Z</time>
      </trkpt>
      <trkpt lat="43.33157" lon="5.77254">
        <ele>753</ele>
        <time>2025-10-05T07:33:17Z</time>
      </trkpt>
      <trkpt lat="43.33157" lon="5.77254">
        <ele>753.1</ele>
        <time>2025-10-05T07:33:18Z</time>
      </trkpt>
      <trkpt lat="43.33158" lon="5.77254">
        <ele>753.2</ele>
        <time>2025-10-05T07:33:19Z</time>
      </trkpt>
      <trkpt lat="43.33158" lon="5.77254">
        <ele>753.2</ele>
        <time>2025-10-05T07:33:20Z</time>
      </trkpt>
      <trkpt lat="43.33158" lon="5.77254">
        <ele>753.2</ele>
        <time>2025-10-05T07:33:21Z</time>
      </trkpt>
      <trkpt lat="43.33158" lon="5.77254">
        <ele>753.2</ele>
        <time>2025-10-05T07:33:22Z</time>
      </trkpt>
      <trkpt lat="43.33158" lon="5.77254">
        <ele>753.2</ele>
        <time>2025-10-05T07:33:23Z</time>
      </trkpt>
      <trkpt lat="43.33158" lon="5.77255">
        <ele>753.2</ele>
        <time>2025-10-05T07:33:24Z</time>
      </trkpt>
      <trkpt lat="43.33157" lon="5.77255">
        <ele>753.2</ele>
        <time>2025-10-05T07:33:25Z</time>
      </trkpt>
      <trkpt lat="43.33156" lon="5.77255">
        <ele>753.1</ele>
        <time>2025-10-05T07:33:26Z</time>
      </trkpt>
      <trkpt lat="43.33157" lon="5.77255">
        <ele>753.1</ele>
        <time>2025-10-05T07:33:27Z</time>
      </trkpt>
      <trkpt lat="43.33157" lon="5.77255">
        <ele>753.1</ele>
        <time>2025-10-05T07:33:28Z</time>
      </trkpt>
      <trkpt lat="43.33157" lon="5.77255">
        <ele>753.1</ele>
        <time>2025-10-05T07:33:29Z</time>
      </trkpt>
      <trkpt lat="43.33157" lon="5.77255">
        <ele>753.1</ele>
        <time>2025-10-05T07:33:30Z</time>
      </trkpt>
      <trkpt lat="43.33158" lon="5.77255">
        <ele>753.1</ele>
        <time>2025-10-05T07:33:31Z</time>
      </trkpt>
      <trkpt lat="43.33159" lon="5.77254">
        <ele>753.1</ele>
        <time>2025-10-05T07:33:32Z</time>
      </trkpt>
      <trkpt lat="43.33159" lon="5.77254">
        <ele>753.1</ele>
        <time>2025-10-05T07:33:33Z</time>
      </trkpt>
      <trkpt lat="43.33159" lon="5.77254">
        <ele>753.1</ele>
        <time>2025-10-05T07:33:34Z</time>
      </trkpt>
      <trkpt lat="43.33159" lon="5.77254">
        <ele>753.1</ele>
        <time>2025-10-05T07:33:35Z</time>
      </trkpt>
      <trkpt lat="43.33159" lon="5.77254">
        <ele>753.1</ele>
        <time>2025-10-05T07:33:36Z</time>
      </trkpt>
      <trkpt lat="43.33159" lon="5.77254">
        <ele>753.1</ele>
        <time>2025-10-05T07:33:37Z</time>
      </trkpt>
      <trkpt lat="43.33158" lon="5.77255">
        <ele>753.1</ele>
        <time>2025-10-05T07:33:38Z</time>
      </trkpt>
      <trkpt lat="43.33159" lon="5.77255">
        <ele>753.1</ele>
        <time>2025-10-05T07:33:39Z</time>
      </trkpt>
      <trkpt lat="43.33159" lon="5.77254">
        <ele>753.2</ele>
        <time>2025-10-05T07:33:40Z</time>
      </trkpt>
      <trkpt lat="43.33158" lon="5.77254">
        <ele>753.2</ele>
        <time>2025-10-05T07:33:41Z</time>
      </trkpt>
      <trkpt lat="43.33158" lon="5.77254">
        <ele>753.3</ele>
        <time>2025-10-05T07:33:42Z</time>
      </trkpt>
      <trkpt lat="43.33158" lon="5.77254">
        <ele>753.3</ele>
        <time>2025-10-05T07:33:43Z</time>
      </trkpt>
      <trkpt lat="43.33158" lon="5.77254">
        <ele>753.3</ele>
        <time>2025-10-05T07:33:44Z</time>
      </trkpt>
      <trkpt lat="43.33158" lon="5.77254">
        <ele>753.4</ele>
        <time>2025-10-05T07:33:45Z</time>
      </trkpt>
      <trkpt lat="43.33158" lon="5.77254">
        <ele>753.4</ele>
        <time>2025-10-05T07:33:46Z</time>
      </trkpt>
      <trkpt lat="43.33158" lon="5.77253">
        <ele>753.5</ele>
        <time>2025-10-05T07:33:47Z</time>
      </trkpt>
      <trkpt lat="43.33158" lon="5.77253">
        <ele>753.6</ele>
        <time>2025-10-05T07:33:48Z</time>
      </trkpt>
      <trkpt lat="43.33157" lon="5.77253">
        <ele>753.7</ele>
        <time>2025-10-05T07:33:49Z</time>
      </trkpt>
      <trkpt lat="43.33158" lon="5.77253">
        <ele>753.6</ele>
        <time>2025-10-05T07:33:50Z</time>
      </trkpt>
      <trkpt lat="43.33158" lon="5.77253">
        <ele>753.7</ele>
        <time>2025-10-05T07:33:51Z</time>
      </trkpt>
      <trkpt lat="43.33158" lon="5.77253">
        <ele>753.6</ele>
        <time>2025-10-05T07:33:52Z</time>
      </trkpt>
      <trkpt lat="43.33157" lon="5.77253">
        <ele>753.6</ele>
        <time>2025-10-05T07:33:53Z</time>
      </trkpt>
      <trkpt lat="43.33158" lon="5.77252">
        <ele>753.7</ele>
        <time>2025-10-05T07:33:54Z</time>
      </trkpt>
      <trkpt lat="43.33158" lon="5.77252">
        <ele>753.8</ele>
        <time>2025-10-05T07:33:55Z</time>
      </trkpt>
      <trkpt lat="43.33158" lon="5.77252">
        <ele>753.6</ele>
        <time>2025-10-05T07:33:56Z</time>
      </trkpt>
      <trkpt lat="43.33157" lon="5.77252">
        <ele>753.6</ele>
        <time>2025-10-05T07:33:57Z</time>
      </trkpt>
      <trkpt lat="43.33157" lon="5.77253">
        <ele>753.6</ele>
        <time>2025-10-05T07:33:58Z</time>
      </trkpt>
      <trkpt lat="43.33157" lon="5.77253">
        <ele>753.7</ele>
        <time>2025-10-05T07:33:59Z</time>
      </trkpt>
      <trkpt lat="43.33158" lon="5.77252">
        <ele>753.7</ele>
        <time>2025-10-05T07:34:00Z</time>
      </trkpt>
      <trkpt lat="43.33157" lon="5.77253">
        <ele>753.7</ele>
        <time>2025-10-05T07:34:01Z</time>
      </trkpt>
      <trkpt lat="43.33157" lon="5.77252">
        <ele>753.8</ele>
        <time>2025-10-05T07:34:02Z</time>
      </trkpt>
      <trkpt lat="43.33157" lon="5.77252">
        <ele>753.8</ele>
        <time>2025-10-05T07:34:03Z</time>
      </trkpt>
      <trkpt lat="43.33156" lon="5.77253">
        <ele>754</ele>
        <time>2025-10-05T07:34:04Z</time>
      </trkpt>
      <trkpt lat="43.33156" lon="5.77253">
        <ele>754.1</ele>
        <time>2025-10-05T07:34:05Z</time>
      </trkpt>
      <trkpt lat="43.33154" lon="5.77254">
        <ele>754.1</ele>
        <time>2025-10-05T07:34:06Z</time>
      </trkpt>
      <trkpt lat="43.33155" lon="5.77255">
        <ele>754.2</ele>
        <time>2025-10-05T07:34:07Z</time>
      </trkpt>
      <trkpt lat="43.33154" lon="5.77256">
        <ele>754.3</ele>
        <time>2025-10-05T07:34:08Z</time>
      </trkpt>
      <trkpt lat="43.33155" lon="5.77256">
        <ele>754.3</ele>
        <time>2025-10-05T07:34:09Z</time>
      </trkpt>
      <trkpt lat="43.33154" lon="5.77258">
        <ele>754.4</ele>
        <time>2025-10-05T07:34:10Z</time>
      </trkpt>
      <trkpt lat="43.33154" lon="5.77259">
        <ele>754.4</ele>
        <time>2025-10-05T07:34:11Z</time>
      </trkpt>
      <trkpt lat="43.33155" lon="5.77259">
        <ele>754.5</ele>
        <time>2025-10-05T07:34:12Z</time>
      </trkpt>
      <trkpt lat="43.33156" lon="5.7726">
        <ele>754.6</ele>
        <time>2025-10-05T07:34:13Z</time>
      </trkpt>
      <trkpt lat="43.33156" lon="5.77262">
        <ele>754.6</ele>
        <time>2025-10-05T07:34:14Z</time>
      </trkpt>
      <trkpt lat="43.33156" lon="5.77264">
        <ele>754.6</ele>
        <time>2025-10-05T07:34:15Z</time>
      </trkpt>
      <trkpt lat="43.33156" lon="5.77265">
        <ele>754.6</ele>
        <time>2025-10-05T07:34:16Z</time>
      </trkpt>
      <trkpt lat="43.33156" lon="5.77267">
        <ele>754.6</ele>
        <time>2025-10-05T07:34:17Z</time>
      </trkpt>
      <trkpt lat="43.33156" lon="5.77268">
        <ele>754.5</ele>
        <time>2025-10-05T07:34:18Z</time>
      </trkpt>
      <trkpt lat="43.33157" lon="5.77269">
        <ele>754.5</ele>
        <time>2025-10-05T07:34:19Z</time>
      </trkpt>
      <trkpt lat="43.33157" lon="5.7727">
        <ele>754.4</ele>
        <time>2025-10-05T07:34:20Z</time>
      </trkpt>
      <trkpt lat="43.33158" lon="5.7727">
        <ele>754.3</ele>
        <time>2025-10-05T07:34:21Z</time>
      </trkpt>
      <trkpt lat="43.33158" lon="5.77271">
        <ele>754.3</ele>
        <time>2025-10-05T07:34:22Z</time>
      </trkpt>
      <trkpt lat="43.33158" lon="5.77272">
        <ele>754.3</ele>
        <time>2025-10-05T07:34:23Z</time>
      </trkpt>
      <trkpt lat="43.33158" lon="5.77274">
        <ele>754.3</ele>
        <time>2025-10-05T07:34:24Z</time>
      </trkpt>
      <trkpt lat="43.33159" lon="5.77275">
        <ele>754.2</ele>
        <time>2025-10-05T07:34:25Z</time>
      </trkpt>
      <trkpt lat="43.33159" lon="5.77276">
        <ele>754.1</ele>
        <time>2025-10-05T07:34:26Z</time>
      </trkpt>
      <trkpt lat="43.3316" lon="5.77278">
        <ele>754</ele>
        <time>2025-10-05T07:34:27Z</time>
      </trkpt>
      <trkpt lat="43.33161" lon="5.77279">
        <ele>753.9</ele>
        <time>2025-10-05T07:34:28Z</time>
      </trkpt>
      <trkpt lat="43.33161" lon="5.7728">
        <ele>753.9</ele>
        <time>2025-10-05T07:34:29Z</time>
      </trkpt>
      <trkpt lat="43.33162" lon="5.77281">
        <ele>753.8</ele>
        <time>2025-10-05T07:34:30Z</time>
      </trkpt>
      <trkpt lat="43.33162" lon="5.77282">
        <ele>753.8</ele>
        <time>2025-10-05T07:34:31Z</time>
      </trkpt>
      <trkpt lat="43.33164" lon="5.77283">
        <ele>753.7</ele>
        <time>2025-10-05T07:34:32Z</time>
      </trkpt>
      <trkpt lat="43.33165" lon="5.77284">
        <ele>753.5</ele>
        <time>2025-10-05T07:34:33Z</time>
      </trkpt>
      <trkpt lat="43.33166" lon="5.77284">
        <ele>753.3</ele>
        <time>2025-10-05T07:34:34Z</time>
      </trkpt>
      <trkpt lat="43.33167" lon="5.77286">
        <ele>753.1</ele>
        <time>2025-10-05T07:34:35Z</time>
      </trkpt>
      <trkpt lat="43.33167" lon="5.77287">
        <ele>752.8</ele>
        <time>2025-10-05T07:34:36Z</time>
      </trkpt>
      <trkpt lat="43.33168" lon="5.77287">
        <ele>752.6</ele>
        <time>2025-10-05T07:34:37Z</time>
      </trkpt>
      <trkpt lat="43.33169" lon="5.77288">
        <ele>752.4</ele>
        <time>2025-10-05T07:34:38Z</time>
      </trkpt>
      <trkpt lat="43.33169" lon="5.77289">
        <ele>752.2</ele>
        <time>2025-10-05T07:34:39Z</time>
      </trkpt>
      <trkpt lat="43.33169" lon="5.7729">
        <ele>752</ele>
        <time>2025-10-05T07:34:40Z</time>
      </trkpt>
      <trkpt lat="43.33169" lon="5.77291">
        <ele>751.9</ele>
        <time>2025-10-05T07:34:41Z</time>
      </trkpt>
      <trkpt lat="43.3317" lon="5.77292">
        <ele>751.7</ele>
        <time>2025-10-05T07:34:42Z</time>
      </trkpt>
      <trkpt lat="43.33171" lon="5.77293">
        <ele>751.5</ele>
        <time>2025-10-05T07:34:43Z</time>
      </trkpt>
      <trkpt lat="43.33172" lon="5.77294">
        <ele>751.2</ele>
        <time>2025-10-05T07:34:44Z</time>
      </trkpt>
      <trkpt lat="43.33173" lon="5.77295">
        <ele>751</ele>
        <time>2025-10-05T07:34:45Z</time>
      </trkpt>
      <trkpt lat="43.33174" lon="5.77295">
        <ele>750.9</ele>
        <time>2025-10-05T07:34:46Z</time>
      </trkpt>
      <trkpt lat="43.33175" lon="5.77297">
        <ele>750.9</ele>
        <time>2025-10-05T07:34:47Z</time>
      </trkpt>
      <trkpt lat="43.33176" lon="5.77298">
        <ele>750.7</ele>
        <time>2025-10-05T07:34:48Z</time>
      </trkpt>
      <trkpt lat="43.33177" lon="5.77299">
        <ele>750.7</ele>
        <time>2025-10-05T07:34:49Z</time>
      </trkpt>
      <trkpt lat="43.33177" lon="5.773">
        <ele>750.6</ele>
        <time>2025-10-05T07:34:50Z</time>
      </trkpt>
      <trkpt lat="43.33179" lon="5.77302">
        <ele>750.6</ele>
        <time>2025-10-05T07:34:51Z</time>
      </trkpt>
      <trkpt lat="43.33179" lon="5.77303">
        <ele>750.5</ele>
        <time>2025-10-05T07:34:52Z</time>
      </trkpt>
      <trkpt lat="43.3318" lon="5.77304">
        <ele>750.4</ele>
        <time>2025-10-05T07:34:53Z</time>
      </trkpt>
      <trkpt lat="43.3318" lon="5.77305">
        <ele>750.4</ele>
        <time>2025-10-05T07:34:54Z</time>
      </trkpt>
      <trkpt lat="43.33182" lon="5.77306">
        <ele>750.3</ele>
        <time>2025-10-05T07:34:55Z</time>
      </trkpt>
      <trkpt lat="43.33182" lon="5.77308">
        <ele>750.2</ele>
        <time>2025-10-05T07:34:56Z</time>
      </trkpt>
      <trkpt lat="43.33183" lon="5.77309">
        <ele>750.2</ele>
        <time>2025-10-05T07:34:57Z</time>
      </trkpt>
      <trkpt lat="43.33183" lon="5.7731">
        <ele>750.2</ele>
        <time>2025-10-05T07:34:58Z</time>
      </trkpt>
      <trkpt lat="43.33184" lon="5.77311">
        <ele>750.2</ele>
        <time>2025-10-05T07:34:59Z</time>
      </trkpt>
      <trkpt lat="43.33184" lon="5.77312">
        <ele>750.2</ele>
        <time>2025-10-05T07:35:00Z</time>
      </trkpt>
      <trkpt lat="43.33185" lon="5.77312">
        <ele>750.1</ele>
        <time>2025-10-05T07:35:01Z</time>
      </trkpt>
      <trkpt lat="43.33186" lon="5.77313">
        <ele>750.2</ele>
        <time>2025-10-05T07:35:02Z</time>
      </trkpt>
      <trkpt lat="43.33187" lon="5.77314">
        <ele>750.1</ele>
        <time>2025-10-05T07:35:03Z</time>
      </trkpt>
      <trkpt lat="43.33189" lon="5.77314">
        <ele>750</ele>
        <time>2025-10-05T07:35:04Z</time>
      </trkpt>
      <trkpt lat="43.33189" lon="5.77315">
        <ele>750</ele>
        <time>2025-10-05T07:35:05Z</time>
      </trkpt>
      <trkpt lat="43.3319" lon="5.77316">
        <ele>750</ele>
        <time>2025-10-05T07:35:06Z</time>
      </trkpt>
      <trkpt lat="43.3319" lon="5.77317">
        <ele>750</ele>
        <time>2025-10-05T07:35:07Z</time>
      </trkpt>
      <trkpt lat="43.33191" lon="5.77317">
        <ele>750</ele>
        <time>2025-10-05T07:35:08Z</time>
      </trkpt>
      <trkpt lat="43.33192" lon="5.77317">
        <ele>750</ele>
        <time>2025-10-05T07:35:09Z</time>
      </trkpt>
      <trkpt lat="43.33193" lon="5.77317">
        <ele>750.1</ele>
        <time>2025-10-05T07:35:10Z</time>
      </trkpt>
      <trkpt lat="43.33193" lon="5.77319">
        <ele>750.1</ele>
        <time>2025-10-05T07:35:11Z</time>
      </trkpt>
      <trkpt lat="43.33194" lon="5.77319">
        <ele>750.1</ele>
        <time>2025-10-05T07:35:12Z</time>
      </trkpt>
      <trkpt lat="43.33194" lon="5.77321">
        <ele>750.1</ele>
        <time>2025-10-05T07:35:13Z</time>
      </trkpt>
      <trkpt lat="43.33194" lon="5.77322">
        <ele>750.1</ele>
        <time>2025-10-05T07:35:14Z</time>
      </trkpt>
      <trkpt lat="43.33194" lon="5.77323">
        <ele>750</ele>
        <time>2025-10-05T07:35:15Z</time>
      </trkpt>
      <trkpt lat="43.33193" lon="5.77326">
        <ele>750</ele>
        <time>2025-10-05T07:35:16Z</time>
      </trkpt>
      <trkpt lat="43.33194" lon="5.77327">
        <ele>750</ele>
        <time>2025-10-05T07:35:17Z</time>
      </trkpt>
      <trkpt lat="43.33194" lon="5.77329">
        <ele>750</ele>
        <time>2025-10-05T07:35:18Z</time>
      </trkpt>
      <trkpt lat="43.33195" lon="5.77329">
        <ele>750.1</ele>
        <time>2025-10-05T07:35:19Z</time>
      </trkpt>
      <trkpt lat="43.33195" lon="5.77331">
        <ele>750.1</ele>
        <time>2025-10-05T07:35:20Z</time>
      </trkpt>
      <trkpt lat="43.33195" lon="5.77332">
        <ele>750.2</ele>
        <time>2025-10-05T07:35:21Z</time>
      </trkpt>
      <trkpt lat="43.33196" lon="5.77332">
        <ele>750.2</ele>
        <time>2025-10-05T07:35:22Z</time>
      </trkpt>
      <trkpt lat="43.33196" lon="5.77334">
        <ele>750.2</ele>
        <time>2025-10-05T07:35:23Z</time>
      </trkpt>
      <trkpt lat="43.33196" lon="5.77336">
        <ele>750.3</ele>
        <time>2025-10-05T07:35:24Z</time>
      </trkpt>
      <trkpt lat="43.33196" lon="5.77337">
        <ele>750.4</ele>
        <time>2025-10-05T07:35:25Z</time>
      </trkpt>
      <trkpt lat="43.33196" lon="5.77338">
        <ele>750.4</ele>
        <time>2025-10-05T07:35:26Z</time>
      </trkpt>
      <trkpt lat="43.33196" lon="5.7734">
        <ele>750.5</ele>
        <time>2025-10-05T07:35:27Z</time>
      </trkpt>
      <trkpt lat="43.33196" lon="5.77341">
        <ele>750.5</ele>
        <time>2025-10-05T07:35:28Z</time>
      </trkpt>
      <trkpt lat="43.33197" lon="5.77342">
        <ele>750.5</ele>
        <time>2025-10-05T07:35:29Z</time>
      </trkpt>
      <trkpt lat="43.33197" lon="5.77345">
        <ele>750.5</ele>
        <time>2025-10-05T07:35:30Z</time>
      </trkpt>
      <trkpt lat="43.33198" lon="5.77346">
        <ele>750.6</ele>
        <time>2025-10-05T07:35:31Z</time>
      </trkpt>
      <trkpt lat="43.33199" lon="5.77347">
        <ele>750.7</ele>
        <time>2025-10-05T07:35:32Z</time>
      </trkpt>
      <trkpt lat="43.33199" lon="5.77349">
        <ele>750.7</ele>
        <time>2025-10-05T07:35:33Z</time>
      </trkpt>
      <trkpt lat="43.332" lon="5.7735">
        <ele>750.8</ele>
        <time>2025-10-05T07:35:34Z</time>
      </trkpt>
      <trkpt lat="43.332" lon="5.77351">
        <ele>750.8</ele>
        <time>2025-10-05T07:35:35Z</time>
      </trkpt>
      <trkpt lat="43.33201" lon="5.77353">
        <ele>750.8</ele>
        <time>2025-10-05T07:35:36Z</time>
      </trkpt>
      <trkpt lat="43.33201" lon="5.77354">
        <ele>750.8</ele>
        <time>2025-10-05T07:35:37Z</time>
      </trkpt>
      <trkpt lat="43.332" lon="5.77356">
        <ele>750.8</ele>
        <time>2025-10-05T07:35:38Z</time>
      </trkpt>
      <trkpt lat="43.332" lon="5.77357">
        <ele>750.6</ele>
        <time>2025-10-05T07:35:39Z</time>
      </trkpt>
      <trkpt lat="43.33201" lon="5.77359">
        <ele>750.5</ele>
        <time>2025-10-05T07:35:40Z</time>
      </trkpt>
      <trkpt lat="43.33201" lon="5.77361">
        <ele>750.4</ele>
        <time>2025-10-05T07:35:41Z</time>
      </trkpt>
      <trkpt lat="43.332" lon="5.77362">
        <ele>750.3</ele>
        <time>2025-10-05T07:35:42Z</time>
      </trkpt>
      <trkpt lat="43.33202" lon="5.77362">
        <ele>750.4</ele>
        <time>2025-10-05T07:35:43Z</time>
      </trkpt>
      <trkpt lat="43.33202" lon="5.77363">
        <ele>750.3</ele>
        <time>2025-10-05T07:35:44Z</time>
      </trkpt>
      <trkpt lat="43.33203" lon="5.77364">
        <ele>750.3</ele>
        <time>2025-10-05T07:35:45Z</time>
      </trkpt>
      <trkpt lat="43.33203" lon="5.77365">
        <ele>750.2</ele>
        <time>2025-10-05T07:35:46Z</time>
      </trkpt>
      <trkpt lat="43.33203" lon="5.77366">
        <ele>750.2</ele>
        <time>2025-10-05T07:35:47Z</time>
      </trkpt>
      <trkpt lat="43.33203" lon="5.77366">
        <ele>750.2</ele>
        <time>2025-10-05T07:35:48Z</time>
      </trkpt>
      <trkpt lat="43.33204" lon="5.77367">
        <ele>750.3</ele>
        <time>2025-10-05T07:35:49Z</time>
      </trkpt>
      <trkpt lat="43.33204" lon="5.77367">
        <ele>750.4</ele>
        <time>2025-10-05T07:35:50Z</time>
      </trkpt>
      <trkpt lat="43.33205" lon="5.77368">
        <ele>750.4</ele>
        <time>2025-10-05T07:35:51Z</time>
      </trkpt>
      <trkpt lat="43.33205" lon="5.7737">
        <ele>750.3</ele>
        <time>2025-10-05T07:35:52Z</time>
      </trkpt>
      <trkpt lat="43.33205" lon="5.77371">
        <ele>750.3</ele>
        <time>2025-10-05T07:35:53Z</time>
      </trkpt>
      <trkpt lat="43.33205" lon="5.77373">
        <ele>750.3</ele>
        <time>2025-10-05T07:35:54Z</time>
      </trkpt>
      <trkpt lat="43.33206" lon="5.77375">
        <ele>750.3</ele>
        <time>2025-10-05T07:35:55Z</time>
      </trkpt>
      <trkpt lat="43.33206" lon="5.77376">
        <ele>750.2</ele>
        <time>2025-10-05T07:35:56Z</time>
      </trkpt>
      <trkpt lat="43.33207" lon="5.77378">
        <ele>750.2</ele>
        <time>2025-10-05T07:35:57Z</time>
      </trkpt>
      <trkpt lat="43.33207" lon="5.77379">
        <ele>750.2</ele>
        <time>2025-10-05T07:35:58Z</time>
      </trkpt>
      <trkpt lat="43.33207" lon="5.7738">
        <ele>750.1</ele>
        <time>2025-10-05T07:35:59Z</time>
      </trkpt>
      <trkpt lat="43.33209" lon="5.77379">
        <ele>750.2</ele>
        <time>2025-10-05T07:36:00Z</time>
      </trkpt>
      <trkpt lat="43.33209" lon="5.77381">
        <ele>750.2</ele>
        <time>2025-10-05T07:36:01Z</time>
      </trkpt>
      <trkpt lat="43.33209" lon="5.77382">
        <ele>750.3</ele>
        <time>2025-10-05T07:36:02Z</time>
      </trkpt>
      <trkpt lat="43.33209" lon="5.77384">
        <ele>750.2</ele>
        <time>2025-10-05T07:36:03Z</time>
      </trkpt>
      <trkpt lat="43.33209" lon="5.77385">
        <ele>750.2</ele>
        <time>2025-10-05T07:36:04Z</time>
      </trkpt>
      <trkpt lat="43.3321" lon="5.77386">
        <ele>750.1</ele>
        <time>2025-10-05T07:36:05Z</time>
      </trkpt>
      <trkpt lat="43.3321" lon="5.77387">
        <ele>750.1</ele>
        <time>2025-10-05T07:36:06Z</time>
      </trkpt>
      <trkpt lat="43.33211" lon="5.77388">
        <ele>750.1</ele>
        <time>2025-10-05T07:36:07Z</time>
      </trkpt>
      <trkpt lat="43.33212" lon="5.77389">
        <ele>750</ele>
        <time>2025-10-05T07:36:08Z</time>
      </trkpt>
      <trkpt lat="43.33213" lon="5.7739">
        <ele>750</ele>
        <time>2025-10-05T07:36:09Z</time>
      </trkpt>
      <trkpt lat="43.33213" lon="5.77391">
        <ele>750</ele>
        <time>2025-10-05T07:36:10Z</time>
      </trkpt>
      <trkpt lat="43.33214" lon="5.77392">
        <ele>749.8</ele>
        <time>2025-10-05T07:36:11Z</time>
      </trkpt>
      <trkpt lat="43.33214" lon="5.77393">
        <ele>749.7</ele>
        <time>2025-10-05T07:36:12Z</time>
      </trkpt>
      <trkpt lat="43.33214" lon="5.77394">
        <ele>749.6</ele>
        <time>2025-10-05T07:36:13Z</time>
      </trkpt>
      <trkpt lat="43.33214" lon="5.77396">
        <ele>749.5</ele>
        <time>2025-10-05T07:36:14Z</time>
      </trkpt>
      <trkpt lat="43.33214" lon="5.77397">
        <ele>749.4</ele>
        <time>2025-10-05T07:36:15Z</time>
      </trkpt>
      <trkpt lat="43.33215" lon="5.77397">
        <ele>749.2</ele>
        <time>2025-10-05T07:36:16Z</time>
      </trkpt>
      <trkpt lat="43.33216" lon="5.77398">
        <ele>749.2</ele>
        <time>2025-10-05T07:36:17Z</time>
      </trkpt>
      <trkpt lat="43.33216" lon="5.77399">
        <ele>749.3</ele>
        <time>2025-10-05T07:36:18Z</time>
      </trkpt>
      <trkpt lat="43.33217" lon="5.77401">
        <ele>749.3</ele>
        <time>2025-10-05T07:36:19Z</time>
      </trkpt>
      <trkpt lat="43.33217" lon="5.77403">
        <ele>749.3</ele>
        <time>2025-10-05T07:36:20Z</time>
      </trkpt>
      <trkpt lat="43.33218" lon="5.77403">
        <ele>749.3</ele>
        <time>2025-10-05T07:36:21Z</time>
      </trkpt>
      <trkpt lat="43.33218" lon="5.77405">
        <ele>749.3</ele>
        <time>2025-10-05T07:36:22Z</time>
      </trkpt>
      <trkpt lat="43.33218" lon="5.77407">
        <ele>749.2</ele>
        <time>2025-10-05T07:36:23Z</time>
      </trkpt>
      <trkpt lat="43.33218" lon="5.77408">
        <ele>749.1</ele>
        <time>2025-10-05T07:36:24Z</time>
      </trkpt>
      <trkpt lat="43.33219" lon="5.77409">
        <ele>749.1</ele>
        <time>2025-10-05T07:36:25Z</time>
      </trkpt>
      <trkpt lat="43.33219" lon="5.7741">
        <ele>749</ele>
        <time>2025-10-05T07:36:26Z</time>
      </trkpt>
      <trkpt lat="43.3322" lon="5.7741">
        <ele>748.9</ele>
        <time>2025-10-05T07:36:27Z</time>
      </trkpt>
      <trkpt lat="43.3322" lon="5.77411">
        <ele>748.8</ele>
        <time>2025-10-05T07:36:28Z</time>
      </trkpt>
      <trkpt lat="43.3322" lon="5.77413">
        <ele>748.6</ele>
        <time>2025-10-05T07:36:29Z</time>
      </trkpt>
      <trkpt lat="43.3322" lon="5.77414">
        <ele>748.6</ele>
        <time>2025-10-05T07:36:30Z</time>
      </trkpt>
      <trkpt lat="43.33221" lon="5.77415">
        <ele>748.6</ele>
        <time>2025-10-05T07:36:31Z</time>
      </trkpt>
      <trkpt lat="43.33221" lon="5.77417">
        <ele>748.4</ele>
        <time>2025-10-05T07:36:32Z</time>
      </trkpt>
      <trkpt lat="43.33222" lon="5.77418">
        <ele>748.2</ele>
        <time>2025-10-05T07:36:33Z</time>
      </trkpt>
      <trkpt lat="43.33222" lon="5.77419">
        <ele>748</ele>
        <time>2025-10-05T07:36:34Z</time>
      </trkpt>
      <trkpt lat="43.33223" lon="5.7742">
        <ele>748.1</ele>
        <time>2025-10-05T07:36:35Z</time>
      </trkpt>
      <trkpt lat="43.33223" lon="5.7742">
        <ele>748.1</ele>
        <time>2025-10-05T07:36:36Z</time>
      </trkpt>
      <trkpt lat="43.33224" lon="5.77421">
        <ele>748.1</ele>
        <time>2025-10-05T07:36:37Z</time>
      </trkpt>
      <trkpt lat="43.33224" lon="5.77423">
        <ele>748.1</ele>
        <time>2025-10-05T07:36:38Z</time>
      </trkpt>
      <trkpt lat="43.33225" lon="5.77423">
        <ele>748.2</ele>
        <time>2025-10-05T07:36:39Z</time>
      </trkpt>
      <trkpt lat="43.33226" lon="5.77424">
        <ele>748.2</ele>
        <time>2025-10-05T07:36:40Z</time>
      </trkpt>
      <trkpt lat="43.33226" lon="5.77426">
        <ele>748.1</ele>
        <time>2025-10-05T07:36:41Z</time>
      </trkpt>
      <trkpt lat="43.33227" lon="5.77426">
        <ele>748.2</ele>
        <time>2025-10-05T07:36:42Z</time>
      </trkpt>
      <trkpt lat="43.33229" lon="5.77426">
        <ele>748.2</ele>
        <time>2025-10-05T07:36:43Z</time>
      </trkpt>
      <trkpt lat="43.3323" lon="5.77427">
        <ele>748.2</ele>
        <time>2025-10-05T07:36:44Z</time>
      </trkpt>
      <trkpt lat="43.3323" lon="5.77428">
        <ele>748.1</ele>
        <time>2025-10-05T07:36:45Z</time>
      </trkpt>
      <trkpt lat="43.3323" lon="5.7743">
        <ele>748.2</ele>
        <time>2025-10-05T07:36:46Z</time>
      </trkpt>
      <trkpt lat="43.33231" lon="5.77431">
        <ele>748.2</ele>
        <time>2025-10-05T07:36:47Z</time>
      </trkpt>
      <trkpt lat="43.33231" lon="5.77433">
        <ele>748.2</ele>
        <time>2025-10-05T07:36:48Z</time>
      </trkpt>
      <trkpt lat="43.33231" lon="5.77435">
        <ele>748.2</ele>
        <time>2025-10-05T07:36:49Z</time>
      </trkpt>
      <trkpt lat="43.33232" lon="5.77435">
        <ele>748.2</ele>
        <time>2025-10-05T07:36:50Z</time>
      </trkpt>
      <trkpt lat="43.33232" lon="5.77436">
        <ele>748.2</ele>
        <time>2025-10-05T07:36:51Z</time>
      </trkpt>
      <trkpt lat="43.33233" lon="5.77437">
        <ele>748.2</ele>
        <time>2025-10-05T07:36:52Z</time>
      </trkpt>
      <trkpt lat="43.33235" lon="5.77437">
        <ele>748.2</ele>
        <time>2025-10-05T07:36:53Z</time>
      </trkpt>
      <trkpt lat="43.33237" lon="5.77437">
        <ele>748.1</ele>
        <time>2025-10-05T07:36:54Z</time>
      </trkpt>
      <trkpt lat="43.33238" lon="5.77437">
        <ele>748</ele>
        <time>2025-10-05T07:36:55Z</time>
      </trkpt>
      <trkpt lat="43.33238" lon="5.77438">
        <ele>747.8</ele>
        <time>2025-10-05T07:36:56Z</time>
      </trkpt>
      <trkpt lat="43.33238" lon="5.77439">
        <ele>747.7</ele>
        <time>2025-10-05T07:36:57Z</time>
      </trkpt>
      <trkpt lat="43.33239" lon="5.77439">
        <ele>747.6</ele>
        <time>2025-10-05T07:36:58Z</time>
      </trkpt>
      <trkpt lat="43.3324" lon="5.7744">
        <ele>747.5</ele>
        <time>2025-10-05T07:36:59Z</time>
      </trkpt>
      <trkpt lat="43.33242" lon="5.77439">
        <ele>747.4</ele>
        <time>2025-10-05T07:37:00Z</time>
      </trkpt>
      <trkpt lat="43.33243" lon="5.77439">
        <ele>747.2</ele>
        <time>2025-10-05T07:37:01Z</time>
      </trkpt>
      <trkpt lat="43.33245" lon="5.7744">
        <ele>747.1</ele>
        <time>2025-10-05T07:37:02Z</time>
      </trkpt>
      <trkpt lat="43.33246" lon="5.77441">
        <ele>747.1</ele>
        <time>2025-10-05T07:37:03Z</time>
      </trkpt>
      <trkpt lat="43.33246" lon="5.77442">
        <ele>746.9</ele>
        <time>2025-10-05T07:37:04Z</time>
      </trkpt>
      <trkpt lat="43.33247" lon="5.77443">
        <ele>746.8</ele>
        <time>2025-10-05T07:37:05Z</time>
      </trkpt>
      <trkpt lat="43.33248" lon="5.77444">
        <ele>746.6</ele>
        <time>2025-10-05T07:37:06Z</time>
      </trkpt>
      <trkpt lat="43.33249" lon="5.77445">
        <ele>746.5</ele>
        <time>2025-10-05T07:37:07Z</time>
      </trkpt>
      <trkpt lat="43.33249" lon="5.77445">
        <ele>746.3</ele>
        <time>2025-10-05T07:37:08Z</time>
      </trkpt>
      <trkpt lat="43.3325" lon="5.77445">
        <ele>746.2</ele>
        <time>2025-10-05T07:37:09Z</time>
      </trkpt>
      <trkpt lat="43.33251" lon="5.77445">
        <ele>746.1</ele>
        <time>2025-10-05T07:37:10Z</time>
      </trkpt>
      <trkpt lat="43.33252" lon="5.77446">
        <ele>746</ele>
        <time>2025-10-05T07:37:11Z</time>
      </trkpt>
      <trkpt lat="43.33252" lon="5.77447">
        <ele>745.8</ele>
        <time>2025-10-05T07:37:12Z</time>
      </trkpt>
      <trkpt lat="43.33253" lon="5.77448">
        <ele>745.7</ele>
        <time>2025-10-05T07:37:13Z</time>
      </trkpt>
      <trkpt lat="43.33253" lon="5.77449">
        <ele>745.6</ele>
        <time>2025-10-05T07:37:14Z</time>
      </trkpt>
      <trkpt lat="43.33255" lon="5.7745">
        <ele>745.4</ele>
        <time>2025-10-05T07:37:15Z</time>
      </trkpt>
      <trkpt lat="43.33255" lon="5.77451">
        <ele>745.3</ele>
        <time>2025-10-05T07:37:16Z</time>
      </trkpt>
      <trkpt lat="43.33256" lon="5.77452">
        <ele>745.2</ele>
        <time>2025-10-05T07:37:17Z</time>
      </trkpt>
      <trkpt lat="43.33255" lon="5.77453">
        <ele>745.2</ele>
        <time>2025-10-05T07:37:18Z</time>
      </trkpt>
      <trkpt lat="43.33256" lon="5.77454">
        <ele>745.1</ele>
        <time>2025-10-05T07:37:19Z</time>
      </trkpt>
      <trkpt lat="43.33257" lon="5.77453">
        <ele>745.1</ele>
        <time>2025-10-05T07:37:20Z</time>
      </trkpt>
      <trkpt lat="43.33258" lon="5.77454">
        <ele>745</ele>
        <time>2025-10-05T07:37:21Z</time>
      </trkpt>
      <trkpt lat="43.33259" lon="5.77455">
        <ele>745</ele>
        <time>2025-10-05T07:37:22Z</time>
      </trkpt>
      <trkpt lat="43.33259" lon="5.77456">
        <ele>745</ele>
        <time>2025-10-05T07:37:23Z</time>
      </trkpt>
      <trkpt lat="43.33259" lon="5.77457">
        <ele>745</ele>
        <time>2025-10-05T07:37:24Z</time>
      </trkpt>
      <trkpt lat="43.3326" lon="5.77457">
        <ele>744.9</ele>
        <time>2025-10-05T07:37:25Z</time>
      </trkpt>
      <trkpt lat="43.3326" lon="5.77458">
        <ele>744.8</ele>
        <time>2025-10-05T07:37:26Z</time>
      </trkpt>
      <trkpt lat="43.33261" lon="5.77458">
        <ele>744.7</ele>
        <time>2025-10-05T07:37:27Z</time>
      </trkpt>
      <trkpt lat="43.33262" lon="5.77458">
        <ele>744.7</ele>
        <time>2025-10-05T07:37:28Z</time>
      </trkpt>
      <trkpt lat="43.33262" lon="5.77459">
        <ele>744.6</ele>
        <time>2025-10-05T07:37:29Z</time>
      </trkpt>
      <trkpt lat="43.33262" lon="5.77459">
        <ele>744.5</ele>
        <time>2025-10-05T07:37:30Z</time>
      </trkpt>
      <trkpt lat="43.33263" lon="5.77459">
        <ele>744.3</ele>
        <time>2025-10-05T07:37:31Z</time>
      </trkpt>
      <trkpt lat="43.33264" lon="5.77459">
        <ele>744.1</ele>
        <time>2025-10-05T07:37:32Z</time>
      </trkpt>
      <trkpt lat="43.33265" lon="5.7746">
        <ele>744</ele>
        <time>2025-10-05T07:37:33Z</time>
      </trkpt>
      <trkpt lat="43.33265" lon="5.77461">
        <ele>743.8</ele>
        <time>2025-10-05T07:37:34Z</time>
      </trkpt>
      <trkpt lat="43.33266" lon="5.77462">
        <ele>743.8</ele>
        <time>2025-10-05T07:37:35Z</time>
      </trkpt>
      <trkpt lat="43.33267" lon="5.77462">
        <ele>743.8</ele>
        <time>2025-10-05T07:37:36Z</time>
      </trkpt>
      <trkpt lat="43.33267" lon="5.77462">
        <ele>743.8</ele>
        <time>2025-10-05T07:37:37Z</time>
      </trkpt>
      <trkpt lat="43.33267" lon="5.77464">
        <ele>743.8</ele>
        <time>2025-10-05T07:37:38Z</time>
      </trkpt>
      <trkpt lat="43.33267" lon="5.77464">
        <ele>743.7</ele>
        <time>2025-10-05T07:37:39Z</time>
      </trkpt>
      <trkpt lat="43.33268" lon="5.77466">
        <ele>743.7</ele>
        <time>2025-10-05T07:37:40Z</time>
      </trkpt>
      <trkpt lat="43.33268" lon="5.77467">
        <ele>743.6</ele>
        <time>2025-10-05T07:37:41Z</time>
      </trkpt>
      <trkpt lat="43.33268" lon="5.77468">
        <ele>743.5</ele>
        <time>2025-10-05T07:37:42Z</time>
      </trkpt>
      <trkpt lat="43.33269" lon="5.77468">
        <ele>743.4</ele>
        <time>2025-10-05T07:37:43Z</time>
      </trkpt>
      <trkpt lat="43.33269" lon="5.77469">
        <ele>743.3</ele>
        <time>2025-10-05T07:37:44Z</time>
      </trkpt>
      <trkpt lat="43.3327" lon="5.7747">
        <ele>743.2</ele>
        <time>2025-10-05T07:37:45Z</time>
      </trkpt>
      <trkpt lat="43.33271" lon="5.7747">
        <ele>743.1</ele>
        <time>2025-10-05T07:37:46Z</time>
      </trkpt>
      <trkpt lat="43.33272" lon="5.7747">
        <ele>743</ele>
        <time>2025-10-05T07:37:47Z</time>
      </trkpt>
      <trkpt lat="43.33272" lon="5.77471">
        <ele>742.9</ele>
        <time>2025-10-05T07:37:48Z</time>
      </trkpt>
      <trkpt lat="43.33273" lon="5.77472">
        <ele>742.9</ele>
        <time>2025-10-05T07:37:49Z</time>
      </trkpt>
      <trkpt lat="43.33274" lon="5.77472">
        <ele>742.8</ele>
        <time>2025-10-05T07:37:50Z</time>
      </trkpt>
      <trkpt lat="43.33275" lon="5.77472">
        <ele>742.8</ele>
        <time>2025-10-05T07:37:51Z</time>
      </trkpt>
      <trkpt lat="43.33276" lon="5.77473">
        <ele>742.8</ele>
        <time>2025-10-05T07:37:52Z</time>
      </trkpt>
      <trkpt lat="43.33277" lon="5.77474">
        <ele>742.6</ele>
        <time>2025-10-05T07:37:53Z</time>
      </trkpt>
      <trkpt lat="43.33277" lon="5.77475">
        <ele>742.5</ele>
        <time>2025-10-05T07:37:54Z</time>
      </trkpt>
      <trkpt lat="43.33278" lon="5.77475">
        <ele>742.5</ele>
        <time>2025-10-05T07:37:55Z</time>
      </trkpt>
      <trkpt lat="43.33279" lon="5.77477">
        <ele>742.4</ele>
        <time>2025-10-05T07:37:56Z</time>
      </trkpt>
      <trkpt lat="43.3328" lon="5.77477">
        <ele>742.3</ele>
        <time>2025-10-05T07:37:57Z</time>
      </trkpt>
      <trkpt lat="43.33281" lon="5.77479">
        <ele>742.1</ele>
        <time>2025-10-05T07:37:58Z</time>
      </trkpt>
      <trkpt lat="43.33282" lon="5.7748">
        <ele>742.1</ele>
        <time>2025-10-05T07:37:59Z</time>
      </trkpt>
      <trkpt lat="43.33282" lon="5.77481">
        <ele>742</ele>
        <time>2025-10-05T07:38:00Z</time>
      </trkpt>
      <trkpt lat="43.33284" lon="5.77482">
        <ele>741.9</ele>
        <time>2025-10-05T07:38:01Z</time>
      </trkpt>
      <trkpt lat="43.33284" lon="5.77483">
        <ele>741.9</ele>
        <time>2025-10-05T07:38:02Z</time>
      </trkpt>
      <trkpt lat="43.33285" lon="5.77483">
        <ele>741.8</ele>
        <time>2025-10-05T07:38:03Z</time>
      </trkpt>
      <trkpt lat="43.33285" lon="5.77484">
        <ele>741.8</ele>
        <time>2025-10-05T07:38:04Z</time>
      </trkpt>
      <trkpt lat="43.33286" lon="5.77485">
        <ele>741.8</ele>
        <time>2025-10-05T07:38:05Z</time>
      </trkpt>
      <trkpt lat="43.33287" lon="5.77486">
        <ele>741.8</ele>
        <time>2025-10-05T07:38:06Z</time>
      </trkpt>
      <trkpt lat="43.33287" lon="5.77487">
        <ele>741.7</ele>
        <time>2025-10-05T07:38:07Z</time>
      </trkpt>
      <trkpt lat="43.33288" lon="5.77488">
        <ele>741.8</ele>
        <time>2025-10-05T07:38:08Z</time>
      </trkpt>
      <trkpt lat="43.33289" lon="5.77488">
        <ele>741.8</ele>
        <time>2025-10-05T07:38:09Z</time>
      </trkpt>
      <trkpt lat="43.3329" lon="5.77489">
        <ele>741.8</ele>
        <time>2025-10-05T07:38:10Z</time>
      </trkpt>
      <trkpt lat="43.33291" lon="5.7749">
        <ele>741.8</ele>
        <time>2025-10-05T07:38:11Z</time>
      </trkpt>
      <trkpt lat="43.33293" lon="5.77491">
        <ele>741.9</ele>
        <time>2025-10-05T07:38:12Z</time>
      </trkpt>
      <trkpt lat="43.33294" lon="5.77492">
        <ele>741.8</ele>
        <time>2025-10-05T07:38:13Z</time>
      </trkpt>
      <trkpt lat="43.33295" lon="5.77493">
        <ele>741.7</ele>
        <time>2025-10-05T07:38:14Z</time>
      </trkpt>
      <trkpt lat="43.33296" lon="5.77493">
        <ele>741.7</ele>
        <time>2025-10-05T07:38:15Z</time>
      </trkpt>
      <trkpt lat="43.33297" lon="5.77493">
        <ele>741.7</ele>
        <time>2025-10-05T07:38:16Z</time>
      </trkpt>
      <trkpt lat="43.33298" lon="5.77494">
        <ele>741.6</ele>
        <time>2025-10-05T07:38:17Z</time>
      </trkpt>
      <trkpt lat="43.33297" lon="5.77496">
        <ele>741.6</ele>
        <time>2025-10-05T07:38:18Z</time>
      </trkpt>
      <trkpt lat="43.33297" lon="5.77497">
        <ele>741.4</ele>
        <time>2025-10-05T07:38:19Z</time>
      </trkpt>
      <trkpt lat="43.33298" lon="5.77498">
        <ele>741.3</ele>
        <time>2025-10-05T07:38:20Z</time>
      </trkpt>
      <trkpt lat="43.33298" lon="5.775">
        <ele>741.2</ele>
        <time>2025-10-05T07:38:21Z</time>
      </trkpt>
      <trkpt lat="43.33298" lon="5.77502">
        <ele>741.2</ele>
        <time>2025-10-05T07:38:22Z</time>
      </trkpt>
      <trkpt lat="43.33299" lon="5.77503">
        <ele>741.2</ele>
        <time>2025-10-05T07:38:23Z</time>
      </trkpt>
      <trkpt lat="43.333" lon="5.77504">
        <ele>741.2</ele>
        <time>2025-10-05T07:38:24Z</time>
      </trkpt>
      <trkpt lat="43.33301" lon="5.77505">
        <ele>741.2</ele>
        <time>2025-10-05T07:38:25Z</time>
      </trkpt>
      <trkpt lat="43.33301" lon="5.77505">
        <ele>741.2</ele>
        <time>2025-10-05T07:38:26Z</time>
      </trkpt>
      <trkpt lat="43.33302" lon="5.77506">
        <ele>741.2</ele>
        <time>2025-10-05T07:38:27Z</time>
      </trkpt>
      <trkpt lat="43.33302" lon="5.77507">
        <ele>741.2</ele>
        <time>2025-10-05T07:38:28Z</time>
      </trkpt>
      <trkpt lat="43.33303" lon="5.77507">
        <ele>741.1</ele>
        <time>2025-10-05T07:38:29Z</time>
      </trkpt>
      <trkpt lat="43.33303" lon="5.77508">
        <ele>741</ele>
        <time>2025-10-05T07:38:30Z</time>
      </trkpt>
      <trkpt lat="43.33304" lon="5.77509">
        <ele>740.9</ele>
        <time>2025-10-05T07:38:31Z</time>
      </trkpt>
      <trkpt lat="43.33305" lon="5.7751">
        <ele>740.8</ele>
        <time>2025-10-05T07:38:32Z</time>
      </trkpt>
      <trkpt lat="43.33305" lon="5.77512">
        <ele>740.7</ele>
        <time>2025-10-05T07:38:33Z</time>
      </trkpt>
      <trkpt lat="43.33305" lon="5.77513">
        <ele>740.7</ele>
        <time>2025-10-05T07:38:34Z</time>
      </trkpt>
      <trkpt lat="43.33306" lon="5.77514">
        <ele>740.6</ele>
        <time>2025-10-05T07:38:35Z</time>
      </trkpt>
      <trkpt lat="43.33307" lon="5.77514">
        <ele>740.5</ele>
        <time>2025-10-05T07:38:36Z</time>
      </trkpt>
      <trkpt lat="43.33309" lon="5.77514">
        <ele>740.2</ele>
        <time>2025-10-05T07:38:37Z</time>
      </trkpt>
      <trkpt lat="43.3331" lon="5.77515">
        <ele>739.9</ele>
        <time>2025-10-05T07:38:38Z</time>
      </trkpt>
      <trkpt lat="43.33309" lon="5.77517">
        <ele>739.8</ele>
        <time>2025-10-05T07:38:39Z</time>
      </trkpt>
      <trkpt lat="43.3331" lon="5.77517">
        <ele>739.8</ele>
        <time>2025-10-05T07:38:40Z</time>
      </trkpt>
      <trkpt lat="43.33313" lon="5.77517">
        <ele>739.7</ele>
        <time>2025-10-05T07:38:41Z</time>
      </trkpt>
      <trkpt lat="43.33313" lon="5.77518">
        <ele>739.4</ele>
        <time>2025-10-05T07:38:42Z</time>
      </trkpt>
      <trkpt lat="43.33314" lon="5.77518">
        <ele>739.2</ele>
        <time>2025-10-05T07:38:43Z</time>
      </trkpt>
      <trkpt lat="43.33314" lon="5.77519">
        <ele>739.1</ele>
        <time>2025-10-05T07:38:44Z</time>
      </trkpt>
      <trkpt lat="43.33315" lon="5.7752">
        <ele>739</ele>
        <time>2025-10-05T07:38:45Z</time>
      </trkpt>
      <trkpt lat="43.33316" lon="5.77521">
        <ele>739</ele>
        <time>2025-10-05T07:38:46Z</time>
      </trkpt>
      <trkpt lat="43.33316" lon="5.77523">
        <ele>739.1</ele>
        <time>2025-10-05T07:38:47Z</time>
      </trkpt>
      <trkpt lat="43.33316" lon="5.77525">
        <ele>739</ele>
        <time>2025-10-05T07:38:48Z</time>
      </trkpt>
      <trkpt lat="43.33316" lon="5.77526">
        <ele>739</ele>
        <time>2025-10-05T07:38:49Z</time>
      </trkpt>
      <trkpt lat="43.33316" lon="5.77528">
        <ele>738.9</ele>
        <time>2025-10-05T07:38:50Z</time>
      </trkpt>
      <trkpt lat="43.33316" lon="5.77529">
        <ele>739</ele>
        <time>2025-10-05T07:38:51Z</time>
      </trkpt>
      <trkpt lat="43.33318" lon="5.77529">
        <ele>739.1</ele>
        <time>2025-10-05T07:38:52Z</time>
      </trkpt>
      <trkpt lat="43.33317" lon="5.77531">
        <ele>739.2</ele>
        <time>2025-10-05T07:38:53Z</time>
      </trkpt>
      <trkpt lat="43.33317" lon="5.77533">
        <ele>739.2</ele>
        <time>2025-10-05T07:38:54Z</time>
      </trkpt>
      <trkpt lat="43.33318" lon="5.77534">
        <ele>739.4</ele>
        <time>2025-10-05T07:38:55Z</time>
      </trkpt>
      <trkpt lat="43.33318" lon="5.77535">
        <ele>739.3</ele>
        <time>2025-10-05T07:38:56Z</time>
      </trkpt>
      <trkpt lat="43.33319" lon="5.77536">
        <ele>739.3</ele>
        <time>2025-10-05T07:38:57Z</time>
      </trkpt>
      <trkpt lat="43.33319" lon="5.77538">
        <ele>739.3</ele>
        <time>2025-10-05T07:38:58Z</time>
      </trkpt>
      <trkpt lat="43.3332" lon="5.77538">
        <ele>739.2</ele>
        <time>2025-10-05T07:38:59Z</time>
      </trkpt>
      <trkpt lat="43.3332" lon="5.77539">
        <ele>739.2</ele>
        <time>2025-10-05T07:39:00Z</time>
      </trkpt>
      <trkpt lat="43.33321" lon="5.7754">
        <ele>739.2</ele>
        <time>2025-10-05T07:39:01Z</time>
      </trkpt>
      <trkpt lat="43.33321" lon="5.77542">
        <ele>739.1</ele>
        <time>2025-10-05T07:39:02Z</time>
      </trkpt>
      <trkpt lat="43.33321" lon="5.77544">
        <ele>739.1</ele>
        <time>2025-10-05T07:39:03Z</time>
      </trkpt>
      <trkpt lat="43.33321" lon="5.77544">
        <ele>739</ele>
        <time>2025-10-05T07:39:04Z</time>
      </trkpt>
      <trkpt lat="43.33321" lon="5.77547">
        <ele>739</ele>
        <time>2025-10-05T07:39:05Z</time>
      </trkpt>
      <trkpt lat="43.33321" lon="5.77548">
        <ele>739</ele>
        <time>2025-10-05T07:39:06Z</time>
      </trkpt>
      <trkpt lat="43.33322" lon="5.77549">
        <ele>739.1</ele>
        <time>2025-10-05T07:39:07Z</time>
      </trkpt>
      <trkpt lat="43.33323" lon="5.7755">
        <ele>739</ele>
        <time>2025-10-05T07:39:08Z</time>
      </trkpt>
      <trkpt lat="43.33323" lon="5.7755">
        <ele>738.9</ele>
        <time>2025-10-05T07:39:09Z</time>
      </trkpt>
      <trkpt lat="43.33324" lon="5.77552">
        <ele>739</ele>
        <time>2025-10-05T07:39:10Z</time>
      </trkpt>
      <trkpt lat="43.33325" lon="5.77553">
        <ele>739</ele>
        <time>2025-10-05T07:39:11Z</time>
      </trkpt>
      <trkpt lat="43.33325" lon="5.77554">
        <ele>739.1</ele>
        <time>2025-10-05T07:39:12Z</time>
      </trkpt>
      <trkpt lat="43.33326" lon="5.77555">
        <ele>739.2</ele>
        <time>2025-10-05T07:39:13Z</time>
      </trkpt>
      <trkpt lat="43.33326" lon="5.77555">
        <ele>739.2</ele>
        <time>2025-10-05T07:39:14Z</time>
      </trkpt>
      <trkpt lat="43.33326" lon="5.77556">
        <ele>739.1</ele>
        <time>2025-10-05T07:39:15Z</time>
      </trkpt>
      <trkpt lat="43.33326" lon="5.77558">
        <ele>739.1</ele>
        <time>2025-10-05T07:39:16Z</time>
      </trkpt>
      <trkpt lat="43.33326" lon="5.77559">
        <ele>739.3</ele>
        <time>2025-10-05T07:39:17Z</time>
      </trkpt>
      <trkpt lat="43.33325" lon="5.7756">
        <ele>739.5</ele>
        <time>2025-10-05T07:39:18Z</time>
      </trkpt>
      <trkpt lat="43.33326" lon="5.77561">
        <ele>739.5</ele>
        <time>2025-10-05T07:39:19Z</time>
      </trkpt>
      <trkpt lat="43.33326" lon="5.77563">
        <ele>739.7</ele>
        <time>2025-10-05T07:39:20Z</time>
      </trkpt>
      <trkpt lat="43.33327" lon="5.77564">
        <ele>739.8</ele>
        <time>2025-10-05T07:39:21Z</time>
      </trkpt>
      <trkpt lat="43.33327" lon="5.77566">
        <ele>739.9</ele>
        <time>2025-10-05T07:39:22Z</time>
      </trkpt>
      <trkpt lat="43.33328" lon="5.77567">
        <ele>740</ele>
        <time>2025-10-05T07:39:23Z</time>
      </trkpt>
      <trkpt lat="43.33328" lon="5.77569">
        <ele>740</ele>
        <time>2025-10-05T07:39:24Z</time>
      </trkpt>
      <trkpt lat="43.33329" lon="5.7757">
        <ele>740.1</ele>
        <time>2025-10-05T07:39:25Z</time>
      </trkpt>
      <trkpt lat="43.33329" lon="5.77572">
        <ele>740.2</ele>
        <time>2025-10-05T07:39:26Z</time>
      </trkpt>
      <trkpt lat="43.33329" lon="5.77574">
        <ele>740.2</ele>
        <time>2025-10-05T07:39:27Z</time>
      </trkpt>
      <trkpt lat="43.33329" lon="5.77576">
        <ele>740.2</ele>
        <time>2025-10-05T07:39:28Z</time>
      </trkpt>
      <trkpt lat="43.33329" lon="5.77577">
        <ele>740.4</ele>
        <time>2025-10-05T07:39:29Z</time>
      </trkpt>
      <trkpt lat="43.3333" lon="5.77578">
        <ele>740.5</ele>
        <time>2025-10-05T07:39:30Z</time>
      </trkpt>
      <trkpt lat="43.3333" lon="5.77578">
        <ele>740.5</ele>
        <time>2025-10-05T07:39:31Z</time>
      </trkpt>
      <trkpt lat="43.33331" lon="5.77579">
        <ele>740.4</ele>
        <time>2025-10-05T07:39:32Z</time>
      </trkpt>
      <trkpt lat="43.33331" lon="5.7758">
        <ele>740.5</ele>
        <time>2025-10-05T07:39:33Z</time>
      </trkpt>
      <trkpt lat="43.33332" lon="5.77581">
        <ele>740.6</ele>
        <time>2025-10-05T07:39:34Z</time>
      </trkpt>
      <trkpt lat="43.33332" lon="5.77583">
        <ele>740.7</ele>
        <time>2025-10-05T07:39:35Z</time>
      </trkpt>
      <trkpt lat="43.33332" lon="5.77585">
        <ele>740.7</ele>
        <time>2025-10-05T07:39:36Z</time>
      </trkpt>
      <trkpt lat="43.33332" lon="5.77587">
        <ele>740.8</ele>
        <time>2025-10-05T07:39:37Z</time>
      </trkpt>
      <trkpt lat="43.33332" lon="5.77589">
        <ele>740.8</ele>
        <time>2025-10-05T07:39:38Z</time>
      </trkpt>
      <trkpt lat="43.33332" lon="5.77591">
        <ele>740.9</ele>
        <time>2025-10-05T07:39:39Z</time>
      </trkpt>
      <trkpt lat="43.33332" lon="5.77593">
        <ele>741</ele>
        <time>2025-10-05T07:39:40Z</time>
      </trkpt>
      <trkpt lat="43.33331" lon="5.77596">
        <ele>741</ele>
        <time>2025-10-05T07:39:41Z</time>
      </trkpt>
      <trkpt lat="43.33331" lon="5.77597">
        <ele>741.1</ele>
        <time>2025-10-05T07:39:42Z</time>
      </trkpt>
      <trkpt lat="43.33332" lon="5.77599">
        <ele>741.1</ele>
        <time>2025-10-05T07:39:43Z</time>
      </trkpt>
      <trkpt lat="43.33333" lon="5.77599">
        <ele>741.3</ele>
        <time>2025-10-05T07:39:44Z</time>
      </trkpt>
      <trkpt lat="43.33333" lon="5.77601">
        <ele>741.4</ele>
        <time>2025-10-05T07:39:45Z</time>
      </trkpt>
      <trkpt lat="43.33334" lon="5.77602">
        <ele>741.4</ele>
        <time>2025-10-05T07:39:46Z</time>
      </trkpt>
      <trkpt lat="43.33335" lon="5.77602">
        <ele>741.3</ele>
        <time>2025-10-05T07:39:47Z</time>
      </trkpt>
      <trkpt lat="43.33336" lon="5.77603">
        <ele>741.4</ele>
        <time>2025-10-05T07:39:48Z</time>
      </trkpt>
      <trkpt lat="43.33336" lon="5.77605">
        <ele>741.5</ele>
        <time>2025-10-05T07:39:49Z</time>
      </trkpt>
      <trkpt lat="43.33337" lon="5.77606">
        <ele>741.5</ele>
        <time>2025-10-05T07:39:50Z</time>
      </trkpt>
      <trkpt lat="43.33337" lon="5.77607">
        <ele>741.4</ele>
        <time>2025-10-05T07:39:51Z</time>
      </trkpt>
      <trkpt lat="43.33338" lon="5.77608">
        <ele>741.3</ele>
        <time>2025-10-05T07:39:52Z</time>
      </trkpt>
      <trkpt lat="43.33339" lon="5.7761">
        <ele>741.2</ele>
        <time>2025-10-05T07:39:53Z</time>
      </trkpt>
      <trkpt lat="43.3334" lon="5.7761">
        <ele>741.1</ele>
        <time>2025-10-05T07:39:54Z</time>
      </trkpt>
      <trkpt lat="43.3334" lon="5.77612">
        <ele>741.1</ele>
        <time>2025-10-05T07:39:55Z</time>
      </trkpt>
      <trkpt lat="43.33342" lon="5.77612">
        <ele>741.2</ele>
        <time>2025-10-05T07:39:56Z</time>
      </trkpt>
      <trkpt lat="43.33343" lon="5.77612">
        <ele>741.3</ele>
        <time>2025-10-05T07:39:57Z</time>
      </trkpt>
      <trkpt lat="43.33343" lon="5.77614">
        <ele>741.4</ele>
        <time>2025-10-05T07:39:58Z</time>
      </trkpt>
      <trkpt lat="43.33343" lon="5.77616">
        <ele>741.4</ele>
        <time>2025-10-05T07:39:59Z</time>
      </trkpt>
      <trkpt lat="43.33344" lon="5.77617">
        <ele>741.6</ele>
        <time>2025-10-05T07:40:00Z</time>
      </trkpt>
      <trkpt lat="43.33344" lon="5.77619">
        <ele>741.7</ele>
        <time>2025-10-05T07:40:01Z</time>
      </trkpt>
      <trkpt lat="43.33345" lon="5.7762">
        <ele>741.7</ele>
        <time>2025-10-05T07:40:02Z</time>
      </trkpt>
      <trkpt lat="43.33346" lon="5.77621">
        <ele>741.8</ele>
        <time>2025-10-05T07:40:03Z</time>
      </trkpt>
      <trkpt lat="43.33347" lon="5.77621">
        <ele>741.8</ele>
        <time>2025-10-05T07:40:04Z</time>
      </trkpt>
      <trkpt lat="43.33349" lon="5.77621">
        <ele>741.9</ele>
        <time>2025-10-05T07:40:05Z</time>
      </trkpt>
      <trkpt lat="43.33349" lon="5.77621">
        <ele>741.9</ele>
        <time>2025-10-05T07:40:06Z</time>
      </trkpt>
      <trkpt lat="43.3335" lon="5.77623">
        <ele>741.9</ele>
        <time>2025-10-05T07:40:07Z</time>
      </trkpt>
      <trkpt lat="43.3335" lon="5.77624">
        <ele>741.9</ele>
        <time>2025-10-05T07:40:08Z</time>
      </trkpt>
      <trkpt lat="43.3335" lon="5.77626">
        <ele>741.8</ele>
        <time>2025-10-05T07:40:09Z</time>
      </trkpt>
      <trkpt lat="43.3335" lon="5.77628">
        <ele>741.8</ele>
        <time>2025-10-05T07:40:10Z</time>
      </trkpt>
      <trkpt lat="43.33351" lon="5.77628">
        <ele>741.8</ele>
        <time>2025-10-05T07:40:11Z</time>
      </trkpt>
      <trkpt lat="43.33351" lon="5.77629">
        <ele>741.7</ele>
        <time>2025-10-05T07:40:12Z</time>
      </trkpt>
      <trkpt lat="43.33352" lon="5.77629">
        <ele>741.9</ele>
        <time>2025-10-05T07:40:13Z</time>
      </trkpt>
      <trkpt lat="43.33352" lon="5.77631">
        <ele>741.8</ele>
        <time>2025-10-05T07:40:14Z</time>
      </trkpt>
      <trkpt lat="43.33353" lon="5.77632">
        <ele>741.7</ele>
        <time>2025-10-05T07:40:15Z</time>
      </trkpt>
      <trkpt lat="43.33353" lon="5.77634">
        <ele>741.7</ele>
        <time>2025-10-05T07:40:16Z</time>
      </trkpt>
      <trkpt lat="43.33354" lon="5.77635">
        <ele>741.7</ele>
        <time>2025-10-05T07:40:17Z</time>
      </trkpt>
      <trkpt lat="43.33354" lon="5.77637">
        <ele>741.6</ele>
        <time>2025-10-05T07:40:18Z</time>
      </trkpt>
      <trkpt lat="43.33354" lon="5.7764">
        <ele>741.7</ele>
        <time>2025-10-05T07:40:19Z</time>
      </trkpt>
      <trkpt lat="43.33355" lon="5.77642">
        <ele>741.8</ele>
        <time>2025-10-05T07:40:20Z</time>
      </trkpt>
      <trkpt lat="43.33356" lon="5.77644">
        <ele>741.8</ele>
        <time>2025-10-05T07:40:21Z</time>
      </trkpt>
      <trkpt lat="43.33356" lon="5.77646">
        <ele>741.9</ele>
        <time>2025-10-05T07:40:22Z</time>
      </trkpt>
      <trkpt lat="43.33355" lon="5.77648">
        <ele>741.9</ele>
        <time>2025-10-05T07:40:23Z</time>
      </trkpt>
      <trkpt lat="43.33355" lon="5.77649">
        <ele>741.9</ele>
        <time>2025-10-05T07:40:24Z</time>
      </trkpt>
      <trkpt lat="43.33355" lon="5.77648">
        <ele>742</ele>
        <time>2025-10-05T07:40:25Z</time>
      </trkpt>
      <trkpt lat="43.33356" lon="5.77649">
        <ele>742</ele>
        <time>2025-10-05T07:40:26Z</time>
      </trkpt>
      <trkpt lat="43.33356" lon="5.7765">
        <ele>742</ele>
        <time>2025-10-05T07:40:27Z</time>
      </trkpt>
      <trkpt lat="43.33357" lon="5.7765">
        <ele>742</ele>
        <time>2025-10-05T07:40:28Z</time>
      </trkpt>
      <trkpt lat="43.33357" lon="5.77651">
        <ele>742</ele>
        <time>2025-10-05T07:40:29Z</time>
      </trkpt>
      <trkpt lat="43.33356" lon="5.77652">
        <ele>742</ele>
        <time>2025-10-05T07:40:30Z</time>
      </trkpt>
      <trkpt lat="43.33356" lon="5.77653">
        <ele>742</ele>
        <time>2025-10-05T07:40:31Z</time>
      </trkpt>
      <trkpt lat="43.33359" lon="5.77653">
        <ele>742</ele>
        <time>2025-10-05T07:40:32Z</time>
      </trkpt>
      <trkpt lat="43.3336" lon="5.77652">
        <ele>741.9</ele>
        <time>2025-10-05T07:40:33Z</time>
      </trkpt>
      <trkpt lat="43.3336" lon="5.77652">
        <ele>742</ele>
        <time>2025-10-05T07:40:34Z</time>
      </trkpt>
      <trkpt lat="43.3336" lon="5.77653">
        <ele>742.1</ele>
        <time>2025-10-05T07:40:35Z</time>
      </trkpt>
      <trkpt lat="43.3336" lon="5.77654">
        <ele>742.2</ele>
        <time>2025-10-05T07:40:36Z</time>
      </trkpt>
      <trkpt lat="43.33361" lon="5.77655">
        <ele>742.2</ele>
        <time>2025-10-05T07:40:37Z</time>
      </trkpt>
      <trkpt lat="43.33361" lon="5.77655">
        <ele>742.2</ele>
        <time>2025-10-05T07:40:38Z</time>
      </trkpt>
      <trkpt lat="43.33361" lon="5.77656">
        <ele>742.2</ele>
        <time>2025-10-05T07:40:39Z</time>
      </trkpt>
      <trkpt lat="43.33361" lon="5.77657">
        <ele>742.2</ele>
        <time>2025-10-05T07:40:40Z</time>
      </trkpt>
      <trkpt lat="43.33362" lon="5.77659">
        <ele>742.2</ele>
        <time>2025-10-05T07:40:41Z</time>
      </trkpt>
      <trkpt lat="43.33363" lon="5.7766">
        <ele>742.2</ele>
        <time>2025-10-05T07:40:42Z</time>
      </trkpt>
      <trkpt lat="43.33363" lon="5.77661">
        <ele>742.4</ele>
        <time>2025-10-05T07:40:43Z</time>
      </trkpt>
      <trkpt lat="43.33362" lon="5.77664">
        <ele>742.4</ele>
        <time>2025-10-05T07:40:44Z</time>
      </trkpt>
      <trkpt lat="43.33363" lon="5.77665">
        <ele>742.5</ele>
        <time>2025-10-05T07:40:45Z</time>
      </trkpt>
      <trkpt lat="43.33363" lon="5.77666">
        <ele>742.6</ele>
        <time>2025-10-05T07:40:46Z</time>
      </trkpt>
      <trkpt lat="43.33363" lon="5.77667">
        <ele>742.7</ele>
        <time>2025-10-05T07:40:47Z</time>
      </trkpt>
      <trkpt lat="43.33365" lon="5.7767">
        <ele>742.8</ele>
        <time>2025-10-05T07:40:48Z</time>
      </trkpt>
      <trkpt lat="43.33364" lon="5.77671">
        <ele>742.9</ele>
        <time>2025-10-05T07:40:49Z</time>
      </trkpt>
      <trkpt lat="43.33365" lon="5.77673">
        <ele>743</ele>
        <time>2025-10-05T07:40:50Z</time>
      </trkpt>
      <trkpt lat="43.33366" lon="5.77675">
        <ele>743.2</ele>
        <time>2025-10-05T07:40:51Z</time>
      </trkpt>
      <trkpt lat="43.33365" lon="5.77676">
        <ele>743.3</ele>
        <time>2025-10-05T07:40:52Z</time>
      </trkpt>
      <trkpt lat="43.33365" lon="5.77678">
        <ele>743.4</ele>
        <time>2025-10-05T07:40:53Z</time>
      </trkpt>
      <trkpt lat="43.33364" lon="5.77681">
        <ele>743.3</ele>
        <time>2025-10-05T07:40:54Z</time>
      </trkpt>
      <trkpt lat="43.33364" lon="5.77683">
        <ele>743.4</ele>
        <time>2025-10-05T07:40:55Z</time>
      </trkpt>
      <trkpt lat="43.33365" lon="5.77683">
        <ele>743.5</ele>
        <time>2025-10-05T07:40:56Z</time>
      </trkpt>
      <trkpt lat="43.33365" lon="5.77685">
        <ele>743.5</ele>
        <time>2025-10-05T07:40:57Z</time>
      </trkpt>
      <trkpt lat="43.33365" lon="5.77686">
        <ele>743.5</ele>
        <time>2025-10-05T07:40:58Z</time>
      </trkpt>
      <trkpt lat="43.33366" lon="5.77687">
        <ele>743.5</ele>
        <time>2025-10-05T07:40:59Z</time>
      </trkpt>
      <trkpt lat="43.33366" lon="5.77689">
        <ele>743.6</ele>
        <time>2025-10-05T07:41:00Z</time>
      </trkpt>
      <trkpt lat="43.33366" lon="5.77689">
        <ele>743.6</ele>
        <time>2025-10-05T07:41:01Z</time>
      </trkpt>
      <trkpt lat="43.33366" lon="5.77689">
        <ele>743.6</ele>
        <time>2025-10-05T07:41:02Z</time>
      </trkpt>
      <trkpt lat="43.33367" lon="5.77689">
        <ele>743.5</ele>
        <time>2025-10-05T07:41:03Z</time>
      </trkpt>
      <trkpt lat="43.33367" lon="5.77692">
        <ele>743.5</ele>
        <time>2025-10-05T07:41:04Z</time>
      </trkpt>
      <trkpt lat="43.33368" lon="5.77693">
        <ele>743.5</ele>
        <time>2025-10-05T07:41:05Z</time>
      </trkpt>
      <trkpt lat="43.33369" lon="5.77695">
        <ele>743.5</ele>
        <time>2025-10-05T07:41:06Z</time>
      </trkpt>
      <trkpt lat="43.33369" lon="5.77696">
        <ele>743.6</ele>
        <time>2025-10-05T07:41:07Z</time>
      </trkpt>
      <trkpt lat="43.33369" lon="5.77697">
        <ele>743.6</ele>
        <time>2025-10-05T07:41:08Z</time>
      </trkpt>
      <trkpt lat="43.3337" lon="5.77698">
        <ele>743.6</ele>
        <time>2025-10-05T07:41:09Z</time>
      </trkpt>
      <trkpt lat="43.3337" lon="5.777">
        <ele>743.6</ele>
        <time>2025-10-05T07:41:10Z</time>
      </trkpt>
      <trkpt lat="43.33371" lon="5.77701">
        <ele>743.7</ele>
        <time>2025-10-05T07:41:11Z</time>
      </trkpt>
      <trkpt lat="43.33371" lon="5.77703">
        <ele>743.7</ele>
        <time>2025-10-05T07:41:12Z</time>
      </trkpt>
      <trkpt lat="43.33372" lon="5.77706">
        <ele>743.7</ele>
        <time>2025-10-05T07:41:13Z</time>
      </trkpt>
      <trkpt lat="43.33372" lon="5.77707">
        <ele>743.7</ele>
        <time>2025-10-05T07:41:14Z</time>
      </trkpt>
      <trkpt lat="43.33373" lon="5.77707">
        <ele>743.7</ele>
        <time>2025-10-05T07:41:15Z</time>
      </trkpt>
      <trkpt lat="43.33373" lon="5.77708">
        <ele>743.7</ele>
        <time>2025-10-05T07:41:16Z</time>
      </trkpt>
      <trkpt lat="43.33373" lon="5.77709">
        <ele>743.7</ele>
        <time>2025-10-05T07:41:17Z</time>
      </trkpt>
      <trkpt lat="43.33373" lon="5.77711">
        <ele>743.8</ele>
        <time>2025-10-05T07:41:18Z</time>
      </trkpt>
      <trkpt lat="43.33374" lon="5.77713">
        <ele>743.6</ele>
        <time>2025-10-05T07:41:19Z</time>
      </trkpt>
      <trkpt lat="43.33374" lon="5.77714">
        <ele>743.6</ele>
        <time>2025-10-05T07:41:20Z</time>
      </trkpt>
      <trkpt lat="43.33375" lon="5.77715">
        <ele>743.5</ele>
        <time>2025-10-05T07:41:21Z</time>
      </trkpt>
      <trkpt lat="43.33376" lon="5.77717">
        <ele>743.5</ele>
        <time>2025-10-05T07:41:22Z</time>
      </trkpt>
      <trkpt lat="43.33375" lon="5.77719">
        <ele>743.4</ele>
        <time>2025-10-05T07:41:23Z</time>
      </trkpt>
      <trkpt lat="43.33376" lon="5.77721">
        <ele>743.5</ele>
        <time>2025-10-05T07:41:24Z</time>
      </trkpt>
      <trkpt lat="43.33377" lon="5.77722">
        <ele>743.4</ele>
        <time>2025-10-05T07:41:25Z</time>
      </trkpt>
      <trkpt lat="43.33378" lon="5.77723">
        <ele>743.4</ele>
        <time>2025-10-05T07:41:26Z</time>
      </trkpt>
      <trkpt lat="43.33378" lon="5.77724">
        <ele>743.4</ele>
        <time>2025-10-05T07:41:27Z</time>
      </trkpt>
      <trkpt lat="43.33379" lon="5.77724">
        <ele>743.4</ele>
        <time>2025-10-05T07:41:28Z</time>
      </trkpt>
      <trkpt lat="43.33379" lon="5.77726">
        <ele>743.5</ele>
        <time>2025-10-05T07:41:29Z</time>
      </trkpt>
      <trkpt lat="43.33381" lon="5.77727">
        <ele>743.6</ele>
        <time>2025-10-05T07:41:30Z</time>
      </trkpt>
      <trkpt lat="43.3338" lon="5.77729">
        <ele>743.6</ele>
        <time>2025-10-05T07:41:31Z</time>
      </trkpt>
      <trkpt lat="43.3338" lon="5.77731">
        <ele>743.7</ele>
        <time>2025-10-05T07:41:32Z</time>
      </trkpt>
      <trkpt lat="43.3338" lon="5.77732">
        <ele>743.8</ele>
        <time>2025-10-05T07:41:33Z</time>
      </trkpt>
      <trkpt lat="43.3338" lon="5.77733">
        <ele>743.8</ele>
        <time>2025-10-05T07:41:34Z</time>
      </trkpt>
      <trkpt lat="43.3338" lon="5.77735">
        <ele>743.9</ele>
        <time>2025-10-05T07:41:35Z</time>
      </trkpt>
      <trkpt lat="43.33381" lon="5.77737">
        <ele>743.9</ele>
        <time>2025-10-05T07:41:36Z</time>
      </trkpt>
      <trkpt lat="43.33381" lon="5.77738">
        <ele>744</ele>
        <time>2025-10-05T07:41:37Z</time>
      </trkpt>
      <trkpt lat="43.33382" lon="5.7774">
        <ele>744</ele>
        <time>2025-10-05T07:41:38Z</time>
      </trkpt>
      <trkpt lat="43.33383" lon="5.77741">
        <ele>744.1</ele>
        <time>2025-10-05T07:41:39Z</time>
      </trkpt>
      <trkpt lat="43.33383" lon="5.77743">
        <ele>744.1</ele>
        <time>2025-10-05T07:41:40Z</time>
      </trkpt>
      <trkpt lat="43.33384" lon="5.77744">
        <ele>744.1</ele>
        <time>2025-10-05T07:41:41Z</time>
      </trkpt>
      <trkpt lat="43.33384" lon="5.77746">
        <ele>744.1</ele>
        <time>2025-10-05T07:41:42Z</time>
      </trkpt>
      <trkpt lat="43.33385" lon="5.77747">
        <ele>744.3</ele>
        <time>2025-10-05T07:41:43Z</time>
      </trkpt>
      <trkpt lat="43.33385" lon="5.77749">
        <ele>744.3</ele>
        <time>2025-10-05T07:41:44Z</time>
      </trkpt>
      <trkpt lat="43.33386" lon="5.7775">
        <ele>744.4</ele>
        <time>2025-10-05T07:41:45Z</time>
      </trkpt>
      <trkpt lat="43.33386" lon="5.77753">
        <ele>744.5</ele>
        <time>2025-10-05T07:41:46Z</time>
      </trkpt>
      <trkpt lat="43.33387" lon="5.77754">
        <ele>744.6</ele>
        <time>2025-10-05T07:41:47Z</time>
      </trkpt>
      <trkpt lat="43.33388" lon="5.77755">
        <ele>744.6</ele>
        <time>2025-10-05T07:41:48Z</time>
      </trkpt>
      <trkpt lat="43.33389" lon="5.77755">
        <ele>744.7</ele>
        <time>2025-10-05T07:41:49Z</time>
      </trkpt>
      <trkpt lat="43.33389" lon="5.77757">
        <ele>744.6</ele>
        <time>2025-10-05T07:41:50Z</time>
      </trkpt>
      <trkpt lat="43.33389" lon="5.77759">
        <ele>744.5</ele>
        <time>2025-10-05T07:41:51Z</time>
      </trkpt>
      <trkpt lat="43.33389" lon="5.77761">
        <ele>744.4</ele>
        <time>2025-10-05T07:41:52Z</time>
      </trkpt>
      <trkpt lat="43.33389" lon="5.77763">
        <ele>744.4</ele>
        <time>2025-10-05T07:41:53Z</time>
      </trkpt>
      <trkpt lat="43.3339" lon="5.77764">
        <ele>744.4</ele>
        <time>2025-10-05T07:41:54Z</time>
      </trkpt>
      <trkpt lat="43.3339" lon="5.77765">
        <ele>744.4</ele>
        <time>2025-10-05T07:41:55Z</time>
      </trkpt>
      <trkpt lat="43.33391" lon="5.77766">
        <ele>744.4</ele>
        <time>2025-10-05T07:41:56Z</time>
      </trkpt>
      <trkpt lat="43.33392" lon="5.77766">
        <ele>744.4</ele>
        <time>2025-10-05T07:41:57Z</time>
      </trkpt>
      <trkpt lat="43.33393" lon="5.77767">
        <ele>744.4</ele>
        <time>2025-10-05T07:41:58Z</time>
      </trkpt>
      <trkpt lat="43.33394" lon="5.77768">
        <ele>744.5</ele>
        <time>2025-10-05T07:41:59Z</time>
      </trkpt>
      <trkpt lat="43.33394" lon="5.77769">
        <ele>744.6</ele>
        <time>2025-10-05T07:42:00Z</time>
      </trkpt>
      <trkpt lat="43.33395" lon="5.7777">
        <ele>744.6</ele>
        <time>2025-10-05T07:42:01Z</time>
      </trkpt>
      <trkpt lat="43.33396" lon="5.77771">
        <ele>744.8</ele>
        <time>2025-10-05T07:42:02Z</time>
      </trkpt>
      <trkpt lat="43.33397" lon="5.77771">
        <ele>745</ele>
        <time>2025-10-05T07:42:03Z</time>
      </trkpt>
      <trkpt lat="43.33399" lon="5.77771">
        <ele>745.2</ele>
        <time>2025-10-05T07:42:04Z</time>
      </trkpt>
      <trkpt lat="43.334" lon="5.77772">
        <ele>745.3</ele>
        <time>2025-10-05T07:42:05Z</time>
      </trkpt>
      <trkpt lat="43.334" lon="5.77773">
        <ele>745.5</ele>
        <time>2025-10-05T07:42:06Z</time>
      </trkpt>
      <trkpt lat="43.334" lon="5.77774">
        <ele>745.6</ele>
        <time>2025-10-05T07:42:07Z</time>
      </trkpt>
      <trkpt lat="43.33401" lon="5.77776">
        <ele>745.7</ele>
        <time>2025-10-05T07:42:08Z</time>
      </trkpt>
      <trkpt lat="43.33401" lon="5.77778">
        <ele>745.8</ele>
        <time>2025-10-05T07:42:09Z</time>
      </trkpt>
      <trkpt lat="43.33402" lon="5.77779">
        <ele>745.9</ele>
        <time>2025-10-05T07:42:10Z</time>
      </trkpt>
      <trkpt lat="43.33402" lon="5.77781">
        <ele>745.8</ele>
        <time>2025-10-05T07:42:11Z</time>
      </trkpt>
      <trkpt lat="43.33403" lon="5.77782">
        <ele>745.8</ele>
        <time>2025-10-05T07:42:12Z</time>
      </trkpt>
      <trkpt lat="43.33403" lon="5.77783">
        <ele>745.8</ele>
        <time>2025-10-05T07:42:13Z</time>
      </trkpt>
      <trkpt lat="43.33403" lon="5.77783">
        <ele>745.7</ele>
        <time>2025-10-05T07:42:14Z</time>
      </trkpt>
      <trkpt lat="43.33404" lon="5.77784">
        <ele>745.7</ele>
        <time>2025-10-05T07:42:15Z</time>
      </trkpt>
      <trkpt lat="43.33404" lon="5.77785">
        <ele>745.6</ele>
        <time>2025-10-05T07:42:16Z</time>
      </trkpt>
      <trkpt lat="43.33404" lon="5.77787">
        <ele>745.6</ele>
        <time>2025-10-05T07:42:17Z</time>
      </trkpt>
      <trkpt lat="43.33404" lon="5.7779">
        <ele>745.5</ele>
        <time>2025-10-05T07:42:18Z</time>
      </trkpt>
      <trkpt lat="43.33405" lon="5.77792">
        <ele>745.5</ele>
        <time>2025-10-05T07:42:19Z</time>
      </trkpt>
      <trkpt lat="43.33406" lon="5.77792">
        <ele>745.5</ele>
        <time>2025-10-05T07:42:20Z</time>
      </trkpt>
      <trkpt lat="43.33407" lon="5.77793">
        <ele>745.5</ele>
        <time>2025-10-05T07:42:21Z</time>
      </trkpt>
      <trkpt lat="43.33408" lon="5.77795">
        <ele>745.5</ele>
        <time>2025-10-05T07:42:22Z</time>
      </trkpt>
      <trkpt lat="43.33408" lon="5.77796">
        <ele>745.6</ele>
        <time>2025-10-05T07:42:23Z</time>
      </trkpt>
      <trkpt lat="43.33408" lon="5.77798">
        <ele>745.7</ele>
        <time>2025-10-05T07:42:24Z</time>
      </trkpt>
      <trkpt lat="43.33409" lon="5.778">
        <ele>745.7</ele>
        <time>2025-10-05T07:42:25Z</time>
      </trkpt>
      <trkpt lat="43.33409" lon="5.77802">
        <ele>745.8</ele>
        <time>2025-10-05T07:42:26Z</time>
      </trkpt>
      <trkpt lat="43.3341" lon="5.77804">
        <ele>745.9</ele>
        <time>2025-10-05T07:42:27Z</time>
      </trkpt>
      <trkpt lat="43.33411" lon="5.77805">
        <ele>746.1</ele>
        <time>2025-10-05T07:42:28Z</time>
      </trkpt>
      <trkpt lat="43.33411" lon="5.77806">
        <ele>746.1</ele>
        <time>2025-10-05T07:42:29Z</time>
      </trkpt>
      <trkpt lat="43.33412" lon="5.77807">
        <ele>746.3</ele>
        <time>2025-10-05T07:42:30Z</time>
      </trkpt>
      <trkpt lat="43.33412" lon="5.77809">
        <ele>746.4</ele>
        <time>2025-10-05T07:42:31Z</time>
      </trkpt>
      <trkpt lat="43.33412" lon="5.7781">
        <ele>746.5</ele>
        <time>2025-10-05T07:42:32Z</time>
      </trkpt>
      <trkpt lat="43.33413" lon="5.77811">
        <ele>746.5</ele>
        <time>2025-10-05T07:42:33Z</time>
      </trkpt>
      <trkpt lat="43.33412" lon="5.77811">
        <ele>746.6</ele>
        <time>2025-10-05T07:42:34Z</time>
      </trkpt>
      <trkpt lat="43.33412" lon="5.77813">
        <ele>746.6</ele>
        <time>2025-10-05T07:42:35Z</time>
      </trkpt>
      <trkpt lat="43.33412" lon="5.77813">
        <ele>746.6</ele>
        <time>2025-10-05T07:42:36Z</time>
      </trkpt>
      <trkpt lat="43.33412" lon="5.77814">
        <ele>746.7</ele>
        <time>2025-10-05T07:42:37Z</time>
      </trkpt>
      <trkpt lat="43.33413" lon="5.77814">
        <ele>746.7</ele>
        <time>2025-10-05T07:42:38Z</time>
      </trkpt>
      <trkpt lat="43.33413" lon="5.77815">
        <ele>746.9</ele>
        <time>2025-10-05T07:42:39Z</time>
      </trkpt>
      <trkpt lat="43.33413" lon="5.77817">
        <ele>747.1</ele>
        <time>2025-10-05T07:42:40Z</time>
      </trkpt>
      <trkpt lat="43.33413" lon="5.77818">
        <ele>747.2</ele>
        <time>2025-10-05T07:42:41Z</time>
      </trkpt>
      <trkpt lat="43.33413" lon="5.77819">
        <ele>747.3</ele>
        <time>2025-10-05T07:42:42Z</time>
      </trkpt>
      <trkpt lat="43.33414" lon="5.7782">
        <ele>747.5</ele>
        <time>2025-10-05T07:42:43Z</time>
      </trkpt>
      <trkpt lat="43.33413" lon="5.77822">
        <ele>747.6</ele>
        <time>2025-10-05T07:42:44Z</time>
      </trkpt>
      <trkpt lat="43.33414" lon="5.77824">
        <ele>747.7</ele>
        <time>2025-10-05T07:42:45Z</time>
      </trkpt>
      <trkpt lat="43.33414" lon="5.77825">
        <ele>747.8</ele>
        <time>2025-10-05T07:42:46Z</time>
      </trkpt>
      <trkpt lat="43.33414" lon="5.77826">
        <ele>747.8</ele>
        <time>2025-10-05T07:42:47Z</time>
      </trkpt>
      <trkpt lat="43.33414" lon="5.77828">
        <ele>747.9</ele>
        <time>2025-10-05T07:42:48Z</time>
      </trkpt>
      <trkpt lat="43.33415" lon="5.77829">
        <ele>748</ele>
        <time>2025-10-05T07:42:49Z</time>
      </trkpt>
      <trkpt lat="43.33415" lon="5.77831">
        <ele>748</ele>
        <time>2025-10-05T07:42:50Z</time>
      </trkpt>
      <trkpt lat="43.33415" lon="5.77832">
        <ele>748.1</ele>
        <time>2025-10-05T07:42:51Z</time>
      </trkpt>
      <trkpt lat="43.33416" lon="5.77833">
        <ele>748.1</ele>
        <time>2025-10-05T07:42:52Z</time>
      </trkpt>
      <trkpt lat="43.33417" lon="5.77834">
        <ele>748.2</ele>
        <time>2025-10-05T07:42:53Z</time>
      </trkpt>
      <trkpt lat="43.33417" lon="5.77835">
        <ele>748.2</ele>
        <time>2025-10-05T07:42:54Z</time>
      </trkpt>
      <trkpt lat="43.33417" lon="5.77836">
        <ele>748.3</ele>
        <time>2025-10-05T07:42:55Z</time>
      </trkpt>
      <trkpt lat="43.33418" lon="5.77836">
        <ele>748.3</ele>
        <time>2025-10-05T07:42:56Z</time>
      </trkpt>
      <trkpt lat="43.33418" lon="5.77837">
        <ele>748.3</ele>
        <time>2025-10-05T07:42:57Z</time>
      </trkpt>
      <trkpt lat="43.33419" lon="5.77837">
        <ele>748.3</ele>
        <time>2025-10-05T07:42:58Z</time>
      </trkpt>
      <trkpt lat="43.33419" lon="5.77839">
        <ele>748.2</ele>
        <time>2025-10-05T07:42:59Z</time>
      </trkpt>
      <trkpt lat="43.3342" lon="5.7784">
        <ele>748.1</ele>
        <time>2025-10-05T07:43:00Z</time>
      </trkpt>
      <trkpt lat="43.33421" lon="5.77841">
        <ele>747.9</ele>
        <time>2025-10-05T07:43:01Z</time>
      </trkpt>
      <trkpt lat="43.33421" lon="5.77842">
        <ele>747.8</ele>
        <time>2025-10-05T07:43:02Z</time>
      </trkpt>
      <trkpt lat="43.33422" lon="5.77843">
        <ele>747.7</ele>
        <time>2025-10-05T07:43:03Z</time>
      </trkpt>
      <trkpt lat="43.33423" lon="5.77844">
        <ele>747.5</ele>
        <time>2025-10-05T07:43:04Z</time>
      </trkpt>
      <trkpt lat="43.33424" lon="5.77845">
        <ele>747.4</ele>
        <time>2025-10-05T07:43:05Z</time>
      </trkpt>
      <trkpt lat="43.33425" lon="5.77846">
        <ele>747.2</ele>
        <time>2025-10-05T07:43:06Z</time>
      </trkpt>
      <trkpt lat="43.33425" lon="5.77847">
        <ele>747</ele>
        <time>2025-10-05T07:43:07Z</time>
      </trkpt>
      <trkpt lat="43.33425" lon="5.77847">
        <ele>746.8</ele>
        <time>2025-10-05T07:43:08Z</time>
      </trkpt>
      <trkpt lat="43.33426" lon="5.77848">
        <ele>746.6</ele>
        <time>2025-10-05T07:43:09Z</time>
      </trkpt>
      <trkpt lat="43.33427" lon="5.7785">
        <ele>746.5</ele>
        <time>2025-10-05T07:43:10Z</time>
      </trkpt>
      <trkpt lat="43.33428" lon="5.77851">
        <ele>746.2</ele>
        <time>2025-10-05T07:43:11Z</time>
      </trkpt>
      <trkpt lat="43.33428" lon="5.77851">
        <ele>746</ele>
        <time>2025-10-05T07:43:12Z</time>
      </trkpt>
      <trkpt lat="43.33429" lon="5.77852">
        <ele>745.9</ele>
        <time>2025-10-05T07:43:13Z</time>
      </trkpt>
      <trkpt lat="43.33429" lon="5.77854">
        <ele>745.8</ele>
        <time>2025-10-05T07:43:14Z</time>
      </trkpt>
      <trkpt lat="43.33429" lon="5.77856">
        <ele>745.7</ele>
        <time>2025-10-05T07:43:15Z</time>
      </trkpt>
      <trkpt lat="43.3343" lon="5.77857">
        <ele>745.6</ele>
        <time>2025-10-05T07:43:16Z</time>
      </trkpt>
      <trkpt lat="43.33431" lon="5.77859">
        <ele>745.6</ele>
        <time>2025-10-05T07:43:17Z</time>
      </trkpt>
      <trkpt lat="43.33431" lon="5.7786">
        <ele>745.5</ele>
        <time>2025-10-05T07:43:18Z</time>
      </trkpt>
      <trkpt lat="43.33433" lon="5.77861">
        <ele>745.5</ele>
        <time>2025-10-05T07:43:19Z</time>
      </trkpt>
      <trkpt lat="43.33433" lon="5.77862">
        <ele>745.5</ele>
        <time>2025-10-05T07:43:20Z</time>
      </trkpt>
      <trkpt lat="43.33434" lon="5.77863">
        <ele>745.6</ele>
        <time>2025-10-05T07:43:21Z</time>
      </trkpt>
      <trkpt lat="43.33435" lon="5.77863">
        <ele>745.6</ele>
        <time>2025-10-05T07:43:22Z</time>
      </trkpt>
      <trkpt lat="43.33435" lon="5.77864">
        <ele>745.5</ele>
        <time>2025-10-05T07:43:23Z</time>
      </trkpt>
      <trkpt lat="43.33437" lon="5.77864">
        <ele>745.5</ele>
        <time>2025-10-05T07:43:24Z</time>
      </trkpt>
      <trkpt lat="43.33436" lon="5.77865">
        <ele>745.6</ele>
        <time>2025-10-05T07:43:25Z</time>
      </trkpt>
      <trkpt lat="43.33438" lon="5.77866">
        <ele>745.6</ele>
        <time>2025-10-05T07:43:26Z</time>
      </trkpt>
      <trkpt lat="43.33439" lon="5.77867">
        <ele>745.6</ele>
        <time>2025-10-05T07:43:27Z</time>
      </trkpt>
      <trkpt lat="43.3344" lon="5.77868">
        <ele>745.6</ele>
        <time>2025-10-05T07:43:28Z</time>
      </trkpt>
      <trkpt lat="43.33441" lon="5.77869">
        <ele>745.6</ele>
        <time>2025-10-05T07:43:29Z</time>
      </trkpt>
      <trkpt lat="43.33441" lon="5.7787">
        <ele>745.6</ele>
        <time>2025-10-05T07:43:30Z</time>
      </trkpt>
      <trkpt lat="43.33442" lon="5.77871">
        <ele>745.6</ele>
        <time>2025-10-05T07:43:31Z</time>
      </trkpt>
      <trkpt lat="43.33443" lon="5.77873">
        <ele>745.6</ele>
        <time>2025-10-05T07:43:32Z</time>
      </trkpt>
      <trkpt lat="43.33444" lon="5.77874">
        <ele>745.5</ele>
        <time>2025-10-05T07:43:33Z</time>
      </trkpt>
      <trkpt lat="43.33446" lon="5.77874">
        <ele>745.4</ele>
        <time>2025-10-05T07:43:34Z</time>
      </trkpt>
      <trkpt lat="43.33447" lon="5.77875">
        <ele>745.3</ele>
        <time>2025-10-05T07:43:35Z</time>
      </trkpt>
      <trkpt lat="43.33448" lon="5.77876">
        <ele>745.2</ele>
        <time>2025-10-05T07:43:36Z</time>
      </trkpt>
      <trkpt lat="43.33448" lon="5.77876">
        <ele>745</ele>
        <time>2025-10-05T07:43:37Z</time>
      </trkpt>
      <trkpt lat="43.3345" lon="5.77877">
        <ele>745</ele>
        <time>2025-10-05T07:43:38Z</time>
      </trkpt>
      <trkpt lat="43.3345" lon="5.77878">
        <ele>744.8</ele>
        <time>2025-10-05T07:43:39Z</time>
      </trkpt>
      <trkpt lat="43.33451" lon="5.77879">
        <ele>744.8</ele>
        <time>2025-10-05T07:43:40Z</time>
      </trkpt>
      <trkpt lat="43.3345" lon="5.7788">
        <ele>744.8</ele>
        <time>2025-10-05T07:43:41Z</time>
      </trkpt>
      <trkpt lat="43.33451" lon="5.77881">
        <ele>744.8</ele>
        <time>2025-10-05T07:43:42Z</time>
      </trkpt>
      <trkpt lat="43.33452" lon="5.77882">
        <ele>744.7</ele>
        <time>2025-10-05T07:43:43Z</time>
      </trkpt>
      <trkpt lat="43.33452" lon="5.77884">
        <ele>744.6</ele>
        <time>2025-10-05T07:43:44Z</time>
      </trkpt>
      <trkpt lat="43.33453" lon="5.77884">
        <ele>744.4</ele>
        <time>2025-10-05T07:43:45Z</time>
      </trkpt>
      <trkpt lat="43.33453" lon="5.77886">
        <ele>744.2</ele>
        <time>2025-10-05T07:43:46Z</time>
      </trkpt>
      <trkpt lat="43.33454" lon="5.77887">
        <ele>744.2</ele>
        <time>2025-10-05T07:43:47Z</time>
      </trkpt>
      <trkpt lat="43.33454" lon="5.77889">
        <ele>744.1</ele>
        <time>2025-10-05T07:43:48Z</time>
      </trkpt>
      <trkpt lat="43.33456" lon="5.77889">
        <ele>744.1</ele>
        <time>2025-10-05T07:43:49Z</time>
      </trkpt>
      <trkpt lat="43.33456" lon="5.77891">
        <ele>744</ele>
        <time>2025-10-05T07:43:50Z</time>
      </trkpt>
      <trkpt lat="43.33457" lon="5.77892">
        <ele>744</ele>
        <time>2025-10-05T07:43:51Z</time>
      </trkpt>
      <trkpt lat="43.33456" lon="5.77894">
        <ele>744</ele>
        <time>2025-10-05T07:43:52Z</time>
      </trkpt>
      <trkpt lat="43.33457" lon="5.77895">
        <ele>744</ele>
        <time>2025-10-05T07:43:53Z</time>
      </trkpt>
      <trkpt lat="43.33459" lon="5.77896">
        <ele>744</ele>
        <time>2025-10-05T07:43:54Z</time>
      </trkpt>
      <trkpt lat="43.33459" lon="5.77897">
        <ele>744.1</ele>
        <time>2025-10-05T07:43:55Z</time>
      </trkpt>
      <trkpt lat="43.3346" lon="5.77898">
        <ele>744.3</ele>
        <time>2025-10-05T07:43:56Z</time>
      </trkpt>
      <trkpt lat="43.33461" lon="5.77899">
        <ele>744.4</ele>
        <time>2025-10-05T07:43:57Z</time>
      </trkpt>
      <trkpt lat="43.33462" lon="5.779">
        <ele>744.3</ele>
        <time>2025-10-05T07:43:58Z</time>
      </trkpt>
      <trkpt lat="43.33462" lon="5.77901">
        <ele>744.3</ele>
        <time>2025-10-05T07:43:59Z</time>
      </trkpt>
      <trkpt lat="43.33463" lon="5.77903">
        <ele>744.3</ele>
        <time>2025-10-05T07:44:00Z</time>
      </trkpt>
      <trkpt lat="43.33462" lon="5.77904">
        <ele>744.2</ele>
        <time>2025-10-05T07:44:01Z</time>
      </trkpt>
      <trkpt lat="43.33464" lon="5.77904">
        <ele>744.1</ele>
        <time>2025-10-05T07:44:02Z</time>
      </trkpt>
      <trkpt lat="43.33463" lon="5.77906">
        <ele>744.1</ele>
        <time>2025-10-05T07:44:03Z</time>
      </trkpt>
      <trkpt lat="43.33463" lon="5.77907">
        <ele>744.1</ele>
        <time>2025-10-05T07:44:04Z</time>
      </trkpt>
      <trkpt lat="43.33463" lon="5.77909">
        <ele>744.3</ele>
        <time>2025-10-05T07:44:05Z</time>
      </trkpt>
      <trkpt lat="43.33463" lon="5.7791">
        <ele>744.3</ele>
        <time>2025-10-05T07:44:06Z</time>
      </trkpt>
      <trkpt lat="43.33463" lon="5.77911">
        <ele>744.3</ele>
        <time>2025-10-05T07:44:07Z</time>
      </trkpt>
      <trkpt lat="43.33464" lon="5.77912">
        <ele>744.3</ele>
        <time>2025-10-05T07:44:08Z</time>
      </trkpt>
      <trkpt lat="43.33464" lon="5.77913">
        <ele>744.5</ele>
        <time>2025-10-05T07:44:09Z</time>
      </trkpt>
      <trkpt lat="43.33465" lon="5.77914">
        <ele>744.7</ele>
        <time>2025-10-05T07:44:10Z</time>
      </trkpt>
      <trkpt lat="43.33465" lon="5.77915">
        <ele>744.9</ele>
        <time>2025-10-05T07:44:11Z</time>
      </trkpt>
      <trkpt lat="43.33465" lon="5.77916">
        <ele>745.2</ele>
        <time>2025-10-05T07:44:12Z</time>
      </trkpt>
      <trkpt lat="43.33465" lon="5.77918">
        <ele>745.4</ele>
        <time>2025-10-05T07:44:13Z</time>
      </trkpt>
      <trkpt lat="43.33465" lon="5.77919">
        <ele>745.6</ele>
        <time>2025-10-05T07:44:14Z</time>
      </trkpt>
      <trkpt lat="43.33466" lon="5.77919">
        <ele>745.7</ele>
        <time>2025-10-05T07:44:15Z</time>
      </trkpt>
      <trkpt lat="43.33467" lon="5.7792">
        <ele>745.8</ele>
        <time>2025-10-05T07:44:16Z</time>
      </trkpt>
      <trkpt lat="43.33467" lon="5.77922">
        <ele>746</ele>
        <time>2025-10-05T07:44:17Z</time>
      </trkpt>
      <trkpt lat="43.33467" lon="5.77923">
        <ele>746.2</ele>
        <time>2025-10-05T07:44:18Z</time>
      </trkpt>
      <trkpt lat="43.33467" lon="5.77923">
        <ele>746.4</ele>
        <time>2025-10-05T07:44:19Z</time>
      </trkpt>
      <trkpt lat="43.33468" lon="5.77923">
        <ele>746.6</ele>
        <time>2025-10-05T07:44:20Z</time>
      </trkpt>
      <trkpt lat="43.33468" lon="5.77924">
        <ele>746.8</ele>
        <time>2025-10-05T07:44:21Z</time>
      </trkpt>
      <trkpt lat="43.33469" lon="5.77925">
        <ele>747</ele>
        <time>2025-10-05T07:44:22Z</time>
      </trkpt>
      <trkpt lat="43.33469" lon="5.77926">
        <ele>747.2</ele>
        <time>2025-10-05T07:44:23Z</time>
      </trkpt>
      <trkpt lat="43.33469" lon="5.77928">
        <ele>747.3</ele>
        <time>2025-10-05T07:44:24Z</time>
      </trkpt>
      <trkpt lat="43.33469" lon="5.77929">
        <ele>747.5</ele>
        <time>2025-10-05T07:44:25Z</time>
      </trkpt>
      <trkpt lat="43.33469" lon="5.77931">
        <ele>747.6</ele>
        <time>2025-10-05T07:44:26Z</time>
      </trkpt>
      <trkpt lat="43.3347" lon="5.77931">
        <ele>747.6</ele>
        <time>2025-10-05T07:44:27Z</time>
      </trkpt>
      <trkpt lat="43.3347" lon="5.77932">
        <ele>747.6</ele>
        <time>2025-10-05T07:44:28Z</time>
      </trkpt>
      <trkpt lat="43.3347" lon="5.77933">
        <ele>747.6</ele>
        <time>2025-10-05T07:44:29Z</time>
      </trkpt>
      <trkpt lat="43.33471" lon="5.77933">
        <ele>747.7</ele>
        <time>2025-10-05T07:44:30Z</time>
      </trkpt>
      <trkpt lat="43.33472" lon="5.77934">
        <ele>747.8</ele>
        <time>2025-10-05T07:44:31Z</time>
      </trkpt>
      <trkpt lat="43.33472" lon="5.77935">
        <ele>748</ele>
        <time>2025-10-05T07:44:32Z</time>
      </trkpt>
      <trkpt lat="43.33472" lon="5.77936">
        <ele>748.2</ele>
        <time>2025-10-05T07:44:33Z</time>
      </trkpt>
      <trkpt lat="43.33472" lon="5.77938">
        <ele>748.2</ele>
        <time>2025-10-05T07:44:34Z</time>
      </trkpt>
      <trkpt lat="43.33473" lon="5.77939">
        <ele>748.3</ele>
        <time>2025-10-05T07:44:35Z</time>
      </trkpt>
      <trkpt lat="43.33474" lon="5.7794">
        <ele>748.4</ele>
        <time>2025-10-05T07:44:36Z</time>
      </trkpt>
      <trkpt lat="43.33475" lon="5.77941">
        <ele>748.5</ele>
        <time>2025-10-05T07:44:37Z</time>
      </trkpt>
      <trkpt lat="43.33475" lon="5.77942">
        <ele>748.6</ele>
        <time>2025-10-05T07:44:38Z</time>
      </trkpt>
      <trkpt lat="43.33476" lon="5.77943">
        <ele>748.7</ele>
        <time>2025-10-05T07:44:39Z</time>
      </trkpt>
      <trkpt lat="43.33477" lon="5.77943">
        <ele>748.8</ele>
        <time>2025-10-05T07:44:40Z</time>
      </trkpt>
      <trkpt lat="43.33477" lon="5.77944">
        <ele>748.8</ele>
        <time>2025-10-05T07:44:41Z</time>
      </trkpt>
      <trkpt lat="43.33477" lon="5.77946">
        <ele>749</ele>
        <time>2025-10-05T07:44:42Z</time>
      </trkpt>
      <trkpt lat="43.33477" lon="5.77948">
        <ele>749.1</ele>
        <time>2025-10-05T07:44:43Z</time>
      </trkpt>
      <trkpt lat="43.33478" lon="5.77949">
        <ele>749.1</ele>
        <time>2025-10-05T07:44:44Z</time>
      </trkpt>
      <trkpt lat="43.33478" lon="5.7795">
        <ele>749.2</ele>
        <time>2025-10-05T07:44:45Z</time>
      </trkpt>
      <trkpt lat="43.33478" lon="5.77951">
        <ele>749.3</ele>
        <time>2025-10-05T07:44:46Z</time>
      </trkpt>
      <trkpt lat="43.33479" lon="5.77952">
        <ele>749.4</ele>
        <time>2025-10-05T07:44:47Z</time>
      </trkpt>
      <trkpt lat="43.33479" lon="5.77953">
        <ele>749.5</ele>
        <time>2025-10-05T07:44:48Z</time>
      </trkpt>
      <trkpt lat="43.33479" lon="5.77955">
        <ele>749.6</ele>
        <time>2025-10-05T07:44:49Z</time>
      </trkpt>
      <trkpt lat="43.33479" lon="5.77956">
        <ele>749.7</ele>
        <time>2025-10-05T07:44:50Z</time>
      </trkpt>
      <trkpt lat="43.33479" lon="5.77957">
        <ele>749.9</ele>
        <time>2025-10-05T07:44:51Z</time>
      </trkpt>
      <trkpt lat="43.3348" lon="5.77958">
        <ele>750.1</ele>
        <time>2025-10-05T07:44:52Z</time>
      </trkpt>
      <trkpt lat="43.3348" lon="5.77959">
        <ele>750.3</ele>
        <time>2025-10-05T07:44:53Z</time>
      </trkpt>
      <trkpt lat="43.33481" lon="5.77961">
        <ele>750.4</ele>
        <time>2025-10-05T07:44:54Z</time>
      </trkpt>
      <trkpt lat="43.33482" lon="5.77962">
        <ele>750.5</ele>
        <time>2025-10-05T07:44:55Z</time>
      </trkpt>
      <trkpt lat="43.33482" lon="5.77963">
        <ele>750.7</ele>
        <time>2025-10-05T07:44:56Z</time>
      </trkpt>
      <trkpt lat="43.33484" lon="5.77964">
        <ele>750.9</ele>
        <time>2025-10-05T07:44:57Z</time>
      </trkpt>
      <trkpt lat="43.33484" lon="5.77965">
        <ele>751</ele>
        <time>2025-10-05T07:44:58Z</time>
      </trkpt>
      <trkpt lat="43.33484" lon="5.77967">
        <ele>751.1</ele>
        <time>2025-10-05T07:44:59Z</time>
      </trkpt>
      <trkpt lat="43.33485" lon="5.77968">
        <ele>751.1</ele>
        <time>2025-10-05T07:45:00Z</time>
      </trkpt>
      <trkpt lat="43.33485" lon="5.77968">
        <ele>751.1</ele>
        <time>2025-10-05T07:45:01Z</time>
      </trkpt>
      <trkpt lat="43.33485" lon="5.77969">
        <ele>751.3</ele>
        <time>2025-10-05T07:45:02Z</time>
      </trkpt>
      <trkpt lat="43.33486" lon="5.77969">
        <ele>751.4</ele>
        <time>2025-10-05T07:45:03Z</time>
      </trkpt>
      <trkpt lat="43.33486" lon="5.77971">
        <ele>751.6</ele>
        <time>2025-10-05T07:45:04Z</time>
      </trkpt>
      <trkpt lat="43.33486" lon="5.77971">
        <ele>751.6</ele>
        <time>2025-10-05T07:45:05Z</time>
      </trkpt>
      <trkpt lat="43.33486" lon="5.77972">
        <ele>751.6</ele>
        <time>2025-10-05T07:45:06Z</time>
      </trkpt>
      <trkpt lat="43.33486" lon="5.77973">
        <ele>751.8</ele>
        <time>2025-10-05T07:45:07Z</time>
      </trkpt>
      <trkpt lat="43.33487" lon="5.77973">
        <ele>751.9</ele>
        <time>2025-10-05T07:45:08Z</time>
      </trkpt>
      <trkpt lat="43.33487" lon="5.77974">
        <ele>751.9</ele>
        <time>2025-10-05T07:45:09Z</time>
      </trkpt>
      <trkpt lat="43.33487" lon="5.77976">
        <ele>752.1</ele>
        <time>2025-10-05T07:45:10Z</time>
      </trkpt>
      <trkpt lat="43.33487" lon="5.77977">
        <ele>752.2</ele>
        <time>2025-10-05T07:45:11Z</time>
      </trkpt>
      <trkpt lat="43.33487" lon="5.77978">
        <ele>752.3</ele>
        <time>2025-10-05T07:45:12Z</time>
      </trkpt>
      <trkpt lat="43.33488" lon="5.77979">
        <ele>752.5</ele>
        <time>2025-10-05T07:45:13Z</time>
      </trkpt>
      <trkpt lat="43.33488" lon="5.77979">
        <ele>752.6</ele>
        <time>2025-10-05T07:45:14Z</time>
      </trkpt>
      <trkpt lat="43.33488" lon="5.7798">
        <ele>752.6</ele>
        <time>2025-10-05T07:45:15Z</time>
      </trkpt>
      <trkpt lat="43.33489" lon="5.77981">
        <ele>752.7</ele>
        <time>2025-10-05T07:45:16Z</time>
      </trkpt>
      <trkpt lat="43.33489" lon="5.77981">
        <ele>752.7</ele>
        <time>2025-10-05T07:45:17Z</time>
      </trkpt>
      <trkpt lat="43.33489" lon="5.77982">
        <ele>752.7</ele>
        <time>2025-10-05T07:45:18Z</time>
      </trkpt>
      <trkpt lat="43.33489" lon="5.77983">
        <ele>752.7</ele>
        <time>2025-10-05T07:45:19Z</time>
      </trkpt>
      <trkpt lat="43.33489" lon="5.77985">
        <ele>752.7</ele>
        <time>2025-10-05T07:45:20Z</time>
      </trkpt>
      <trkpt lat="43.33489" lon="5.77986">
        <ele>752.7</ele>
        <time>2025-10-05T07:45:21Z</time>
      </trkpt>
      <trkpt lat="43.33489" lon="5.77987">
        <ele>752.5</ele>
        <time>2025-10-05T07:45:22Z</time>
      </trkpt>
      <trkpt lat="43.33489" lon="5.77988">
        <ele>752.4</ele>
        <time>2025-10-05T07:45:23Z</time>
      </trkpt>
      <trkpt lat="43.33489" lon="5.7799">
        <ele>752.4</ele>
        <time>2025-10-05T07:45:24Z</time>
      </trkpt>
      <trkpt lat="43.33489" lon="5.7799">
        <ele>752.2</ele>
        <time>2025-10-05T07:45:25Z</time>
      </trkpt>
      <trkpt lat="43.33491" lon="5.77991">
        <ele>752.1</ele>
        <time>2025-10-05T07:45:26Z</time>
      </trkpt>
      <trkpt lat="43.33491" lon="5.77993">
        <ele>752.1</ele>
        <time>2025-10-05T07:45:27Z</time>
      </trkpt>
      <trkpt lat="43.33492" lon="5.77994">
        <ele>751.9</ele>
        <time>2025-10-05T07:45:28Z</time>
      </trkpt>
      <trkpt lat="43.33493" lon="5.77996">
        <ele>751.9</ele>
        <time>2025-10-05T07:45:29Z</time>
      </trkpt>
      <trkpt lat="43.33494" lon="5.77996">
        <ele>751.8</ele>
        <time>2025-10-05T07:45:30Z</time>
      </trkpt>
      <trkpt lat="43.33495" lon="5.77997">
        <ele>752</ele>
        <time>2025-10-05T07:45:31Z</time>
      </trkpt>
      <trkpt lat="43.33496" lon="5.77998">
        <ele>751.9</ele>
        <time>2025-10-05T07:45:32Z</time>
      </trkpt>
      <trkpt lat="43.33496" lon="5.78">
        <ele>751.9</ele>
        <time>2025-10-05T07:45:33Z</time>
      </trkpt>
      <trkpt lat="43.33497" lon="5.78001">
        <ele>751.8</ele>
        <time>2025-10-05T07:45:34Z</time>
      </trkpt>
      <trkpt lat="43.33498" lon="5.78002">
        <ele>751.8</ele>
        <time>2025-10-05T07:45:35Z</time>
      </trkpt>
      <trkpt lat="43.33499" lon="5.78002">
        <ele>751.8</ele>
        <time>2025-10-05T07:45:36Z</time>
      </trkpt>
      <trkpt lat="43.33498" lon="5.78004">
        <ele>751.7</ele>
        <time>2025-10-05T07:45:37Z</time>
      </trkpt>
      <trkpt lat="43.33498" lon="5.78004">
        <ele>751.7</ele>
        <time>2025-10-05T07:45:38Z</time>
      </trkpt>
      <trkpt lat="43.33499" lon="5.78005">
        <ele>751.8</ele>
        <time>2025-10-05T07:45:39Z</time>
      </trkpt>
      <trkpt lat="43.33499" lon="5.78005">
        <ele>751.8</ele>
        <time>2025-10-05T07:45:40Z</time>
      </trkpt>
      <trkpt lat="43.33499" lon="5.78006">
        <ele>751.9</ele>
        <time>2025-10-05T07:45:41Z</time>
      </trkpt>
      <trkpt lat="43.335" lon="5.78008">
        <ele>752.1</ele>
        <time>2025-10-05T07:45:42Z</time>
      </trkpt>
      <trkpt lat="43.33502" lon="5.7801">
        <ele>752.1</ele>
        <time>2025-10-05T07:45:43Z</time>
      </trkpt>
      <trkpt lat="43.33502" lon="5.78012">
        <ele>752.1</ele>
        <time>2025-10-05T07:45:44Z</time>
      </trkpt>
      <trkpt lat="43.33504" lon="5.78013">
        <ele>752</ele>
        <time>2025-10-05T07:45:45Z</time>
      </trkpt>
      <trkpt lat="43.33505" lon="5.78014">
        <ele>752.1</ele>
        <time>2025-10-05T07:45:46Z</time>
      </trkpt>
      <trkpt lat="43.33505" lon="5.78015">
        <ele>752.1</ele>
        <time>2025-10-05T07:45:47Z</time>
      </trkpt>
      <trkpt lat="43.33507" lon="5.78015">
        <ele>752.1</ele>
        <time>2025-10-05T07:45:48Z</time>
      </trkpt>
      <trkpt lat="43.33507" lon="5.78015">
        <ele>752.2</ele>
        <time>2025-10-05T07:45:49Z</time>
      </trkpt>
      <trkpt lat="43.33508" lon="5.78015">
        <ele>752.2</ele>
        <time>2025-10-05T07:45:50Z</time>
      </trkpt>
      <trkpt lat="43.33509" lon="5.78015">
        <ele>752.2</ele>
        <time>2025-10-05T07:45:51Z</time>
      </trkpt>
      <trkpt lat="43.33509" lon="5.78015">
        <ele>752.3</ele>
        <time>2025-10-05T07:45:52Z</time>
      </trkpt>
      <trkpt lat="43.3351" lon="5.78015">
        <ele>752.3</ele>
        <time>2025-10-05T07:45:53Z</time>
      </trkpt>
      <trkpt lat="43.33511" lon="5.78015">
        <ele>752.4</ele>
        <time>2025-10-05T07:45:54Z</time>
      </trkpt>
      <trkpt lat="43.33511" lon="5.78015">
        <ele>752.4</ele>
        <time>2025-10-05T07:45:55Z</time>
      </trkpt>
      <trkpt lat="43.33511" lon="5.78016">
        <ele>752.5</ele>
        <time>2025-10-05T07:45:56Z</time>
      </trkpt>
      <trkpt lat="43.33511" lon="5.78017">
        <ele>752.6</ele>
        <time>2025-10-05T07:45:57Z</time>
      </trkpt>
      <trkpt lat="43.33511" lon="5.78017">
        <ele>752.7</ele>
        <time>2025-10-05T07:45:58Z</time>
      </trkpt>
      <trkpt lat="43.33511" lon="5.78017">
        <ele>752.7</ele>
        <time>2025-10-05T07:45:59Z</time>
      </trkpt>
      <trkpt lat="43.33511" lon="5.78017">
        <ele>752.8</ele>
        <time>2025-10-05T07:46:00Z</time>
      </trkpt>
      <trkpt lat="43.3351" lon="5.78017">
        <ele>752.8</ele>
        <time>2025-10-05T07:46:01Z</time>
      </trkpt>
      <trkpt lat="43.3351" lon="5.78017">
        <ele>752.9</ele>
        <time>2025-10-05T07:46:02Z</time>
      </trkpt>
      <trkpt lat="43.3351" lon="5.78017">
        <ele>753</ele>
        <time>2025-10-05T07:46:03Z</time>
      </trkpt>
      <trkpt lat="43.3351" lon="5.78017">
        <ele>753</ele>
        <time>2025-10-05T07:46:04Z</time>
      </trkpt>
      <trkpt lat="43.3351" lon="5.78018">
        <ele>753</ele>
        <time>2025-10-05T07:46:05Z</time>
      </trkpt>
      <trkpt lat="43.33509" lon="5.78018">
        <ele>753</ele>
        <time>2025-10-05T07:46:06Z</time>
      </trkpt>
      <trkpt lat="43.3351" lon="5.78018">
        <ele>753</ele>
        <time>2025-10-05T07:46:07Z</time>
      </trkpt>
      <trkpt lat="43.3351" lon="5.78018">
        <ele>753.1</ele>
        <time>2025-10-05T07:46:08Z</time>
      </trkpt>
      <trkpt lat="43.3351" lon="5.78018">
        <ele>753.2</ele>
        <time>2025-10-05T07:46:09Z</time>
      </trkpt>
      <trkpt lat="43.3351" lon="5.78018">
        <ele>753.3</ele>
        <time>2025-10-05T07:46:10Z</time>
      </trkpt>
      <trkpt lat="43.3351" lon="5.78018">
        <ele>753.2</ele>
        <time>2025-10-05T07:46:11Z</time>
      </trkpt>
      <trkpt lat="43.3351" lon="5.78018">
        <ele>753.2</ele>
        <time>2025-10-05T07:46:12Z</time>
      </trkpt>
      <trkpt lat="43.33511" lon="5.78018">
        <ele>753.2</ele>
        <time>2025-10-05T07:46:13Z</time>
      </trkpt>
      <trkpt lat="43.33511" lon="5.78018">
        <ele>753.1</ele>
        <time>2025-10-05T07:46:14Z</time>
      </trkpt>
      <trkpt lat="43.33511" lon="5.78018">
        <ele>753.1</ele>
        <time>2025-10-05T07:46:15Z</time>
      </trkpt>
      <trkpt lat="43.33511" lon="5.78019">
        <ele>753.1</ele>
        <time>2025-10-05T07:46:16Z</time>
      </trkpt>
      <trkpt lat="43.33511" lon="5.78019">
        <ele>753.1</ele>
        <time>2025-10-05T07:46:17Z</time>
      </trkpt>
      <trkpt lat="43.3351" lon="5.78019">
        <ele>753.1</ele>
        <time>2025-10-05T07:46:18Z</time>
      </trkpt>
      <trkpt lat="43.33511" lon="5.7802">
        <ele>753.2</ele>
        <time>2025-10-05T07:46:19Z</time>
      </trkpt>
      <trkpt lat="43.33511" lon="5.78019">
        <ele>753.3</ele>
        <time>2025-10-05T07:46:20Z</time>
      </trkpt>
      <trkpt lat="43.3351" lon="5.78019">
        <ele>753.3</ele>
        <time>2025-10-05T07:46:21Z</time>
      </trkpt>
      <trkpt lat="43.3351" lon="5.7802">
        <ele>753.3</ele>
        <time>2025-10-05T07:46:22Z</time>
      </trkpt>
      <trkpt lat="43.33509" lon="5.78019">
        <ele>753.3</ele>
        <time>2025-10-05T07:46:23Z</time>
      </trkpt>
      <trkpt lat="43.33509" lon="5.7802">
        <ele>753.3</ele>
        <time>2025-10-05T07:46:24Z</time>
      </trkpt>
      <trkpt lat="43.33508" lon="5.7802">
        <ele>753.3</ele>
        <time>2025-10-05T07:46:25Z</time>
      </trkpt>
      <trkpt lat="43.33508" lon="5.7802">
        <ele>753.3</ele>
        <time>2025-10-05T07:46:26Z</time>
      </trkpt>
      <trkpt lat="43.33508" lon="5.7802">
        <ele>753.3</ele>
        <time>2025-10-05T07:46:27Z</time>
      </trkpt>
      <trkpt lat="43.33509" lon="5.7802">
        <ele>753.2</ele>
        <time>2025-10-05T07:46:28Z</time>
      </trkpt>
      <trkpt lat="43.33509" lon="5.7802">
        <ele>753.1</ele>
        <time>2025-10-05T07:46:29Z</time>
      </trkpt>
      <trkpt lat="43.33509" lon="5.7802">
        <ele>753</ele>
        <time>2025-10-05T07:46:30Z</time>
      </trkpt>
      <trkpt lat="43.33509" lon="5.7802">
        <ele>753</ele>
        <time>2025-10-05T07:46:31Z</time>
      </trkpt>
      <trkpt lat="43.3351" lon="5.78019">
        <ele>752.9</ele>
        <time>2025-10-05T07:46:32Z</time>
      </trkpt>
      <trkpt lat="43.3351" lon="5.78019">
        <ele>752.9</ele>
        <time>2025-10-05T07:46:33Z</time>
      </trkpt>
      <trkpt lat="43.3351" lon="5.7802">
        <ele>752.9</ele>
        <time>2025-10-05T07:46:34Z</time>
      </trkpt>
      <trkpt lat="43.3351" lon="5.7802">
        <ele>752.8</ele>
        <time>2025-10-05T07:46:35Z</time>
      </trkpt>
      <trkpt lat="43.33511" lon="5.7802">
        <ele>752.8</ele>
        <time>2025-10-05T07:46:36Z</time>
      </trkpt>
      <trkpt lat="43.33511" lon="5.7802">
        <ele>752.8</ele>
        <time>2025-10-05T07:46:37Z</time>
      </trkpt>
      <trkpt lat="43.33511" lon="5.78019">
        <ele>752.8</ele>
        <time>2025-10-05T07:46:38Z</time>
      </trkpt>
      <trkpt lat="43.33511" lon="5.78019">
        <ele>752.9</ele>
        <time>2025-10-05T07:46:39Z</time>
      </trkpt>
      <trkpt lat="43.33511" lon="5.7802">
        <ele>752.9</ele>
        <time>2025-10-05T07:46:40Z</time>
      </trkpt>
      <trkpt lat="43.33511" lon="5.7802">
        <ele>752.9</ele>
        <time>2025-10-05T07:46:41Z</time>
      </trkpt>
      <trkpt lat="43.33511" lon="5.7802">
        <ele>753</ele>
        <time>2025-10-05T07:46:42Z</time>
      </trkpt>
      <trkpt lat="43.33511" lon="5.7802">
        <ele>753</ele>
        <time>2025-10-05T07:46:43Z</time>
      </trkpt>
      <trkpt lat="43.33511" lon="5.7802">
        <ele>752.9</ele>
        <time>2025-10-05T07:46:44Z</time>
      </trkpt>
      <trkpt lat="43.33511" lon="5.7802">
        <ele>753</ele>
        <time>2025-10-05T07:46:45Z</time>
      </trkpt>
      <trkpt lat="43.33512" lon="5.7802">
        <ele>753.1</ele>
        <time>2025-10-05T07:46:46Z</time>
      </trkpt>
      <trkpt lat="43.33512" lon="5.7802">
        <ele>753.2</ele>
        <time>2025-10-05T07:46:47Z</time>
      </trkpt>
      <trkpt lat="43.33512" lon="5.7802">
        <ele>753.2</ele>
        <time>2025-10-05T07:46:48Z</time>
      </trkpt>
      <trkpt lat="43.33513" lon="5.78019">
        <ele>753.3</ele>
        <time>2025-10-05T07:46:49Z</time>
      </trkpt>
      <trkpt lat="43.33514" lon="5.78019">
        <ele>753.3</ele>
        <time>2025-10-05T07:46:50Z</time>
      </trkpt>
      <trkpt lat="43.33514" lon="5.78019">
        <ele>753.3</ele>
        <time>2025-10-05T07:46:51Z</time>
      </trkpt>
      <trkpt lat="43.33514" lon="5.78019">
        <ele>753.4</ele>
        <time>2025-10-05T07:46:52Z</time>
      </trkpt>
      <trkpt lat="43.33513" lon="5.7802">
        <ele>753.5</ele>
        <time>2025-10-05T07:46:53Z</time>
      </trkpt>
      <trkpt lat="43.33512" lon="5.78019">
        <ele>753.5</ele>
        <time>2025-10-05T07:46:54Z</time>
      </trkpt>
      <trkpt lat="43.33511" lon="5.78019">
        <ele>753.7</ele>
        <time>2025-10-05T07:46:55Z</time>
      </trkpt>
      <trkpt lat="43.3351" lon="5.7802">
        <ele>753.9</ele>
        <time>2025-10-05T07:46:56Z</time>
      </trkpt>
      <trkpt lat="43.3351" lon="5.7802">
        <ele>753.9</ele>
        <time>2025-10-05T07:46:57Z</time>
      </trkpt>
      <trkpt lat="43.3351" lon="5.7802">
        <ele>753.9</ele>
        <time>2025-10-05T07:46:58Z</time>
      </trkpt>
      <trkpt lat="43.33509" lon="5.78021">
        <ele>753.9</ele>
        <time>2025-10-05T07:46:59Z</time>
      </trkpt>
      <trkpt lat="43.3351" lon="5.78021">
        <ele>754</ele>
        <time>2025-10-05T07:47:00Z</time>
      </trkpt>
      <trkpt lat="43.3351" lon="5.78021">
        <ele>754</ele>
        <time>2025-10-05T07:47:01Z</time>
      </trkpt>
      <trkpt lat="43.3351" lon="5.78021">
        <ele>754</ele>
        <time>2025-10-05T07:47:02Z</time>
      </trkpt>
      <trkpt lat="43.3351" lon="5.7802">
        <ele>754.1</ele>
        <time>2025-10-05T07:47:03Z</time>
      </trkpt>
      <trkpt lat="43.3351" lon="5.78021">
        <ele>754.1</ele>
        <time>2025-10-05T07:47:04Z</time>
      </trkpt>
      <trkpt lat="43.3351" lon="5.7802">
        <ele>754.2</ele>
        <time>2025-10-05T07:47:05Z</time>
      </trkpt>
      <trkpt lat="43.3351" lon="5.7802">
        <ele>754.2</ele>
        <time>2025-10-05T07:47:06Z</time>
      </trkpt>
      <trkpt lat="43.3351" lon="5.7802">
        <ele>754.3</ele>
        <time>2025-10-05T07:47:07Z</time>
      </trkpt>
      <trkpt lat="43.3351" lon="5.7802">
        <ele>754.3</ele>
        <time>2025-10-05T07:47:08Z</time>
      </trkpt>
      <trkpt lat="43.3351" lon="5.7802">
        <ele>754.3</ele>
        <time>2025-10-05T07:47:09Z</time>
      </trkpt>
      <trkpt lat="43.3351" lon="5.7802">
        <ele>754.3</ele>
        <time>2025-10-05T07:47:10Z</time>
      </trkpt>
      <trkpt lat="43.3351" lon="5.78021">
        <ele>754.3</ele>
        <time>2025-10-05T07:47:11Z</time>
      </trkpt>
      <trkpt lat="43.3351" lon="5.78021">
        <ele>754.4</ele>
        <time>2025-10-05T07:47:12Z</time>
      </trkpt>
      <trkpt lat="43.33509" lon="5.78021">
        <ele>754.4</ele>
        <time>2025-10-05T07:47:13Z</time>
      </trkpt>
      <trkpt lat="43.33509" lon="5.78021">
        <ele>754.4</ele>
        <time>2025-10-05T07:47:14Z</time>
      </trkpt>
      <trkpt lat="43.33509" lon="5.78022">
        <ele>754.4</ele>
        <time>2025-10-05T07:47:15Z</time>
      </trkpt>
      <trkpt lat="43.3351" lon="5.78022">
        <ele>754.3</ele>
        <time>2025-10-05T07:47:16Z</time>
      </trkpt>
      <trkpt lat="43.3351" lon="5.78022">
        <ele>754.3</ele>
        <time>2025-10-05T07:47:17Z</time>
      </trkpt>
      <trkpt lat="43.3351" lon="5.78021">
        <ele>754.3</ele>
        <time>2025-10-05T07:47:18Z</time>
      </trkpt>
      <trkpt lat="43.3351" lon="5.78021">
        <ele>754.3</ele>
        <time>2025-10-05T07:47:19Z</time>
      </trkpt>
      <trkpt lat="43.3351" lon="5.78022">
        <ele>754.3</ele>
        <time>2025-10-05T07:47:20Z</time>
      </trkpt>
      <trkpt lat="43.3351" lon="5.78022">
        <ele>754.3</ele>
        <time>2025-10-05T07:47:21Z</time>
      </trkpt>
      <trkpt lat="43.3351" lon="5.78022">
        <ele>754.3</ele>
        <time>2025-10-05T07:47:22Z</time>
      </trkpt>
      <trkpt lat="43.33509" lon="5.78022">
        <ele>754.4</ele>
        <time>2025-10-05T07:47:23Z</time>
      </trkpt>
      <trkpt lat="43.33509" lon="5.78023">
        <ele>754.4</ele>
        <time>2025-10-05T07:47:24Z</time>
      </trkpt>
      <trkpt lat="43.33509" lon="5.78023">
        <ele>754.5</ele>
        <time>2025-10-05T07:47:25Z</time>
      </trkpt>
      <trkpt lat="43.33509" lon="5.78023">
        <ele>754.4</ele>
        <time>2025-10-05T07:47:26Z</time>
      </trkpt>
      <trkpt lat="43.33509" lon="5.78023">
        <ele>754.4</ele>
        <time>2025-10-05T07:47:27Z</time>
      </trkpt>
      <trkpt lat="43.3351" lon="5.78023">
        <ele>754.4</ele>
        <time>2025-10-05T07:47:28Z</time>
      </trkpt>
      <trkpt lat="43.3351" lon="5.78023">
        <ele>754.4</ele>
        <time>2025-10-05T07:47:29Z</time>
      </trkpt>
      <trkpt lat="43.33511" lon="5.78023">
        <ele>754.4</ele>
        <time>2025-10-05T07:47:30Z</time>
      </trkpt>
      <trkpt lat="43.33511" lon="5.78023">
        <ele>754.3</ele>
        <time>2025-10-05T07:47:31Z</time>
      </trkpt>
      <trkpt lat="43.33511" lon="5.78023">
        <ele>754.3</ele>
        <time>2025-10-05T07:47:32Z</time>
      </trkpt>
      <trkpt lat="43.33511" lon="5.78023">
        <ele>754.3</ele>
        <time>2025-10-05T07:47:33Z</time>
      </trkpt>
      <trkpt lat="43.33512" lon="5.78023">
        <ele>754.3</ele>
        <time>2025-10-05T07:47:34Z</time>
      </trkpt>
      <trkpt lat="43.33512" lon="5.78023">
        <ele>754.3</ele>
        <time>2025-10-05T07:47:35Z</time>
      </trkpt>
      <trkpt lat="43.33511" lon="5.78024">
        <ele>754.2</ele>
        <time>2025-10-05T07:47:36Z</time>
      </trkpt>
      <trkpt lat="43.33512" lon="5.78024">
        <ele>754.3</ele>
        <time>2025-10-05T07:47:37Z</time>
      </trkpt>
      <trkpt lat="43.33511" lon="5.78024">
        <ele>754.3</ele>
        <time>2025-10-05T07:47:38Z</time>
      </trkpt>
      <trkpt lat="43.33511" lon="5.78025">
        <ele>754.3</ele>
        <time>2025-10-05T07:47:39Z</time>
      </trkpt>
      <trkpt lat="43.3351" lon="5.78024">
        <ele>754.3</ele>
        <time>2025-10-05T07:47:40Z</time>
      </trkpt>
      <trkpt lat="43.33511" lon="5.78023">
        <ele>754.4</ele>
        <time>2025-10-05T07:47:41Z</time>
      </trkpt>
      <trkpt lat="43.33511" lon="5.78023">
        <ele>754.5</ele>
        <time>2025-10-05T07:47:42Z</time>
      </trkpt>
      <trkpt lat="43.33511" lon="5.78023">
        <ele>754.5</ele>
        <time>2025-10-05T07:47:43Z</time>
      </trkpt>
      <trkpt lat="43.33511" lon="5.78022">
        <ele>754.6</ele>
        <time>2025-10-05T07:47:44Z</time>
      </trkpt>
      <trkpt lat="43.33511" lon="5.78022">
        <ele>754.6</ele>
        <time>2025-10-05T07:47:45Z</time>
      </trkpt>
      <trkpt lat="43.33511" lon="5.78023">
        <ele>754.7</ele>
        <time>2025-10-05T07:47:46Z</time>
      </trkpt>
      <trkpt lat="43.33511" lon="5.78023">
        <ele>754.8</ele>
        <time>2025-10-05T07:47:47Z</time>
      </trkpt>
      <trkpt lat="43.33511" lon="5.78022">
        <ele>754.9</ele>
        <time>2025-10-05T07:47:48Z</time>
      </trkpt>
      <trkpt lat="43.33511" lon="5.78022">
        <ele>754.9</ele>
        <time>2025-10-05T07:47:49Z</time>
      </trkpt>
      <trkpt lat="43.33511" lon="5.78022">
        <ele>754.9</ele>
        <time>2025-10-05T07:47:50Z</time>
      </trkpt>
      <trkpt lat="43.33511" lon="5.78022">
        <ele>755</ele>
        <time>2025-10-05T07:47:51Z</time>
      </trkpt>
      <trkpt lat="43.3351" lon="5.78022">
        <ele>755.1</ele>
        <time>2025-10-05T07:47:52Z</time>
      </trkpt>
      <trkpt lat="43.3351" lon="5.78022">
        <ele>755.1</ele>
        <time>2025-10-05T07:47:53Z</time>
      </trkpt>
      <trkpt lat="43.3351" lon="5.78022">
        <ele>755.2</ele>
        <time>2025-10-05T07:47:54Z</time>
      </trkpt>
      <trkpt lat="43.3351" lon="5.78022">
        <ele>755.2</ele>
        <time>2025-10-05T07:47:55Z</time>
      </trkpt>
      <trkpt lat="43.3351" lon="5.78021">
        <ele>755.2</ele>
        <time>2025-10-05T07:47:56Z</time>
      </trkpt>
      <trkpt lat="43.3351" lon="5.78021">
        <ele>755.3</ele>
        <time>2025-10-05T07:47:57Z</time>
      </trkpt>
      <trkpt lat="43.3351" lon="5.78021">
        <ele>755.3</ele>
        <time>2025-10-05T07:47:58Z</time>
      </trkpt>
      <trkpt lat="43.3351" lon="5.78021">
        <ele>755.3</ele>
        <time>2025-10-05T07:47:59Z</time>
      </trkpt>
      <trkpt lat="43.3351" lon="5.7802">
        <ele>755.4</ele>
        <time>2025-10-05T07:48:00Z</time>
      </trkpt>
      <trkpt lat="43.3351" lon="5.7802">
        <ele>755.4</ele>
        <time>2025-10-05T07:48:01Z</time>
      </trkpt>
      <trkpt lat="43.3351" lon="5.7802">
        <ele>755.5</ele>
        <time>2025-10-05T07:48:02Z</time>
      </trkpt>
      <trkpt lat="43.33509" lon="5.7802">
        <ele>755.4</ele>
        <time>2025-10-05T07:48:03Z</time>
      </trkpt>
      <trkpt lat="43.33509" lon="5.7802">
        <ele>755.4</ele>
        <time>2025-10-05T07:48:04Z</time>
      </trkpt>
      <trkpt lat="43.33509" lon="5.7802">
        <ele>755.4</ele>
        <time>2025-10-05T07:48:05Z</time>
      </trkpt>
      <trkpt lat="43.33509" lon="5.7802">
        <ele>755.4</ele>
        <time>2025-10-05T07:48:06Z</time>
      </trkpt>
      <trkpt lat="43.33509" lon="5.7802">
        <ele>755.4</ele>
        <time>2025-10-05T07:48:07Z</time>
      </trkpt>
      <trkpt lat="43.33509" lon="5.7802">
        <ele>755.5</ele>
        <time>2025-10-05T07:48:08Z</time>
      </trkpt>
      <trkpt lat="43.33509" lon="5.7802">
        <ele>755.5</ele>
        <time>2025-10-05T07:48:09Z</time>
      </trkpt>
      <trkpt lat="43.33509" lon="5.7802">
        <ele>755.6</ele>
        <time>2025-10-05T07:48:10Z</time>
      </trkpt>
      <trkpt lat="43.33509" lon="5.7802">
        <ele>755.6</ele>
        <time>2025-10-05T07:48:11Z</time>
      </trkpt>
      <trkpt lat="43.33509" lon="5.78021">
        <ele>755.6</ele>
        <time>2025-10-05T07:48:12Z</time>
      </trkpt>
      <trkpt lat="43.33508" lon="5.78021">
        <ele>755.6</ele>
        <time>2025-10-05T07:48:13Z</time>
      </trkpt>
      <trkpt lat="43.33508" lon="5.78021">
        <ele>755.6</ele>
        <time>2025-10-05T07:48:14Z</time>
      </trkpt>
      <trkpt lat="43.33508" lon="5.78021">
        <ele>755.6</ele>
        <time>2025-10-05T07:48:15Z</time>
      </trkpt>
      <trkpt lat="43.33508" lon="5.78021">
        <ele>755.7</ele>
        <time>2025-10-05T07:48:16Z</time>
      </trkpt>
      <trkpt lat="43.33508" lon="5.78021">
        <ele>755.6</ele>
        <time>2025-10-05T07:48:17Z</time>
      </trkpt>
      <trkpt lat="43.33508" lon="5.78021">
        <ele>755.6</ele>
        <time>2025-10-05T07:48:18Z</time>
      </trkpt>
      <trkpt lat="43.33507" lon="5.78021">
        <ele>755.6</ele>
        <time>2025-10-05T07:48:19Z</time>
      </trkpt>
      <trkpt lat="43.33507" lon="5.78021">
        <ele>755.6</ele>
        <time>2025-10-05T07:48:20Z</time>
      </trkpt>
      <trkpt lat="43.33507" lon="5.78021">
        <ele>755.7</ele>
        <time>2025-10-05T07:48:21Z</time>
      </trkpt>
      <trkpt lat="43.33507" lon="5.78021">
        <ele>755.8</ele>
        <time>2025-10-05T07:48:22Z</time>
      </trkpt>
      <trkpt lat="43.33507" lon="5.78021">
        <ele>755.9</ele>
        <time>2025-10-05T07:48:23Z</time>
      </trkpt>
      <trkpt lat="43.33506" lon="5.78022">
        <ele>755.9</ele>
        <time>2025-10-05T07:48:24Z</time>
      </trkpt>
      <trkpt lat="43.33505" lon="5.78022">
        <ele>756</ele>
        <time>2025-10-05T07:48:25Z</time>
      </trkpt>
      <trkpt lat="43.33504" lon="5.78023">
        <ele>756</ele>
        <time>2025-10-05T07:48:26Z</time>
      </trkpt>
      <trkpt lat="43.33504" lon="5.78023">
        <ele>755.9</ele>
        <time>2025-10-05T07:48:27Z</time>
      </trkpt>
      <trkpt lat="43.33507" lon="5.78021">
        <ele>756</ele>
        <time>2025-10-05T07:48:28Z</time>
      </trkpt>
      <trkpt lat="43.33509" lon="5.78019">
        <ele>756</ele>
        <time>2025-10-05T07:48:29Z</time>
      </trkpt>
      <trkpt lat="43.33509" lon="5.78019">
        <ele>756</ele>
        <time>2025-10-05T07:48:30Z</time>
      </trkpt>
      <trkpt lat="43.33511" lon="5.78018">
        <ele>756</ele>
        <time>2025-10-05T07:48:31Z</time>
      </trkpt>
      <trkpt lat="43.33512" lon="5.78017">
        <ele>756</ele>
        <time>2025-10-05T07:48:32Z</time>
      </trkpt>
      <trkpt lat="43.33512" lon="5.78017">
        <ele>755.9</ele>
        <time>2025-10-05T07:48:33Z</time>
      </trkpt>
      <trkpt lat="43.33512" lon="5.78016">
        <ele>755.9</ele>
        <time>2025-10-05T07:48:34Z</time>
      </trkpt>
      <trkpt lat="43.33513" lon="5.78016">
        <ele>755.9</ele>
        <time>2025-10-05T07:48:35Z</time>
      </trkpt>
      <trkpt lat="43.33513" lon="5.78016">
        <ele>755.9</ele>
        <time>2025-10-05T07:48:36Z</time>
      </trkpt>
      <trkpt lat="43.33512" lon="5.78016">
        <ele>755.9</ele>
        <time>2025-10-05T07:48:37Z</time>
      </trkpt>
      <trkpt lat="43.33513" lon="5.78016">
        <ele>755.9</ele>
        <time>2025-10-05T07:48:38Z</time>
      </trkpt>
      <trkpt lat="43.33512" lon="5.78016">
        <ele>755.8</ele>
        <time>2025-10-05T07:48:39Z</time>
      </trkpt>
      <trkpt lat="43.33512" lon="5.78016">
        <ele>755.8</ele>
        <time>2025-10-05T07:48:40Z</time>
      </trkpt>
      <trkpt lat="43.33513" lon="5.78016">
        <ele>755.8</ele>
        <time>2025-10-05T07:48:41Z</time>
      </trkpt>
      <trkpt lat="43.33513" lon="5.78016">
        <ele>755.7</ele>
        <time>2025-10-05T07:48:42Z</time>
      </trkpt>
      <trkpt lat="43.33513" lon="5.78016">
        <ele>755.6</ele>
        <time>2025-10-05T07:48:43Z</time>
      </trkpt>
      <trkpt lat="43.33513" lon="5.78015">
        <ele>755.5</ele>
        <time>2025-10-05T07:48:44Z</time>
      </trkpt>
      <trkpt lat="43.33513" lon="5.78015">
        <ele>755.4</ele>
        <time>2025-10-05T07:48:45Z</time>
      </trkpt>
      <trkpt lat="43.33513" lon="5.78016">
        <ele>755.3</ele>
        <time>2025-10-05T07:48:46Z</time>
      </trkpt>
      <trkpt lat="43.33513" lon="5.78015">
        <ele>755.3</ele>
        <time>2025-10-05T07:48:47Z</time>
      </trkpt>
      <trkpt lat="43.33513" lon="5.78015">
        <ele>755.2</ele>
        <time>2025-10-05T07:48:48Z</time>
      </trkpt>
      <trkpt lat="43.33513" lon="5.78015">
        <ele>755.2</ele>
        <time>2025-10-05T07:48:49Z</time>
      </trkpt>
      <trkpt lat="43.33512" lon="5.78015">
        <ele>755.2</ele>
        <time>2025-10-05T07:48:50Z</time>
      </trkpt>
      <trkpt lat="43.33512" lon="5.78015">
        <ele>755.2</ele>
        <time>2025-10-05T07:48:51Z</time>
      </trkpt>
      <trkpt lat="43.33513" lon="5.78015">
        <ele>755.1</ele>
        <time>2025-10-05T07:48:52Z</time>
      </trkpt>
      <trkpt lat="43.33513" lon="5.78015">
        <ele>755.1</ele>
        <time>2025-10-05T07:48:53Z</time>
      </trkpt>
      <trkpt lat="43.33512" lon="5.78015">
        <ele>755</ele>
        <time>2025-10-05T07:48:54Z</time>
      </trkpt>
      <trkpt lat="43.33512" lon="5.78015">
        <ele>754.9</ele>
        <time>2025-10-05T07:48:55Z</time>
      </trkpt>
      <trkpt lat="43.33512" lon="5.78015">
        <ele>754.8</ele>
        <time>2025-10-05T07:48:56Z</time>
      </trkpt>
      <trkpt lat="43.33512" lon="5.78015">
        <ele>754.7</ele>
        <time>2025-10-05T07:48:57Z</time>
      </trkpt>
      <trkpt lat="43.33512" lon="5.78015">
        <ele>754.6</ele>
        <time>2025-10-05T07:48:58Z</time>
      </trkpt>
      <trkpt lat="43.33512" lon="5.78015">
        <ele>754.6</ele>
        <time>2025-10-05T07:48:59Z</time>
      </trkpt>
      <trkpt lat="43.33512" lon="5.78015">
        <ele>754.5</ele>
        <time>2025-10-05T07:49:00Z</time>
      </trkpt>
      <trkpt lat="43.33512" lon="5.78015">
        <ele>754.4</ele>
        <time>2025-10-05T07:49:01Z</time>
      </trkpt>
      <trkpt lat="43.33512" lon="5.78015">
        <ele>754.4</ele>
        <time>2025-10-05T07:49:02Z</time>
      </trkpt>
      <trkpt lat="43.33511" lon="5.78015">
        <ele>754.3</ele>
        <time>2025-10-05T07:49:03Z</time>
      </trkpt>
      <trkpt lat="43.33511" lon="5.78015">
        <ele>754.3</ele>
        <time>2025-10-05T07:49:04Z</time>
      </trkpt>
      <trkpt lat="43.33511" lon="5.78014">
        <ele>754.2</ele>
        <time>2025-10-05T07:49:05Z</time>
      </trkpt>
      <trkpt lat="43.33511" lon="5.78014">
        <ele>754.1</ele>
        <time>2025-10-05T07:49:06Z</time>
      </trkpt>
      <trkpt lat="43.33511" lon="5.78014">
        <ele>754</ele>
        <time>2025-10-05T07:49:07Z</time>
      </trkpt>
      <trkpt lat="43.33511" lon="5.78014">
        <ele>754.1</ele>
        <time>2025-10-05T07:49:08Z</time>
      </trkpt>
      <trkpt lat="43.33511" lon="5.78014">
        <ele>754</ele>
        <time>2025-10-05T07:49:09Z</time>
      </trkpt>
      <trkpt lat="43.33511" lon="5.78014">
        <ele>754</ele>
        <time>2025-10-05T07:49:10Z</time>
      </trkpt>
      <trkpt lat="43.33511" lon="5.78013">
        <ele>753.9</ele>
        <time>2025-10-05T07:49:11Z</time>
      </trkpt>
      <trkpt lat="43.33511" lon="5.78013">
        <ele>753.8</ele>
        <time>2025-10-05T07:49:12Z</time>
      </trkpt>
      <trkpt lat="43.33511" lon="5.78013">
        <ele>753.8</ele>
        <time>2025-10-05T07:49:13Z</time>
      </trkpt>
      <trkpt lat="43.33511" lon="5.78013">
        <ele>753.8</ele>
        <time>2025-10-05T07:49:14Z</time>
      </trkpt>
      <trkpt lat="43.33511" lon="5.78013">
        <ele>753.8</ele>
        <time>2025-10-05T07:49:15Z</time>
      </trkpt>
      <trkpt lat="43.33511" lon="5.78013">
        <ele>753.7</ele>
        <time>2025-10-05T07:49:16Z</time>
      </trkpt>
      <trkpt lat="43.33511" lon="5.78013">
        <ele>753.7</ele>
        <time>2025-10-05T07:49:17Z</time>
      </trkpt>
      <trkpt lat="43.33511" lon="5.78013">
        <ele>753.7</ele>
        <time>2025-10-05T07:49:18Z</time>
      </trkpt>
      <trkpt lat="43.33511" lon="5.78012">
        <ele>753.7</ele>
        <time>2025-10-05T07:49:19Z</time>
      </trkpt>
      <trkpt lat="43.33511" lon="5.78013">
        <ele>753.7</ele>
        <time>2025-10-05T07:49:20Z</time>
      </trkpt>
      <trkpt lat="43.33511" lon="5.78012">
        <ele>753.7</ele>
        <time>2025-10-05T07:49:21Z</time>
      </trkpt>
      <trkpt lat="43.33511" lon="5.78013">
        <ele>753.7</ele>
        <time>2025-10-05T07:49:22Z</time>
      </trkpt>
      <trkpt lat="43.33511" lon="5.78013">
        <ele>753.7</ele>
        <time>2025-10-05T07:49:23Z</time>
      </trkpt>
      <trkpt lat="43.33511" lon="5.78013">
        <ele>753.7</ele>
        <time>2025-10-05T07:49:24Z</time>
      </trkpt>
      <trkpt lat="43.33511" lon="5.78013">
        <ele>753.7</ele>
        <time>2025-10-05T07:49:25Z</time>
      </trkpt>
      <trkpt lat="43.33511" lon="5.78013">
        <ele>753.7</ele>
        <time>2025-10-05T07:49:26Z</time>
      </trkpt>
      <trkpt lat="43.33511" lon="5.78012">
        <ele>753.7</ele>
        <time>2025-10-05T07:49:27Z</time>
      </trkpt>
      <trkpt lat="43.33511" lon="5.78012">
        <ele>753.6</ele>
        <time>2025-10-05T07:49:28Z</time>
      </trkpt>
      <trkpt lat="43.33512" lon="5.78012">
        <ele>753.6</ele>
        <time>2025-10-05T07:49:29Z</time>
      </trkpt>
      <trkpt lat="43.33512" lon="5.78011">
        <ele>753.5</ele>
        <time>2025-10-05T07:49:30Z</time>
      </trkpt>
      <trkpt lat="43.33512" lon="5.78012">
        <ele>753.4</ele>
        <time>2025-10-05T07:49:31Z</time>
      </trkpt>
      <trkpt lat="43.33512" lon="5.78012">
        <ele>753.4</ele>
        <time>2025-10-05T07:49:32Z</time>
      </trkpt>
      <trkpt lat="43.33512" lon="5.78011">
        <ele>753.3</ele>
        <time>2025-10-05T07:49:33Z</time>
      </trkpt>
      <trkpt lat="43.33513" lon="5.78012">
        <ele>753.3</ele>
        <time>2025-10-05T07:49:34Z</time>
      </trkpt>
      <trkpt lat="43.33513" lon="5.78012">
        <ele>753.2</ele>
        <time>2025-10-05T07:49:35Z</time>
      </trkpt>
      <trkpt lat="43.33513" lon="5.78012">
        <ele>753.2</ele>
        <time>2025-10-05T07:49:36Z</time>
      </trkpt>
      <trkpt lat="43.33513" lon="5.78012">
        <ele>753.2</ele>
        <time>2025-10-05T07:49:37Z</time>
      </trkpt>
      <trkpt lat="43.33513" lon="5.78012">
        <ele>753.2</ele>
        <time>2025-10-05T07:49:38Z</time>
      </trkpt>
      <trkpt lat="43.33513" lon="5.78012">
        <ele>753.1</ele>
        <time>2025-10-05T07:49:39Z</time>
      </trkpt>
      <trkpt lat="43.33513" lon="5.78012">
        <ele>753.1</ele>
        <time>2025-10-05T07:49:40Z</time>
      </trkpt>
      <trkpt lat="43.33513" lon="5.78012">
        <ele>753.1</ele>
        <time>2025-10-05T07:49:41Z</time>
      </trkpt>
      <trkpt lat="43.33513" lon="5.78013">
        <ele>753.1</ele>
        <time>2025-10-05T07:49:42Z</time>
      </trkpt>
      <trkpt lat="43.33513" lon="5.78012">
        <ele>753.1</ele>
        <time>2025-10-05T07:49:43Z</time>
      </trkpt>
      <trkpt lat="43.33513" lon="5.78013">
        <ele>753</ele>
        <time>2025-10-05T07:49:44Z</time>
      </trkpt>
      <trkpt lat="43.33513" lon="5.78013">
        <ele>753</ele>
        <time>2025-10-05T07:49:45Z</time>
      </trkpt>
      <trkpt lat="43.33513" lon="5.78013">
        <ele>753</ele>
        <time>2025-10-05T07:49:46Z</time>
      </trkpt>
      <trkpt lat="43.33513" lon="5.78013">
        <ele>753</ele>
        <time>2025-10-05T07:49:47Z</time>
      </trkpt>
      <trkpt lat="43.33512" lon="5.78013">
        <ele>753</ele>
        <time>2025-10-05T07:49:48Z</time>
      </trkpt>
      <trkpt lat="43.33512" lon="5.78013">
        <ele>753.1</ele>
        <time>2025-10-05T07:49:49Z</time>
      </trkpt>
      <trkpt lat="43.33512" lon="5.78012">
        <ele>753.1</ele>
        <time>2025-10-05T07:49:50Z</time>
      </trkpt>
      <trkpt lat="43.33512" lon="5.78012">
        <ele>753.2</ele>
        <time>2025-10-05T07:49:51Z</time>
      </trkpt>
      <trkpt lat="43.33512" lon="5.78012">
        <ele>753.3</ele>
        <time>2025-10-05T07:49:52Z</time>
      </trkpt>
      <trkpt lat="43.33512" lon="5.78012">
        <ele>753.4</ele>
        <time>2025-10-05T07:49:53Z</time>
      </trkpt>
      <trkpt lat="43.33512" lon="5.78012">
        <ele>753.5</ele>
        <time>2025-10-05T07:49:54Z</time>
      </trkpt>
      <trkpt lat="43.33512" lon="5.78012">
        <ele>753.5</ele>
        <time>2025-10-05T07:49:55Z</time>
      </trkpt>
      <trkpt lat="43.33512" lon="5.78012">
        <ele>753.5</ele>
        <time>2025-10-05T07:49:56Z</time>
      </trkpt>
      <trkpt lat="43.33512" lon="5.78012">
        <ele>753.5</ele>
        <time>2025-10-05T07:49:57Z</time>
      </trkpt>
      <trkpt lat="43.33512" lon="5.78012">
        <ele>753.6</ele>
        <time>2025-10-05T07:49:58Z</time>
      </trkpt>
      <trkpt lat="43.33512" lon="5.78012">
        <ele>753.6</ele>
        <time>2025-10-05T07:49:59Z</time>
      </trkpt>
      <trkpt lat="43.33512" lon="5.78012">
        <ele>753.6</ele>
        <time>2025-10-05T07:50:00Z</time>
      </trkpt>
      <trkpt lat="43.33513" lon="5.78012">
        <ele>753.7</ele>
        <time>2025-10-05T07:50:01Z</time>
      </trkpt>
      <trkpt lat="43.33513" lon="5.78012">
        <ele>753.8</ele>
        <time>2025-10-05T07:50:02Z</time>
      </trkpt>
      <trkpt lat="43.33513" lon="5.78012">
        <ele>753.8</ele>
        <time>2025-10-05T07:50:03Z</time>
      </trkpt>
      <trkpt lat="43.33513" lon="5.78011">
        <ele>753.9</ele>
        <time>2025-10-05T07:50:04Z</time>
      </trkpt>
      <trkpt lat="43.33513" lon="5.78011">
        <ele>753.9</ele>
        <time>2025-10-05T07:50:05Z</time>
      </trkpt>
      <trkpt lat="43.33513" lon="5.78011">
        <ele>753.9</ele>
        <time>2025-10-05T07:50:06Z</time>
      </trkpt>
      <trkpt lat="43.33513" lon="5.78011">
        <ele>753.9</ele>
        <time>2025-10-05T07:50:07Z</time>
      </trkpt>
      <trkpt lat="43.33513" lon="5.78011">
        <ele>753.9</ele>
        <time>2025-10-05T07:50:08Z</time>
      </trkpt>
      <trkpt lat="43.33513" lon="5.78011">
        <ele>753.9</ele>
        <time>2025-10-05T07:50:09Z</time>
      </trkpt>
      <trkpt lat="43.33513" lon="5.78011">
        <ele>754</ele>
        <time>2025-10-05T07:50:10Z</time>
      </trkpt>
      <trkpt lat="43.33514" lon="5.78011">
        <ele>754</ele>
        <time>2025-10-05T07:50:11Z</time>
      </trkpt>
      <trkpt lat="43.33513" lon="5.78011">
        <ele>754.1</ele>
        <time>2025-10-05T07:50:12Z</time>
      </trkpt>
      <trkpt lat="43.33513" lon="5.78011">
        <ele>754.1</ele>
        <time>2025-10-05T07:50:13Z</time>
      </trkpt>
      <trkpt lat="43.33513" lon="5.78011">
        <ele>754.1</ele>
        <time>2025-10-05T07:50:14Z</time>
      </trkpt>
      <trkpt lat="43.33513" lon="5.78011">
        <ele>754.1</ele>
        <time>2025-10-05T07:50:15Z</time>
      </trkpt>
      <trkpt lat="43.33513" lon="5.78011">
        <ele>754.1</ele>
        <time>2025-10-05T07:50:16Z</time>
      </trkpt>
      <trkpt lat="43.33513" lon="5.78011">
        <ele>754.1</ele>
        <time>2025-10-05T07:50:17Z</time>
      </trkpt>
      <trkpt lat="43.33513" lon="5.78011">
        <ele>754.1</ele>
        <time>2025-10-05T07:50:18Z</time>
      </trkpt>
      <trkpt lat="43.33513" lon="5.78012">
        <ele>754</ele>
        <time>2025-10-05T07:50:19Z</time>
      </trkpt>
      <trkpt lat="43.33513" lon="5.78012">
        <ele>754</ele>
        <time>2025-10-05T07:50:20Z</time>
      </trkpt>
      <trkpt lat="43.33513" lon="5.78012">
        <ele>754</ele>
        <time>2025-10-05T07:50:21Z</time>
      </trkpt>
      <trkpt lat="43.33514" lon="5.78012">
        <ele>754</ele>
        <time>2025-10-05T07:50:22Z</time>
      </trkpt>
      <trkpt lat="43.33514" lon="5.78011">
        <ele>754</ele>
        <time>2025-10-05T07:50:23Z</time>
      </trkpt>
      <trkpt lat="43.33513" lon="5.78011">
        <ele>754</ele>
        <time>2025-10-05T07:50:24Z</time>
      </trkpt>
      <trkpt lat="43.33513" lon="5.78011">
        <ele>754</ele>
        <time>2025-10-05T07:50:25Z</time>
      </trkpt>
      <trkpt lat="43.33513" lon="5.78011">
        <ele>754</ele>
        <time>2025-10-05T07:50:26Z</time>
      </trkpt>
      <trkpt lat="43.33513" lon="5.78011">
        <ele>753.9</ele>
        <time>2025-10-05T07:50:27Z</time>
      </trkpt>
      <trkpt lat="43.33513" lon="5.78011">
        <ele>753.9</ele>
        <time>2025-10-05T07:50:28Z</time>
      </trkpt>
      <trkpt lat="43.33512" lon="5.78011">
        <ele>753.9</ele>
        <time>2025-10-05T07:50:29Z</time>
      </trkpt>
      <trkpt lat="43.33512" lon="5.78011">
        <ele>753.8</ele>
        <time>2025-10-05T07:50:30Z</time>
      </trkpt>
      <trkpt lat="43.33512" lon="5.78011">
        <ele>753.8</ele>
        <time>2025-10-05T07:50:31Z</time>
      </trkpt>
      <trkpt lat="43.33512" lon="5.78011">
        <ele>753.8</ele>
        <time>2025-10-05T07:50:32Z</time>
      </trkpt>
      <trkpt lat="43.33512" lon="5.78011">
        <ele>753.8</ele>
        <time>2025-10-05T07:50:33Z</time>
      </trkpt>
      <trkpt lat="43.33512" lon="5.78011">
        <ele>753.8</ele>
        <time>2025-10-05T07:50:34Z</time>
      </trkpt>
      <trkpt lat="43.33512" lon="5.78012">
        <ele>753.8</ele>
        <time>2025-10-05T07:50:35Z</time>
      </trkpt>
      <trkpt lat="43.33512" lon="5.78013">
        <ele>753.8</ele>
        <time>2025-10-05T07:50:36Z</time>
      </trkpt>
      <trkpt lat="43.33512" lon="5.78014">
        <ele>753.8</ele>
        <time>2025-10-05T07:50:37Z</time>
      </trkpt>
      <trkpt lat="43.33512" lon="5.78015">
        <ele>753.8</ele>
        <time>2025-10-05T07:50:38Z</time>
      </trkpt>
      <trkpt lat="43.33512" lon="5.78015">
        <ele>753.8</ele>
        <time>2025-10-05T07:50:39Z</time>
      </trkpt>
      <trkpt lat="43.33512" lon="5.78014">
        <ele>753.8</ele>
        <time>2025-10-05T07:50:40Z</time>
      </trkpt>
      <trkpt lat="43.33511" lon="5.78015">
        <ele>753.8</ele>
        <time>2025-10-05T07:50:41Z</time>
      </trkpt>
      <trkpt lat="43.33512" lon="5.78015">
        <ele>753.9</ele>
        <time>2025-10-05T07:50:42Z</time>
      </trkpt>
      <trkpt lat="43.33512" lon="5.78015">
        <ele>753.9</ele>
        <time>2025-10-05T07:50:43Z</time>
      </trkpt>
      <trkpt lat="43.33511" lon="5.78016">
        <ele>753.8</ele>
        <time>2025-10-05T07:50:44Z</time>
      </trkpt>
      <trkpt lat="43.33511" lon="5.78017">
        <ele>753.8</ele>
        <time>2025-10-05T07:50:45Z</time>
      </trkpt>
      <trkpt lat="43.33511" lon="5.78017">
        <ele>753.8</ele>
        <time>2025-10-05T07:50:46Z</time>
      </trkpt>
      <trkpt lat="43.33511" lon="5.78018">
        <ele>753.8</ele>
        <time>2025-10-05T07:50:47Z</time>
      </trkpt>
      <trkpt lat="43.3351" lon="5.78019">
        <ele>753.9</ele>
        <time>2025-10-05T07:50:48Z</time>
      </trkpt>
      <trkpt lat="43.3351" lon="5.78019">
        <ele>753.9</ele>
        <time>2025-10-05T07:50:49Z</time>
      </trkpt>
      <trkpt lat="43.3351" lon="5.7802">
        <ele>754</ele>
        <time>2025-10-05T07:50:50Z</time>
      </trkpt>
      <trkpt lat="43.3351" lon="5.78021">
        <ele>754</ele>
        <time>2025-10-05T07:50:51Z</time>
      </trkpt>
      <trkpt lat="43.3351" lon="5.78021">
        <ele>754.1</ele>
        <time>2025-10-05T07:50:52Z</time>
      </trkpt>
      <trkpt lat="43.3351" lon="5.78022">
        <ele>754.1</ele>
        <time>2025-10-05T07:50:53Z</time>
      </trkpt>
      <trkpt lat="43.3351" lon="5.78022">
        <ele>754.1</ele>
        <time>2025-10-05T07:50:54Z</time>
      </trkpt>
      <trkpt lat="43.33509" lon="5.78022">
        <ele>754.1</ele>
        <time>2025-10-05T07:50:55Z</time>
      </trkpt>
      <trkpt lat="43.33509" lon="5.78023">
        <ele>754.1</ele>
        <time>2025-10-05T07:50:56Z</time>
      </trkpt>
      <trkpt lat="43.33509" lon="5.78023">
        <ele>754.1</ele>
        <time>2025-10-05T07:50:57Z</time>
      </trkpt>
      <trkpt lat="43.3351" lon="5.78024">
        <ele>754.1</ele>
        <time>2025-10-05T07:50:58Z</time>
      </trkpt>
      <trkpt lat="43.3351" lon="5.78024">
        <ele>754.2</ele>
        <time>2025-10-05T07:50:59Z</time>
      </trkpt>
      <trkpt lat="43.3351" lon="5.78024">
        <ele>754.2</ele>
        <time>2025-10-05T07:51:00Z</time>
      </trkpt>
      <trkpt lat="43.3351" lon="5.78024">
        <ele>754.2</ele>
        <time>2025-10-05T07:51:01Z</time>
      </trkpt>
      <trkpt lat="43.3351" lon="5.78025">
        <ele>754.3</ele>
        <time>2025-10-05T07:51:02Z</time>
      </trkpt>
      <trkpt lat="43.3351" lon="5.78025">
        <ele>754.3</ele>
        <time>2025-10-05T07:51:03Z</time>
      </trkpt>
      <trkpt lat="43.33509" lon="5.78026">
        <ele>754.3</ele>
        <time>2025-10-05T07:51:04Z</time>
      </trkpt>
      <trkpt lat="43.33509" lon="5.78026">
        <ele>754.3</ele>
        <time>2025-10-05T07:51:05Z</time>
      </trkpt>
      <trkpt lat="43.33509" lon="5.78026">
        <ele>754.4</ele>
        <time>2025-10-05T07:51:06Z</time>
      </trkpt>
      <trkpt lat="43.33509" lon="5.78026">
        <ele>754.4</ele>
        <time>2025-10-05T07:51:07Z</time>
      </trkpt>
      <trkpt lat="43.33509" lon="5.78026">
        <ele>754.3</ele>
        <time>2025-10-05T07:51:08Z</time>
      </trkpt>
      <trkpt lat="43.33509" lon="5.78026">
        <ele>754.3</ele>
        <time>2025-10-05T07:51:09Z</time>
      </trkpt>
      <trkpt lat="43.33509" lon="5.78026">
        <ele>754.4</ele>
        <time>2025-10-05T07:51:10Z</time>
      </trkpt>
      <trkpt lat="43.33509" lon="5.78026">
        <ele>754.4</ele>
        <time>2025-10-05T07:51:11Z</time>
      </trkpt>
      <trkpt lat="43.33509" lon="5.78026">
        <ele>754.4</ele>
        <time>2025-10-05T07:51:12Z</time>
      </trkpt>
      <trkpt lat="43.33508" lon="5.78026">
        <ele>754.4</ele>
        <time>2025-10-05T07:51:13Z</time>
      </trkpt>
      <trkpt lat="43.33508" lon="5.78026">
        <ele>754.4</ele>
        <time>2025-10-05T07:51:14Z</time>
      </trkpt>
      <trkpt lat="43.33507" lon="5.78026">
        <ele>754.4</ele>
        <time>2025-10-05T07:51:15Z</time>
      </trkpt>
      <trkpt lat="43.33506" lon="5.78027">
        <ele>754.6</ele>
        <time>2025-10-05T07:51:16Z</time>
      </trkpt>
      <trkpt lat="43.33506" lon="5.78027">
        <ele>754.7</ele>
        <time>2025-10-05T07:51:17Z</time>
      </trkpt>
      <trkpt lat="43.33506" lon="5.78027">
        <ele>754.7</ele>
        <time>2025-10-05T07:51:18Z</time>
      </trkpt>
      <trkpt lat="43.33506" lon="5.78028">
        <ele>754.8</ele>
        <time>2025-10-05T07:51:19Z</time>
      </trkpt>
      <trkpt lat="43.33506" lon="5.78029">
        <ele>754.8</ele>
        <time>2025-10-05T07:51:20Z</time>
      </trkpt>
      <trkpt lat="43.33506" lon="5.7803">
        <ele>754.9</ele>
        <time>2025-10-05T07:51:21Z</time>
      </trkpt>
      <trkpt lat="43.33507" lon="5.7803">
        <ele>754.9</ele>
        <time>2025-10-05T07:51:22Z</time>
      </trkpt>
      <trkpt lat="43.33507" lon="5.78031">
        <ele>754.9</ele>
        <time>2025-10-05T07:51:23Z</time>
      </trkpt>
      <trkpt lat="43.33507" lon="5.78032">
        <ele>754.9</ele>
        <time>2025-10-05T07:51:24Z</time>
      </trkpt>
      <trkpt lat="43.33507" lon="5.78032">
        <ele>755</ele>
        <time>2025-10-05T07:51:25Z</time>
      </trkpt>
      <trkpt lat="43.33507" lon="5.78033">
        <ele>754.9</ele>
        <time>2025-10-05T07:51:26Z</time>
      </trkpt>
      <trkpt lat="43.33508" lon="5.78033">
        <ele>754.9</ele>
        <time>2025-10-05T07:51:27Z</time>
      </trkpt>
      <trkpt lat="43.33508" lon="5.78034">
        <ele>754.9</ele>
        <time>2025-10-05T07:51:28Z</time>
      </trkpt>
      <trkpt lat="43.33508" lon="5.78035">
        <ele>754.9</ele>
        <time>2025-10-05T07:51:29Z</time>
      </trkpt>
      <trkpt lat="43.33508" lon="5.78035">
        <ele>754.7</ele>
        <time>2025-10-05T07:51:30Z</time>
      </trkpt>
      <trkpt lat="43.33509" lon="5.78035">
        <ele>754.6</ele>
        <time>2025-10-05T07:51:31Z</time>
      </trkpt>
      <trkpt lat="43.33509" lon="5.78036">
        <ele>754.5</ele>
        <time>2025-10-05T07:51:32Z</time>
      </trkpt>
      <trkpt lat="43.3351" lon="5.78036">
        <ele>754.3</ele>
        <time>2025-10-05T07:51:33Z</time>
      </trkpt>
      <trkpt lat="43.3351" lon="5.78036">
        <ele>754.2</ele>
        <time>2025-10-05T07:51:34Z</time>
      </trkpt>
      <trkpt lat="43.33511" lon="5.78037">
        <ele>754</ele>
        <time>2025-10-05T07:51:35Z</time>
      </trkpt>
      <trkpt lat="43.33511" lon="5.78037">
        <ele>753.9</ele>
        <time>2025-10-05T07:51:36Z</time>
      </trkpt>
      <trkpt lat="43.33511" lon="5.78037">
        <ele>753.7</ele>
        <time>2025-10-05T07:51:37Z</time>
      </trkpt>
      <trkpt lat="43.33511" lon="5.78037">
        <ele>753.3</ele>
        <time>2025-10-05T07:51:38Z</time>
      </trkpt>
      <trkpt lat="43.33512" lon="5.78037">
        <ele>753.1</ele>
        <time>2025-10-05T07:51:39Z</time>
      </trkpt>
      <trkpt lat="43.33513" lon="5.78038">
        <ele>752.9</ele>
        <time>2025-10-05T07:51:40Z</time>
      </trkpt>
      <trkpt lat="43.33513" lon="5.78038">
        <ele>752.6</ele>
        <time>2025-10-05T07:51:41Z</time>
      </trkpt>
      <trkpt lat="43.33514" lon="5.78039">
        <ele>752.4</ele>
        <time>2025-10-05T07:51:42Z</time>
      </trkpt>
      <trkpt lat="43.33513" lon="5.7804">
        <ele>752.2</ele>
        <time>2025-10-05T07:51:43Z</time>
      </trkpt>
      <trkpt lat="43.33513" lon="5.78041">
        <ele>752</ele>
        <time>2025-10-05T07:51:44Z</time>
      </trkpt>
      <trkpt lat="43.33514" lon="5.78041">
        <ele>751.8</ele>
        <time>2025-10-05T07:51:45Z</time>
      </trkpt>
      <trkpt lat="43.33515" lon="5.78041">
        <ele>751.7</ele>
        <time>2025-10-05T07:51:46Z</time>
      </trkpt>
      <trkpt lat="43.33516" lon="5.78041">
        <ele>751.7</ele>
        <time>2025-10-05T07:51:47Z</time>
      </trkpt>
      <trkpt lat="43.33516" lon="5.78042">
        <ele>751.4</ele>
        <time>2025-10-05T07:51:48Z</time>
      </trkpt>
      <trkpt lat="43.33516" lon="5.78043">
        <ele>751.4</ele>
        <time>2025-10-05T07:51:49Z</time>
      </trkpt>
      <trkpt lat="43.33517" lon="5.78043">
        <ele>751.2</ele>
        <time>2025-10-05T07:51:50Z</time>
      </trkpt>
      <trkpt lat="43.33517" lon="5.78044">
        <ele>751.1</ele>
        <time>2025-10-05T07:51:51Z</time>
      </trkpt>
      <trkpt lat="43.33518" lon="5.78044">
        <ele>750.9</ele>
        <time>2025-10-05T07:51:52Z</time>
      </trkpt>
      <trkpt lat="43.33519" lon="5.78044">
        <ele>750.5</ele>
        <time>2025-10-05T07:51:53Z</time>
      </trkpt>
      <trkpt lat="43.33519" lon="5.78045">
        <ele>750.3</ele>
        <time>2025-10-05T07:51:54Z</time>
      </trkpt>
      <trkpt lat="43.3352" lon="5.78045">
        <ele>749.9</ele>
        <time>2025-10-05T07:51:55Z</time>
      </trkpt>
      <trkpt lat="43.3352" lon="5.78045">
        <ele>749.6</ele>
        <time>2025-10-05T07:51:56Z</time>
      </trkpt>
      <trkpt lat="43.3352" lon="5.78046">
        <ele>749.4</ele>
        <time>2025-10-05T07:51:57Z</time>
      </trkpt>
      <trkpt lat="43.3352" lon="5.78046">
        <ele>749.3</ele>
        <time>2025-10-05T07:51:58Z</time>
      </trkpt>
      <trkpt lat="43.33521" lon="5.78046">
        <ele>749</ele>
        <time>2025-10-05T07:51:59Z</time>
      </trkpt>
      <trkpt lat="43.3352" lon="5.78047">
        <ele>748.7</ele>
        <time>2025-10-05T07:52:00Z</time>
      </trkpt>
      <trkpt lat="43.33521" lon="5.78048">
        <ele>748.5</ele>
        <time>2025-10-05T07:52:01Z</time>
      </trkpt>
      <trkpt lat="43.33521" lon="5.78049">
        <ele>748.4</ele>
        <time>2025-10-05T07:52:02Z</time>
      </trkpt>
      <trkpt lat="43.33521" lon="5.78049">
        <ele>748.2</ele>
        <time>2025-10-05T07:52:03Z</time>
      </trkpt>
      <trkpt lat="43.33521" lon="5.78049">
        <ele>747.9</ele>
        <time>2025-10-05T07:52:04Z</time>
      </trkpt>
      <trkpt lat="43.33523" lon="5.78049">
        <ele>747.8</ele>
        <time>2025-10-05T07:52:05Z</time>
      </trkpt>
      <trkpt lat="43.33523" lon="5.7805">
        <ele>747.7</ele>
        <time>2025-10-05T07:52:06Z</time>
      </trkpt>
      <trkpt lat="43.33523" lon="5.7805">
        <ele>747.6</ele>
        <time>2025-10-05T07:52:07Z</time>
      </trkpt>
      <trkpt lat="43.33523" lon="5.78051">
        <ele>747.5</ele>
        <time>2025-10-05T07:52:08Z</time>
      </trkpt>
      <trkpt lat="43.33524" lon="5.78052">
        <ele>747.4</ele>
        <time>2025-10-05T07:52:09Z</time>
      </trkpt>
      <trkpt lat="43.33523" lon="5.78053">
        <ele>747.3</ele>
        <time>2025-10-05T07:52:10Z</time>
      </trkpt>
      <trkpt lat="43.33524" lon="5.78054">
        <ele>747.1</ele>
        <time>2025-10-05T07:52:11Z</time>
      </trkpt>
      <trkpt lat="43.33524" lon="5.78055">
        <ele>747</ele>
        <time>2025-10-05T07:52:12Z</time>
      </trkpt>
      <trkpt lat="43.33525" lon="5.78056">
        <ele>746.9</ele>
        <time>2025-10-05T07:52:13Z</time>
      </trkpt>
      <trkpt lat="43.33525" lon="5.78058">
        <ele>746.7</ele>
        <time>2025-10-05T07:52:14Z</time>
      </trkpt>
      <trkpt lat="43.33525" lon="5.78059">
        <ele>746.6</ele>
        <time>2025-10-05T07:52:15Z</time>
      </trkpt>
      <trkpt lat="43.33526" lon="5.7806">
        <ele>746.5</ele>
        <time>2025-10-05T07:52:16Z</time>
      </trkpt>
      <trkpt lat="43.33527" lon="5.78061">
        <ele>746.4</ele>
        <time>2025-10-05T07:52:17Z</time>
      </trkpt>
      <trkpt lat="43.33527" lon="5.78062">
        <ele>746.3</ele>
        <time>2025-10-05T07:52:18Z</time>
      </trkpt>
      <trkpt lat="43.33528" lon="5.78063">
        <ele>746.1</ele>
        <time>2025-10-05T07:52:19Z</time>
      </trkpt>
      <trkpt lat="43.33529" lon="5.78064">
        <ele>746</ele>
        <time>2025-10-05T07:52:20Z</time>
      </trkpt>
      <trkpt lat="43.33529" lon="5.78064">
        <ele>745.8</ele>
        <time>2025-10-05T07:52:21Z</time>
      </trkpt>
      <trkpt lat="43.33529" lon="5.78064">
        <ele>745.7</ele>
        <time>2025-10-05T07:52:22Z</time>
      </trkpt>
      <trkpt lat="43.3353" lon="5.78065">
        <ele>745.6</ele>
        <time>2025-10-05T07:52:23Z</time>
      </trkpt>
      <trkpt lat="43.3353" lon="5.78065">
        <ele>745.5</ele>
        <time>2025-10-05T07:52:24Z</time>
      </trkpt>
      <trkpt lat="43.33531" lon="5.78065">
        <ele>745.4</ele>
        <time>2025-10-05T07:52:25Z</time>
      </trkpt>
      <trkpt lat="43.33532" lon="5.78066">
        <ele>745.4</ele>
        <time>2025-10-05T07:52:26Z</time>
      </trkpt>
      <trkpt lat="43.33533" lon="5.78066">
        <ele>745.4</ele>
        <time>2025-10-05T07:52:27Z</time>
      </trkpt>
      <trkpt lat="43.33534" lon="5.78067">
        <ele>745.4</ele>
        <time>2025-10-05T07:52:28Z</time>
      </trkpt>
      <trkpt lat="43.33534" lon="5.78068">
        <ele>745.4</ele>
        <time>2025-10-05T07:52:29Z</time>
      </trkpt>
      <trkpt lat="43.33536" lon="5.78069">
        <ele>745.4</ele>
        <time>2025-10-05T07:52:30Z</time>
      </trkpt>
      <trkpt lat="43.33536" lon="5.7807">
        <ele>745.4</ele>
        <time>2025-10-05T07:52:31Z</time>
      </trkpt>
      <trkpt lat="43.33535" lon="5.78071">
        <ele>745.4</ele>
        <time>2025-10-05T07:52:32Z</time>
      </trkpt>
      <trkpt lat="43.33535" lon="5.78072">
        <ele>745.4</ele>
        <time>2025-10-05T07:52:33Z</time>
      </trkpt>
      <trkpt lat="43.33535" lon="5.78073">
        <ele>745.3</ele>
        <time>2025-10-05T07:52:34Z</time>
      </trkpt>
      <trkpt lat="43.33535" lon="5.78074">
        <ele>745.3</ele>
        <time>2025-10-05T07:52:35Z</time>
      </trkpt>
      <trkpt lat="43.33535" lon="5.78074">
        <ele>745.3</ele>
        <time>2025-10-05T07:52:36Z</time>
      </trkpt>
      <trkpt lat="43.33536" lon="5.78073">
        <ele>745.3</ele>
        <time>2025-10-05T07:52:37Z</time>
      </trkpt>
      <trkpt lat="43.33536" lon="5.78074">
        <ele>745.3</ele>
        <time>2025-10-05T07:52:38Z</time>
      </trkpt>
      <trkpt lat="43.33537" lon="5.78075">
        <ele>745.1</ele>
        <time>2025-10-05T07:52:39Z</time>
      </trkpt>
      <trkpt lat="43.33537" lon="5.78077">
        <ele>745.1</ele>
        <time>2025-10-05T07:52:40Z</time>
      </trkpt>
      <trkpt lat="43.33536" lon="5.78078">
        <ele>745</ele>
        <time>2025-10-05T07:52:41Z</time>
      </trkpt>
      <trkpt lat="43.33536" lon="5.78079">
        <ele>745.1</ele>
        <time>2025-10-05T07:52:42Z</time>
      </trkpt>
      <trkpt lat="43.33536" lon="5.7808">
        <ele>745.3</ele>
        <time>2025-10-05T07:52:43Z</time>
      </trkpt>
      <trkpt lat="43.33536" lon="5.78081">
        <ele>745.4</ele>
        <time>2025-10-05T07:52:44Z</time>
      </trkpt>
      <trkpt lat="43.33536" lon="5.78082">
        <ele>745.5</ele>
        <time>2025-10-05T07:52:45Z</time>
      </trkpt>
      <trkpt lat="43.33537" lon="5.78083">
        <ele>745.5</ele>
        <time>2025-10-05T07:52:46Z</time>
      </trkpt>
      <trkpt lat="43.33537" lon="5.78086">
        <ele>745.6</ele>
        <time>2025-10-05T07:52:47Z</time>
      </trkpt>
      <trkpt lat="43.33537" lon="5.78088">
        <ele>745.7</ele>
        <time>2025-10-05T07:52:48Z</time>
      </trkpt>
      <trkpt lat="43.33538" lon="5.78089">
        <ele>745.9</ele>
        <time>2025-10-05T07:52:49Z</time>
      </trkpt>
      <trkpt lat="43.33538" lon="5.78089">
        <ele>746.1</ele>
        <time>2025-10-05T07:52:50Z</time>
      </trkpt>
      <trkpt lat="43.33539" lon="5.7809">
        <ele>746.2</ele>
        <time>2025-10-05T07:52:51Z</time>
      </trkpt>
      <trkpt lat="43.33539" lon="5.78091">
        <ele>746.2</ele>
        <time>2025-10-05T07:52:52Z</time>
      </trkpt>
      <trkpt lat="43.33539" lon="5.78092">
        <ele>746.4</ele>
        <time>2025-10-05T07:52:53Z</time>
      </trkpt>
      <trkpt lat="43.3354" lon="5.78093">
        <ele>746.5</ele>
        <time>2025-10-05T07:52:54Z</time>
      </trkpt>
      <trkpt lat="43.3354" lon="5.78094">
        <ele>746.5</ele>
        <time>2025-10-05T07:52:55Z</time>
      </trkpt>
      <trkpt lat="43.33541" lon="5.78095">
        <ele>746.7</ele>
        <time>2025-10-05T07:52:56Z</time>
      </trkpt>
      <trkpt lat="43.33541" lon="5.78096">
        <ele>746.7</ele>
        <time>2025-10-05T07:52:57Z</time>
      </trkpt>
      <trkpt lat="43.3354" lon="5.78097">
        <ele>746.7</ele>
        <time>2025-10-05T07:52:58Z</time>
      </trkpt>
      <trkpt lat="43.33541" lon="5.78098">
        <ele>746.7</ele>
        <time>2025-10-05T07:52:59Z</time>
      </trkpt>
      <trkpt lat="43.33541" lon="5.78099">
        <ele>747</ele>
        <time>2025-10-05T07:53:00Z</time>
      </trkpt>
      <trkpt lat="43.3354" lon="5.78101">
        <ele>747.1</ele>
        <time>2025-10-05T07:53:01Z</time>
      </trkpt>
      <trkpt lat="43.3354" lon="5.78102">
        <ele>747.2</ele>
        <time>2025-10-05T07:53:02Z</time>
      </trkpt>
      <trkpt lat="43.33539" lon="5.78104">
        <ele>747.5</ele>
        <time>2025-10-05T07:53:03Z</time>
      </trkpt>
      <trkpt lat="43.33539" lon="5.78104">
        <ele>747.8</ele>
        <time>2025-10-05T07:53:04Z</time>
      </trkpt>
      <trkpt lat="43.33539" lon="5.78105">
        <ele>748</ele>
        <time>2025-10-05T07:53:05Z</time>
      </trkpt>
      <trkpt lat="43.33538" lon="5.78106">
        <ele>748.3</ele>
        <time>2025-10-05T07:53:06Z</time>
      </trkpt>
      <trkpt lat="43.33538" lon="5.78106">
        <ele>748.4</ele>
        <time>2025-10-05T07:53:07Z</time>
      </trkpt>
      <trkpt lat="43.33538" lon="5.78106">
        <ele>748.6</ele>
        <time>2025-10-05T07:53:08Z</time>
      </trkpt>
      <trkpt lat="43.33538" lon="5.78106">
        <ele>749</ele>
        <time>2025-10-05T07:53:09Z</time>
      </trkpt>
      <trkpt lat="43.33537" lon="5.78107">
        <ele>749.3</ele>
        <time>2025-10-05T07:53:10Z</time>
      </trkpt>
      <trkpt lat="43.33537" lon="5.78107">
        <ele>749.4</ele>
        <time>2025-10-05T07:53:11Z</time>
      </trkpt>
      <trkpt lat="43.33538" lon="5.78108">
        <ele>749.5</ele>
        <time>2025-10-05T07:53:12Z</time>
      </trkpt>
      <trkpt lat="43.33537" lon="5.7811">
        <ele>749.6</ele>
        <time>2025-10-05T07:53:13Z</time>
      </trkpt>
      <trkpt lat="43.33537" lon="5.78111">
        <ele>749.8</ele>
        <time>2025-10-05T07:53:14Z</time>
      </trkpt>
      <trkpt lat="43.33537" lon="5.78111">
        <ele>750</ele>
        <time>2025-10-05T07:53:15Z</time>
      </trkpt>
      <trkpt lat="43.33536" lon="5.78112">
        <ele>750.1</ele>
        <time>2025-10-05T07:53:16Z</time>
      </trkpt>
      <trkpt lat="43.33536" lon="5.78113">
        <ele>750.2</ele>
        <time>2025-10-05T07:53:17Z</time>
      </trkpt>
      <trkpt lat="43.33536" lon="5.78113">
        <ele>750.3</ele>
        <time>2025-10-05T07:53:18Z</time>
      </trkpt>
      <trkpt lat="43.33536" lon="5.78114">
        <ele>750.5</ele>
        <time>2025-10-05T07:53:19Z</time>
      </trkpt>
      <trkpt lat="43.33535" lon="5.78114">
        <ele>750.6</ele>
        <time>2025-10-05T07:53:20Z</time>
      </trkpt>
      <trkpt lat="43.33535" lon="5.78114">
        <ele>750.7</ele>
        <time>2025-10-05T07:53:21Z</time>
      </trkpt>
      <trkpt lat="43.33534" lon="5.78114">
        <ele>750.8</ele>
        <time>2025-10-05T07:53:22Z</time>
      </trkpt>
      <trkpt lat="43.33534" lon="5.78114">
        <ele>750.9</ele>
        <time>2025-10-05T07:53:23Z</time>
      </trkpt>
      <trkpt lat="43.33533" lon="5.78115">
        <ele>751</ele>
        <time>2025-10-05T07:53:24Z</time>
      </trkpt>
      <trkpt lat="43.33532" lon="5.78115">
        <ele>751.1</ele>
        <time>2025-10-05T07:53:25Z</time>
      </trkpt>
      <trkpt lat="43.33533" lon="5.78115">
        <ele>751.2</ele>
        <time>2025-10-05T07:53:26Z</time>
      </trkpt>
      <trkpt lat="43.33532" lon="5.78115">
        <ele>751.3</ele>
        <time>2025-10-05T07:53:27Z</time>
      </trkpt>
      <trkpt lat="43.33532" lon="5.78116">
        <ele>751.5</ele>
        <time>2025-10-05T07:53:28Z</time>
      </trkpt>
      <trkpt lat="43.33531" lon="5.78118">
        <ele>751.7</ele>
        <time>2025-10-05T07:53:29Z</time>
      </trkpt>
      <trkpt lat="43.33531" lon="5.78119">
        <ele>751.9</ele>
        <time>2025-10-05T07:53:30Z</time>
      </trkpt>
      <trkpt lat="43.33531" lon="5.78121">
        <ele>752</ele>
        <time>2025-10-05T07:53:31Z</time>
      </trkpt>
      <trkpt lat="43.3353" lon="5.78122">
        <ele>752.1</ele>
        <time>2025-10-05T07:53:32Z</time>
      </trkpt>
      <trkpt lat="43.33529" lon="5.78122">
        <ele>752.2</ele>
        <time>2025-10-05T07:53:33Z</time>
      </trkpt>
      <trkpt lat="43.3353" lon="5.78122">
        <ele>752.3</ele>
        <time>2025-10-05T07:53:34Z</time>
      </trkpt>
      <trkpt lat="43.3353" lon="5.78123">
        <ele>752.4</ele>
        <time>2025-10-05T07:53:35Z</time>
      </trkpt>
      <trkpt lat="43.3353" lon="5.78124">
        <ele>752.5</ele>
        <time>2025-10-05T07:53:36Z</time>
      </trkpt>
      <trkpt lat="43.3353" lon="5.78126">
        <ele>752.6</ele>
        <time>2025-10-05T07:53:37Z</time>
      </trkpt>
      <trkpt lat="43.3353" lon="5.78127">
        <ele>752.6</ele>
        <time>2025-10-05T07:53:38Z</time>
      </trkpt>
      <trkpt lat="43.33531" lon="5.78127">
        <ele>752.6</ele>
        <time>2025-10-05T07:53:39Z</time>
      </trkpt>
      <trkpt lat="43.33531" lon="5.78128">
        <ele>752.7</ele>
        <time>2025-10-05T07:53:40Z</time>
      </trkpt>
      <trkpt lat="43.33531" lon="5.78129">
        <ele>752.7</ele>
        <time>2025-10-05T07:53:41Z</time>
      </trkpt>
      <trkpt lat="43.33531" lon="5.7813">
        <ele>752.6</ele>
        <time>2025-10-05T07:53:42Z</time>
      </trkpt>
      <trkpt lat="43.33532" lon="5.78131">
        <ele>752.5</ele>
        <time>2025-10-05T07:53:43Z</time>
      </trkpt>
      <trkpt lat="43.33531" lon="5.78134">
        <ele>752.5</ele>
        <time>2025-10-05T07:53:44Z</time>
      </trkpt>
      <trkpt lat="43.33532" lon="5.78135">
        <ele>752.5</ele>
        <time>2025-10-05T07:53:45Z</time>
      </trkpt>
      <trkpt lat="43.33531" lon="5.78136">
        <ele>752.4</ele>
        <time>2025-10-05T07:53:46Z</time>
      </trkpt>
      <trkpt lat="43.3353" lon="5.78137">
        <ele>752.3</ele>
        <time>2025-10-05T07:53:47Z</time>
      </trkpt>
      <trkpt lat="43.3353" lon="5.78138">
        <ele>752.3</ele>
        <time>2025-10-05T07:53:48Z</time>
      </trkpt>
      <trkpt lat="43.3353" lon="5.78139">
        <ele>752.3</ele>
        <time>2025-10-05T07:53:49Z</time>
      </trkpt>
      <trkpt lat="43.3353" lon="5.7814">
        <ele>752.3</ele>
        <time>2025-10-05T07:53:50Z</time>
      </trkpt>
      <trkpt lat="43.3353" lon="5.78141">
        <ele>752.2</ele>
        <time>2025-10-05T07:53:51Z</time>
      </trkpt>
      <trkpt lat="43.3353" lon="5.78142">
        <ele>752.2</ele>
        <time>2025-10-05T07:53:52Z</time>
      </trkpt>
      <trkpt lat="43.33529" lon="5.78144">
        <ele>752.1</ele>
        <time>2025-10-05T07:53:53Z</time>
      </trkpt>
      <trkpt lat="43.3353" lon="5.78146">
        <ele>752.1</ele>
        <time>2025-10-05T07:53:54Z</time>
      </trkpt>
      <trkpt lat="43.3353" lon="5.78148">
        <ele>752.1</ele>
        <time>2025-10-05T07:53:55Z</time>
      </trkpt>
      <trkpt lat="43.33531" lon="5.78149">
        <ele>752.2</ele>
        <time>2025-10-05T07:53:56Z</time>
      </trkpt>
      <trkpt lat="43.33532" lon="5.78149">
        <ele>752.2</ele>
        <time>2025-10-05T07:53:57Z</time>
      </trkpt>
      <trkpt lat="43.33533" lon="5.78149">
        <ele>752.1</ele>
        <time>2025-10-05T07:53:58Z</time>
      </trkpt>
      <trkpt lat="43.33534" lon="5.7815">
        <ele>752</ele>
        <time>2025-10-05T07:53:59Z</time>
      </trkpt>
      <trkpt lat="43.33536" lon="5.7815">
        <ele>751.9</ele>
        <time>2025-10-05T07:54:00Z</time>
      </trkpt>
      <trkpt lat="43.33536" lon="5.7815">
        <ele>751.8</ele>
        <time>2025-10-05T07:54:01Z</time>
      </trkpt>
      <trkpt lat="43.33536" lon="5.7815">
        <ele>751.7</ele>
        <time>2025-10-05T07:54:02Z</time>
      </trkpt>
      <trkpt lat="43.33537" lon="5.7815">
        <ele>751.7</ele>
        <time>2025-10-05T07:54:03Z</time>
      </trkpt>
      <trkpt lat="43.33537" lon="5.78151">
        <ele>751.5</ele>
        <time>2025-10-05T07:54:04Z</time>
      </trkpt>
      <trkpt lat="43.33538" lon="5.78151">
        <ele>751.5</ele>
        <time>2025-10-05T07:54:05Z</time>
      </trkpt>
      <trkpt lat="43.33537" lon="5.78151">
        <ele>751.5</ele>
        <time>2025-10-05T07:54:06Z</time>
      </trkpt>
      <trkpt lat="43.33537" lon="5.78152">
        <ele>751.5</ele>
        <time>2025-10-05T07:54:07Z</time>
      </trkpt>
      <trkpt lat="43.33537" lon="5.78155">
        <ele>751.6</ele>
        <time>2025-10-05T07:54:08Z</time>
      </trkpt>
      <trkpt lat="43.33537" lon="5.78156">
        <ele>751.6</ele>
        <time>2025-10-05T07:54:09Z</time>
      </trkpt>
      <trkpt lat="43.33536" lon="5.78157">
        <ele>751.6</ele>
        <time>2025-10-05T07:54:10Z</time>
      </trkpt>
      <trkpt lat="43.33537" lon="5.78158">
        <ele>751.6</ele>
        <time>2025-10-05T07:54:11Z</time>
      </trkpt>
      <trkpt lat="43.33537" lon="5.7816">
        <ele>751.5</ele>
        <time>2025-10-05T07:54:12Z</time>
      </trkpt>
      <trkpt lat="43.33537" lon="5.78161">
        <ele>751.4</ele>
        <time>2025-10-05T07:54:13Z</time>
      </trkpt>
      <trkpt lat="43.33537" lon="5.78162">
        <ele>751.4</ele>
        <time>2025-10-05T07:54:14Z</time>
      </trkpt>
      <trkpt lat="43.33537" lon="5.78163">
        <ele>751.4</ele>
        <time>2025-10-05T07:54:15Z</time>
      </trkpt>
      <trkpt lat="43.33538" lon="5.78164">
        <ele>751.3</ele>
        <time>2025-10-05T07:54:16Z</time>
      </trkpt>
      <trkpt lat="43.33538" lon="5.78166">
        <ele>751.2</ele>
        <time>2025-10-05T07:54:17Z</time>
      </trkpt>
      <trkpt lat="43.33539" lon="5.78168">
        <ele>751.2</ele>
        <time>2025-10-05T07:54:18Z</time>
      </trkpt>
      <trkpt lat="43.3354" lon="5.7817">
        <ele>751.1</ele>
        <time>2025-10-05T07:54:19Z</time>
      </trkpt>
      <trkpt lat="43.3354" lon="5.78173">
        <ele>751.1</ele>
        <time>2025-10-05T07:54:20Z</time>
      </trkpt>
      <trkpt lat="43.3354" lon="5.78174">
        <ele>750.9</ele>
        <time>2025-10-05T07:54:21Z</time>
      </trkpt>
      <trkpt lat="43.3354" lon="5.78176">
        <ele>750.8</ele>
        <time>2025-10-05T07:54:22Z</time>
      </trkpt>
      <trkpt lat="43.33541" lon="5.78178">
        <ele>750.8</ele>
        <time>2025-10-05T07:54:23Z</time>
      </trkpt>
      <trkpt lat="43.33541" lon="5.78179">
        <ele>750.9</ele>
        <time>2025-10-05T07:54:24Z</time>
      </trkpt>
      <trkpt lat="43.33541" lon="5.78181">
        <ele>751</ele>
        <time>2025-10-05T07:54:25Z</time>
      </trkpt>
      <trkpt lat="43.33542" lon="5.78182">
        <ele>750.9</ele>
        <time>2025-10-05T07:54:26Z</time>
      </trkpt>
      <trkpt lat="43.33543" lon="5.78183">
        <ele>751</ele>
        <time>2025-10-05T07:54:27Z</time>
      </trkpt>
      <trkpt lat="43.33544" lon="5.78184">
        <ele>751.1</ele>
        <time>2025-10-05T07:54:28Z</time>
      </trkpt>
      <trkpt lat="43.33544" lon="5.78185">
        <ele>751.2</ele>
        <time>2025-10-05T07:54:29Z</time>
      </trkpt>
      <trkpt lat="43.33545" lon="5.78186">
        <ele>751.2</ele>
        <time>2025-10-05T07:54:30Z</time>
      </trkpt>
      <trkpt lat="43.33546" lon="5.78186">
        <ele>751.2</ele>
        <time>2025-10-05T07:54:31Z</time>
      </trkpt>
      <trkpt lat="43.33546" lon="5.78186">
        <ele>751.2</ele>
        <time>2025-10-05T07:54:32Z</time>
      </trkpt>
      <trkpt lat="43.33547" lon="5.78187">
        <ele>751.1</ele>
        <time>2025-10-05T07:54:33Z</time>
      </trkpt>
      <trkpt lat="43.33547" lon="5.78188">
        <ele>751.1</ele>
        <time>2025-10-05T07:54:34Z</time>
      </trkpt>
      <trkpt lat="43.33549" lon="5.78188">
        <ele>751</ele>
        <time>2025-10-05T07:54:35Z</time>
      </trkpt>
      <trkpt lat="43.33549" lon="5.78189">
        <ele>750.9</ele>
        <time>2025-10-05T07:54:36Z</time>
      </trkpt>
      <trkpt lat="43.33549" lon="5.7819">
        <ele>750.8</ele>
        <time>2025-10-05T07:54:37Z</time>
      </trkpt>
      <trkpt lat="43.33549" lon="5.78191">
        <ele>750.7</ele>
        <time>2025-10-05T07:54:38Z</time>
      </trkpt>
      <trkpt lat="43.3355" lon="5.78192">
        <ele>750.6</ele>
        <time>2025-10-05T07:54:39Z</time>
      </trkpt>
      <trkpt lat="43.3355" lon="5.78193">
        <ele>750.7</ele>
        <time>2025-10-05T07:54:40Z</time>
      </trkpt>
      <trkpt lat="43.33551" lon="5.78193">
        <ele>750.6</ele>
        <time>2025-10-05T07:54:41Z</time>
      </trkpt>
      <trkpt lat="43.33552" lon="5.78195">
        <ele>750.7</ele>
        <time>2025-10-05T07:54:42Z</time>
      </trkpt>
      <trkpt lat="43.33552" lon="5.78196">
        <ele>750.7</ele>
        <time>2025-10-05T07:54:43Z</time>
      </trkpt>
      <trkpt lat="43.33553" lon="5.78196">
        <ele>750.6</ele>
        <time>2025-10-05T07:54:44Z</time>
      </trkpt>
      <trkpt lat="43.33554" lon="5.78197">
        <ele>750.6</ele>
        <time>2025-10-05T07:54:45Z</time>
      </trkpt>
      <trkpt lat="43.33554" lon="5.78199">
        <ele>750.6</ele>
        <time>2025-10-05T07:54:46Z</time>
      </trkpt>
      <trkpt lat="43.33555" lon="5.78199">
        <ele>750.5</ele>
        <time>2025-10-05T07:54:47Z</time>
      </trkpt>
      <trkpt lat="43.33556" lon="5.782">
        <ele>750.5</ele>
        <time>2025-10-05T07:54:48Z</time>
      </trkpt>
      <trkpt lat="43.33556" lon="5.782">
        <ele>750.5</ele>
        <time>2025-10-05T07:54:49Z</time>
      </trkpt>
      <trkpt lat="43.33556" lon="5.78201">
        <ele>750.6</ele>
        <time>2025-10-05T07:54:50Z</time>
      </trkpt>
      <trkpt lat="43.33556" lon="5.78203">
        <ele>750.6</ele>
        <time>2025-10-05T07:54:51Z</time>
      </trkpt>
      <trkpt lat="43.33558" lon="5.78203">
        <ele>750.6</ele>
        <time>2025-10-05T07:54:52Z</time>
      </trkpt>
      <trkpt lat="43.33558" lon="5.78205">
        <ele>750.7</ele>
        <time>2025-10-05T07:54:53Z</time>
      </trkpt>
      <trkpt lat="43.33559" lon="5.78205">
        <ele>750.6</ele>
        <time>2025-10-05T07:54:54Z</time>
      </trkpt>
      <trkpt lat="43.33559" lon="5.78206">
        <ele>750.5</ele>
        <time>2025-10-05T07:54:55Z</time>
      </trkpt>
      <trkpt lat="43.3356" lon="5.78207">
        <ele>750.4</ele>
        <time>2025-10-05T07:54:56Z</time>
      </trkpt>
      <trkpt lat="43.33561" lon="5.78207">
        <ele>750.4</ele>
        <time>2025-10-05T07:54:57Z</time>
      </trkpt>
      <trkpt lat="43.33561" lon="5.78208">
        <ele>750.2</ele>
        <time>2025-10-05T07:54:58Z</time>
      </trkpt>
      <trkpt lat="43.33562" lon="5.78208">
        <ele>750.1</ele>
        <time>2025-10-05T07:54:59Z</time>
      </trkpt>
      <trkpt lat="43.33563" lon="5.78208">
        <ele>750.1</ele>
        <time>2025-10-05T07:55:00Z</time>
      </trkpt>
      <trkpt lat="43.33564" lon="5.78209">
        <ele>750</ele>
        <time>2025-10-05T07:55:01Z</time>
      </trkpt>
      <trkpt lat="43.33564" lon="5.78209">
        <ele>750</ele>
        <time>2025-10-05T07:55:02Z</time>
      </trkpt>
      <trkpt lat="43.33566" lon="5.78209">
        <ele>750</ele>
        <time>2025-10-05T07:55:03Z</time>
      </trkpt>
      <trkpt lat="43.33567" lon="5.78209">
        <ele>750</ele>
        <time>2025-10-05T07:55:04Z</time>
      </trkpt>
      <trkpt lat="43.33568" lon="5.78209">
        <ele>749.9</ele>
        <time>2025-10-05T07:55:05Z</time>
      </trkpt>
      <trkpt lat="43.33568" lon="5.7821">
        <ele>749.9</ele>
        <time>2025-10-05T07:55:06Z</time>
      </trkpt>
      <trkpt lat="43.33568" lon="5.78211">
        <ele>750</ele>
        <time>2025-10-05T07:55:07Z</time>
      </trkpt>
      <trkpt lat="43.33569" lon="5.78211">
        <ele>750</ele>
        <time>2025-10-05T07:55:08Z</time>
      </trkpt>
      <trkpt lat="43.3357" lon="5.78211">
        <ele>750.1</ele>
        <time>2025-10-05T07:55:09Z</time>
      </trkpt>
      <trkpt lat="43.3357" lon="5.78212">
        <ele>750.2</ele>
        <time>2025-10-05T07:55:10Z</time>
      </trkpt>
      <trkpt lat="43.33571" lon="5.78213">
        <ele>750.3</ele>
        <time>2025-10-05T07:55:11Z</time>
      </trkpt>
      <trkpt lat="43.33572" lon="5.78213">
        <ele>750.4</ele>
        <time>2025-10-05T07:55:12Z</time>
      </trkpt>
      <trkpt lat="43.33573" lon="5.78214">
        <ele>750.5</ele>
        <time>2025-10-05T07:55:13Z</time>
      </trkpt>
      <trkpt lat="43.33574" lon="5.78216">
        <ele>750.7</ele>
        <time>2025-10-05T07:55:14Z</time>
      </trkpt>
      <trkpt lat="43.33574" lon="5.78217">
        <ele>750.8</ele>
        <time>2025-10-05T07:55:15Z</time>
      </trkpt>
      <trkpt lat="43.33574" lon="5.78217">
        <ele>750.9</ele>
        <time>2025-10-05T07:55:16Z</time>
      </trkpt>
      <trkpt lat="43.33575" lon="5.78218">
        <ele>751.1</ele>
        <time>2025-10-05T07:55:17Z</time>
      </trkpt>
      <trkpt lat="43.33575" lon="5.7822">
        <ele>751.2</ele>
        <time>2025-10-05T07:55:18Z</time>
      </trkpt>
      <trkpt lat="43.33574" lon="5.78222">
        <ele>751.3</ele>
        <time>2025-10-05T07:55:19Z</time>
      </trkpt>
      <trkpt lat="43.33574" lon="5.78222">
        <ele>751.3</ele>
        <time>2025-10-05T07:55:20Z</time>
      </trkpt>
      <trkpt lat="43.33575" lon="5.78224">
        <ele>751.4</ele>
        <time>2025-10-05T07:55:21Z</time>
      </trkpt>
      <trkpt lat="43.33575" lon="5.78224">
        <ele>751.5</ele>
        <time>2025-10-05T07:55:22Z</time>
      </trkpt>
      <trkpt lat="43.33575" lon="5.78225">
        <ele>751.7</ele>
        <time>2025-10-05T07:55:23Z</time>
      </trkpt>
      <trkpt lat="43.33576" lon="5.78226">
        <ele>751.8</ele>
        <time>2025-10-05T07:55:24Z</time>
      </trkpt>
      <trkpt lat="43.33576" lon="5.78227">
        <ele>751.9</ele>
        <time>2025-10-05T07:55:25Z</time>
      </trkpt>
      <trkpt lat="43.33577" lon="5.78228">
        <ele>751.9</ele>
        <time>2025-10-05T07:55:26Z</time>
      </trkpt>
      <trkpt lat="43.33577" lon="5.78228">
        <ele>751.9</ele>
        <time>2025-10-05T07:55:27Z</time>
      </trkpt>
      <trkpt lat="43.33578" lon="5.78228">
        <ele>751.9</ele>
        <time>2025-10-05T07:55:28Z</time>
      </trkpt>
      <trkpt lat="43.33579" lon="5.78227">
        <ele>751.9</ele>
        <time>2025-10-05T07:55:29Z</time>
      </trkpt>
      <trkpt lat="43.33579" lon="5.78228">
        <ele>751.9</ele>
        <time>2025-10-05T07:55:30Z</time>
      </trkpt>
      <trkpt lat="43.3358" lon="5.78229">
        <ele>752</ele>
        <time>2025-10-05T07:55:31Z</time>
      </trkpt>
      <trkpt lat="43.33581" lon="5.7823">
        <ele>752.1</ele>
        <time>2025-10-05T07:55:32Z</time>
      </trkpt>
      <trkpt lat="43.33581" lon="5.78231">
        <ele>752.1</ele>
        <time>2025-10-05T07:55:33Z</time>
      </trkpt>
      <trkpt lat="43.33582" lon="5.78232">
        <ele>752.1</ele>
        <time>2025-10-05T07:55:34Z</time>
      </trkpt>
      <trkpt lat="43.33582" lon="5.78234">
        <ele>752.1</ele>
        <time>2025-10-05T07:55:35Z</time>
      </trkpt>
      <trkpt lat="43.33582" lon="5.78235">
        <ele>752.1</ele>
        <time>2025-10-05T07:55:36Z</time>
      </trkpt>
      <trkpt lat="43.33582" lon="5.78236">
        <ele>752.1</ele>
        <time>2025-10-05T07:55:37Z</time>
      </trkpt>
      <trkpt lat="43.33583" lon="5.78237">
        <ele>752.1</ele>
        <time>2025-10-05T07:55:38Z</time>
      </trkpt>
      <trkpt lat="43.33584" lon="5.78237">
        <ele>752</ele>
        <time>2025-10-05T07:55:39Z</time>
      </trkpt>
      <trkpt lat="43.33584" lon="5.78238">
        <ele>752</ele>
        <time>2025-10-05T07:55:40Z</time>
      </trkpt>
      <trkpt lat="43.33584" lon="5.78239">
        <ele>752.1</ele>
        <time>2025-10-05T07:55:41Z</time>
      </trkpt>
      <trkpt lat="43.33585" lon="5.7824">
        <ele>752.1</ele>
        <time>2025-10-05T07:55:42Z</time>
      </trkpt>
      <trkpt lat="43.33585" lon="5.78241">
        <ele>752.1</ele>
        <time>2025-10-05T07:55:43Z</time>
      </trkpt>
      <trkpt lat="43.33585" lon="5.78242">
        <ele>752.1</ele>
        <time>2025-10-05T07:55:44Z</time>
      </trkpt>
      <trkpt lat="43.33586" lon="5.78243">
        <ele>752.1</ele>
        <time>2025-10-05T07:55:45Z</time>
      </trkpt>
      <trkpt lat="43.33586" lon="5.78244">
        <ele>752.2</ele>
        <time>2025-10-05T07:55:46Z</time>
      </trkpt>
      <trkpt lat="43.33586" lon="5.78245">
        <ele>752.2</ele>
        <time>2025-10-05T07:55:47Z</time>
      </trkpt>
      <trkpt lat="43.33587" lon="5.78246">
        <ele>752.3</ele>
        <time>2025-10-05T07:55:48Z</time>
      </trkpt>
      <trkpt lat="43.33587" lon="5.78248">
        <ele>752.3</ele>
        <time>2025-10-05T07:55:49Z</time>
      </trkpt>
      <trkpt lat="43.33587" lon="5.7825">
        <ele>752.3</ele>
        <time>2025-10-05T07:55:50Z</time>
      </trkpt>
      <trkpt lat="43.33587" lon="5.78252">
        <ele>752.3</ele>
        <time>2025-10-05T07:55:51Z</time>
      </trkpt>
      <trkpt lat="43.33588" lon="5.78253">
        <ele>752.2</ele>
        <time>2025-10-05T07:55:52Z</time>
      </trkpt>
      <trkpt lat="43.33588" lon="5.78254">
        <ele>752.2</ele>
        <time>2025-10-05T07:55:53Z</time>
      </trkpt>
      <trkpt lat="43.33589" lon="5.78254">
        <ele>752.1</ele>
        <time>2025-10-05T07:55:54Z</time>
      </trkpt>
      <trkpt lat="43.33589" lon="5.78256">
        <ele>752.1</ele>
        <time>2025-10-05T07:55:55Z</time>
      </trkpt>
      <trkpt lat="43.33589" lon="5.78258">
        <ele>752.1</ele>
        <time>2025-10-05T07:55:56Z</time>
      </trkpt>
      <trkpt lat="43.33588" lon="5.7826">
        <ele>752.1</ele>
        <time>2025-10-05T07:55:57Z</time>
      </trkpt>
      <trkpt lat="43.33588" lon="5.78261">
        <ele>752</ele>
        <time>2025-10-05T07:55:58Z</time>
      </trkpt>
      <trkpt lat="43.33588" lon="5.78262">
        <ele>752.1</ele>
        <time>2025-10-05T07:55:59Z</time>
      </trkpt>
      <trkpt lat="43.33589" lon="5.78264">
        <ele>752.1</ele>
        <time>2025-10-05T07:56:00Z</time>
      </trkpt>
      <trkpt lat="43.3359" lon="5.78265">
        <ele>752.1</ele>
        <time>2025-10-05T07:56:01Z</time>
      </trkpt>
      <trkpt lat="43.3359" lon="5.78266">
        <ele>752.1</ele>
        <time>2025-10-05T07:56:02Z</time>
      </trkpt>
      <trkpt lat="43.33591" lon="5.78266">
        <ele>752.2</ele>
        <time>2025-10-05T07:56:03Z</time>
      </trkpt>
      <trkpt lat="43.33591" lon="5.78266">
        <ele>752.2</ele>
        <time>2025-10-05T07:56:04Z</time>
      </trkpt>
      <trkpt lat="43.33591" lon="5.78267">
        <ele>752.3</ele>
        <time>2025-10-05T07:56:05Z</time>
      </trkpt>
      <trkpt lat="43.33591" lon="5.78268">
        <ele>752.4</ele>
        <time>2025-10-05T07:56:06Z</time>
      </trkpt>
      <trkpt lat="43.33591" lon="5.78269">
        <ele>752.6</ele>
        <time>2025-10-05T07:56:07Z</time>
      </trkpt>
      <trkpt lat="43.33591" lon="5.7827">
        <ele>752.7</ele>
        <time>2025-10-05T07:56:08Z</time>
      </trkpt>
      <trkpt lat="43.33591" lon="5.7827">
        <ele>752.8</ele>
        <time>2025-10-05T07:56:09Z</time>
      </trkpt>
      <trkpt lat="43.33591" lon="5.78271">
        <ele>752.9</ele>
        <time>2025-10-05T07:56:10Z</time>
      </trkpt>
      <trkpt lat="43.33591" lon="5.78272">
        <ele>753</ele>
        <time>2025-10-05T07:56:11Z</time>
      </trkpt>
      <trkpt lat="43.33591" lon="5.78273">
        <ele>753.2</ele>
        <time>2025-10-05T07:56:12Z</time>
      </trkpt>
      <trkpt lat="43.33591" lon="5.78274">
        <ele>753.4</ele>
        <time>2025-10-05T07:56:13Z</time>
      </trkpt>
      <trkpt lat="43.33591" lon="5.78275">
        <ele>753.5</ele>
        <time>2025-10-05T07:56:14Z</time>
      </trkpt>
      <trkpt lat="43.33591" lon="5.78277">
        <ele>753.6</ele>
        <time>2025-10-05T07:56:15Z</time>
      </trkpt>
      <trkpt lat="43.33591" lon="5.78278">
        <ele>753.7</ele>
        <time>2025-10-05T07:56:16Z</time>
      </trkpt>
      <trkpt lat="43.33591" lon="5.78278">
        <ele>753.9</ele>
        <time>2025-10-05T07:56:17Z</time>
      </trkpt>
      <trkpt lat="43.33592" lon="5.78278">
        <ele>754</ele>
        <time>2025-10-05T07:56:18Z</time>
      </trkpt>
      <trkpt lat="43.33592" lon="5.78278">
        <ele>754.2</ele>
        <time>2025-10-05T07:56:19Z</time>
      </trkpt>
      <trkpt lat="43.33592" lon="5.78279">
        <ele>754.3</ele>
        <time>2025-10-05T07:56:20Z</time>
      </trkpt>
      <trkpt lat="43.33593" lon="5.7828">
        <ele>754.4</ele>
        <time>2025-10-05T07:56:21Z</time>
      </trkpt>
      <trkpt lat="43.33593" lon="5.78281">
        <ele>754.6</ele>
        <time>2025-10-05T07:56:22Z</time>
      </trkpt>
      <trkpt lat="43.33594" lon="5.78282">
        <ele>754.7</ele>
        <time>2025-10-05T07:56:23Z</time>
      </trkpt>
      <trkpt lat="43.33594" lon="5.78283">
        <ele>754.8</ele>
        <time>2025-10-05T07:56:24Z</time>
      </trkpt>
      <trkpt lat="43.33594" lon="5.78284">
        <ele>754.8</ele>
        <time>2025-10-05T07:56:25Z</time>
      </trkpt>
      <trkpt lat="43.33595" lon="5.78285">
        <ele>754.9</ele>
        <time>2025-10-05T07:56:26Z</time>
      </trkpt>
      <trkpt lat="43.33595" lon="5.78286">
        <ele>754.8</ele>
        <time>2025-10-05T07:56:27Z</time>
      </trkpt>
      <trkpt lat="43.33596" lon="5.78286">
        <ele>754.7</ele>
        <time>2025-10-05T07:56:28Z</time>
      </trkpt>
      <trkpt lat="43.33596" lon="5.78287">
        <ele>754.7</ele>
        <time>2025-10-05T07:56:29Z</time>
      </trkpt>
      <trkpt lat="43.33597" lon="5.78287">
        <ele>754.6</ele>
        <time>2025-10-05T07:56:30Z</time>
      </trkpt>
      <trkpt lat="43.33598" lon="5.78288">
        <ele>754.5</ele>
        <time>2025-10-05T07:56:31Z</time>
      </trkpt>
      <trkpt lat="43.33598" lon="5.78289">
        <ele>754.5</ele>
        <time>2025-10-05T07:56:32Z</time>
      </trkpt>
      <trkpt lat="43.33598" lon="5.78289">
        <ele>754.4</ele>
        <time>2025-10-05T07:56:33Z</time>
      </trkpt>
      <trkpt lat="43.33599" lon="5.7829">
        <ele>754.3</ele>
        <time>2025-10-05T07:56:34Z</time>
      </trkpt>
      <trkpt lat="43.336" lon="5.78291">
        <ele>754.2</ele>
        <time>2025-10-05T07:56:35Z</time>
      </trkpt>
      <trkpt lat="43.33599" lon="5.78294">
        <ele>754.2</ele>
        <time>2025-10-05T07:56:36Z</time>
      </trkpt>
      <trkpt lat="43.33599" lon="5.78294">
        <ele>754.1</ele>
        <time>2025-10-05T07:56:37Z</time>
      </trkpt>
      <trkpt lat="43.336" lon="5.78295">
        <ele>754</ele>
        <time>2025-10-05T07:56:38Z</time>
      </trkpt>
      <trkpt lat="43.336" lon="5.78296">
        <ele>754</ele>
        <time>2025-10-05T07:56:39Z</time>
      </trkpt>
      <trkpt lat="43.33601" lon="5.78297">
        <ele>753.9</ele>
        <time>2025-10-05T07:56:40Z</time>
      </trkpt>
      <trkpt lat="43.33602" lon="5.78298">
        <ele>753.8</ele>
        <time>2025-10-05T07:56:41Z</time>
      </trkpt>
      <trkpt lat="43.33603" lon="5.783">
        <ele>753.8</ele>
        <time>2025-10-05T07:56:42Z</time>
      </trkpt>
      <trkpt lat="43.33603" lon="5.78301">
        <ele>753.6</ele>
        <time>2025-10-05T07:56:43Z</time>
      </trkpt>
      <trkpt lat="43.33603" lon="5.78303">
        <ele>753.5</ele>
        <time>2025-10-05T07:56:44Z</time>
      </trkpt>
      <trkpt lat="43.33602" lon="5.78306">
        <ele>753.4</ele>
        <time>2025-10-05T07:56:45Z</time>
      </trkpt>
      <trkpt lat="43.33602" lon="5.78307">
        <ele>753.3</ele>
        <time>2025-10-05T07:56:46Z</time>
      </trkpt>
      <trkpt lat="43.33602" lon="5.78308">
        <ele>753.3</ele>
        <time>2025-10-05T07:56:47Z</time>
      </trkpt>
      <trkpt lat="43.33601" lon="5.7831">
        <ele>753.1</ele>
        <time>2025-10-05T07:56:48Z</time>
      </trkpt>
      <trkpt lat="43.33602" lon="5.78311">
        <ele>753</ele>
        <time>2025-10-05T07:56:49Z</time>
      </trkpt>
      <trkpt lat="43.33602" lon="5.78311">
        <ele>752.9</ele>
        <time>2025-10-05T07:56:50Z</time>
      </trkpt>
      <trkpt lat="43.33603" lon="5.78312">
        <ele>752.9</ele>
        <time>2025-10-05T07:56:51Z</time>
      </trkpt>
      <trkpt lat="43.33603" lon="5.78312">
        <ele>752.9</ele>
        <time>2025-10-05T07:56:52Z</time>
      </trkpt>
      <trkpt lat="43.33604" lon="5.78313">
        <ele>753</ele>
        <time>2025-10-05T07:56:53Z</time>
      </trkpt>
      <trkpt lat="43.33605" lon="5.78313">
        <ele>753.1</ele>
        <time>2025-10-05T07:56:54Z</time>
      </trkpt>
      <trkpt lat="43.33607" lon="5.78314">
        <ele>753.2</ele>
        <time>2025-10-05T07:56:55Z</time>
      </trkpt>
      <trkpt lat="43.33607" lon="5.78314">
        <ele>753.2</ele>
        <time>2025-10-05T07:56:56Z</time>
      </trkpt>
      <trkpt lat="43.33608" lon="5.78314">
        <ele>753.4</ele>
        <time>2025-10-05T07:56:57Z</time>
      </trkpt>
      <trkpt lat="43.33608" lon="5.78314">
        <ele>753.5</ele>
        <time>2025-10-05T07:56:58Z</time>
      </trkpt>
      <trkpt lat="43.33608" lon="5.78315">
        <ele>753.6</ele>
        <time>2025-10-05T07:56:59Z</time>
      </trkpt>
      <trkpt lat="43.33608" lon="5.78315">
        <ele>753.7</ele>
        <time>2025-10-05T07:57:00Z</time>
      </trkpt>
      <trkpt lat="43.33609" lon="5.78316">
        <ele>753.8</ele>
        <time>2025-10-05T07:57:01Z</time>
      </trkpt>
      <trkpt lat="43.33609" lon="5.78316">
        <ele>754</ele>
        <time>2025-10-05T07:57:02Z</time>
      </trkpt>
      <trkpt lat="43.33609" lon="5.78316">
        <ele>754.1</ele>
        <time>2025-10-05T07:57:03Z</time>
      </trkpt>
      <trkpt lat="43.33609" lon="5.78317">
        <ele>754.2</ele>
        <time>2025-10-05T07:57:04Z</time>
      </trkpt>
      <trkpt lat="43.3361" lon="5.78317">
        <ele>754.3</ele>
        <time>2025-10-05T07:57:05Z</time>
      </trkpt>
      <trkpt lat="43.3361" lon="5.78317">
        <ele>754.4</ele>
        <time>2025-10-05T07:57:06Z</time>
      </trkpt>
      <trkpt lat="43.33611" lon="5.78318">
        <ele>754.4</ele>
        <time>2025-10-05T07:57:07Z</time>
      </trkpt>
      <trkpt lat="43.33612" lon="5.78319">
        <ele>754.4</ele>
        <time>2025-10-05T07:57:08Z</time>
      </trkpt>
      <trkpt lat="43.33613" lon="5.78318">
        <ele>754.4</ele>
        <time>2025-10-05T07:57:09Z</time>
      </trkpt>
      <trkpt lat="43.33614" lon="5.78319">
        <ele>754.3</ele>
        <time>2025-10-05T07:57:10Z</time>
      </trkpt>
      <trkpt lat="43.33614" lon="5.7832">
        <ele>754.1</ele>
        <time>2025-10-05T07:57:11Z</time>
      </trkpt>
      <trkpt lat="43.33614" lon="5.78321">
        <ele>754</ele>
        <time>2025-10-05T07:57:12Z</time>
      </trkpt>
      <trkpt lat="43.33615" lon="5.78322">
        <ele>753.8</ele>
        <time>2025-10-05T07:57:13Z</time>
      </trkpt>
      <trkpt lat="43.33615" lon="5.78324">
        <ele>753.8</ele>
        <time>2025-10-05T07:57:14Z</time>
      </trkpt>
      <trkpt lat="43.33616" lon="5.78325">
        <ele>753.7</ele>
        <time>2025-10-05T07:57:15Z</time>
      </trkpt>
      <trkpt lat="43.33616" lon="5.78326">
        <ele>753.6</ele>
        <time>2025-10-05T07:57:16Z</time>
      </trkpt>
      <trkpt lat="43.33617" lon="5.78327">
        <ele>753.6</ele>
        <time>2025-10-05T07:57:17Z</time>
      </trkpt>
      <trkpt lat="43.33616" lon="5.78328">
        <ele>753.5</ele>
        <time>2025-10-05T07:57:18Z</time>
      </trkpt>
      <trkpt lat="43.33617" lon="5.78329">
        <ele>753.4</ele>
        <time>2025-10-05T07:57:19Z</time>
      </trkpt>
      <trkpt lat="43.33617" lon="5.78329">
        <ele>753.5</ele>
        <time>2025-10-05T07:57:20Z</time>
      </trkpt>
      <trkpt lat="43.33617" lon="5.7833">
        <ele>753.5</ele>
        <time>2025-10-05T07:57:21Z</time>
      </trkpt>
      <trkpt lat="43.33618" lon="5.7833">
        <ele>753.5</ele>
        <time>2025-10-05T07:57:22Z</time>
      </trkpt>
      <trkpt lat="43.33618" lon="5.78331">
        <ele>753.5</ele>
        <time>2025-10-05T07:57:23Z</time>
      </trkpt>
      <trkpt lat="43.33618" lon="5.78331">
        <ele>753.5</ele>
        <time>2025-10-05T07:57:24Z</time>
      </trkpt>
      <trkpt lat="43.33619" lon="5.78331">
        <ele>753.5</ele>
        <time>2025-10-05T07:57:25Z</time>
      </trkpt>
      <trkpt lat="43.33619" lon="5.78332">
        <ele>753.5</ele>
        <time>2025-10-05T07:57:26Z</time>
      </trkpt>
      <trkpt lat="43.33618" lon="5.78333">
        <ele>753.5</ele>
        <time>2025-10-05T07:57:27Z</time>
      </trkpt>
      <trkpt lat="43.33619" lon="5.78334">
        <ele>753.5</ele>
        <time>2025-10-05T07:57:28Z</time>
      </trkpt>
      <trkpt lat="43.3362" lon="5.78334">
        <ele>753.6</ele>
        <time>2025-10-05T07:57:29Z</time>
      </trkpt>
      <trkpt lat="43.3362" lon="5.78335">
        <ele>753.6</ele>
        <time>2025-10-05T07:57:30Z</time>
      </trkpt>
      <trkpt lat="43.33621" lon="5.78335">
        <ele>753.7</ele>
        <time>2025-10-05T07:57:31Z</time>
      </trkpt>
      <trkpt lat="43.33622" lon="5.78335">
        <ele>753.6</ele>
        <time>2025-10-05T07:57:32Z</time>
      </trkpt>
      <trkpt lat="43.33622" lon="5.78336">
        <ele>753.6</ele>
        <time>2025-10-05T07:57:33Z</time>
      </trkpt>
      <trkpt lat="43.33624" lon="5.78336">
        <ele>753.6</ele>
        <time>2025-10-05T07:57:34Z</time>
      </trkpt>
      <trkpt lat="43.33625" lon="5.78336">
        <ele>753.5</ele>
        <time>2025-10-05T07:57:35Z</time>
      </trkpt>
      <trkpt lat="43.33625" lon="5.78337">
        <ele>753.5</ele>
        <time>2025-10-05T07:57:36Z</time>
      </trkpt>
      <trkpt lat="43.33626" lon="5.78337">
        <ele>753.5</ele>
        <time>2025-10-05T07:57:37Z</time>
      </trkpt>
      <trkpt lat="43.33626" lon="5.78337">
        <ele>753.4</ele>
        <time>2025-10-05T07:57:38Z</time>
      </trkpt>
      <trkpt lat="43.33626" lon="5.78339">
        <ele>753.3</ele>
        <time>2025-10-05T07:57:39Z</time>
      </trkpt>
      <trkpt lat="43.33627" lon="5.78339">
        <ele>753.1</ele>
        <time>2025-10-05T07:57:40Z</time>
      </trkpt>
      <trkpt lat="43.33627" lon="5.7834">
        <ele>753</ele>
        <time>2025-10-05T07:57:41Z</time>
      </trkpt>
      <trkpt lat="43.33629" lon="5.78341">
        <ele>752.8</ele>
        <time>2025-10-05T07:57:42Z</time>
      </trkpt>
      <trkpt lat="43.3363" lon="5.78342">
        <ele>752.7</ele>
        <time>2025-10-05T07:57:43Z</time>
      </trkpt>
      <trkpt lat="43.33631" lon="5.78343">
        <ele>752.5</ele>
        <time>2025-10-05T07:57:44Z</time>
      </trkpt>
      <trkpt lat="43.33632" lon="5.78343">
        <ele>752.4</ele>
        <time>2025-10-05T07:57:45Z</time>
      </trkpt>
      <trkpt lat="43.33632" lon="5.78343">
        <ele>752.1</ele>
        <time>2025-10-05T07:57:46Z</time>
      </trkpt>
      <trkpt lat="43.33633" lon="5.78343">
        <ele>752</ele>
        <time>2025-10-05T07:57:47Z</time>
      </trkpt>
      <trkpt lat="43.33633" lon="5.78344">
        <ele>752</ele>
        <time>2025-10-05T07:57:48Z</time>
      </trkpt>
      <trkpt lat="43.33633" lon="5.78345">
        <ele>751.8</ele>
        <time>2025-10-05T07:57:49Z</time>
      </trkpt>
      <trkpt lat="43.33634" lon="5.78346">
        <ele>751.8</ele>
        <time>2025-10-05T07:57:50Z</time>
      </trkpt>
      <trkpt lat="43.33635" lon="5.78347">
        <ele>751.6</ele>
        <time>2025-10-05T07:57:51Z</time>
      </trkpt>
      <trkpt lat="43.33636" lon="5.78348">
        <ele>751.4</ele>
        <time>2025-10-05T07:57:52Z</time>
      </trkpt>
      <trkpt lat="43.33637" lon="5.78347">
        <ele>751.3</ele>
        <time>2025-10-05T07:57:53Z</time>
      </trkpt>
      <trkpt lat="43.33638" lon="5.78348">
        <ele>751.3</ele>
        <time>2025-10-05T07:57:54Z</time>
      </trkpt>
      <trkpt lat="43.33639" lon="5.78349">
        <ele>751.2</ele>
        <time>2025-10-05T07:57:55Z</time>
      </trkpt>
      <trkpt lat="43.33639" lon="5.78349">
        <ele>751.2</ele>
        <time>2025-10-05T07:57:56Z</time>
      </trkpt>
      <trkpt lat="43.3364" lon="5.7835">
        <ele>751.2</ele>
        <time>2025-10-05T07:57:57Z</time>
      </trkpt>
      <trkpt lat="43.33641" lon="5.78351">
        <ele>751.3</ele>
        <time>2025-10-05T07:57:58Z</time>
      </trkpt>
      <trkpt lat="43.33641" lon="5.78351">
        <ele>751.5</ele>
        <time>2025-10-05T07:57:59Z</time>
      </trkpt>
      <trkpt lat="43.33642" lon="5.78352">
        <ele>751.6</ele>
        <time>2025-10-05T07:58:00Z</time>
      </trkpt>
      <trkpt lat="43.33643" lon="5.78353">
        <ele>751.8</ele>
        <time>2025-10-05T07:58:01Z</time>
      </trkpt>
      <trkpt lat="43.33644" lon="5.78353">
        <ele>751.9</ele>
        <time>2025-10-05T07:58:02Z</time>
      </trkpt>
      <trkpt lat="43.33645" lon="5.78354">
        <ele>752.1</ele>
        <time>2025-10-05T07:58:03Z</time>
      </trkpt>
      <trkpt lat="43.33645" lon="5.78355">
        <ele>752.3</ele>
        <time>2025-10-05T07:58:04Z</time>
      </trkpt>
      <trkpt lat="43.33645" lon="5.78356">
        <ele>752.4</ele>
        <time>2025-10-05T07:58:05Z</time>
      </trkpt>
      <trkpt lat="43.33646" lon="5.78357">
        <ele>752.5</ele>
        <time>2025-10-05T07:58:06Z</time>
      </trkpt>
      <trkpt lat="43.33646" lon="5.78358">
        <ele>752.6</ele>
        <time>2025-10-05T07:58:07Z</time>
      </trkpt>
      <trkpt lat="43.33647" lon="5.78359">
        <ele>752.6</ele>
        <time>2025-10-05T07:58:08Z</time>
      </trkpt>
      <trkpt lat="43.33648" lon="5.78359">
        <ele>752.6</ele>
        <time>2025-10-05T07:58:09Z</time>
      </trkpt>
      <trkpt lat="43.33649" lon="5.78359">
        <ele>752.7</ele>
        <time>2025-10-05T07:58:10Z</time>
      </trkpt>
      <trkpt lat="43.33649" lon="5.7836">
        <ele>752.8</ele>
        <time>2025-10-05T07:58:11Z</time>
      </trkpt>
      <trkpt lat="43.33649" lon="5.78361">
        <ele>752.9</ele>
        <time>2025-10-05T07:58:12Z</time>
      </trkpt>
      <trkpt lat="43.3365" lon="5.78361">
        <ele>752.9</ele>
        <time>2025-10-05T07:58:13Z</time>
      </trkpt>
      <trkpt lat="43.3365" lon="5.78362">
        <ele>753</ele>
        <time>2025-10-05T07:58:14Z</time>
      </trkpt>
      <trkpt lat="43.33652" lon="5.78361">
        <ele>753</ele>
        <time>2025-10-05T07:58:15Z</time>
      </trkpt>
      <trkpt lat="43.33653" lon="5.7836">
        <ele>753.1</ele>
        <time>2025-10-05T07:58:16Z</time>
      </trkpt>
      <trkpt lat="43.33654" lon="5.78361">
        <ele>753.2</ele>
        <time>2025-10-05T07:58:17Z</time>
      </trkpt>
      <trkpt lat="43.33656" lon="5.78361">
        <ele>753.3</ele>
        <time>2025-10-05T07:58:18Z</time>
      </trkpt>
      <trkpt lat="43.33656" lon="5.78361">
        <ele>753.4</ele>
        <time>2025-10-05T07:58:19Z</time>
      </trkpt>
      <trkpt lat="43.33656" lon="5.78362">
        <ele>753.5</ele>
        <time>2025-10-05T07:58:20Z</time>
      </trkpt>
      <trkpt lat="43.33656" lon="5.78363">
        <ele>753.4</ele>
        <time>2025-10-05T07:58:21Z</time>
      </trkpt>
      <trkpt lat="43.33656" lon="5.78364">
        <ele>753.6</ele>
        <time>2025-10-05T07:58:22Z</time>
      </trkpt>
      <trkpt lat="43.33657" lon="5.78365">
        <ele>753.7</ele>
        <time>2025-10-05T07:58:23Z</time>
      </trkpt>
      <trkpt lat="43.33657" lon="5.78365">
        <ele>753.8</ele>
        <time>2025-10-05T07:58:24Z</time>
      </trkpt>
      <trkpt lat="43.33657" lon="5.78366">
        <ele>753.9</ele>
        <time>2025-10-05T07:58:25Z</time>
      </trkpt>
      <trkpt lat="43.33657" lon="5.78369">
        <ele>754.1</ele>
        <time>2025-10-05T07:58:26Z</time>
      </trkpt>
      <trkpt lat="43.33656" lon="5.7837">
        <ele>754.3</ele>
        <time>2025-10-05T07:58:27Z</time>
      </trkpt>
      <trkpt lat="43.33656" lon="5.78372">
        <ele>754.5</ele>
        <time>2025-10-05T07:58:28Z</time>
      </trkpt>
      <trkpt lat="43.33656" lon="5.78374">
        <ele>754.6</ele>
        <time>2025-10-05T07:58:29Z</time>
      </trkpt>
      <trkpt lat="43.33656" lon="5.78375">
        <ele>754.8</ele>
        <time>2025-10-05T07:58:30Z</time>
      </trkpt>
      <trkpt lat="43.33657" lon="5.78377">
        <ele>754.9</ele>
        <time>2025-10-05T07:58:31Z</time>
      </trkpt>
      <trkpt lat="43.33657" lon="5.78378">
        <ele>755.1</ele>
        <time>2025-10-05T07:58:32Z</time>
      </trkpt>
      <trkpt lat="43.33657" lon="5.78379">
        <ele>755.2</ele>
        <time>2025-10-05T07:58:33Z</time>
      </trkpt>
      <trkpt lat="43.33656" lon="5.7838">
        <ele>755.3</ele>
        <time>2025-10-05T07:58:34Z</time>
      </trkpt>
      <trkpt lat="43.33658" lon="5.7838">
        <ele>755.3</ele>
        <time>2025-10-05T07:58:35Z</time>
      </trkpt>
      <trkpt lat="43.33658" lon="5.78381">
        <ele>755.5</ele>
        <time>2025-10-05T07:58:36Z</time>
      </trkpt>
      <trkpt lat="43.33659" lon="5.78382">
        <ele>755.7</ele>
        <time>2025-10-05T07:58:37Z</time>
      </trkpt>
      <trkpt lat="43.33659" lon="5.78383">
        <ele>755.8</ele>
        <time>2025-10-05T07:58:38Z</time>
      </trkpt>
      <trkpt lat="43.33659" lon="5.78384">
        <ele>755.8</ele>
        <time>2025-10-05T07:58:39Z</time>
      </trkpt>
      <trkpt lat="43.3366" lon="5.78385">
        <ele>755.8</ele>
        <time>2025-10-05T07:58:40Z</time>
      </trkpt>
      <trkpt lat="43.3366" lon="5.78386">
        <ele>755.9</ele>
        <time>2025-10-05T07:58:41Z</time>
      </trkpt>
      <trkpt lat="43.3366" lon="5.78387">
        <ele>756.1</ele>
        <time>2025-10-05T07:58:42Z</time>
      </trkpt>
      <trkpt lat="43.3366" lon="5.78387">
        <ele>756.1</ele>
        <time>2025-10-05T07:58:43Z</time>
      </trkpt>
      <trkpt lat="43.3366" lon="5.78387">
        <ele>756.2</ele>
        <time>2025-10-05T07:58:44Z</time>
      </trkpt>
      <trkpt lat="43.33661" lon="5.78389">
        <ele>756.3</ele>
        <time>2025-10-05T07:58:45Z</time>
      </trkpt>
      <trkpt lat="43.3366" lon="5.7839">
        <ele>756.4</ele>
        <time>2025-10-05T07:58:46Z</time>
      </trkpt>
      <trkpt lat="43.33661" lon="5.78391">
        <ele>756.5</ele>
        <time>2025-10-05T07:58:47Z</time>
      </trkpt>
      <trkpt lat="43.33661" lon="5.78391">
        <ele>756.6</ele>
        <time>2025-10-05T07:58:48Z</time>
      </trkpt>
      <trkpt lat="43.33661" lon="5.78392">
        <ele>756.8</ele>
        <time>2025-10-05T07:58:49Z</time>
      </trkpt>
      <trkpt lat="43.33662" lon="5.78393">
        <ele>756.8</ele>
        <time>2025-10-05T07:58:50Z</time>
      </trkpt>
      <trkpt lat="43.33661" lon="5.78395">
        <ele>756.9</ele>
        <time>2025-10-05T07:58:51Z</time>
      </trkpt>
      <trkpt lat="43.33662" lon="5.78396">
        <ele>756.9</ele>
        <time>2025-10-05T07:58:52Z</time>
      </trkpt>
      <trkpt lat="43.33662" lon="5.78397">
        <ele>757</ele>
        <time>2025-10-05T07:58:53Z</time>
      </trkpt>
      <trkpt lat="43.33663" lon="5.78398">
        <ele>757.1</ele>
        <time>2025-10-05T07:58:54Z</time>
      </trkpt>
      <trkpt lat="43.33663" lon="5.78399">
        <ele>757.3</ele>
        <time>2025-10-05T07:58:55Z</time>
      </trkpt>
      <trkpt lat="43.33663" lon="5.784">
        <ele>757.4</ele>
        <time>2025-10-05T07:58:56Z</time>
      </trkpt>
      <trkpt lat="43.33664" lon="5.78402">
        <ele>757.4</ele>
        <time>2025-10-05T07:58:57Z</time>
      </trkpt>
      <trkpt lat="43.33665" lon="5.78402">
        <ele>757.3</ele>
        <time>2025-10-05T07:58:58Z</time>
      </trkpt>
      <trkpt lat="43.33665" lon="5.78404">
        <ele>757.5</ele>
        <time>2025-10-05T07:58:59Z</time>
      </trkpt>
      <trkpt lat="43.33666" lon="5.78404">
        <ele>757.7</ele>
        <time>2025-10-05T07:59:00Z</time>
      </trkpt>
      <trkpt lat="43.33665" lon="5.78408">
        <ele>757.8</ele>
        <time>2025-10-05T07:59:01Z</time>
      </trkpt>
      <trkpt lat="43.33666" lon="5.78408">
        <ele>757.9</ele>
        <time>2025-10-05T07:59:02Z</time>
      </trkpt>
      <trkpt lat="43.33665" lon="5.7841">
        <ele>758</ele>
        <time>2025-10-05T07:59:03Z</time>
      </trkpt>
      <trkpt lat="43.33666" lon="5.78411">
        <ele>758.2</ele>
        <time>2025-10-05T07:59:04Z</time>
      </trkpt>
      <trkpt lat="43.33667" lon="5.78412">
        <ele>758.3</ele>
        <time>2025-10-05T07:59:05Z</time>
      </trkpt>
      <trkpt lat="43.33668" lon="5.78413">
        <ele>758.4</ele>
        <time>2025-10-05T07:59:06Z</time>
      </trkpt>
      <trkpt lat="43.33668" lon="5.78414">
        <ele>758.4</ele>
        <time>2025-10-05T07:59:07Z</time>
      </trkpt>
      <trkpt lat="43.33669" lon="5.78415">
        <ele>758.5</ele>
        <time>2025-10-05T07:59:08Z</time>
      </trkpt>
      <trkpt lat="43.33669" lon="5.78417">
        <ele>758.7</ele>
        <time>2025-10-05T07:59:09Z</time>
      </trkpt>
      <trkpt lat="43.3367" lon="5.78418">
        <ele>758.8</ele>
        <time>2025-10-05T07:59:10Z</time>
      </trkpt>
      <trkpt lat="43.33671" lon="5.78419">
        <ele>758.9</ele>
        <time>2025-10-05T07:59:11Z</time>
      </trkpt>
      <trkpt lat="43.33672" lon="5.78419">
        <ele>759</ele>
        <time>2025-10-05T07:59:12Z</time>
      </trkpt>
      <trkpt lat="43.33673" lon="5.78419">
        <ele>759.2</ele>
        <time>2025-10-05T07:59:13Z</time>
      </trkpt>
      <trkpt lat="43.33673" lon="5.78421">
        <ele>759.3</ele>
        <time>2025-10-05T07:59:14Z</time>
      </trkpt>
      <trkpt lat="43.33673" lon="5.78422">
        <ele>759.4</ele>
        <time>2025-10-05T07:59:15Z</time>
      </trkpt>
      <trkpt lat="43.33674" lon="5.78423">
        <ele>759.4</ele>
        <time>2025-10-05T07:59:16Z</time>
      </trkpt>
      <trkpt lat="43.33674" lon="5.78424">
        <ele>759.4</ele>
        <time>2025-10-05T07:59:17Z</time>
      </trkpt>
      <trkpt lat="43.33676" lon="5.78424">
        <ele>759.4</ele>
        <time>2025-10-05T07:59:18Z</time>
      </trkpt>
      <trkpt lat="43.33676" lon="5.78425">
        <ele>759.4</ele>
        <time>2025-10-05T07:59:19Z</time>
      </trkpt>
      <trkpt lat="43.33677" lon="5.78426">
        <ele>759.4</ele>
        <time>2025-10-05T07:59:20Z</time>
      </trkpt>
      <trkpt lat="43.33678" lon="5.78427">
        <ele>759.5</ele>
        <time>2025-10-05T07:59:21Z</time>
      </trkpt>
      <trkpt lat="43.33678" lon="5.78427">
        <ele>759.7</ele>
        <time>2025-10-05T07:59:22Z</time>
      </trkpt>
      <trkpt lat="43.33679" lon="5.78429">
        <ele>759.7</ele>
        <time>2025-10-05T07:59:23Z</time>
      </trkpt>
      <trkpt lat="43.33679" lon="5.78432">
        <ele>759.7</ele>
        <time>2025-10-05T07:59:24Z</time>
      </trkpt>
      <trkpt lat="43.3368" lon="5.78433">
        <ele>759.7</ele>
        <time>2025-10-05T07:59:25Z</time>
      </trkpt>
      <trkpt lat="43.33679" lon="5.78434">
        <ele>759.7</ele>
        <time>2025-10-05T07:59:26Z</time>
      </trkpt>
      <trkpt lat="43.33678" lon="5.78437">
        <ele>759.8</ele>
        <time>2025-10-05T07:59:27Z</time>
      </trkpt>
      <trkpt lat="43.33679" lon="5.78437">
        <ele>759.7</ele>
        <time>2025-10-05T07:59:28Z</time>
      </trkpt>
      <trkpt lat="43.33679" lon="5.78438">
        <ele>759.7</ele>
        <time>2025-10-05T07:59:29Z</time>
      </trkpt>
      <trkpt lat="43.33679" lon="5.78439">
        <ele>759.6</ele>
        <time>2025-10-05T07:59:30Z</time>
      </trkpt>
      <trkpt lat="43.3368" lon="5.78439">
        <ele>759.6</ele>
        <time>2025-10-05T07:59:31Z</time>
      </trkpt>
      <trkpt lat="43.33679" lon="5.78441">
        <ele>759.6</ele>
        <time>2025-10-05T07:59:32Z</time>
      </trkpt>
      <trkpt lat="43.33678" lon="5.78442">
        <ele>759.6</ele>
        <time>2025-10-05T07:59:33Z</time>
      </trkpt>
      <trkpt lat="43.33678" lon="5.78443">
        <ele>759.6</ele>
        <time>2025-10-05T07:59:34Z</time>
      </trkpt>
      <trkpt lat="43.33678" lon="5.78444">
        <ele>759.2</ele>
        <time>2025-10-05T07:59:35Z</time>
      </trkpt>
      <trkpt lat="43.33678" lon="5.78445">
        <ele>759.3</ele>
        <time>2025-10-05T07:59:36Z</time>
      </trkpt>
      <trkpt lat="43.33679" lon="5.78446">
        <ele>759.3</ele>
        <time>2025-10-05T07:59:37Z</time>
      </trkpt>
      <trkpt lat="43.33679" lon="5.78447">
        <ele>759.3</ele>
        <time>2025-10-05T07:59:38Z</time>
      </trkpt>
      <trkpt lat="43.3368" lon="5.78448">
        <ele>759.1</ele>
        <time>2025-10-05T07:59:39Z</time>
      </trkpt>
      <trkpt lat="43.33681" lon="5.78449">
        <ele>759</ele>
        <time>2025-10-05T07:59:40Z</time>
      </trkpt>
      <trkpt lat="43.33681" lon="5.7845">
        <ele>758.9</ele>
        <time>2025-10-05T07:59:41Z</time>
      </trkpt>
      <trkpt lat="43.33682" lon="5.7845">
        <ele>758.8</ele>
        <time>2025-10-05T07:59:42Z</time>
      </trkpt>
      <trkpt lat="43.33682" lon="5.78451">
        <ele>758.7</ele>
        <time>2025-10-05T07:59:43Z</time>
      </trkpt>
      <trkpt lat="43.33682" lon="5.78452">
        <ele>758.6</ele>
        <time>2025-10-05T07:59:44Z</time>
      </trkpt>
      <trkpt lat="43.33682" lon="5.78453">
        <ele>758.6</ele>
        <time>2025-10-05T07:59:45Z</time>
      </trkpt>
      <trkpt lat="43.33682" lon="5.78454">
        <ele>758.5</ele>
        <time>2025-10-05T07:59:46Z</time>
      </trkpt>
      <trkpt lat="43.33682" lon="5.78455">
        <ele>758.5</ele>
        <time>2025-10-05T07:59:47Z</time>
      </trkpt>
      <trkpt lat="43.33682" lon="5.78456">
        <ele>758.4</ele>
        <time>2025-10-05T07:59:48Z</time>
      </trkpt>
      <trkpt lat="43.33683" lon="5.78457">
        <ele>758.4</ele>
        <time>2025-10-05T07:59:49Z</time>
      </trkpt>
      <trkpt lat="43.33683" lon="5.78458">
        <ele>758.2</ele>
        <time>2025-10-05T07:59:50Z</time>
      </trkpt>
      <trkpt lat="43.33683" lon="5.78459">
        <ele>758.1</ele>
        <time>2025-10-05T07:59:51Z</time>
      </trkpt>
      <trkpt lat="43.33683" lon="5.7846">
        <ele>758</ele>
        <time>2025-10-05T07:59:52Z</time>
      </trkpt>
      <trkpt lat="43.33684" lon="5.78461">
        <ele>757.8</ele>
        <time>2025-10-05T07:59:53Z</time>
      </trkpt>
      <trkpt lat="43.33685" lon="5.78462">
        <ele>757.6</ele>
        <time>2025-10-05T07:59:54Z</time>
      </trkpt>
      <trkpt lat="43.33686" lon="5.78462">
        <ele>757.5</ele>
        <time>2025-10-05T07:59:55Z</time>
      </trkpt>
      <trkpt lat="43.33686" lon="5.78462">
        <ele>757.2</ele>
        <time>2025-10-05T07:59:56Z</time>
      </trkpt>
      <trkpt lat="43.33687" lon="5.78463">
        <ele>757.1</ele>
        <time>2025-10-05T07:59:57Z</time>
      </trkpt>
      <trkpt lat="43.33687" lon="5.78464">
        <ele>757</ele>
        <time>2025-10-05T07:59:58Z</time>
      </trkpt>
      <trkpt lat="43.33687" lon="5.78465">
        <ele>756.8</ele>
        <time>2025-10-05T07:59:59Z</time>
      </trkpt>
      <trkpt lat="43.33688" lon="5.78466">
        <ele>756.7</ele>
        <time>2025-10-05T08:00:00Z</time>
      </trkpt>
      <trkpt lat="43.33688" lon="5.78467">
        <ele>756.5</ele>
        <time>2025-10-05T08:00:01Z</time>
      </trkpt>
      <trkpt lat="43.33688" lon="5.78467">
        <ele>756.4</ele>
        <time>2025-10-05T08:00:02Z</time>
      </trkpt>
      <trkpt lat="43.33689" lon="5.78466">
        <ele>756.3</ele>
        <time>2025-10-05T08:00:03Z</time>
      </trkpt>
      <trkpt lat="43.33689" lon="5.78467">
        <ele>756.2</ele>
        <time>2025-10-05T08:00:04Z</time>
      </trkpt>
      <trkpt lat="43.33689" lon="5.78466">
        <ele>756.1</ele>
        <time>2025-10-05T08:00:05Z</time>
      </trkpt>
      <trkpt lat="43.3369" lon="5.78466">
        <ele>756</ele>
        <time>2025-10-05T08:00:06Z</time>
      </trkpt>
      <trkpt lat="43.3369" lon="5.78466">
        <ele>755.9</ele>
        <time>2025-10-05T08:00:07Z</time>
      </trkpt>
      <trkpt lat="43.3369" lon="5.78466">
        <ele>755.8</ele>
        <time>2025-10-05T08:00:08Z</time>
      </trkpt>
      <trkpt lat="43.33691" lon="5.78466">
        <ele>755.8</ele>
        <time>2025-10-05T08:00:09Z</time>
      </trkpt>
      <trkpt lat="43.33691" lon="5.78465">
        <ele>755.7</ele>
        <time>2025-10-05T08:00:10Z</time>
      </trkpt>
      <trkpt lat="43.33691" lon="5.78466">
        <ele>755.6</ele>
        <time>2025-10-05T08:00:11Z</time>
      </trkpt>
      <trkpt lat="43.33691" lon="5.78466">
        <ele>755.6</ele>
        <time>2025-10-05T08:00:12Z</time>
      </trkpt>
      <trkpt lat="43.33692" lon="5.78466">
        <ele>755.5</ele>
        <time>2025-10-05T08:00:13Z</time>
      </trkpt>
      <trkpt lat="43.33692" lon="5.78466">
        <ele>755.4</ele>
        <time>2025-10-05T08:00:14Z</time>
      </trkpt>
      <trkpt lat="43.33693" lon="5.78465">
        <ele>755.3</ele>
        <time>2025-10-05T08:00:15Z</time>
      </trkpt>
      <trkpt lat="43.33693" lon="5.78465">
        <ele>755.3</ele>
        <time>2025-10-05T08:00:16Z</time>
      </trkpt>
      <trkpt lat="43.33692" lon="5.78467">
        <ele>755.3</ele>
        <time>2025-10-05T08:00:17Z</time>
      </trkpt>
      <trkpt lat="43.33692" lon="5.78468">
        <ele>755.2</ele>
        <time>2025-10-05T08:00:18Z</time>
      </trkpt>
      <trkpt lat="43.33692" lon="5.78468">
        <ele>755.1</ele>
        <time>2025-10-05T08:00:19Z</time>
      </trkpt>
      <trkpt lat="43.33692" lon="5.78469">
        <ele>755</ele>
        <time>2025-10-05T08:00:20Z</time>
      </trkpt>
      <trkpt lat="43.33692" lon="5.7847">
        <ele>754.8</ele>
        <time>2025-10-05T08:00:21Z</time>
      </trkpt>
      <trkpt lat="43.33692" lon="5.7847">
        <ele>754.7</ele>
        <time>2025-10-05T08:00:22Z</time>
      </trkpt>
      <trkpt lat="43.33693" lon="5.7847">
        <ele>754.5</ele>
        <time>2025-10-05T08:00:23Z</time>
      </trkpt>
      <trkpt lat="43.33693" lon="5.7847">
        <ele>754.3</ele>
        <time>2025-10-05T08:00:24Z</time>
      </trkpt>
      <trkpt lat="43.33692" lon="5.7847">
        <ele>754.2</ele>
        <time>2025-10-05T08:00:25Z</time>
      </trkpt>
      <trkpt lat="43.33692" lon="5.78471">
        <ele>754.2</ele>
        <time>2025-10-05T08:00:26Z</time>
      </trkpt>
      <trkpt lat="43.33691" lon="5.78472">
        <ele>754.1</ele>
        <time>2025-10-05T08:00:27Z</time>
      </trkpt>
      <trkpt lat="43.33691" lon="5.78472">
        <ele>754.1</ele>
        <time>2025-10-05T08:00:28Z</time>
      </trkpt>
      <trkpt lat="43.33691" lon="5.78472">
        <ele>754</ele>
        <time>2025-10-05T08:00:29Z</time>
      </trkpt>
      <trkpt lat="43.33691" lon="5.78472">
        <ele>753.9</ele>
        <time>2025-10-05T08:00:30Z</time>
      </trkpt>
      <trkpt lat="43.33691" lon="5.78472">
        <ele>753.9</ele>
        <time>2025-10-05T08:00:31Z</time>
      </trkpt>
      <trkpt lat="43.33691" lon="5.78473">
        <ele>753.8</ele>
        <time>2025-10-05T08:00:32Z</time>
      </trkpt>
      <trkpt lat="43.33691" lon="5.78473">
        <ele>753.7</ele>
        <time>2025-10-05T08:00:33Z</time>
      </trkpt>
      <trkpt lat="43.3369" lon="5.78474">
        <ele>753.6</ele>
        <time>2025-10-05T08:00:34Z</time>
      </trkpt>
      <trkpt lat="43.33691" lon="5.78474">
        <ele>753.5</ele>
        <time>2025-10-05T08:00:35Z</time>
      </trkpt>
      <trkpt lat="43.33691" lon="5.78475">
        <ele>753.5</ele>
        <time>2025-10-05T08:00:36Z</time>
      </trkpt>
      <trkpt lat="43.33691" lon="5.78474">
        <ele>753.4</ele>
        <time>2025-10-05T08:00:37Z</time>
      </trkpt>
      <trkpt lat="43.3369" lon="5.78476">
        <ele>753.3</ele>
        <time>2025-10-05T08:00:38Z</time>
      </trkpt>
      <trkpt lat="43.3369" lon="5.78476">
        <ele>753.2</ele>
        <time>2025-10-05T08:00:39Z</time>
      </trkpt>
      <trkpt lat="43.3369" lon="5.78476">
        <ele>753.2</ele>
        <time>2025-10-05T08:00:40Z</time>
      </trkpt>
      <trkpt lat="43.3369" lon="5.78477">
        <ele>753.2</ele>
        <time>2025-10-05T08:00:41Z</time>
      </trkpt>
      <trkpt lat="43.3369" lon="5.78477">
        <ele>753.1</ele>
        <time>2025-10-05T08:00:42Z</time>
      </trkpt>
      <trkpt lat="43.3369" lon="5.78478">
        <ele>753.1</ele>
        <time>2025-10-05T08:00:43Z</time>
      </trkpt>
      <trkpt lat="43.3369" lon="5.78478">
        <ele>753</ele>
        <time>2025-10-05T08:00:44Z</time>
      </trkpt>
      <trkpt lat="43.3369" lon="5.78477">
        <ele>753</ele>
        <time>2025-10-05T08:00:45Z</time>
      </trkpt>
      <trkpt lat="43.33689" lon="5.78477">
        <ele>753</ele>
        <time>2025-10-05T08:00:46Z</time>
      </trkpt>
      <trkpt lat="43.33689" lon="5.78477">
        <ele>753.1</ele>
        <time>2025-10-05T08:00:47Z</time>
      </trkpt>
      <trkpt lat="43.33689" lon="5.78476">
        <ele>753.1</ele>
        <time>2025-10-05T08:00:48Z</time>
      </trkpt>
      <trkpt lat="43.33689" lon="5.78476">
        <ele>753.2</ele>
        <time>2025-10-05T08:00:49Z</time>
      </trkpt>
      <trkpt lat="43.33688" lon="5.78477">
        <ele>753.2</ele>
        <time>2025-10-05T08:00:50Z</time>
      </trkpt>
      <trkpt lat="43.33688" lon="5.78477">
        <ele>753.3</ele>
        <time>2025-10-05T08:00:51Z</time>
      </trkpt>
      <trkpt lat="43.33687" lon="5.78478">
        <ele>753.4</ele>
        <time>2025-10-05T08:00:52Z</time>
      </trkpt>
      <trkpt lat="43.33687" lon="5.78477">
        <ele>753.6</ele>
        <time>2025-10-05T08:00:53Z</time>
      </trkpt>
      <trkpt lat="43.33686" lon="5.78477">
        <ele>753.8</ele>
        <time>2025-10-05T08:00:54Z</time>
      </trkpt>
      <trkpt lat="43.33686" lon="5.78478">
        <ele>754</ele>
        <time>2025-10-05T08:00:55Z</time>
      </trkpt>
      <trkpt lat="43.33686" lon="5.78479">
        <ele>754.2</ele>
        <time>2025-10-05T08:00:56Z</time>
      </trkpt>
      <trkpt lat="43.33686" lon="5.7848">
        <ele>754.3</ele>
        <time>2025-10-05T08:00:57Z</time>
      </trkpt>
      <trkpt lat="43.33686" lon="5.7848">
        <ele>754.4</ele>
        <time>2025-10-05T08:00:58Z</time>
      </trkpt>
      <trkpt lat="43.33686" lon="5.78481">
        <ele>754.3</ele>
        <time>2025-10-05T08:00:59Z</time>
      </trkpt>
      <trkpt lat="43.33687" lon="5.78482">
        <ele>754.4</ele>
        <time>2025-10-05T08:01:00Z</time>
      </trkpt>
      <trkpt lat="43.33687" lon="5.78482">
        <ele>754.3</ele>
        <time>2025-10-05T08:01:01Z</time>
      </trkpt>
      <trkpt lat="43.33687" lon="5.78483">
        <ele>754.3</ele>
        <time>2025-10-05T08:01:02Z</time>
      </trkpt>
      <trkpt lat="43.33688" lon="5.78482">
        <ele>754.3</ele>
        <time>2025-10-05T08:01:03Z</time>
      </trkpt>
      <trkpt lat="43.33689" lon="5.78482">
        <ele>754.2</ele>
        <time>2025-10-05T08:01:04Z</time>
      </trkpt>
      <trkpt lat="43.33688" lon="5.78483">
        <ele>754.5</ele>
        <time>2025-10-05T08:01:05Z</time>
      </trkpt>
      <trkpt lat="43.33687" lon="5.78483">
        <ele>754.7</ele>
        <time>2025-10-05T08:01:06Z</time>
      </trkpt>
      <trkpt lat="43.33687" lon="5.78484">
        <ele>754.8</ele>
        <time>2025-10-05T08:01:07Z</time>
      </trkpt>
      <trkpt lat="43.33687" lon="5.78485">
        <ele>754.9</ele>
        <time>2025-10-05T08:01:08Z</time>
      </trkpt>
      <trkpt lat="43.33688" lon="5.78486">
        <ele>755</ele>
        <time>2025-10-05T08:01:09Z</time>
      </trkpt>
      <trkpt lat="43.33688" lon="5.78488">
        <ele>755.1</ele>
        <time>2025-10-05T08:01:10Z</time>
      </trkpt>
      <trkpt lat="43.33688" lon="5.78489">
        <ele>755.2</ele>
        <time>2025-10-05T08:01:11Z</time>
      </trkpt>
      <trkpt lat="43.33688" lon="5.7849">
        <ele>755.2</ele>
        <time>2025-10-05T08:01:12Z</time>
      </trkpt>
      <trkpt lat="43.33688" lon="5.78491">
        <ele>755.3</ele>
        <time>2025-10-05T08:01:13Z</time>
      </trkpt>
      <trkpt lat="43.33688" lon="5.78493">
        <ele>755.3</ele>
        <time>2025-10-05T08:01:14Z</time>
      </trkpt>
      <trkpt lat="43.33689" lon="5.78494">
        <ele>755.4</ele>
        <time>2025-10-05T08:01:15Z</time>
      </trkpt>
      <trkpt lat="43.33689" lon="5.78494">
        <ele>755.4</ele>
        <time>2025-10-05T08:01:16Z</time>
      </trkpt>
      <trkpt lat="43.33688" lon="5.78496">
        <ele>755.4</ele>
        <time>2025-10-05T08:01:17Z</time>
      </trkpt>
      <trkpt lat="43.33688" lon="5.78497">
        <ele>755.3</ele>
        <time>2025-10-05T08:01:18Z</time>
      </trkpt>
      <trkpt lat="43.33687" lon="5.78498">
        <ele>755.2</ele>
        <time>2025-10-05T08:01:19Z</time>
      </trkpt>
      <trkpt lat="43.33687" lon="5.78499">
        <ele>755.1</ele>
        <time>2025-10-05T08:01:20Z</time>
      </trkpt>
      <trkpt lat="43.33687" lon="5.785">
        <ele>755.1</ele>
        <time>2025-10-05T08:01:21Z</time>
      </trkpt>
      <trkpt lat="43.33689" lon="5.785">
        <ele>755</ele>
        <time>2025-10-05T08:01:22Z</time>
      </trkpt>
      <trkpt lat="43.33689" lon="5.785">
        <ele>754.8</ele>
        <time>2025-10-05T08:01:23Z</time>
      </trkpt>
      <trkpt lat="43.33689" lon="5.78501">
        <ele>754.7</ele>
        <time>2025-10-05T08:01:24Z</time>
      </trkpt>
      <trkpt lat="43.33688" lon="5.78501">
        <ele>754.6</ele>
        <time>2025-10-05T08:01:25Z</time>
      </trkpt>
      <trkpt lat="43.33689" lon="5.78502">
        <ele>754.4</ele>
        <time>2025-10-05T08:01:26Z</time>
      </trkpt>
      <trkpt lat="43.33689" lon="5.78504">
        <ele>754.3</ele>
        <time>2025-10-05T08:01:27Z</time>
      </trkpt>
      <trkpt lat="43.33689" lon="5.78505">
        <ele>754.2</ele>
        <time>2025-10-05T08:01:28Z</time>
      </trkpt>
      <trkpt lat="43.3369" lon="5.78505">
        <ele>754.2</ele>
        <time>2025-10-05T08:01:29Z</time>
      </trkpt>
      <trkpt lat="43.33689" lon="5.78507">
        <ele>754.3</ele>
        <time>2025-10-05T08:01:30Z</time>
      </trkpt>
      <trkpt lat="43.33689" lon="5.78508">
        <ele>754.3</ele>
        <time>2025-10-05T08:01:31Z</time>
      </trkpt>
      <trkpt lat="43.3369" lon="5.78507">
        <ele>754.4</ele>
        <time>2025-10-05T08:01:32Z</time>
      </trkpt>
      <trkpt lat="43.3369" lon="5.78507">
        <ele>754.4</ele>
        <time>2025-10-05T08:01:33Z</time>
      </trkpt>
      <trkpt lat="43.3369" lon="5.78508">
        <ele>754.4</ele>
        <time>2025-10-05T08:01:34Z</time>
      </trkpt>
      <trkpt lat="43.33689" lon="5.7851">
        <ele>754.6</ele>
        <time>2025-10-05T08:01:35Z</time>
      </trkpt>
      <trkpt lat="43.33689" lon="5.78511">
        <ele>754.7</ele>
        <time>2025-10-05T08:01:36Z</time>
      </trkpt>
      <trkpt lat="43.33689" lon="5.78512">
        <ele>754.9</ele>
        <time>2025-10-05T08:01:37Z</time>
      </trkpt>
      <trkpt lat="43.33689" lon="5.78513">
        <ele>755.1</ele>
        <time>2025-10-05T08:01:38Z</time>
      </trkpt>
      <trkpt lat="43.3369" lon="5.78514">
        <ele>755.4</ele>
        <time>2025-10-05T08:01:39Z</time>
      </trkpt>
      <trkpt lat="43.33691" lon="5.78516">
        <ele>755.5</ele>
        <time>2025-10-05T08:01:40Z</time>
      </trkpt>
      <trkpt lat="43.33691" lon="5.78517">
        <ele>755.8</ele>
        <time>2025-10-05T08:01:41Z</time>
      </trkpt>
      <trkpt lat="43.3369" lon="5.78519">
        <ele>755.9</ele>
        <time>2025-10-05T08:01:42Z</time>
      </trkpt>
      <trkpt lat="43.3369" lon="5.7852">
        <ele>756.2</ele>
        <time>2025-10-05T08:01:43Z</time>
      </trkpt>
      <trkpt lat="43.33689" lon="5.78521">
        <ele>756.3</ele>
        <time>2025-10-05T08:01:44Z</time>
      </trkpt>
      <trkpt lat="43.33689" lon="5.78523">
        <ele>756.5</ele>
        <time>2025-10-05T08:01:45Z</time>
      </trkpt>
      <trkpt lat="43.3369" lon="5.78525">
        <ele>756.7</ele>
        <time>2025-10-05T08:01:46Z</time>
      </trkpt>
      <trkpt lat="43.3369" lon="5.78527">
        <ele>756.8</ele>
        <time>2025-10-05T08:01:47Z</time>
      </trkpt>
      <trkpt lat="43.33689" lon="5.78529">
        <ele>756.9</ele>
        <time>2025-10-05T08:01:48Z</time>
      </trkpt>
      <trkpt lat="43.33689" lon="5.7853">
        <ele>757.1</ele>
        <time>2025-10-05T08:01:49Z</time>
      </trkpt>
      <trkpt lat="43.33689" lon="5.78532">
        <ele>757.3</ele>
        <time>2025-10-05T08:01:50Z</time>
      </trkpt>
      <trkpt lat="43.33689" lon="5.78533">
        <ele>757.5</ele>
        <time>2025-10-05T08:01:51Z</time>
      </trkpt>
      <trkpt lat="43.3369" lon="5.78533">
        <ele>757.6</ele>
        <time>2025-10-05T08:01:52Z</time>
      </trkpt>
      <trkpt lat="43.3369" lon="5.78534">
        <ele>757.8</ele>
        <time>2025-10-05T08:01:53Z</time>
      </trkpt>
      <trkpt lat="43.3369" lon="5.78534">
        <ele>757.9</ele>
        <time>2025-10-05T08:01:54Z</time>
      </trkpt>
      <trkpt lat="43.33691" lon="5.78535">
        <ele>758.1</ele>
        <time>2025-10-05T08:01:55Z</time>
      </trkpt>
      <trkpt lat="43.33691" lon="5.78535">
        <ele>758.2</ele>
        <time>2025-10-05T08:01:56Z</time>
      </trkpt>
      <trkpt lat="43.33691" lon="5.78536">
        <ele>758.4</ele>
        <time>2025-10-05T08:01:57Z</time>
      </trkpt>
      <trkpt lat="43.33692" lon="5.78536">
        <ele>758.5</ele>
        <time>2025-10-05T08:01:58Z</time>
      </trkpt>
      <trkpt lat="43.33692" lon="5.78537">
        <ele>758.6</ele>
        <time>2025-10-05T08:01:59Z</time>
      </trkpt>
      <trkpt lat="43.33692" lon="5.78537">
        <ele>758.7</ele>
        <time>2025-10-05T08:02:00Z</time>
      </trkpt>
      <trkpt lat="43.33692" lon="5.78538">
        <ele>758.7</ele>
        <time>2025-10-05T08:02:01Z</time>
      </trkpt>
      <trkpt lat="43.33692" lon="5.78539">
        <ele>758.8</ele>
        <time>2025-10-05T08:02:02Z</time>
      </trkpt>
      <trkpt lat="43.33693" lon="5.7854">
        <ele>758.8</ele>
        <time>2025-10-05T08:02:03Z</time>
      </trkpt>
      <trkpt lat="43.33694" lon="5.78541">
        <ele>758.8</ele>
        <time>2025-10-05T08:02:04Z</time>
      </trkpt>
      <trkpt lat="43.33694" lon="5.78542">
        <ele>758.7</ele>
        <time>2025-10-05T08:02:05Z</time>
      </trkpt>
      <trkpt lat="43.33695" lon="5.78542">
        <ele>758.6</ele>
        <time>2025-10-05T08:02:06Z</time>
      </trkpt>
      <trkpt lat="43.33695" lon="5.78543">
        <ele>758.6</ele>
        <time>2025-10-05T08:02:07Z</time>
      </trkpt>
      <trkpt lat="43.33696" lon="5.78543">
        <ele>758.5</ele>
        <time>2025-10-05T08:02:08Z</time>
      </trkpt>
      <trkpt lat="43.33697" lon="5.78544">
        <ele>758.5</ele>
        <time>2025-10-05T08:02:09Z</time>
      </trkpt>
      <trkpt lat="43.33697" lon="5.78545">
        <ele>758.4</ele>
        <time>2025-10-05T08:02:10Z</time>
      </trkpt>
      <trkpt lat="43.33697" lon="5.78545">
        <ele>758.4</ele>
        <time>2025-10-05T08:02:11Z</time>
      </trkpt>
      <trkpt lat="43.33697" lon="5.78547">
        <ele>758.3</ele>
        <time>2025-10-05T08:02:12Z</time>
      </trkpt>
      <trkpt lat="43.33697" lon="5.78547">
        <ele>758.2</ele>
        <time>2025-10-05T08:02:13Z</time>
      </trkpt>
      <trkpt lat="43.33697" lon="5.78549">
        <ele>758</ele>
        <time>2025-10-05T08:02:14Z</time>
      </trkpt>
      <trkpt lat="43.33697" lon="5.78551">
        <ele>757.8</ele>
        <time>2025-10-05T08:02:15Z</time>
      </trkpt>
      <trkpt lat="43.33697" lon="5.78551">
        <ele>757.7</ele>
        <time>2025-10-05T08:02:16Z</time>
      </trkpt>
      <trkpt lat="43.33698" lon="5.78551">
        <ele>757.6</ele>
        <time>2025-10-05T08:02:17Z</time>
      </trkpt>
      <trkpt lat="43.33698" lon="5.78554">
        <ele>757.4</ele>
        <time>2025-10-05T08:02:18Z</time>
      </trkpt>
      <trkpt lat="43.33697" lon="5.78555">
        <ele>757.2</ele>
        <time>2025-10-05T08:02:19Z</time>
      </trkpt>
      <trkpt lat="43.33697" lon="5.78557">
        <ele>757.1</ele>
        <time>2025-10-05T08:02:20Z</time>
      </trkpt>
      <trkpt lat="43.33697" lon="5.78559">
        <ele>757.1</ele>
        <time>2025-10-05T08:02:21Z</time>
      </trkpt>
      <trkpt lat="43.33697" lon="5.78561">
        <ele>757.1</ele>
        <time>2025-10-05T08:02:22Z</time>
      </trkpt>
      <trkpt lat="43.33698" lon="5.78562">
        <ele>757</ele>
        <time>2025-10-05T08:02:23Z</time>
      </trkpt>
      <trkpt lat="43.33698" lon="5.78564">
        <ele>757</ele>
        <time>2025-10-05T08:02:24Z</time>
      </trkpt>
      <trkpt lat="43.33698" lon="5.78565">
        <ele>756.8</ele>
        <time>2025-10-05T08:02:25Z</time>
      </trkpt>
      <trkpt lat="43.33699" lon="5.78567">
        <ele>756.7</ele>
        <time>2025-10-05T08:02:26Z</time>
      </trkpt>
      <trkpt lat="43.33699" lon="5.78568">
        <ele>756.6</ele>
        <time>2025-10-05T08:02:27Z</time>
      </trkpt>
      <trkpt lat="43.33699" lon="5.78569">
        <ele>756.6</ele>
        <time>2025-10-05T08:02:28Z</time>
      </trkpt>
      <trkpt lat="43.33699" lon="5.7857">
        <ele>756.6</ele>
        <time>2025-10-05T08:02:29Z</time>
      </trkpt>
      <trkpt lat="43.33698" lon="5.78571">
        <ele>756.6</ele>
        <time>2025-10-05T08:02:30Z</time>
      </trkpt>
      <trkpt lat="43.33698" lon="5.78572">
        <ele>756.6</ele>
        <time>2025-10-05T08:02:31Z</time>
      </trkpt>
      <trkpt lat="43.33698" lon="5.78574">
        <ele>756.7</ele>
        <time>2025-10-05T08:02:32Z</time>
      </trkpt>
      <trkpt lat="43.33698" lon="5.78575">
        <ele>756.7</ele>
        <time>2025-10-05T08:02:33Z</time>
      </trkpt>
      <trkpt lat="43.33698" lon="5.78577">
        <ele>756.8</ele>
        <time>2025-10-05T08:02:34Z</time>
      </trkpt>
      <trkpt lat="43.33698" lon="5.78578">
        <ele>756.8</ele>
        <time>2025-10-05T08:02:35Z</time>
      </trkpt>
      <trkpt lat="43.33698" lon="5.78579">
        <ele>757</ele>
        <time>2025-10-05T08:02:36Z</time>
      </trkpt>
      <trkpt lat="43.33698" lon="5.78581">
        <ele>757.1</ele>
        <time>2025-10-05T08:02:37Z</time>
      </trkpt>
      <trkpt lat="43.33698" lon="5.78583">
        <ele>757.1</ele>
        <time>2025-10-05T08:02:38Z</time>
      </trkpt>
      <trkpt lat="43.33698" lon="5.78583">
        <ele>757.2</ele>
        <time>2025-10-05T08:02:39Z</time>
      </trkpt>
      <trkpt lat="43.33697" lon="5.78584">
        <ele>757.3</ele>
        <time>2025-10-05T08:02:40Z</time>
      </trkpt>
      <trkpt lat="43.33697" lon="5.78587">
        <ele>757.4</ele>
        <time>2025-10-05T08:02:41Z</time>
      </trkpt>
      <trkpt lat="43.33698" lon="5.78588">
        <ele>757.4</ele>
        <time>2025-10-05T08:02:42Z</time>
      </trkpt>
      <trkpt lat="43.33698" lon="5.7859">
        <ele>757.5</ele>
        <time>2025-10-05T08:02:43Z</time>
      </trkpt>
      <trkpt lat="43.33698" lon="5.78591">
        <ele>757.5</ele>
        <time>2025-10-05T08:02:44Z</time>
      </trkpt>
      <trkpt lat="43.33698" lon="5.78591">
        <ele>757.6</ele>
        <time>2025-10-05T08:02:45Z</time>
      </trkpt>
      <trkpt lat="43.33698" lon="5.78591">
        <ele>757.5</ele>
        <time>2025-10-05T08:02:46Z</time>
      </trkpt>
      <trkpt lat="43.33699" lon="5.78592">
        <ele>757.5</ele>
        <time>2025-10-05T08:02:47Z</time>
      </trkpt>
      <trkpt lat="43.33699" lon="5.78593">
        <ele>757.5</ele>
        <time>2025-10-05T08:02:48Z</time>
      </trkpt>
      <trkpt lat="43.337" lon="5.78594">
        <ele>757.6</ele>
        <time>2025-10-05T08:02:49Z</time>
      </trkpt>
      <trkpt lat="43.337" lon="5.78595">
        <ele>757.8</ele>
        <time>2025-10-05T08:02:50Z</time>
      </trkpt>
      <trkpt lat="43.337" lon="5.78596">
        <ele>758</ele>
        <time>2025-10-05T08:02:51Z</time>
      </trkpt>
      <trkpt lat="43.337" lon="5.78597">
        <ele>758.1</ele>
        <time>2025-10-05T08:02:52Z</time>
      </trkpt>
      <trkpt lat="43.33699" lon="5.78598">
        <ele>758.2</ele>
        <time>2025-10-05T08:02:53Z</time>
      </trkpt>
      <trkpt lat="43.33699" lon="5.786">
        <ele>758.3</ele>
        <time>2025-10-05T08:02:54Z</time>
      </trkpt>
      <trkpt lat="43.337" lon="5.786">
        <ele>758.3</ele>
        <time>2025-10-05T08:02:55Z</time>
      </trkpt>
      <trkpt lat="43.33701" lon="5.78602">
        <ele>758.3</ele>
        <time>2025-10-05T08:02:56Z</time>
      </trkpt>
      <trkpt lat="43.33701" lon="5.78603">
        <ele>758.2</ele>
        <time>2025-10-05T08:02:57Z</time>
      </trkpt>
      <trkpt lat="43.33703" lon="5.78604">
        <ele>758.1</ele>
        <time>2025-10-05T08:02:58Z</time>
      </trkpt>
      <trkpt lat="43.33702" lon="5.78605">
        <ele>758.1</ele>
        <time>2025-10-05T08:02:59Z</time>
      </trkpt>
      <trkpt lat="43.33703" lon="5.78607">
        <ele>758.1</ele>
        <time>2025-10-05T08:03:00Z</time>
      </trkpt>
      <trkpt lat="43.33703" lon="5.78608">
        <ele>758</ele>
        <time>2025-10-05T08:03:01Z</time>
      </trkpt>
      <trkpt lat="43.33703" lon="5.78608">
        <ele>757.9</ele>
        <time>2025-10-05T08:03:02Z</time>
      </trkpt>
      <trkpt lat="43.33702" lon="5.78611">
        <ele>757.8</ele>
        <time>2025-10-05T08:03:03Z</time>
      </trkpt>
      <trkpt lat="43.33704" lon="5.78612">
        <ele>757.8</ele>
        <time>2025-10-05T08:03:04Z</time>
      </trkpt>
      <trkpt lat="43.33704" lon="5.78613">
        <ele>757.6</ele>
        <time>2025-10-05T08:03:05Z</time>
      </trkpt>
      <trkpt lat="43.33704" lon="5.78615">
        <ele>757.4</ele>
        <time>2025-10-05T08:03:06Z</time>
      </trkpt>
      <trkpt lat="43.33703" lon="5.78616">
        <ele>757.3</ele>
        <time>2025-10-05T08:03:07Z</time>
      </trkpt>
      <trkpt lat="43.33705" lon="5.78617">
        <ele>757.2</ele>
        <time>2025-10-05T08:03:08Z</time>
      </trkpt>
      <trkpt lat="43.33705" lon="5.78618">
        <ele>757.1</ele>
        <time>2025-10-05T08:03:09Z</time>
      </trkpt>
      <trkpt lat="43.33705" lon="5.78619">
        <ele>757</ele>
        <time>2025-10-05T08:03:10Z</time>
      </trkpt>
      <trkpt lat="43.33706" lon="5.78619">
        <ele>756.8</ele>
        <time>2025-10-05T08:03:11Z</time>
      </trkpt>
      <trkpt lat="43.33707" lon="5.7862">
        <ele>756.6</ele>
        <time>2025-10-05T08:03:12Z</time>
      </trkpt>
      <trkpt lat="43.33707" lon="5.7862">
        <ele>756.5</ele>
        <time>2025-10-05T08:03:13Z</time>
      </trkpt>
      <trkpt lat="43.33708" lon="5.78621">
        <ele>756.4</ele>
        <time>2025-10-05T08:03:14Z</time>
      </trkpt>
      <trkpt lat="43.33708" lon="5.78622">
        <ele>756.3</ele>
        <time>2025-10-05T08:03:15Z</time>
      </trkpt>
      <trkpt lat="43.3371" lon="5.78623">
        <ele>756.2</ele>
        <time>2025-10-05T08:03:16Z</time>
      </trkpt>
      <trkpt lat="43.3371" lon="5.78623">
        <ele>756.1</ele>
        <time>2025-10-05T08:03:17Z</time>
      </trkpt>
      <trkpt lat="43.3371" lon="5.78624">
        <ele>756</ele>
        <time>2025-10-05T08:03:18Z</time>
      </trkpt>
      <trkpt lat="43.3371" lon="5.78625">
        <ele>755.9</ele>
        <time>2025-10-05T08:03:19Z</time>
      </trkpt>
      <trkpt lat="43.3371" lon="5.78626">
        <ele>755.7</ele>
        <time>2025-10-05T08:03:20Z</time>
      </trkpt>
      <trkpt lat="43.33711" lon="5.78628">
        <ele>755.5</ele>
        <time>2025-10-05T08:03:21Z</time>
      </trkpt>
      <trkpt lat="43.33712" lon="5.78629">
        <ele>755.3</ele>
        <time>2025-10-05T08:03:22Z</time>
      </trkpt>
      <trkpt lat="43.33713" lon="5.7863">
        <ele>755.2</ele>
        <time>2025-10-05T08:03:23Z</time>
      </trkpt>
      <trkpt lat="43.33714" lon="5.78631">
        <ele>755.1</ele>
        <time>2025-10-05T08:03:24Z</time>
      </trkpt>
      <trkpt lat="43.33714" lon="5.78631">
        <ele>754.8</ele>
        <time>2025-10-05T08:03:25Z</time>
      </trkpt>
      <trkpt lat="43.33714" lon="5.78633">
        <ele>754.7</ele>
        <time>2025-10-05T08:03:26Z</time>
      </trkpt>
      <trkpt lat="43.33714" lon="5.78634">
        <ele>754.5</ele>
        <time>2025-10-05T08:03:27Z</time>
      </trkpt>
      <trkpt lat="43.33714" lon="5.78635">
        <ele>754.3</ele>
        <time>2025-10-05T08:03:28Z</time>
      </trkpt>
      <trkpt lat="43.33712" lon="5.78637">
        <ele>754</ele>
        <time>2025-10-05T08:03:29Z</time>
      </trkpt>
      <trkpt lat="43.33713" lon="5.78638">
        <ele>753.8</ele>
        <time>2025-10-05T08:03:30Z</time>
      </trkpt>
      <trkpt lat="43.33712" lon="5.78639">
        <ele>753.6</ele>
        <time>2025-10-05T08:03:31Z</time>
      </trkpt>
      <trkpt lat="43.33714" lon="5.7864">
        <ele>753.4</ele>
        <time>2025-10-05T08:03:32Z</time>
      </trkpt>
      <trkpt lat="43.33715" lon="5.78642">
        <ele>753.3</ele>
        <time>2025-10-05T08:03:33Z</time>
      </trkpt>
      <trkpt lat="43.33716" lon="5.78643">
        <ele>753.2</ele>
        <time>2025-10-05T08:03:34Z</time>
      </trkpt>
      <trkpt lat="43.33716" lon="5.78643">
        <ele>753.1</ele>
        <time>2025-10-05T08:03:35Z</time>
      </trkpt>
      <trkpt lat="43.33716" lon="5.78644">
        <ele>753</ele>
        <time>2025-10-05T08:03:36Z</time>
      </trkpt>
      <trkpt lat="43.33717" lon="5.78645">
        <ele>753</ele>
        <time>2025-10-05T08:03:37Z</time>
      </trkpt>
      <trkpt lat="43.33718" lon="5.78646">
        <ele>753</ele>
        <time>2025-10-05T08:03:38Z</time>
      </trkpt>
      <trkpt lat="43.33719" lon="5.78645">
        <ele>753</ele>
        <time>2025-10-05T08:03:39Z</time>
      </trkpt>
      <trkpt lat="43.3372" lon="5.78645">
        <ele>753</ele>
        <time>2025-10-05T08:03:40Z</time>
      </trkpt>
      <trkpt lat="43.3372" lon="5.78645">
        <ele>753</ele>
        <time>2025-10-05T08:03:41Z</time>
      </trkpt>
      <trkpt lat="43.33721" lon="5.78645">
        <ele>753</ele>
        <time>2025-10-05T08:03:42Z</time>
      </trkpt>
      <trkpt lat="43.33721" lon="5.78646">
        <ele>753.2</ele>
        <time>2025-10-05T08:03:43Z</time>
      </trkpt>
      <trkpt lat="43.33722" lon="5.78646">
        <ele>753.2</ele>
        <time>2025-10-05T08:03:44Z</time>
      </trkpt>
      <trkpt lat="43.33722" lon="5.78646">
        <ele>753.3</ele>
        <time>2025-10-05T08:03:45Z</time>
      </trkpt>
      <trkpt lat="43.33722" lon="5.78648">
        <ele>753.4</ele>
        <time>2025-10-05T08:03:46Z</time>
      </trkpt>
      <trkpt lat="43.33722" lon="5.78649">
        <ele>753.6</ele>
        <time>2025-10-05T08:03:47Z</time>
      </trkpt>
      <trkpt lat="43.33722" lon="5.7865">
        <ele>753.8</ele>
        <time>2025-10-05T08:03:48Z</time>
      </trkpt>
      <trkpt lat="43.33721" lon="5.78651">
        <ele>754</ele>
        <time>2025-10-05T08:03:49Z</time>
      </trkpt>
      <trkpt lat="43.33721" lon="5.78652">
        <ele>754.2</ele>
        <time>2025-10-05T08:03:50Z</time>
      </trkpt>
      <trkpt lat="43.33721" lon="5.78652">
        <ele>754.4</ele>
        <time>2025-10-05T08:03:51Z</time>
      </trkpt>
      <trkpt lat="43.3372" lon="5.78653">
        <ele>754.5</ele>
        <time>2025-10-05T08:03:52Z</time>
      </trkpt>
      <trkpt lat="43.33721" lon="5.78653">
        <ele>754.6</ele>
        <time>2025-10-05T08:03:53Z</time>
      </trkpt>
      <trkpt lat="43.33721" lon="5.78653">
        <ele>754.6</ele>
        <time>2025-10-05T08:03:54Z</time>
      </trkpt>
      <trkpt lat="43.33721" lon="5.78655">
        <ele>754.7</ele>
        <time>2025-10-05T08:03:55Z</time>
      </trkpt>
      <trkpt lat="43.33722" lon="5.78655">
        <ele>754.7</ele>
        <time>2025-10-05T08:03:56Z</time>
      </trkpt>
      <trkpt lat="43.33722" lon="5.78656">
        <ele>754.7</ele>
        <time>2025-10-05T08:03:57Z</time>
      </trkpt>
      <trkpt lat="43.33722" lon="5.78657">
        <ele>754.9</ele>
        <time>2025-10-05T08:03:58Z</time>
      </trkpt>
      <trkpt lat="43.33723" lon="5.78658">
        <ele>755</ele>
        <time>2025-10-05T08:03:59Z</time>
      </trkpt>
      <trkpt lat="43.33723" lon="5.78658">
        <ele>755.2</ele>
        <time>2025-10-05T08:04:00Z</time>
      </trkpt>
      <trkpt lat="43.33724" lon="5.78658">
        <ele>755.4</ele>
        <time>2025-10-05T08:04:01Z</time>
      </trkpt>
      <trkpt lat="43.33724" lon="5.78658">
        <ele>755.6</ele>
        <time>2025-10-05T08:04:02Z</time>
      </trkpt>
      <trkpt lat="43.33725" lon="5.78659">
        <ele>755.8</ele>
        <time>2025-10-05T08:04:03Z</time>
      </trkpt>
      <trkpt lat="43.33725" lon="5.7866">
        <ele>756</ele>
        <time>2025-10-05T08:04:04Z</time>
      </trkpt>
      <trkpt lat="43.33725" lon="5.78661">
        <ele>756.1</ele>
        <time>2025-10-05T08:04:05Z</time>
      </trkpt>
      <trkpt lat="43.33725" lon="5.78662">
        <ele>756.2</ele>
        <time>2025-10-05T08:04:06Z</time>
      </trkpt>
      <trkpt lat="43.33725" lon="5.78663">
        <ele>756.2</ele>
        <time>2025-10-05T08:04:07Z</time>
      </trkpt>
      <trkpt lat="43.33724" lon="5.78664">
        <ele>756.4</ele>
        <time>2025-10-05T08:04:08Z</time>
      </trkpt>
      <trkpt lat="43.33725" lon="5.78664">
        <ele>756.5</ele>
        <time>2025-10-05T08:04:09Z</time>
      </trkpt>
      <trkpt lat="43.33725" lon="5.78664">
        <ele>756.5</ele>
        <time>2025-10-05T08:04:10Z</time>
      </trkpt>
      <trkpt lat="43.33725" lon="5.78665">
        <ele>756.5</ele>
        <time>2025-10-05T08:04:11Z</time>
      </trkpt>
      <trkpt lat="43.33724" lon="5.78666">
        <ele>756.5</ele>
        <time>2025-10-05T08:04:12Z</time>
      </trkpt>
      <trkpt lat="43.33724" lon="5.78667">
        <ele>756.5</ele>
        <time>2025-10-05T08:04:13Z</time>
      </trkpt>
      <trkpt lat="43.33724" lon="5.78667">
        <ele>756.7</ele>
        <time>2025-10-05T08:04:14Z</time>
      </trkpt>
      <trkpt lat="43.33725" lon="5.78668">
        <ele>756.7</ele>
        <time>2025-10-05T08:04:15Z</time>
      </trkpt>
      <trkpt lat="43.33725" lon="5.78669">
        <ele>756.7</ele>
        <time>2025-10-05T08:04:16Z</time>
      </trkpt>
      <trkpt lat="43.33725" lon="5.78671">
        <ele>756.7</ele>
        <time>2025-10-05T08:04:17Z</time>
      </trkpt>
      <trkpt lat="43.33725" lon="5.78674">
        <ele>756.6</ele>
        <time>2025-10-05T08:04:18Z</time>
      </trkpt>
      <trkpt lat="43.33725" lon="5.78676">
        <ele>756.5</ele>
        <time>2025-10-05T08:04:19Z</time>
      </trkpt>
      <trkpt lat="43.33726" lon="5.78676">
        <ele>756.5</ele>
        <time>2025-10-05T08:04:20Z</time>
      </trkpt>
      <trkpt lat="43.33727" lon="5.78677">
        <ele>756.3</ele>
        <time>2025-10-05T08:04:21Z</time>
      </trkpt>
      <trkpt lat="43.33727" lon="5.78677">
        <ele>756</ele>
        <time>2025-10-05T08:04:22Z</time>
      </trkpt>
      <trkpt lat="43.33728" lon="5.78678">
        <ele>755.8</ele>
        <time>2025-10-05T08:04:23Z</time>
      </trkpt>
      <trkpt lat="43.33728" lon="5.78679">
        <ele>755.6</ele>
        <time>2025-10-05T08:04:24Z</time>
      </trkpt>
      <trkpt lat="43.33728" lon="5.7868">
        <ele>755.5</ele>
        <time>2025-10-05T08:04:25Z</time>
      </trkpt>
      <trkpt lat="43.33729" lon="5.78681">
        <ele>755.4</ele>
        <time>2025-10-05T08:04:26Z</time>
      </trkpt>
      <trkpt lat="43.33729" lon="5.78683">
        <ele>755.4</ele>
        <time>2025-10-05T08:04:27Z</time>
      </trkpt>
      <trkpt lat="43.33729" lon="5.78684">
        <ele>755.3</ele>
        <time>2025-10-05T08:04:28Z</time>
      </trkpt>
      <trkpt lat="43.33729" lon="5.78686">
        <ele>755.2</ele>
        <time>2025-10-05T08:04:29Z</time>
      </trkpt>
      <trkpt lat="43.33729" lon="5.78687">
        <ele>755.2</ele>
        <time>2025-10-05T08:04:30Z</time>
      </trkpt>
      <trkpt lat="43.33729" lon="5.78689">
        <ele>755.1</ele>
        <time>2025-10-05T08:04:31Z</time>
      </trkpt>
      <trkpt lat="43.33729" lon="5.7869">
        <ele>755.2</ele>
        <time>2025-10-05T08:04:32Z</time>
      </trkpt>
      <trkpt lat="43.3373" lon="5.78691">
        <ele>755.3</ele>
        <time>2025-10-05T08:04:33Z</time>
      </trkpt>
      <trkpt lat="43.3373" lon="5.78692">
        <ele>755.3</ele>
        <time>2025-10-05T08:04:34Z</time>
      </trkpt>
      <trkpt lat="43.33731" lon="5.78692">
        <ele>755.3</ele>
        <time>2025-10-05T08:04:35Z</time>
      </trkpt>
      <trkpt lat="43.33732" lon="5.78692">
        <ele>755.2</ele>
        <time>2025-10-05T08:04:36Z</time>
      </trkpt>
      <trkpt lat="43.33732" lon="5.78693">
        <ele>755.2</ele>
        <time>2025-10-05T08:04:37Z</time>
      </trkpt>
      <trkpt lat="43.33733" lon="5.78693">
        <ele>755.1</ele>
        <time>2025-10-05T08:04:38Z</time>
      </trkpt>
      <trkpt lat="43.33733" lon="5.78694">
        <ele>755</ele>
        <time>2025-10-05T08:04:39Z</time>
      </trkpt>
      <trkpt lat="43.33734" lon="5.78695">
        <ele>755</ele>
        <time>2025-10-05T08:04:40Z</time>
      </trkpt>
      <trkpt lat="43.33734" lon="5.78695">
        <ele>754.9</ele>
        <time>2025-10-05T08:04:41Z</time>
      </trkpt>
      <trkpt lat="43.33735" lon="5.78695">
        <ele>754.9</ele>
        <time>2025-10-05T08:04:42Z</time>
      </trkpt>
      <trkpt lat="43.33736" lon="5.78696">
        <ele>754.9</ele>
        <time>2025-10-05T08:04:43Z</time>
      </trkpt>
      <trkpt lat="43.33736" lon="5.78696">
        <ele>754.9</ele>
        <time>2025-10-05T08:04:44Z</time>
      </trkpt>
      <trkpt lat="43.33737" lon="5.78696">
        <ele>754.9</ele>
        <time>2025-10-05T08:04:45Z</time>
      </trkpt>
      <trkpt lat="43.33738" lon="5.78697">
        <ele>754.8</ele>
        <time>2025-10-05T08:04:46Z</time>
      </trkpt>
      <trkpt lat="43.33738" lon="5.78699">
        <ele>754.6</ele>
        <time>2025-10-05T08:04:47Z</time>
      </trkpt>
      <trkpt lat="43.33739" lon="5.787">
        <ele>754.4</ele>
        <time>2025-10-05T08:04:48Z</time>
      </trkpt>
      <trkpt lat="43.33739" lon="5.78701">
        <ele>754.3</ele>
        <time>2025-10-05T08:04:49Z</time>
      </trkpt>
      <trkpt lat="43.3374" lon="5.78702">
        <ele>754.1</ele>
        <time>2025-10-05T08:04:50Z</time>
      </trkpt>
      <trkpt lat="43.3374" lon="5.78703">
        <ele>754</ele>
        <time>2025-10-05T08:04:51Z</time>
      </trkpt>
      <trkpt lat="43.3374" lon="5.78704">
        <ele>753.8</ele>
        <time>2025-10-05T08:04:52Z</time>
      </trkpt>
      <trkpt lat="43.3374" lon="5.78706">
        <ele>753.7</ele>
        <time>2025-10-05T08:04:53Z</time>
      </trkpt>
      <trkpt lat="43.33741" lon="5.78706">
        <ele>753.5</ele>
        <time>2025-10-05T08:04:54Z</time>
      </trkpt>
      <trkpt lat="43.33741" lon="5.78706">
        <ele>753.4</ele>
        <time>2025-10-05T08:04:55Z</time>
      </trkpt>
      <trkpt lat="43.33742" lon="5.78707">
        <ele>753.3</ele>
        <time>2025-10-05T08:04:56Z</time>
      </trkpt>
      <trkpt lat="43.33744" lon="5.78708">
        <ele>753.2</ele>
        <time>2025-10-05T08:04:57Z</time>
      </trkpt>
      <trkpt lat="43.33744" lon="5.78709">
        <ele>753.2</ele>
        <time>2025-10-05T08:04:58Z</time>
      </trkpt>
      <trkpt lat="43.33745" lon="5.7871">
        <ele>753.1</ele>
        <time>2025-10-05T08:04:59Z</time>
      </trkpt>
      <trkpt lat="43.33746" lon="5.78711">
        <ele>752.9</ele>
        <time>2025-10-05T08:05:00Z</time>
      </trkpt>
      <trkpt lat="43.33748" lon="5.78711">
        <ele>752.7</ele>
        <time>2025-10-05T08:05:01Z</time>
      </trkpt>
      <trkpt lat="43.33749" lon="5.78712">
        <ele>752.5</ele>
        <time>2025-10-05T08:05:02Z</time>
      </trkpt>
      <trkpt lat="43.33749" lon="5.78713">
        <ele>752.4</ele>
        <time>2025-10-05T08:05:03Z</time>
      </trkpt>
      <trkpt lat="43.33751" lon="5.78714">
        <ele>752.2</ele>
        <time>2025-10-05T08:05:04Z</time>
      </trkpt>
      <trkpt lat="43.33751" lon="5.78716">
        <ele>752</ele>
        <time>2025-10-05T08:05:05Z</time>
      </trkpt>
      <trkpt lat="43.33751" lon="5.78717">
        <ele>751.9</ele>
        <time>2025-10-05T08:05:06Z</time>
      </trkpt>
      <trkpt lat="43.33752" lon="5.78718">
        <ele>751.8</ele>
        <time>2025-10-05T08:05:07Z</time>
      </trkpt>
      <trkpt lat="43.33753" lon="5.78719">
        <ele>751.6</ele>
        <time>2025-10-05T08:05:08Z</time>
      </trkpt>
      <trkpt lat="43.33754" lon="5.7872">
        <ele>751.5</ele>
        <time>2025-10-05T08:05:09Z</time>
      </trkpt>
      <trkpt lat="43.33754" lon="5.78721">
        <ele>751.5</ele>
        <time>2025-10-05T08:05:10Z</time>
      </trkpt>
      <trkpt lat="43.33754" lon="5.78722">
        <ele>751.5</ele>
        <time>2025-10-05T08:05:11Z</time>
      </trkpt>
      <trkpt lat="43.33755" lon="5.78722">
        <ele>751.3</ele>
        <time>2025-10-05T08:05:12Z</time>
      </trkpt>
      <trkpt lat="43.33756" lon="5.78723">
        <ele>751.4</ele>
        <time>2025-10-05T08:05:13Z</time>
      </trkpt>
      <trkpt lat="43.33757" lon="5.78723">
        <ele>751.3</ele>
        <time>2025-10-05T08:05:14Z</time>
      </trkpt>
      <trkpt lat="43.33758" lon="5.78722">
        <ele>751.5</ele>
        <time>2025-10-05T08:05:15Z</time>
      </trkpt>
      <trkpt lat="43.33759" lon="5.78722">
        <ele>751.7</ele>
        <time>2025-10-05T08:05:16Z</time>
      </trkpt>
      <trkpt lat="43.33759" lon="5.78723">
        <ele>751.9</ele>
        <time>2025-10-05T08:05:17Z</time>
      </trkpt>
      <trkpt lat="43.33759" lon="5.78723">
        <ele>752.1</ele>
        <time>2025-10-05T08:05:18Z</time>
      </trkpt>
      <trkpt lat="43.33761" lon="5.78722">
        <ele>752.3</ele>
        <time>2025-10-05T08:05:19Z</time>
      </trkpt>
      <trkpt lat="43.33761" lon="5.78723">
        <ele>752.5</ele>
        <time>2025-10-05T08:05:20Z</time>
      </trkpt>
      <trkpt lat="43.33763" lon="5.78722">
        <ele>752.6</ele>
        <time>2025-10-05T08:05:21Z</time>
      </trkpt>
      <trkpt lat="43.33763" lon="5.78722">
        <ele>752.8</ele>
        <time>2025-10-05T08:05:22Z</time>
      </trkpt>
      <trkpt lat="43.33762" lon="5.78723">
        <ele>752.9</ele>
        <time>2025-10-05T08:05:23Z</time>
      </trkpt>
      <trkpt lat="43.33763" lon="5.78723">
        <ele>753</ele>
        <time>2025-10-05T08:05:24Z</time>
      </trkpt>
      <trkpt lat="43.33763" lon="5.78723">
        <ele>753.2</ele>
        <time>2025-10-05T08:05:25Z</time>
      </trkpt>
      <trkpt lat="43.33762" lon="5.78723">
        <ele>753.4</ele>
        <time>2025-10-05T08:05:26Z</time>
      </trkpt>
      <trkpt lat="43.33761" lon="5.78724">
        <ele>753.5</ele>
        <time>2025-10-05T08:05:27Z</time>
      </trkpt>
      <trkpt lat="43.33761" lon="5.78724">
        <ele>753.6</ele>
        <time>2025-10-05T08:05:28Z</time>
      </trkpt>
      <trkpt lat="43.33761" lon="5.78724">
        <ele>753.8</ele>
        <time>2025-10-05T08:05:29Z</time>
      </trkpt>
      <trkpt lat="43.33761" lon="5.78724">
        <ele>754</ele>
        <time>2025-10-05T08:05:30Z</time>
      </trkpt>
      <trkpt lat="43.33761" lon="5.78725">
        <ele>754.2</ele>
        <time>2025-10-05T08:05:31Z</time>
      </trkpt>
      <trkpt lat="43.3376" lon="5.78724">
        <ele>754.4</ele>
        <time>2025-10-05T08:05:32Z</time>
      </trkpt>
      <trkpt lat="43.3376" lon="5.78725">
        <ele>754.7</ele>
        <time>2025-10-05T08:05:33Z</time>
      </trkpt>
      <trkpt lat="43.33759" lon="5.78725">
        <ele>754.9</ele>
        <time>2025-10-05T08:05:34Z</time>
      </trkpt>
      <trkpt lat="43.33759" lon="5.78726">
        <ele>755.1</ele>
        <time>2025-10-05T08:05:35Z</time>
      </trkpt>
      <trkpt lat="43.33758" lon="5.78727">
        <ele>755.3</ele>
        <time>2025-10-05T08:05:36Z</time>
      </trkpt>
      <trkpt lat="43.33758" lon="5.78726">
        <ele>755.5</ele>
        <time>2025-10-05T08:05:37Z</time>
      </trkpt>
      <trkpt lat="43.33758" lon="5.78727">
        <ele>755.8</ele>
        <time>2025-10-05T08:05:38Z</time>
      </trkpt>
      <trkpt lat="43.33757" lon="5.78728">
        <ele>755.9</ele>
        <time>2025-10-05T08:05:39Z</time>
      </trkpt>
      <trkpt lat="43.33756" lon="5.78729">
        <ele>756.1</ele>
        <time>2025-10-05T08:05:40Z</time>
      </trkpt>
      <trkpt lat="43.33756" lon="5.7873">
        <ele>756.3</ele>
        <time>2025-10-05T08:05:41Z</time>
      </trkpt>
      <trkpt lat="43.33755" lon="5.78731">
        <ele>756.5</ele>
        <time>2025-10-05T08:05:42Z</time>
      </trkpt>
      <trkpt lat="43.33755" lon="5.78731">
        <ele>756.7</ele>
        <time>2025-10-05T08:05:43Z</time>
      </trkpt>
      <trkpt lat="43.33755" lon="5.78731">
        <ele>756.9</ele>
        <time>2025-10-05T08:05:44Z</time>
      </trkpt>
      <trkpt lat="43.33755" lon="5.78731">
        <ele>757</ele>
        <time>2025-10-05T08:05:45Z</time>
      </trkpt>
      <trkpt lat="43.33755" lon="5.78732">
        <ele>757.1</ele>
        <time>2025-10-05T08:05:46Z</time>
      </trkpt>
      <trkpt lat="43.33755" lon="5.78733">
        <ele>757.2</ele>
        <time>2025-10-05T08:05:47Z</time>
      </trkpt>
      <trkpt lat="43.33754" lon="5.78734">
        <ele>757.5</ele>
        <time>2025-10-05T08:05:48Z</time>
      </trkpt>
      <trkpt lat="43.33754" lon="5.78734">
        <ele>757.7</ele>
        <time>2025-10-05T08:05:49Z</time>
      </trkpt>
      <trkpt lat="43.33753" lon="5.78734">
        <ele>757.8</ele>
        <time>2025-10-05T08:05:50Z</time>
      </trkpt>
      <trkpt lat="43.33753" lon="5.78734">
        <ele>757.8</ele>
        <time>2025-10-05T08:05:51Z</time>
      </trkpt>
      <trkpt lat="43.33753" lon="5.78734">
        <ele>757.8</ele>
        <time>2025-10-05T08:05:52Z</time>
      </trkpt>
      <trkpt lat="43.33752" lon="5.78735">
        <ele>757.9</ele>
        <time>2025-10-05T08:05:53Z</time>
      </trkpt>
      <trkpt lat="43.33752" lon="5.78735">
        <ele>757.9</ele>
        <time>2025-10-05T08:05:54Z</time>
      </trkpt>
      <trkpt lat="43.33752" lon="5.78736">
        <ele>757.9</ele>
        <time>2025-10-05T08:05:55Z</time>
      </trkpt>
      <trkpt lat="43.33752" lon="5.78737">
        <ele>758.1</ele>
        <time>2025-10-05T08:05:56Z</time>
      </trkpt>
      <trkpt lat="43.33753" lon="5.78737">
        <ele>758.2</ele>
        <time>2025-10-05T08:05:57Z</time>
      </trkpt>
      <trkpt lat="43.33752" lon="5.78739">
        <ele>758.2</ele>
        <time>2025-10-05T08:05:58Z</time>
      </trkpt>
      <trkpt lat="43.33753" lon="5.78739">
        <ele>758.3</ele>
        <time>2025-10-05T08:05:59Z</time>
      </trkpt>
      <trkpt lat="43.33753" lon="5.7874">
        <ele>758.1</ele>
        <time>2025-10-05T08:06:00Z</time>
      </trkpt>
      <trkpt lat="43.33753" lon="5.7874">
        <ele>758.2</ele>
        <time>2025-10-05T08:06:01Z</time>
      </trkpt>
      <trkpt lat="43.33753" lon="5.7874">
        <ele>758.3</ele>
        <time>2025-10-05T08:06:02Z</time>
      </trkpt>
      <trkpt lat="43.33753" lon="5.7874">
        <ele>758.4</ele>
        <time>2025-10-05T08:06:03Z</time>
      </trkpt>
      <trkpt lat="43.33753" lon="5.78741">
        <ele>758.5</ele>
        <time>2025-10-05T08:06:04Z</time>
      </trkpt>
      <trkpt lat="43.33754" lon="5.78745">
        <ele>758.6</ele>
        <time>2025-10-05T08:06:05Z</time>
      </trkpt>
      <trkpt lat="43.33755" lon="5.78747">
        <ele>758.6</ele>
        <time>2025-10-05T08:06:06Z</time>
      </trkpt>
      <trkpt lat="43.33755" lon="5.78748">
        <ele>758.7</ele>
        <time>2025-10-05T08:06:07Z</time>
      </trkpt>
      <trkpt lat="43.33756" lon="5.78749">
        <ele>758.7</ele>
        <time>2025-10-05T08:06:08Z</time>
      </trkpt>
      <trkpt lat="43.33755" lon="5.7875">
        <ele>758.7</ele>
        <time>2025-10-05T08:06:09Z</time>
      </trkpt>
      <trkpt lat="43.33756" lon="5.7875">
        <ele>758.8</ele>
        <time>2025-10-05T08:06:10Z</time>
      </trkpt>
      <trkpt lat="43.33756" lon="5.7875">
        <ele>758.9</ele>
        <time>2025-10-05T08:06:11Z</time>
      </trkpt>
      <trkpt lat="43.33756" lon="5.7875">
        <ele>758.9</ele>
        <time>2025-10-05T08:06:12Z</time>
      </trkpt>
      <trkpt lat="43.33755" lon="5.78752">
        <ele>759</ele>
        <time>2025-10-05T08:06:13Z</time>
      </trkpt>
      <trkpt lat="43.33755" lon="5.78753">
        <ele>759</ele>
        <time>2025-10-05T08:06:14Z</time>
      </trkpt>
      <trkpt lat="43.33754" lon="5.78754">
        <ele>759.1</ele>
        <time>2025-10-05T08:06:15Z</time>
      </trkpt>
      <trkpt lat="43.33753" lon="5.78756">
        <ele>759.2</ele>
        <time>2025-10-05T08:06:16Z</time>
      </trkpt>
      <trkpt lat="43.33753" lon="5.78756">
        <ele>759.2</ele>
        <time>2025-10-05T08:06:17Z</time>
      </trkpt>
      <trkpt lat="43.33753" lon="5.78757">
        <ele>759.3</ele>
        <time>2025-10-05T08:06:18Z</time>
      </trkpt>
      <trkpt lat="43.33753" lon="5.78757">
        <ele>759.2</ele>
        <time>2025-10-05T08:06:19Z</time>
      </trkpt>
      <trkpt lat="43.33753" lon="5.78758">
        <ele>759.4</ele>
        <time>2025-10-05T08:06:20Z</time>
      </trkpt>
      <trkpt lat="43.33752" lon="5.7876">
        <ele>759.5</ele>
        <time>2025-10-05T08:06:21Z</time>
      </trkpt>
      <trkpt lat="43.33753" lon="5.7876">
        <ele>759.6</ele>
        <time>2025-10-05T08:06:22Z</time>
      </trkpt>
      <trkpt lat="43.33752" lon="5.78761">
        <ele>759.8</ele>
        <time>2025-10-05T08:06:23Z</time>
      </trkpt>
      <trkpt lat="43.33752" lon="5.78761">
        <ele>759.8</ele>
        <time>2025-10-05T08:06:24Z</time>
      </trkpt>
      <trkpt lat="43.33752" lon="5.78762">
        <ele>760</ele>
        <time>2025-10-05T08:06:25Z</time>
      </trkpt>
      <trkpt lat="43.33751" lon="5.78763">
        <ele>760.1</ele>
        <time>2025-10-05T08:06:26Z</time>
      </trkpt>
      <trkpt lat="43.33751" lon="5.78763">
        <ele>760.2</ele>
        <time>2025-10-05T08:06:27Z</time>
      </trkpt>
      <trkpt lat="43.33751" lon="5.78763">
        <ele>760.3</ele>
        <time>2025-10-05T08:06:28Z</time>
      </trkpt>
      <trkpt lat="43.3375" lon="5.78764">
        <ele>760.4</ele>
        <time>2025-10-05T08:06:29Z</time>
      </trkpt>
      <trkpt lat="43.3375" lon="5.78765">
        <ele>760.5</ele>
        <time>2025-10-05T08:06:30Z</time>
      </trkpt>
      <trkpt lat="43.3375" lon="5.78766">
        <ele>760.6</ele>
        <time>2025-10-05T08:06:31Z</time>
      </trkpt>
      <trkpt lat="43.33749" lon="5.78767">
        <ele>760.7</ele>
        <time>2025-10-05T08:06:32Z</time>
      </trkpt>
      <trkpt lat="43.3375" lon="5.78767">
        <ele>760.8</ele>
        <time>2025-10-05T08:06:33Z</time>
      </trkpt>
      <trkpt lat="43.3375" lon="5.78768">
        <ele>761</ele>
        <time>2025-10-05T08:06:34Z</time>
      </trkpt>
      <trkpt lat="43.3375" lon="5.78769">
        <ele>761.2</ele>
        <time>2025-10-05T08:06:35Z</time>
      </trkpt>
      <trkpt lat="43.33751" lon="5.7877">
        <ele>761.5</ele>
        <time>2025-10-05T08:06:36Z</time>
      </trkpt>
      <trkpt lat="43.33751" lon="5.78771">
        <ele>761.7</ele>
        <time>2025-10-05T08:06:37Z</time>
      </trkpt>
      <trkpt lat="43.33752" lon="5.78772">
        <ele>761.8</ele>
        <time>2025-10-05T08:06:38Z</time>
      </trkpt>
      <trkpt lat="43.33752" lon="5.78773">
        <ele>762</ele>
        <time>2025-10-05T08:06:39Z</time>
      </trkpt>
      <trkpt lat="43.33754" lon="5.78775">
        <ele>762.1</ele>
        <time>2025-10-05T08:06:40Z</time>
      </trkpt>
      <trkpt lat="43.33754" lon="5.78775">
        <ele>762.2</ele>
        <time>2025-10-05T08:06:41Z</time>
      </trkpt>
      <trkpt lat="43.33754" lon="5.78776">
        <ele>762.3</ele>
        <time>2025-10-05T08:06:42Z</time>
      </trkpt>
      <trkpt lat="43.33756" lon="5.78777">
        <ele>762.4</ele>
        <time>2025-10-05T08:06:43Z</time>
      </trkpt>
      <trkpt lat="43.33756" lon="5.78777">
        <ele>762.5</ele>
        <time>2025-10-05T08:06:44Z</time>
      </trkpt>
      <trkpt lat="43.33757" lon="5.78778">
        <ele>762.6</ele>
        <time>2025-10-05T08:06:45Z</time>
      </trkpt>
      <trkpt lat="43.33757" lon="5.78781">
        <ele>762.6</ele>
        <time>2025-10-05T08:06:46Z</time>
      </trkpt>
      <trkpt lat="43.33756" lon="5.78782">
        <ele>762.6</ele>
        <time>2025-10-05T08:06:47Z</time>
      </trkpt>
      <trkpt lat="43.33756" lon="5.78784">
        <ele>762.7</ele>
        <time>2025-10-05T08:06:48Z</time>
      </trkpt>
      <trkpt lat="43.33757" lon="5.78785">
        <ele>762.7</ele>
        <time>2025-10-05T08:06:49Z</time>
      </trkpt>
      <trkpt lat="43.33758" lon="5.78786">
        <ele>762.7</ele>
        <time>2025-10-05T08:06:50Z</time>
      </trkpt>
      <trkpt lat="43.33759" lon="5.78787">
        <ele>762.7</ele>
        <time>2025-10-05T08:06:51Z</time>
      </trkpt>
      <trkpt lat="43.3376" lon="5.78788">
        <ele>762.7</ele>
        <time>2025-10-05T08:06:52Z</time>
      </trkpt>
      <trkpt lat="43.33761" lon="5.78789">
        <ele>762.6</ele>
        <time>2025-10-05T08:06:53Z</time>
      </trkpt>
      <trkpt lat="43.33761" lon="5.78789">
        <ele>762.7</ele>
        <time>2025-10-05T08:06:54Z</time>
      </trkpt>
      <trkpt lat="43.33762" lon="5.78789">
        <ele>762.7</ele>
        <time>2025-10-05T08:06:55Z</time>
      </trkpt>
      <trkpt lat="43.33763" lon="5.7879">
        <ele>762.7</ele>
        <time>2025-10-05T08:06:56Z</time>
      </trkpt>
      <trkpt lat="43.33763" lon="5.7879">
        <ele>762.8</ele>
        <time>2025-10-05T08:06:57Z</time>
      </trkpt>
      <trkpt lat="43.33764" lon="5.7879">
        <ele>762.9</ele>
        <time>2025-10-05T08:06:58Z</time>
      </trkpt>
      <trkpt lat="43.33764" lon="5.78792">
        <ele>762.9</ele>
        <time>2025-10-05T08:06:59Z</time>
      </trkpt>
      <trkpt lat="43.33764" lon="5.78792">
        <ele>763</ele>
        <time>2025-10-05T08:07:00Z</time>
      </trkpt>
      <trkpt lat="43.33765" lon="5.78793">
        <ele>763.1</ele>
        <time>2025-10-05T08:07:01Z</time>
      </trkpt>
      <trkpt lat="43.33767" lon="5.78793">
        <ele>763.3</ele>
        <time>2025-10-05T08:07:02Z</time>
      </trkpt>
      <trkpt lat="43.33767" lon="5.78794">
        <ele>763.5</ele>
        <time>2025-10-05T08:07:03Z</time>
      </trkpt>
      <trkpt lat="43.33767" lon="5.78794">
        <ele>763.7</ele>
        <time>2025-10-05T08:07:04Z</time>
      </trkpt>
      <trkpt lat="43.33767" lon="5.78796">
        <ele>764</ele>
        <time>2025-10-05T08:07:05Z</time>
      </trkpt>
      <trkpt lat="43.33767" lon="5.78797">
        <ele>764.2</ele>
        <time>2025-10-05T08:07:06Z</time>
      </trkpt>
      <trkpt lat="43.33768" lon="5.78798">
        <ele>764.5</ele>
        <time>2025-10-05T08:07:07Z</time>
      </trkpt>
      <trkpt lat="43.33769" lon="5.78798">
        <ele>764.8</ele>
        <time>2025-10-05T08:07:08Z</time>
      </trkpt>
      <trkpt lat="43.33768" lon="5.78799">
        <ele>765</ele>
        <time>2025-10-05T08:07:09Z</time>
      </trkpt>
      <trkpt lat="43.33769" lon="5.788">
        <ele>765.3</ele>
        <time>2025-10-05T08:07:10Z</time>
      </trkpt>
      <trkpt lat="43.3377" lon="5.78801">
        <ele>765.5</ele>
        <time>2025-10-05T08:07:11Z</time>
      </trkpt>
      <trkpt lat="43.3377" lon="5.78801">
        <ele>765.7</ele>
        <time>2025-10-05T08:07:12Z</time>
      </trkpt>
      <trkpt lat="43.3377" lon="5.78803">
        <ele>765.9</ele>
        <time>2025-10-05T08:07:13Z</time>
      </trkpt>
      <trkpt lat="43.33771" lon="5.78805">
        <ele>766</ele>
        <time>2025-10-05T08:07:14Z</time>
      </trkpt>
      <trkpt lat="43.33772" lon="5.78806">
        <ele>766.1</ele>
        <time>2025-10-05T08:07:15Z</time>
      </trkpt>
      <trkpt lat="43.33772" lon="5.78807">
        <ele>766.2</ele>
        <time>2025-10-05T08:07:16Z</time>
      </trkpt>
      <trkpt lat="43.33773" lon="5.78808">
        <ele>766.3</ele>
        <time>2025-10-05T08:07:17Z</time>
      </trkpt>
      <trkpt lat="43.33773" lon="5.78808">
        <ele>766.5</ele>
        <time>2025-10-05T08:07:18Z</time>
      </trkpt>
      <trkpt lat="43.33775" lon="5.78809">
        <ele>766.8</ele>
        <time>2025-10-05T08:07:19Z</time>
      </trkpt>
      <trkpt lat="43.33775" lon="5.78811">
        <ele>767.1</ele>
        <time>2025-10-05T08:07:20Z</time>
      </trkpt>
      <trkpt lat="43.33775" lon="5.78813">
        <ele>767.3</ele>
        <time>2025-10-05T08:07:21Z</time>
      </trkpt>
      <trkpt lat="43.33776" lon="5.78815">
        <ele>767.4</ele>
        <time>2025-10-05T08:07:22Z</time>
      </trkpt>
      <trkpt lat="43.33778" lon="5.78816">
        <ele>767.5</ele>
        <time>2025-10-05T08:07:23Z</time>
      </trkpt>
      <trkpt lat="43.33778" lon="5.78817">
        <ele>767.6</ele>
        <time>2025-10-05T08:07:24Z</time>
      </trkpt>
      <trkpt lat="43.3378" lon="5.78817">
        <ele>767.7</ele>
        <time>2025-10-05T08:07:25Z</time>
      </trkpt>
      <trkpt lat="43.33779" lon="5.78818">
        <ele>767.7</ele>
        <time>2025-10-05T08:07:26Z</time>
      </trkpt>
      <trkpt lat="43.33779" lon="5.78819">
        <ele>767.7</ele>
        <time>2025-10-05T08:07:27Z</time>
      </trkpt>
      <trkpt lat="43.33778" lon="5.7882">
        <ele>767.8</ele>
        <time>2025-10-05T08:07:28Z</time>
      </trkpt>
      <trkpt lat="43.33778" lon="5.78821">
        <ele>767.8</ele>
        <time>2025-10-05T08:07:29Z</time>
      </trkpt>
      <trkpt lat="43.33779" lon="5.78822">
        <ele>767.9</ele>
        <time>2025-10-05T08:07:30Z</time>
      </trkpt>
      <trkpt lat="43.3378" lon="5.78824">
        <ele>768.1</ele>
        <time>2025-10-05T08:07:31Z</time>
      </trkpt>
      <trkpt lat="43.3378" lon="5.78825">
        <ele>768.1</ele>
        <time>2025-10-05T08:07:32Z</time>
      </trkpt>
      <trkpt lat="43.33781" lon="5.78825">
        <ele>768.2</ele>
        <time>2025-10-05T08:07:33Z</time>
      </trkpt>
      <trkpt lat="43.33782" lon="5.78826">
        <ele>768.4</ele>
        <time>2025-10-05T08:07:34Z</time>
      </trkpt>
      <trkpt lat="43.33783" lon="5.78826">
        <ele>768.5</ele>
        <time>2025-10-05T08:07:35Z</time>
      </trkpt>
      <trkpt lat="43.33783" lon="5.78826">
        <ele>768.8</ele>
        <time>2025-10-05T08:07:36Z</time>
      </trkpt>
      <trkpt lat="43.33784" lon="5.78827">
        <ele>769</ele>
        <time>2025-10-05T08:07:37Z</time>
      </trkpt>
      <trkpt lat="43.33784" lon="5.78827">
        <ele>769.2</ele>
        <time>2025-10-05T08:07:38Z</time>
      </trkpt>
      <trkpt lat="43.33784" lon="5.78828">
        <ele>769.5</ele>
        <time>2025-10-05T08:07:39Z</time>
      </trkpt>
      <trkpt lat="43.33784" lon="5.78829">
        <ele>769.7</ele>
        <time>2025-10-05T08:07:40Z</time>
      </trkpt>
      <trkpt lat="43.33784" lon="5.78829">
        <ele>769.8</ele>
        <time>2025-10-05T08:07:41Z</time>
      </trkpt>
      <trkpt lat="43.33785" lon="5.7883">
        <ele>770</ele>
        <time>2025-10-05T08:07:42Z</time>
      </trkpt>
      <trkpt lat="43.33786" lon="5.7883">
        <ele>770.1</ele>
        <time>2025-10-05T08:07:43Z</time>
      </trkpt>
      <trkpt lat="43.33786" lon="5.7883">
        <ele>770.3</ele>
        <time>2025-10-05T08:07:44Z</time>
      </trkpt>
      <trkpt lat="43.33786" lon="5.78831">
        <ele>770.5</ele>
        <time>2025-10-05T08:07:45Z</time>
      </trkpt>
      <trkpt lat="43.33785" lon="5.78832">
        <ele>770.7</ele>
        <time>2025-10-05T08:07:46Z</time>
      </trkpt>
      <trkpt lat="43.33784" lon="5.78833">
        <ele>770.9</ele>
        <time>2025-10-05T08:07:47Z</time>
      </trkpt>
      <trkpt lat="43.33784" lon="5.78834">
        <ele>771.1</ele>
        <time>2025-10-05T08:07:48Z</time>
      </trkpt>
      <trkpt lat="43.33784" lon="5.78836">
        <ele>771.3</ele>
        <time>2025-10-05T08:07:49Z</time>
      </trkpt>
      <trkpt lat="43.33784" lon="5.78837">
        <ele>771.5</ele>
        <time>2025-10-05T08:07:50Z</time>
      </trkpt>
      <trkpt lat="43.33784" lon="5.78838">
        <ele>771.7</ele>
        <time>2025-10-05T08:07:51Z</time>
      </trkpt>
      <trkpt lat="43.33784" lon="5.7884">
        <ele>771.9</ele>
        <time>2025-10-05T08:07:52Z</time>
      </trkpt>
      <trkpt lat="43.33784" lon="5.78841">
        <ele>772.2</ele>
        <time>2025-10-05T08:07:53Z</time>
      </trkpt>
      <trkpt lat="43.33784" lon="5.78842">
        <ele>772.4</ele>
        <time>2025-10-05T08:07:54Z</time>
      </trkpt>
      <trkpt lat="43.33785" lon="5.78844">
        <ele>772.6</ele>
        <time>2025-10-05T08:07:55Z</time>
      </trkpt>
      <trkpt lat="43.33785" lon="5.78845">
        <ele>772.8</ele>
        <time>2025-10-05T08:07:56Z</time>
      </trkpt>
      <trkpt lat="43.33786" lon="5.78846">
        <ele>773</ele>
        <time>2025-10-05T08:07:57Z</time>
      </trkpt>
      <trkpt lat="43.33785" lon="5.78847">
        <ele>773.2</ele>
        <time>2025-10-05T08:07:58Z</time>
      </trkpt>
      <trkpt lat="43.33786" lon="5.78848">
        <ele>773.4</ele>
        <time>2025-10-05T08:07:59Z</time>
      </trkpt>
      <trkpt lat="43.33786" lon="5.7885">
        <ele>773.6</ele>
        <time>2025-10-05T08:08:00Z</time>
      </trkpt>
      <trkpt lat="43.33787" lon="5.78852">
        <ele>774</ele>
        <time>2025-10-05T08:08:01Z</time>
      </trkpt>
      <trkpt lat="43.33788" lon="5.78854">
        <ele>774.2</ele>
        <time>2025-10-05T08:08:02Z</time>
      </trkpt>
      <trkpt lat="43.33789" lon="5.78854">
        <ele>774.4</ele>
        <time>2025-10-05T08:08:03Z</time>
      </trkpt>
      <trkpt lat="43.3379" lon="5.78855">
        <ele>774.6</ele>
        <time>2025-10-05T08:08:04Z</time>
      </trkpt>
      <trkpt lat="43.3379" lon="5.78857">
        <ele>774.9</ele>
        <time>2025-10-05T08:08:05Z</time>
      </trkpt>
      <trkpt lat="43.3379" lon="5.78858">
        <ele>775.1</ele>
        <time>2025-10-05T08:08:06Z</time>
      </trkpt>
      <trkpt lat="43.3379" lon="5.78859">
        <ele>775.4</ele>
        <time>2025-10-05T08:08:07Z</time>
      </trkpt>
      <trkpt lat="43.33791" lon="5.7886">
        <ele>775.6</ele>
        <time>2025-10-05T08:08:08Z</time>
      </trkpt>
      <trkpt lat="43.33792" lon="5.78861">
        <ele>775.9</ele>
        <time>2025-10-05T08:08:09Z</time>
      </trkpt>
      <trkpt lat="43.33792" lon="5.78864">
        <ele>776.1</ele>
        <time>2025-10-05T08:08:10Z</time>
      </trkpt>
      <trkpt lat="43.33791" lon="5.78866">
        <ele>776.3</ele>
        <time>2025-10-05T08:08:11Z</time>
      </trkpt>
      <trkpt lat="43.33791" lon="5.78867">
        <ele>776.5</ele>
        <time>2025-10-05T08:08:12Z</time>
      </trkpt>
      <trkpt lat="43.33791" lon="5.78868">
        <ele>776.7</ele>
        <time>2025-10-05T08:08:13Z</time>
      </trkpt>
      <trkpt lat="43.33792" lon="5.78869">
        <ele>776.9</ele>
        <time>2025-10-05T08:08:14Z</time>
      </trkpt>
      <trkpt lat="43.33793" lon="5.7887">
        <ele>777.1</ele>
        <time>2025-10-05T08:08:15Z</time>
      </trkpt>
      <trkpt lat="43.33793" lon="5.78871">
        <ele>777.3</ele>
        <time>2025-10-05T08:08:16Z</time>
      </trkpt>
      <trkpt lat="43.33794" lon="5.78872">
        <ele>777.5</ele>
        <time>2025-10-05T08:08:17Z</time>
      </trkpt>
      <trkpt lat="43.33795" lon="5.78873">
        <ele>777.8</ele>
        <time>2025-10-05T08:08:18Z</time>
      </trkpt>
      <trkpt lat="43.33795" lon="5.78874">
        <ele>778</ele>
        <time>2025-10-05T08:08:19Z</time>
      </trkpt>
      <trkpt lat="43.33795" lon="5.78875">
        <ele>778.4</ele>
        <time>2025-10-05T08:08:20Z</time>
      </trkpt>
      <trkpt lat="43.33796" lon="5.78877">
        <ele>778.8</ele>
        <time>2025-10-05T08:08:21Z</time>
      </trkpt>
      <trkpt lat="43.33796" lon="5.78878">
        <ele>779</ele>
        <time>2025-10-05T08:08:22Z</time>
      </trkpt>
      <trkpt lat="43.33797" lon="5.78879">
        <ele>779.2</ele>
        <time>2025-10-05T08:08:23Z</time>
      </trkpt>
      <trkpt lat="43.33797" lon="5.7888">
        <ele>779.6</ele>
        <time>2025-10-05T08:08:24Z</time>
      </trkpt>
      <trkpt lat="43.33796" lon="5.78884">
        <ele>779.9</ele>
        <time>2025-10-05T08:08:25Z</time>
      </trkpt>
      <trkpt lat="43.33796" lon="5.78886">
        <ele>780.2</ele>
        <time>2025-10-05T08:08:26Z</time>
      </trkpt>
      <trkpt lat="43.33797" lon="5.78887">
        <ele>780.5</ele>
        <time>2025-10-05T08:08:27Z</time>
      </trkpt>
      <trkpt lat="43.33798" lon="5.78887">
        <ele>780.8</ele>
        <time>2025-10-05T08:08:28Z</time>
      </trkpt>
      <trkpt lat="43.33799" lon="5.78888">
        <ele>781</ele>
        <time>2025-10-05T08:08:29Z</time>
      </trkpt>
      <trkpt lat="43.338" lon="5.78889">
        <ele>781.1</ele>
        <time>2025-10-05T08:08:30Z</time>
      </trkpt>
      <trkpt lat="43.338" lon="5.7889">
        <ele>781.2</ele>
        <time>2025-10-05T08:08:31Z</time>
      </trkpt>
      <trkpt lat="43.338" lon="5.78891">
        <ele>781.5</ele>
        <time>2025-10-05T08:08:32Z</time>
      </trkpt>
      <trkpt lat="43.33802" lon="5.78892">
        <ele>781.8</ele>
        <time>2025-10-05T08:08:33Z</time>
      </trkpt>
      <trkpt lat="43.33803" lon="5.78893">
        <ele>782.1</ele>
        <time>2025-10-05T08:08:34Z</time>
      </trkpt>
      <trkpt lat="43.33803" lon="5.78894">
        <ele>782.4</ele>
        <time>2025-10-05T08:08:35Z</time>
      </trkpt>
      <trkpt lat="43.33803" lon="5.78895">
        <ele>782.7</ele>
        <time>2025-10-05T08:08:36Z</time>
      </trkpt>
      <trkpt lat="43.33803" lon="5.78896">
        <ele>783</ele>
        <time>2025-10-05T08:08:37Z</time>
      </trkpt>
      <trkpt lat="43.33804" lon="5.78898">
        <ele>783.2</ele>
        <time>2025-10-05T08:08:38Z</time>
      </trkpt>
      <trkpt lat="43.33805" lon="5.78899">
        <ele>783.5</ele>
        <time>2025-10-05T08:08:39Z</time>
      </trkpt>
      <trkpt lat="43.33805" lon="5.789">
        <ele>783.8</ele>
        <time>2025-10-05T08:08:40Z</time>
      </trkpt>
      <trkpt lat="43.33805" lon="5.789">
        <ele>784</ele>
        <time>2025-10-05T08:08:41Z</time>
      </trkpt>
      <trkpt lat="43.33806" lon="5.78901">
        <ele>784.2</ele>
        <time>2025-10-05T08:08:42Z</time>
      </trkpt>
      <trkpt lat="43.33807" lon="5.78902">
        <ele>784.4</ele>
        <time>2025-10-05T08:08:43Z</time>
      </trkpt>
      <trkpt lat="43.33808" lon="5.78904">
        <ele>784.5</ele>
        <time>2025-10-05T08:08:44Z</time>
      </trkpt>
      <trkpt lat="43.33808" lon="5.78906">
        <ele>784.6</ele>
        <time>2025-10-05T08:08:45Z</time>
      </trkpt>
      <trkpt lat="43.33808" lon="5.78907">
        <ele>784.9</ele>
        <time>2025-10-05T08:08:46Z</time>
      </trkpt>
      <trkpt lat="43.3381" lon="5.78908">
        <ele>785.1</ele>
        <time>2025-10-05T08:08:47Z</time>
      </trkpt>
      <trkpt lat="43.3381" lon="5.78911">
        <ele>785.2</ele>
        <time>2025-10-05T08:08:48Z</time>
      </trkpt>
      <trkpt lat="43.33811" lon="5.78912">
        <ele>785.3</ele>
        <time>2025-10-05T08:08:49Z</time>
      </trkpt>
      <trkpt lat="43.33811" lon="5.78913">
        <ele>785.5</ele>
        <time>2025-10-05T08:08:50Z</time>
      </trkpt>
      <trkpt lat="43.33812" lon="5.78915">
        <ele>785.7</ele>
        <time>2025-10-05T08:08:51Z</time>
      </trkpt>
      <trkpt lat="43.33812" lon="5.78916">
        <ele>785.9</ele>
        <time>2025-10-05T08:08:52Z</time>
      </trkpt>
      <trkpt lat="43.33812" lon="5.78917">
        <ele>786</ele>
        <time>2025-10-05T08:08:53Z</time>
      </trkpt>
      <trkpt lat="43.33813" lon="5.78919">
        <ele>786.1</ele>
        <time>2025-10-05T08:08:54Z</time>
      </trkpt>
      <trkpt lat="43.33813" lon="5.7892">
        <ele>786.2</ele>
        <time>2025-10-05T08:08:55Z</time>
      </trkpt>
      <trkpt lat="43.33813" lon="5.78922">
        <ele>786.4</ele>
        <time>2025-10-05T08:08:56Z</time>
      </trkpt>
      <trkpt lat="43.33814" lon="5.78924">
        <ele>786.6</ele>
        <time>2025-10-05T08:08:57Z</time>
      </trkpt>
      <trkpt lat="43.33814" lon="5.78926">
        <ele>786.8</ele>
        <time>2025-10-05T08:08:58Z</time>
      </trkpt>
      <trkpt lat="43.33814" lon="5.78927">
        <ele>787</ele>
        <time>2025-10-05T08:08:59Z</time>
      </trkpt>
      <trkpt lat="43.33814" lon="5.78929">
        <ele>787.2</ele>
        <time>2025-10-05T08:09:00Z</time>
      </trkpt>
      <trkpt lat="43.33815" lon="5.7893">
        <ele>787.2</ele>
        <time>2025-10-05T08:09:01Z</time>
      </trkpt>
      <trkpt lat="43.33816" lon="5.78931">
        <ele>787.3</ele>
        <time>2025-10-05T08:09:02Z</time>
      </trkpt>
      <trkpt lat="43.33816" lon="5.78932">
        <ele>787.4</ele>
        <time>2025-10-05T08:09:03Z</time>
      </trkpt>
      <trkpt lat="43.33817" lon="5.78933">
        <ele>787.5</ele>
        <time>2025-10-05T08:09:04Z</time>
      </trkpt>
      <trkpt lat="43.33817" lon="5.78934">
        <ele>787.6</ele>
        <time>2025-10-05T08:09:05Z</time>
      </trkpt>
      <trkpt lat="43.33818" lon="5.78934">
        <ele>787.8</ele>
        <time>2025-10-05T08:09:06Z</time>
      </trkpt>
      <trkpt lat="43.33819" lon="5.78935">
        <ele>787.9</ele>
        <time>2025-10-05T08:09:07Z</time>
      </trkpt>
      <trkpt lat="43.3382" lon="5.78936">
        <ele>788.1</ele>
        <time>2025-10-05T08:09:08Z</time>
      </trkpt>
      <trkpt lat="43.33821" lon="5.78938">
        <ele>788.3</ele>
        <time>2025-10-05T08:09:09Z</time>
      </trkpt>
      <trkpt lat="43.33821" lon="5.78938">
        <ele>788.5</ele>
        <time>2025-10-05T08:09:10Z</time>
      </trkpt>
      <trkpt lat="43.33822" lon="5.78939">
        <ele>788.6</ele>
        <time>2025-10-05T08:09:11Z</time>
      </trkpt>
      <trkpt lat="43.33822" lon="5.78941">
        <ele>788.7</ele>
        <time>2025-10-05T08:09:12Z</time>
      </trkpt>
      <trkpt lat="43.33823" lon="5.78942">
        <ele>788.9</ele>
        <time>2025-10-05T08:09:13Z</time>
      </trkpt>
      <trkpt lat="43.33823" lon="5.78944">
        <ele>789.2</ele>
        <time>2025-10-05T08:09:14Z</time>
      </trkpt>
      <trkpt lat="43.33824" lon="5.78945">
        <ele>789.3</ele>
        <time>2025-10-05T08:09:15Z</time>
      </trkpt>
      <trkpt lat="43.33825" lon="5.78946">
        <ele>789.5</ele>
        <time>2025-10-05T08:09:16Z</time>
      </trkpt>
      <trkpt lat="43.33825" lon="5.78948">
        <ele>789.8</ele>
        <time>2025-10-05T08:09:17Z</time>
      </trkpt>
      <trkpt lat="43.33826" lon="5.78948">
        <ele>790</ele>
        <time>2025-10-05T08:09:18Z</time>
      </trkpt>
      <trkpt lat="43.33826" lon="5.78949">
        <ele>790.2</ele>
        <time>2025-10-05T08:09:19Z</time>
      </trkpt>
      <trkpt lat="43.33826" lon="5.78951">
        <ele>790.3</ele>
        <time>2025-10-05T08:09:20Z</time>
      </trkpt>
      <trkpt lat="43.33827" lon="5.78952">
        <ele>790.5</ele>
        <time>2025-10-05T08:09:21Z</time>
      </trkpt>
      <trkpt lat="43.33827" lon="5.78953">
        <ele>790.6</ele>
        <time>2025-10-05T08:09:22Z</time>
      </trkpt>
      <trkpt lat="43.33827" lon="5.78955">
        <ele>790.7</ele>
        <time>2025-10-05T08:09:23Z</time>
      </trkpt>
      <trkpt lat="43.33828" lon="5.78955">
        <ele>790.8</ele>
        <time>2025-10-05T08:09:24Z</time>
      </trkpt>
      <trkpt lat="43.33829" lon="5.78956">
        <ele>790.9</ele>
        <time>2025-10-05T08:09:25Z</time>
      </trkpt>
      <trkpt lat="43.33828" lon="5.78958">
        <ele>791</ele>
        <time>2025-10-05T08:09:26Z</time>
      </trkpt>
      <trkpt lat="43.33829" lon="5.78959">
        <ele>791.1</ele>
        <time>2025-10-05T08:09:27Z</time>
      </trkpt>
      <trkpt lat="43.33828" lon="5.78961">
        <ele>791.1</ele>
        <time>2025-10-05T08:09:28Z</time>
      </trkpt>
      <trkpt lat="43.33829" lon="5.78963">
        <ele>791.2</ele>
        <time>2025-10-05T08:09:29Z</time>
      </trkpt>
      <trkpt lat="43.3383" lon="5.78964">
        <ele>791.2</ele>
        <time>2025-10-05T08:09:30Z</time>
      </trkpt>
      <trkpt lat="43.3383" lon="5.78965">
        <ele>791.4</ele>
        <time>2025-10-05T08:09:31Z</time>
      </trkpt>
      <trkpt lat="43.33831" lon="5.78966">
        <ele>791.5</ele>
        <time>2025-10-05T08:09:32Z</time>
      </trkpt>
      <trkpt lat="43.33831" lon="5.78967">
        <ele>791.6</ele>
        <time>2025-10-05T08:09:33Z</time>
      </trkpt>
      <trkpt lat="43.33831" lon="5.78969">
        <ele>791.7</ele>
        <time>2025-10-05T08:09:34Z</time>
      </trkpt>
      <trkpt lat="43.33832" lon="5.7897">
        <ele>791.8</ele>
        <time>2025-10-05T08:09:35Z</time>
      </trkpt>
      <trkpt lat="43.33832" lon="5.78971">
        <ele>791.8</ele>
        <time>2025-10-05T08:09:36Z</time>
      </trkpt>
      <trkpt lat="43.33832" lon="5.78972">
        <ele>791.9</ele>
        <time>2025-10-05T08:09:37Z</time>
      </trkpt>
      <trkpt lat="43.33832" lon="5.78973">
        <ele>791.9</ele>
        <time>2025-10-05T08:09:38Z</time>
      </trkpt>
      <trkpt lat="43.33833" lon="5.78974">
        <ele>791.9</ele>
        <time>2025-10-05T08:09:39Z</time>
      </trkpt>
      <trkpt lat="43.33833" lon="5.78976">
        <ele>791.9</ele>
        <time>2025-10-05T08:09:40Z</time>
      </trkpt>
      <trkpt lat="43.33832" lon="5.78976">
        <ele>792</ele>
        <time>2025-10-05T08:09:41Z</time>
      </trkpt>
      <trkpt lat="43.33832" lon="5.78977">
        <ele>792</ele>
        <time>2025-10-05T08:09:42Z</time>
      </trkpt>
      <trkpt lat="43.33833" lon="5.78978">
        <ele>792.2</ele>
        <time>2025-10-05T08:09:43Z</time>
      </trkpt>
      <trkpt lat="43.33833" lon="5.78978">
        <ele>792.4</ele>
        <time>2025-10-05T08:09:44Z</time>
      </trkpt>
      <trkpt lat="43.33835" lon="5.78977">
        <ele>792.6</ele>
        <time>2025-10-05T08:09:45Z</time>
      </trkpt>
      <trkpt lat="43.33835" lon="5.78979">
        <ele>792.8</ele>
        <time>2025-10-05T08:09:46Z</time>
      </trkpt>
      <trkpt lat="43.33836" lon="5.78979">
        <ele>792.8</ele>
        <time>2025-10-05T08:09:47Z</time>
      </trkpt>
      <trkpt lat="43.33835" lon="5.78981">
        <ele>792.8</ele>
        <time>2025-10-05T08:09:48Z</time>
      </trkpt>
      <trkpt lat="43.33836" lon="5.78981">
        <ele>792.9</ele>
        <time>2025-10-05T08:09:49Z</time>
      </trkpt>
      <trkpt lat="43.33837" lon="5.78981">
        <ele>792.9</ele>
        <time>2025-10-05T08:09:50Z</time>
      </trkpt>
      <trkpt lat="43.33836" lon="5.78981">
        <ele>792.8</ele>
        <time>2025-10-05T08:09:51Z</time>
      </trkpt>
      <trkpt lat="43.33837" lon="5.78981">
        <ele>792.7</ele>
        <time>2025-10-05T08:09:52Z</time>
      </trkpt>
      <trkpt lat="43.33837" lon="5.78981">
        <ele>792.7</ele>
        <time>2025-10-05T08:09:53Z</time>
      </trkpt>
      <trkpt lat="43.33837" lon="5.78983">
        <ele>792.7</ele>
        <time>2025-10-05T08:09:54Z</time>
      </trkpt>
      <trkpt lat="43.33836" lon="5.78983">
        <ele>792.6</ele>
        <time>2025-10-05T08:09:55Z</time>
      </trkpt>
      <trkpt lat="43.33836" lon="5.78984">
        <ele>792.6</ele>
        <time>2025-10-05T08:09:56Z</time>
      </trkpt>
      <trkpt lat="43.33836" lon="5.78983">
        <ele>792.6</ele>
        <time>2025-10-05T08:09:57Z</time>
      </trkpt>
      <trkpt lat="43.33836" lon="5.78983">
        <ele>792.6</ele>
        <time>2025-10-05T08:09:58Z</time>
      </trkpt>
      <trkpt lat="43.33836" lon="5.78984">
        <ele>792.6</ele>
        <time>2025-10-05T08:09:59Z</time>
      </trkpt>
      <trkpt lat="43.33835" lon="5.78984">
        <ele>792.8</ele>
        <time>2025-10-05T08:10:00Z</time>
      </trkpt>
      <trkpt lat="43.33835" lon="5.78983">
        <ele>793</ele>
        <time>2025-10-05T08:10:01Z</time>
      </trkpt>
      <trkpt lat="43.33835" lon="5.78984">
        <ele>793.1</ele>
        <time>2025-10-05T08:10:02Z</time>
      </trkpt>
      <trkpt lat="43.33834" lon="5.78984">
        <ele>793.2</ele>
        <time>2025-10-05T08:10:03Z</time>
      </trkpt>
      <trkpt lat="43.33833" lon="5.78984">
        <ele>793.2</ele>
        <time>2025-10-05T08:10:04Z</time>
      </trkpt>
      <trkpt lat="43.33833" lon="5.78984">
        <ele>793.4</ele>
        <time>2025-10-05T08:10:05Z</time>
      </trkpt>
      <trkpt lat="43.33832" lon="5.78985">
        <ele>793.4</ele>
        <time>2025-10-05T08:10:06Z</time>
      </trkpt>
      <trkpt lat="43.33831" lon="5.78985">
        <ele>793.5</ele>
        <time>2025-10-05T08:10:07Z</time>
      </trkpt>
      <trkpt lat="43.33831" lon="5.78986">
        <ele>793.6</ele>
        <time>2025-10-05T08:10:08Z</time>
      </trkpt>
      <trkpt lat="43.33831" lon="5.78986">
        <ele>793.6</ele>
        <time>2025-10-05T08:10:09Z</time>
      </trkpt>
      <trkpt lat="43.33831" lon="5.78986">
        <ele>793.7</ele>
        <time>2025-10-05T08:10:10Z</time>
      </trkpt>
      <trkpt lat="43.3383" lon="5.78986">
        <ele>793.7</ele>
        <time>2025-10-05T08:10:11Z</time>
      </trkpt>
      <trkpt lat="43.3383" lon="5.78987">
        <ele>794</ele>
        <time>2025-10-05T08:10:12Z</time>
      </trkpt>
      <trkpt lat="43.33829" lon="5.78988">
        <ele>794.1</ele>
        <time>2025-10-05T08:10:13Z</time>
      </trkpt>
      <trkpt lat="43.3383" lon="5.78988">
        <ele>794.3</ele>
        <time>2025-10-05T08:10:14Z</time>
      </trkpt>
      <trkpt lat="43.3383" lon="5.7899">
        <ele>794.2</ele>
        <time>2025-10-05T08:10:15Z</time>
      </trkpt>
      <trkpt lat="43.3383" lon="5.7899">
        <ele>794.2</ele>
        <time>2025-10-05T08:10:16Z</time>
      </trkpt>
      <trkpt lat="43.3383" lon="5.7899">
        <ele>794.2</ele>
        <time>2025-10-05T08:10:17Z</time>
      </trkpt>
      <trkpt lat="43.3383" lon="5.7899">
        <ele>794.2</ele>
        <time>2025-10-05T08:10:18Z</time>
      </trkpt>
      <trkpt lat="43.33829" lon="5.7899">
        <ele>794.1</ele>
        <time>2025-10-05T08:10:19Z</time>
      </trkpt>
      <trkpt lat="43.33829" lon="5.7899">
        <ele>794.1</ele>
        <time>2025-10-05T08:10:20Z</time>
      </trkpt>
      <trkpt lat="43.33829" lon="5.7899">
        <ele>794</ele>
        <time>2025-10-05T08:10:21Z</time>
      </trkpt>
      <trkpt lat="43.33829" lon="5.78991">
        <ele>794</ele>
        <time>2025-10-05T08:10:22Z</time>
      </trkpt>
      <trkpt lat="43.33828" lon="5.78991">
        <ele>794</ele>
        <time>2025-10-05T08:10:23Z</time>
      </trkpt>
      <trkpt lat="43.33828" lon="5.78991">
        <ele>794</ele>
        <time>2025-10-05T08:10:24Z</time>
      </trkpt>
      <trkpt lat="43.33827" lon="5.78992">
        <ele>794</ele>
        <time>2025-10-05T08:10:25Z</time>
      </trkpt>
      <trkpt lat="43.33828" lon="5.78992">
        <ele>794</ele>
        <time>2025-10-05T08:10:26Z</time>
      </trkpt>
      <trkpt lat="43.33828" lon="5.78992">
        <ele>794.1</ele>
        <time>2025-10-05T08:10:27Z</time>
      </trkpt>
      <trkpt lat="43.33828" lon="5.78993">
        <ele>794.2</ele>
        <time>2025-10-05T08:10:28Z</time>
      </trkpt>
      <trkpt lat="43.33828" lon="5.78993">
        <ele>794.3</ele>
        <time>2025-10-05T08:10:29Z</time>
      </trkpt>
      <trkpt lat="43.33828" lon="5.78993">
        <ele>794.4</ele>
        <time>2025-10-05T08:10:30Z</time>
      </trkpt>
      <trkpt lat="43.33827" lon="5.78995">
        <ele>794.6</ele>
        <time>2025-10-05T08:10:31Z</time>
      </trkpt>
      <trkpt lat="43.33827" lon="5.78996">
        <ele>794.7</ele>
        <time>2025-10-05T08:10:32Z</time>
      </trkpt>
      <trkpt lat="43.33827" lon="5.78996">
        <ele>794.7</ele>
        <time>2025-10-05T08:10:33Z</time>
      </trkpt>
      <trkpt lat="43.33827" lon="5.78997">
        <ele>794.8</ele>
        <time>2025-10-05T08:10:34Z</time>
      </trkpt>
      <trkpt lat="43.33826" lon="5.78997">
        <ele>795</ele>
        <time>2025-10-05T08:10:35Z</time>
      </trkpt>
      <trkpt lat="43.33827" lon="5.78997">
        <ele>795.1</ele>
        <time>2025-10-05T08:10:36Z</time>
      </trkpt>
      <trkpt lat="43.33827" lon="5.78998">
        <ele>795.1</ele>
        <time>2025-10-05T08:10:37Z</time>
      </trkpt>
      <trkpt lat="43.33827" lon="5.78998">
        <ele>795.2</ele>
        <time>2025-10-05T08:10:38Z</time>
      </trkpt>
      <trkpt lat="43.33826" lon="5.78998">
        <ele>795.2</ele>
        <time>2025-10-05T08:10:39Z</time>
      </trkpt>
      <trkpt lat="43.33826" lon="5.78998">
        <ele>795.3</ele>
        <time>2025-10-05T08:10:40Z</time>
      </trkpt>
      <trkpt lat="43.33826" lon="5.78998">
        <ele>795.3</ele>
        <time>2025-10-05T08:10:41Z</time>
      </trkpt>
      <trkpt lat="43.33826" lon="5.78998">
        <ele>795.4</ele>
        <time>2025-10-05T08:10:42Z</time>
      </trkpt>
      <trkpt lat="43.33826" lon="5.78998">
        <ele>795.4</ele>
        <time>2025-10-05T08:10:43Z</time>
      </trkpt>
      <trkpt lat="43.33826" lon="5.78998">
        <ele>795.5</ele>
        <time>2025-10-05T08:10:44Z</time>
      </trkpt>
      <trkpt lat="43.33826" lon="5.78997">
        <ele>795.5</ele>
        <time>2025-10-05T08:10:45Z</time>
      </trkpt>
      <trkpt lat="43.33827" lon="5.78997">
        <ele>795.6</ele>
        <time>2025-10-05T08:10:46Z</time>
      </trkpt>
      <trkpt lat="43.33827" lon="5.78996">
        <ele>795.7</ele>
        <time>2025-10-05T08:10:47Z</time>
      </trkpt>
      <trkpt lat="43.33827" lon="5.78996">
        <ele>795.9</ele>
        <time>2025-10-05T08:10:48Z</time>
      </trkpt>
      <trkpt lat="43.33828" lon="5.78995">
        <ele>795.9</ele>
        <time>2025-10-05T08:10:49Z</time>
      </trkpt>
      <trkpt lat="43.33828" lon="5.78995">
        <ele>796</ele>
        <time>2025-10-05T08:10:50Z</time>
      </trkpt>
      <trkpt lat="43.33828" lon="5.78995">
        <ele>796.1</ele>
        <time>2025-10-05T08:10:51Z</time>
      </trkpt>
      <trkpt lat="43.33829" lon="5.78994">
        <ele>796.2</ele>
        <time>2025-10-05T08:10:52Z</time>
      </trkpt>
      <trkpt lat="43.33829" lon="5.78994">
        <ele>796.3</ele>
        <time>2025-10-05T08:10:53Z</time>
      </trkpt>
      <trkpt lat="43.33829" lon="5.78994">
        <ele>796.3</ele>
        <time>2025-10-05T08:10:54Z</time>
      </trkpt>
      <trkpt lat="43.33829" lon="5.78994">
        <ele>796.3</ele>
        <time>2025-10-05T08:10:55Z</time>
      </trkpt>
      <trkpt lat="43.33829" lon="5.78994">
        <ele>796.3</ele>
        <time>2025-10-05T08:10:56Z</time>
      </trkpt>
      <trkpt lat="43.33829" lon="5.78994">
        <ele>796.3</ele>
        <time>2025-10-05T08:10:57Z</time>
      </trkpt>
      <trkpt lat="43.33829" lon="5.78994">
        <ele>796.3</ele>
        <time>2025-10-05T08:10:58Z</time>
      </trkpt>
      <trkpt lat="43.33829" lon="5.78995">
        <ele>796.3</ele>
        <time>2025-10-05T08:10:59Z</time>
      </trkpt>
      <trkpt lat="43.33829" lon="5.78995">
        <ele>796.4</ele>
        <time>2025-10-05T08:11:00Z</time>
      </trkpt>
      <trkpt lat="43.33829" lon="5.78995">
        <ele>796.4</ele>
        <time>2025-10-05T08:11:01Z</time>
      </trkpt>
      <trkpt lat="43.33829" lon="5.78996">
        <ele>796.3</ele>
        <time>2025-10-05T08:11:02Z</time>
      </trkpt>
      <trkpt lat="43.33828" lon="5.78996">
        <ele>796.3</ele>
        <time>2025-10-05T08:11:03Z</time>
      </trkpt>
      <trkpt lat="43.33829" lon="5.78996">
        <ele>796.3</ele>
        <time>2025-10-05T08:11:04Z</time>
      </trkpt>
      <trkpt lat="43.33828" lon="5.78996">
        <ele>796.3</ele>
        <time>2025-10-05T08:11:05Z</time>
      </trkpt>
      <trkpt lat="43.33828" lon="5.78997">
        <ele>796.3</ele>
        <time>2025-10-05T08:11:06Z</time>
      </trkpt>
      <trkpt lat="43.33828" lon="5.78997">
        <ele>796.3</ele>
        <time>2025-10-05T08:11:07Z</time>
      </trkpt>
      <trkpt lat="43.33828" lon="5.78998">
        <ele>796.3</ele>
        <time>2025-10-05T08:11:08Z</time>
      </trkpt>
      <trkpt lat="43.33829" lon="5.78998">
        <ele>796.4</ele>
        <time>2025-10-05T08:11:09Z</time>
      </trkpt>
      <trkpt lat="43.33829" lon="5.78997">
        <ele>796.3</ele>
        <time>2025-10-05T08:11:10Z</time>
      </trkpt>
      <trkpt lat="43.33828" lon="5.78997">
        <ele>796.3</ele>
        <time>2025-10-05T08:11:11Z</time>
      </trkpt>
      <trkpt lat="43.33828" lon="5.78998">
        <ele>796.3</ele>
        <time>2025-10-05T08:11:12Z</time>
      </trkpt>
      <trkpt lat="43.33829" lon="5.78998">
        <ele>796.2</ele>
        <time>2025-10-05T08:11:13Z</time>
      </trkpt>
      <trkpt lat="43.33829" lon="5.78998">
        <ele>796.1</ele>
        <time>2025-10-05T08:11:14Z</time>
      </trkpt>
      <trkpt lat="43.33829" lon="5.78998">
        <ele>796</ele>
        <time>2025-10-05T08:11:15Z</time>
      </trkpt>
      <trkpt lat="43.33829" lon="5.78998">
        <ele>796</ele>
        <time>2025-10-05T08:11:16Z</time>
      </trkpt>
      <trkpt lat="43.33829" lon="5.78998">
        <ele>796</ele>
        <time>2025-10-05T08:11:17Z</time>
      </trkpt>
      <trkpt lat="43.33829" lon="5.78998">
        <ele>796</ele>
        <time>2025-10-05T08:11:18Z</time>
      </trkpt>
      <trkpt lat="43.33829" lon="5.78998">
        <ele>796.1</ele>
        <time>2025-10-05T08:11:19Z</time>
      </trkpt>
      <trkpt lat="43.33829" lon="5.78998">
        <ele>796.1</ele>
        <time>2025-10-05T08:11:20Z</time>
      </trkpt>
      <trkpt lat="43.33829" lon="5.78998">
        <ele>796.1</ele>
        <time>2025-10-05T08:11:21Z</time>
      </trkpt>
      <trkpt lat="43.33829" lon="5.78999">
        <ele>796.1</ele>
        <time>2025-10-05T08:11:22Z</time>
      </trkpt>
      <trkpt lat="43.33829" lon="5.78998">
        <ele>796</ele>
        <time>2025-10-05T08:11:23Z</time>
      </trkpt>
      <trkpt lat="43.33828" lon="5.78998">
        <ele>796</ele>
        <time>2025-10-05T08:11:24Z</time>
      </trkpt>
      <trkpt lat="43.33828" lon="5.78998">
        <ele>796</ele>
        <time>2025-10-05T08:11:25Z</time>
      </trkpt>
      <trkpt lat="43.33828" lon="5.78998">
        <ele>796.1</ele>
        <time>2025-10-05T08:11:26Z</time>
      </trkpt>
      <trkpt lat="43.33829" lon="5.78998">
        <ele>796.1</ele>
        <time>2025-10-05T08:11:27Z</time>
      </trkpt>
      <trkpt lat="43.3383" lon="5.78998">
        <ele>796.2</ele>
        <time>2025-10-05T08:11:28Z</time>
      </trkpt>
      <trkpt lat="43.33829" lon="5.78998">
        <ele>796.3</ele>
        <time>2025-10-05T08:11:29Z</time>
      </trkpt>
      <trkpt lat="43.33829" lon="5.78999">
        <ele>796.4</ele>
        <time>2025-10-05T08:11:30Z</time>
      </trkpt>
      <trkpt lat="43.33829" lon="5.78999">
        <ele>796.4</ele>
        <time>2025-10-05T08:11:31Z</time>
      </trkpt>
      <trkpt lat="43.33829" lon="5.78999">
        <ele>796.4</ele>
        <time>2025-10-05T08:11:32Z</time>
      </trkpt>
      <trkpt lat="43.33829" lon="5.78999">
        <ele>796.3</ele>
        <time>2025-10-05T08:11:33Z</time>
      </trkpt>
      <trkpt lat="43.3383" lon="5.78999">
        <ele>796.2</ele>
        <time>2025-10-05T08:11:34Z</time>
      </trkpt>
      <trkpt lat="43.3383" lon="5.78999">
        <ele>796.2</ele>
        <time>2025-10-05T08:11:35Z</time>
      </trkpt>
      <trkpt lat="43.3383" lon="5.78999">
        <ele>796.2</ele>
        <time>2025-10-05T08:11:36Z</time>
      </trkpt>
      <trkpt lat="43.33829" lon="5.78999">
        <ele>796.1</ele>
        <time>2025-10-05T08:11:37Z</time>
      </trkpt>
      <trkpt lat="43.33829" lon="5.78999">
        <ele>796.1</ele>
        <time>2025-10-05T08:11:38Z</time>
      </trkpt>
      <trkpt lat="43.33829" lon="5.78999">
        <ele>796</ele>
        <time>2025-10-05T08:11:39Z</time>
      </trkpt>
      <trkpt lat="43.33829" lon="5.78999">
        <ele>796</ele>
        <time>2025-10-05T08:11:40Z</time>
      </trkpt>
      <trkpt lat="43.33828" lon="5.78999">
        <ele>796</ele>
        <time>2025-10-05T08:11:41Z</time>
      </trkpt>
      <trkpt lat="43.33828" lon="5.78999">
        <ele>796.1</ele>
        <time>2025-10-05T08:11:42Z</time>
      </trkpt>
      <trkpt lat="43.33828" lon="5.78999">
        <ele>796.1</ele>
        <time>2025-10-05T08:11:43Z</time>
      </trkpt>
      <trkpt lat="43.33828" lon="5.78999">
        <ele>796.1</ele>
        <time>2025-10-05T08:11:44Z</time>
      </trkpt>
      <trkpt lat="43.33827" lon="5.78999">
        <ele>796.2</ele>
        <time>2025-10-05T08:11:45Z</time>
      </trkpt>
      <trkpt lat="43.33827" lon="5.78999">
        <ele>796.2</ele>
        <time>2025-10-05T08:11:46Z</time>
      </trkpt>
      <trkpt lat="43.33827" lon="5.78999">
        <ele>796.1</ele>
        <time>2025-10-05T08:11:47Z</time>
      </trkpt>
      <trkpt lat="43.33827" lon="5.78999">
        <ele>796.1</ele>
        <time>2025-10-05T08:11:48Z</time>
      </trkpt>
      <trkpt lat="43.33826" lon="5.78999">
        <ele>796.1</ele>
        <time>2025-10-05T08:11:49Z</time>
      </trkpt>
      <trkpt lat="43.33826" lon="5.78999">
        <ele>796.2</ele>
        <time>2025-10-05T08:11:50Z</time>
      </trkpt>
      <trkpt lat="43.33826" lon="5.78999">
        <ele>796.2</ele>
        <time>2025-10-05T08:11:51Z</time>
      </trkpt>
      <trkpt lat="43.33826" lon="5.79">
        <ele>796.3</ele>
        <time>2025-10-05T08:11:52Z</time>
      </trkpt>
      <trkpt lat="43.33826" lon="5.78999">
        <ele>796.4</ele>
        <time>2025-10-05T08:11:53Z</time>
      </trkpt>
      <trkpt lat="43.33825" lon="5.78999">
        <ele>796.5</ele>
        <time>2025-10-05T08:11:54Z</time>
      </trkpt>
      <trkpt lat="43.33825" lon="5.78999">
        <ele>796.5</ele>
        <time>2025-10-05T08:11:55Z</time>
      </trkpt>
      <trkpt lat="43.33825" lon="5.78999">
        <ele>796.6</ele>
        <time>2025-10-05T08:11:56Z</time>
      </trkpt>
      <trkpt lat="43.33825" lon="5.78999">
        <ele>796.7</ele>
        <time>2025-10-05T08:11:57Z</time>
      </trkpt>
      <trkpt lat="43.33826" lon="5.78999">
        <ele>796.7</ele>
        <time>2025-10-05T08:11:58Z</time>
      </trkpt>
      <trkpt lat="43.33826" lon="5.78999">
        <ele>796.7</ele>
        <time>2025-10-05T08:11:59Z</time>
      </trkpt>
      <trkpt lat="43.33826" lon="5.79">
        <ele>796.7</ele>
        <time>2025-10-05T08:12:00Z</time>
      </trkpt>
      <trkpt lat="43.33826" lon="5.79">
        <ele>796.7</ele>
        <time>2025-10-05T08:12:01Z</time>
      </trkpt>
      <trkpt lat="43.33826" lon="5.79">
        <ele>796.7</ele>
        <time>2025-10-05T08:12:02Z</time>
      </trkpt>
      <trkpt lat="43.33826" lon="5.79">
        <ele>796.8</ele>
        <time>2025-10-05T08:12:03Z</time>
      </trkpt>
      <trkpt lat="43.33826" lon="5.79">
        <ele>796.9</ele>
        <time>2025-10-05T08:12:04Z</time>
      </trkpt>
      <trkpt lat="43.33826" lon="5.79">
        <ele>796.9</ele>
        <time>2025-10-05T08:12:05Z</time>
      </trkpt>
      <trkpt lat="43.33826" lon="5.79">
        <ele>797</ele>
        <time>2025-10-05T08:12:06Z</time>
      </trkpt>
      <trkpt lat="43.33826" lon="5.79">
        <ele>797</ele>
        <time>2025-10-05T08:12:07Z</time>
      </trkpt>
      <trkpt lat="43.33827" lon="5.79001">
        <ele>797.1</ele>
        <time>2025-10-05T08:12:08Z</time>
      </trkpt>
      <trkpt lat="43.33827" lon="5.79001">
        <ele>797.1</ele>
        <time>2025-10-05T08:12:09Z</time>
      </trkpt>
      <trkpt lat="43.33827" lon="5.79001">
        <ele>797.1</ele>
        <time>2025-10-05T08:12:10Z</time>
      </trkpt>
      <trkpt lat="43.33827" lon="5.79001">
        <ele>797</ele>
        <time>2025-10-05T08:12:11Z</time>
      </trkpt>
      <trkpt lat="43.33828" lon="5.79001">
        <ele>797</ele>
        <time>2025-10-05T08:12:12Z</time>
      </trkpt>
      <trkpt lat="43.33829" lon="5.79002">
        <ele>796.9</ele>
        <time>2025-10-05T08:12:13Z</time>
      </trkpt>
      <trkpt lat="43.3383" lon="5.79002">
        <ele>796.9</ele>
        <time>2025-10-05T08:12:14Z</time>
      </trkpt>
      <trkpt lat="43.33831" lon="5.79003">
        <ele>796.9</ele>
        <time>2025-10-05T08:12:15Z</time>
      </trkpt>
      <trkpt lat="43.33832" lon="5.79003">
        <ele>796.8</ele>
        <time>2025-10-05T08:12:16Z</time>
      </trkpt>
      <trkpt lat="43.33832" lon="5.79003">
        <ele>796.8</ele>
        <time>2025-10-05T08:12:17Z</time>
      </trkpt>
      <trkpt lat="43.33833" lon="5.79003">
        <ele>796.8</ele>
        <time>2025-10-05T08:12:18Z</time>
      </trkpt>
      <trkpt lat="43.33834" lon="5.79004">
        <ele>796.9</ele>
        <time>2025-10-05T08:12:19Z</time>
      </trkpt>
      <trkpt lat="43.33834" lon="5.79003">
        <ele>796.9</ele>
        <time>2025-10-05T08:12:20Z</time>
      </trkpt>
      <trkpt lat="43.33834" lon="5.79003">
        <ele>796.9</ele>
        <time>2025-10-05T08:12:21Z</time>
      </trkpt>
      <trkpt lat="43.33834" lon="5.79003">
        <ele>796.8</ele>
        <time>2025-10-05T08:12:22Z</time>
      </trkpt>
      <trkpt lat="43.33835" lon="5.79003">
        <ele>796.8</ele>
        <time>2025-10-05T08:12:23Z</time>
      </trkpt>
      <trkpt lat="43.33835" lon="5.79003">
        <ele>796.8</ele>
        <time>2025-10-05T08:12:24Z</time>
      </trkpt>
      <trkpt lat="43.33835" lon="5.79003">
        <ele>796.8</ele>
        <time>2025-10-05T08:12:25Z</time>
      </trkpt>
      <trkpt lat="43.33835" lon="5.79003">
        <ele>796.7</ele>
        <time>2025-10-05T08:12:26Z</time>
      </trkpt>
      <trkpt lat="43.33835" lon="5.79003">
        <ele>796.8</ele>
        <time>2025-10-05T08:12:27Z</time>
      </trkpt>
      <trkpt lat="43.33835" lon="5.79003">
        <ele>796.9</ele>
        <time>2025-10-05T08:12:28Z</time>
      </trkpt>
      <trkpt lat="43.33835" lon="5.79003">
        <ele>796.8</ele>
        <time>2025-10-05T08:12:29Z</time>
      </trkpt>
      <trkpt lat="43.33835" lon="5.79003">
        <ele>796.8</ele>
        <time>2025-10-05T08:12:30Z</time>
      </trkpt>
      <trkpt lat="43.33835" lon="5.79003">
        <ele>796.8</ele>
        <time>2025-10-05T08:12:31Z</time>
      </trkpt>
      <trkpt lat="43.33836" lon="5.79003">
        <ele>796.7</ele>
        <time>2025-10-05T08:12:32Z</time>
      </trkpt>
      <trkpt lat="43.33836" lon="5.79003">
        <ele>796.7</ele>
        <time>2025-10-05T08:12:33Z</time>
      </trkpt>
      <trkpt lat="43.33836" lon="5.79003">
        <ele>796.7</ele>
        <time>2025-10-05T08:12:34Z</time>
      </trkpt>
      <trkpt lat="43.33836" lon="5.79003">
        <ele>796.7</ele>
        <time>2025-10-05T08:12:35Z</time>
      </trkpt>
      <trkpt lat="43.33837" lon="5.79003">
        <ele>796.8</ele>
        <time>2025-10-05T08:12:36Z</time>
      </trkpt>
      <trkpt lat="43.33837" lon="5.79003">
        <ele>796.8</ele>
        <time>2025-10-05T08:12:37Z</time>
      </trkpt>
      <trkpt lat="43.33838" lon="5.79003">
        <ele>796.8</ele>
        <time>2025-10-05T08:12:38Z</time>
      </trkpt>
      <trkpt lat="43.33838" lon="5.79003">
        <ele>796.8</ele>
        <time>2025-10-05T08:12:39Z</time>
      </trkpt>
      <trkpt lat="43.33838" lon="5.79003">
        <ele>796.8</ele>
        <time>2025-10-05T08:12:40Z</time>
      </trkpt>
      <trkpt lat="43.33838" lon="5.79003">
        <ele>796.8</ele>
        <time>2025-10-05T08:12:41Z</time>
      </trkpt>
      <trkpt lat="43.33839" lon="5.79003">
        <ele>796.8</ele>
        <time>2025-10-05T08:12:42Z</time>
      </trkpt>
      <trkpt lat="43.33839" lon="5.79003">
        <ele>796.9</ele>
        <time>2025-10-05T08:12:43Z</time>
      </trkpt>
      <trkpt lat="43.33838" lon="5.79003">
        <ele>796.9</ele>
        <time>2025-10-05T08:12:44Z</time>
      </trkpt>
      <trkpt lat="43.33838" lon="5.79003">
        <ele>796.9</ele>
        <time>2025-10-05T08:12:45Z</time>
      </trkpt>
      <trkpt lat="43.33838" lon="5.79003">
        <ele>796.9</ele>
        <time>2025-10-05T08:12:46Z</time>
      </trkpt>
      <trkpt lat="43.33838" lon="5.79003">
        <ele>796.9</ele>
        <time>2025-10-05T08:12:47Z</time>
      </trkpt>
      <trkpt lat="43.33838" lon="5.79003">
        <ele>796.9</ele>
        <time>2025-10-05T08:12:48Z</time>
      </trkpt>
      <trkpt lat="43.33838" lon="5.79003">
        <ele>796.8</ele>
        <time>2025-10-05T08:12:49Z</time>
      </trkpt>
      <trkpt lat="43.33837" lon="5.79003">
        <ele>796.8</ele>
        <time>2025-10-05T08:12:50Z</time>
      </trkpt>
      <trkpt lat="43.33837" lon="5.79003">
        <ele>796.8</ele>
        <time>2025-10-05T08:12:51Z</time>
      </trkpt>
      <trkpt lat="43.33837" lon="5.79003">
        <ele>796.7</ele>
        <time>2025-10-05T08:12:52Z</time>
      </trkpt>
      <trkpt lat="43.33837" lon="5.79002">
        <ele>796.7</ele>
        <time>2025-10-05T08:12:53Z</time>
      </trkpt>
      <trkpt lat="43.33836" lon="5.79003">
        <ele>796.7</ele>
        <time>2025-10-05T08:12:54Z</time>
      </trkpt>
      <trkpt lat="43.33836" lon="5.79003">
        <ele>796.7</ele>
        <time>2025-10-05T08:12:55Z</time>
      </trkpt>
      <trkpt lat="43.33836" lon="5.79002">
        <ele>796.7</ele>
        <time>2025-10-05T08:12:56Z</time>
      </trkpt>
      <trkpt lat="43.33836" lon="5.79002">
        <ele>796.7</ele>
        <time>2025-10-05T08:12:57Z</time>
      </trkpt>
      <trkpt lat="43.33835" lon="5.79002">
        <ele>796.7</ele>
        <time>2025-10-05T08:12:58Z</time>
      </trkpt>
      <trkpt lat="43.33835" lon="5.79002">
        <ele>796.8</ele>
        <time>2025-10-05T08:12:59Z</time>
      </trkpt>
      <trkpt lat="43.33835" lon="5.79002">
        <ele>796.8</ele>
        <time>2025-10-05T08:13:00Z</time>
      </trkpt>
      <trkpt lat="43.33835" lon="5.79003">
        <ele>796.8</ele>
        <time>2025-10-05T08:13:01Z</time>
      </trkpt>
      <trkpt lat="43.33835" lon="5.79003">
        <ele>796.8</ele>
        <time>2025-10-05T08:13:02Z</time>
      </trkpt>
      <trkpt lat="43.33835" lon="5.79003">
        <ele>796.8</ele>
        <time>2025-10-05T08:13:03Z</time>
      </trkpt>
      <trkpt lat="43.33834" lon="5.79003">
        <ele>796.9</ele>
        <time>2025-10-05T08:13:04Z</time>
      </trkpt>
      <trkpt lat="43.33834" lon="5.79003">
        <ele>796.9</ele>
        <time>2025-10-05T08:13:05Z</time>
      </trkpt>
      <trkpt lat="43.33835" lon="5.79003">
        <ele>796.9</ele>
        <time>2025-10-05T08:13:06Z</time>
      </trkpt>
      <trkpt lat="43.33835" lon="5.79003">
        <ele>796.9</ele>
        <time>2025-10-05T08:13:07Z</time>
      </trkpt>
      <trkpt lat="43.33835" lon="5.79003">
        <ele>796.9</ele>
        <time>2025-10-05T08:13:08Z</time>
      </trkpt>
      <trkpt lat="43.33835" lon="5.79003">
        <ele>796.9</ele>
        <time>2025-10-05T08:13:09Z</time>
      </trkpt>
      <trkpt lat="43.33834" lon="5.79003">
        <ele>796.9</ele>
        <time>2025-10-05T08:13:10Z</time>
      </trkpt>
      <trkpt lat="43.33834" lon="5.79003">
        <ele>796.9</ele>
        <time>2025-10-05T08:13:11Z</time>
      </trkpt>
      <trkpt lat="43.33834" lon="5.79003">
        <ele>797</ele>
        <time>2025-10-05T08:13:12Z</time>
      </trkpt>
      <trkpt lat="43.33833" lon="5.79003">
        <ele>797.1</ele>
        <time>2025-10-05T08:13:13Z</time>
      </trkpt>
      <trkpt lat="43.33833" lon="5.79003">
        <ele>797.1</ele>
        <time>2025-10-05T08:13:14Z</time>
      </trkpt>
      <trkpt lat="43.33833" lon="5.79003">
        <ele>797.1</ele>
        <time>2025-10-05T08:13:15Z</time>
      </trkpt>
      <trkpt lat="43.33833" lon="5.79003">
        <ele>797.1</ele>
        <time>2025-10-05T08:13:16Z</time>
      </trkpt>
      <trkpt lat="43.33833" lon="5.79003">
        <ele>797.1</ele>
        <time>2025-10-05T08:13:17Z</time>
      </trkpt>
      <trkpt lat="43.33832" lon="5.79003">
        <ele>797.2</ele>
        <time>2025-10-05T08:13:18Z</time>
      </trkpt>
      <trkpt lat="43.33832" lon="5.79003">
        <ele>797.2</ele>
        <time>2025-10-05T08:13:19Z</time>
      </trkpt>
      <trkpt lat="43.33832" lon="5.79003">
        <ele>797.2</ele>
        <time>2025-10-05T08:13:20Z</time>
      </trkpt>
      <trkpt lat="43.33831" lon="5.79002">
        <ele>797.3</ele>
        <time>2025-10-05T08:13:21Z</time>
      </trkpt>
      <trkpt lat="43.33831" lon="5.79002">
        <ele>797.3</ele>
        <time>2025-10-05T08:13:22Z</time>
      </trkpt>
      <trkpt lat="43.33831" lon="5.79002">
        <ele>797.3</ele>
        <time>2025-10-05T08:13:23Z</time>
      </trkpt>
      <trkpt lat="43.33831" lon="5.79001">
        <ele>797.2</ele>
        <time>2025-10-05T08:13:24Z</time>
      </trkpt>
      <trkpt lat="43.3383" lon="5.79001">
        <ele>797.2</ele>
        <time>2025-10-05T08:13:25Z</time>
      </trkpt>
      <trkpt lat="43.3383" lon="5.79001">
        <ele>797.2</ele>
        <time>2025-10-05T08:13:26Z</time>
      </trkpt>
      <trkpt lat="43.3383" lon="5.79001">
        <ele>797.2</ele>
        <time>2025-10-05T08:13:27Z</time>
      </trkpt>
      <trkpt lat="43.3383" lon="5.79">
        <ele>797.1</ele>
        <time>2025-10-05T08:13:28Z</time>
      </trkpt>
      <trkpt lat="43.33829" lon="5.79">
        <ele>797.1</ele>
        <time>2025-10-05T08:13:29Z</time>
      </trkpt>
      <trkpt lat="43.33829" lon="5.79">
        <ele>797.2</ele>
        <time>2025-10-05T08:13:30Z</time>
      </trkpt>
      <trkpt lat="43.33829" lon="5.78999">
        <ele>797.2</ele>
        <time>2025-10-05T08:13:31Z</time>
      </trkpt>
      <trkpt lat="43.33829" lon="5.78999">
        <ele>797.2</ele>
        <time>2025-10-05T08:13:32Z</time>
      </trkpt>
      <trkpt lat="43.33829" lon="5.78999">
        <ele>797</ele>
        <time>2025-10-05T08:13:33Z</time>
      </trkpt>
      <trkpt lat="43.33829" lon="5.78998">
        <ele>797</ele>
        <time>2025-10-05T08:13:34Z</time>
      </trkpt>
      <trkpt lat="43.33829" lon="5.78998">
        <ele>797</ele>
        <time>2025-10-05T08:13:35Z</time>
      </trkpt>
      <trkpt lat="43.33829" lon="5.78998">
        <ele>797</ele>
        <time>2025-10-05T08:13:36Z</time>
      </trkpt>
      <trkpt lat="43.33829" lon="5.78998">
        <ele>797.1</ele>
        <time>2025-10-05T08:13:37Z</time>
      </trkpt>
      <trkpt lat="43.33828" lon="5.78998">
        <ele>797.1</ele>
        <time>2025-10-05T08:13:38Z</time>
      </trkpt>
      <trkpt lat="43.33828" lon="5.78998">
        <ele>797.1</ele>
        <time>2025-10-05T08:13:39Z</time>
      </trkpt>
      <trkpt lat="43.33828" lon="5.78998">
        <ele>797.1</ele>
        <time>2025-10-05T08:13:40Z</time>
      </trkpt>
      <trkpt lat="43.33828" lon="5.78998">
        <ele>797</ele>
        <time>2025-10-05T08:13:41Z</time>
      </trkpt>
      <trkpt lat="43.33828" lon="5.78998">
        <ele>796.9</ele>
        <time>2025-10-05T08:13:42Z</time>
      </trkpt>
      <trkpt lat="43.33828" lon="5.78998">
        <ele>796.8</ele>
        <time>2025-10-05T08:13:43Z</time>
      </trkpt>
      <trkpt lat="43.33828" lon="5.78997">
        <ele>796.8</ele>
        <time>2025-10-05T08:13:44Z</time>
      </trkpt>
      <trkpt lat="43.33828" lon="5.78997">
        <ele>796.8</ele>
        <time>2025-10-05T08:13:45Z</time>
      </trkpt>
      <trkpt lat="43.33827" lon="5.78997">
        <ele>796.9</ele>
        <time>2025-10-05T08:13:46Z</time>
      </trkpt>
      <trkpt lat="43.33827" lon="5.78997">
        <ele>796.9</ele>
        <time>2025-10-05T08:13:47Z</time>
      </trkpt>
      <trkpt lat="43.33828" lon="5.78997">
        <ele>796.8</ele>
        <time>2025-10-05T08:13:48Z</time>
      </trkpt>
      <trkpt lat="43.33827" lon="5.78997">
        <ele>796.8</ele>
        <time>2025-10-05T08:13:49Z</time>
      </trkpt>
      <trkpt lat="43.33827" lon="5.78997">
        <ele>796.8</ele>
        <time>2025-10-05T08:13:50Z</time>
      </trkpt>
      <trkpt lat="43.33827" lon="5.78997">
        <ele>796.8</ele>
        <time>2025-10-05T08:13:51Z</time>
      </trkpt>
      <trkpt lat="43.33827" lon="5.78997">
        <ele>796.8</ele>
        <time>2025-10-05T08:13:52Z</time>
      </trkpt>
      <trkpt lat="43.33827" lon="5.78997">
        <ele>796.8</ele>
        <time>2025-10-05T08:13:53Z</time>
      </trkpt>
      <trkpt lat="43.33828" lon="5.78996">
        <ele>796.8</ele>
        <time>2025-10-05T08:13:54Z</time>
      </trkpt>
      <trkpt lat="43.33828" lon="5.78996">
        <ele>796.9</ele>
        <time>2025-10-05T08:13:55Z</time>
      </trkpt>
      <trkpt lat="43.33828" lon="5.78996">
        <ele>796.9</ele>
        <time>2025-10-05T08:13:56Z</time>
      </trkpt>
      <trkpt lat="43.33828" lon="5.78996">
        <ele>796.9</ele>
        <time>2025-10-05T08:13:57Z</time>
      </trkpt>
      <trkpt lat="43.33828" lon="5.78996">
        <ele>796.9</ele>
        <time>2025-10-05T08:13:58Z</time>
      </trkpt>
      <trkpt lat="43.33828" lon="5.78996">
        <ele>796.9</ele>
        <time>2025-10-05T08:13:59Z</time>
      </trkpt>
      <trkpt lat="43.33828" lon="5.78996">
        <ele>796.8</ele>
        <time>2025-10-05T08:14:00Z</time>
      </trkpt>
      <trkpt lat="43.33828" lon="5.78997">
        <ele>796.7</ele>
        <time>2025-10-05T08:14:01Z</time>
      </trkpt>
      <trkpt lat="43.33827" lon="5.78997">
        <ele>796.6</ele>
        <time>2025-10-05T08:14:02Z</time>
      </trkpt>
      <trkpt lat="43.33827" lon="5.78997">
        <ele>796.6</ele>
        <time>2025-10-05T08:14:03Z</time>
      </trkpt>
      <trkpt lat="43.33827" lon="5.78997">
        <ele>796.5</ele>
        <time>2025-10-05T08:14:04Z</time>
      </trkpt>
      <trkpt lat="43.33827" lon="5.78997">
        <ele>796.5</ele>
        <time>2025-10-05T08:14:05Z</time>
      </trkpt>
      <trkpt lat="43.33827" lon="5.78997">
        <ele>796.4</ele>
        <time>2025-10-05T08:14:06Z</time>
      </trkpt>
      <trkpt lat="43.33827" lon="5.78997">
        <ele>796.4</ele>
        <time>2025-10-05T08:14:07Z</time>
      </trkpt>
      <trkpt lat="43.33826" lon="5.78997">
        <ele>796.2</ele>
        <time>2025-10-05T08:14:08Z</time>
      </trkpt>
      <trkpt lat="43.33826" lon="5.78997">
        <ele>796.1</ele>
        <time>2025-10-05T08:14:09Z</time>
      </trkpt>
      <trkpt lat="43.33826" lon="5.78997">
        <ele>796</ele>
        <time>2025-10-05T08:14:10Z</time>
      </trkpt>
      <trkpt lat="43.33825" lon="5.78997">
        <ele>796</ele>
        <time>2025-10-05T08:14:11Z</time>
      </trkpt>
      <trkpt lat="43.33825" lon="5.78997">
        <ele>796</ele>
        <time>2025-10-05T08:14:12Z</time>
      </trkpt>
      <trkpt lat="43.33826" lon="5.78997">
        <ele>795.9</ele>
        <time>2025-10-05T08:14:13Z</time>
      </trkpt>
      <trkpt lat="43.33825" lon="5.78996">
        <ele>795.9</ele>
        <time>2025-10-05T08:14:14Z</time>
      </trkpt>
      <trkpt lat="43.33825" lon="5.78997">
        <ele>795.8</ele>
        <time>2025-10-05T08:14:15Z</time>
      </trkpt>
      <trkpt lat="43.33825" lon="5.78997">
        <ele>795.8</ele>
        <time>2025-10-05T08:14:16Z</time>
      </trkpt>
      <trkpt lat="43.33825" lon="5.78996">
        <ele>795.8</ele>
        <time>2025-10-05T08:14:17Z</time>
      </trkpt>
      <trkpt lat="43.33825" lon="5.78997">
        <ele>795.8</ele>
        <time>2025-10-05T08:14:18Z</time>
      </trkpt>
      <trkpt lat="43.33825" lon="5.78996">
        <ele>795.8</ele>
        <time>2025-10-05T08:14:19Z</time>
      </trkpt>
      <trkpt lat="43.33825" lon="5.78996">
        <ele>795.8</ele>
        <time>2025-10-05T08:14:20Z</time>
      </trkpt>
      <trkpt lat="43.33825" lon="5.78997">
        <ele>795.8</ele>
        <time>2025-10-05T08:14:21Z</time>
      </trkpt>
      <trkpt lat="43.33826" lon="5.78996">
        <ele>795.8</ele>
        <time>2025-10-05T08:14:22Z</time>
      </trkpt>
      <trkpt lat="43.33826" lon="5.78996">
        <ele>795.8</ele>
        <time>2025-10-05T08:14:23Z</time>
      </trkpt>
      <trkpt lat="43.33826" lon="5.78996">
        <ele>795.9</ele>
        <time>2025-10-05T08:14:24Z</time>
      </trkpt>
      <trkpt lat="43.33825" lon="5.78996">
        <ele>796</ele>
        <time>2025-10-05T08:14:25Z</time>
      </trkpt>
      <trkpt lat="43.33825" lon="5.78996">
        <ele>796</ele>
        <time>2025-10-05T08:14:26Z</time>
      </trkpt>
      <trkpt lat="43.33825" lon="5.78997">
        <ele>796.1</ele>
        <time>2025-10-05T08:14:27Z</time>
      </trkpt>
      <trkpt lat="43.33826" lon="5.78997">
        <ele>796.2</ele>
        <time>2025-10-05T08:14:28Z</time>
      </trkpt>
      <trkpt lat="43.33826" lon="5.78997">
        <ele>796.2</ele>
        <time>2025-10-05T08:14:29Z</time>
      </trkpt>
      <trkpt lat="43.33826" lon="5.78997">
        <ele>796.1</ele>
        <time>2025-10-05T08:14:30Z</time>
      </trkpt>
      <trkpt lat="43.33825" lon="5.78997">
        <ele>796</ele>
        <time>2025-10-05T08:14:31Z</time>
      </trkpt>
      <trkpt lat="43.33825" lon="5.78997">
        <ele>795.8</ele>
        <time>2025-10-05T08:14:32Z</time>
      </trkpt>
      <trkpt lat="43.33825" lon="5.78998">
        <ele>795.9</ele>
        <time>2025-10-05T08:14:33Z</time>
      </trkpt>
      <trkpt lat="43.33825" lon="5.78998">
        <ele>796.1</ele>
        <time>2025-10-05T08:14:34Z</time>
      </trkpt>
      <trkpt lat="43.33825" lon="5.78998">
        <ele>796.2</ele>
        <time>2025-10-05T08:14:35Z</time>
      </trkpt>
      <trkpt lat="43.33825" lon="5.78998">
        <ele>796.4</ele>
        <time>2025-10-05T08:14:36Z</time>
      </trkpt>
      <trkpt lat="43.33825" lon="5.78998">
        <ele>796.6</ele>
        <time>2025-10-05T08:14:37Z</time>
      </trkpt>
      <trkpt lat="43.33825" lon="5.78998">
        <ele>796.7</ele>
        <time>2025-10-05T08:14:38Z</time>
      </trkpt>
      <trkpt lat="43.33825" lon="5.78998">
        <ele>796.9</ele>
        <time>2025-10-05T08:14:39Z</time>
      </trkpt>
      <trkpt lat="43.33825" lon="5.78998">
        <ele>796.9</ele>
        <time>2025-10-05T08:14:40Z</time>
      </trkpt>
      <trkpt lat="43.33825" lon="5.78998">
        <ele>796.9</ele>
        <time>2025-10-05T08:14:41Z</time>
      </trkpt>
      <trkpt lat="43.33825" lon="5.78998">
        <ele>796.9</ele>
        <time>2025-10-05T08:14:42Z</time>
      </trkpt>
      <trkpt lat="43.33825" lon="5.78998">
        <ele>796.9</ele>
        <time>2025-10-05T08:14:43Z</time>
      </trkpt>
      <trkpt lat="43.33825" lon="5.78998">
        <ele>796.9</ele>
        <time>2025-10-05T08:14:44Z</time>
      </trkpt>
      <trkpt lat="43.33825" lon="5.78998">
        <ele>796.9</ele>
        <time>2025-10-05T08:14:45Z</time>
      </trkpt>
      <trkpt lat="43.33825" lon="5.78999">
        <ele>797</ele>
        <time>2025-10-05T08:14:46Z</time>
      </trkpt>
      <trkpt lat="43.33825" lon="5.78998">
        <ele>797</ele>
        <time>2025-10-05T08:14:47Z</time>
      </trkpt>
      <trkpt lat="43.33825" lon="5.78998">
        <ele>797</ele>
        <time>2025-10-05T08:14:48Z</time>
      </trkpt>
      <trkpt lat="43.33826" lon="5.78998">
        <ele>796.9</ele>
        <time>2025-10-05T08:14:49Z</time>
      </trkpt>
      <trkpt lat="43.33826" lon="5.78997">
        <ele>796.8</ele>
        <time>2025-10-05T08:14:50Z</time>
      </trkpt>
      <trkpt lat="43.33827" lon="5.78997">
        <ele>796.8</ele>
        <time>2025-10-05T08:14:51Z</time>
      </trkpt>
      <trkpt lat="43.33827" lon="5.78997">
        <ele>796.7</ele>
        <time>2025-10-05T08:14:52Z</time>
      </trkpt>
      <trkpt lat="43.33827" lon="5.78997">
        <ele>796.7</ele>
        <time>2025-10-05T08:14:53Z</time>
      </trkpt>
      <trkpt lat="43.33827" lon="5.78997">
        <ele>796.6</ele>
        <time>2025-10-05T08:14:54Z</time>
      </trkpt>
      <trkpt lat="43.33827" lon="5.78997">
        <ele>796.4</ele>
        <time>2025-10-05T08:14:55Z</time>
      </trkpt>
      <trkpt lat="43.33827" lon="5.78996">
        <ele>796.3</ele>
        <time>2025-10-05T08:14:56Z</time>
      </trkpt>
      <trkpt lat="43.33827" lon="5.78996">
        <ele>796.3</ele>
        <time>2025-10-05T08:14:57Z</time>
      </trkpt>
      <trkpt lat="43.33827" lon="5.78996">
        <ele>796.2</ele>
        <time>2025-10-05T08:14:58Z</time>
      </trkpt>
      <trkpt lat="43.33827" lon="5.78996">
        <ele>796.1</ele>
        <time>2025-10-05T08:14:59Z</time>
      </trkpt>
      <trkpt lat="43.33827" lon="5.78996">
        <ele>796</ele>
        <time>2025-10-05T08:15:00Z</time>
      </trkpt>
      <trkpt lat="43.33827" lon="5.78996">
        <ele>796</ele>
        <time>2025-10-05T08:15:01Z</time>
      </trkpt>
      <trkpt lat="43.33827" lon="5.78996">
        <ele>796</ele>
        <time>2025-10-05T08:15:02Z</time>
      </trkpt>
      <trkpt lat="43.33827" lon="5.78996">
        <ele>795.9</ele>
        <time>2025-10-05T08:15:03Z</time>
      </trkpt>
      <trkpt lat="43.33827" lon="5.78996">
        <ele>795.9</ele>
        <time>2025-10-05T08:15:04Z</time>
      </trkpt>
      <trkpt lat="43.33827" lon="5.78996">
        <ele>795.9</ele>
        <time>2025-10-05T08:15:05Z</time>
      </trkpt>
      <trkpt lat="43.33827" lon="5.78996">
        <ele>796</ele>
        <time>2025-10-05T08:15:06Z</time>
      </trkpt>
      <trkpt lat="43.33827" lon="5.78996">
        <ele>796.1</ele>
        <time>2025-10-05T08:15:07Z</time>
      </trkpt>
      <trkpt lat="43.33827" lon="5.78996">
        <ele>796.1</ele>
        <time>2025-10-05T08:15:08Z</time>
      </trkpt>
      <trkpt lat="43.33826" lon="5.78996">
        <ele>796.2</ele>
        <time>2025-10-05T08:15:09Z</time>
      </trkpt>
      <trkpt lat="43.33826" lon="5.78996">
        <ele>796.2</ele>
        <time>2025-10-05T08:15:10Z</time>
      </trkpt>
      <trkpt lat="43.33826" lon="5.78996">
        <ele>796.3</ele>
        <time>2025-10-05T08:15:11Z</time>
      </trkpt>
      <trkpt lat="43.33826" lon="5.78996">
        <ele>796.4</ele>
        <time>2025-10-05T08:15:12Z</time>
      </trkpt>
      <trkpt lat="43.33827" lon="5.78996">
        <ele>796.5</ele>
        <time>2025-10-05T08:15:13Z</time>
      </trkpt>
      <trkpt lat="43.33827" lon="5.78996">
        <ele>796.5</ele>
        <time>2025-10-05T08:15:14Z</time>
      </trkpt>
      <trkpt lat="43.33827" lon="5.78996">
        <ele>796.6</ele>
        <time>2025-10-05T08:15:15Z</time>
      </trkpt>
      <trkpt lat="43.33827" lon="5.78996">
        <ele>796.7</ele>
        <time>2025-10-05T08:15:16Z</time>
      </trkpt>
      <trkpt lat="43.33827" lon="5.78996">
        <ele>796.7</ele>
        <time>2025-10-05T08:15:17Z</time>
      </trkpt>
      <trkpt lat="43.33828" lon="5.78995">
        <ele>796.7</ele>
        <time>2025-10-05T08:15:18Z</time>
      </trkpt>
      <trkpt lat="43.33828" lon="5.78995">
        <ele>796.7</ele>
        <time>2025-10-05T08:15:19Z</time>
      </trkpt>
      <trkpt lat="43.33828" lon="5.78995">
        <ele>796.6</ele>
        <time>2025-10-05T08:15:20Z</time>
      </trkpt>
      <trkpt lat="43.33828" lon="5.78995">
        <ele>796.6</ele>
        <time>2025-10-05T08:15:21Z</time>
      </trkpt>
      <trkpt lat="43.33828" lon="5.78994">
        <ele>796.6</ele>
        <time>2025-10-05T08:15:22Z</time>
      </trkpt>
      <trkpt lat="43.33828" lon="5.78994">
        <ele>796.5</ele>
        <time>2025-10-05T08:15:23Z</time>
      </trkpt>
      <trkpt lat="43.33828" lon="5.78994">
        <ele>796.5</ele>
        <time>2025-10-05T08:15:24Z</time>
      </trkpt>
      <trkpt lat="43.33829" lon="5.78994">
        <ele>796.5</ele>
        <time>2025-10-05T08:15:25Z</time>
      </trkpt>
      <trkpt lat="43.33829" lon="5.78994">
        <ele>796.4</ele>
        <time>2025-10-05T08:15:26Z</time>
      </trkpt>
      <trkpt lat="43.33829" lon="5.78994">
        <ele>796.3</ele>
        <time>2025-10-05T08:15:27Z</time>
      </trkpt>
      <trkpt lat="43.33829" lon="5.78994">
        <ele>796.2</ele>
        <time>2025-10-05T08:15:28Z</time>
      </trkpt>
      <trkpt lat="43.33829" lon="5.78995">
        <ele>796.2</ele>
        <time>2025-10-05T08:15:29Z</time>
      </trkpt>
      <trkpt lat="43.33829" lon="5.78995">
        <ele>796.2</ele>
        <time>2025-10-05T08:15:30Z</time>
      </trkpt>
      <trkpt lat="43.33829" lon="5.78995">
        <ele>796.1</ele>
        <time>2025-10-05T08:15:31Z</time>
      </trkpt>
      <trkpt lat="43.33829" lon="5.78995">
        <ele>796.3</ele>
        <time>2025-10-05T08:15:32Z</time>
      </trkpt>
      <trkpt lat="43.33829" lon="5.78995">
        <ele>796.4</ele>
        <time>2025-10-05T08:15:33Z</time>
      </trkpt>
      <trkpt lat="43.33829" lon="5.78995">
        <ele>796.3</ele>
        <time>2025-10-05T08:15:34Z</time>
      </trkpt>
      <trkpt lat="43.33829" lon="5.78995">
        <ele>796.3</ele>
        <time>2025-10-05T08:15:35Z</time>
      </trkpt>
      <trkpt lat="43.33829" lon="5.78996">
        <ele>796.3</ele>
        <time>2025-10-05T08:15:36Z</time>
      </trkpt>
      <trkpt lat="43.33829" lon="5.78996">
        <ele>796.3</ele>
        <time>2025-10-05T08:15:37Z</time>
      </trkpt>
      <trkpt lat="43.33829" lon="5.78996">
        <ele>796.3</ele>
        <time>2025-10-05T08:15:38Z</time>
      </trkpt>
      <trkpt lat="43.33829" lon="5.78996">
        <ele>796.3</ele>
        <time>2025-10-05T08:15:39Z</time>
      </trkpt>
      <trkpt lat="43.33829" lon="5.78995">
        <ele>796.3</ele>
        <time>2025-10-05T08:15:40Z</time>
      </trkpt>
      <trkpt lat="43.33829" lon="5.78995">
        <ele>796.3</ele>
        <time>2025-10-05T08:15:41Z</time>
      </trkpt>
      <trkpt lat="43.33829" lon="5.78995">
        <ele>796.3</ele>
        <time>2025-10-05T08:15:42Z</time>
      </trkpt>
      <trkpt lat="43.33829" lon="5.78995">
        <ele>796.2</ele>
        <time>2025-10-05T08:15:43Z</time>
      </trkpt>
      <trkpt lat="43.33829" lon="5.78995">
        <ele>796.2</ele>
        <time>2025-10-05T08:15:44Z</time>
      </trkpt>
      <trkpt lat="43.33829" lon="5.78995">
        <ele>796.2</ele>
        <time>2025-10-05T08:15:45Z</time>
      </trkpt>
      <trkpt lat="43.33829" lon="5.78995">
        <ele>796.3</ele>
        <time>2025-10-05T08:15:46Z</time>
      </trkpt>
      <trkpt lat="43.33829" lon="5.78995">
        <ele>796.3</ele>
        <time>2025-10-05T08:15:47Z</time>
      </trkpt>
      <trkpt lat="43.3383" lon="5.78995">
        <ele>796.3</ele>
        <time>2025-10-05T08:15:48Z</time>
      </trkpt>
      <trkpt lat="43.3383" lon="5.78995">
        <ele>796.4</ele>
        <time>2025-10-05T08:15:49Z</time>
      </trkpt>
      <trkpt lat="43.3383" lon="5.78995">
        <ele>796.4</ele>
        <time>2025-10-05T08:15:50Z</time>
      </trkpt>
      <trkpt lat="43.3383" lon="5.78995">
        <ele>796.5</ele>
        <time>2025-10-05T08:15:51Z</time>
      </trkpt>
      <trkpt lat="43.33831" lon="5.78995">
        <ele>796.6</ele>
        <time>2025-10-05T08:15:52Z</time>
      </trkpt>
      <trkpt lat="43.33831" lon="5.78995">
        <ele>796.6</ele>
        <time>2025-10-05T08:15:53Z</time>
      </trkpt>
      <trkpt lat="43.33831" lon="5.78995">
        <ele>796.7</ele>
        <time>2025-10-05T08:15:54Z</time>
      </trkpt>
      <trkpt lat="43.33831" lon="5.78995">
        <ele>796.6</ele>
        <time>2025-10-05T08:15:55Z</time>
      </trkpt>
      <trkpt lat="43.33831" lon="5.78995">
        <ele>796.7</ele>
        <time>2025-10-05T08:15:56Z</time>
      </trkpt>
      <trkpt lat="43.33831" lon="5.78996">
        <ele>796.7</ele>
        <time>2025-10-05T08:15:57Z</time>
      </trkpt>
      <trkpt lat="43.33831" lon="5.78996">
        <ele>796.6</ele>
        <time>2025-10-05T08:15:58Z</time>
      </trkpt>
      <trkpt lat="43.33831" lon="5.78996">
        <ele>796.6</ele>
        <time>2025-10-05T08:15:59Z</time>
      </trkpt>
      <trkpt lat="43.3383" lon="5.78996">
        <ele>796.6</ele>
        <time>2025-10-05T08:16:00Z</time>
      </trkpt>
      <trkpt lat="43.3383" lon="5.78996">
        <ele>796.6</ele>
        <time>2025-10-05T08:16:01Z</time>
      </trkpt>
      <trkpt lat="43.3383" lon="5.78996">
        <ele>796.7</ele>
        <time>2025-10-05T08:16:02Z</time>
      </trkpt>
      <trkpt lat="43.3383" lon="5.78996">
        <ele>796.7</ele>
        <time>2025-10-05T08:16:03Z</time>
      </trkpt>
      <trkpt lat="43.33829" lon="5.78996">
        <ele>796.7</ele>
        <time>2025-10-05T08:16:04Z</time>
      </trkpt>
      <trkpt lat="43.33829" lon="5.78996">
        <ele>796.7</ele>
        <time>2025-10-05T08:16:05Z</time>
      </trkpt>
      <trkpt lat="43.33829" lon="5.78996">
        <ele>796.9</ele>
        <time>2025-10-05T08:16:06Z</time>
      </trkpt>
      <trkpt lat="43.33829" lon="5.78996">
        <ele>796.9</ele>
        <time>2025-10-05T08:16:07Z</time>
      </trkpt>
      <trkpt lat="43.33829" lon="5.78996">
        <ele>796.9</ele>
        <time>2025-10-05T08:16:08Z</time>
      </trkpt>
      <trkpt lat="43.33829" lon="5.78996">
        <ele>796.8</ele>
        <time>2025-10-05T08:16:09Z</time>
      </trkpt>
      <trkpt lat="43.33829" lon="5.78996">
        <ele>796.8</ele>
        <time>2025-10-05T08:16:10Z</time>
      </trkpt>
      <trkpt lat="43.33829" lon="5.78995">
        <ele>796.8</ele>
        <time>2025-10-05T08:16:11Z</time>
      </trkpt>
      <trkpt lat="43.33829" lon="5.78995">
        <ele>796.7</ele>
        <time>2025-10-05T08:16:12Z</time>
      </trkpt>
      <trkpt lat="43.33829" lon="5.78995">
        <ele>796.7</ele>
        <time>2025-10-05T08:16:13Z</time>
      </trkpt>
      <trkpt lat="43.33829" lon="5.78995">
        <ele>796.7</ele>
        <time>2025-10-05T08:16:14Z</time>
      </trkpt>
      <trkpt lat="43.33829" lon="5.78995">
        <ele>796.7</ele>
        <time>2025-10-05T08:16:15Z</time>
      </trkpt>
      <trkpt lat="43.33829" lon="5.78996">
        <ele>796.7</ele>
        <time>2025-10-05T08:16:16Z</time>
      </trkpt>
      <trkpt lat="43.33829" lon="5.78996">
        <ele>796.7</ele>
        <time>2025-10-05T08:16:17Z</time>
      </trkpt>
      <trkpt lat="43.33829" lon="5.78996">
        <ele>796.6</ele>
        <time>2025-10-05T08:16:18Z</time>
      </trkpt>
      <trkpt lat="43.3383" lon="5.78996">
        <ele>796.6</ele>
        <time>2025-10-05T08:16:19Z</time>
      </trkpt>
      <trkpt lat="43.3383" lon="5.78996">
        <ele>796.6</ele>
        <time>2025-10-05T08:16:20Z</time>
      </trkpt>
      <trkpt lat="43.3383" lon="5.78996">
        <ele>796.5</ele>
        <time>2025-10-05T08:16:21Z</time>
      </trkpt>
      <trkpt lat="43.3383" lon="5.78996">
        <ele>796.5</ele>
        <time>2025-10-05T08:16:22Z</time>
      </trkpt>
      <trkpt lat="43.3383" lon="5.78996">
        <ele>796.5</ele>
        <time>2025-10-05T08:16:23Z</time>
      </trkpt>
      <trkpt lat="43.33829" lon="5.78995">
        <ele>796.5</ele>
        <time>2025-10-05T08:16:24Z</time>
      </trkpt>
      <trkpt lat="43.3383" lon="5.78996">
        <ele>796.4</ele>
        <time>2025-10-05T08:16:25Z</time>
      </trkpt>
      <trkpt lat="43.3383" lon="5.78996">
        <ele>796.4</ele>
        <time>2025-10-05T08:16:26Z</time>
      </trkpt>
      <trkpt lat="43.3383" lon="5.78996">
        <ele>796.3</ele>
        <time>2025-10-05T08:16:27Z</time>
      </trkpt>
      <trkpt lat="43.3383" lon="5.78997">
        <ele>796.2</ele>
        <time>2025-10-05T08:16:28Z</time>
      </trkpt>
      <trkpt lat="43.33829" lon="5.78997">
        <ele>796.1</ele>
        <time>2025-10-05T08:16:29Z</time>
      </trkpt>
      <trkpt lat="43.33828" lon="5.78997">
        <ele>796</ele>
        <time>2025-10-05T08:16:30Z</time>
      </trkpt>
      <trkpt lat="43.33828" lon="5.78997">
        <ele>795.9</ele>
        <time>2025-10-05T08:16:31Z</time>
      </trkpt>
      <trkpt lat="43.33828" lon="5.78997">
        <ele>795.9</ele>
        <time>2025-10-05T08:16:32Z</time>
      </trkpt>
      <trkpt lat="43.33828" lon="5.78997">
        <ele>795.9</ele>
        <time>2025-10-05T08:16:33Z</time>
      </trkpt>
      <trkpt lat="43.33827" lon="5.78998">
        <ele>795.9</ele>
        <time>2025-10-05T08:16:34Z</time>
      </trkpt>
      <trkpt lat="43.33827" lon="5.78998">
        <ele>795.9</ele>
        <time>2025-10-05T08:16:35Z</time>
      </trkpt>
      <trkpt lat="43.33828" lon="5.78998">
        <ele>796.1</ele>
        <time>2025-10-05T08:16:36Z</time>
      </trkpt>
      <trkpt lat="43.33827" lon="5.78998">
        <ele>796.1</ele>
        <time>2025-10-05T08:16:37Z</time>
      </trkpt>
      <trkpt lat="43.33827" lon="5.78998">
        <ele>796.3</ele>
        <time>2025-10-05T08:16:38Z</time>
      </trkpt>
      <trkpt lat="43.33827" lon="5.78998">
        <ele>796.4</ele>
        <time>2025-10-05T08:16:39Z</time>
      </trkpt>
      <trkpt lat="43.33827" lon="5.78998">
        <ele>796.5</ele>
        <time>2025-10-05T08:16:40Z</time>
      </trkpt>
      <trkpt lat="43.33827" lon="5.78998">
        <ele>796.5</ele>
        <time>2025-10-05T08:16:41Z</time>
      </trkpt>
      <trkpt lat="43.33827" lon="5.78998">
        <ele>796.6</ele>
        <time>2025-10-05T08:16:42Z</time>
      </trkpt>
      <trkpt lat="43.33827" lon="5.78999">
        <ele>796.6</ele>
        <time>2025-10-05T08:16:43Z</time>
      </trkpt>
      <trkpt lat="43.33827" lon="5.78998">
        <ele>796.7</ele>
        <time>2025-10-05T08:16:44Z</time>
      </trkpt>
      <trkpt lat="43.33827" lon="5.78999">
        <ele>796.8</ele>
        <time>2025-10-05T08:16:45Z</time>
      </trkpt>
      <trkpt lat="43.33826" lon="5.78999">
        <ele>796.9</ele>
        <time>2025-10-05T08:16:46Z</time>
      </trkpt>
      <trkpt lat="43.33826" lon="5.78999">
        <ele>796.9</ele>
        <time>2025-10-05T08:16:47Z</time>
      </trkpt>
      <trkpt lat="43.33825" lon="5.79">
        <ele>797</ele>
        <time>2025-10-05T08:16:48Z</time>
      </trkpt>
      <trkpt lat="43.33825" lon="5.79">
        <ele>797</ele>
        <time>2025-10-05T08:16:49Z</time>
      </trkpt>
      <trkpt lat="43.33825" lon="5.79">
        <ele>797.1</ele>
        <time>2025-10-05T08:16:50Z</time>
      </trkpt>
      <trkpt lat="43.33825" lon="5.79">
        <ele>797.2</ele>
        <time>2025-10-05T08:16:51Z</time>
      </trkpt>
      <trkpt lat="43.33825" lon="5.79">
        <ele>797.3</ele>
        <time>2025-10-05T08:16:52Z</time>
      </trkpt>
      <trkpt lat="43.33825" lon="5.79">
        <ele>797.5</ele>
        <time>2025-10-05T08:16:53Z</time>
      </trkpt>
      <trkpt lat="43.33825" lon="5.79">
        <ele>797.5</ele>
        <time>2025-10-05T08:16:54Z</time>
      </trkpt>
      <trkpt lat="43.33825" lon="5.79001">
        <ele>797.5</ele>
        <time>2025-10-05T08:16:55Z</time>
      </trkpt>
      <trkpt lat="43.33824" lon="5.79001">
        <ele>797.5</ele>
        <time>2025-10-05T08:16:56Z</time>
      </trkpt>
      <trkpt lat="43.33823" lon="5.79001">
        <ele>797.7</ele>
        <time>2025-10-05T08:16:57Z</time>
      </trkpt>
      <trkpt lat="43.33822" lon="5.79002">
        <ele>797.8</ele>
        <time>2025-10-05T08:16:58Z</time>
      </trkpt>
      <trkpt lat="43.33822" lon="5.79002">
        <ele>797.8</ele>
        <time>2025-10-05T08:16:59Z</time>
      </trkpt>
      <trkpt lat="43.33821" lon="5.79002">
        <ele>797.9</ele>
        <time>2025-10-05T08:17:00Z</time>
      </trkpt>
      <trkpt lat="43.3382" lon="5.79002">
        <ele>798.1</ele>
        <time>2025-10-05T08:17:01Z</time>
      </trkpt>
      <trkpt lat="43.3382" lon="5.79002">
        <ele>798.2</ele>
        <time>2025-10-05T08:17:02Z</time>
      </trkpt>
      <trkpt lat="43.3382" lon="5.79003">
        <ele>798.5</ele>
        <time>2025-10-05T08:17:03Z</time>
      </trkpt>
      <trkpt lat="43.3382" lon="5.79003">
        <ele>798.8</ele>
        <time>2025-10-05T08:17:04Z</time>
      </trkpt>
      <trkpt lat="43.33819" lon="5.79003">
        <ele>799</ele>
        <time>2025-10-05T08:17:05Z</time>
      </trkpt>
      <trkpt lat="43.33819" lon="5.79002">
        <ele>799.3</ele>
        <time>2025-10-05T08:17:06Z</time>
      </trkpt>
      <trkpt lat="43.33818" lon="5.79003">
        <ele>799.5</ele>
        <time>2025-10-05T08:17:07Z</time>
      </trkpt>
      <trkpt lat="43.33818" lon="5.79003">
        <ele>799.8</ele>
        <time>2025-10-05T08:17:08Z</time>
      </trkpt>
      <trkpt lat="43.33818" lon="5.79003">
        <ele>800</ele>
        <time>2025-10-05T08:17:09Z</time>
      </trkpt>
      <trkpt lat="43.33818" lon="5.79004">
        <ele>800.3</ele>
        <time>2025-10-05T08:17:10Z</time>
      </trkpt>
      <trkpt lat="43.33818" lon="5.79004">
        <ele>800.5</ele>
        <time>2025-10-05T08:17:11Z</time>
      </trkpt>
      <trkpt lat="43.33817" lon="5.79004">
        <ele>800.8</ele>
        <time>2025-10-05T08:17:12Z</time>
      </trkpt>
      <trkpt lat="43.33817" lon="5.79004">
        <ele>801.1</ele>
        <time>2025-10-05T08:17:13Z</time>
      </trkpt>
      <trkpt lat="43.33817" lon="5.79004">
        <ele>801.3</ele>
        <time>2025-10-05T08:17:14Z</time>
      </trkpt>
      <trkpt lat="43.33816" lon="5.79004">
        <ele>801.5</ele>
        <time>2025-10-05T08:17:15Z</time>
      </trkpt>
      <trkpt lat="43.33816" lon="5.79004">
        <ele>801.6</ele>
        <time>2025-10-05T08:17:16Z</time>
      </trkpt>
      <trkpt lat="43.33816" lon="5.79003">
        <ele>801.7</ele>
        <time>2025-10-05T08:17:17Z</time>
      </trkpt>
      <trkpt lat="43.33815" lon="5.79003">
        <ele>801.8</ele>
        <time>2025-10-05T08:17:18Z</time>
      </trkpt>
      <trkpt lat="43.33816" lon="5.79002">
        <ele>802</ele>
        <time>2025-10-05T08:17:19Z</time>
      </trkpt>
      <trkpt lat="43.33815" lon="5.79002">
        <ele>802.1</ele>
        <time>2025-10-05T08:17:20Z</time>
      </trkpt>
      <trkpt lat="43.33815" lon="5.79002">
        <ele>802.3</ele>
        <time>2025-10-05T08:17:21Z</time>
      </trkpt>
      <trkpt lat="43.33815" lon="5.79002">
        <ele>802.4</ele>
        <time>2025-10-05T08:17:22Z</time>
      </trkpt>
      <trkpt lat="43.33815" lon="5.79002">
        <ele>802.5</ele>
        <time>2025-10-05T08:17:23Z</time>
      </trkpt>
      <trkpt lat="43.33814" lon="5.79001">
        <ele>802.6</ele>
        <time>2025-10-05T08:17:24Z</time>
      </trkpt>
      <trkpt lat="43.33814" lon="5.79001">
        <ele>802.7</ele>
        <time>2025-10-05T08:17:25Z</time>
      </trkpt>
      <trkpt lat="43.33813" lon="5.79001">
        <ele>802.8</ele>
        <time>2025-10-05T08:17:26Z</time>
      </trkpt>
      <trkpt lat="43.33813" lon="5.79001">
        <ele>802.8</ele>
        <time>2025-10-05T08:17:27Z</time>
      </trkpt>
      <trkpt lat="43.33813" lon="5.79002">
        <ele>802.8</ele>
        <time>2025-10-05T08:17:28Z</time>
      </trkpt>
      <trkpt lat="43.33812" lon="5.79003">
        <ele>802.8</ele>
        <time>2025-10-05T08:17:29Z</time>
      </trkpt>
      <trkpt lat="43.33812" lon="5.79002">
        <ele>802.9</ele>
        <time>2025-10-05T08:17:30Z</time>
      </trkpt>
      <trkpt lat="43.33812" lon="5.79003">
        <ele>802.9</ele>
        <time>2025-10-05T08:17:31Z</time>
      </trkpt>
      <trkpt lat="43.33812" lon="5.79002">
        <ele>803</ele>
        <time>2025-10-05T08:17:32Z</time>
      </trkpt>
      <trkpt lat="43.33812" lon="5.79002">
        <ele>803.1</ele>
        <time>2025-10-05T08:17:33Z</time>
      </trkpt>
      <trkpt lat="43.33812" lon="5.79002">
        <ele>803.2</ele>
        <time>2025-10-05T08:17:34Z</time>
      </trkpt>
      <trkpt lat="43.33811" lon="5.79002">
        <ele>803.4</ele>
        <time>2025-10-05T08:17:35Z</time>
      </trkpt>
      <trkpt lat="43.33811" lon="5.79002">
        <ele>803.5</ele>
        <time>2025-10-05T08:17:36Z</time>
      </trkpt>
      <trkpt lat="43.33811" lon="5.79002">
        <ele>803.7</ele>
        <time>2025-10-05T08:17:37Z</time>
      </trkpt>
      <trkpt lat="43.3381" lon="5.79003">
        <ele>803.9</ele>
        <time>2025-10-05T08:17:38Z</time>
      </trkpt>
      <trkpt lat="43.3381" lon="5.79003">
        <ele>804.1</ele>
        <time>2025-10-05T08:17:39Z</time>
      </trkpt>
      <trkpt lat="43.3381" lon="5.79003">
        <ele>804.3</ele>
        <time>2025-10-05T08:17:40Z</time>
      </trkpt>
      <trkpt lat="43.3381" lon="5.79003">
        <ele>804.4</ele>
        <time>2025-10-05T08:17:41Z</time>
      </trkpt>
      <trkpt lat="43.33809" lon="5.79004">
        <ele>804.5</ele>
        <time>2025-10-05T08:17:42Z</time>
      </trkpt>
      <trkpt lat="43.33809" lon="5.79005">
        <ele>804.6</ele>
        <time>2025-10-05T08:17:43Z</time>
      </trkpt>
      <trkpt lat="43.33809" lon="5.79005">
        <ele>804.7</ele>
        <time>2025-10-05T08:17:44Z</time>
      </trkpt>
      <trkpt lat="43.33808" lon="5.79006">
        <ele>804.7</ele>
        <time>2025-10-05T08:17:45Z</time>
      </trkpt>
      <trkpt lat="43.33808" lon="5.79006">
        <ele>804.6</ele>
        <time>2025-10-05T08:17:46Z</time>
      </trkpt>
      <trkpt lat="43.33808" lon="5.79006">
        <ele>804.5</ele>
        <time>2025-10-05T08:17:47Z</time>
      </trkpt>
      <trkpt lat="43.33808" lon="5.79006">
        <ele>804.5</ele>
        <time>2025-10-05T08:17:48Z</time>
      </trkpt>
      <trkpt lat="43.33808" lon="5.79007">
        <ele>804.6</ele>
        <time>2025-10-05T08:17:49Z</time>
      </trkpt>
      <trkpt lat="43.33807" lon="5.79006">
        <ele>804.6</ele>
        <time>2025-10-05T08:17:50Z</time>
      </trkpt>
      <trkpt lat="43.33807" lon="5.79006">
        <ele>804.7</ele>
        <time>2025-10-05T08:17:51Z</time>
      </trkpt>
      <trkpt lat="43.33807" lon="5.79006">
        <ele>804.7</ele>
        <time>2025-10-05T08:17:52Z</time>
      </trkpt>
      <trkpt lat="43.33807" lon="5.79006">
        <ele>804.7</ele>
        <time>2025-10-05T08:17:53Z</time>
      </trkpt>
      <trkpt lat="43.33806" lon="5.79006">
        <ele>804.7</ele>
        <time>2025-10-05T08:17:54Z</time>
      </trkpt>
      <trkpt lat="43.33806" lon="5.79006">
        <ele>804.8</ele>
        <time>2025-10-05T08:17:55Z</time>
      </trkpt>
      <trkpt lat="43.33805" lon="5.79006">
        <ele>805</ele>
        <time>2025-10-05T08:17:56Z</time>
      </trkpt>
      <trkpt lat="43.33805" lon="5.79006">
        <ele>805.1</ele>
        <time>2025-10-05T08:17:57Z</time>
      </trkpt>
      <trkpt lat="43.33804" lon="5.79007">
        <ele>805.2</ele>
        <time>2025-10-05T08:17:58Z</time>
      </trkpt>
      <trkpt lat="43.33804" lon="5.79007">
        <ele>805.4</ele>
        <time>2025-10-05T08:17:59Z</time>
      </trkpt>
      <trkpt lat="43.33803" lon="5.79007">
        <ele>805.6</ele>
        <time>2025-10-05T08:18:00Z</time>
      </trkpt>
      <trkpt lat="43.33803" lon="5.79007">
        <ele>805.9</ele>
        <time>2025-10-05T08:18:01Z</time>
      </trkpt>
      <trkpt lat="43.33802" lon="5.79007">
        <ele>806</ele>
        <time>2025-10-05T08:18:02Z</time>
      </trkpt>
      <trkpt lat="43.33802" lon="5.79007">
        <ele>806.1</ele>
        <time>2025-10-05T08:18:03Z</time>
      </trkpt>
      <trkpt lat="43.33801" lon="5.79007">
        <ele>806.2</ele>
        <time>2025-10-05T08:18:04Z</time>
      </trkpt>
      <trkpt lat="43.33801" lon="5.79006">
        <ele>806.3</ele>
        <time>2025-10-05T08:18:05Z</time>
      </trkpt>
      <trkpt lat="43.338" lon="5.79006">
        <ele>806.4</ele>
        <time>2025-10-05T08:18:06Z</time>
      </trkpt>
      <trkpt lat="43.338" lon="5.79007">
        <ele>806.5</ele>
        <time>2025-10-05T08:18:07Z</time>
      </trkpt>
      <trkpt lat="43.338" lon="5.79007">
        <ele>806.6</ele>
        <time>2025-10-05T08:18:08Z</time>
      </trkpt>
      <trkpt lat="43.338" lon="5.79008">
        <ele>806.7</ele>
        <time>2025-10-05T08:18:09Z</time>
      </trkpt>
      <trkpt lat="43.338" lon="5.79008">
        <ele>806.9</ele>
        <time>2025-10-05T08:18:10Z</time>
      </trkpt>
      <trkpt lat="43.33799" lon="5.79008">
        <ele>807</ele>
        <time>2025-10-05T08:18:11Z</time>
      </trkpt>
      <trkpt lat="43.33799" lon="5.79009">
        <ele>807.1</ele>
        <time>2025-10-05T08:18:12Z</time>
      </trkpt>
      <trkpt lat="43.33799" lon="5.79009">
        <ele>807.1</ele>
        <time>2025-10-05T08:18:13Z</time>
      </trkpt>
      <trkpt lat="43.33799" lon="5.7901">
        <ele>807.2</ele>
        <time>2025-10-05T08:18:14Z</time>
      </trkpt>
      <trkpt lat="43.33798" lon="5.79011">
        <ele>807.2</ele>
        <time>2025-10-05T08:18:15Z</time>
      </trkpt>
      <trkpt lat="43.33798" lon="5.79011">
        <ele>807.3</ele>
        <time>2025-10-05T08:18:16Z</time>
      </trkpt>
      <trkpt lat="43.33797" lon="5.79011">
        <ele>807.4</ele>
        <time>2025-10-05T08:18:17Z</time>
      </trkpt>
      <trkpt lat="43.33797" lon="5.79012">
        <ele>807.6</ele>
        <time>2025-10-05T08:18:18Z</time>
      </trkpt>
      <trkpt lat="43.33798" lon="5.79013">
        <ele>807.9</ele>
        <time>2025-10-05T08:18:19Z</time>
      </trkpt>
      <trkpt lat="43.33798" lon="5.79013">
        <ele>808.2</ele>
        <time>2025-10-05T08:18:20Z</time>
      </trkpt>
      <trkpt lat="43.33799" lon="5.79013">
        <ele>808.4</ele>
        <time>2025-10-05T08:18:21Z</time>
      </trkpt>
      <trkpt lat="43.33799" lon="5.79013">
        <ele>808.6</ele>
        <time>2025-10-05T08:18:22Z</time>
      </trkpt>
      <trkpt lat="43.33799" lon="5.79013">
        <ele>808.8</ele>
        <time>2025-10-05T08:18:23Z</time>
      </trkpt>
      <trkpt lat="43.33799" lon="5.79013">
        <ele>808.9</ele>
        <time>2025-10-05T08:18:24Z</time>
      </trkpt>
      <trkpt lat="43.33798" lon="5.79013">
        <ele>809</ele>
        <time>2025-10-05T08:18:25Z</time>
      </trkpt>
      <trkpt lat="43.33797" lon="5.79013">
        <ele>809.2</ele>
        <time>2025-10-05T08:18:26Z</time>
      </trkpt>
      <trkpt lat="43.33797" lon="5.79013">
        <ele>809.4</ele>
        <time>2025-10-05T08:18:27Z</time>
      </trkpt>
      <trkpt lat="43.33796" lon="5.79014">
        <ele>809.6</ele>
        <time>2025-10-05T08:18:28Z</time>
      </trkpt>
      <trkpt lat="43.33796" lon="5.79014">
        <ele>809.8</ele>
        <time>2025-10-05T08:18:29Z</time>
      </trkpt>
      <trkpt lat="43.33796" lon="5.79014">
        <ele>810</ele>
        <time>2025-10-05T08:18:30Z</time>
      </trkpt>
      <trkpt lat="43.33796" lon="5.79015">
        <ele>810.2</ele>
        <time>2025-10-05T08:18:31Z</time>
      </trkpt>
      <trkpt lat="43.33796" lon="5.79015">
        <ele>810.3</ele>
        <time>2025-10-05T08:18:32Z</time>
      </trkpt>
      <trkpt lat="43.33796" lon="5.79016">
        <ele>810.5</ele>
        <time>2025-10-05T08:18:33Z</time>
      </trkpt>
      <trkpt lat="43.33797" lon="5.79016">
        <ele>810.7</ele>
        <time>2025-10-05T08:18:34Z</time>
      </trkpt>
      <trkpt lat="43.33797" lon="5.79015">
        <ele>810.9</ele>
        <time>2025-10-05T08:18:35Z</time>
      </trkpt>
      <trkpt lat="43.33797" lon="5.79015">
        <ele>811</ele>
        <time>2025-10-05T08:18:36Z</time>
      </trkpt>
      <trkpt lat="43.33796" lon="5.79015">
        <ele>811.1</ele>
        <time>2025-10-05T08:18:37Z</time>
      </trkpt>
      <trkpt lat="43.33796" lon="5.79015">
        <ele>811.2</ele>
        <time>2025-10-05T08:18:38Z</time>
      </trkpt>
      <trkpt lat="43.33796" lon="5.79015">
        <ele>811.3</ele>
        <time>2025-10-05T08:18:39Z</time>
      </trkpt>
      <trkpt lat="43.33797" lon="5.79016">
        <ele>811.3</ele>
        <time>2025-10-05T08:18:40Z</time>
      </trkpt>
      <trkpt lat="43.33797" lon="5.79016">
        <ele>811.4</ele>
        <time>2025-10-05T08:18:41Z</time>
      </trkpt>
      <trkpt lat="43.33797" lon="5.79016">
        <ele>811.4</ele>
        <time>2025-10-05T08:18:42Z</time>
      </trkpt>
      <trkpt lat="43.33796" lon="5.79016">
        <ele>811.5</ele>
        <time>2025-10-05T08:18:43Z</time>
      </trkpt>
      <trkpt lat="43.33796" lon="5.79016">
        <ele>811.6</ele>
        <time>2025-10-05T08:18:44Z</time>
      </trkpt>
      <trkpt lat="43.33796" lon="5.79016">
        <ele>811.6</ele>
        <time>2025-10-05T08:18:45Z</time>
      </trkpt>
      <trkpt lat="43.33795" lon="5.79016">
        <ele>811.8</ele>
        <time>2025-10-05T08:18:46Z</time>
      </trkpt>
      <trkpt lat="43.33795" lon="5.79016">
        <ele>812</ele>
        <time>2025-10-05T08:18:47Z</time>
      </trkpt>
      <trkpt lat="43.33795" lon="5.79016">
        <ele>812.2</ele>
        <time>2025-10-05T08:18:48Z</time>
      </trkpt>
      <trkpt lat="43.33794" lon="5.79016">
        <ele>812.4</ele>
        <time>2025-10-05T08:18:49Z</time>
      </trkpt>
      <trkpt lat="43.33794" lon="5.79017">
        <ele>812.6</ele>
        <time>2025-10-05T08:18:50Z</time>
      </trkpt>
      <trkpt lat="43.33794" lon="5.79017">
        <ele>812.9</ele>
        <time>2025-10-05T08:18:51Z</time>
      </trkpt>
      <trkpt lat="43.33794" lon="5.79017">
        <ele>813.2</ele>
        <time>2025-10-05T08:18:52Z</time>
      </trkpt>
      <trkpt lat="43.33794" lon="5.79017">
        <ele>813.4</ele>
        <time>2025-10-05T08:18:53Z</time>
      </trkpt>
      <trkpt lat="43.33794" lon="5.79017">
        <ele>813.8</ele>
        <time>2025-10-05T08:18:54Z</time>
      </trkpt>
      <trkpt lat="43.33794" lon="5.79017">
        <ele>814</ele>
        <time>2025-10-05T08:18:55Z</time>
      </trkpt>
      <trkpt lat="43.33794" lon="5.79017">
        <ele>814.1</ele>
        <time>2025-10-05T08:18:56Z</time>
      </trkpt>
      <trkpt lat="43.33793" lon="5.79017">
        <ele>814.4</ele>
        <time>2025-10-05T08:18:57Z</time>
      </trkpt>
      <trkpt lat="43.33793" lon="5.79018">
        <ele>814.6</ele>
        <time>2025-10-05T08:18:58Z</time>
      </trkpt>
      <trkpt lat="43.33793" lon="5.79018">
        <ele>814.8</ele>
        <time>2025-10-05T08:18:59Z</time>
      </trkpt>
      <trkpt lat="43.33793" lon="5.79019">
        <ele>814.9</ele>
        <time>2025-10-05T08:19:00Z</time>
      </trkpt>
      <trkpt lat="43.33793" lon="5.79019">
        <ele>815.1</ele>
        <time>2025-10-05T08:19:01Z</time>
      </trkpt>
      <trkpt lat="43.33793" lon="5.79019">
        <ele>815.2</ele>
        <time>2025-10-05T08:19:02Z</time>
      </trkpt>
      <trkpt lat="43.33793" lon="5.7902">
        <ele>815.4</ele>
        <time>2025-10-05T08:19:03Z</time>
      </trkpt>
      <trkpt lat="43.33793" lon="5.7902">
        <ele>815.6</ele>
        <time>2025-10-05T08:19:04Z</time>
      </trkpt>
      <trkpt lat="43.33792" lon="5.79021">
        <ele>815.8</ele>
        <time>2025-10-05T08:19:05Z</time>
      </trkpt>
      <trkpt lat="43.33792" lon="5.79022">
        <ele>816.1</ele>
        <time>2025-10-05T08:19:06Z</time>
      </trkpt>
      <trkpt lat="43.33792" lon="5.79022">
        <ele>816.3</ele>
        <time>2025-10-05T08:19:07Z</time>
      </trkpt>
      <trkpt lat="43.33792" lon="5.79022">
        <ele>816.5</ele>
        <time>2025-10-05T08:19:08Z</time>
      </trkpt>
      <trkpt lat="43.33792" lon="5.79022">
        <ele>816.7</ele>
        <time>2025-10-05T08:19:09Z</time>
      </trkpt>
      <trkpt lat="43.33791" lon="5.79023">
        <ele>816.7</ele>
        <time>2025-10-05T08:19:10Z</time>
      </trkpt>
      <trkpt lat="43.33791" lon="5.79022">
        <ele>816.8</ele>
        <time>2025-10-05T08:19:11Z</time>
      </trkpt>
      <trkpt lat="43.3379" lon="5.79022">
        <ele>816.9</ele>
        <time>2025-10-05T08:19:12Z</time>
      </trkpt>
      <trkpt lat="43.3379" lon="5.79023">
        <ele>817.1</ele>
        <time>2025-10-05T08:19:13Z</time>
      </trkpt>
      <trkpt lat="43.3379" lon="5.79023">
        <ele>817.3</ele>
        <time>2025-10-05T08:19:14Z</time>
      </trkpt>
      <trkpt lat="43.3379" lon="5.79024">
        <ele>817.4</ele>
        <time>2025-10-05T08:19:15Z</time>
      </trkpt>
      <trkpt lat="43.33789" lon="5.79024">
        <ele>817.6</ele>
        <time>2025-10-05T08:19:16Z</time>
      </trkpt>
      <trkpt lat="43.33789" lon="5.79024">
        <ele>817.7</ele>
        <time>2025-10-05T08:19:17Z</time>
      </trkpt>
      <trkpt lat="43.33789" lon="5.79024">
        <ele>817.9</ele>
        <time>2025-10-05T08:19:18Z</time>
      </trkpt>
      <trkpt lat="43.33789" lon="5.79024">
        <ele>818</ele>
        <time>2025-10-05T08:19:19Z</time>
      </trkpt>
      <trkpt lat="43.33789" lon="5.79024">
        <ele>818.1</ele>
        <time>2025-10-05T08:19:20Z</time>
      </trkpt>
      <trkpt lat="43.33788" lon="5.79025">
        <ele>818.2</ele>
        <time>2025-10-05T08:19:21Z</time>
      </trkpt>
      <trkpt lat="43.33788" lon="5.79025">
        <ele>818.2</ele>
        <time>2025-10-05T08:19:22Z</time>
      </trkpt>
      <trkpt lat="43.33788" lon="5.79025">
        <ele>818.3</ele>
        <time>2025-10-05T08:19:23Z</time>
      </trkpt>
      <trkpt lat="43.33788" lon="5.79025">
        <ele>818.3</ele>
        <time>2025-10-05T08:19:24Z</time>
      </trkpt>
      <trkpt lat="43.33788" lon="5.79025">
        <ele>818.3</ele>
        <time>2025-10-05T08:19:25Z</time>
      </trkpt>
      <trkpt lat="43.33787" lon="5.79025">
        <ele>818.4</ele>
        <time>2025-10-05T08:19:26Z</time>
      </trkpt>
      <trkpt lat="43.33787" lon="5.79026">
        <ele>818.5</ele>
        <time>2025-10-05T08:19:27Z</time>
      </trkpt>
      <trkpt lat="43.33787" lon="5.79027">
        <ele>818.6</ele>
        <time>2025-10-05T08:19:28Z</time>
      </trkpt>
      <trkpt lat="43.33787" lon="5.79027">
        <ele>818.7</ele>
        <time>2025-10-05T08:19:29Z</time>
      </trkpt>
      <trkpt lat="43.33787" lon="5.79027">
        <ele>818.8</ele>
        <time>2025-10-05T08:19:30Z</time>
      </trkpt>
      <trkpt lat="43.33787" lon="5.79027">
        <ele>818.9</ele>
        <time>2025-10-05T08:19:31Z</time>
      </trkpt>
      <trkpt lat="43.33787" lon="5.79027">
        <ele>819.1</ele>
        <time>2025-10-05T08:19:32Z</time>
      </trkpt>
      <trkpt lat="43.33787" lon="5.79027">
        <ele>819.2</ele>
        <time>2025-10-05T08:19:33Z</time>
      </trkpt>
      <trkpt lat="43.33787" lon="5.79028">
        <ele>819.4</ele>
        <time>2025-10-05T08:19:34Z</time>
      </trkpt>
      <trkpt lat="43.33787" lon="5.79027">
        <ele>819.6</ele>
        <time>2025-10-05T08:19:35Z</time>
      </trkpt>
      <trkpt lat="43.33787" lon="5.79027">
        <ele>819.8</ele>
        <time>2025-10-05T08:19:36Z</time>
      </trkpt>
      <trkpt lat="43.33787" lon="5.79028">
        <ele>819.9</ele>
        <time>2025-10-05T08:19:37Z</time>
      </trkpt>
      <trkpt lat="43.33788" lon="5.79028">
        <ele>820</ele>
        <time>2025-10-05T08:19:38Z</time>
      </trkpt>
      <trkpt lat="43.33787" lon="5.79028">
        <ele>820.3</ele>
        <time>2025-10-05T08:19:39Z</time>
      </trkpt>
      <trkpt lat="43.33787" lon="5.79027">
        <ele>820.6</ele>
        <time>2025-10-05T08:19:40Z</time>
      </trkpt>
      <trkpt lat="43.33787" lon="5.79027">
        <ele>820.9</ele>
        <time>2025-10-05T08:19:41Z</time>
      </trkpt>
      <trkpt lat="43.33787" lon="5.79027">
        <ele>821.1</ele>
        <time>2025-10-05T08:19:42Z</time>
      </trkpt>
      <trkpt lat="43.33785" lon="5.79026">
        <ele>821.4</ele>
        <time>2025-10-05T08:19:43Z</time>
      </trkpt>
      <trkpt lat="43.33785" lon="5.79026">
        <ele>821.6</ele>
        <time>2025-10-05T08:19:44Z</time>
      </trkpt>
      <trkpt lat="43.33785" lon="5.79027">
        <ele>822.1</ele>
        <time>2025-10-05T08:19:45Z</time>
      </trkpt>
      <trkpt lat="43.33785" lon="5.79027">
        <ele>822.4</ele>
        <time>2025-10-05T08:19:46Z</time>
      </trkpt>
      <trkpt lat="43.33785" lon="5.79027">
        <ele>822.7</ele>
        <time>2025-10-05T08:19:47Z</time>
      </trkpt>
      <trkpt lat="43.33786" lon="5.79027">
        <ele>822.9</ele>
        <time>2025-10-05T08:19:48Z</time>
      </trkpt>
      <trkpt lat="43.33786" lon="5.79026">
        <ele>823.1</ele>
        <time>2025-10-05T08:19:49Z</time>
      </trkpt>
      <trkpt lat="43.33785" lon="5.79026">
        <ele>823.3</ele>
        <time>2025-10-05T08:19:50Z</time>
      </trkpt>
      <trkpt lat="43.33784" lon="5.79026">
        <ele>823.4</ele>
        <time>2025-10-05T08:19:51Z</time>
      </trkpt>
      <trkpt lat="43.33784" lon="5.79026">
        <ele>823.5</ele>
        <time>2025-10-05T08:19:52Z</time>
      </trkpt>
      <trkpt lat="43.33783" lon="5.79027">
        <ele>823.8</ele>
        <time>2025-10-05T08:19:53Z</time>
      </trkpt>
      <trkpt lat="43.33783" lon="5.79027">
        <ele>823.9</ele>
        <time>2025-10-05T08:19:54Z</time>
      </trkpt>
      <trkpt lat="43.33783" lon="5.79027">
        <ele>824.1</ele>
        <time>2025-10-05T08:19:55Z</time>
      </trkpt>
      <trkpt lat="43.33783" lon="5.79027">
        <ele>824.2</ele>
        <time>2025-10-05T08:19:56Z</time>
      </trkpt>
      <trkpt lat="43.33782" lon="5.79027">
        <ele>824.2</ele>
        <time>2025-10-05T08:19:57Z</time>
      </trkpt>
      <trkpt lat="43.33782" lon="5.79027">
        <ele>824.3</ele>
        <time>2025-10-05T08:19:58Z</time>
      </trkpt>
      <trkpt lat="43.33783" lon="5.79028">
        <ele>824.2</ele>
        <time>2025-10-05T08:19:59Z</time>
      </trkpt>
      <trkpt lat="43.33783" lon="5.79028">
        <ele>824.1</ele>
        <time>2025-10-05T08:20:00Z</time>
      </trkpt>
      <trkpt lat="43.33783" lon="5.79027">
        <ele>824.1</ele>
        <time>2025-10-05T08:20:01Z</time>
      </trkpt>
      <trkpt lat="43.33783" lon="5.79027">
        <ele>824</ele>
        <time>2025-10-05T08:20:02Z</time>
      </trkpt>
      <trkpt lat="43.33783" lon="5.79027">
        <ele>824</ele>
        <time>2025-10-05T08:20:03Z</time>
      </trkpt>
      <trkpt lat="43.33783" lon="5.79027">
        <ele>824.2</ele>
        <time>2025-10-05T08:20:04Z</time>
      </trkpt>
      <trkpt lat="43.33782" lon="5.79027">
        <ele>824.3</ele>
        <time>2025-10-05T08:20:05Z</time>
      </trkpt>
      <trkpt lat="43.33782" lon="5.79027">
        <ele>824.5</ele>
        <time>2025-10-05T08:20:06Z</time>
      </trkpt>
      <trkpt lat="43.33782" lon="5.79027">
        <ele>824.6</ele>
        <time>2025-10-05T08:20:07Z</time>
      </trkpt>
      <trkpt lat="43.33782" lon="5.79028">
        <ele>824.7</ele>
        <time>2025-10-05T08:20:08Z</time>
      </trkpt>
      <trkpt lat="43.33782" lon="5.79027">
        <ele>824.8</ele>
        <time>2025-10-05T08:20:09Z</time>
      </trkpt>
      <trkpt lat="43.33782" lon="5.79027">
        <ele>824.7</ele>
        <time>2025-10-05T08:20:10Z</time>
      </trkpt>
      <trkpt lat="43.33782" lon="5.79027">
        <ele>824.8</ele>
        <time>2025-10-05T08:20:11Z</time>
      </trkpt>
      <trkpt lat="43.33782" lon="5.79027">
        <ele>825</ele>
        <time>2025-10-05T08:20:12Z</time>
      </trkpt>
      <trkpt lat="43.33782" lon="5.79027">
        <ele>825.2</ele>
        <time>2025-10-05T08:20:13Z</time>
      </trkpt>
      <trkpt lat="43.33782" lon="5.79027">
        <ele>825.3</ele>
        <time>2025-10-05T08:20:14Z</time>
      </trkpt>
      <trkpt lat="43.33782" lon="5.79027">
        <ele>825.5</ele>
        <time>2025-10-05T08:20:15Z</time>
      </trkpt>
      <trkpt lat="43.33782" lon="5.79027">
        <ele>825.7</ele>
        <time>2025-10-05T08:20:16Z</time>
      </trkpt>
      <trkpt lat="43.33782" lon="5.79027">
        <ele>825.8</ele>
        <time>2025-10-05T08:20:17Z</time>
      </trkpt>
      <trkpt lat="43.33782" lon="5.79027">
        <ele>825.9</ele>
        <time>2025-10-05T08:20:18Z</time>
      </trkpt>
      <trkpt lat="43.33782" lon="5.79027">
        <ele>826</ele>
        <time>2025-10-05T08:20:19Z</time>
      </trkpt>
      <trkpt lat="43.33781" lon="5.79028">
        <ele>826.2</ele>
        <time>2025-10-05T08:20:20Z</time>
      </trkpt>
      <trkpt lat="43.33781" lon="5.79028">
        <ele>826.4</ele>
        <time>2025-10-05T08:20:21Z</time>
      </trkpt>
      <trkpt lat="43.33781" lon="5.79028">
        <ele>826.4</ele>
        <time>2025-10-05T08:20:22Z</time>
      </trkpt>
      <trkpt lat="43.33781" lon="5.79028">
        <ele>826.4</ele>
        <time>2025-10-05T08:20:23Z</time>
      </trkpt>
      <trkpt lat="43.33781" lon="5.79028">
        <ele>826.4</ele>
        <time>2025-10-05T08:20:24Z</time>
      </trkpt>
      <trkpt lat="43.3378" lon="5.79028">
        <ele>826.3</ele>
        <time>2025-10-05T08:20:25Z</time>
      </trkpt>
      <trkpt lat="43.3378" lon="5.79028">
        <ele>826.3</ele>
        <time>2025-10-05T08:20:26Z</time>
      </trkpt>
      <trkpt lat="43.33779" lon="5.79028">
        <ele>826.2</ele>
        <time>2025-10-05T08:20:27Z</time>
      </trkpt>
      <trkpt lat="43.33779" lon="5.79029">
        <ele>826.3</ele>
        <time>2025-10-05T08:20:28Z</time>
      </trkpt>
      <trkpt lat="43.33779" lon="5.79028">
        <ele>826.4</ele>
        <time>2025-10-05T08:20:29Z</time>
      </trkpt>
      <trkpt lat="43.33779" lon="5.79028">
        <ele>826.6</ele>
        <time>2025-10-05T08:20:30Z</time>
      </trkpt>
      <trkpt lat="43.33779" lon="5.79028">
        <ele>826.7</ele>
        <time>2025-10-05T08:20:31Z</time>
      </trkpt>
      <trkpt lat="43.33779" lon="5.79029">
        <ele>826.8</ele>
        <time>2025-10-05T08:20:32Z</time>
      </trkpt>
      <trkpt lat="43.33779" lon="5.79029">
        <ele>826.7</ele>
        <time>2025-10-05T08:20:33Z</time>
      </trkpt>
      <trkpt lat="43.33779" lon="5.79029">
        <ele>826.7</ele>
        <time>2025-10-05T08:20:34Z</time>
      </trkpt>
      <trkpt lat="43.33779" lon="5.79029">
        <ele>826.6</ele>
        <time>2025-10-05T08:20:35Z</time>
      </trkpt>
      <trkpt lat="43.33779" lon="5.79029">
        <ele>826.5</ele>
        <time>2025-10-05T08:20:36Z</time>
      </trkpt>
      <trkpt lat="43.33779" lon="5.79029">
        <ele>826.4</ele>
        <time>2025-10-05T08:20:37Z</time>
      </trkpt>
      <trkpt lat="43.33779" lon="5.79029">
        <ele>826.5</ele>
        <time>2025-10-05T08:20:38Z</time>
      </trkpt>
      <trkpt lat="43.33778" lon="5.79029">
        <ele>826.5</ele>
        <time>2025-10-05T08:20:39Z</time>
      </trkpt>
      <trkpt lat="43.33778" lon="5.79029">
        <ele>826.5</ele>
        <time>2025-10-05T08:20:40Z</time>
      </trkpt>
      <trkpt lat="43.33778" lon="5.79029">
        <ele>826.4</ele>
        <time>2025-10-05T08:20:41Z</time>
      </trkpt>
      <trkpt lat="43.33779" lon="5.79029">
        <ele>826.5</ele>
        <time>2025-10-05T08:20:42Z</time>
      </trkpt>
      <trkpt lat="43.33779" lon="5.79029">
        <ele>826.5</ele>
        <time>2025-10-05T08:20:43Z</time>
      </trkpt>
      <trkpt lat="43.33778" lon="5.79029">
        <ele>826.6</ele>
        <time>2025-10-05T08:20:44Z</time>
      </trkpt>
      <trkpt lat="43.33778" lon="5.79029">
        <ele>826.6</ele>
        <time>2025-10-05T08:20:45Z</time>
      </trkpt>
      <trkpt lat="43.33779" lon="5.7903">
        <ele>826.8</ele>
        <time>2025-10-05T08:20:46Z</time>
      </trkpt>
      <trkpt lat="43.33778" lon="5.7903">
        <ele>826.9</ele>
        <time>2025-10-05T08:20:47Z</time>
      </trkpt>
      <trkpt lat="43.33779" lon="5.7903">
        <ele>827</ele>
        <time>2025-10-05T08:20:48Z</time>
      </trkpt>
      <trkpt lat="43.33778" lon="5.7903">
        <ele>826.9</ele>
        <time>2025-10-05T08:20:49Z</time>
      </trkpt>
      <trkpt lat="43.33778" lon="5.7903">
        <ele>826.9</ele>
        <time>2025-10-05T08:20:50Z</time>
      </trkpt>
      <trkpt lat="43.33778" lon="5.7903">
        <ele>826.9</ele>
        <time>2025-10-05T08:20:51Z</time>
      </trkpt>
      <trkpt lat="43.33778" lon="5.7903">
        <ele>826.8</ele>
        <time>2025-10-05T08:20:52Z</time>
      </trkpt>
      <trkpt lat="43.33778" lon="5.7903">
        <ele>826.8</ele>
        <time>2025-10-05T08:20:53Z</time>
      </trkpt>
      <trkpt lat="43.33778" lon="5.7903">
        <ele>826.7</ele>
        <time>2025-10-05T08:20:54Z</time>
      </trkpt>
      <trkpt lat="43.33778" lon="5.7903">
        <ele>826.6</ele>
        <time>2025-10-05T08:20:55Z</time>
      </trkpt>
      <trkpt lat="43.33778" lon="5.7903">
        <ele>826.6</ele>
        <time>2025-10-05T08:20:56Z</time>
      </trkpt>
      <trkpt lat="43.33778" lon="5.7903">
        <ele>826.6</ele>
        <time>2025-10-05T08:20:57Z</time>
      </trkpt>
      <trkpt lat="43.33778" lon="5.7903">
        <ele>826.7</ele>
        <time>2025-10-05T08:20:58Z</time>
      </trkpt>
      <trkpt lat="43.33778" lon="5.79029">
        <ele>826.8</ele>
        <time>2025-10-05T08:20:59Z</time>
      </trkpt>
      <trkpt lat="43.33778" lon="5.79029">
        <ele>826.8</ele>
        <time>2025-10-05T08:21:00Z</time>
      </trkpt>
      <trkpt lat="43.33779" lon="5.79029">
        <ele>826.8</ele>
        <time>2025-10-05T08:21:01Z</time>
      </trkpt>
      <trkpt lat="43.33779" lon="5.79029">
        <ele>826.8</ele>
        <time>2025-10-05T08:21:02Z</time>
      </trkpt>
      <trkpt lat="43.33779" lon="5.79029">
        <ele>826.9</ele>
        <time>2025-10-05T08:21:03Z</time>
      </trkpt>
      <trkpt lat="43.33779" lon="5.79029">
        <ele>826.9</ele>
        <time>2025-10-05T08:21:04Z</time>
      </trkpt>
      <trkpt lat="43.33779" lon="5.79029">
        <ele>827</ele>
        <time>2025-10-05T08:21:05Z</time>
      </trkpt>
      <trkpt lat="43.33779" lon="5.79029">
        <ele>827.2</ele>
        <time>2025-10-05T08:21:06Z</time>
      </trkpt>
      <trkpt lat="43.33778" lon="5.79029">
        <ele>827.5</ele>
        <time>2025-10-05T08:21:07Z</time>
      </trkpt>
      <trkpt lat="43.33778" lon="5.79029">
        <ele>827.8</ele>
        <time>2025-10-05T08:21:08Z</time>
      </trkpt>
      <trkpt lat="43.33778" lon="5.79029">
        <ele>828</ele>
        <time>2025-10-05T08:21:09Z</time>
      </trkpt>
      <trkpt lat="43.33777" lon="5.79029">
        <ele>828.4</ele>
        <time>2025-10-05T08:21:10Z</time>
      </trkpt>
      <trkpt lat="43.33777" lon="5.79028">
        <ele>828.6</ele>
        <time>2025-10-05T08:21:11Z</time>
      </trkpt>
      <trkpt lat="43.33777" lon="5.79028">
        <ele>828.8</ele>
        <time>2025-10-05T08:21:12Z</time>
      </trkpt>
      <trkpt lat="43.33776" lon="5.79028">
        <ele>829</ele>
        <time>2025-10-05T08:21:13Z</time>
      </trkpt>
      <trkpt lat="43.33776" lon="5.79028">
        <ele>829</ele>
        <time>2025-10-05T08:21:14Z</time>
      </trkpt>
      <trkpt lat="43.33776" lon="5.79028">
        <ele>829</ele>
        <time>2025-10-05T08:21:15Z</time>
      </trkpt>
      <trkpt lat="43.33776" lon="5.79028">
        <ele>828.8</ele>
        <time>2025-10-05T08:21:16Z</time>
      </trkpt>
      <trkpt lat="43.33776" lon="5.79028">
        <ele>828.8</ele>
        <time>2025-10-05T08:21:17Z</time>
      </trkpt>
      <trkpt lat="43.33776" lon="5.79028">
        <ele>828.7</ele>
        <time>2025-10-05T08:21:18Z</time>
      </trkpt>
      <trkpt lat="43.33776" lon="5.79028">
        <ele>828.6</ele>
        <time>2025-10-05T08:21:19Z</time>
      </trkpt>
      <trkpt lat="43.33776" lon="5.79029">
        <ele>828.5</ele>
        <time>2025-10-05T08:21:20Z</time>
      </trkpt>
      <trkpt lat="43.33776" lon="5.79028">
        <ele>828.3</ele>
        <time>2025-10-05T08:21:21Z</time>
      </trkpt>
      <trkpt lat="43.33776" lon="5.79029">
        <ele>828.2</ele>
        <time>2025-10-05T08:21:22Z</time>
      </trkpt>
      <trkpt lat="43.33776" lon="5.79029">
        <ele>828.1</ele>
        <time>2025-10-05T08:21:23Z</time>
      </trkpt>
      <trkpt lat="43.33775" lon="5.79029">
        <ele>827.9</ele>
        <time>2025-10-05T08:21:24Z</time>
      </trkpt>
      <trkpt lat="43.33776" lon="5.79029">
        <ele>827.8</ele>
        <time>2025-10-05T08:21:25Z</time>
      </trkpt>
      <trkpt lat="43.33776" lon="5.79029">
        <ele>827.6</ele>
        <time>2025-10-05T08:21:26Z</time>
      </trkpt>
      <trkpt lat="43.33776" lon="5.79029">
        <ele>827.5</ele>
        <time>2025-10-05T08:21:27Z</time>
      </trkpt>
      <trkpt lat="43.33776" lon="5.79029">
        <ele>827.5</ele>
        <time>2025-10-05T08:21:28Z</time>
      </trkpt>
      <trkpt lat="43.33776" lon="5.79029">
        <ele>827.3</ele>
        <time>2025-10-05T08:21:29Z</time>
      </trkpt>
      <trkpt lat="43.33776" lon="5.79028">
        <ele>827.2</ele>
        <time>2025-10-05T08:21:30Z</time>
      </trkpt>
      <trkpt lat="43.33775" lon="5.79028">
        <ele>827.2</ele>
        <time>2025-10-05T08:21:31Z</time>
      </trkpt>
      <trkpt lat="43.33775" lon="5.79028">
        <ele>827.2</ele>
        <time>2025-10-05T08:21:32Z</time>
      </trkpt>
      <trkpt lat="43.33775" lon="5.79028">
        <ele>827.1</ele>
        <time>2025-10-05T08:21:33Z</time>
      </trkpt>
      <trkpt lat="43.33775" lon="5.79027">
        <ele>827</ele>
        <time>2025-10-05T08:21:34Z</time>
      </trkpt>
      <trkpt lat="43.33775" lon="5.79027">
        <ele>826.9</ele>
        <time>2025-10-05T08:21:35Z</time>
      </trkpt>
      <trkpt lat="43.33775" lon="5.79027">
        <ele>826.9</ele>
        <time>2025-10-05T08:21:36Z</time>
      </trkpt>
      <trkpt lat="43.33775" lon="5.79028">
        <ele>826.9</ele>
        <time>2025-10-05T08:21:37Z</time>
      </trkpt>
      <trkpt lat="43.33775" lon="5.79028">
        <ele>826.8</ele>
        <time>2025-10-05T08:21:38Z</time>
      </trkpt>
      <trkpt lat="43.33775" lon="5.79028">
        <ele>826.8</ele>
        <time>2025-10-05T08:21:39Z</time>
      </trkpt>
      <trkpt lat="43.33775" lon="5.79028">
        <ele>826.8</ele>
        <time>2025-10-05T08:21:40Z</time>
      </trkpt>
      <trkpt lat="43.33774" lon="5.79028">
        <ele>826.8</ele>
        <time>2025-10-05T08:21:41Z</time>
      </trkpt>
      <trkpt lat="43.33774" lon="5.79028">
        <ele>826.7</ele>
        <time>2025-10-05T08:21:42Z</time>
      </trkpt>
      <trkpt lat="43.33774" lon="5.79028">
        <ele>826.6</ele>
        <time>2025-10-05T08:21:43Z</time>
      </trkpt>
      <trkpt lat="43.33774" lon="5.79028">
        <ele>826.6</ele>
        <time>2025-10-05T08:21:44Z</time>
      </trkpt>
      <trkpt lat="43.33774" lon="5.79028">
        <ele>826.6</ele>
        <time>2025-10-05T08:21:45Z</time>
      </trkpt>
      <trkpt lat="43.33774" lon="5.79028">
        <ele>826.7</ele>
        <time>2025-10-05T08:21:46Z</time>
      </trkpt>
      <trkpt lat="43.33774" lon="5.79028">
        <ele>826.7</ele>
        <time>2025-10-05T08:21:47Z</time>
      </trkpt>
      <trkpt lat="43.33774" lon="5.79029">
        <ele>826.8</ele>
        <time>2025-10-05T08:21:48Z</time>
      </trkpt>
      <trkpt lat="43.33775" lon="5.79029">
        <ele>827</ele>
        <time>2025-10-05T08:21:49Z</time>
      </trkpt>
      <trkpt lat="43.33775" lon="5.79029">
        <ele>827.1</ele>
        <time>2025-10-05T08:21:50Z</time>
      </trkpt>
      <trkpt lat="43.33775" lon="5.79029">
        <ele>827.1</ele>
        <time>2025-10-05T08:21:51Z</time>
      </trkpt>
      <trkpt lat="43.33775" lon="5.79029">
        <ele>827.2</ele>
        <time>2025-10-05T08:21:52Z</time>
      </trkpt>
      <trkpt lat="43.33775" lon="5.79029">
        <ele>827.4</ele>
        <time>2025-10-05T08:21:53Z</time>
      </trkpt>
      <trkpt lat="43.33775" lon="5.79029">
        <ele>827.5</ele>
        <time>2025-10-05T08:21:54Z</time>
      </trkpt>
      <trkpt lat="43.33775" lon="5.79029">
        <ele>827.6</ele>
        <time>2025-10-05T08:21:55Z</time>
      </trkpt>
      <trkpt lat="43.33775" lon="5.7903">
        <ele>827.8</ele>
        <time>2025-10-05T08:21:56Z</time>
      </trkpt>
      <trkpt lat="43.33776" lon="5.7903">
        <ele>827.9</ele>
        <time>2025-10-05T08:21:57Z</time>
      </trkpt>
      <trkpt lat="43.33777" lon="5.7903">
        <ele>827.9</ele>
        <time>2025-10-05T08:21:58Z</time>
      </trkpt>
      <trkpt lat="43.33777" lon="5.7903">
        <ele>828</ele>
        <time>2025-10-05T08:21:59Z</time>
      </trkpt>
      <trkpt lat="43.33777" lon="5.7903">
        <ele>828</ele>
        <time>2025-10-05T08:22:00Z</time>
      </trkpt>
      <trkpt lat="43.33776" lon="5.79029">
        <ele>828.1</ele>
        <time>2025-10-05T08:22:01Z</time>
      </trkpt>
      <trkpt lat="43.33776" lon="5.79029">
        <ele>828.2</ele>
        <time>2025-10-05T08:22:02Z</time>
      </trkpt>
      <trkpt lat="43.33776" lon="5.79029">
        <ele>828.3</ele>
        <time>2025-10-05T08:22:03Z</time>
      </trkpt>
      <trkpt lat="43.33776" lon="5.79029">
        <ele>828.3</ele>
        <time>2025-10-05T08:22:04Z</time>
      </trkpt>
      <trkpt lat="43.33776" lon="5.79028">
        <ele>828.4</ele>
        <time>2025-10-05T08:22:05Z</time>
      </trkpt>
      <trkpt lat="43.33776" lon="5.79028">
        <ele>828.5</ele>
        <time>2025-10-05T08:22:06Z</time>
      </trkpt>
      <trkpt lat="43.33776" lon="5.79028">
        <ele>828.7</ele>
        <time>2025-10-05T08:22:07Z</time>
      </trkpt>
      <trkpt lat="43.33776" lon="5.79028">
        <ele>828.7</ele>
        <time>2025-10-05T08:22:08Z</time>
      </trkpt>
      <trkpt lat="43.33776" lon="5.79028">
        <ele>828.9</ele>
        <time>2025-10-05T08:22:09Z</time>
      </trkpt>
      <trkpt lat="43.33776" lon="5.79028">
        <ele>829</ele>
        <time>2025-10-05T08:22:10Z</time>
      </trkpt>
      <trkpt lat="43.33777" lon="5.79027">
        <ele>829</ele>
        <time>2025-10-05T08:22:11Z</time>
      </trkpt>
      <trkpt lat="43.33777" lon="5.79027">
        <ele>829</ele>
        <time>2025-10-05T08:22:12Z</time>
      </trkpt>
      <trkpt lat="43.33778" lon="5.79027">
        <ele>829</ele>
        <time>2025-10-05T08:22:13Z</time>
      </trkpt>
      <trkpt lat="43.33777" lon="5.79027">
        <ele>828.9</ele>
        <time>2025-10-05T08:22:14Z</time>
      </trkpt>
      <trkpt lat="43.33777" lon="5.79027">
        <ele>828.9</ele>
        <time>2025-10-05T08:22:15Z</time>
      </trkpt>
      <trkpt lat="43.33777" lon="5.79028">
        <ele>828.9</ele>
        <time>2025-10-05T08:22:16Z</time>
      </trkpt>
      <trkpt lat="43.33777" lon="5.79028">
        <ele>829.1</ele>
        <time>2025-10-05T08:22:17Z</time>
      </trkpt>
      <trkpt lat="43.33776" lon="5.79028">
        <ele>829.3</ele>
        <time>2025-10-05T08:22:18Z</time>
      </trkpt>
      <trkpt lat="43.33776" lon="5.79029">
        <ele>829.4</ele>
        <time>2025-10-05T08:22:19Z</time>
      </trkpt>
      <trkpt lat="43.33776" lon="5.79029">
        <ele>829.5</ele>
        <time>2025-10-05T08:22:20Z</time>
      </trkpt>
      <trkpt lat="43.33777" lon="5.7903">
        <ele>829.6</ele>
        <time>2025-10-05T08:22:21Z</time>
      </trkpt>
      <trkpt lat="43.33777" lon="5.79031">
        <ele>829.7</ele>
        <time>2025-10-05T08:22:22Z</time>
      </trkpt>
      <trkpt lat="43.33777" lon="5.79032">
        <ele>829.7</ele>
        <time>2025-10-05T08:22:23Z</time>
      </trkpt>
      <trkpt lat="43.33777" lon="5.79033">
        <ele>829.8</ele>
        <time>2025-10-05T08:22:24Z</time>
      </trkpt>
      <trkpt lat="43.33777" lon="5.79033">
        <ele>829.9</ele>
        <time>2025-10-05T08:22:25Z</time>
      </trkpt>
      <trkpt lat="43.33776" lon="5.79034">
        <ele>829.9</ele>
        <time>2025-10-05T08:22:26Z</time>
      </trkpt>
      <trkpt lat="43.33776" lon="5.79034">
        <ele>830.1</ele>
        <time>2025-10-05T08:22:27Z</time>
      </trkpt>
      <trkpt lat="43.33776" lon="5.79034">
        <ele>830.2</ele>
        <time>2025-10-05T08:22:28Z</time>
      </trkpt>
      <trkpt lat="43.33776" lon="5.79034">
        <ele>830.3</ele>
        <time>2025-10-05T08:22:29Z</time>
      </trkpt>
      <trkpt lat="43.33776" lon="5.79034">
        <ele>830.2</ele>
        <time>2025-10-05T08:22:30Z</time>
      </trkpt>
      <trkpt lat="43.33776" lon="5.79034">
        <ele>830.2</ele>
        <time>2025-10-05T08:22:31Z</time>
      </trkpt>
      <trkpt lat="43.33776" lon="5.79034">
        <ele>830.3</ele>
        <time>2025-10-05T08:22:32Z</time>
      </trkpt>
      <trkpt lat="43.33776" lon="5.79034">
        <ele>830.4</ele>
        <time>2025-10-05T08:22:33Z</time>
      </trkpt>
      <trkpt lat="43.33776" lon="5.79035">
        <ele>830.5</ele>
        <time>2025-10-05T08:22:34Z</time>
      </trkpt>
      <trkpt lat="43.33775" lon="5.79035">
        <ele>830.7</ele>
        <time>2025-10-05T08:22:35Z</time>
      </trkpt>
      <trkpt lat="43.33775" lon="5.79035">
        <ele>830.8</ele>
        <time>2025-10-05T08:22:36Z</time>
      </trkpt>
      <trkpt lat="43.33775" lon="5.79035">
        <ele>831</ele>
        <time>2025-10-05T08:22:37Z</time>
      </trkpt>
      <trkpt lat="43.33775" lon="5.79036">
        <ele>831.1</ele>
        <time>2025-10-05T08:22:38Z</time>
      </trkpt>
      <trkpt lat="43.33775" lon="5.79036">
        <ele>831.6</ele>
        <time>2025-10-05T08:22:39Z</time>
      </trkpt>
      <trkpt lat="43.33775" lon="5.79036">
        <ele>831.8</ele>
        <time>2025-10-05T08:22:40Z</time>
      </trkpt>
      <trkpt lat="43.33774" lon="5.79036">
        <ele>832.1</ele>
        <time>2025-10-05T08:22:41Z</time>
      </trkpt>
      <trkpt lat="43.33774" lon="5.79036">
        <ele>832.4</ele>
        <time>2025-10-05T08:22:42Z</time>
      </trkpt>
      <trkpt lat="43.33774" lon="5.79036">
        <ele>832.7</ele>
        <time>2025-10-05T08:22:43Z</time>
      </trkpt>
      <trkpt lat="43.33773" lon="5.79036">
        <ele>833.1</ele>
        <time>2025-10-05T08:22:44Z</time>
      </trkpt>
      <trkpt lat="43.33773" lon="5.79037">
        <ele>833.5</ele>
        <time>2025-10-05T08:22:45Z</time>
      </trkpt>
      <trkpt lat="43.33773" lon="5.79037">
        <ele>833.9</ele>
        <time>2025-10-05T08:22:46Z</time>
      </trkpt>
      <trkpt lat="43.33773" lon="5.79037">
        <ele>834.3</ele>
        <time>2025-10-05T08:22:47Z</time>
      </trkpt>
      <trkpt lat="43.33773" lon="5.79037">
        <ele>834.6</ele>
        <time>2025-10-05T08:22:48Z</time>
      </trkpt>
      <trkpt lat="43.33772" lon="5.79037">
        <ele>834.8</ele>
        <time>2025-10-05T08:22:49Z</time>
      </trkpt>
      <trkpt lat="43.33772" lon="5.79038">
        <ele>835.2</ele>
        <time>2025-10-05T08:22:50Z</time>
      </trkpt>
      <trkpt lat="43.33772" lon="5.79037">
        <ele>835.5</ele>
        <time>2025-10-05T08:22:51Z</time>
      </trkpt>
      <trkpt lat="43.33772" lon="5.79038">
        <ele>835.7</ele>
        <time>2025-10-05T08:22:52Z</time>
      </trkpt>
      <trkpt lat="43.33772" lon="5.79038">
        <ele>835.8</ele>
        <time>2025-10-05T08:22:53Z</time>
      </trkpt>
      <trkpt lat="43.33772" lon="5.79038">
        <ele>835.9</ele>
        <time>2025-10-05T08:22:54Z</time>
      </trkpt>
      <trkpt lat="43.33772" lon="5.79039">
        <ele>836.1</ele>
        <time>2025-10-05T08:22:55Z</time>
      </trkpt>
      <trkpt lat="43.33772" lon="5.7904">
        <ele>836.2</ele>
        <time>2025-10-05T08:22:56Z</time>
      </trkpt>
      <trkpt lat="43.33772" lon="5.79039">
        <ele>836.3</ele>
        <time>2025-10-05T08:22:57Z</time>
      </trkpt>
      <trkpt lat="43.33772" lon="5.79039">
        <ele>836.4</ele>
        <time>2025-10-05T08:22:58Z</time>
      </trkpt>
      <trkpt lat="43.33772" lon="5.79039">
        <ele>836.4</ele>
        <time>2025-10-05T08:22:59Z</time>
      </trkpt>
      <trkpt lat="43.33772" lon="5.79039">
        <ele>836.5</ele>
        <time>2025-10-05T08:23:00Z</time>
      </trkpt>
      <trkpt lat="43.33772" lon="5.79039">
        <ele>836.6</ele>
        <time>2025-10-05T08:23:01Z</time>
      </trkpt>
      <trkpt lat="43.33771" lon="5.79039">
        <ele>836.8</ele>
        <time>2025-10-05T08:23:02Z</time>
      </trkpt>
      <trkpt lat="43.33771" lon="5.7904">
        <ele>836.9</ele>
        <time>2025-10-05T08:23:03Z</time>
      </trkpt>
      <trkpt lat="43.33772" lon="5.7904">
        <ele>836.9</ele>
        <time>2025-10-05T08:23:04Z</time>
      </trkpt>
      <trkpt lat="43.33772" lon="5.79039">
        <ele>836.9</ele>
        <time>2025-10-05T08:23:05Z</time>
      </trkpt>
      <trkpt lat="43.33772" lon="5.79039">
        <ele>837</ele>
        <time>2025-10-05T08:23:06Z</time>
      </trkpt>
      <trkpt lat="43.33772" lon="5.7904">
        <ele>837</ele>
        <time>2025-10-05T08:23:07Z</time>
      </trkpt>
      <trkpt lat="43.33773" lon="5.7904">
        <ele>837</ele>
        <time>2025-10-05T08:23:08Z</time>
      </trkpt>
      <trkpt lat="43.33772" lon="5.7904">
        <ele>837</ele>
        <time>2025-10-05T08:23:09Z</time>
      </trkpt>
      <trkpt lat="43.33772" lon="5.7904">
        <ele>837.1</ele>
        <time>2025-10-05T08:23:10Z</time>
      </trkpt>
      <trkpt lat="43.33771" lon="5.7904">
        <ele>837.1</ele>
        <time>2025-10-05T08:23:11Z</time>
      </trkpt>
      <trkpt lat="43.33771" lon="5.7904">
        <ele>837.1</ele>
        <time>2025-10-05T08:23:12Z</time>
      </trkpt>
      <trkpt lat="43.33771" lon="5.79041">
        <ele>837.2</ele>
        <time>2025-10-05T08:23:13Z</time>
      </trkpt>
      <trkpt lat="43.33771" lon="5.7904">
        <ele>837.3</ele>
        <time>2025-10-05T08:23:14Z</time>
      </trkpt>
      <trkpt lat="43.33771" lon="5.7904">
        <ele>837.4</ele>
        <time>2025-10-05T08:23:15Z</time>
      </trkpt>
      <trkpt lat="43.33771" lon="5.7904">
        <ele>837.5</ele>
        <time>2025-10-05T08:23:16Z</time>
      </trkpt>
      <trkpt lat="43.33771" lon="5.79039">
        <ele>837.6</ele>
        <time>2025-10-05T08:23:17Z</time>
      </trkpt>
      <trkpt lat="43.33771" lon="5.7904">
        <ele>837.7</ele>
        <time>2025-10-05T08:23:18Z</time>
      </trkpt>
      <trkpt lat="43.33771" lon="5.7904">
        <ele>837.6</ele>
        <time>2025-10-05T08:23:19Z</time>
      </trkpt>
      <trkpt lat="43.33771" lon="5.7904">
        <ele>837.6</ele>
        <time>2025-10-05T08:23:20Z</time>
      </trkpt>
      <trkpt lat="43.33771" lon="5.7904">
        <ele>837.7</ele>
        <time>2025-10-05T08:23:21Z</time>
      </trkpt>
      <trkpt lat="43.3377" lon="5.79041">
        <ele>837.7</ele>
        <time>2025-10-05T08:23:22Z</time>
      </trkpt>
      <trkpt lat="43.33771" lon="5.79041">
        <ele>837.7</ele>
        <time>2025-10-05T08:23:23Z</time>
      </trkpt>
      <trkpt lat="43.33771" lon="5.79041">
        <ele>837.7</ele>
        <time>2025-10-05T08:23:24Z</time>
      </trkpt>
      <trkpt lat="43.3377" lon="5.79041">
        <ele>837.8</ele>
        <time>2025-10-05T08:23:25Z</time>
      </trkpt>
      <trkpt lat="43.3377" lon="5.79041">
        <ele>837.9</ele>
        <time>2025-10-05T08:23:26Z</time>
      </trkpt>
      <trkpt lat="43.3377" lon="5.79042">
        <ele>837.9</ele>
        <time>2025-10-05T08:23:27Z</time>
      </trkpt>
      <trkpt lat="43.3377" lon="5.79043">
        <ele>838</ele>
        <time>2025-10-05T08:23:28Z</time>
      </trkpt>
      <trkpt lat="43.3377" lon="5.79043">
        <ele>838.1</ele>
        <time>2025-10-05T08:23:29Z</time>
      </trkpt>
      <trkpt lat="43.3377" lon="5.79044">
        <ele>838.2</ele>
        <time>2025-10-05T08:23:30Z</time>
      </trkpt>
      <trkpt lat="43.3377" lon="5.79045">
        <ele>838.2</ele>
        <time>2025-10-05T08:23:31Z</time>
      </trkpt>
      <trkpt lat="43.33769" lon="5.79046">
        <ele>838.2</ele>
        <time>2025-10-05T08:23:32Z</time>
      </trkpt>
      <trkpt lat="43.33769" lon="5.79046">
        <ele>838.2</ele>
        <time>2025-10-05T08:23:33Z</time>
      </trkpt>
      <trkpt lat="43.33769" lon="5.79046">
        <ele>838.1</ele>
        <time>2025-10-05T08:23:34Z</time>
      </trkpt>
      <trkpt lat="43.33769" lon="5.79047">
        <ele>838.1</ele>
        <time>2025-10-05T08:23:35Z</time>
      </trkpt>
      <trkpt lat="43.33769" lon="5.79048">
        <ele>838.1</ele>
        <time>2025-10-05T08:23:36Z</time>
      </trkpt>
      <trkpt lat="43.33769" lon="5.79049">
        <ele>838.1</ele>
        <time>2025-10-05T08:23:37Z</time>
      </trkpt>
      <trkpt lat="43.33769" lon="5.79049">
        <ele>838.1</ele>
        <time>2025-10-05T08:23:38Z</time>
      </trkpt>
      <trkpt lat="43.33769" lon="5.79049">
        <ele>838.1</ele>
        <time>2025-10-05T08:23:39Z</time>
      </trkpt>
      <trkpt lat="43.33769" lon="5.7905">
        <ele>838</ele>
        <time>2025-10-05T08:23:40Z</time>
      </trkpt>
      <trkpt lat="43.33768" lon="5.7905">
        <ele>837.9</ele>
        <time>2025-10-05T08:23:41Z</time>
      </trkpt>
      <trkpt lat="43.33768" lon="5.79051">
        <ele>837.7</ele>
        <time>2025-10-05T08:23:42Z</time>
      </trkpt>
      <trkpt lat="43.33767" lon="5.79051">
        <ele>837.5</ele>
        <time>2025-10-05T08:23:43Z</time>
      </trkpt>
      <trkpt lat="43.33767" lon="5.79051">
        <ele>837.4</ele>
        <time>2025-10-05T08:23:44Z</time>
      </trkpt>
      <trkpt lat="43.33767" lon="5.79052">
        <ele>837.2</ele>
        <time>2025-10-05T08:23:45Z</time>
      </trkpt>
      <trkpt lat="43.33767" lon="5.79052">
        <ele>837</ele>
        <time>2025-10-05T08:23:46Z</time>
      </trkpt>
      <trkpt lat="43.33768" lon="5.79051">
        <ele>836.8</ele>
        <time>2025-10-05T08:23:47Z</time>
      </trkpt>
      <trkpt lat="43.33768" lon="5.79051">
        <ele>836.7</ele>
        <time>2025-10-05T08:23:48Z</time>
      </trkpt>
      <trkpt lat="43.33768" lon="5.79051">
        <ele>836.7</ele>
        <time>2025-10-05T08:23:49Z</time>
      </trkpt>
      <trkpt lat="43.33768" lon="5.79051">
        <ele>836.8</ele>
        <time>2025-10-05T08:23:50Z</time>
      </trkpt>
      <trkpt lat="43.33768" lon="5.79051">
        <ele>836.8</ele>
        <time>2025-10-05T08:23:51Z</time>
      </trkpt>
      <trkpt lat="43.33768" lon="5.79051">
        <ele>836.9</ele>
        <time>2025-10-05T08:23:52Z</time>
      </trkpt>
      <trkpt lat="43.33768" lon="5.79051">
        <ele>836.9</ele>
        <time>2025-10-05T08:23:53Z</time>
      </trkpt>
      <trkpt lat="43.33768" lon="5.79051">
        <ele>837</ele>
        <time>2025-10-05T08:23:54Z</time>
      </trkpt>
      <trkpt lat="43.33768" lon="5.79051">
        <ele>837</ele>
        <time>2025-10-05T08:23:55Z</time>
      </trkpt>
      <trkpt lat="43.33769" lon="5.79051">
        <ele>837.1</ele>
        <time>2025-10-05T08:23:56Z</time>
      </trkpt>
      <trkpt lat="43.33769" lon="5.79051">
        <ele>837.2</ele>
        <time>2025-10-05T08:23:57Z</time>
      </trkpt>
      <trkpt lat="43.33769" lon="5.79051">
        <ele>837.3</ele>
        <time>2025-10-05T08:23:58Z</time>
      </trkpt>
      <trkpt lat="43.33769" lon="5.79051">
        <ele>837.3</ele>
        <time>2025-10-05T08:23:59Z</time>
      </trkpt>
      <trkpt lat="43.33769" lon="5.79051">
        <ele>837.2</ele>
        <time>2025-10-05T08:24:00Z</time>
      </trkpt>
      <trkpt lat="43.33769" lon="5.79051">
        <ele>837.2</ele>
        <time>2025-10-05T08:24:01Z</time>
      </trkpt>
      <trkpt lat="43.33769" lon="5.79051">
        <ele>837.3</ele>
        <time>2025-10-05T08:24:02Z</time>
      </trkpt>
      <trkpt lat="43.33769" lon="5.79051">
        <ele>837.4</ele>
        <time>2025-10-05T08:24:03Z</time>
      </trkpt>
      <trkpt lat="43.33769" lon="5.7905">
        <ele>837.5</ele>
        <time>2025-10-05T08:24:04Z</time>
      </trkpt>
      <trkpt lat="43.33769" lon="5.7905">
        <ele>837.5</ele>
        <time>2025-10-05T08:24:05Z</time>
      </trkpt>
      <trkpt lat="43.3377" lon="5.7905">
        <ele>837.6</ele>
        <time>2025-10-05T08:24:06Z</time>
      </trkpt>
      <trkpt lat="43.3377" lon="5.7905">
        <ele>837.6</ele>
        <time>2025-10-05T08:24:07Z</time>
      </trkpt>
      <trkpt lat="43.3377" lon="5.7905">
        <ele>837.6</ele>
        <time>2025-10-05T08:24:08Z</time>
      </trkpt>
      <trkpt lat="43.3377" lon="5.7905">
        <ele>837.6</ele>
        <time>2025-10-05T08:24:09Z</time>
      </trkpt>
      <trkpt lat="43.3377" lon="5.7905">
        <ele>837.6</ele>
        <time>2025-10-05T08:24:10Z</time>
      </trkpt>
      <trkpt lat="43.3377" lon="5.7905">
        <ele>837.6</ele>
        <time>2025-10-05T08:24:11Z</time>
      </trkpt>
      <trkpt lat="43.33771" lon="5.79049">
        <ele>837.5</ele>
        <time>2025-10-05T08:24:12Z</time>
      </trkpt>
      <trkpt lat="43.33771" lon="5.79049">
        <ele>837.5</ele>
        <time>2025-10-05T08:24:13Z</time>
      </trkpt>
      <trkpt lat="43.33771" lon="5.79048">
        <ele>837.4</ele>
        <time>2025-10-05T08:24:14Z</time>
      </trkpt>
      <trkpt lat="43.33772" lon="5.79048">
        <ele>837.4</ele>
        <time>2025-10-05T08:24:15Z</time>
      </trkpt>
      <trkpt lat="43.33772" lon="5.79047">
        <ele>837.4</ele>
        <time>2025-10-05T08:24:16Z</time>
      </trkpt>
      <trkpt lat="43.33772" lon="5.79047">
        <ele>837.3</ele>
        <time>2025-10-05T08:24:17Z</time>
      </trkpt>
      <trkpt lat="43.33772" lon="5.79046">
        <ele>837.4</ele>
        <time>2025-10-05T08:24:18Z</time>
      </trkpt>
      <trkpt lat="43.33772" lon="5.79047">
        <ele>837.4</ele>
        <time>2025-10-05T08:24:19Z</time>
      </trkpt>
      <trkpt lat="43.33773" lon="5.79046">
        <ele>837.4</ele>
        <time>2025-10-05T08:24:20Z</time>
      </trkpt>
      <trkpt lat="43.33772" lon="5.79046">
        <ele>837.4</ele>
        <time>2025-10-05T08:24:21Z</time>
      </trkpt>
      <trkpt lat="43.33772" lon="5.79046">
        <ele>837.4</ele>
        <time>2025-10-05T08:24:22Z</time>
      </trkpt>
      <trkpt lat="43.33772" lon="5.79047">
        <ele>837.4</ele>
        <time>2025-10-05T08:24:23Z</time>
      </trkpt>
      <trkpt lat="43.33772" lon="5.79047">
        <ele>837.4</ele>
        <time>2025-10-05T08:24:24Z</time>
      </trkpt>
      <trkpt lat="43.33772" lon="5.79047">
        <ele>837.4</ele>
        <time>2025-10-05T08:24:25Z</time>
      </trkpt>
      <trkpt lat="43.33772" lon="5.79047">
        <ele>837.5</ele>
        <time>2025-10-05T08:24:26Z</time>
      </trkpt>
      <trkpt lat="43.33772" lon="5.79047">
        <ele>837.4</ele>
        <time>2025-10-05T08:24:27Z</time>
      </trkpt>
      <trkpt lat="43.33772" lon="5.79047">
        <ele>837.3</ele>
        <time>2025-10-05T08:24:28Z</time>
      </trkpt>
      <trkpt lat="43.33772" lon="5.79048">
        <ele>837.2</ele>
        <time>2025-10-05T08:24:29Z</time>
      </trkpt>
      <trkpt lat="43.33772" lon="5.79048">
        <ele>837.2</ele>
        <time>2025-10-05T08:24:30Z</time>
      </trkpt>
      <trkpt lat="43.33772" lon="5.79048">
        <ele>837.1</ele>
        <time>2025-10-05T08:24:31Z</time>
      </trkpt>
      <trkpt lat="43.33771" lon="5.79049">
        <ele>837</ele>
        <time>2025-10-05T08:24:32Z</time>
      </trkpt>
      <trkpt lat="43.33771" lon="5.79049">
        <ele>836.9</ele>
        <time>2025-10-05T08:24:33Z</time>
      </trkpt>
      <trkpt lat="43.33771" lon="5.79049">
        <ele>836.9</ele>
        <time>2025-10-05T08:24:34Z</time>
      </trkpt>
      <trkpt lat="43.33771" lon="5.79049">
        <ele>836.8</ele>
        <time>2025-10-05T08:24:35Z</time>
      </trkpt>
      <trkpt lat="43.33771" lon="5.79049">
        <ele>836.8</ele>
        <time>2025-10-05T08:24:36Z</time>
      </trkpt>
      <trkpt lat="43.33771" lon="5.79049">
        <ele>836.7</ele>
        <time>2025-10-05T08:24:37Z</time>
      </trkpt>
      <trkpt lat="43.33771" lon="5.79049">
        <ele>836.7</ele>
        <time>2025-10-05T08:24:38Z</time>
      </trkpt>
      <trkpt lat="43.33771" lon="5.79049">
        <ele>836.7</ele>
        <time>2025-10-05T08:24:39Z</time>
      </trkpt>
      <trkpt lat="43.3377" lon="5.7905">
        <ele>836.9</ele>
        <time>2025-10-05T08:24:40Z</time>
      </trkpt>
      <trkpt lat="43.33771" lon="5.79051">
        <ele>837.2</ele>
        <time>2025-10-05T08:24:41Z</time>
      </trkpt>
      <trkpt lat="43.33771" lon="5.79051">
        <ele>837.4</ele>
        <time>2025-10-05T08:24:42Z</time>
      </trkpt>
      <trkpt lat="43.33771" lon="5.79051">
        <ele>837.5</ele>
        <time>2025-10-05T08:24:43Z</time>
      </trkpt>
      <trkpt lat="43.3377" lon="5.79052">
        <ele>837.5</ele>
        <time>2025-10-05T08:24:44Z</time>
      </trkpt>
      <trkpt lat="43.33771" lon="5.79052">
        <ele>837.6</ele>
        <time>2025-10-05T08:24:45Z</time>
      </trkpt>
      <trkpt lat="43.33771" lon="5.79053">
        <ele>837.7</ele>
        <time>2025-10-05T08:24:46Z</time>
      </trkpt>
      <trkpt lat="43.33771" lon="5.79053">
        <ele>837.8</ele>
        <time>2025-10-05T08:24:47Z</time>
      </trkpt>
      <trkpt lat="43.33771" lon="5.79054">
        <ele>837.9</ele>
        <time>2025-10-05T08:24:48Z</time>
      </trkpt>
      <trkpt lat="43.33771" lon="5.79054">
        <ele>837.9</ele>
        <time>2025-10-05T08:24:49Z</time>
      </trkpt>
      <trkpt lat="43.33771" lon="5.79054">
        <ele>837.9</ele>
        <time>2025-10-05T08:24:50Z</time>
      </trkpt>
      <trkpt lat="43.33771" lon="5.79055">
        <ele>837.9</ele>
        <time>2025-10-05T08:24:51Z</time>
      </trkpt>
      <trkpt lat="43.33771" lon="5.79055">
        <ele>838</ele>
        <time>2025-10-05T08:24:52Z</time>
      </trkpt>
      <trkpt lat="43.33771" lon="5.79054">
        <ele>838</ele>
        <time>2025-10-05T08:24:53Z</time>
      </trkpt>
      <trkpt lat="43.33771" lon="5.79054">
        <ele>838</ele>
        <time>2025-10-05T08:24:54Z</time>
      </trkpt>
      <trkpt lat="43.33771" lon="5.79054">
        <ele>838</ele>
        <time>2025-10-05T08:24:55Z</time>
      </trkpt>
      <trkpt lat="43.33771" lon="5.79054">
        <ele>838</ele>
        <time>2025-10-05T08:24:56Z</time>
      </trkpt>
      <trkpt lat="43.33771" lon="5.79054">
        <ele>838.1</ele>
        <time>2025-10-05T08:24:57Z</time>
      </trkpt>
      <trkpt lat="43.33771" lon="5.79054">
        <ele>838.2</ele>
        <time>2025-10-05T08:24:58Z</time>
      </trkpt>
      <trkpt lat="43.33771" lon="5.79054">
        <ele>838.3</ele>
        <time>2025-10-05T08:24:59Z</time>
      </trkpt>
      <trkpt lat="43.33771" lon="5.79054">
        <ele>838.4</ele>
        <time>2025-10-05T08:25:00Z</time>
      </trkpt>
      <trkpt lat="43.33771" lon="5.79054">
        <ele>838.4</ele>
        <time>2025-10-05T08:25:01Z</time>
      </trkpt>
      <trkpt lat="43.33771" lon="5.79054">
        <ele>838.5</ele>
        <time>2025-10-05T08:25:02Z</time>
      </trkpt>
      <trkpt lat="43.33772" lon="5.79054">
        <ele>838.6</ele>
        <time>2025-10-05T08:25:03Z</time>
      </trkpt>
      <trkpt lat="43.33772" lon="5.79053">
        <ele>838.7</ele>
        <time>2025-10-05T08:25:04Z</time>
      </trkpt>
      <trkpt lat="43.33772" lon="5.79053">
        <ele>838.8</ele>
        <time>2025-10-05T08:25:05Z</time>
      </trkpt>
      <trkpt lat="43.33772" lon="5.79053">
        <ele>838.8</ele>
        <time>2025-10-05T08:25:06Z</time>
      </trkpt>
      <trkpt lat="43.33771" lon="5.79053">
        <ele>838.9</ele>
        <time>2025-10-05T08:25:07Z</time>
      </trkpt>
      <trkpt lat="43.33771" lon="5.79053">
        <ele>839</ele>
        <time>2025-10-05T08:25:08Z</time>
      </trkpt>
      <trkpt lat="43.33771" lon="5.79053">
        <ele>839</ele>
        <time>2025-10-05T08:25:09Z</time>
      </trkpt>
      <trkpt lat="43.33771" lon="5.79053">
        <ele>838.9</ele>
        <time>2025-10-05T08:25:10Z</time>
      </trkpt>
      <trkpt lat="43.33771" lon="5.79054">
        <ele>838.9</ele>
        <time>2025-10-05T08:25:11Z</time>
      </trkpt>
      <trkpt lat="43.33771" lon="5.79055">
        <ele>839.1</ele>
        <time>2025-10-05T08:25:12Z</time>
      </trkpt>
      <trkpt lat="43.33771" lon="5.79056">
        <ele>839.2</ele>
        <time>2025-10-05T08:25:13Z</time>
      </trkpt>
      <trkpt lat="43.33771" lon="5.79057">
        <ele>839.3</ele>
        <time>2025-10-05T08:25:14Z</time>
      </trkpt>
      <trkpt lat="43.33771" lon="5.79058">
        <ele>839.6</ele>
        <time>2025-10-05T08:25:15Z</time>
      </trkpt>
      <trkpt lat="43.33771" lon="5.79058">
        <ele>840</ele>
        <time>2025-10-05T08:25:16Z</time>
      </trkpt>
      <trkpt lat="43.33771" lon="5.79058">
        <ele>840.4</ele>
        <time>2025-10-05T08:25:17Z</time>
      </trkpt>
      <trkpt lat="43.33771" lon="5.79058">
        <ele>840.6</ele>
        <time>2025-10-05T08:25:18Z</time>
      </trkpt>
      <trkpt lat="43.33771" lon="5.79059">
        <ele>840.7</ele>
        <time>2025-10-05T08:25:19Z</time>
      </trkpt>
      <trkpt lat="43.33771" lon="5.7906">
        <ele>840.9</ele>
        <time>2025-10-05T08:25:20Z</time>
      </trkpt>
      <trkpt lat="43.33771" lon="5.7906">
        <ele>841</ele>
        <time>2025-10-05T08:25:21Z</time>
      </trkpt>
      <trkpt lat="43.33771" lon="5.7906">
        <ele>841.2</ele>
        <time>2025-10-05T08:25:22Z</time>
      </trkpt>
      <trkpt lat="43.33771" lon="5.7906">
        <ele>841.3</ele>
        <time>2025-10-05T08:25:23Z</time>
      </trkpt>
      <trkpt lat="43.33771" lon="5.7906">
        <ele>841.4</ele>
        <time>2025-10-05T08:25:24Z</time>
      </trkpt>
      <trkpt lat="43.33771" lon="5.7906">
        <ele>841.4</ele>
        <time>2025-10-05T08:25:25Z</time>
      </trkpt>
      <trkpt lat="43.33771" lon="5.79061">
        <ele>841.4</ele>
        <time>2025-10-05T08:25:26Z</time>
      </trkpt>
      <trkpt lat="43.33771" lon="5.79062">
        <ele>841.5</ele>
        <time>2025-10-05T08:25:27Z</time>
      </trkpt>
      <trkpt lat="43.33771" lon="5.79062">
        <ele>841.9</ele>
        <time>2025-10-05T08:25:28Z</time>
      </trkpt>
      <trkpt lat="43.33771" lon="5.79062">
        <ele>842.1</ele>
        <time>2025-10-05T08:25:29Z</time>
      </trkpt>
      <trkpt lat="43.33772" lon="5.79062">
        <ele>842.2</ele>
        <time>2025-10-05T08:25:30Z</time>
      </trkpt>
      <trkpt lat="43.33772" lon="5.79062">
        <ele>842.3</ele>
        <time>2025-10-05T08:25:31Z</time>
      </trkpt>
      <trkpt lat="43.33772" lon="5.79062">
        <ele>842.3</ele>
        <time>2025-10-05T08:25:32Z</time>
      </trkpt>
      <trkpt lat="43.33772" lon="5.79062">
        <ele>842.4</ele>
        <time>2025-10-05T08:25:33Z</time>
      </trkpt>
      <trkpt lat="43.33772" lon="5.79062">
        <ele>842.5</ele>
        <time>2025-10-05T08:25:34Z</time>
      </trkpt>
      <trkpt lat="43.33772" lon="5.79062">
        <ele>842.6</ele>
        <time>2025-10-05T08:25:35Z</time>
      </trkpt>
      <trkpt lat="43.33772" lon="5.79062">
        <ele>842.6</ele>
        <time>2025-10-05T08:25:36Z</time>
      </trkpt>
      <trkpt lat="43.33772" lon="5.79062">
        <ele>842.7</ele>
        <time>2025-10-05T08:25:37Z</time>
      </trkpt>
      <trkpt lat="43.33772" lon="5.79062">
        <ele>842.8</ele>
        <time>2025-10-05T08:25:38Z</time>
      </trkpt>
      <trkpt lat="43.33773" lon="5.79062">
        <ele>842.8</ele>
        <time>2025-10-05T08:25:39Z</time>
      </trkpt>
      <trkpt lat="43.33773" lon="5.79062">
        <ele>842.9</ele>
        <time>2025-10-05T08:25:40Z</time>
      </trkpt>
      <trkpt lat="43.33773" lon="5.79062">
        <ele>842.9</ele>
        <time>2025-10-05T08:25:41Z</time>
      </trkpt>
      <trkpt lat="43.33773" lon="5.79062">
        <ele>842.9</ele>
        <time>2025-10-05T08:25:42Z</time>
      </trkpt>
      <trkpt lat="43.33773" lon="5.79062">
        <ele>842.9</ele>
        <time>2025-10-05T08:25:43Z</time>
      </trkpt>
      <trkpt lat="43.33773" lon="5.79062">
        <ele>842.9</ele>
        <time>2025-10-05T08:25:44Z</time>
      </trkpt>
      <trkpt lat="43.33773" lon="5.79062">
        <ele>842.9</ele>
        <time>2025-10-05T08:25:45Z</time>
      </trkpt>
      <trkpt lat="43.33773" lon="5.79062">
        <ele>842.9</ele>
        <time>2025-10-05T08:25:46Z</time>
      </trkpt>
      <trkpt lat="43.33773" lon="5.79062">
        <ele>842.8</ele>
        <time>2025-10-05T08:25:47Z</time>
      </trkpt>
      <trkpt lat="43.33773" lon="5.79062">
        <ele>842.7</ele>
        <time>2025-10-05T08:25:48Z</time>
      </trkpt>
      <trkpt lat="43.33773" lon="5.79063">
        <ele>842.7</ele>
        <time>2025-10-05T08:25:49Z</time>
      </trkpt>
      <trkpt lat="43.33773" lon="5.79063">
        <ele>842.8</ele>
        <time>2025-10-05T08:25:50Z</time>
      </trkpt>
      <trkpt lat="43.33774" lon="5.79063">
        <ele>842.8</ele>
        <time>2025-10-05T08:25:51Z</time>
      </trkpt>
      <trkpt lat="43.33774" lon="5.79063">
        <ele>842.8</ele>
        <time>2025-10-05T08:25:52Z</time>
      </trkpt>
      <trkpt lat="43.33774" lon="5.79063">
        <ele>842.8</ele>
        <time>2025-10-05T08:25:53Z</time>
      </trkpt>
      <trkpt lat="43.33774" lon="5.79063">
        <ele>842.9</ele>
        <time>2025-10-05T08:25:54Z</time>
      </trkpt>
      <trkpt lat="43.33774" lon="5.79063">
        <ele>843</ele>
        <time>2025-10-05T08:25:55Z</time>
      </trkpt>
      <trkpt lat="43.33775" lon="5.79063">
        <ele>843</ele>
        <time>2025-10-05T08:25:56Z</time>
      </trkpt>
      <trkpt lat="43.33774" lon="5.79063">
        <ele>843.3</ele>
        <time>2025-10-05T08:25:57Z</time>
      </trkpt>
      <trkpt lat="43.33774" lon="5.79063">
        <ele>843.3</ele>
        <time>2025-10-05T08:25:58Z</time>
      </trkpt>
      <trkpt lat="43.33774" lon="5.79063">
        <ele>843.5</ele>
        <time>2025-10-05T08:25:59Z</time>
      </trkpt>
      <trkpt lat="43.33774" lon="5.79064">
        <ele>843.5</ele>
        <time>2025-10-05T08:26:00Z</time>
      </trkpt>
      <trkpt lat="43.33775" lon="5.79064">
        <ele>843.5</ele>
        <time>2025-10-05T08:26:01Z</time>
      </trkpt>
      <trkpt lat="43.33774" lon="5.79064">
        <ele>843.6</ele>
        <time>2025-10-05T08:26:02Z</time>
      </trkpt>
      <trkpt lat="43.33775" lon="5.79063">
        <ele>843.7</ele>
        <time>2025-10-05T08:26:03Z</time>
      </trkpt>
      <trkpt lat="43.33774" lon="5.79063">
        <ele>843.8</ele>
        <time>2025-10-05T08:26:04Z</time>
      </trkpt>
      <trkpt lat="43.33774" lon="5.79064">
        <ele>843.9</ele>
        <time>2025-10-05T08:26:05Z</time>
      </trkpt>
      <trkpt lat="43.33774" lon="5.79064">
        <ele>844</ele>
        <time>2025-10-05T08:26:06Z</time>
      </trkpt>
      <trkpt lat="43.33774" lon="5.79064">
        <ele>844</ele>
        <time>2025-10-05T08:26:07Z</time>
      </trkpt>
      <trkpt lat="43.33774" lon="5.79064">
        <ele>844.1</ele>
        <time>2025-10-05T08:26:08Z</time>
      </trkpt>
      <trkpt lat="43.33775" lon="5.79064">
        <ele>844.1</ele>
        <time>2025-10-05T08:26:09Z</time>
      </trkpt>
      <trkpt lat="43.33775" lon="5.79064">
        <ele>844.1</ele>
        <time>2025-10-05T08:26:10Z</time>
      </trkpt>
      <trkpt lat="43.33775" lon="5.79064">
        <ele>844.2</ele>
        <time>2025-10-05T08:26:11Z</time>
      </trkpt>
      <trkpt lat="43.33775" lon="5.79064">
        <ele>844.2</ele>
        <time>2025-10-05T08:26:12Z</time>
      </trkpt>
      <trkpt lat="43.33775" lon="5.79064">
        <ele>844.3</ele>
        <time>2025-10-05T08:26:13Z</time>
      </trkpt>
      <trkpt lat="43.33775" lon="5.79064">
        <ele>844.3</ele>
        <time>2025-10-05T08:26:14Z</time>
      </trkpt>
      <trkpt lat="43.33775" lon="5.79064">
        <ele>844.3</ele>
        <time>2025-10-05T08:26:15Z</time>
      </trkpt>
      <trkpt lat="43.33775" lon="5.79064">
        <ele>844.3</ele>
        <time>2025-10-05T08:26:16Z</time>
      </trkpt>
      <trkpt lat="43.33775" lon="5.79064">
        <ele>844.3</ele>
        <time>2025-10-05T08:26:17Z</time>
      </trkpt>
      <trkpt lat="43.33775" lon="5.79064">
        <ele>844.3</ele>
        <time>2025-10-05T08:26:18Z</time>
      </trkpt>
      <trkpt lat="43.33775" lon="5.79064">
        <ele>844.3</ele>
        <time>2025-10-05T08:26:19Z</time>
      </trkpt>
      <trkpt lat="43.33776" lon="5.79064">
        <ele>844.1</ele>
        <time>2025-10-05T08:26:20Z</time>
      </trkpt>
      <trkpt lat="43.33776" lon="5.79063">
        <ele>844.1</ele>
        <time>2025-10-05T08:26:21Z</time>
      </trkpt>
      <trkpt lat="43.33776" lon="5.79064">
        <ele>844.1</ele>
        <time>2025-10-05T08:26:22Z</time>
      </trkpt>
      <trkpt lat="43.33776" lon="5.79064">
        <ele>844</ele>
        <time>2025-10-05T08:26:23Z</time>
      </trkpt>
      <trkpt lat="43.33776" lon="5.79064">
        <ele>843.9</ele>
        <time>2025-10-05T08:26:24Z</time>
      </trkpt>
      <trkpt lat="43.33775" lon="5.79063">
        <ele>843.7</ele>
        <time>2025-10-05T08:26:25Z</time>
      </trkpt>
      <trkpt lat="43.33775" lon="5.79064">
        <ele>843.7</ele>
        <time>2025-10-05T08:26:26Z</time>
      </trkpt>
      <trkpt lat="43.33775" lon="5.79064">
        <ele>843.7</ele>
        <time>2025-10-05T08:26:27Z</time>
      </trkpt>
      <trkpt lat="43.33775" lon="5.79064">
        <ele>843.6</ele>
        <time>2025-10-05T08:26:28Z</time>
      </trkpt>
      <trkpt lat="43.33775" lon="5.79065">
        <ele>843.7</ele>
        <time>2025-10-05T08:26:29Z</time>
      </trkpt>
      <trkpt lat="43.33775" lon="5.79065">
        <ele>843.7</ele>
        <time>2025-10-05T08:26:30Z</time>
      </trkpt>
      <trkpt lat="43.33774" lon="5.79066">
        <ele>843.7</ele>
        <time>2025-10-05T08:26:31Z</time>
      </trkpt>
      <trkpt lat="43.33775" lon="5.79066">
        <ele>843.7</ele>
        <time>2025-10-05T08:26:32Z</time>
      </trkpt>
      <trkpt lat="43.33775" lon="5.79066">
        <ele>843.8</ele>
        <time>2025-10-05T08:26:33Z</time>
      </trkpt>
      <trkpt lat="43.33775" lon="5.79066">
        <ele>843.9</ele>
        <time>2025-10-05T08:26:34Z</time>
      </trkpt>
      <trkpt lat="43.33775" lon="5.79067">
        <ele>844</ele>
        <time>2025-10-05T08:26:35Z</time>
      </trkpt>
      <trkpt lat="43.33776" lon="5.79067">
        <ele>844.1</ele>
        <time>2025-10-05T08:26:36Z</time>
      </trkpt>
      <trkpt lat="43.33776" lon="5.79067">
        <ele>844.2</ele>
        <time>2025-10-05T08:26:37Z</time>
      </trkpt>
      <trkpt lat="43.33776" lon="5.79067">
        <ele>844.1</ele>
        <time>2025-10-05T08:26:38Z</time>
      </trkpt>
      <trkpt lat="43.33776" lon="5.79067">
        <ele>844.1</ele>
        <time>2025-10-05T08:26:39Z</time>
      </trkpt>
      <trkpt lat="43.33776" lon="5.79067">
        <ele>844</ele>
        <time>2025-10-05T08:26:40Z</time>
      </trkpt>
      <trkpt lat="43.33776" lon="5.79068">
        <ele>844</ele>
        <time>2025-10-05T08:26:41Z</time>
      </trkpt>
      <trkpt lat="43.33776" lon="5.79068">
        <ele>843.9</ele>
        <time>2025-10-05T08:26:42Z</time>
      </trkpt>
      <trkpt lat="43.33776" lon="5.79068">
        <ele>843.7</ele>
        <time>2025-10-05T08:26:43Z</time>
      </trkpt>
      <trkpt lat="43.33776" lon="5.79068">
        <ele>843.6</ele>
        <time>2025-10-05T08:26:44Z</time>
      </trkpt>
      <trkpt lat="43.33776" lon="5.79068">
        <ele>843.7</ele>
        <time>2025-10-05T08:26:45Z</time>
      </trkpt>
      <trkpt lat="43.33776" lon="5.79068">
        <ele>843.6</ele>
        <time>2025-10-05T08:26:46Z</time>
      </trkpt>
      <trkpt lat="43.33776" lon="5.79068">
        <ele>843.6</ele>
        <time>2025-10-05T08:26:47Z</time>
      </trkpt>
      <trkpt lat="43.33775" lon="5.79068">
        <ele>843.7</ele>
        <time>2025-10-05T08:26:48Z</time>
      </trkpt>
      <trkpt lat="43.33775" lon="5.79068">
        <ele>843.7</ele>
        <time>2025-10-05T08:26:49Z</time>
      </trkpt>
      <trkpt lat="43.33776" lon="5.79068">
        <ele>843.6</ele>
        <time>2025-10-05T08:26:50Z</time>
      </trkpt>
      <trkpt lat="43.33776" lon="5.79068">
        <ele>843.6</ele>
        <time>2025-10-05T08:26:51Z</time>
      </trkpt>
      <trkpt lat="43.33776" lon="5.79068">
        <ele>843.7</ele>
        <time>2025-10-05T08:26:52Z</time>
      </trkpt>
      <trkpt lat="43.33776" lon="5.79067">
        <ele>844</ele>
        <time>2025-10-05T08:26:53Z</time>
      </trkpt>
      <trkpt lat="43.33775" lon="5.79068">
        <ele>844.3</ele>
        <time>2025-10-05T08:26:54Z</time>
      </trkpt>
      <trkpt lat="43.33776" lon="5.79068">
        <ele>844.6</ele>
        <time>2025-10-05T08:26:55Z</time>
      </trkpt>
      <trkpt lat="43.33775" lon="5.79068">
        <ele>845</ele>
        <time>2025-10-05T08:26:56Z</time>
      </trkpt>
      <trkpt lat="43.33775" lon="5.79068">
        <ele>845.4</ele>
        <time>2025-10-05T08:26:57Z</time>
      </trkpt>
      <trkpt lat="43.33775" lon="5.79068">
        <ele>845.8</ele>
        <time>2025-10-05T08:26:58Z</time>
      </trkpt>
      <trkpt lat="43.33775" lon="5.79067">
        <ele>846.1</ele>
        <time>2025-10-05T08:26:59Z</time>
      </trkpt>
      <trkpt lat="43.33775" lon="5.79067">
        <ele>846.4</ele>
        <time>2025-10-05T08:27:00Z</time>
      </trkpt>
      <trkpt lat="43.33775" lon="5.79067">
        <ele>846.8</ele>
        <time>2025-10-05T08:27:01Z</time>
      </trkpt>
      <trkpt lat="43.33774" lon="5.79067">
        <ele>847</ele>
        <time>2025-10-05T08:27:02Z</time>
      </trkpt>
      <trkpt lat="43.33774" lon="5.79067">
        <ele>847.3</ele>
        <time>2025-10-05T08:27:03Z</time>
      </trkpt>
      <trkpt lat="43.33774" lon="5.79067">
        <ele>847.4</ele>
        <time>2025-10-05T08:27:04Z</time>
      </trkpt>
      <trkpt lat="43.33774" lon="5.79067">
        <ele>847.6</ele>
        <time>2025-10-05T08:27:05Z</time>
      </trkpt>
      <trkpt lat="43.33774" lon="5.79067">
        <ele>847.7</ele>
        <time>2025-10-05T08:27:06Z</time>
      </trkpt>
      <trkpt lat="43.33773" lon="5.79067">
        <ele>847.9</ele>
        <time>2025-10-05T08:27:07Z</time>
      </trkpt>
      <trkpt lat="43.33774" lon="5.79067">
        <ele>847.9</ele>
        <time>2025-10-05T08:27:08Z</time>
      </trkpt>
      <trkpt lat="43.33773" lon="5.79067">
        <ele>848.1</ele>
        <time>2025-10-05T08:27:09Z</time>
      </trkpt>
      <trkpt lat="43.33773" lon="5.79067">
        <ele>848.2</ele>
        <time>2025-10-05T08:27:10Z</time>
      </trkpt>
      <trkpt lat="43.33773" lon="5.79067">
        <ele>848.5</ele>
        <time>2025-10-05T08:27:11Z</time>
      </trkpt>
      <trkpt lat="43.33773" lon="5.79067">
        <ele>848.6</ele>
        <time>2025-10-05T08:27:12Z</time>
      </trkpt>
      <trkpt lat="43.33773" lon="5.79068">
        <ele>848.8</ele>
        <time>2025-10-05T08:27:13Z</time>
      </trkpt>
      <trkpt lat="43.33773" lon="5.79068">
        <ele>849</ele>
        <time>2025-10-05T08:27:14Z</time>
      </trkpt>
      <trkpt lat="43.33773" lon="5.79068">
        <ele>849.1</ele>
        <time>2025-10-05T08:27:15Z</time>
      </trkpt>
      <trkpt lat="43.33773" lon="5.79068">
        <ele>849.3</ele>
        <time>2025-10-05T08:27:16Z</time>
      </trkpt>
      <trkpt lat="43.33773" lon="5.79067">
        <ele>849.4</ele>
        <time>2025-10-05T08:27:17Z</time>
      </trkpt>
      <trkpt lat="43.33773" lon="5.79067">
        <ele>849.5</ele>
        <time>2025-10-05T08:27:18Z</time>
      </trkpt>
      <trkpt lat="43.33772" lon="5.79067">
        <ele>849.5</ele>
        <time>2025-10-05T08:27:19Z</time>
      </trkpt>
      <trkpt lat="43.33772" lon="5.79067">
        <ele>849.5</ele>
        <time>2025-10-05T08:27:20Z</time>
      </trkpt>
      <trkpt lat="43.33773" lon="5.79067">
        <ele>849.5</ele>
        <time>2025-10-05T08:27:21Z</time>
      </trkpt>
      <trkpt lat="43.33773" lon="5.79067">
        <ele>849.6</ele>
        <time>2025-10-05T08:27:22Z</time>
      </trkpt>
      <trkpt lat="43.33773" lon="5.79066">
        <ele>849.6</ele>
        <time>2025-10-05T08:27:23Z</time>
      </trkpt>
      <trkpt lat="43.33773" lon="5.79066">
        <ele>849.7</ele>
        <time>2025-10-05T08:27:24Z</time>
      </trkpt>
      <trkpt lat="43.33773" lon="5.79066">
        <ele>849.8</ele>
        <time>2025-10-05T08:27:25Z</time>
      </trkpt>
      <trkpt lat="43.33773" lon="5.79066">
        <ele>849.8</ele>
        <time>2025-10-05T08:27:26Z</time>
      </trkpt>
      <trkpt lat="43.33773" lon="5.79066">
        <ele>849.8</ele>
        <time>2025-10-05T08:27:27Z</time>
      </trkpt>
      <trkpt lat="43.33772" lon="5.79067">
        <ele>849.8</ele>
        <time>2025-10-05T08:27:28Z</time>
      </trkpt>
      <trkpt lat="43.33772" lon="5.79067">
        <ele>849.8</ele>
        <time>2025-10-05T08:27:29Z</time>
      </trkpt>
      <trkpt lat="43.33772" lon="5.79067">
        <ele>849.9</ele>
        <time>2025-10-05T08:27:30Z</time>
      </trkpt>
      <trkpt lat="43.33772" lon="5.79067">
        <ele>849.9</ele>
        <time>2025-10-05T08:27:31Z</time>
      </trkpt>
      <trkpt lat="43.33772" lon="5.79067">
        <ele>849.9</ele>
        <time>2025-10-05T08:27:32Z</time>
      </trkpt>
      <trkpt lat="43.33772" lon="5.79067">
        <ele>849.9</ele>
        <time>2025-10-05T08:27:33Z</time>
      </trkpt>
      <trkpt lat="43.33772" lon="5.79066">
        <ele>849.8</ele>
        <time>2025-10-05T08:27:34Z</time>
      </trkpt>
      <trkpt lat="43.33772" lon="5.79066">
        <ele>849.9</ele>
        <time>2025-10-05T08:27:35Z</time>
      </trkpt>
      <trkpt lat="43.33772" lon="5.79066">
        <ele>849.8</ele>
        <time>2025-10-05T08:27:36Z</time>
      </trkpt>
      <trkpt lat="43.33772" lon="5.79066">
        <ele>849.8</ele>
        <time>2025-10-05T08:27:37Z</time>
      </trkpt>
      <trkpt lat="43.33772" lon="5.79066">
        <ele>849.8</ele>
        <time>2025-10-05T08:27:38Z</time>
      </trkpt>
      <trkpt lat="43.33772" lon="5.79066">
        <ele>849.8</ele>
        <time>2025-10-05T08:27:39Z</time>
      </trkpt>
      <trkpt lat="43.33771" lon="5.79066">
        <ele>849.8</ele>
        <time>2025-10-05T08:27:40Z</time>
      </trkpt>
      <trkpt lat="43.33771" lon="5.79066">
        <ele>850</ele>
        <time>2025-10-05T08:27:41Z</time>
      </trkpt>
      <trkpt lat="43.33772" lon="5.79066">
        <ele>850.1</ele>
        <time>2025-10-05T08:27:42Z</time>
      </trkpt>
      <trkpt lat="43.33772" lon="5.79066">
        <ele>850.3</ele>
        <time>2025-10-05T08:27:43Z</time>
      </trkpt>
      <trkpt lat="43.33772" lon="5.79067">
        <ele>850.5</ele>
        <time>2025-10-05T08:27:44Z</time>
      </trkpt>
      <trkpt lat="43.33772" lon="5.79067">
        <ele>850.6</ele>
        <time>2025-10-05T08:27:45Z</time>
      </trkpt>
      <trkpt lat="43.33772" lon="5.79067">
        <ele>850.7</ele>
        <time>2025-10-05T08:27:46Z</time>
      </trkpt>
      <trkpt lat="43.33772" lon="5.79067">
        <ele>850.8</ele>
        <time>2025-10-05T08:27:47Z</time>
      </trkpt>
      <trkpt lat="43.33772" lon="5.79067">
        <ele>850.9</ele>
        <time>2025-10-05T08:27:48Z</time>
      </trkpt>
      <trkpt lat="43.33772" lon="5.79067">
        <ele>850.9</ele>
        <time>2025-10-05T08:27:49Z</time>
      </trkpt>
      <trkpt lat="43.33772" lon="5.79067">
        <ele>850.9</ele>
        <time>2025-10-05T08:27:50Z</time>
      </trkpt>
      <trkpt lat="43.33771" lon="5.79068">
        <ele>850.9</ele>
        <time>2025-10-05T08:27:51Z</time>
      </trkpt>
      <trkpt lat="43.33771" lon="5.79069">
        <ele>851</ele>
        <time>2025-10-05T08:27:52Z</time>
      </trkpt>
      <trkpt lat="43.33771" lon="5.7907">
        <ele>851.2</ele>
        <time>2025-10-05T08:27:53Z</time>
      </trkpt>
      <trkpt lat="43.33771" lon="5.7907">
        <ele>851.4</ele>
        <time>2025-10-05T08:27:54Z</time>
      </trkpt>
      <trkpt lat="43.33771" lon="5.79071">
        <ele>851.5</ele>
        <time>2025-10-05T08:27:55Z</time>
      </trkpt>
      <trkpt lat="43.33771" lon="5.79071">
        <ele>851.6</ele>
        <time>2025-10-05T08:27:56Z</time>
      </trkpt>
      <trkpt lat="43.33772" lon="5.79071">
        <ele>851.8</ele>
        <time>2025-10-05T08:27:57Z</time>
      </trkpt>
      <trkpt lat="43.33772" lon="5.79071">
        <ele>851.8</ele>
        <time>2025-10-05T08:27:58Z</time>
      </trkpt>
      <trkpt lat="43.33772" lon="5.79071">
        <ele>851.9</ele>
        <time>2025-10-05T08:27:59Z</time>
      </trkpt>
      <trkpt lat="43.33772" lon="5.79072">
        <ele>852</ele>
        <time>2025-10-05T08:28:00Z</time>
      </trkpt>
      <trkpt lat="43.33772" lon="5.79072">
        <ele>851.9</ele>
        <time>2025-10-05T08:28:01Z</time>
      </trkpt>
      <trkpt lat="43.33772" lon="5.79073">
        <ele>851.9</ele>
        <time>2025-10-05T08:28:02Z</time>
      </trkpt>
      <trkpt lat="43.33772" lon="5.79074">
        <ele>852</ele>
        <time>2025-10-05T08:28:03Z</time>
      </trkpt>
      <trkpt lat="43.33772" lon="5.79074">
        <ele>852.1</ele>
        <time>2025-10-05T08:28:04Z</time>
      </trkpt>
      <trkpt lat="43.33772" lon="5.79075">
        <ele>852.3</ele>
        <time>2025-10-05T08:28:05Z</time>
      </trkpt>
      <trkpt lat="43.33772" lon="5.79076">
        <ele>852.5</ele>
        <time>2025-10-05T08:28:06Z</time>
      </trkpt>
      <trkpt lat="43.33772" lon="5.79077">
        <ele>852.7</ele>
        <time>2025-10-05T08:28:07Z</time>
      </trkpt>
      <trkpt lat="43.33772" lon="5.79078">
        <ele>852.8</ele>
        <time>2025-10-05T08:28:08Z</time>
      </trkpt>
      <trkpt lat="43.33772" lon="5.79078">
        <ele>853</ele>
        <time>2025-10-05T08:28:09Z</time>
      </trkpt>
      <trkpt lat="43.33772" lon="5.79079">
        <ele>853.1</ele>
        <time>2025-10-05T08:28:10Z</time>
      </trkpt>
      <trkpt lat="43.33773" lon="5.79079">
        <ele>853.1</ele>
        <time>2025-10-05T08:28:11Z</time>
      </trkpt>
      <trkpt lat="43.33773" lon="5.79079">
        <ele>853.1</ele>
        <time>2025-10-05T08:28:12Z</time>
      </trkpt>
      <trkpt lat="43.33773" lon="5.79079">
        <ele>853.2</ele>
        <time>2025-10-05T08:28:13Z</time>
      </trkpt>
      <trkpt lat="43.33773" lon="5.79079">
        <ele>853.1</ele>
        <time>2025-10-05T08:28:14Z</time>
      </trkpt>
      <trkpt lat="43.33773" lon="5.7908">
        <ele>853.1</ele>
        <time>2025-10-05T08:28:15Z</time>
      </trkpt>
      <trkpt lat="43.33773" lon="5.7908">
        <ele>853.2</ele>
        <time>2025-10-05T08:28:16Z</time>
      </trkpt>
      <trkpt lat="43.33774" lon="5.7908">
        <ele>853.3</ele>
        <time>2025-10-05T08:28:17Z</time>
      </trkpt>
      <trkpt lat="43.33774" lon="5.79081">
        <ele>853.3</ele>
        <time>2025-10-05T08:28:18Z</time>
      </trkpt>
      <trkpt lat="43.33774" lon="5.79081">
        <ele>853.4</ele>
        <time>2025-10-05T08:28:19Z</time>
      </trkpt>
      <trkpt lat="43.33774" lon="5.79082">
        <ele>853.5</ele>
        <time>2025-10-05T08:28:20Z</time>
      </trkpt>
      <trkpt lat="43.33774" lon="5.79082">
        <ele>853.5</ele>
        <time>2025-10-05T08:28:21Z</time>
      </trkpt>
      <trkpt lat="43.33774" lon="5.79082">
        <ele>853.7</ele>
        <time>2025-10-05T08:28:22Z</time>
      </trkpt>
      <trkpt lat="43.33774" lon="5.79082">
        <ele>853.8</ele>
        <time>2025-10-05T08:28:23Z</time>
      </trkpt>
      <trkpt lat="43.33774" lon="5.79083">
        <ele>854</ele>
        <time>2025-10-05T08:28:24Z</time>
      </trkpt>
      <trkpt lat="43.33774" lon="5.79083">
        <ele>854.1</ele>
        <time>2025-10-05T08:28:25Z</time>
      </trkpt>
      <trkpt lat="43.33773" lon="5.79083">
        <ele>854.4</ele>
        <time>2025-10-05T08:28:26Z</time>
      </trkpt>
      <trkpt lat="43.33773" lon="5.79083">
        <ele>854.6</ele>
        <time>2025-10-05T08:28:27Z</time>
      </trkpt>
      <trkpt lat="43.33773" lon="5.79083">
        <ele>854.7</ele>
        <time>2025-10-05T08:28:28Z</time>
      </trkpt>
      <trkpt lat="43.33773" lon="5.79083">
        <ele>854.8</ele>
        <time>2025-10-05T08:28:29Z</time>
      </trkpt>
      <trkpt lat="43.33773" lon="5.79084">
        <ele>854.9</ele>
        <time>2025-10-05T08:28:30Z</time>
      </trkpt>
      <trkpt lat="43.33772" lon="5.79083">
        <ele>855.1</ele>
        <time>2025-10-05T08:28:31Z</time>
      </trkpt>
      <trkpt lat="43.33772" lon="5.79083">
        <ele>855.3</ele>
        <time>2025-10-05T08:28:32Z</time>
      </trkpt>
      <trkpt lat="43.33772" lon="5.79083">
        <ele>855.5</ele>
        <time>2025-10-05T08:28:33Z</time>
      </trkpt>
      <trkpt lat="43.33772" lon="5.79083">
        <ele>855.7</ele>
        <time>2025-10-05T08:28:34Z</time>
      </trkpt>
      <trkpt lat="43.33772" lon="5.79083">
        <ele>855.9</ele>
        <time>2025-10-05T08:28:35Z</time>
      </trkpt>
      <trkpt lat="43.33772" lon="5.79083">
        <ele>856.1</ele>
        <time>2025-10-05T08:28:36Z</time>
      </trkpt>
      <trkpt lat="43.33772" lon="5.79083">
        <ele>856.1</ele>
        <time>2025-10-05T08:28:37Z</time>
      </trkpt>
      <trkpt lat="43.33771" lon="5.79082">
        <ele>856.1</ele>
        <time>2025-10-05T08:28:38Z</time>
      </trkpt>
      <trkpt lat="43.33771" lon="5.79082">
        <ele>856.3</ele>
        <time>2025-10-05T08:28:39Z</time>
      </trkpt>
      <trkpt lat="43.33771" lon="5.79081">
        <ele>856.5</ele>
        <time>2025-10-05T08:28:40Z</time>
      </trkpt>
      <trkpt lat="43.3377" lon="5.79081">
        <ele>856.8</ele>
        <time>2025-10-05T08:28:41Z</time>
      </trkpt>
      <trkpt lat="43.3377" lon="5.79081">
        <ele>856.9</ele>
        <time>2025-10-05T08:28:42Z</time>
      </trkpt>
      <trkpt lat="43.3377" lon="5.79081">
        <ele>857.1</ele>
        <time>2025-10-05T08:28:43Z</time>
      </trkpt>
      <trkpt lat="43.3377" lon="5.7908">
        <ele>857.4</ele>
        <time>2025-10-05T08:28:44Z</time>
      </trkpt>
      <trkpt lat="43.3377" lon="5.7908">
        <ele>857.7</ele>
        <time>2025-10-05T08:28:45Z</time>
      </trkpt>
      <trkpt lat="43.33769" lon="5.79079">
        <ele>857.9</ele>
        <time>2025-10-05T08:28:46Z</time>
      </trkpt>
      <trkpt lat="43.33769" lon="5.79079">
        <ele>858.1</ele>
        <time>2025-10-05T08:28:47Z</time>
      </trkpt>
      <trkpt lat="43.33768" lon="5.7908">
        <ele>858.2</ele>
        <time>2025-10-05T08:28:48Z</time>
      </trkpt>
      <trkpt lat="43.33768" lon="5.7908">
        <ele>858.4</ele>
        <time>2025-10-05T08:28:49Z</time>
      </trkpt>
      <trkpt lat="43.33768" lon="5.79081">
        <ele>858.7</ele>
        <time>2025-10-05T08:28:50Z</time>
      </trkpt>
      <trkpt lat="43.33768" lon="5.79081">
        <ele>858.9</ele>
        <time>2025-10-05T08:28:51Z</time>
      </trkpt>
      <trkpt lat="43.33768" lon="5.79082">
        <ele>859.3</ele>
        <time>2025-10-05T08:28:52Z</time>
      </trkpt>
      <trkpt lat="43.33768" lon="5.79082">
        <ele>859.5</ele>
        <time>2025-10-05T08:28:53Z</time>
      </trkpt>
      <trkpt lat="43.33769" lon="5.79081">
        <ele>859.8</ele>
        <time>2025-10-05T08:28:54Z</time>
      </trkpt>
      <trkpt lat="43.33769" lon="5.79082">
        <ele>860</ele>
        <time>2025-10-05T08:28:55Z</time>
      </trkpt>
      <trkpt lat="43.33769" lon="5.79082">
        <ele>860.2</ele>
        <time>2025-10-05T08:28:56Z</time>
      </trkpt>
      <trkpt lat="43.33769" lon="5.79081">
        <ele>860.2</ele>
        <time>2025-10-05T08:28:57Z</time>
      </trkpt>
      <trkpt lat="43.33769" lon="5.79081">
        <ele>860.3</ele>
        <time>2025-10-05T08:28:58Z</time>
      </trkpt>
      <trkpt lat="43.33769" lon="5.79082">
        <ele>860.3</ele>
        <time>2025-10-05T08:28:59Z</time>
      </trkpt>
      <trkpt lat="43.33768" lon="5.79082">
        <ele>860.4</ele>
        <time>2025-10-05T08:29:00Z</time>
      </trkpt>
      <trkpt lat="43.33768" lon="5.79082">
        <ele>860.5</ele>
        <time>2025-10-05T08:29:01Z</time>
      </trkpt>
      <trkpt lat="43.33768" lon="5.79083">
        <ele>860.7</ele>
        <time>2025-10-05T08:29:02Z</time>
      </trkpt>
      <trkpt lat="43.33768" lon="5.79083">
        <ele>860.8</ele>
        <time>2025-10-05T08:29:03Z</time>
      </trkpt>
      <trkpt lat="43.33768" lon="5.79083">
        <ele>861</ele>
        <time>2025-10-05T08:29:04Z</time>
      </trkpt>
      <trkpt lat="43.33767" lon="5.79084">
        <ele>861.2</ele>
        <time>2025-10-05T08:29:05Z</time>
      </trkpt>
      <trkpt lat="43.33767" lon="5.79084">
        <ele>861.4</ele>
        <time>2025-10-05T08:29:06Z</time>
      </trkpt>
      <trkpt lat="43.33768" lon="5.79085">
        <ele>861.6</ele>
        <time>2025-10-05T08:29:07Z</time>
      </trkpt>
      <trkpt lat="43.33768" lon="5.79085">
        <ele>861.7</ele>
        <time>2025-10-05T08:29:08Z</time>
      </trkpt>
      <trkpt lat="43.33768" lon="5.79085">
        <ele>861.8</ele>
        <time>2025-10-05T08:29:09Z</time>
      </trkpt>
      <trkpt lat="43.33768" lon="5.79085">
        <ele>861.9</ele>
        <time>2025-10-05T08:29:10Z</time>
      </trkpt>
      <trkpt lat="43.33768" lon="5.79086">
        <ele>861.9</ele>
        <time>2025-10-05T08:29:11Z</time>
      </trkpt>
      <trkpt lat="43.33767" lon="5.79086">
        <ele>862</ele>
        <time>2025-10-05T08:29:12Z</time>
      </trkpt>
      <trkpt lat="43.33767" lon="5.79087">
        <ele>862</ele>
        <time>2025-10-05T08:29:13Z</time>
      </trkpt>
      <trkpt lat="43.33767" lon="5.79088">
        <ele>862.1</ele>
        <time>2025-10-05T08:29:14Z</time>
      </trkpt>
      <trkpt lat="43.33767" lon="5.79089">
        <ele>862.3</ele>
        <time>2025-10-05T08:29:15Z</time>
      </trkpt>
      <trkpt lat="43.33767" lon="5.79091">
        <ele>862.5</ele>
        <time>2025-10-05T08:29:16Z</time>
      </trkpt>
      <trkpt lat="43.33767" lon="5.79091">
        <ele>862.7</ele>
        <time>2025-10-05T08:29:17Z</time>
      </trkpt>
      <trkpt lat="43.33767" lon="5.79091">
        <ele>862.8</ele>
        <time>2025-10-05T08:29:18Z</time>
      </trkpt>
      <trkpt lat="43.33766" lon="5.79092">
        <ele>863</ele>
        <time>2025-10-05T08:29:19Z</time>
      </trkpt>
      <trkpt lat="43.33766" lon="5.79093">
        <ele>863.1</ele>
        <time>2025-10-05T08:29:20Z</time>
      </trkpt>
      <trkpt lat="43.33766" lon="5.79094">
        <ele>863.3</ele>
        <time>2025-10-05T08:29:21Z</time>
      </trkpt>
      <trkpt lat="43.33766" lon="5.79094">
        <ele>863.4</ele>
        <time>2025-10-05T08:29:22Z</time>
      </trkpt>
      <trkpt lat="43.33767" lon="5.79094">
        <ele>863.7</ele>
        <time>2025-10-05T08:29:23Z</time>
      </trkpt>
      <trkpt lat="43.33767" lon="5.79094">
        <ele>863.8</ele>
        <time>2025-10-05T08:29:24Z</time>
      </trkpt>
      <trkpt lat="43.33767" lon="5.79094">
        <ele>863.9</ele>
        <time>2025-10-05T08:29:25Z</time>
      </trkpt>
      <trkpt lat="43.33767" lon="5.79094">
        <ele>863.9</ele>
        <time>2025-10-05T08:29:26Z</time>
      </trkpt>
      <trkpt lat="43.33767" lon="5.79094">
        <ele>863.9</ele>
        <time>2025-10-05T08:29:27Z</time>
      </trkpt>
      <trkpt lat="43.33767" lon="5.79095">
        <ele>863.9</ele>
        <time>2025-10-05T08:29:28Z</time>
      </trkpt>
      <trkpt lat="43.33767" lon="5.79096">
        <ele>863.8</ele>
        <time>2025-10-05T08:29:29Z</time>
      </trkpt>
      <trkpt lat="43.33766" lon="5.79096">
        <ele>863.8</ele>
        <time>2025-10-05T08:29:30Z</time>
      </trkpt>
      <trkpt lat="43.33766" lon="5.79096">
        <ele>863.8</ele>
        <time>2025-10-05T08:29:31Z</time>
      </trkpt>
      <trkpt lat="43.33767" lon="5.79096">
        <ele>863.8</ele>
        <time>2025-10-05T08:29:32Z</time>
      </trkpt>
      <trkpt lat="43.33766" lon="5.79097">
        <ele>863.8</ele>
        <time>2025-10-05T08:29:33Z</time>
      </trkpt>
      <trkpt lat="43.33767" lon="5.79097">
        <ele>863.9</ele>
        <time>2025-10-05T08:29:34Z</time>
      </trkpt>
      <trkpt lat="43.33767" lon="5.79097">
        <ele>863.7</ele>
        <time>2025-10-05T08:29:35Z</time>
      </trkpt>
      <trkpt lat="43.33767" lon="5.79097">
        <ele>863.8</ele>
        <time>2025-10-05T08:29:36Z</time>
      </trkpt>
      <trkpt lat="43.33767" lon="5.79098">
        <ele>863.8</ele>
        <time>2025-10-05T08:29:37Z</time>
      </trkpt>
      <trkpt lat="43.33768" lon="5.79098">
        <ele>863.8</ele>
        <time>2025-10-05T08:29:38Z</time>
      </trkpt>
      <trkpt lat="43.33768" lon="5.79099">
        <ele>863.8</ele>
        <time>2025-10-05T08:29:39Z</time>
      </trkpt>
      <trkpt lat="43.33768" lon="5.79099">
        <ele>863.9</ele>
        <time>2025-10-05T08:29:40Z</time>
      </trkpt>
      <trkpt lat="43.33767" lon="5.79099">
        <ele>863.9</ele>
        <time>2025-10-05T08:29:41Z</time>
      </trkpt>
      <trkpt lat="43.33767" lon="5.79099">
        <ele>863.9</ele>
        <time>2025-10-05T08:29:42Z</time>
      </trkpt>
      <trkpt lat="43.33768" lon="5.79099">
        <ele>864</ele>
        <time>2025-10-05T08:29:43Z</time>
      </trkpt>
      <trkpt lat="43.33767" lon="5.791">
        <ele>863.9</ele>
        <time>2025-10-05T08:29:44Z</time>
      </trkpt>
      <trkpt lat="43.33767" lon="5.791">
        <ele>863.8</ele>
        <time>2025-10-05T08:29:45Z</time>
      </trkpt>
      <trkpt lat="43.33767" lon="5.791">
        <ele>863.8</ele>
        <time>2025-10-05T08:29:46Z</time>
      </trkpt>
      <trkpt lat="43.33767" lon="5.791">
        <ele>863.8</ele>
        <time>2025-10-05T08:29:47Z</time>
      </trkpt>
      <trkpt lat="43.33767" lon="5.791">
        <ele>863.8</ele>
        <time>2025-10-05T08:29:48Z</time>
      </trkpt>
      <trkpt lat="43.33767" lon="5.79101">
        <ele>863.8</ele>
        <time>2025-10-05T08:29:49Z</time>
      </trkpt>
      <trkpt lat="43.33767" lon="5.79101">
        <ele>863.7</ele>
        <time>2025-10-05T08:29:50Z</time>
      </trkpt>
      <trkpt lat="43.33767" lon="5.79101">
        <ele>863.7</ele>
        <time>2025-10-05T08:29:51Z</time>
      </trkpt>
      <trkpt lat="43.33767" lon="5.79101">
        <ele>863.8</ele>
        <time>2025-10-05T08:29:52Z</time>
      </trkpt>
      <trkpt lat="43.33767" lon="5.79101">
        <ele>863.9</ele>
        <time>2025-10-05T08:29:53Z</time>
      </trkpt>
      <trkpt lat="43.33767" lon="5.79101">
        <ele>864.1</ele>
        <time>2025-10-05T08:29:54Z</time>
      </trkpt>
      <trkpt lat="43.33766" lon="5.79101">
        <ele>864.2</ele>
        <time>2025-10-05T08:29:55Z</time>
      </trkpt>
      <trkpt lat="43.33767" lon="5.79102">
        <ele>864.3</ele>
        <time>2025-10-05T08:29:56Z</time>
      </trkpt>
      <trkpt lat="43.33767" lon="5.79102">
        <ele>864.4</ele>
        <time>2025-10-05T08:29:57Z</time>
      </trkpt>
      <trkpt lat="43.33767" lon="5.79103">
        <ele>864.6</ele>
        <time>2025-10-05T08:29:58Z</time>
      </trkpt>
      <trkpt lat="43.33767" lon="5.79104">
        <ele>864.8</ele>
        <time>2025-10-05T08:29:59Z</time>
      </trkpt>
      <trkpt lat="43.33767" lon="5.79104">
        <ele>864.9</ele>
        <time>2025-10-05T08:30:00Z</time>
      </trkpt>
      <trkpt lat="43.33767" lon="5.79104">
        <ele>865</ele>
        <time>2025-10-05T08:30:01Z</time>
      </trkpt>
      <trkpt lat="43.33767" lon="5.79104">
        <ele>865.1</ele>
        <time>2025-10-05T08:30:02Z</time>
      </trkpt>
      <trkpt lat="43.33767" lon="5.79105">
        <ele>865.2</ele>
        <time>2025-10-05T08:30:03Z</time>
      </trkpt>
      <trkpt lat="43.33766" lon="5.79105">
        <ele>865.2</ele>
        <time>2025-10-05T08:30:04Z</time>
      </trkpt>
      <trkpt lat="43.33766" lon="5.79105">
        <ele>865.3</ele>
        <time>2025-10-05T08:30:05Z</time>
      </trkpt>
      <trkpt lat="43.33766" lon="5.79106">
        <ele>865.4</ele>
        <time>2025-10-05T08:30:06Z</time>
      </trkpt>
      <trkpt lat="43.33766" lon="5.79106">
        <ele>865.5</ele>
        <time>2025-10-05T08:30:07Z</time>
      </trkpt>
      <trkpt lat="43.33767" lon="5.79105">
        <ele>865.6</ele>
        <time>2025-10-05T08:30:08Z</time>
      </trkpt>
      <trkpt lat="43.33767" lon="5.79105">
        <ele>865.7</ele>
        <time>2025-10-05T08:30:09Z</time>
      </trkpt>
      <trkpt lat="43.33767" lon="5.79104">
        <ele>865.7</ele>
        <time>2025-10-05T08:30:10Z</time>
      </trkpt>
      <trkpt lat="43.33767" lon="5.79104">
        <ele>865.9</ele>
        <time>2025-10-05T08:30:11Z</time>
      </trkpt>
      <trkpt lat="43.33767" lon="5.79105">
        <ele>865.9</ele>
        <time>2025-10-05T08:30:12Z</time>
      </trkpt>
      <trkpt lat="43.33767" lon="5.79104">
        <ele>866</ele>
        <time>2025-10-05T08:30:13Z</time>
      </trkpt>
      <trkpt lat="43.33767" lon="5.79104">
        <ele>866</ele>
        <time>2025-10-05T08:30:14Z</time>
      </trkpt>
      <trkpt lat="43.33767" lon="5.79104">
        <ele>866.1</ele>
        <time>2025-10-05T08:30:15Z</time>
      </trkpt>
      <trkpt lat="43.33767" lon="5.79104">
        <ele>866.1</ele>
        <time>2025-10-05T08:30:16Z</time>
      </trkpt>
      <trkpt lat="43.33768" lon="5.79104">
        <ele>866.1</ele>
        <time>2025-10-05T08:30:17Z</time>
      </trkpt>
      <trkpt lat="43.33768" lon="5.79104">
        <ele>866.1</ele>
        <time>2025-10-05T08:30:18Z</time>
      </trkpt>
      <trkpt lat="43.33767" lon="5.79104">
        <ele>866.1</ele>
        <time>2025-10-05T08:30:19Z</time>
      </trkpt>
      <trkpt lat="43.33767" lon="5.79104">
        <ele>866.2</ele>
        <time>2025-10-05T08:30:20Z</time>
      </trkpt>
      <trkpt lat="43.33768" lon="5.79104">
        <ele>866.2</ele>
        <time>2025-10-05T08:30:21Z</time>
      </trkpt>
      <trkpt lat="43.33768" lon="5.79104">
        <ele>866.3</ele>
        <time>2025-10-05T08:30:22Z</time>
      </trkpt>
      <trkpt lat="43.33768" lon="5.79104">
        <ele>866.3</ele>
        <time>2025-10-05T08:30:23Z</time>
      </trkpt>
      <trkpt lat="43.33767" lon="5.79104">
        <ele>866.3</ele>
        <time>2025-10-05T08:30:24Z</time>
      </trkpt>
      <trkpt lat="43.33767" lon="5.79104">
        <ele>866.4</ele>
        <time>2025-10-05T08:30:25Z</time>
      </trkpt>
      <trkpt lat="43.33767" lon="5.79105">
        <ele>866.4</ele>
        <time>2025-10-05T08:30:26Z</time>
      </trkpt>
      <trkpt lat="43.33767" lon="5.79105">
        <ele>866.4</ele>
        <time>2025-10-05T08:30:27Z</time>
      </trkpt>
      <trkpt lat="43.33767" lon="5.79105">
        <ele>866.4</ele>
        <time>2025-10-05T08:30:28Z</time>
      </trkpt>
      <trkpt lat="43.33767" lon="5.79105">
        <ele>866.3</ele>
        <time>2025-10-05T08:30:29Z</time>
      </trkpt>
      <trkpt lat="43.33767" lon="5.79105">
        <ele>866.3</ele>
        <time>2025-10-05T08:30:30Z</time>
      </trkpt>
      <trkpt lat="43.33767" lon="5.79106">
        <ele>866.2</ele>
        <time>2025-10-05T08:30:31Z</time>
      </trkpt>
      <trkpt lat="43.33767" lon="5.79106">
        <ele>866.3</ele>
        <time>2025-10-05T08:30:32Z</time>
      </trkpt>
      <trkpt lat="43.33767" lon="5.79106">
        <ele>866.3</ele>
        <time>2025-10-05T08:30:33Z</time>
      </trkpt>
      <trkpt lat="43.33767" lon="5.79106">
        <ele>866.4</ele>
        <time>2025-10-05T08:30:34Z</time>
      </trkpt>
      <trkpt lat="43.33768" lon="5.79105">
        <ele>866.5</ele>
        <time>2025-10-05T08:30:35Z</time>
      </trkpt>
      <trkpt lat="43.33768" lon="5.79105">
        <ele>866.6</ele>
        <time>2025-10-05T08:30:36Z</time>
      </trkpt>
      <trkpt lat="43.33768" lon="5.79106">
        <ele>866.7</ele>
        <time>2025-10-05T08:30:37Z</time>
      </trkpt>
      <trkpt lat="43.33768" lon="5.79106">
        <ele>866.9</ele>
        <time>2025-10-05T08:30:38Z</time>
      </trkpt>
      <trkpt lat="43.33768" lon="5.79106">
        <ele>867</ele>
        <time>2025-10-05T08:30:39Z</time>
      </trkpt>
      <trkpt lat="43.33768" lon="5.79106">
        <ele>867.2</ele>
        <time>2025-10-05T08:30:40Z</time>
      </trkpt>
      <trkpt lat="43.33768" lon="5.79106">
        <ele>867.6</ele>
        <time>2025-10-05T08:30:41Z</time>
      </trkpt>
      <trkpt lat="43.33768" lon="5.79106">
        <ele>867.8</ele>
        <time>2025-10-05T08:30:42Z</time>
      </trkpt>
      <trkpt lat="43.33768" lon="5.79106">
        <ele>868</ele>
        <time>2025-10-05T08:30:43Z</time>
      </trkpt>
      <trkpt lat="43.33768" lon="5.79106">
        <ele>868.1</ele>
        <time>2025-10-05T08:30:44Z</time>
      </trkpt>
      <trkpt lat="43.33767" lon="5.79106">
        <ele>868</ele>
        <time>2025-10-05T08:30:45Z</time>
      </trkpt>
      <trkpt lat="43.33768" lon="5.79106">
        <ele>868</ele>
        <time>2025-10-05T08:30:46Z</time>
      </trkpt>
      <trkpt lat="43.33767" lon="5.79107">
        <ele>868.1</ele>
        <time>2025-10-05T08:30:47Z</time>
      </trkpt>
      <trkpt lat="43.33768" lon="5.79107">
        <ele>868.2</ele>
        <time>2025-10-05T08:30:48Z</time>
      </trkpt>
      <trkpt lat="43.33767" lon="5.79108">
        <ele>868.3</ele>
        <time>2025-10-05T08:30:49Z</time>
      </trkpt>
      <trkpt lat="43.33767" lon="5.79108">
        <ele>868.4</ele>
        <time>2025-10-05T08:30:50Z</time>
      </trkpt>
      <trkpt lat="43.33766" lon="5.79108">
        <ele>868.5</ele>
        <time>2025-10-05T08:30:51Z</time>
      </trkpt>
      <trkpt lat="43.33766" lon="5.79109">
        <ele>868.7</ele>
        <time>2025-10-05T08:30:52Z</time>
      </trkpt>
      <trkpt lat="43.33766" lon="5.7911">
        <ele>869</ele>
        <time>2025-10-05T08:30:53Z</time>
      </trkpt>
      <trkpt lat="43.33765" lon="5.79111">
        <ele>869.3</ele>
        <time>2025-10-05T08:30:54Z</time>
      </trkpt>
      <trkpt lat="43.33765" lon="5.79112">
        <ele>869.5</ele>
        <time>2025-10-05T08:30:55Z</time>
      </trkpt>
      <trkpt lat="43.33765" lon="5.79113">
        <ele>869.7</ele>
        <time>2025-10-05T08:30:56Z</time>
      </trkpt>
      <trkpt lat="43.33765" lon="5.79113">
        <ele>870</ele>
        <time>2025-10-05T08:30:57Z</time>
      </trkpt>
      <trkpt lat="43.33765" lon="5.79114">
        <ele>870.2</ele>
        <time>2025-10-05T08:30:58Z</time>
      </trkpt>
      <trkpt lat="43.33765" lon="5.79114">
        <ele>870.4</ele>
        <time>2025-10-05T08:30:59Z</time>
      </trkpt>
      <trkpt lat="43.33765" lon="5.79114">
        <ele>870.7</ele>
        <time>2025-10-05T08:31:00Z</time>
      </trkpt>
      <trkpt lat="43.33765" lon="5.79114">
        <ele>871</ele>
        <time>2025-10-05T08:31:01Z</time>
      </trkpt>
      <trkpt lat="43.33765" lon="5.79114">
        <ele>871.1</ele>
        <time>2025-10-05T08:31:02Z</time>
      </trkpt>
      <trkpt lat="43.33765" lon="5.79114">
        <ele>871.2</ele>
        <time>2025-10-05T08:31:03Z</time>
      </trkpt>
      <trkpt lat="43.33766" lon="5.79113">
        <ele>871.4</ele>
        <time>2025-10-05T08:31:04Z</time>
      </trkpt>
      <trkpt lat="43.33766" lon="5.79113">
        <ele>871.5</ele>
        <time>2025-10-05T08:31:05Z</time>
      </trkpt>
      <trkpt lat="43.33766" lon="5.79113">
        <ele>871.7</ele>
        <time>2025-10-05T08:31:06Z</time>
      </trkpt>
      <trkpt lat="43.33766" lon="5.79113">
        <ele>871.8</ele>
        <time>2025-10-05T08:31:07Z</time>
      </trkpt>
      <trkpt lat="43.33767" lon="5.79114">
        <ele>872</ele>
        <time>2025-10-05T08:31:08Z</time>
      </trkpt>
      <trkpt lat="43.33767" lon="5.79114">
        <ele>872.1</ele>
        <time>2025-10-05T08:31:09Z</time>
      </trkpt>
      <trkpt lat="43.33767" lon="5.79114">
        <ele>872.2</ele>
        <time>2025-10-05T08:31:10Z</time>
      </trkpt>
      <trkpt lat="43.33767" lon="5.79114">
        <ele>872.3</ele>
        <time>2025-10-05T08:31:11Z</time>
      </trkpt>
      <trkpt lat="43.33767" lon="5.79114">
        <ele>872.3</ele>
        <time>2025-10-05T08:31:12Z</time>
      </trkpt>
      <trkpt lat="43.33767" lon="5.79114">
        <ele>872.3</ele>
        <time>2025-10-05T08:31:13Z</time>
      </trkpt>
      <trkpt lat="43.33767" lon="5.79114">
        <ele>872.4</ele>
        <time>2025-10-05T08:31:14Z</time>
      </trkpt>
      <trkpt lat="43.33767" lon="5.79114">
        <ele>872.5</ele>
        <time>2025-10-05T08:31:15Z</time>
      </trkpt>
      <trkpt lat="43.33767" lon="5.79114">
        <ele>872.6</ele>
        <time>2025-10-05T08:31:16Z</time>
      </trkpt>
      <trkpt lat="43.33766" lon="5.79114">
        <ele>872.7</ele>
        <time>2025-10-05T08:31:17Z</time>
      </trkpt>
      <trkpt lat="43.33766" lon="5.79114">
        <ele>872.8</ele>
        <time>2025-10-05T08:31:18Z</time>
      </trkpt>
      <trkpt lat="43.33765" lon="5.79115">
        <ele>873</ele>
        <time>2025-10-05T08:31:19Z</time>
      </trkpt>
      <trkpt lat="43.33764" lon="5.79116">
        <ele>873.1</ele>
        <time>2025-10-05T08:31:20Z</time>
      </trkpt>
      <trkpt lat="43.33764" lon="5.79116">
        <ele>873.2</ele>
        <time>2025-10-05T08:31:21Z</time>
      </trkpt>
      <trkpt lat="43.33764" lon="5.79116">
        <ele>873.2</ele>
        <time>2025-10-05T08:31:22Z</time>
      </trkpt>
      <trkpt lat="43.33764" lon="5.79116">
        <ele>873.4</ele>
        <time>2025-10-05T08:31:23Z</time>
      </trkpt>
      <trkpt lat="43.33763" lon="5.79116">
        <ele>873.6</ele>
        <time>2025-10-05T08:31:24Z</time>
      </trkpt>
      <trkpt lat="43.33763" lon="5.79117">
        <ele>873.8</ele>
        <time>2025-10-05T08:31:25Z</time>
      </trkpt>
      <trkpt lat="43.33763" lon="5.79117">
        <ele>874</ele>
        <time>2025-10-05T08:31:26Z</time>
      </trkpt>
      <trkpt lat="43.33762" lon="5.79118">
        <ele>874.3</ele>
        <time>2025-10-05T08:31:27Z</time>
      </trkpt>
      <trkpt lat="43.33762" lon="5.79118">
        <ele>874.4</ele>
        <time>2025-10-05T08:31:28Z</time>
      </trkpt>
      <trkpt lat="43.33762" lon="5.79118">
        <ele>874.6</ele>
        <time>2025-10-05T08:31:29Z</time>
      </trkpt>
      <trkpt lat="43.33761" lon="5.79118">
        <ele>874.8</ele>
        <time>2025-10-05T08:31:30Z</time>
      </trkpt>
      <trkpt lat="43.3376" lon="5.79118">
        <ele>875.1</ele>
        <time>2025-10-05T08:31:31Z</time>
      </trkpt>
      <trkpt lat="43.3376" lon="5.79119">
        <ele>875.3</ele>
        <time>2025-10-05T08:31:32Z</time>
      </trkpt>
      <trkpt lat="43.3376" lon="5.79119">
        <ele>875.5</ele>
        <time>2025-10-05T08:31:33Z</time>
      </trkpt>
      <trkpt lat="43.3376" lon="5.79119">
        <ele>875.7</ele>
        <time>2025-10-05T08:31:34Z</time>
      </trkpt>
      <trkpt lat="43.3376" lon="5.79119">
        <ele>875.9</ele>
        <time>2025-10-05T08:31:35Z</time>
      </trkpt>
      <trkpt lat="43.3376" lon="5.79119">
        <ele>876.1</ele>
        <time>2025-10-05T08:31:36Z</time>
      </trkpt>
      <trkpt lat="43.3376" lon="5.79119">
        <ele>876.2</ele>
        <time>2025-10-05T08:31:37Z</time>
      </trkpt>
      <trkpt lat="43.3376" lon="5.7912">
        <ele>876.4</ele>
        <time>2025-10-05T08:31:38Z</time>
      </trkpt>
      <trkpt lat="43.3376" lon="5.7912">
        <ele>876.5</ele>
        <time>2025-10-05T08:31:39Z</time>
      </trkpt>
      <trkpt lat="43.3376" lon="5.7912">
        <ele>876.6</ele>
        <time>2025-10-05T08:31:40Z</time>
      </trkpt>
      <trkpt lat="43.33759" lon="5.7912">
        <ele>876.7</ele>
        <time>2025-10-05T08:31:41Z</time>
      </trkpt>
      <trkpt lat="43.33759" lon="5.7912">
        <ele>877</ele>
        <time>2025-10-05T08:31:42Z</time>
      </trkpt>
      <trkpt lat="43.33759" lon="5.7912">
        <ele>877.4</ele>
        <time>2025-10-05T08:31:43Z</time>
      </trkpt>
      <trkpt lat="43.33759" lon="5.7912">
        <ele>877.6</ele>
        <time>2025-10-05T08:31:44Z</time>
      </trkpt>
      <trkpt lat="43.33759" lon="5.79119">
        <ele>878</ele>
        <time>2025-10-05T08:31:45Z</time>
      </trkpt>
      <trkpt lat="43.33759" lon="5.79119">
        <ele>878.3</ele>
        <time>2025-10-05T08:31:46Z</time>
      </trkpt>
      <trkpt lat="43.33758" lon="5.79119">
        <ele>878.6</ele>
        <time>2025-10-05T08:31:47Z</time>
      </trkpt>
      <trkpt lat="43.33758" lon="5.79119">
        <ele>878.9</ele>
        <time>2025-10-05T08:31:48Z</time>
      </trkpt>
      <trkpt lat="43.33758" lon="5.79119">
        <ele>879</ele>
        <time>2025-10-05T08:31:49Z</time>
      </trkpt>
      <trkpt lat="43.33758" lon="5.79119">
        <ele>879.1</ele>
        <time>2025-10-05T08:31:50Z</time>
      </trkpt>
      <trkpt lat="43.33758" lon="5.79119">
        <ele>879.4</ele>
        <time>2025-10-05T08:31:51Z</time>
      </trkpt>
      <trkpt lat="43.33757" lon="5.7912">
        <ele>879.4</ele>
        <time>2025-10-05T08:31:52Z</time>
      </trkpt>
      <trkpt lat="43.33757" lon="5.7912">
        <ele>879.6</ele>
        <time>2025-10-05T08:31:53Z</time>
      </trkpt>
      <trkpt lat="43.33757" lon="5.7912">
        <ele>879.7</ele>
        <time>2025-10-05T08:31:54Z</time>
      </trkpt>
      <trkpt lat="43.33758" lon="5.7912">
        <ele>879.8</ele>
        <time>2025-10-05T08:31:55Z</time>
      </trkpt>
      <trkpt lat="43.33757" lon="5.7912">
        <ele>879.9</ele>
        <time>2025-10-05T08:31:56Z</time>
      </trkpt>
      <trkpt lat="43.33758" lon="5.7912">
        <ele>879.8</ele>
        <time>2025-10-05T08:31:57Z</time>
      </trkpt>
      <trkpt lat="43.33758" lon="5.7912">
        <ele>879.8</ele>
        <time>2025-10-05T08:31:58Z</time>
      </trkpt>
      <trkpt lat="43.33757" lon="5.7912">
        <ele>879.9</ele>
        <time>2025-10-05T08:31:59Z</time>
      </trkpt>
      <trkpt lat="43.33757" lon="5.7912">
        <ele>880</ele>
        <time>2025-10-05T08:32:00Z</time>
      </trkpt>
      <trkpt lat="43.33757" lon="5.7912">
        <ele>880.2</ele>
        <time>2025-10-05T08:32:01Z</time>
      </trkpt>
      <trkpt lat="43.33756" lon="5.79119">
        <ele>880.4</ele>
        <time>2025-10-05T08:32:02Z</time>
      </trkpt>
      <trkpt lat="43.33756" lon="5.79119">
        <ele>880.7</ele>
        <time>2025-10-05T08:32:03Z</time>
      </trkpt>
      <trkpt lat="43.33756" lon="5.79118">
        <ele>880.9</ele>
        <time>2025-10-05T08:32:04Z</time>
      </trkpt>
      <trkpt lat="43.33756" lon="5.79118">
        <ele>881.1</ele>
        <time>2025-10-05T08:32:05Z</time>
      </trkpt>
      <trkpt lat="43.33756" lon="5.79118">
        <ele>881.2</ele>
        <time>2025-10-05T08:32:06Z</time>
      </trkpt>
      <trkpt lat="43.33756" lon="5.79117">
        <ele>881.3</ele>
        <time>2025-10-05T08:32:07Z</time>
      </trkpt>
      <trkpt lat="43.33756" lon="5.79117">
        <ele>881.4</ele>
        <time>2025-10-05T08:32:08Z</time>
      </trkpt>
      <trkpt lat="43.33755" lon="5.79117">
        <ele>881.3</ele>
        <time>2025-10-05T08:32:09Z</time>
      </trkpt>
      <trkpt lat="43.33755" lon="5.79117">
        <ele>881.2</ele>
        <time>2025-10-05T08:32:10Z</time>
      </trkpt>
      <trkpt lat="43.33755" lon="5.79116">
        <ele>881.4</ele>
        <time>2025-10-05T08:32:11Z</time>
      </trkpt>
      <trkpt lat="43.33755" lon="5.79116">
        <ele>881.4</ele>
        <time>2025-10-05T08:32:12Z</time>
      </trkpt>
      <trkpt lat="43.33755" lon="5.79116">
        <ele>881.3</ele>
        <time>2025-10-05T08:32:13Z</time>
      </trkpt>
      <trkpt lat="43.33755" lon="5.79116">
        <ele>881.2</ele>
        <time>2025-10-05T08:32:14Z</time>
      </trkpt>
      <trkpt lat="43.33754" lon="5.79116">
        <ele>881.2</ele>
        <time>2025-10-05T08:32:15Z</time>
      </trkpt>
      <trkpt lat="43.33754" lon="5.79116">
        <ele>881.1</ele>
        <time>2025-10-05T08:32:16Z</time>
      </trkpt>
      <trkpt lat="43.33754" lon="5.79116">
        <ele>881.2</ele>
        <time>2025-10-05T08:32:17Z</time>
      </trkpt>
      <trkpt lat="43.33754" lon="5.79116">
        <ele>881.5</ele>
        <time>2025-10-05T08:32:18Z</time>
      </trkpt>
      <trkpt lat="43.33754" lon="5.79116">
        <ele>881.8</ele>
        <time>2025-10-05T08:32:19Z</time>
      </trkpt>
      <trkpt lat="43.33754" lon="5.79116">
        <ele>881.9</ele>
        <time>2025-10-05T08:32:20Z</time>
      </trkpt>
      <trkpt lat="43.33754" lon="5.79116">
        <ele>882.1</ele>
        <time>2025-10-05T08:32:21Z</time>
      </trkpt>
      <trkpt lat="43.33754" lon="5.79116">
        <ele>882.3</ele>
        <time>2025-10-05T08:32:22Z</time>
      </trkpt>
      <trkpt lat="43.33754" lon="5.79116">
        <ele>882.6</ele>
        <time>2025-10-05T08:32:23Z</time>
      </trkpt>
      <trkpt lat="43.33754" lon="5.79116">
        <ele>882.9</ele>
        <time>2025-10-05T08:32:24Z</time>
      </trkpt>
      <trkpt lat="43.33754" lon="5.79116">
        <ele>883.3</ele>
        <time>2025-10-05T08:32:25Z</time>
      </trkpt>
      <trkpt lat="43.33754" lon="5.79117">
        <ele>883.8</ele>
        <time>2025-10-05T08:32:26Z</time>
      </trkpt>
      <trkpt lat="43.33754" lon="5.79117">
        <ele>884.2</ele>
        <time>2025-10-05T08:32:27Z</time>
      </trkpt>
      <trkpt lat="43.33753" lon="5.79117">
        <ele>884.5</ele>
        <time>2025-10-05T08:32:28Z</time>
      </trkpt>
      <trkpt lat="43.33753" lon="5.79117">
        <ele>884.7</ele>
        <time>2025-10-05T08:32:29Z</time>
      </trkpt>
      <trkpt lat="43.33753" lon="5.79117">
        <ele>884.9</ele>
        <time>2025-10-05T08:32:30Z</time>
      </trkpt>
      <trkpt lat="43.33753" lon="5.79116">
        <ele>885.2</ele>
        <time>2025-10-05T08:32:31Z</time>
      </trkpt>
      <trkpt lat="43.33752" lon="5.79116">
        <ele>885.4</ele>
        <time>2025-10-05T08:32:32Z</time>
      </trkpt>
      <trkpt lat="43.33752" lon="5.79115">
        <ele>885.5</ele>
        <time>2025-10-05T08:32:33Z</time>
      </trkpt>
      <trkpt lat="43.33752" lon="5.79114">
        <ele>885.5</ele>
        <time>2025-10-05T08:32:34Z</time>
      </trkpt>
      <trkpt lat="43.33752" lon="5.79114">
        <ele>885.6</ele>
        <time>2025-10-05T08:32:35Z</time>
      </trkpt>
      <trkpt lat="43.33752" lon="5.79114">
        <ele>885.7</ele>
        <time>2025-10-05T08:32:36Z</time>
      </trkpt>
      <trkpt lat="43.33752" lon="5.79114">
        <ele>885.7</ele>
        <time>2025-10-05T08:32:37Z</time>
      </trkpt>
      <trkpt lat="43.33752" lon="5.79114">
        <ele>885.8</ele>
        <time>2025-10-05T08:32:38Z</time>
      </trkpt>
      <trkpt lat="43.33752" lon="5.79114">
        <ele>885.9</ele>
        <time>2025-10-05T08:32:39Z</time>
      </trkpt>
      <trkpt lat="43.33752" lon="5.79114">
        <ele>886</ele>
        <time>2025-10-05T08:32:40Z</time>
      </trkpt>
      <trkpt lat="43.33752" lon="5.79114">
        <ele>886.2</ele>
        <time>2025-10-05T08:32:41Z</time>
      </trkpt>
      <trkpt lat="43.33752" lon="5.79114">
        <ele>886.3</ele>
        <time>2025-10-05T08:32:42Z</time>
      </trkpt>
      <trkpt lat="43.33752" lon="5.79115">
        <ele>886.3</ele>
        <time>2025-10-05T08:32:43Z</time>
      </trkpt>
      <trkpt lat="43.33752" lon="5.79114">
        <ele>886.3</ele>
        <time>2025-10-05T08:32:44Z</time>
      </trkpt>
      <trkpt lat="43.33752" lon="5.79114">
        <ele>886.3</ele>
        <time>2025-10-05T08:32:45Z</time>
      </trkpt>
      <trkpt lat="43.33752" lon="5.79113">
        <ele>886.3</ele>
        <time>2025-10-05T08:32:46Z</time>
      </trkpt>
      <trkpt lat="43.33752" lon="5.79112">
        <ele>886.4</ele>
        <time>2025-10-05T08:32:47Z</time>
      </trkpt>
      <trkpt lat="43.33752" lon="5.79112">
        <ele>886.4</ele>
        <time>2025-10-05T08:32:48Z</time>
      </trkpt>
      <trkpt lat="43.33752" lon="5.79112">
        <ele>886.5</ele>
        <time>2025-10-05T08:32:49Z</time>
      </trkpt>
      <trkpt lat="43.33753" lon="5.79111">
        <ele>886.5</ele>
        <time>2025-10-05T08:32:50Z</time>
      </trkpt>
      <trkpt lat="43.33753" lon="5.79111">
        <ele>886.6</ele>
        <time>2025-10-05T08:32:51Z</time>
      </trkpt>
      <trkpt lat="43.33753" lon="5.79111">
        <ele>886.6</ele>
        <time>2025-10-05T08:32:52Z</time>
      </trkpt>
      <trkpt lat="43.33753" lon="5.79111">
        <ele>886.7</ele>
        <time>2025-10-05T08:32:53Z</time>
      </trkpt>
      <trkpt lat="43.33752" lon="5.79112">
        <ele>886.7</ele>
        <time>2025-10-05T08:32:54Z</time>
      </trkpt>
      <trkpt lat="43.33752" lon="5.79112">
        <ele>886.8</ele>
        <time>2025-10-05T08:32:55Z</time>
      </trkpt>
      <trkpt lat="43.33752" lon="5.79112">
        <ele>886.9</ele>
        <time>2025-10-05T08:32:56Z</time>
      </trkpt>
      <trkpt lat="43.33752" lon="5.79111">
        <ele>886.9</ele>
        <time>2025-10-05T08:32:57Z</time>
      </trkpt>
      <trkpt lat="43.33751" lon="5.79111">
        <ele>887.1</ele>
        <time>2025-10-05T08:32:58Z</time>
      </trkpt>
      <trkpt lat="43.33751" lon="5.79111">
        <ele>887.2</ele>
        <time>2025-10-05T08:32:59Z</time>
      </trkpt>
      <trkpt lat="43.33751" lon="5.7911">
        <ele>887.3</ele>
        <time>2025-10-05T08:33:00Z</time>
      </trkpt>
      <trkpt lat="43.33751" lon="5.7911">
        <ele>887.3</ele>
        <time>2025-10-05T08:33:01Z</time>
      </trkpt>
      <trkpt lat="43.3375" lon="5.7911">
        <ele>887.4</ele>
        <time>2025-10-05T08:33:02Z</time>
      </trkpt>
      <trkpt lat="43.33751" lon="5.7911">
        <ele>887.6</ele>
        <time>2025-10-05T08:33:03Z</time>
      </trkpt>
      <trkpt lat="43.3375" lon="5.7911">
        <ele>887.8</ele>
        <time>2025-10-05T08:33:04Z</time>
      </trkpt>
      <trkpt lat="43.3375" lon="5.7911">
        <ele>887.9</ele>
        <time>2025-10-05T08:33:05Z</time>
      </trkpt>
      <trkpt lat="43.3375" lon="5.7911">
        <ele>888.1</ele>
        <time>2025-10-05T08:33:06Z</time>
      </trkpt>
      <trkpt lat="43.33749" lon="5.79111">
        <ele>888.2</ele>
        <time>2025-10-05T08:33:07Z</time>
      </trkpt>
      <trkpt lat="43.33749" lon="5.79111">
        <ele>888.5</ele>
        <time>2025-10-05T08:33:08Z</time>
      </trkpt>
      <trkpt lat="43.33749" lon="5.79112">
        <ele>888.7</ele>
        <time>2025-10-05T08:33:09Z</time>
      </trkpt>
      <trkpt lat="43.33749" lon="5.79112">
        <ele>889</ele>
        <time>2025-10-05T08:33:10Z</time>
      </trkpt>
      <trkpt lat="43.3375" lon="5.79113">
        <ele>889.1</ele>
        <time>2025-10-05T08:33:11Z</time>
      </trkpt>
      <trkpt lat="43.3375" lon="5.79113">
        <ele>889.3</ele>
        <time>2025-10-05T08:33:12Z</time>
      </trkpt>
      <trkpt lat="43.33749" lon="5.79114">
        <ele>889.3</ele>
        <time>2025-10-05T08:33:13Z</time>
      </trkpt>
      <trkpt lat="43.33749" lon="5.79114">
        <ele>889.4</ele>
        <time>2025-10-05T08:33:14Z</time>
      </trkpt>
      <trkpt lat="43.33749" lon="5.79114">
        <ele>889.5</ele>
        <time>2025-10-05T08:33:15Z</time>
      </trkpt>
      <trkpt lat="43.3375" lon="5.79113">
        <ele>889.5</ele>
        <time>2025-10-05T08:33:16Z</time>
      </trkpt>
      <trkpt lat="43.33749" lon="5.79113">
        <ele>889.5</ele>
        <time>2025-10-05T08:33:17Z</time>
      </trkpt>
      <trkpt lat="43.33749" lon="5.79113">
        <ele>889.6</ele>
        <time>2025-10-05T08:33:18Z</time>
      </trkpt>
      <trkpt lat="43.33749" lon="5.79113">
        <ele>889.6</ele>
        <time>2025-10-05T08:33:19Z</time>
      </trkpt>
      <trkpt lat="43.33749" lon="5.79113">
        <ele>889.7</ele>
        <time>2025-10-05T08:33:20Z</time>
      </trkpt>
      <trkpt lat="43.3375" lon="5.79114">
        <ele>889.8</ele>
        <time>2025-10-05T08:33:21Z</time>
      </trkpt>
      <trkpt lat="43.3375" lon="5.79114">
        <ele>889.8</ele>
        <time>2025-10-05T08:33:22Z</time>
      </trkpt>
      <trkpt lat="43.3375" lon="5.79114">
        <ele>889.9</ele>
        <time>2025-10-05T08:33:23Z</time>
      </trkpt>
      <trkpt lat="43.3375" lon="5.79114">
        <ele>890.2</ele>
        <time>2025-10-05T08:33:24Z</time>
      </trkpt>
      <trkpt lat="43.3375" lon="5.79114">
        <ele>890.6</ele>
        <time>2025-10-05T08:33:25Z</time>
      </trkpt>
      <trkpt lat="43.3375" lon="5.79114">
        <ele>891</ele>
        <time>2025-10-05T08:33:26Z</time>
      </trkpt>
      <trkpt lat="43.33749" lon="5.79114">
        <ele>891.3</ele>
        <time>2025-10-05T08:33:27Z</time>
      </trkpt>
      <trkpt lat="43.33749" lon="5.79114">
        <ele>891.5</ele>
        <time>2025-10-05T08:33:28Z</time>
      </trkpt>
      <trkpt lat="43.33749" lon="5.79114">
        <ele>891.6</ele>
        <time>2025-10-05T08:33:29Z</time>
      </trkpt>
      <trkpt lat="43.33749" lon="5.79114">
        <ele>891.7</ele>
        <time>2025-10-05T08:33:30Z</time>
      </trkpt>
      <trkpt lat="43.33749" lon="5.79114">
        <ele>891.8</ele>
        <time>2025-10-05T08:33:31Z</time>
      </trkpt>
      <trkpt lat="43.33749" lon="5.79115">
        <ele>891.8</ele>
        <time>2025-10-05T08:33:32Z</time>
      </trkpt>
      <trkpt lat="43.33749" lon="5.79115">
        <ele>891.7</ele>
        <time>2025-10-05T08:33:33Z</time>
      </trkpt>
      <trkpt lat="43.33749" lon="5.79115">
        <ele>891.7</ele>
        <time>2025-10-05T08:33:34Z</time>
      </trkpt>
      <trkpt lat="43.33749" lon="5.79115">
        <ele>891.7</ele>
        <time>2025-10-05T08:33:35Z</time>
      </trkpt>
      <trkpt lat="43.3375" lon="5.79115">
        <ele>891.6</ele>
        <time>2025-10-05T08:33:36Z</time>
      </trkpt>
      <trkpt lat="43.3375" lon="5.79115">
        <ele>891.6</ele>
        <time>2025-10-05T08:33:37Z</time>
      </trkpt>
      <trkpt lat="43.3375" lon="5.79115">
        <ele>891.6</ele>
        <time>2025-10-05T08:33:38Z</time>
      </trkpt>
      <trkpt lat="43.3375" lon="5.79115">
        <ele>891.5</ele>
        <time>2025-10-05T08:33:39Z</time>
      </trkpt>
      <trkpt lat="43.3375" lon="5.79115">
        <ele>891.5</ele>
        <time>2025-10-05T08:33:40Z</time>
      </trkpt>
      <trkpt lat="43.3375" lon="5.79114">
        <ele>891.4</ele>
        <time>2025-10-05T08:33:41Z</time>
      </trkpt>
      <trkpt lat="43.33751" lon="5.79114">
        <ele>891.2</ele>
        <time>2025-10-05T08:33:42Z</time>
      </trkpt>
      <trkpt lat="43.33751" lon="5.79114">
        <ele>891</ele>
        <time>2025-10-05T08:33:43Z</time>
      </trkpt>
      <trkpt lat="43.33751" lon="5.79114">
        <ele>890.9</ele>
        <time>2025-10-05T08:33:44Z</time>
      </trkpt>
      <trkpt lat="43.33751" lon="5.79114">
        <ele>890.8</ele>
        <time>2025-10-05T08:33:45Z</time>
      </trkpt>
      <trkpt lat="43.33751" lon="5.79114">
        <ele>890.7</ele>
        <time>2025-10-05T08:33:46Z</time>
      </trkpt>
      <trkpt lat="43.33751" lon="5.79114">
        <ele>890.8</ele>
        <time>2025-10-05T08:33:47Z</time>
      </trkpt>
      <trkpt lat="43.33751" lon="5.79114">
        <ele>890.9</ele>
        <time>2025-10-05T08:33:48Z</time>
      </trkpt>
      <trkpt lat="43.33751" lon="5.79115">
        <ele>890.9</ele>
        <time>2025-10-05T08:33:49Z</time>
      </trkpt>
      <trkpt lat="43.33751" lon="5.79114">
        <ele>891</ele>
        <time>2025-10-05T08:33:50Z</time>
      </trkpt>
      <trkpt lat="43.33751" lon="5.79115">
        <ele>890.9</ele>
        <time>2025-10-05T08:33:51Z</time>
      </trkpt>
      <trkpt lat="43.33751" lon="5.79115">
        <ele>890.9</ele>
        <time>2025-10-05T08:33:52Z</time>
      </trkpt>
      <trkpt lat="43.3375" lon="5.79114">
        <ele>891</ele>
        <time>2025-10-05T08:33:53Z</time>
      </trkpt>
      <trkpt lat="43.3375" lon="5.79114">
        <ele>891</ele>
        <time>2025-10-05T08:33:54Z</time>
      </trkpt>
      <trkpt lat="43.33749" lon="5.79114">
        <ele>891.1</ele>
        <time>2025-10-05T08:33:55Z</time>
      </trkpt>
      <trkpt lat="43.33749" lon="5.79113">
        <ele>891.3</ele>
        <time>2025-10-05T08:33:56Z</time>
      </trkpt>
      <trkpt lat="43.33749" lon="5.79113">
        <ele>891.5</ele>
        <time>2025-10-05T08:33:57Z</time>
      </trkpt>
      <trkpt lat="43.33749" lon="5.79113">
        <ele>891.6</ele>
        <time>2025-10-05T08:33:58Z</time>
      </trkpt>
      <trkpt lat="43.33749" lon="5.79112">
        <ele>891.8</ele>
        <time>2025-10-05T08:33:59Z</time>
      </trkpt>
      <trkpt lat="43.33749" lon="5.79113">
        <ele>892</ele>
        <time>2025-10-05T08:34:00Z</time>
      </trkpt>
      <trkpt lat="43.33749" lon="5.79112">
        <ele>892.2</ele>
        <time>2025-10-05T08:34:01Z</time>
      </trkpt>
      <trkpt lat="43.33748" lon="5.79112">
        <ele>892.4</ele>
        <time>2025-10-05T08:34:02Z</time>
      </trkpt>
      <trkpt lat="43.33747" lon="5.79112">
        <ele>892.6</ele>
        <time>2025-10-05T08:34:03Z</time>
      </trkpt>
      <trkpt lat="43.33747" lon="5.79112">
        <ele>892.9</ele>
        <time>2025-10-05T08:34:04Z</time>
      </trkpt>
      <trkpt lat="43.33746" lon="5.79112">
        <ele>893.1</ele>
        <time>2025-10-05T08:34:05Z</time>
      </trkpt>
      <trkpt lat="43.33746" lon="5.79111">
        <ele>893.3</ele>
        <time>2025-10-05T08:34:06Z</time>
      </trkpt>
      <trkpt lat="43.33746" lon="5.79111">
        <ele>893.4</ele>
        <time>2025-10-05T08:34:07Z</time>
      </trkpt>
      <trkpt lat="43.33746" lon="5.79111">
        <ele>893.5</ele>
        <time>2025-10-05T08:34:08Z</time>
      </trkpt>
      <trkpt lat="43.33746" lon="5.79111">
        <ele>893.6</ele>
        <time>2025-10-05T08:34:09Z</time>
      </trkpt>
      <trkpt lat="43.33746" lon="5.7911">
        <ele>893.7</ele>
        <time>2025-10-05T08:34:10Z</time>
      </trkpt>
      <trkpt lat="43.33746" lon="5.7911">
        <ele>893.7</ele>
        <time>2025-10-05T08:34:11Z</time>
      </trkpt>
      <trkpt lat="43.33745" lon="5.7911">
        <ele>893.7</ele>
        <time>2025-10-05T08:34:12Z</time>
      </trkpt>
      <trkpt lat="43.33745" lon="5.7911">
        <ele>893.7</ele>
        <time>2025-10-05T08:34:13Z</time>
      </trkpt>
      <trkpt lat="43.33745" lon="5.7911">
        <ele>893.7</ele>
        <time>2025-10-05T08:34:14Z</time>
      </trkpt>
      <trkpt lat="43.33743" lon="5.7911">
        <ele>893.7</ele>
        <time>2025-10-05T08:34:15Z</time>
      </trkpt>
      <trkpt lat="43.33743" lon="5.7911">
        <ele>893.7</ele>
        <time>2025-10-05T08:34:16Z</time>
      </trkpt>
      <trkpt lat="43.33743" lon="5.7911">
        <ele>893.6</ele>
        <time>2025-10-05T08:34:17Z</time>
      </trkpt>
      <trkpt lat="43.33743" lon="5.7911">
        <ele>893.5</ele>
        <time>2025-10-05T08:34:18Z</time>
      </trkpt>
      <trkpt lat="43.33743" lon="5.7911">
        <ele>893.4</ele>
        <time>2025-10-05T08:34:19Z</time>
      </trkpt>
      <trkpt lat="43.33743" lon="5.79109">
        <ele>893.6</ele>
        <time>2025-10-05T08:34:20Z</time>
      </trkpt>
      <trkpt lat="43.33743" lon="5.7911">
        <ele>893.8</ele>
        <time>2025-10-05T08:34:21Z</time>
      </trkpt>
      <trkpt lat="43.33743" lon="5.7911">
        <ele>893.8</ele>
        <time>2025-10-05T08:34:22Z</time>
      </trkpt>
      <trkpt lat="43.33742" lon="5.7911">
        <ele>893.8</ele>
        <time>2025-10-05T08:34:23Z</time>
      </trkpt>
      <trkpt lat="43.33742" lon="5.7911">
        <ele>893.7</ele>
        <time>2025-10-05T08:34:24Z</time>
      </trkpt>
      <trkpt lat="43.33742" lon="5.7911">
        <ele>893.6</ele>
        <time>2025-10-05T08:34:25Z</time>
      </trkpt>
      <trkpt lat="43.33742" lon="5.79111">
        <ele>893.5</ele>
        <time>2025-10-05T08:34:26Z</time>
      </trkpt>
      <trkpt lat="43.33742" lon="5.79111">
        <ele>893.5</ele>
        <time>2025-10-05T08:34:27Z</time>
      </trkpt>
      <trkpt lat="43.33742" lon="5.79111">
        <ele>893.6</ele>
        <time>2025-10-05T08:34:28Z</time>
      </trkpt>
      <trkpt lat="43.33741" lon="5.79112">
        <ele>893.7</ele>
        <time>2025-10-05T08:34:29Z</time>
      </trkpt>
      <trkpt lat="43.33742" lon="5.79112">
        <ele>893.8</ele>
        <time>2025-10-05T08:34:30Z</time>
      </trkpt>
      <trkpt lat="43.33742" lon="5.79113">
        <ele>894</ele>
        <time>2025-10-05T08:34:31Z</time>
      </trkpt>
      <trkpt lat="43.33742" lon="5.79113">
        <ele>894.3</ele>
        <time>2025-10-05T08:34:32Z</time>
      </trkpt>
      <trkpt lat="43.33742" lon="5.79114">
        <ele>894.5</ele>
        <time>2025-10-05T08:34:33Z</time>
      </trkpt>
      <trkpt lat="43.33741" lon="5.79114">
        <ele>894.7</ele>
        <time>2025-10-05T08:34:34Z</time>
      </trkpt>
      <trkpt lat="43.33742" lon="5.79114">
        <ele>894.9</ele>
        <time>2025-10-05T08:34:35Z</time>
      </trkpt>
      <trkpt lat="43.33742" lon="5.79114">
        <ele>895.1</ele>
        <time>2025-10-05T08:34:36Z</time>
      </trkpt>
      <trkpt lat="43.33742" lon="5.79113">
        <ele>895.4</ele>
        <time>2025-10-05T08:34:37Z</time>
      </trkpt>
      <trkpt lat="43.33743" lon="5.79114">
        <ele>895.7</ele>
        <time>2025-10-05T08:34:38Z</time>
      </trkpt>
      <trkpt lat="43.33743" lon="5.79114">
        <ele>895.8</ele>
        <time>2025-10-05T08:34:39Z</time>
      </trkpt>
      <trkpt lat="43.33743" lon="5.79114">
        <ele>895.8</ele>
        <time>2025-10-05T08:34:40Z</time>
      </trkpt>
      <trkpt lat="43.33743" lon="5.79114">
        <ele>895.9</ele>
        <time>2025-10-05T08:34:41Z</time>
      </trkpt>
      <trkpt lat="43.33743" lon="5.79114">
        <ele>896</ele>
        <time>2025-10-05T08:34:42Z</time>
      </trkpt>
      <trkpt lat="43.33743" lon="5.79114">
        <ele>896</ele>
        <time>2025-10-05T08:34:43Z</time>
      </trkpt>
      <trkpt lat="43.33742" lon="5.79115">
        <ele>896</ele>
        <time>2025-10-05T08:34:44Z</time>
      </trkpt>
      <trkpt lat="43.33742" lon="5.79115">
        <ele>896</ele>
        <time>2025-10-05T08:34:45Z</time>
      </trkpt>
      <trkpt lat="43.33743" lon="5.79115">
        <ele>896</ele>
        <time>2025-10-05T08:34:46Z</time>
      </trkpt>
      <trkpt lat="43.33743" lon="5.79115">
        <ele>895.9</ele>
        <time>2025-10-05T08:34:47Z</time>
      </trkpt>
      <trkpt lat="43.33744" lon="5.79116">
        <ele>895.6</ele>
        <time>2025-10-05T08:34:48Z</time>
      </trkpt>
      <trkpt lat="43.33745" lon="5.79116">
        <ele>895.6</ele>
        <time>2025-10-05T08:34:49Z</time>
      </trkpt>
      <trkpt lat="43.33747" lon="5.79115">
        <ele>895.7</ele>
        <time>2025-10-05T08:34:50Z</time>
      </trkpt>
      <trkpt lat="43.33747" lon="5.79115">
        <ele>895.8</ele>
        <time>2025-10-05T08:34:51Z</time>
      </trkpt>
      <trkpt lat="43.33748" lon="5.79115">
        <ele>895.9</ele>
        <time>2025-10-05T08:34:52Z</time>
      </trkpt>
      <trkpt lat="43.33747" lon="5.79115">
        <ele>896</ele>
        <time>2025-10-05T08:34:53Z</time>
      </trkpt>
      <trkpt lat="43.33748" lon="5.79115">
        <ele>896.1</ele>
        <time>2025-10-05T08:34:54Z</time>
      </trkpt>
      <trkpt lat="43.33748" lon="5.79115">
        <ele>896.2</ele>
        <time>2025-10-05T08:34:55Z</time>
      </trkpt>
      <trkpt lat="43.33749" lon="5.79114">
        <ele>896.1</ele>
        <time>2025-10-05T08:34:56Z</time>
      </trkpt>
      <trkpt lat="43.33749" lon="5.79114">
        <ele>896.1</ele>
        <time>2025-10-05T08:34:57Z</time>
      </trkpt>
      <trkpt lat="43.3375" lon="5.79114">
        <ele>896.2</ele>
        <time>2025-10-05T08:34:58Z</time>
      </trkpt>
      <trkpt lat="43.3375" lon="5.79114">
        <ele>896.2</ele>
        <time>2025-10-05T08:34:59Z</time>
      </trkpt>
      <trkpt lat="43.33751" lon="5.79114">
        <ele>896.2</ele>
        <time>2025-10-05T08:35:00Z</time>
      </trkpt>
      <trkpt lat="43.33752" lon="5.79114">
        <ele>896.1</ele>
        <time>2025-10-05T08:35:01Z</time>
      </trkpt>
      <trkpt lat="43.33752" lon="5.79114">
        <ele>896.1</ele>
        <time>2025-10-05T08:35:02Z</time>
      </trkpt>
      <trkpt lat="43.33751" lon="5.79114">
        <ele>896.1</ele>
        <time>2025-10-05T08:35:03Z</time>
      </trkpt>
      <trkpt lat="43.33751" lon="5.79114">
        <ele>896.1</ele>
        <time>2025-10-05T08:35:04Z</time>
      </trkpt>
      <trkpt lat="43.33751" lon="5.79114">
        <ele>896.1</ele>
        <time>2025-10-05T08:35:05Z</time>
      </trkpt>
      <trkpt lat="43.33751" lon="5.79114">
        <ele>896.1</ele>
        <time>2025-10-05T08:35:06Z</time>
      </trkpt>
      <trkpt lat="43.3375" lon="5.79115">
        <ele>896.1</ele>
        <time>2025-10-05T08:35:07Z</time>
      </trkpt>
      <trkpt lat="43.3375" lon="5.79116">
        <ele>895.9</ele>
        <time>2025-10-05T08:35:08Z</time>
      </trkpt>
      <trkpt lat="43.33749" lon="5.79117">
        <ele>895.8</ele>
        <time>2025-10-05T08:35:09Z</time>
      </trkpt>
      <trkpt lat="43.33749" lon="5.79117">
        <ele>895.8</ele>
        <time>2025-10-05T08:35:10Z</time>
      </trkpt>
      <trkpt lat="43.33749" lon="5.79117">
        <ele>895.7</ele>
        <time>2025-10-05T08:35:11Z</time>
      </trkpt>
      <trkpt lat="43.33749" lon="5.79117">
        <ele>895.5</ele>
        <time>2025-10-05T08:35:12Z</time>
      </trkpt>
      <trkpt lat="43.33749" lon="5.79116">
        <ele>895.4</ele>
        <time>2025-10-05T08:35:13Z</time>
      </trkpt>
      <trkpt lat="43.33749" lon="5.79117">
        <ele>895.3</ele>
        <time>2025-10-05T08:35:14Z</time>
      </trkpt>
      <trkpt lat="43.3375" lon="5.79117">
        <ele>895.3</ele>
        <time>2025-10-05T08:35:15Z</time>
      </trkpt>
      <trkpt lat="43.3375" lon="5.79118">
        <ele>895.3</ele>
        <time>2025-10-05T08:35:16Z</time>
      </trkpt>
      <trkpt lat="43.3375" lon="5.79118">
        <ele>895.2</ele>
        <time>2025-10-05T08:35:17Z</time>
      </trkpt>
      <trkpt lat="43.3375" lon="5.79118">
        <ele>895.2</ele>
        <time>2025-10-05T08:35:18Z</time>
      </trkpt>
      <trkpt lat="43.33749" lon="5.79119">
        <ele>895.3</ele>
        <time>2025-10-05T08:35:19Z</time>
      </trkpt>
      <trkpt lat="43.3375" lon="5.7912">
        <ele>895.3</ele>
        <time>2025-10-05T08:35:20Z</time>
      </trkpt>
      <trkpt lat="43.33749" lon="5.79122">
        <ele>895.4</ele>
        <time>2025-10-05T08:35:21Z</time>
      </trkpt>
      <trkpt lat="43.33749" lon="5.79122">
        <ele>895.5</ele>
        <time>2025-10-05T08:35:22Z</time>
      </trkpt>
      <trkpt lat="43.33749" lon="5.79122">
        <ele>895.6</ele>
        <time>2025-10-05T08:35:23Z</time>
      </trkpt>
      <trkpt lat="43.33749" lon="5.79122">
        <ele>895.6</ele>
        <time>2025-10-05T08:35:24Z</time>
      </trkpt>
      <trkpt lat="43.33749" lon="5.79121">
        <ele>895.6</ele>
        <time>2025-10-05T08:35:25Z</time>
      </trkpt>
      <trkpt lat="43.33749" lon="5.79121">
        <ele>895.6</ele>
        <time>2025-10-05T08:35:26Z</time>
      </trkpt>
      <trkpt lat="43.33749" lon="5.7912">
        <ele>895.6</ele>
        <time>2025-10-05T08:35:27Z</time>
      </trkpt>
      <trkpt lat="43.33748" lon="5.79119">
        <ele>895.6</ele>
        <time>2025-10-05T08:35:28Z</time>
      </trkpt>
      <trkpt lat="43.33748" lon="5.79119">
        <ele>895.5</ele>
        <time>2025-10-05T08:35:29Z</time>
      </trkpt>
      <trkpt lat="43.33748" lon="5.79119">
        <ele>895.5</ele>
        <time>2025-10-05T08:35:30Z</time>
      </trkpt>
      <trkpt lat="43.33747" lon="5.79118">
        <ele>895.5</ele>
        <time>2025-10-05T08:35:31Z</time>
      </trkpt>
      <trkpt lat="43.33747" lon="5.79118">
        <ele>895.5</ele>
        <time>2025-10-05T08:35:32Z</time>
      </trkpt>
      <trkpt lat="43.33747" lon="5.79118">
        <ele>895.3</ele>
        <time>2025-10-05T08:35:33Z</time>
      </trkpt>
      <trkpt lat="43.33747" lon="5.79118">
        <ele>895.2</ele>
        <time>2025-10-05T08:35:34Z</time>
      </trkpt>
      <trkpt lat="43.33747" lon="5.79118">
        <ele>894.9</ele>
        <time>2025-10-05T08:35:35Z</time>
      </trkpt>
      <trkpt lat="43.33746" lon="5.79118">
        <ele>894.9</ele>
        <time>2025-10-05T08:35:36Z</time>
      </trkpt>
      <trkpt lat="43.33746" lon="5.79117">
        <ele>895</ele>
        <time>2025-10-05T08:35:37Z</time>
      </trkpt>
      <trkpt lat="43.33746" lon="5.79117">
        <ele>895.1</ele>
        <time>2025-10-05T08:35:38Z</time>
      </trkpt>
      <trkpt lat="43.33745" lon="5.79117">
        <ele>895.2</ele>
        <time>2025-10-05T08:35:39Z</time>
      </trkpt>
      <trkpt lat="43.33745" lon="5.79117">
        <ele>895.3</ele>
        <time>2025-10-05T08:35:40Z</time>
      </trkpt>
      <trkpt lat="43.33745" lon="5.79117">
        <ele>895.4</ele>
        <time>2025-10-05T08:35:41Z</time>
      </trkpt>
      <trkpt lat="43.33745" lon="5.79117">
        <ele>895.4</ele>
        <time>2025-10-05T08:35:42Z</time>
      </trkpt>
      <trkpt lat="43.33745" lon="5.79117">
        <ele>895.4</ele>
        <time>2025-10-05T08:35:43Z</time>
      </trkpt>
      <trkpt lat="43.33745" lon="5.79117">
        <ele>895.4</ele>
        <time>2025-10-05T08:35:44Z</time>
      </trkpt>
      <trkpt lat="43.33746" lon="5.79117">
        <ele>895.3</ele>
        <time>2025-10-05T08:35:45Z</time>
      </trkpt>
      <trkpt lat="43.33746" lon="5.79117">
        <ele>895.2</ele>
        <time>2025-10-05T08:35:46Z</time>
      </trkpt>
      <trkpt lat="43.33746" lon="5.79117">
        <ele>895</ele>
        <time>2025-10-05T08:35:47Z</time>
      </trkpt>
      <trkpt lat="43.33746" lon="5.79117">
        <ele>894.9</ele>
        <time>2025-10-05T08:35:48Z</time>
      </trkpt>
      <trkpt lat="43.33746" lon="5.79118">
        <ele>894.7</ele>
        <time>2025-10-05T08:35:49Z</time>
      </trkpt>
      <trkpt lat="43.33746" lon="5.79118">
        <ele>894.6</ele>
        <time>2025-10-05T08:35:50Z</time>
      </trkpt>
      <trkpt lat="43.33746" lon="5.79118">
        <ele>894.3</ele>
        <time>2025-10-05T08:35:51Z</time>
      </trkpt>
      <trkpt lat="43.33746" lon="5.79118">
        <ele>893.9</ele>
        <time>2025-10-05T08:35:52Z</time>
      </trkpt>
      <trkpt lat="43.33746" lon="5.79119">
        <ele>893.7</ele>
        <time>2025-10-05T08:35:53Z</time>
      </trkpt>
      <trkpt lat="43.33746" lon="5.79119">
        <ele>893.5</ele>
        <time>2025-10-05T08:35:54Z</time>
      </trkpt>
      <trkpt lat="43.33746" lon="5.79119">
        <ele>893.4</ele>
        <time>2025-10-05T08:35:55Z</time>
      </trkpt>
      <trkpt lat="43.33747" lon="5.79119">
        <ele>893.5</ele>
        <time>2025-10-05T08:35:56Z</time>
      </trkpt>
      <trkpt lat="43.33747" lon="5.79119">
        <ele>893.5</ele>
        <time>2025-10-05T08:35:57Z</time>
      </trkpt>
      <trkpt lat="43.33747" lon="5.79119">
        <ele>893.5</ele>
        <time>2025-10-05T08:35:58Z</time>
      </trkpt>
      <trkpt lat="43.33747" lon="5.79119">
        <ele>893.5</ele>
        <time>2025-10-05T08:35:59Z</time>
      </trkpt>
      <trkpt lat="43.33747" lon="5.7912">
        <ele>893.7</ele>
        <time>2025-10-05T08:36:00Z</time>
      </trkpt>
      <trkpt lat="43.33747" lon="5.7912">
        <ele>893.9</ele>
        <time>2025-10-05T08:36:01Z</time>
      </trkpt>
      <trkpt lat="43.33747" lon="5.7912">
        <ele>894.2</ele>
        <time>2025-10-05T08:36:02Z</time>
      </trkpt>
      <trkpt lat="43.33747" lon="5.7912">
        <ele>894.3</ele>
        <time>2025-10-05T08:36:03Z</time>
      </trkpt>
      <trkpt lat="43.33747" lon="5.7912">
        <ele>894.3</ele>
        <time>2025-10-05T08:36:04Z</time>
      </trkpt>
      <trkpt lat="43.33747" lon="5.7912">
        <ele>894.6</ele>
        <time>2025-10-05T08:36:05Z</time>
      </trkpt>
      <trkpt lat="43.33747" lon="5.7912">
        <ele>894.9</ele>
        <time>2025-10-05T08:36:06Z</time>
      </trkpt>
      <trkpt lat="43.33747" lon="5.7912">
        <ele>895.1</ele>
        <time>2025-10-05T08:36:07Z</time>
      </trkpt>
      <trkpt lat="43.33747" lon="5.7912">
        <ele>895.3</ele>
        <time>2025-10-05T08:36:08Z</time>
      </trkpt>
      <trkpt lat="43.33747" lon="5.7912">
        <ele>895.5</ele>
        <time>2025-10-05T08:36:09Z</time>
      </trkpt>
      <trkpt lat="43.33747" lon="5.7912">
        <ele>895.6</ele>
        <time>2025-10-05T08:36:10Z</time>
      </trkpt>
      <trkpt lat="43.33747" lon="5.7912">
        <ele>895.7</ele>
        <time>2025-10-05T08:36:11Z</time>
      </trkpt>
      <trkpt lat="43.33747" lon="5.79121">
        <ele>895.8</ele>
        <time>2025-10-05T08:36:12Z</time>
      </trkpt>
      <trkpt lat="43.33747" lon="5.79121">
        <ele>895.9</ele>
        <time>2025-10-05T08:36:13Z</time>
      </trkpt>
      <trkpt lat="43.33747" lon="5.79121">
        <ele>896.1</ele>
        <time>2025-10-05T08:36:14Z</time>
      </trkpt>
      <trkpt lat="43.33747" lon="5.79121">
        <ele>896.1</ele>
        <time>2025-10-05T08:36:15Z</time>
      </trkpt>
      <trkpt lat="43.33747" lon="5.79121">
        <ele>896.4</ele>
        <time>2025-10-05T08:36:16Z</time>
      </trkpt>
      <trkpt lat="43.33747" lon="5.79121">
        <ele>896.6</ele>
        <time>2025-10-05T08:36:17Z</time>
      </trkpt>
      <trkpt lat="43.33747" lon="5.79121">
        <ele>896.7</ele>
        <time>2025-10-05T08:36:18Z</time>
      </trkpt>
      <trkpt lat="43.33747" lon="5.79121">
        <ele>896.7</ele>
        <time>2025-10-05T08:36:19Z</time>
      </trkpt>
      <trkpt lat="43.33748" lon="5.79121">
        <ele>896.7</ele>
        <time>2025-10-05T08:36:20Z</time>
      </trkpt>
      <trkpt lat="43.33748" lon="5.79121">
        <ele>896.7</ele>
        <time>2025-10-05T08:36:21Z</time>
      </trkpt>
      <trkpt lat="43.33748" lon="5.79121">
        <ele>896.6</ele>
        <time>2025-10-05T08:36:22Z</time>
      </trkpt>
      <trkpt lat="43.33748" lon="5.79121">
        <ele>896.5</ele>
        <time>2025-10-05T08:36:23Z</time>
      </trkpt>
      <trkpt lat="43.33748" lon="5.79121">
        <ele>896.5</ele>
        <time>2025-10-05T08:36:24Z</time>
      </trkpt>
      <trkpt lat="43.33748" lon="5.79122">
        <ele>896.5</ele>
        <time>2025-10-05T08:36:25Z</time>
      </trkpt>
      <trkpt lat="43.33748" lon="5.79122">
        <ele>896.6</ele>
        <time>2025-10-05T08:36:26Z</time>
      </trkpt>
      <trkpt lat="43.33748" lon="5.79122">
        <ele>896.7</ele>
        <time>2025-10-05T08:36:27Z</time>
      </trkpt>
      <trkpt lat="43.33748" lon="5.79121">
        <ele>896.8</ele>
        <time>2025-10-05T08:36:28Z</time>
      </trkpt>
      <trkpt lat="43.33748" lon="5.79122">
        <ele>896.9</ele>
        <time>2025-10-05T08:36:29Z</time>
      </trkpt>
      <trkpt lat="43.33748" lon="5.79122">
        <ele>897</ele>
        <time>2025-10-05T08:36:30Z</time>
      </trkpt>
      <trkpt lat="43.33748" lon="5.79122">
        <ele>897.1</ele>
        <time>2025-10-05T08:36:31Z</time>
      </trkpt>
      <trkpt lat="43.33748" lon="5.79122">
        <ele>897.2</ele>
        <time>2025-10-05T08:36:32Z</time>
      </trkpt>
      <trkpt lat="43.33748" lon="5.79122">
        <ele>897.3</ele>
        <time>2025-10-05T08:36:33Z</time>
      </trkpt>
      <trkpt lat="43.33748" lon="5.79122">
        <ele>897.4</ele>
        <time>2025-10-05T08:36:34Z</time>
      </trkpt>
      <trkpt lat="43.33748" lon="5.79122">
        <ele>897.4</ele>
        <time>2025-10-05T08:36:35Z</time>
      </trkpt>
      <trkpt lat="43.33748" lon="5.79122">
        <ele>897.4</ele>
        <time>2025-10-05T08:36:36Z</time>
      </trkpt>
      <trkpt lat="43.33748" lon="5.79122">
        <ele>897.4</ele>
        <time>2025-10-05T08:36:37Z</time>
      </trkpt>
      <trkpt lat="43.33748" lon="5.79121">
        <ele>897.4</ele>
        <time>2025-10-05T08:36:38Z</time>
      </trkpt>
      <trkpt lat="43.33748" lon="5.79121">
        <ele>897.3</ele>
        <time>2025-10-05T08:36:39Z</time>
      </trkpt>
      <trkpt lat="43.33748" lon="5.79121">
        <ele>897.3</ele>
        <time>2025-10-05T08:36:40Z</time>
      </trkpt>
      <trkpt lat="43.33748" lon="5.79121">
        <ele>897.1</ele>
        <time>2025-10-05T08:36:41Z</time>
      </trkpt>
      <trkpt lat="43.33748" lon="5.79121">
        <ele>896.9</ele>
        <time>2025-10-05T08:36:42Z</time>
      </trkpt>
      <trkpt lat="43.33748" lon="5.79121">
        <ele>896.8</ele>
        <time>2025-10-05T08:36:43Z</time>
      </trkpt>
      <trkpt lat="43.33748" lon="5.79121">
        <ele>896.7</ele>
        <time>2025-10-05T08:36:44Z</time>
      </trkpt>
      <trkpt lat="43.33748" lon="5.79121">
        <ele>896.7</ele>
        <time>2025-10-05T08:36:45Z</time>
      </trkpt>
      <trkpt lat="43.33748" lon="5.79121">
        <ele>896.8</ele>
        <time>2025-10-05T08:36:46Z</time>
      </trkpt>
      <trkpt lat="43.33748" lon="5.79121">
        <ele>896.9</ele>
        <time>2025-10-05T08:36:47Z</time>
      </trkpt>
      <trkpt lat="43.33748" lon="5.79121">
        <ele>896.9</ele>
        <time>2025-10-05T08:36:48Z</time>
      </trkpt>
      <trkpt lat="43.33748" lon="5.79121">
        <ele>896.9</ele>
        <time>2025-10-05T08:36:49Z</time>
      </trkpt>
      <trkpt lat="43.33748" lon="5.79121">
        <ele>897</ele>
        <time>2025-10-05T08:36:50Z</time>
      </trkpt>
      <trkpt lat="43.33748" lon="5.79121">
        <ele>897.1</ele>
        <time>2025-10-05T08:36:51Z</time>
      </trkpt>
      <trkpt lat="43.33748" lon="5.79122">
        <ele>897.1</ele>
        <time>2025-10-05T08:36:52Z</time>
      </trkpt>
      <trkpt lat="43.33748" lon="5.79121">
        <ele>897.2</ele>
        <time>2025-10-05T08:36:53Z</time>
      </trkpt>
      <trkpt lat="43.33748" lon="5.79121">
        <ele>897.2</ele>
        <time>2025-10-05T08:36:54Z</time>
      </trkpt>
      <trkpt lat="43.33748" lon="5.79121">
        <ele>897.2</ele>
        <time>2025-10-05T08:36:55Z</time>
      </trkpt>
      <trkpt lat="43.33747" lon="5.7912">
        <ele>897.2</ele>
        <time>2025-10-05T08:36:56Z</time>
      </trkpt>
      <trkpt lat="43.33747" lon="5.7912">
        <ele>897.3</ele>
        <time>2025-10-05T08:36:57Z</time>
      </trkpt>
      <trkpt lat="43.33747" lon="5.7912">
        <ele>897.4</ele>
        <time>2025-10-05T08:36:58Z</time>
      </trkpt>
      <trkpt lat="43.33747" lon="5.7912">
        <ele>897.5</ele>
        <time>2025-10-05T08:36:59Z</time>
      </trkpt>
      <trkpt lat="43.33747" lon="5.7912">
        <ele>897.6</ele>
        <time>2025-10-05T08:37:00Z</time>
      </trkpt>
      <trkpt lat="43.33747" lon="5.79119">
        <ele>897.6</ele>
        <time>2025-10-05T08:37:01Z</time>
      </trkpt>
      <trkpt lat="43.33747" lon="5.79119">
        <ele>897.6</ele>
        <time>2025-10-05T08:37:02Z</time>
      </trkpt>
      <trkpt lat="43.33747" lon="5.79118">
        <ele>897.7</ele>
        <time>2025-10-05T08:37:03Z</time>
      </trkpt>
      <trkpt lat="43.33747" lon="5.79118">
        <ele>897.7</ele>
        <time>2025-10-05T08:37:04Z</time>
      </trkpt>
      <trkpt lat="43.33747" lon="5.79118">
        <ele>897.6</ele>
        <time>2025-10-05T08:37:05Z</time>
      </trkpt>
      <trkpt lat="43.33747" lon="5.79117">
        <ele>897.6</ele>
        <time>2025-10-05T08:37:06Z</time>
      </trkpt>
      <trkpt lat="43.33747" lon="5.79117">
        <ele>897.5</ele>
        <time>2025-10-05T08:37:07Z</time>
      </trkpt>
      <trkpt lat="43.33747" lon="5.79117">
        <ele>897.3</ele>
        <time>2025-10-05T08:37:08Z</time>
      </trkpt>
      <trkpt lat="43.33747" lon="5.79117">
        <ele>897.2</ele>
        <time>2025-10-05T08:37:09Z</time>
      </trkpt>
      <trkpt lat="43.33747" lon="5.79117">
        <ele>897.1</ele>
        <time>2025-10-05T08:37:10Z</time>
      </trkpt>
      <trkpt lat="43.33747" lon="5.79117">
        <ele>896.7</ele>
        <time>2025-10-05T08:37:11Z</time>
      </trkpt>
      <trkpt lat="43.33747" lon="5.79117">
        <ele>896.5</ele>
        <time>2025-10-05T08:37:12Z</time>
      </trkpt>
      <trkpt lat="43.33747" lon="5.79117">
        <ele>896.3</ele>
        <time>2025-10-05T08:37:13Z</time>
      </trkpt>
      <trkpt lat="43.33747" lon="5.79117">
        <ele>896.1</ele>
        <time>2025-10-05T08:37:14Z</time>
      </trkpt>
      <trkpt lat="43.33747" lon="5.79117">
        <ele>895.9</ele>
        <time>2025-10-05T08:37:15Z</time>
      </trkpt>
      <trkpt lat="43.33747" lon="5.79117">
        <ele>895.8</ele>
        <time>2025-10-05T08:37:16Z</time>
      </trkpt>
      <trkpt lat="43.33747" lon="5.79117">
        <ele>895.7</ele>
        <time>2025-10-05T08:37:17Z</time>
      </trkpt>
      <trkpt lat="43.33747" lon="5.79117">
        <ele>895.4</ele>
        <time>2025-10-05T08:37:18Z</time>
      </trkpt>
      <trkpt lat="43.33747" lon="5.79117">
        <ele>895.3</ele>
        <time>2025-10-05T08:37:19Z</time>
      </trkpt>
      <trkpt lat="43.33747" lon="5.79117">
        <ele>895.1</ele>
        <time>2025-10-05T08:37:20Z</time>
      </trkpt>
      <trkpt lat="43.33747" lon="5.79117">
        <ele>894.8</ele>
        <time>2025-10-05T08:37:21Z</time>
      </trkpt>
      <trkpt lat="43.33747" lon="5.79117">
        <ele>894.5</ele>
        <time>2025-10-05T08:37:22Z</time>
      </trkpt>
      <trkpt lat="43.33746" lon="5.79117">
        <ele>894.3</ele>
        <time>2025-10-05T08:37:23Z</time>
      </trkpt>
      <trkpt lat="43.33746" lon="5.79117">
        <ele>894.2</ele>
        <time>2025-10-05T08:37:24Z</time>
      </trkpt>
      <trkpt lat="43.33746" lon="5.79117">
        <ele>894</ele>
        <time>2025-10-05T08:37:25Z</time>
      </trkpt>
      <trkpt lat="43.33746" lon="5.79117">
        <ele>893.8</ele>
        <time>2025-10-05T08:37:26Z</time>
      </trkpt>
      <trkpt lat="43.33746" lon="5.79117">
        <ele>893.8</ele>
        <time>2025-10-05T08:37:27Z</time>
      </trkpt>
      <trkpt lat="43.33745" lon="5.79117">
        <ele>893.8</ele>
        <time>2025-10-05T08:37:28Z</time>
      </trkpt>
      <trkpt lat="43.33745" lon="5.79117">
        <ele>893.7</ele>
        <time>2025-10-05T08:37:29Z</time>
      </trkpt>
      <trkpt lat="43.33745" lon="5.79117">
        <ele>893.7</ele>
        <time>2025-10-05T08:37:30Z</time>
      </trkpt>
      <trkpt lat="43.33745" lon="5.79117">
        <ele>893.7</ele>
        <time>2025-10-05T08:37:31Z</time>
      </trkpt>
      <trkpt lat="43.33744" lon="5.79117">
        <ele>893.9</ele>
        <time>2025-10-05T08:37:32Z</time>
      </trkpt>
      <trkpt lat="43.33744" lon="5.79116">
        <ele>894</ele>
        <time>2025-10-05T08:37:33Z</time>
      </trkpt>
      <trkpt lat="43.33744" lon="5.79116">
        <ele>894</ele>
        <time>2025-10-05T08:37:34Z</time>
      </trkpt>
      <trkpt lat="43.33744" lon="5.79116">
        <ele>894.1</ele>
        <time>2025-10-05T08:37:35Z</time>
      </trkpt>
      <trkpt lat="43.33743" lon="5.79116">
        <ele>894.2</ele>
        <time>2025-10-05T08:37:36Z</time>
      </trkpt>
      <trkpt lat="43.33743" lon="5.79116">
        <ele>894.3</ele>
        <time>2025-10-05T08:37:37Z</time>
      </trkpt>
      <trkpt lat="43.33743" lon="5.79116">
        <ele>894.5</ele>
        <time>2025-10-05T08:37:38Z</time>
      </trkpt>
      <trkpt lat="43.33743" lon="5.79116">
        <ele>895</ele>
        <time>2025-10-05T08:37:39Z</time>
      </trkpt>
      <trkpt lat="43.33743" lon="5.79116">
        <ele>895.3</ele>
        <time>2025-10-05T08:37:40Z</time>
      </trkpt>
      <trkpt lat="43.33743" lon="5.79116">
        <ele>895.5</ele>
        <time>2025-10-05T08:37:41Z</time>
      </trkpt>
      <trkpt lat="43.33743" lon="5.79115">
        <ele>895.7</ele>
        <time>2025-10-05T08:37:42Z</time>
      </trkpt>
      <trkpt lat="43.33743" lon="5.79115">
        <ele>895.8</ele>
        <time>2025-10-05T08:37:43Z</time>
      </trkpt>
      <trkpt lat="43.33742" lon="5.79114">
        <ele>895.9</ele>
        <time>2025-10-05T08:37:44Z</time>
      </trkpt>
      <trkpt lat="43.33742" lon="5.79115">
        <ele>895.8</ele>
        <time>2025-10-05T08:37:45Z</time>
      </trkpt>
      <trkpt lat="43.33742" lon="5.79114">
        <ele>895.7</ele>
        <time>2025-10-05T08:37:46Z</time>
      </trkpt>
      <trkpt lat="43.33741" lon="5.79114">
        <ele>895.8</ele>
        <time>2025-10-05T08:37:47Z</time>
      </trkpt>
      <trkpt lat="43.33741" lon="5.79114">
        <ele>895.8</ele>
        <time>2025-10-05T08:37:48Z</time>
      </trkpt>
      <trkpt lat="43.33741" lon="5.79114">
        <ele>895.9</ele>
        <time>2025-10-05T08:37:49Z</time>
      </trkpt>
      <trkpt lat="43.33741" lon="5.79113">
        <ele>895.9</ele>
        <time>2025-10-05T08:37:50Z</time>
      </trkpt>
      <trkpt lat="43.33741" lon="5.79113">
        <ele>895.9</ele>
        <time>2025-10-05T08:37:51Z</time>
      </trkpt>
      <trkpt lat="43.33741" lon="5.79113">
        <ele>895.9</ele>
        <time>2025-10-05T08:37:52Z</time>
      </trkpt>
      <trkpt lat="43.33741" lon="5.79113">
        <ele>896</ele>
        <time>2025-10-05T08:37:53Z</time>
      </trkpt>
      <trkpt lat="43.33741" lon="5.79113">
        <ele>895.8</ele>
        <time>2025-10-05T08:37:54Z</time>
      </trkpt>
      <trkpt lat="43.3374" lon="5.79113">
        <ele>895.8</ele>
        <time>2025-10-05T08:37:55Z</time>
      </trkpt>
      <trkpt lat="43.33739" lon="5.79113">
        <ele>896.1</ele>
        <time>2025-10-05T08:37:56Z</time>
      </trkpt>
      <trkpt lat="43.3374" lon="5.79112">
        <ele>896.3</ele>
        <time>2025-10-05T08:37:57Z</time>
      </trkpt>
      <trkpt lat="43.3374" lon="5.79112">
        <ele>896.5</ele>
        <time>2025-10-05T08:37:58Z</time>
      </trkpt>
      <trkpt lat="43.3374" lon="5.79112">
        <ele>896.6</ele>
        <time>2025-10-05T08:37:59Z</time>
      </trkpt>
      <trkpt lat="43.33739" lon="5.79112">
        <ele>896.7</ele>
        <time>2025-10-05T08:38:00Z</time>
      </trkpt>
      <trkpt lat="43.33739" lon="5.79113">
        <ele>896.7</ele>
        <time>2025-10-05T08:38:01Z</time>
      </trkpt>
      <trkpt lat="43.33738" lon="5.79112">
        <ele>896.7</ele>
        <time>2025-10-05T08:38:02Z</time>
      </trkpt>
      <trkpt lat="43.33738" lon="5.79112">
        <ele>896.6</ele>
        <time>2025-10-05T08:38:03Z</time>
      </trkpt>
      <trkpt lat="43.33738" lon="5.79113">
        <ele>896.5</ele>
        <time>2025-10-05T08:38:04Z</time>
      </trkpt>
      <trkpt lat="43.33738" lon="5.79112">
        <ele>896.5</ele>
        <time>2025-10-05T08:38:05Z</time>
      </trkpt>
      <trkpt lat="43.33738" lon="5.79112">
        <ele>896.5</ele>
        <time>2025-10-05T08:38:06Z</time>
      </trkpt>
      <trkpt lat="43.33738" lon="5.79112">
        <ele>896.7</ele>
        <time>2025-10-05T08:38:07Z</time>
      </trkpt>
      <trkpt lat="43.33739" lon="5.79112">
        <ele>897</ele>
        <time>2025-10-05T08:38:08Z</time>
      </trkpt>
      <trkpt lat="43.33739" lon="5.79112">
        <ele>897.4</ele>
        <time>2025-10-05T08:38:09Z</time>
      </trkpt>
      <trkpt lat="43.33739" lon="5.79112">
        <ele>897.7</ele>
        <time>2025-10-05T08:38:10Z</time>
      </trkpt>
      <trkpt lat="43.33738" lon="5.79112">
        <ele>898</ele>
        <time>2025-10-05T08:38:11Z</time>
      </trkpt>
      <trkpt lat="43.33738" lon="5.79112">
        <ele>898.1</ele>
        <time>2025-10-05T08:38:12Z</time>
      </trkpt>
      <trkpt lat="43.33738" lon="5.79112">
        <ele>898.2</ele>
        <time>2025-10-05T08:38:13Z</time>
      </trkpt>
      <trkpt lat="43.33738" lon="5.79113">
        <ele>898.2</ele>
        <time>2025-10-05T08:38:14Z</time>
      </trkpt>
      <trkpt lat="43.33738" lon="5.79113">
        <ele>898.3</ele>
        <time>2025-10-05T08:38:15Z</time>
      </trkpt>
      <trkpt lat="43.33738" lon="5.79113">
        <ele>898.3</ele>
        <time>2025-10-05T08:38:16Z</time>
      </trkpt>
      <trkpt lat="43.33739" lon="5.79112">
        <ele>898.2</ele>
        <time>2025-10-05T08:38:17Z</time>
      </trkpt>
      <trkpt lat="43.33739" lon="5.79112">
        <ele>898.3</ele>
        <time>2025-10-05T08:38:18Z</time>
      </trkpt>
      <trkpt lat="43.3374" lon="5.79112">
        <ele>898.4</ele>
        <time>2025-10-05T08:38:19Z</time>
      </trkpt>
      <trkpt lat="43.3374" lon="5.79112">
        <ele>898.4</ele>
        <time>2025-10-05T08:38:20Z</time>
      </trkpt>
      <trkpt lat="43.3374" lon="5.79112">
        <ele>898.5</ele>
        <time>2025-10-05T08:38:21Z</time>
      </trkpt>
      <trkpt lat="43.3374" lon="5.79112">
        <ele>898.7</ele>
        <time>2025-10-05T08:38:22Z</time>
      </trkpt>
      <trkpt lat="43.3374" lon="5.79112">
        <ele>898.9</ele>
        <time>2025-10-05T08:38:23Z</time>
      </trkpt>
      <trkpt lat="43.33741" lon="5.79112">
        <ele>899.4</ele>
        <time>2025-10-05T08:38:24Z</time>
      </trkpt>
      <trkpt lat="43.33741" lon="5.79112">
        <ele>899.6</ele>
        <time>2025-10-05T08:38:25Z</time>
      </trkpt>
      <trkpt lat="43.33741" lon="5.79112">
        <ele>899.9</ele>
        <time>2025-10-05T08:38:26Z</time>
      </trkpt>
      <trkpt lat="43.33741" lon="5.79112">
        <ele>900.1</ele>
        <time>2025-10-05T08:38:27Z</time>
      </trkpt>
      <trkpt lat="43.33742" lon="5.79111">
        <ele>900.2</ele>
        <time>2025-10-05T08:38:28Z</time>
      </trkpt>
      <trkpt lat="43.33742" lon="5.79111">
        <ele>900.1</ele>
        <time>2025-10-05T08:38:29Z</time>
      </trkpt>
      <trkpt lat="43.33742" lon="5.79111">
        <ele>900</ele>
        <time>2025-10-05T08:38:30Z</time>
      </trkpt>
      <trkpt lat="43.33743" lon="5.79111">
        <ele>899.9</ele>
        <time>2025-10-05T08:38:31Z</time>
      </trkpt>
      <trkpt lat="43.33743" lon="5.79111">
        <ele>899.9</ele>
        <time>2025-10-05T08:38:32Z</time>
      </trkpt>
      <trkpt lat="43.33744" lon="5.79111">
        <ele>899.9</ele>
        <time>2025-10-05T08:38:33Z</time>
      </trkpt>
      <trkpt lat="43.33744" lon="5.79111">
        <ele>900.1</ele>
        <time>2025-10-05T08:38:34Z</time>
      </trkpt>
      <trkpt lat="43.33744" lon="5.79111">
        <ele>900.2</ele>
        <time>2025-10-05T08:38:35Z</time>
      </trkpt>
      <trkpt lat="43.33744" lon="5.79111">
        <ele>900.3</ele>
        <time>2025-10-05T08:38:36Z</time>
      </trkpt>
      <trkpt lat="43.33744" lon="5.79111">
        <ele>900.4</ele>
        <time>2025-10-05T08:38:37Z</time>
      </trkpt>
      <trkpt lat="43.33744" lon="5.7911">
        <ele>900.6</ele>
        <time>2025-10-05T08:38:38Z</time>
      </trkpt>
      <trkpt lat="43.33745" lon="5.7911">
        <ele>900.7</ele>
        <time>2025-10-05T08:38:39Z</time>
      </trkpt>
      <trkpt lat="43.33745" lon="5.7911">
        <ele>900.9</ele>
        <time>2025-10-05T08:38:40Z</time>
      </trkpt>
      <trkpt lat="43.33745" lon="5.7911">
        <ele>901.1</ele>
        <time>2025-10-05T08:38:41Z</time>
      </trkpt>
      <trkpt lat="43.33745" lon="5.7911">
        <ele>901.3</ele>
        <time>2025-10-05T08:38:42Z</time>
      </trkpt>
      <trkpt lat="43.33745" lon="5.7911">
        <ele>901.4</ele>
        <time>2025-10-05T08:38:43Z</time>
      </trkpt>
      <trkpt lat="43.33746" lon="5.7911">
        <ele>901.5</ele>
        <time>2025-10-05T08:38:44Z</time>
      </trkpt>
      <trkpt lat="43.33746" lon="5.7911">
        <ele>901.6</ele>
        <time>2025-10-05T08:38:45Z</time>
      </trkpt>
      <trkpt lat="43.33745" lon="5.7911">
        <ele>901.8</ele>
        <time>2025-10-05T08:38:46Z</time>
      </trkpt>
      <trkpt lat="43.33745" lon="5.7911">
        <ele>901.9</ele>
        <time>2025-10-05T08:38:47Z</time>
      </trkpt>
      <trkpt lat="43.33744" lon="5.7911">
        <ele>902.1</ele>
        <time>2025-10-05T08:38:48Z</time>
      </trkpt>
      <trkpt lat="43.33744" lon="5.7911">
        <ele>902.1</ele>
        <time>2025-10-05T08:38:49Z</time>
      </trkpt>
      <trkpt lat="43.33745" lon="5.7911">
        <ele>902</ele>
        <time>2025-10-05T08:38:50Z</time>
      </trkpt>
      <trkpt lat="43.33745" lon="5.7911">
        <ele>901.8</ele>
        <time>2025-10-05T08:38:51Z</time>
      </trkpt>
      <trkpt lat="43.33745" lon="5.7911">
        <ele>901.7</ele>
        <time>2025-10-05T08:38:52Z</time>
      </trkpt>
      <trkpt lat="43.33746" lon="5.7911">
        <ele>901.5</ele>
        <time>2025-10-05T08:38:53Z</time>
      </trkpt>
      <trkpt lat="43.33745" lon="5.7911">
        <ele>901.4</ele>
        <time>2025-10-05T08:38:54Z</time>
      </trkpt>
      <trkpt lat="43.33745" lon="5.7911">
        <ele>901.4</ele>
        <time>2025-10-05T08:38:55Z</time>
      </trkpt>
      <trkpt lat="43.33744" lon="5.79111">
        <ele>901.4</ele>
        <time>2025-10-05T08:38:56Z</time>
      </trkpt>
      <trkpt lat="43.33743" lon="5.79111">
        <ele>901.4</ele>
        <time>2025-10-05T08:38:57Z</time>
      </trkpt>
      <trkpt lat="43.33742" lon="5.79112">
        <ele>901.3</ele>
        <time>2025-10-05T08:38:58Z</time>
      </trkpt>
      <trkpt lat="43.33741" lon="5.79112">
        <ele>901.3</ele>
        <time>2025-10-05T08:38:59Z</time>
      </trkpt>
      <trkpt lat="43.3374" lon="5.79112">
        <ele>900.9</ele>
        <time>2025-10-05T08:39:00Z</time>
      </trkpt>
      <trkpt lat="43.33739" lon="5.79113">
        <ele>900.9</ele>
        <time>2025-10-05T08:39:01Z</time>
      </trkpt>
      <trkpt lat="43.33738" lon="5.79113">
        <ele>900.9</ele>
        <time>2025-10-05T08:39:02Z</time>
      </trkpt>
      <trkpt lat="43.33737" lon="5.79113">
        <ele>901.1</ele>
        <time>2025-10-05T08:39:03Z</time>
      </trkpt>
      <trkpt lat="43.33737" lon="5.79113">
        <ele>901.3</ele>
        <time>2025-10-05T08:39:04Z</time>
      </trkpt>
      <trkpt lat="43.33737" lon="5.79113">
        <ele>901.5</ele>
        <time>2025-10-05T08:39:05Z</time>
      </trkpt>
      <trkpt lat="43.33737" lon="5.79113">
        <ele>901.5</ele>
        <time>2025-10-05T08:39:06Z</time>
      </trkpt>
      <trkpt lat="43.33737" lon="5.79114">
        <ele>901.5</ele>
        <time>2025-10-05T08:39:07Z</time>
      </trkpt>
      <trkpt lat="43.33737" lon="5.79114">
        <ele>901.4</ele>
        <time>2025-10-05T08:39:08Z</time>
      </trkpt>
      <trkpt lat="43.33737" lon="5.79114">
        <ele>901.2</ele>
        <time>2025-10-05T08:39:09Z</time>
      </trkpt>
      <trkpt lat="43.33737" lon="5.79114">
        <ele>900.7</ele>
        <time>2025-10-05T08:39:10Z</time>
      </trkpt>
      <trkpt lat="43.33737" lon="5.79114">
        <ele>900.5</ele>
        <time>2025-10-05T08:39:11Z</time>
      </trkpt>
      <trkpt lat="43.33738" lon="5.79113">
        <ele>900.6</ele>
        <time>2025-10-05T08:39:12Z</time>
      </trkpt>
      <trkpt lat="43.33738" lon="5.79113">
        <ele>900.7</ele>
        <time>2025-10-05T08:39:13Z</time>
      </trkpt>
      <trkpt lat="43.33738" lon="5.79113">
        <ele>900.8</ele>
        <time>2025-10-05T08:39:14Z</time>
      </trkpt>
      <trkpt lat="43.33739" lon="5.79113">
        <ele>901</ele>
        <time>2025-10-05T08:39:15Z</time>
      </trkpt>
      <trkpt lat="43.33739" lon="5.79113">
        <ele>901.1</ele>
        <time>2025-10-05T08:39:16Z</time>
      </trkpt>
      <trkpt lat="43.33739" lon="5.79113">
        <ele>901.2</ele>
        <time>2025-10-05T08:39:17Z</time>
      </trkpt>
      <trkpt lat="43.33738" lon="5.79114">
        <ele>901.3</ele>
        <time>2025-10-05T08:39:18Z</time>
      </trkpt>
      <trkpt lat="43.3374" lon="5.79114">
        <ele>901.3</ele>
        <time>2025-10-05T08:39:19Z</time>
      </trkpt>
      <trkpt lat="43.33741" lon="5.79114">
        <ele>901.4</ele>
        <time>2025-10-05T08:39:20Z</time>
      </trkpt>
      <trkpt lat="43.33741" lon="5.79114">
        <ele>901.4</ele>
        <time>2025-10-05T08:39:21Z</time>
      </trkpt>
      <trkpt lat="43.33741" lon="5.79115">
        <ele>901.5</ele>
        <time>2025-10-05T08:39:22Z</time>
      </trkpt>
      <trkpt lat="43.33741" lon="5.79116">
        <ele>901.5</ele>
        <time>2025-10-05T08:39:23Z</time>
      </trkpt>
      <trkpt lat="43.33741" lon="5.79116">
        <ele>901.6</ele>
        <time>2025-10-05T08:39:24Z</time>
      </trkpt>
      <trkpt lat="43.3374" lon="5.79116">
        <ele>901.6</ele>
        <time>2025-10-05T08:39:25Z</time>
      </trkpt>
      <trkpt lat="43.3374" lon="5.79115">
        <ele>901.7</ele>
        <time>2025-10-05T08:39:26Z</time>
      </trkpt>
      <trkpt lat="43.3374" lon="5.79115">
        <ele>901.6</ele>
        <time>2025-10-05T08:39:27Z</time>
      </trkpt>
      <trkpt lat="43.3374" lon="5.79115">
        <ele>901.6</ele>
        <time>2025-10-05T08:39:28Z</time>
      </trkpt>
      <trkpt lat="43.3374" lon="5.79115">
        <ele>901.5</ele>
        <time>2025-10-05T08:39:29Z</time>
      </trkpt>
      <trkpt lat="43.3374" lon="5.79115">
        <ele>901.6</ele>
        <time>2025-10-05T08:39:30Z</time>
      </trkpt>
      <trkpt lat="43.3374" lon="5.79115">
        <ele>901.6</ele>
        <time>2025-10-05T08:39:31Z</time>
      </trkpt>
      <trkpt lat="43.3374" lon="5.79114">
        <ele>901.6</ele>
        <time>2025-10-05T08:39:32Z</time>
      </trkpt>
      <trkpt lat="43.3374" lon="5.79114">
        <ele>901.6</ele>
        <time>2025-10-05T08:39:33Z</time>
      </trkpt>
      <trkpt lat="43.3374" lon="5.79114">
        <ele>901.6</ele>
        <time>2025-10-05T08:39:34Z</time>
      </trkpt>
      <trkpt lat="43.3374" lon="5.79113">
        <ele>901.7</ele>
        <time>2025-10-05T08:39:35Z</time>
      </trkpt>
      <trkpt lat="43.33739" lon="5.79113">
        <ele>901.8</ele>
        <time>2025-10-05T08:39:36Z</time>
      </trkpt>
      <trkpt lat="43.33739" lon="5.79114">
        <ele>901.8</ele>
        <time>2025-10-05T08:39:37Z</time>
      </trkpt>
      <trkpt lat="43.3374" lon="5.79114">
        <ele>901.8</ele>
        <time>2025-10-05T08:39:38Z</time>
      </trkpt>
      <trkpt lat="43.3374" lon="5.79114">
        <ele>901.9</ele>
        <time>2025-10-05T08:39:39Z</time>
      </trkpt>
      <trkpt lat="43.3374" lon="5.79114">
        <ele>902</ele>
        <time>2025-10-05T08:39:40Z</time>
      </trkpt>
      <trkpt lat="43.33741" lon="5.79114">
        <ele>902.2</ele>
        <time>2025-10-05T08:39:41Z</time>
      </trkpt>
      <trkpt lat="43.3374" lon="5.79113">
        <ele>902.4</ele>
        <time>2025-10-05T08:39:42Z</time>
      </trkpt>
      <trkpt lat="43.3374" lon="5.79113">
        <ele>902.6</ele>
        <time>2025-10-05T08:39:43Z</time>
      </trkpt>
      <trkpt lat="43.33741" lon="5.79112">
        <ele>902.8</ele>
        <time>2025-10-05T08:39:44Z</time>
      </trkpt>
      <trkpt lat="43.33741" lon="5.79112">
        <ele>902.9</ele>
        <time>2025-10-05T08:39:45Z</time>
      </trkpt>
      <trkpt lat="43.33741" lon="5.79112">
        <ele>903.2</ele>
        <time>2025-10-05T08:39:46Z</time>
      </trkpt>
      <trkpt lat="43.33742" lon="5.79113">
        <ele>903.5</ele>
        <time>2025-10-05T08:39:47Z</time>
      </trkpt>
      <trkpt lat="43.33742" lon="5.79113">
        <ele>903.8</ele>
        <time>2025-10-05T08:39:48Z</time>
      </trkpt>
      <trkpt lat="43.33742" lon="5.79113">
        <ele>904.1</ele>
        <time>2025-10-05T08:39:49Z</time>
      </trkpt>
      <trkpt lat="43.3374" lon="5.79113">
        <ele>904.2</ele>
        <time>2025-10-05T08:39:50Z</time>
      </trkpt>
      <trkpt lat="43.3374" lon="5.79113">
        <ele>904.3</ele>
        <time>2025-10-05T08:39:51Z</time>
      </trkpt>
      <trkpt lat="43.33739" lon="5.79113">
        <ele>904.5</ele>
        <time>2025-10-05T08:39:52Z</time>
      </trkpt>
      <trkpt lat="43.33739" lon="5.79113">
        <ele>904.6</ele>
        <time>2025-10-05T08:39:53Z</time>
      </trkpt>
      <trkpt lat="43.33739" lon="5.79113">
        <ele>904.6</ele>
        <time>2025-10-05T08:39:54Z</time>
      </trkpt>
      <trkpt lat="43.3374" lon="5.79115">
        <ele>904.8</ele>
        <time>2025-10-05T08:39:55Z</time>
      </trkpt>
      <trkpt lat="43.3374" lon="5.79115">
        <ele>904.8</ele>
        <time>2025-10-05T08:39:56Z</time>
      </trkpt>
      <trkpt lat="43.3374" lon="5.79116">
        <ele>904.7</ele>
        <time>2025-10-05T08:39:57Z</time>
      </trkpt>
      <trkpt lat="43.3374" lon="5.79116">
        <ele>904.7</ele>
        <time>2025-10-05T08:39:58Z</time>
      </trkpt>
      <trkpt lat="43.33739" lon="5.79116">
        <ele>904.8</ele>
        <time>2025-10-05T08:39:59Z</time>
      </trkpt>
      <trkpt lat="43.33738" lon="5.79116">
        <ele>904.8</ele>
        <time>2025-10-05T08:40:00Z</time>
      </trkpt>
      <trkpt lat="43.33737" lon="5.79117">
        <ele>904.8</ele>
        <time>2025-10-05T08:40:01Z</time>
      </trkpt>
      <trkpt lat="43.33737" lon="5.79118">
        <ele>905</ele>
        <time>2025-10-05T08:40:02Z</time>
      </trkpt>
      <trkpt lat="43.33737" lon="5.79118">
        <ele>905.1</ele>
        <time>2025-10-05T08:40:03Z</time>
      </trkpt>
      <trkpt lat="43.33737" lon="5.79118">
        <ele>905.3</ele>
        <time>2025-10-05T08:40:04Z</time>
      </trkpt>
      <trkpt lat="43.33738" lon="5.79118">
        <ele>905.5</ele>
        <time>2025-10-05T08:40:05Z</time>
      </trkpt>
      <trkpt lat="43.33738" lon="5.79119">
        <ele>905.8</ele>
        <time>2025-10-05T08:40:06Z</time>
      </trkpt>
      <trkpt lat="43.33738" lon="5.79119">
        <ele>905.9</ele>
        <time>2025-10-05T08:40:07Z</time>
      </trkpt>
      <trkpt lat="43.33738" lon="5.79119">
        <ele>905.9</ele>
        <time>2025-10-05T08:40:08Z</time>
      </trkpt>
      <trkpt lat="43.33738" lon="5.79119">
        <ele>905.8</ele>
        <time>2025-10-05T08:40:09Z</time>
      </trkpt>
      <trkpt lat="43.33738" lon="5.79119">
        <ele>905.7</ele>
        <time>2025-10-05T08:40:10Z</time>
      </trkpt>
      <trkpt lat="43.33737" lon="5.7912">
        <ele>905.4</ele>
        <time>2025-10-05T08:40:11Z</time>
      </trkpt>
      <trkpt lat="43.33738" lon="5.7912">
        <ele>905.4</ele>
        <time>2025-10-05T08:40:12Z</time>
      </trkpt>
      <trkpt lat="43.33738" lon="5.79119">
        <ele>905.3</ele>
        <time>2025-10-05T08:40:13Z</time>
      </trkpt>
      <trkpt lat="43.33738" lon="5.79119">
        <ele>905</ele>
        <time>2025-10-05T08:40:14Z</time>
      </trkpt>
      <trkpt lat="43.33739" lon="5.79119">
        <ele>905</ele>
        <time>2025-10-05T08:40:15Z</time>
      </trkpt>
      <trkpt lat="43.33739" lon="5.79119">
        <ele>904.9</ele>
        <time>2025-10-05T08:40:16Z</time>
      </trkpt>
      <trkpt lat="43.3374" lon="5.79119">
        <ele>904.9</ele>
        <time>2025-10-05T08:40:17Z</time>
      </trkpt>
      <trkpt lat="43.3374" lon="5.79119">
        <ele>904.8</ele>
        <time>2025-10-05T08:40:18Z</time>
      </trkpt>
      <trkpt lat="43.33741" lon="5.79118">
        <ele>904.7</ele>
        <time>2025-10-05T08:40:19Z</time>
      </trkpt>
      <trkpt lat="43.33741" lon="5.79118">
        <ele>904.7</ele>
        <time>2025-10-05T08:40:20Z</time>
      </trkpt>
      <trkpt lat="43.33741" lon="5.79119">
        <ele>904.4</ele>
        <time>2025-10-05T08:40:21Z</time>
      </trkpt>
      <trkpt lat="43.33742" lon="5.79118">
        <ele>904.3</ele>
        <time>2025-10-05T08:40:22Z</time>
      </trkpt>
      <trkpt lat="43.33742" lon="5.79118">
        <ele>904.2</ele>
        <time>2025-10-05T08:40:23Z</time>
      </trkpt>
      <trkpt lat="43.33741" lon="5.79118">
        <ele>904.1</ele>
        <time>2025-10-05T08:40:24Z</time>
      </trkpt>
      <trkpt lat="43.33741" lon="5.79118">
        <ele>904.1</ele>
        <time>2025-10-05T08:40:25Z</time>
      </trkpt>
      <trkpt lat="43.33742" lon="5.79118">
        <ele>904.1</ele>
        <time>2025-10-05T08:40:26Z</time>
      </trkpt>
      <trkpt lat="43.33742" lon="5.79119">
        <ele>904</ele>
        <time>2025-10-05T08:40:27Z</time>
      </trkpt>
      <trkpt lat="43.33742" lon="5.79118">
        <ele>904</ele>
        <time>2025-10-05T08:40:28Z</time>
      </trkpt>
      <trkpt lat="43.33742" lon="5.79118">
        <ele>904</ele>
        <time>2025-10-05T08:40:29Z</time>
      </trkpt>
      <trkpt lat="43.33742" lon="5.79118">
        <ele>903.8</ele>
        <time>2025-10-05T08:40:30Z</time>
      </trkpt>
      <trkpt lat="43.33742" lon="5.79118">
        <ele>903.7</ele>
        <time>2025-10-05T08:40:31Z</time>
      </trkpt>
      <trkpt lat="43.33742" lon="5.79118">
        <ele>903.5</ele>
        <time>2025-10-05T08:40:32Z</time>
      </trkpt>
      <trkpt lat="43.33742" lon="5.79118">
        <ele>903.4</ele>
        <time>2025-10-05T08:40:33Z</time>
      </trkpt>
      <trkpt lat="43.33739" lon="5.79118">
        <ele>903.3</ele>
        <time>2025-10-05T08:40:34Z</time>
      </trkpt>
      <trkpt lat="43.3374" lon="5.79118">
        <ele>903.3</ele>
        <time>2025-10-05T08:40:35Z</time>
      </trkpt>
      <trkpt lat="43.3374" lon="5.79118">
        <ele>903.2</ele>
        <time>2025-10-05T08:40:36Z</time>
      </trkpt>
      <trkpt lat="43.3374" lon="5.79118">
        <ele>903.3</ele>
        <time>2025-10-05T08:40:37Z</time>
      </trkpt>
      <trkpt lat="43.33738" lon="5.79118">
        <ele>903.5</ele>
        <time>2025-10-05T08:40:38Z</time>
      </trkpt>
      <trkpt lat="43.33738" lon="5.79117">
        <ele>903.5</ele>
        <time>2025-10-05T08:40:39Z</time>
      </trkpt>
      <trkpt lat="43.33738" lon="5.79117">
        <ele>903.5</ele>
        <time>2025-10-05T08:40:40Z</time>
      </trkpt>
      <trkpt lat="43.33738" lon="5.79117">
        <ele>903.5</ele>
        <time>2025-10-05T08:40:41Z</time>
      </trkpt>
      <trkpt lat="43.33738" lon="5.79117">
        <ele>903.5</ele>
        <time>2025-10-05T08:40:42Z</time>
      </trkpt>
      <trkpt lat="43.33739" lon="5.79116">
        <ele>903.7</ele>
        <time>2025-10-05T08:40:43Z</time>
      </trkpt>
      <trkpt lat="43.33739" lon="5.79116">
        <ele>903.6</ele>
        <time>2025-10-05T08:40:44Z</time>
      </trkpt>
      <trkpt lat="43.33739" lon="5.79116">
        <ele>903.5</ele>
        <time>2025-10-05T08:40:45Z</time>
      </trkpt>
      <trkpt lat="43.3374" lon="5.79116">
        <ele>903.5</ele>
        <time>2025-10-05T08:40:46Z</time>
      </trkpt>
      <trkpt lat="43.3374" lon="5.79116">
        <ele>903.5</ele>
        <time>2025-10-05T08:40:47Z</time>
      </trkpt>
      <trkpt lat="43.33741" lon="5.79116">
        <ele>903.7</ele>
        <time>2025-10-05T08:40:48Z</time>
      </trkpt>
      <trkpt lat="43.33741" lon="5.79116">
        <ele>903.8</ele>
        <time>2025-10-05T08:40:49Z</time>
      </trkpt>
      <trkpt lat="43.33741" lon="5.79117">
        <ele>903.9</ele>
        <time>2025-10-05T08:40:50Z</time>
      </trkpt>
      <trkpt lat="43.3374" lon="5.79117">
        <ele>903.8</ele>
        <time>2025-10-05T08:40:51Z</time>
      </trkpt>
      <trkpt lat="43.3374" lon="5.79118">
        <ele>903.8</ele>
        <time>2025-10-05T08:40:52Z</time>
      </trkpt>
      <trkpt lat="43.3374" lon="5.79118">
        <ele>903.9</ele>
        <time>2025-10-05T08:40:53Z</time>
      </trkpt>
      <trkpt lat="43.33739" lon="5.79119">
        <ele>904.1</ele>
        <time>2025-10-05T08:40:54Z</time>
      </trkpt>
      <trkpt lat="43.33739" lon="5.79119">
        <ele>904.4</ele>
        <time>2025-10-05T08:40:55Z</time>
      </trkpt>
      <trkpt lat="43.33739" lon="5.79119">
        <ele>904.5</ele>
        <time>2025-10-05T08:40:56Z</time>
      </trkpt>
      <trkpt lat="43.33739" lon="5.79121">
        <ele>904.8</ele>
        <time>2025-10-05T08:40:57Z</time>
      </trkpt>
      <trkpt lat="43.33739" lon="5.79122">
        <ele>905</ele>
        <time>2025-10-05T08:40:58Z</time>
      </trkpt>
      <trkpt lat="43.33739" lon="5.79122">
        <ele>905.1</ele>
        <time>2025-10-05T08:40:59Z</time>
      </trkpt>
      <trkpt lat="43.33739" lon="5.79122">
        <ele>905</ele>
        <time>2025-10-05T08:41:00Z</time>
      </trkpt>
      <trkpt lat="43.33739" lon="5.79123">
        <ele>905.2</ele>
        <time>2025-10-05T08:41:01Z</time>
      </trkpt>
      <trkpt lat="43.3374" lon="5.79124">
        <ele>905.5</ele>
        <time>2025-10-05T08:41:02Z</time>
      </trkpt>
      <trkpt lat="43.33739" lon="5.79124">
        <ele>905.6</ele>
        <time>2025-10-05T08:41:03Z</time>
      </trkpt>
      <trkpt lat="43.3374" lon="5.79124">
        <ele>905.7</ele>
        <time>2025-10-05T08:41:04Z</time>
      </trkpt>
      <trkpt lat="43.3374" lon="5.79124">
        <ele>905.8</ele>
        <time>2025-10-05T08:41:05Z</time>
      </trkpt>
      <trkpt lat="43.3374" lon="5.79124">
        <ele>905.7</ele>
        <time>2025-10-05T08:41:06Z</time>
      </trkpt>
      <trkpt lat="43.3374" lon="5.79124">
        <ele>905.6</ele>
        <time>2025-10-05T08:41:07Z</time>
      </trkpt>
      <trkpt lat="43.3374" lon="5.79124">
        <ele>905.6</ele>
        <time>2025-10-05T08:41:08Z</time>
      </trkpt>
      <trkpt lat="43.33741" lon="5.79125">
        <ele>905.7</ele>
        <time>2025-10-05T08:41:09Z</time>
      </trkpt>
      <trkpt lat="43.33741" lon="5.79125">
        <ele>905.7</ele>
        <time>2025-10-05T08:41:10Z</time>
      </trkpt>
      <trkpt lat="43.33741" lon="5.79125">
        <ele>905.8</ele>
        <time>2025-10-05T08:41:11Z</time>
      </trkpt>
      <trkpt lat="43.33741" lon="5.79125">
        <ele>905.9</ele>
        <time>2025-10-05T08:41:12Z</time>
      </trkpt>
      <trkpt lat="43.33741" lon="5.79125">
        <ele>906</ele>
        <time>2025-10-05T08:41:13Z</time>
      </trkpt>
      <trkpt lat="43.33742" lon="5.79126">
        <ele>906</ele>
        <time>2025-10-05T08:41:14Z</time>
      </trkpt>
      <trkpt lat="43.33742" lon="5.79126">
        <ele>905.9</ele>
        <time>2025-10-05T08:41:15Z</time>
      </trkpt>
      <trkpt lat="43.33742" lon="5.79126">
        <ele>905.8</ele>
        <time>2025-10-05T08:41:16Z</time>
      </trkpt>
      <trkpt lat="43.33742" lon="5.79127">
        <ele>905.8</ele>
        <time>2025-10-05T08:41:17Z</time>
      </trkpt>
      <trkpt lat="43.33742" lon="5.79127">
        <ele>905.7</ele>
        <time>2025-10-05T08:41:18Z</time>
      </trkpt>
      <trkpt lat="43.33742" lon="5.79127">
        <ele>905.6</ele>
        <time>2025-10-05T08:41:19Z</time>
      </trkpt>
      <trkpt lat="43.33742" lon="5.79127">
        <ele>905.5</ele>
        <time>2025-10-05T08:41:20Z</time>
      </trkpt>
      <trkpt lat="43.33742" lon="5.79127">
        <ele>905.4</ele>
        <time>2025-10-05T08:41:21Z</time>
      </trkpt>
      <trkpt lat="43.33742" lon="5.79127">
        <ele>905.4</ele>
        <time>2025-10-05T08:41:22Z</time>
      </trkpt>
      <trkpt lat="43.33742" lon="5.79127">
        <ele>905.4</ele>
        <time>2025-10-05T08:41:23Z</time>
      </trkpt>
      <trkpt lat="43.33742" lon="5.79127">
        <ele>905.4</ele>
        <time>2025-10-05T08:41:24Z</time>
      </trkpt>
      <trkpt lat="43.33742" lon="5.79127">
        <ele>905.4</ele>
        <time>2025-10-05T08:41:25Z</time>
      </trkpt>
      <trkpt lat="43.33742" lon="5.79127">
        <ele>905.2</ele>
        <time>2025-10-05T08:41:26Z</time>
      </trkpt>
      <trkpt lat="43.33742" lon="5.79127">
        <ele>905.2</ele>
        <time>2025-10-05T08:41:27Z</time>
      </trkpt>
      <trkpt lat="43.33742" lon="5.79127">
        <ele>905.2</ele>
        <time>2025-10-05T08:41:28Z</time>
      </trkpt>
      <trkpt lat="43.33742" lon="5.79127">
        <ele>905.3</ele>
        <time>2025-10-05T08:41:29Z</time>
      </trkpt>
      <trkpt lat="43.33742" lon="5.79127">
        <ele>905.6</ele>
        <time>2025-10-05T08:41:30Z</time>
      </trkpt>
      <trkpt lat="43.33742" lon="5.79127">
        <ele>905.9</ele>
        <time>2025-10-05T08:41:31Z</time>
      </trkpt>
      <trkpt lat="43.33742" lon="5.79127">
        <ele>906.1</ele>
        <time>2025-10-05T08:41:32Z</time>
      </trkpt>
      <trkpt lat="43.33742" lon="5.79127">
        <ele>906.4</ele>
        <time>2025-10-05T08:41:33Z</time>
      </trkpt>
      <trkpt lat="43.33742" lon="5.79126">
        <ele>906.6</ele>
        <time>2025-10-05T08:41:34Z</time>
      </trkpt>
      <trkpt lat="43.33742" lon="5.79127">
        <ele>907</ele>
        <time>2025-10-05T08:41:35Z</time>
      </trkpt>
      <trkpt lat="43.33742" lon="5.79127">
        <ele>907.3</ele>
        <time>2025-10-05T08:41:36Z</time>
      </trkpt>
      <trkpt lat="43.33742" lon="5.79127">
        <ele>907.6</ele>
        <time>2025-10-05T08:41:37Z</time>
      </trkpt>
      <trkpt lat="43.33742" lon="5.79127">
        <ele>907.8</ele>
        <time>2025-10-05T08:41:38Z</time>
      </trkpt>
      <trkpt lat="43.33742" lon="5.79127">
        <ele>908.1</ele>
        <time>2025-10-05T08:41:39Z</time>
      </trkpt>
      <trkpt lat="43.33742" lon="5.79127">
        <ele>908.4</ele>
        <time>2025-10-05T08:41:40Z</time>
      </trkpt>
      <trkpt lat="43.33742" lon="5.79126">
        <ele>908.7</ele>
        <time>2025-10-05T08:41:41Z</time>
      </trkpt>
      <trkpt lat="43.33742" lon="5.79127">
        <ele>908.9</ele>
        <time>2025-10-05T08:41:42Z</time>
      </trkpt>
      <trkpt lat="43.33742" lon="5.79127">
        <ele>909.2</ele>
        <time>2025-10-05T08:41:43Z</time>
      </trkpt>
      <trkpt lat="43.33742" lon="5.79127">
        <ele>909.5</ele>
        <time>2025-10-05T08:41:44Z</time>
      </trkpt>
      <trkpt lat="43.33743" lon="5.79126">
        <ele>909.7</ele>
        <time>2025-10-05T08:41:45Z</time>
      </trkpt>
      <trkpt lat="43.33743" lon="5.79127">
        <ele>909.8</ele>
        <time>2025-10-05T08:41:46Z</time>
      </trkpt>
      <trkpt lat="43.33742" lon="5.79127">
        <ele>910</ele>
        <time>2025-10-05T08:41:47Z</time>
      </trkpt>
      <trkpt lat="43.33742" lon="5.79126">
        <ele>910</ele>
        <time>2025-10-05T08:41:48Z</time>
      </trkpt>
      <trkpt lat="43.33741" lon="5.79126">
        <ele>910.1</ele>
        <time>2025-10-05T08:41:49Z</time>
      </trkpt>
      <trkpt lat="43.33741" lon="5.79126">
        <ele>910.1</ele>
        <time>2025-10-05T08:41:50Z</time>
      </trkpt>
      <trkpt lat="43.33741" lon="5.79126">
        <ele>910.3</ele>
        <time>2025-10-05T08:41:51Z</time>
      </trkpt>
      <trkpt lat="43.3374" lon="5.79126">
        <ele>910.3</ele>
        <time>2025-10-05T08:41:52Z</time>
      </trkpt>
      <trkpt lat="43.3374" lon="5.79126">
        <ele>910.3</ele>
        <time>2025-10-05T08:41:53Z</time>
      </trkpt>
      <trkpt lat="43.3374" lon="5.79125">
        <ele>910.1</ele>
        <time>2025-10-05T08:41:54Z</time>
      </trkpt>
      <trkpt lat="43.33739" lon="5.79125">
        <ele>909.8</ele>
        <time>2025-10-05T08:41:55Z</time>
      </trkpt>
      <trkpt lat="43.3374" lon="5.79125">
        <ele>909.5</ele>
        <time>2025-10-05T08:41:56Z</time>
      </trkpt>
      <trkpt lat="43.3374" lon="5.79125">
        <ele>909.3</ele>
        <time>2025-10-05T08:41:57Z</time>
      </trkpt>
      <trkpt lat="43.3374" lon="5.79125">
        <ele>909.1</ele>
        <time>2025-10-05T08:41:58Z</time>
      </trkpt>
      <trkpt lat="43.3374" lon="5.79124">
        <ele>909</ele>
        <time>2025-10-05T08:41:59Z</time>
      </trkpt>
      <trkpt lat="43.33741" lon="5.79124">
        <ele>908.9</ele>
        <time>2025-10-05T08:42:00Z</time>
      </trkpt>
      <trkpt lat="43.33741" lon="5.79124">
        <ele>908.9</ele>
        <time>2025-10-05T08:42:01Z</time>
      </trkpt>
      <trkpt lat="43.33741" lon="5.79124">
        <ele>908.9</ele>
        <time>2025-10-05T08:42:02Z</time>
      </trkpt>
      <trkpt lat="43.33741" lon="5.79124">
        <ele>908.9</ele>
        <time>2025-10-05T08:42:03Z</time>
      </trkpt>
      <trkpt lat="43.33742" lon="5.79123">
        <ele>908.9</ele>
        <time>2025-10-05T08:42:04Z</time>
      </trkpt>
      <trkpt lat="43.33742" lon="5.79123">
        <ele>909</ele>
        <time>2025-10-05T08:42:05Z</time>
      </trkpt>
      <trkpt lat="43.33742" lon="5.79123">
        <ele>909</ele>
        <time>2025-10-05T08:42:06Z</time>
      </trkpt>
      <trkpt lat="43.33742" lon="5.79123">
        <ele>909</ele>
        <time>2025-10-05T08:42:07Z</time>
      </trkpt>
      <trkpt lat="43.33742" lon="5.79123">
        <ele>909</ele>
        <time>2025-10-05T08:42:08Z</time>
      </trkpt>
      <trkpt lat="43.33742" lon="5.79123">
        <ele>908.9</ele>
        <time>2025-10-05T08:42:09Z</time>
      </trkpt>
      <trkpt lat="43.33742" lon="5.79123">
        <ele>908.9</ele>
        <time>2025-10-05T08:42:10Z</time>
      </trkpt>
      <trkpt lat="43.33742" lon="5.79123">
        <ele>908.8</ele>
        <time>2025-10-05T08:42:11Z</time>
      </trkpt>
      <trkpt lat="43.33743" lon="5.79123">
        <ele>908.9</ele>
        <time>2025-10-05T08:42:12Z</time>
      </trkpt>
      <trkpt lat="43.33742" lon="5.79123">
        <ele>909.1</ele>
        <time>2025-10-05T08:42:13Z</time>
      </trkpt>
      <trkpt lat="43.33742" lon="5.79123">
        <ele>909.1</ele>
        <time>2025-10-05T08:42:14Z</time>
      </trkpt>
      <trkpt lat="43.33742" lon="5.79123">
        <ele>909.1</ele>
        <time>2025-10-05T08:42:15Z</time>
      </trkpt>
      <trkpt lat="43.33742" lon="5.79123">
        <ele>909.2</ele>
        <time>2025-10-05T08:42:16Z</time>
      </trkpt>
      <trkpt lat="43.33742" lon="5.79123">
        <ele>909.3</ele>
        <time>2025-10-05T08:42:17Z</time>
      </trkpt>
      <trkpt lat="43.33742" lon="5.79123">
        <ele>909.2</ele>
        <time>2025-10-05T08:42:18Z</time>
      </trkpt>
      <trkpt lat="43.33742" lon="5.79123">
        <ele>909.1</ele>
        <time>2025-10-05T08:42:19Z</time>
      </trkpt>
      <trkpt lat="43.33741" lon="5.79123">
        <ele>909.3</ele>
        <time>2025-10-05T08:42:20Z</time>
      </trkpt>
      <trkpt lat="43.33741" lon="5.79122">
        <ele>909.4</ele>
        <time>2025-10-05T08:42:21Z</time>
      </trkpt>
      <trkpt lat="43.33741" lon="5.79122">
        <ele>909.6</ele>
        <time>2025-10-05T08:42:22Z</time>
      </trkpt>
      <trkpt lat="43.33741" lon="5.79122">
        <ele>909.6</ele>
        <time>2025-10-05T08:42:23Z</time>
      </trkpt>
      <trkpt lat="43.33741" lon="5.79123">
        <ele>909.7</ele>
        <time>2025-10-05T08:42:24Z</time>
      </trkpt>
      <trkpt lat="43.33741" lon="5.79123">
        <ele>909.7</ele>
        <time>2025-10-05T08:42:25Z</time>
      </trkpt>
      <trkpt lat="43.33742" lon="5.79123">
        <ele>909.8</ele>
        <time>2025-10-05T08:42:26Z</time>
      </trkpt>
      <trkpt lat="43.33742" lon="5.79124">
        <ele>910.1</ele>
        <time>2025-10-05T08:42:27Z</time>
      </trkpt>
      <trkpt lat="43.33742" lon="5.79123">
        <ele>910.3</ele>
        <time>2025-10-05T08:42:28Z</time>
      </trkpt>
      <trkpt lat="43.33743" lon="5.79123">
        <ele>910.4</ele>
        <time>2025-10-05T08:42:29Z</time>
      </trkpt>
      <trkpt lat="43.33743" lon="5.79123">
        <ele>910.5</ele>
        <time>2025-10-05T08:42:30Z</time>
      </trkpt>
      <trkpt lat="43.33743" lon="5.79123">
        <ele>910.6</ele>
        <time>2025-10-05T08:42:31Z</time>
      </trkpt>
      <trkpt lat="43.33743" lon="5.79123">
        <ele>910.7</ele>
        <time>2025-10-05T08:42:32Z</time>
      </trkpt>
      <trkpt lat="43.33743" lon="5.79123">
        <ele>910.8</ele>
        <time>2025-10-05T08:42:33Z</time>
      </trkpt>
      <trkpt lat="43.33743" lon="5.79123">
        <ele>910.9</ele>
        <time>2025-10-05T08:42:34Z</time>
      </trkpt>
      <trkpt lat="43.33743" lon="5.79123">
        <ele>911.1</ele>
        <time>2025-10-05T08:42:35Z</time>
      </trkpt>
      <trkpt lat="43.33743" lon="5.79123">
        <ele>911.3</ele>
        <time>2025-10-05T08:42:36Z</time>
      </trkpt>
      <trkpt lat="43.33743" lon="5.79123">
        <ele>911.4</ele>
        <time>2025-10-05T08:42:37Z</time>
      </trkpt>
      <trkpt lat="43.33743" lon="5.79123">
        <ele>911.5</ele>
        <time>2025-10-05T08:42:38Z</time>
      </trkpt>
      <trkpt lat="43.33743" lon="5.79123">
        <ele>911.6</ele>
        <time>2025-10-05T08:42:39Z</time>
      </trkpt>
      <trkpt lat="43.33744" lon="5.79122">
        <ele>911.7</ele>
        <time>2025-10-05T08:42:40Z</time>
      </trkpt>
      <trkpt lat="43.33744" lon="5.79122">
        <ele>911.7</ele>
        <time>2025-10-05T08:42:41Z</time>
      </trkpt>
      <trkpt lat="43.33743" lon="5.79123">
        <ele>911.7</ele>
        <time>2025-10-05T08:42:42Z</time>
      </trkpt>
      <trkpt lat="43.33743" lon="5.79122">
        <ele>911.6</ele>
        <time>2025-10-05T08:42:43Z</time>
      </trkpt>
      <trkpt lat="43.33743" lon="5.79122">
        <ele>911.6</ele>
        <time>2025-10-05T08:42:44Z</time>
      </trkpt>
      <trkpt lat="43.33744" lon="5.79122">
        <ele>911.6</ele>
        <time>2025-10-05T08:42:45Z</time>
      </trkpt>
      <trkpt lat="43.33744" lon="5.79122">
        <ele>911.6</ele>
        <time>2025-10-05T08:42:46Z</time>
      </trkpt>
      <trkpt lat="43.33744" lon="5.79121">
        <ele>911.5</ele>
        <time>2025-10-05T08:42:47Z</time>
      </trkpt>
      <trkpt lat="43.33744" lon="5.79121">
        <ele>911.6</ele>
        <time>2025-10-05T08:42:48Z</time>
      </trkpt>
      <trkpt lat="43.33744" lon="5.79121">
        <ele>911.8</ele>
        <time>2025-10-05T08:42:49Z</time>
      </trkpt>
      <trkpt lat="43.33744" lon="5.79121">
        <ele>912</ele>
        <time>2025-10-05T08:42:50Z</time>
      </trkpt>
      <trkpt lat="43.33744" lon="5.79122">
        <ele>912.1</ele>
        <time>2025-10-05T08:42:51Z</time>
      </trkpt>
      <trkpt lat="43.33744" lon="5.79122">
        <ele>912.2</ele>
        <time>2025-10-05T08:42:52Z</time>
      </trkpt>
      <trkpt lat="43.33744" lon="5.79123">
        <ele>912.2</ele>
        <time>2025-10-05T08:42:53Z</time>
      </trkpt>
      <trkpt lat="43.33744" lon="5.79123">
        <ele>912.3</ele>
        <time>2025-10-05T08:42:54Z</time>
      </trkpt>
      <trkpt lat="43.33744" lon="5.79123">
        <ele>912.2</ele>
        <time>2025-10-05T08:42:55Z</time>
      </trkpt>
      <trkpt lat="43.33744" lon="5.79124">
        <ele>912.2</ele>
        <time>2025-10-05T08:42:56Z</time>
      </trkpt>
      <trkpt lat="43.33744" lon="5.79124">
        <ele>912.1</ele>
        <time>2025-10-05T08:42:57Z</time>
      </trkpt>
      <trkpt lat="43.33744" lon="5.79125">
        <ele>912</ele>
        <time>2025-10-05T08:42:58Z</time>
      </trkpt>
      <trkpt lat="43.33744" lon="5.79125">
        <ele>912</ele>
        <time>2025-10-05T08:42:59Z</time>
      </trkpt>
      <trkpt lat="43.33744" lon="5.79126">
        <ele>911.9</ele>
        <time>2025-10-05T08:43:00Z</time>
      </trkpt>
      <trkpt lat="43.33744" lon="5.79127">
        <ele>912</ele>
        <time>2025-10-05T08:43:01Z</time>
      </trkpt>
      <trkpt lat="43.33744" lon="5.79127">
        <ele>912</ele>
        <time>2025-10-05T08:43:02Z</time>
      </trkpt>
      <trkpt lat="43.33744" lon="5.79127">
        <ele>912.1</ele>
        <time>2025-10-05T08:43:03Z</time>
      </trkpt>
      <trkpt lat="43.33743" lon="5.79127">
        <ele>912.1</ele>
        <time>2025-10-05T08:43:04Z</time>
      </trkpt>
      <trkpt lat="43.33743" lon="5.79127">
        <ele>912.2</ele>
        <time>2025-10-05T08:43:05Z</time>
      </trkpt>
      <trkpt lat="43.33743" lon="5.79127">
        <ele>912.3</ele>
        <time>2025-10-05T08:43:06Z</time>
      </trkpt>
      <trkpt lat="43.33742" lon="5.79127">
        <ele>912.3</ele>
        <time>2025-10-05T08:43:07Z</time>
      </trkpt>
      <trkpt lat="43.33742" lon="5.79127">
        <ele>912.6</ele>
        <time>2025-10-05T08:43:08Z</time>
      </trkpt>
      <trkpt lat="43.33742" lon="5.79127">
        <ele>912.7</ele>
        <time>2025-10-05T08:43:09Z</time>
      </trkpt>
      <trkpt lat="43.33742" lon="5.79128">
        <ele>912.9</ele>
        <time>2025-10-05T08:43:10Z</time>
      </trkpt>
      <trkpt lat="43.33742" lon="5.79128">
        <ele>912.9</ele>
        <time>2025-10-05T08:43:11Z</time>
      </trkpt>
      <trkpt lat="43.33741" lon="5.79128">
        <ele>913</ele>
        <time>2025-10-05T08:43:12Z</time>
      </trkpt>
      <trkpt lat="43.33741" lon="5.79128">
        <ele>913</ele>
        <time>2025-10-05T08:43:13Z</time>
      </trkpt>
      <trkpt lat="43.33741" lon="5.79129">
        <ele>913</ele>
        <time>2025-10-05T08:43:14Z</time>
      </trkpt>
      <trkpt lat="43.33741" lon="5.79129">
        <ele>913.1</ele>
        <time>2025-10-05T08:43:15Z</time>
      </trkpt>
      <trkpt lat="43.33741" lon="5.79129">
        <ele>913.4</ele>
        <time>2025-10-05T08:43:16Z</time>
      </trkpt>
      <trkpt lat="43.33741" lon="5.79129">
        <ele>913.5</ele>
        <time>2025-10-05T08:43:17Z</time>
      </trkpt>
      <trkpt lat="43.33741" lon="5.79129">
        <ele>913.5</ele>
        <time>2025-10-05T08:43:18Z</time>
      </trkpt>
      <trkpt lat="43.33741" lon="5.79129">
        <ele>913.4</ele>
        <time>2025-10-05T08:43:19Z</time>
      </trkpt>
      <trkpt lat="43.33741" lon="5.79128">
        <ele>913.5</ele>
        <time>2025-10-05T08:43:20Z</time>
      </trkpt>
      <trkpt lat="43.3374" lon="5.79128">
        <ele>913.6</ele>
        <time>2025-10-05T08:43:21Z</time>
      </trkpt>
      <trkpt lat="43.3374" lon="5.79129">
        <ele>913.6</ele>
        <time>2025-10-05T08:43:22Z</time>
      </trkpt>
      <trkpt lat="43.3374" lon="5.79129">
        <ele>913.8</ele>
        <time>2025-10-05T08:43:23Z</time>
      </trkpt>
      <trkpt lat="43.3374" lon="5.79128">
        <ele>913.8</ele>
        <time>2025-10-05T08:43:24Z</time>
      </trkpt>
      <trkpt lat="43.33741" lon="5.79129">
        <ele>913.9</ele>
        <time>2025-10-05T08:43:25Z</time>
      </trkpt>
      <trkpt lat="43.33741" lon="5.79129">
        <ele>913.9</ele>
        <time>2025-10-05T08:43:26Z</time>
      </trkpt>
      <trkpt lat="43.33741" lon="5.79129">
        <ele>914.2</ele>
        <time>2025-10-05T08:43:27Z</time>
      </trkpt>
      <trkpt lat="43.33741" lon="5.79128">
        <ele>914.4</ele>
        <time>2025-10-05T08:43:28Z</time>
      </trkpt>
      <trkpt lat="43.33741" lon="5.79128">
        <ele>914.3</ele>
        <time>2025-10-05T08:43:29Z</time>
      </trkpt>
      <trkpt lat="43.33741" lon="5.79129">
        <ele>914.3</ele>
        <time>2025-10-05T08:43:30Z</time>
      </trkpt>
      <trkpt lat="43.33741" lon="5.79129">
        <ele>914.4</ele>
        <time>2025-10-05T08:43:31Z</time>
      </trkpt>
      <trkpt lat="43.33741" lon="5.7913">
        <ele>914.4</ele>
        <time>2025-10-05T08:43:32Z</time>
      </trkpt>
      <trkpt lat="43.33741" lon="5.7913">
        <ele>914.5</ele>
        <time>2025-10-05T08:43:33Z</time>
      </trkpt>
      <trkpt lat="43.33741" lon="5.79131">
        <ele>914.7</ele>
        <time>2025-10-05T08:43:34Z</time>
      </trkpt>
      <trkpt lat="43.33741" lon="5.79131">
        <ele>914.8</ele>
        <time>2025-10-05T08:43:35Z</time>
      </trkpt>
      <trkpt lat="43.33741" lon="5.79131">
        <ele>914.8</ele>
        <time>2025-10-05T08:43:36Z</time>
      </trkpt>
      <trkpt lat="43.33741" lon="5.79131">
        <ele>915</ele>
        <time>2025-10-05T08:43:37Z</time>
      </trkpt>
      <trkpt lat="43.33741" lon="5.79131">
        <ele>915.1</ele>
        <time>2025-10-05T08:43:38Z</time>
      </trkpt>
      <trkpt lat="43.33741" lon="5.79131">
        <ele>915.3</ele>
        <time>2025-10-05T08:43:39Z</time>
      </trkpt>
      <trkpt lat="43.33741" lon="5.79131">
        <ele>915.4</ele>
        <time>2025-10-05T08:43:40Z</time>
      </trkpt>
      <trkpt lat="43.33741" lon="5.79131">
        <ele>915.5</ele>
        <time>2025-10-05T08:43:41Z</time>
      </trkpt>
      <trkpt lat="43.33741" lon="5.79131">
        <ele>915.5</ele>
        <time>2025-10-05T08:43:42Z</time>
      </trkpt>
      <trkpt lat="43.33741" lon="5.79131">
        <ele>915.5</ele>
        <time>2025-10-05T08:43:43Z</time>
      </trkpt>
      <trkpt lat="43.33741" lon="5.79131">
        <ele>915.5</ele>
        <time>2025-10-05T08:43:44Z</time>
      </trkpt>
      <trkpt lat="43.33741" lon="5.79131">
        <ele>915.5</ele>
        <time>2025-10-05T08:43:45Z</time>
      </trkpt>
      <trkpt lat="43.33741" lon="5.79132">
        <ele>915.5</ele>
        <time>2025-10-05T08:43:46Z</time>
      </trkpt>
      <trkpt lat="43.33741" lon="5.79132">
        <ele>915.5</ele>
        <time>2025-10-05T08:43:47Z</time>
      </trkpt>
      <trkpt lat="43.33741" lon="5.79132">
        <ele>915.6</ele>
        <time>2025-10-05T08:43:48Z</time>
      </trkpt>
      <trkpt lat="43.33741" lon="5.79132">
        <ele>915.6</ele>
        <time>2025-10-05T08:43:49Z</time>
      </trkpt>
      <trkpt lat="43.33741" lon="5.79132">
        <ele>915.7</ele>
        <time>2025-10-05T08:43:50Z</time>
      </trkpt>
      <trkpt lat="43.33741" lon="5.79132">
        <ele>915.9</ele>
        <time>2025-10-05T08:43:51Z</time>
      </trkpt>
      <trkpt lat="43.33741" lon="5.79131">
        <ele>916.1</ele>
        <time>2025-10-05T08:43:52Z</time>
      </trkpt>
      <trkpt lat="43.33742" lon="5.79131">
        <ele>916.2</ele>
        <time>2025-10-05T08:43:53Z</time>
      </trkpt>
      <trkpt lat="43.33742" lon="5.79131">
        <ele>916.2</ele>
        <time>2025-10-05T08:43:54Z</time>
      </trkpt>
      <trkpt lat="43.33742" lon="5.79131">
        <ele>916.2</ele>
        <time>2025-10-05T08:43:55Z</time>
      </trkpt>
      <trkpt lat="43.33742" lon="5.7913">
        <ele>916.2</ele>
        <time>2025-10-05T08:43:56Z</time>
      </trkpt>
      <trkpt lat="43.33742" lon="5.7913">
        <ele>915.9</ele>
        <time>2025-10-05T08:43:57Z</time>
      </trkpt>
      <trkpt lat="43.33742" lon="5.7913">
        <ele>915.9</ele>
        <time>2025-10-05T08:43:58Z</time>
      </trkpt>
      <trkpt lat="43.33742" lon="5.7913">
        <ele>915.7</ele>
        <time>2025-10-05T08:43:59Z</time>
      </trkpt>
      <trkpt lat="43.33742" lon="5.7913">
        <ele>915.7</ele>
        <time>2025-10-05T08:44:00Z</time>
      </trkpt>
      <trkpt lat="43.33742" lon="5.7913">
        <ele>915.5</ele>
        <time>2025-10-05T08:44:01Z</time>
      </trkpt>
      <trkpt lat="43.33743" lon="5.79129">
        <ele>915.5</ele>
        <time>2025-10-05T08:44:02Z</time>
      </trkpt>
      <trkpt lat="43.33743" lon="5.79129">
        <ele>915.5</ele>
        <time>2025-10-05T08:44:03Z</time>
      </trkpt>
      <trkpt lat="43.33742" lon="5.79129">
        <ele>915.4</ele>
        <time>2025-10-05T08:44:04Z</time>
      </trkpt>
      <trkpt lat="43.33742" lon="5.7913">
        <ele>915.4</ele>
        <time>2025-10-05T08:44:05Z</time>
      </trkpt>
      <trkpt lat="43.33742" lon="5.7913">
        <ele>915.2</ele>
        <time>2025-10-05T08:44:06Z</time>
      </trkpt>
      <trkpt lat="43.33742" lon="5.79131">
        <ele>915.3</ele>
        <time>2025-10-05T08:44:07Z</time>
      </trkpt>
      <trkpt lat="43.33742" lon="5.79131">
        <ele>915.3</ele>
        <time>2025-10-05T08:44:08Z</time>
      </trkpt>
      <trkpt lat="43.33742" lon="5.79131">
        <ele>915.5</ele>
        <time>2025-10-05T08:44:09Z</time>
      </trkpt>
      <trkpt lat="43.33742" lon="5.79132">
        <ele>915.9</ele>
        <time>2025-10-05T08:44:10Z</time>
      </trkpt>
      <trkpt lat="43.33741" lon="5.79132">
        <ele>916.4</ele>
        <time>2025-10-05T08:44:11Z</time>
      </trkpt>
      <trkpt lat="43.33741" lon="5.79132">
        <ele>916.9</ele>
        <time>2025-10-05T08:44:12Z</time>
      </trkpt>
      <trkpt lat="43.3374" lon="5.79132">
        <ele>916.8</ele>
        <time>2025-10-05T08:44:13Z</time>
      </trkpt>
      <trkpt lat="43.3374" lon="5.79132">
        <ele>917</ele>
        <time>2025-10-05T08:44:14Z</time>
      </trkpt>
      <trkpt lat="43.3374" lon="5.79132">
        <ele>917</ele>
        <time>2025-10-05T08:44:15Z</time>
      </trkpt>
      <trkpt lat="43.3374" lon="5.79133">
        <ele>917.1</ele>
        <time>2025-10-05T08:44:16Z</time>
      </trkpt>
      <trkpt lat="43.3374" lon="5.79133">
        <ele>917.2</ele>
        <time>2025-10-05T08:44:17Z</time>
      </trkpt>
      <trkpt lat="43.33741" lon="5.79133">
        <ele>917.3</ele>
        <time>2025-10-05T08:44:18Z</time>
      </trkpt>
      <trkpt lat="43.33741" lon="5.79133">
        <ele>917.3</ele>
        <time>2025-10-05T08:44:19Z</time>
      </trkpt>
      <trkpt lat="43.33741" lon="5.79133">
        <ele>917.3</ele>
        <time>2025-10-05T08:44:20Z</time>
      </trkpt>
      <trkpt lat="43.33741" lon="5.79132">
        <ele>917.3</ele>
        <time>2025-10-05T08:44:21Z</time>
      </trkpt>
      <trkpt lat="43.33741" lon="5.79132">
        <ele>917.3</ele>
        <time>2025-10-05T08:44:22Z</time>
      </trkpt>
      <trkpt lat="43.33741" lon="5.79132">
        <ele>917.2</ele>
        <time>2025-10-05T08:44:23Z</time>
      </trkpt>
      <trkpt lat="43.33741" lon="5.79132">
        <ele>917.1</ele>
        <time>2025-10-05T08:44:24Z</time>
      </trkpt>
      <trkpt lat="43.33741" lon="5.79132">
        <ele>917</ele>
        <time>2025-10-05T08:44:25Z</time>
      </trkpt>
      <trkpt lat="43.33741" lon="5.79132">
        <ele>917</ele>
        <time>2025-10-05T08:44:26Z</time>
      </trkpt>
      <trkpt lat="43.33742" lon="5.79131">
        <ele>916.9</ele>
        <time>2025-10-05T08:44:27Z</time>
      </trkpt>
      <trkpt lat="43.33742" lon="5.79131">
        <ele>916.9</ele>
        <time>2025-10-05T08:44:28Z</time>
      </trkpt>
      <trkpt lat="43.33742" lon="5.79131">
        <ele>917.2</ele>
        <time>2025-10-05T08:44:29Z</time>
      </trkpt>
      <trkpt lat="43.33742" lon="5.79131">
        <ele>917.3</ele>
        <time>2025-10-05T08:44:30Z</time>
      </trkpt>
      <trkpt lat="43.33743" lon="5.7913">
        <ele>917.3</ele>
        <time>2025-10-05T08:44:31Z</time>
      </trkpt>
      <trkpt lat="43.33743" lon="5.7913">
        <ele>917.2</ele>
        <time>2025-10-05T08:44:32Z</time>
      </trkpt>
      <trkpt lat="43.33743" lon="5.7913">
        <ele>917.3</ele>
        <time>2025-10-05T08:44:33Z</time>
      </trkpt>
      <trkpt lat="43.33745" lon="5.79129">
        <ele>917</ele>
        <time>2025-10-05T08:44:34Z</time>
      </trkpt>
      <trkpt lat="43.33744" lon="5.7913">
        <ele>917.3</ele>
        <time>2025-10-05T08:44:35Z</time>
      </trkpt>
      <trkpt lat="43.33743" lon="5.7913">
        <ele>917.4</ele>
        <time>2025-10-05T08:44:36Z</time>
      </trkpt>
      <trkpt lat="43.33743" lon="5.7913">
        <ele>917.6</ele>
        <time>2025-10-05T08:44:37Z</time>
      </trkpt>
      <trkpt lat="43.33742" lon="5.7913">
        <ele>917.7</ele>
        <time>2025-10-05T08:44:38Z</time>
      </trkpt>
      <trkpt lat="43.33742" lon="5.79131">
        <ele>917.8</ele>
        <time>2025-10-05T08:44:39Z</time>
      </trkpt>
      <trkpt lat="43.33743" lon="5.79131">
        <ele>917.9</ele>
        <time>2025-10-05T08:44:40Z</time>
      </trkpt>
      <trkpt lat="43.33743" lon="5.79131">
        <ele>918</ele>
        <time>2025-10-05T08:44:41Z</time>
      </trkpt>
      <trkpt lat="43.33744" lon="5.79131">
        <ele>918</ele>
        <time>2025-10-05T08:44:42Z</time>
      </trkpt>
      <trkpt lat="43.33743" lon="5.79132">
        <ele>918.2</ele>
        <time>2025-10-05T08:44:43Z</time>
      </trkpt>
      <trkpt lat="43.33743" lon="5.79133">
        <ele>918.3</ele>
        <time>2025-10-05T08:44:44Z</time>
      </trkpt>
      <trkpt lat="43.33743" lon="5.79133">
        <ele>918.1</ele>
        <time>2025-10-05T08:44:45Z</time>
      </trkpt>
      <trkpt lat="43.33743" lon="5.79133">
        <ele>917.9</ele>
        <time>2025-10-05T08:44:46Z</time>
      </trkpt>
      <trkpt lat="43.33742" lon="5.79133">
        <ele>917.7</ele>
        <time>2025-10-05T08:44:47Z</time>
      </trkpt>
      <trkpt lat="43.33742" lon="5.79133">
        <ele>917.6</ele>
        <time>2025-10-05T08:44:48Z</time>
      </trkpt>
      <trkpt lat="43.33742" lon="5.79133">
        <ele>917.7</ele>
        <time>2025-10-05T08:44:49Z</time>
      </trkpt>
      <trkpt lat="43.33742" lon="5.79134">
        <ele>917.9</ele>
        <time>2025-10-05T08:44:50Z</time>
      </trkpt>
      <trkpt lat="43.33742" lon="5.79134">
        <ele>918</ele>
        <time>2025-10-05T08:44:51Z</time>
      </trkpt>
      <trkpt lat="43.33742" lon="5.79133">
        <ele>917.9</ele>
        <time>2025-10-05T08:44:52Z</time>
      </trkpt>
      <trkpt lat="43.33741" lon="5.79133">
        <ele>918.1</ele>
        <time>2025-10-05T08:44:53Z</time>
      </trkpt>
      <trkpt lat="43.33741" lon="5.79132">
        <ele>918.2</ele>
        <time>2025-10-05T08:44:54Z</time>
      </trkpt>
      <trkpt lat="43.33741" lon="5.79132">
        <ele>918.1</ele>
        <time>2025-10-05T08:44:55Z</time>
      </trkpt>
      <trkpt lat="43.33741" lon="5.79132">
        <ele>918</ele>
        <time>2025-10-05T08:44:56Z</time>
      </trkpt>
      <trkpt lat="43.33741" lon="5.79132">
        <ele>917.9</ele>
        <time>2025-10-05T08:44:57Z</time>
      </trkpt>
      <trkpt lat="43.33741" lon="5.79132">
        <ele>917.7</ele>
        <time>2025-10-05T08:44:58Z</time>
      </trkpt>
      <trkpt lat="43.33741" lon="5.79132">
        <ele>917.6</ele>
        <time>2025-10-05T08:44:59Z</time>
      </trkpt>
      <trkpt lat="43.3374" lon="5.79131">
        <ele>917.4</ele>
        <time>2025-10-05T08:45:00Z</time>
      </trkpt>
      <trkpt lat="43.3374" lon="5.79131">
        <ele>917.3</ele>
        <time>2025-10-05T08:45:01Z</time>
      </trkpt>
      <trkpt lat="43.33741" lon="5.79131">
        <ele>916.9</ele>
        <time>2025-10-05T08:45:02Z</time>
      </trkpt>
      <trkpt lat="43.33741" lon="5.79131">
        <ele>916.7</ele>
        <time>2025-10-05T08:45:03Z</time>
      </trkpt>
      <trkpt lat="43.33741" lon="5.79131">
        <ele>916.5</ele>
        <time>2025-10-05T08:45:04Z</time>
      </trkpt>
      <trkpt lat="43.33741" lon="5.79131">
        <ele>916.2</ele>
        <time>2025-10-05T08:45:05Z</time>
      </trkpt>
      <trkpt lat="43.33741" lon="5.7913">
        <ele>915.9</ele>
        <time>2025-10-05T08:45:06Z</time>
      </trkpt>
      <trkpt lat="43.33741" lon="5.7913">
        <ele>915.9</ele>
        <time>2025-10-05T08:45:07Z</time>
      </trkpt>
      <trkpt lat="43.33741" lon="5.7913">
        <ele>915.5</ele>
        <time>2025-10-05T08:45:08Z</time>
      </trkpt>
      <trkpt lat="43.33741" lon="5.7913">
        <ele>915.2</ele>
        <time>2025-10-05T08:45:09Z</time>
      </trkpt>
      <trkpt lat="43.33741" lon="5.7913">
        <ele>915.1</ele>
        <time>2025-10-05T08:45:10Z</time>
      </trkpt>
      <trkpt lat="43.33741" lon="5.7913">
        <ele>914.8</ele>
        <time>2025-10-05T08:45:11Z</time>
      </trkpt>
      <trkpt lat="43.33741" lon="5.7913">
        <ele>914.7</ele>
        <time>2025-10-05T08:45:12Z</time>
      </trkpt>
      <trkpt lat="43.33741" lon="5.7913">
        <ele>914.5</ele>
        <time>2025-10-05T08:45:13Z</time>
      </trkpt>
      <trkpt lat="43.33742" lon="5.7913">
        <ele>914.2</ele>
        <time>2025-10-05T08:45:14Z</time>
      </trkpt>
      <trkpt lat="43.33742" lon="5.7913">
        <ele>914.1</ele>
        <time>2025-10-05T08:45:15Z</time>
      </trkpt>
      <trkpt lat="43.33742" lon="5.7913">
        <ele>914</ele>
        <time>2025-10-05T08:45:16Z</time>
      </trkpt>
      <trkpt lat="43.33742" lon="5.7913">
        <ele>914</ele>
        <time>2025-10-05T08:45:17Z</time>
      </trkpt>
      <trkpt lat="43.33742" lon="5.7913">
        <ele>914</ele>
        <time>2025-10-05T08:45:18Z</time>
      </trkpt>
      <trkpt lat="43.33742" lon="5.7913">
        <ele>913.9</ele>
        <time>2025-10-05T08:45:19Z</time>
      </trkpt>
      <trkpt lat="43.33742" lon="5.7913">
        <ele>913.7</ele>
        <time>2025-10-05T08:45:20Z</time>
      </trkpt>
      <trkpt lat="43.33742" lon="5.7913">
        <ele>913.6</ele>
        <time>2025-10-05T08:45:21Z</time>
      </trkpt>
      <trkpt lat="43.33742" lon="5.7913">
        <ele>913.5</ele>
        <time>2025-10-05T08:45:22Z</time>
      </trkpt>
      <trkpt lat="43.33742" lon="5.79129">
        <ele>913.3</ele>
        <time>2025-10-05T08:45:23Z</time>
      </trkpt>
      <trkpt lat="43.33742" lon="5.79129">
        <ele>913</ele>
        <time>2025-10-05T08:45:24Z</time>
      </trkpt>
      <trkpt lat="43.33742" lon="5.79129">
        <ele>912.8</ele>
        <time>2025-10-05T08:45:25Z</time>
      </trkpt>
      <trkpt lat="43.33742" lon="5.7913">
        <ele>912.7</ele>
        <time>2025-10-05T08:45:26Z</time>
      </trkpt>
      <trkpt lat="43.33741" lon="5.79131">
        <ele>912.9</ele>
        <time>2025-10-05T08:45:27Z</time>
      </trkpt>
      <trkpt lat="43.33742" lon="5.79131">
        <ele>913.2</ele>
        <time>2025-10-05T08:45:28Z</time>
      </trkpt>
      <trkpt lat="43.33741" lon="5.79131">
        <ele>913.2</ele>
        <time>2025-10-05T08:45:29Z</time>
      </trkpt>
      <trkpt lat="43.33743" lon="5.79131">
        <ele>913.4</ele>
        <time>2025-10-05T08:45:30Z</time>
      </trkpt>
      <trkpt lat="43.33742" lon="5.79131">
        <ele>913.6</ele>
        <time>2025-10-05T08:45:31Z</time>
      </trkpt>
      <trkpt lat="43.33742" lon="5.79131">
        <ele>913.8</ele>
        <time>2025-10-05T08:45:32Z</time>
      </trkpt>
      <trkpt lat="43.33742" lon="5.79132">
        <ele>914.1</ele>
        <time>2025-10-05T08:45:33Z</time>
      </trkpt>
      <trkpt lat="43.33742" lon="5.79132">
        <ele>914.4</ele>
        <time>2025-10-05T08:45:34Z</time>
      </trkpt>
      <trkpt lat="43.33742" lon="5.79132">
        <ele>914.6</ele>
        <time>2025-10-05T08:45:35Z</time>
      </trkpt>
      <trkpt lat="43.33742" lon="5.79132">
        <ele>914.7</ele>
        <time>2025-10-05T08:45:36Z</time>
      </trkpt>
      <trkpt lat="43.33742" lon="5.79133">
        <ele>915</ele>
        <time>2025-10-05T08:45:37Z</time>
      </trkpt>
      <trkpt lat="43.33742" lon="5.79133">
        <ele>915.1</ele>
        <time>2025-10-05T08:45:38Z</time>
      </trkpt>
      <trkpt lat="43.33742" lon="5.79133">
        <ele>915.2</ele>
        <time>2025-10-05T08:45:39Z</time>
      </trkpt>
      <trkpt lat="43.33742" lon="5.79133">
        <ele>915.3</ele>
        <time>2025-10-05T08:45:40Z</time>
      </trkpt>
      <trkpt lat="43.33741" lon="5.79133">
        <ele>915.4</ele>
        <time>2025-10-05T08:45:41Z</time>
      </trkpt>
      <trkpt lat="43.33741" lon="5.79133">
        <ele>915.5</ele>
        <time>2025-10-05T08:45:42Z</time>
      </trkpt>
      <trkpt lat="43.33741" lon="5.79132">
        <ele>915.7</ele>
        <time>2025-10-05T08:45:43Z</time>
      </trkpt>
      <trkpt lat="43.33741" lon="5.79132">
        <ele>915.9</ele>
        <time>2025-10-05T08:45:44Z</time>
      </trkpt>
      <trkpt lat="43.33741" lon="5.79132">
        <ele>916.1</ele>
        <time>2025-10-05T08:45:45Z</time>
      </trkpt>
      <trkpt lat="43.33741" lon="5.79132">
        <ele>916.1</ele>
        <time>2025-10-05T08:45:46Z</time>
      </trkpt>
      <trkpt lat="43.33741" lon="5.79131">
        <ele>915.9</ele>
        <time>2025-10-05T08:45:47Z</time>
      </trkpt>
      <trkpt lat="43.33741" lon="5.79131">
        <ele>916.1</ele>
        <time>2025-10-05T08:45:48Z</time>
      </trkpt>
      <trkpt lat="43.33741" lon="5.79131">
        <ele>916.2</ele>
        <time>2025-10-05T08:45:49Z</time>
      </trkpt>
      <trkpt lat="43.33741" lon="5.79131">
        <ele>916.3</ele>
        <time>2025-10-05T08:45:50Z</time>
      </trkpt>
      <trkpt lat="43.33741" lon="5.7913">
        <ele>916.3</ele>
        <time>2025-10-05T08:45:51Z</time>
      </trkpt>
      <trkpt lat="43.33741" lon="5.7913">
        <ele>916.4</ele>
        <time>2025-10-05T08:45:52Z</time>
      </trkpt>
      <trkpt lat="43.33741" lon="5.79129">
        <ele>916.5</ele>
        <time>2025-10-05T08:45:53Z</time>
      </trkpt>
      <trkpt lat="43.3374" lon="5.79129">
        <ele>916.7</ele>
        <time>2025-10-05T08:45:54Z</time>
      </trkpt>
      <trkpt lat="43.3374" lon="5.79129">
        <ele>916.8</ele>
        <time>2025-10-05T08:45:55Z</time>
      </trkpt>
      <trkpt lat="43.33739" lon="5.79128">
        <ele>917</ele>
        <time>2025-10-05T08:45:56Z</time>
      </trkpt>
      <trkpt lat="43.33739" lon="5.79128">
        <ele>917.1</ele>
        <time>2025-10-05T08:45:57Z</time>
      </trkpt>
      <trkpt lat="43.33739" lon="5.79128">
        <ele>917.1</ele>
        <time>2025-10-05T08:45:58Z</time>
      </trkpt>
      <trkpt lat="43.33739" lon="5.79128">
        <ele>917.2</ele>
        <time>2025-10-05T08:45:59Z</time>
      </trkpt>
      <trkpt lat="43.33739" lon="5.79128">
        <ele>917.4</ele>
        <time>2025-10-05T08:46:00Z</time>
      </trkpt>
      <trkpt lat="43.33739" lon="5.79128">
        <ele>917.5</ele>
        <time>2025-10-05T08:46:01Z</time>
      </trkpt>
      <trkpt lat="43.33739" lon="5.79128">
        <ele>917.7</ele>
        <time>2025-10-05T08:46:02Z</time>
      </trkpt>
      <trkpt lat="43.33739" lon="5.79129">
        <ele>917.8</ele>
        <time>2025-10-05T08:46:03Z</time>
      </trkpt>
      <trkpt lat="43.33739" lon="5.79128">
        <ele>918</ele>
        <time>2025-10-05T08:46:04Z</time>
      </trkpt>
      <trkpt lat="43.33739" lon="5.79128">
        <ele>918.1</ele>
        <time>2025-10-05T08:46:05Z</time>
      </trkpt>
      <trkpt lat="43.33739" lon="5.79128">
        <ele>918.3</ele>
        <time>2025-10-05T08:46:06Z</time>
      </trkpt>
      <trkpt lat="43.3374" lon="5.79129">
        <ele>918.6</ele>
        <time>2025-10-05T08:46:07Z</time>
      </trkpt>
      <trkpt lat="43.3374" lon="5.79129">
        <ele>918.9</ele>
        <time>2025-10-05T08:46:08Z</time>
      </trkpt>
      <trkpt lat="43.33739" lon="5.79129">
        <ele>919.2</ele>
        <time>2025-10-05T08:46:09Z</time>
      </trkpt>
      <trkpt lat="43.33739" lon="5.79128">
        <ele>919.4</ele>
        <time>2025-10-05T08:46:10Z</time>
      </trkpt>
      <trkpt lat="43.33738" lon="5.79128">
        <ele>919.5</ele>
        <time>2025-10-05T08:46:11Z</time>
      </trkpt>
      <trkpt lat="43.33738" lon="5.79128">
        <ele>919.7</ele>
        <time>2025-10-05T08:46:12Z</time>
      </trkpt>
      <trkpt lat="43.33738" lon="5.79128">
        <ele>920</ele>
        <time>2025-10-05T08:46:13Z</time>
      </trkpt>
      <trkpt lat="43.33737" lon="5.79128">
        <ele>920.2</ele>
        <time>2025-10-05T08:46:14Z</time>
      </trkpt>
      <trkpt lat="43.33737" lon="5.79128">
        <ele>920.4</ele>
        <time>2025-10-05T08:46:15Z</time>
      </trkpt>
      <trkpt lat="43.33737" lon="5.79128">
        <ele>920.7</ele>
        <time>2025-10-05T08:46:16Z</time>
      </trkpt>
      <trkpt lat="43.33737" lon="5.79128">
        <ele>921</ele>
        <time>2025-10-05T08:46:17Z</time>
      </trkpt>
      <trkpt lat="43.33737" lon="5.79128">
        <ele>921.1</ele>
        <time>2025-10-05T08:46:18Z</time>
      </trkpt>
      <trkpt lat="43.33736" lon="5.79128">
        <ele>921.4</ele>
        <time>2025-10-05T08:46:19Z</time>
      </trkpt>
      <trkpt lat="43.33736" lon="5.79128">
        <ele>921.7</ele>
        <time>2025-10-05T08:46:20Z</time>
      </trkpt>
      <trkpt lat="43.33736" lon="5.79128">
        <ele>922</ele>
        <time>2025-10-05T08:46:21Z</time>
      </trkpt>
      <trkpt lat="43.33736" lon="5.79128">
        <ele>922.3</ele>
        <time>2025-10-05T08:46:22Z</time>
      </trkpt>
      <trkpt lat="43.33736" lon="5.79128">
        <ele>922.7</ele>
        <time>2025-10-05T08:46:23Z</time>
      </trkpt>
      <trkpt lat="43.33736" lon="5.79128">
        <ele>923.1</ele>
        <time>2025-10-05T08:46:24Z</time>
      </trkpt>
      <trkpt lat="43.33736" lon="5.79128">
        <ele>923.3</ele>
        <time>2025-10-05T08:46:25Z</time>
      </trkpt>
      <trkpt lat="43.33736" lon="5.79128">
        <ele>923.5</ele>
        <time>2025-10-05T08:46:26Z</time>
      </trkpt>
      <trkpt lat="43.33735" lon="5.79128">
        <ele>923.6</ele>
        <time>2025-10-05T08:46:27Z</time>
      </trkpt>
      <trkpt lat="43.33735" lon="5.79128">
        <ele>923.8</ele>
        <time>2025-10-05T08:46:28Z</time>
      </trkpt>
      <trkpt lat="43.33735" lon="5.79128">
        <ele>924</ele>
        <time>2025-10-05T08:46:29Z</time>
      </trkpt>
      <trkpt lat="43.33736" lon="5.79128">
        <ele>924.1</ele>
        <time>2025-10-05T08:46:30Z</time>
      </trkpt>
      <trkpt lat="43.33736" lon="5.79128">
        <ele>924.2</ele>
        <time>2025-10-05T08:46:31Z</time>
      </trkpt>
      <trkpt lat="43.33736" lon="5.79128">
        <ele>924.2</ele>
        <time>2025-10-05T08:46:32Z</time>
      </trkpt>
      <trkpt lat="43.33736" lon="5.79127">
        <ele>924.3</ele>
        <time>2025-10-05T08:46:33Z</time>
      </trkpt>
      <trkpt lat="43.33736" lon="5.79127">
        <ele>924.1</ele>
        <time>2025-10-05T08:46:34Z</time>
      </trkpt>
      <trkpt lat="43.33736" lon="5.79127">
        <ele>924.1</ele>
        <time>2025-10-05T08:46:35Z</time>
      </trkpt>
      <trkpt lat="43.33736" lon="5.79126">
        <ele>924.1</ele>
        <time>2025-10-05T08:46:36Z</time>
      </trkpt>
      <trkpt lat="43.33735" lon="5.79126">
        <ele>923.8</ele>
        <time>2025-10-05T08:46:37Z</time>
      </trkpt>
      <trkpt lat="43.33735" lon="5.79126">
        <ele>923.5</ele>
        <time>2025-10-05T08:46:38Z</time>
      </trkpt>
      <trkpt lat="43.33736" lon="5.79126">
        <ele>923.3</ele>
        <time>2025-10-05T08:46:39Z</time>
      </trkpt>
      <trkpt lat="43.33736" lon="5.79126">
        <ele>923</ele>
        <time>2025-10-05T08:46:40Z</time>
      </trkpt>
      <trkpt lat="43.33736" lon="5.79126">
        <ele>922.8</ele>
        <time>2025-10-05T08:46:41Z</time>
      </trkpt>
      <trkpt lat="43.33736" lon="5.79125">
        <ele>922.7</ele>
        <time>2025-10-05T08:46:42Z</time>
      </trkpt>
      <trkpt lat="43.33736" lon="5.79125">
        <ele>922.8</ele>
        <time>2025-10-05T08:46:43Z</time>
      </trkpt>
      <trkpt lat="43.33736" lon="5.79125">
        <ele>923</ele>
        <time>2025-10-05T08:46:44Z</time>
      </trkpt>
      <trkpt lat="43.33735" lon="5.79125">
        <ele>923.1</ele>
        <time>2025-10-05T08:46:45Z</time>
      </trkpt>
      <trkpt lat="43.33735" lon="5.79125">
        <ele>923.1</ele>
        <time>2025-10-05T08:46:46Z</time>
      </trkpt>
      <trkpt lat="43.33735" lon="5.79124">
        <ele>923.1</ele>
        <time>2025-10-05T08:46:47Z</time>
      </trkpt>
      <trkpt lat="43.33735" lon="5.79124">
        <ele>923.1</ele>
        <time>2025-10-05T08:46:48Z</time>
      </trkpt>
      <trkpt lat="43.33735" lon="5.79124">
        <ele>923.2</ele>
        <time>2025-10-05T08:46:49Z</time>
      </trkpt>
      <trkpt lat="43.33735" lon="5.79124">
        <ele>923.3</ele>
        <time>2025-10-05T08:46:50Z</time>
      </trkpt>
      <trkpt lat="43.33734" lon="5.79124">
        <ele>923.3</ele>
        <time>2025-10-05T08:46:51Z</time>
      </trkpt>
      <trkpt lat="43.33734" lon="5.79123">
        <ele>923.4</ele>
        <time>2025-10-05T08:46:52Z</time>
      </trkpt>
      <trkpt lat="43.33734" lon="5.79123">
        <ele>923.4</ele>
        <time>2025-10-05T08:46:53Z</time>
      </trkpt>
      <trkpt lat="43.33734" lon="5.79123">
        <ele>923.3</ele>
        <time>2025-10-05T08:46:54Z</time>
      </trkpt>
      <trkpt lat="43.33734" lon="5.79123">
        <ele>923.3</ele>
        <time>2025-10-05T08:46:55Z</time>
      </trkpt>
      <trkpt lat="43.33734" lon="5.79123">
        <ele>923.3</ele>
        <time>2025-10-05T08:46:56Z</time>
      </trkpt>
      <trkpt lat="43.33734" lon="5.79123">
        <ele>923.3</ele>
        <time>2025-10-05T08:46:57Z</time>
      </trkpt>
      <trkpt lat="43.33734" lon="5.79124">
        <ele>923.1</ele>
        <time>2025-10-05T08:46:58Z</time>
      </trkpt>
      <trkpt lat="43.33734" lon="5.79124">
        <ele>923</ele>
        <time>2025-10-05T08:46:59Z</time>
      </trkpt>
      <trkpt lat="43.33734" lon="5.79124">
        <ele>923</ele>
        <time>2025-10-05T08:47:00Z</time>
      </trkpt>
      <trkpt lat="43.33734" lon="5.79124">
        <ele>923.2</ele>
        <time>2025-10-05T08:47:01Z</time>
      </trkpt>
      <trkpt lat="43.33734" lon="5.79124">
        <ele>923.2</ele>
        <time>2025-10-05T08:47:02Z</time>
      </trkpt>
      <trkpt lat="43.33734" lon="5.79124">
        <ele>923.2</ele>
        <time>2025-10-05T08:47:03Z</time>
      </trkpt>
      <trkpt lat="43.33734" lon="5.79124">
        <ele>923.3</ele>
        <time>2025-10-05T08:47:04Z</time>
      </trkpt>
      <trkpt lat="43.33734" lon="5.79124">
        <ele>923.4</ele>
        <time>2025-10-05T08:47:05Z</time>
      </trkpt>
      <trkpt lat="43.33734" lon="5.79124">
        <ele>923.5</ele>
        <time>2025-10-05T08:47:06Z</time>
      </trkpt>
      <trkpt lat="43.33734" lon="5.79125">
        <ele>923.6</ele>
        <time>2025-10-05T08:47:07Z</time>
      </trkpt>
      <trkpt lat="43.33734" lon="5.79125">
        <ele>923.6</ele>
        <time>2025-10-05T08:47:08Z</time>
      </trkpt>
      <trkpt lat="43.33734" lon="5.79125">
        <ele>923.6</ele>
        <time>2025-10-05T08:47:09Z</time>
      </trkpt>
      <trkpt lat="43.33734" lon="5.79124">
        <ele>923.6</ele>
        <time>2025-10-05T08:47:10Z</time>
      </trkpt>
      <trkpt lat="43.33734" lon="5.79125">
        <ele>923.6</ele>
        <time>2025-10-05T08:47:11Z</time>
      </trkpt>
      <trkpt lat="43.33735" lon="5.79124">
        <ele>923.6</ele>
        <time>2025-10-05T08:47:12Z</time>
      </trkpt>
      <trkpt lat="43.33735" lon="5.79124">
        <ele>923.6</ele>
        <time>2025-10-05T08:47:13Z</time>
      </trkpt>
      <trkpt lat="43.33735" lon="5.79125">
        <ele>923.6</ele>
        <time>2025-10-05T08:47:14Z</time>
      </trkpt>
      <trkpt lat="43.33735" lon="5.79125">
        <ele>923.5</ele>
        <time>2025-10-05T08:47:15Z</time>
      </trkpt>
      <trkpt lat="43.33735" lon="5.79124">
        <ele>923.4</ele>
        <time>2025-10-05T08:47:16Z</time>
      </trkpt>
      <trkpt lat="43.33735" lon="5.79124">
        <ele>923.5</ele>
        <time>2025-10-05T08:47:17Z</time>
      </trkpt>
      <trkpt lat="43.33735" lon="5.79124">
        <ele>923.6</ele>
        <time>2025-10-05T08:47:18Z</time>
      </trkpt>
      <trkpt lat="43.33735" lon="5.79124">
        <ele>923.5</ele>
        <time>2025-10-05T08:47:19Z</time>
      </trkpt>
      <trkpt lat="43.33735" lon="5.79124">
        <ele>923.4</ele>
        <time>2025-10-05T08:47:20Z</time>
      </trkpt>
      <trkpt lat="43.33735" lon="5.79124">
        <ele>923.4</ele>
        <time>2025-10-05T08:47:21Z</time>
      </trkpt>
      <trkpt lat="43.33735" lon="5.79124">
        <ele>923.2</ele>
        <time>2025-10-05T08:47:22Z</time>
      </trkpt>
      <trkpt lat="43.33735" lon="5.79124">
        <ele>923.2</ele>
        <time>2025-10-05T08:47:23Z</time>
      </trkpt>
      <trkpt lat="43.33735" lon="5.79124">
        <ele>923.1</ele>
        <time>2025-10-05T08:47:24Z</time>
      </trkpt>
      <trkpt lat="43.33735" lon="5.79124">
        <ele>923.1</ele>
        <time>2025-10-05T08:47:25Z</time>
      </trkpt>
      <trkpt lat="43.33735" lon="5.79124">
        <ele>923.1</ele>
        <time>2025-10-05T08:47:26Z</time>
      </trkpt>
      <trkpt lat="43.33735" lon="5.79124">
        <ele>923</ele>
        <time>2025-10-05T08:47:27Z</time>
      </trkpt>
      <trkpt lat="43.33735" lon="5.79124">
        <ele>923.1</ele>
        <time>2025-10-05T08:47:28Z</time>
      </trkpt>
      <trkpt lat="43.33735" lon="5.79124">
        <ele>923.1</ele>
        <time>2025-10-05T08:47:29Z</time>
      </trkpt>
      <trkpt lat="43.33735" lon="5.79124">
        <ele>923.1</ele>
        <time>2025-10-05T08:47:30Z</time>
      </trkpt>
      <trkpt lat="43.33735" lon="5.79124">
        <ele>923</ele>
        <time>2025-10-05T08:47:31Z</time>
      </trkpt>
      <trkpt lat="43.33735" lon="5.79124">
        <ele>923</ele>
        <time>2025-10-05T08:47:32Z</time>
      </trkpt>
      <trkpt lat="43.33735" lon="5.79124">
        <ele>923</ele>
        <time>2025-10-05T08:47:33Z</time>
      </trkpt>
      <trkpt lat="43.33735" lon="5.79124">
        <ele>923</ele>
        <time>2025-10-05T08:47:34Z</time>
      </trkpt>
      <trkpt lat="43.33735" lon="5.79124">
        <ele>923.1</ele>
        <time>2025-10-05T08:47:35Z</time>
      </trkpt>
      <trkpt lat="43.33735" lon="5.79124">
        <ele>923.2</ele>
        <time>2025-10-05T08:47:36Z</time>
      </trkpt>
      <trkpt lat="43.33735" lon="5.79124">
        <ele>923.4</ele>
        <time>2025-10-05T08:47:37Z</time>
      </trkpt>
      <trkpt lat="43.33735" lon="5.79124">
        <ele>923.6</ele>
        <time>2025-10-05T08:47:38Z</time>
      </trkpt>
      <trkpt lat="43.33735" lon="5.79124">
        <ele>923.7</ele>
        <time>2025-10-05T08:47:39Z</time>
      </trkpt>
      <trkpt lat="43.33735" lon="5.79124">
        <ele>923.8</ele>
        <time>2025-10-05T08:47:40Z</time>
      </trkpt>
      <trkpt lat="43.33735" lon="5.79124">
        <ele>923.9</ele>
        <time>2025-10-05T08:47:41Z</time>
      </trkpt>
      <trkpt lat="43.33735" lon="5.79124">
        <ele>923.9</ele>
        <time>2025-10-05T08:47:42Z</time>
      </trkpt>
      <trkpt lat="43.33735" lon="5.79125">
        <ele>923.9</ele>
        <time>2025-10-05T08:47:43Z</time>
      </trkpt>
      <trkpt lat="43.33735" lon="5.79124">
        <ele>923.8</ele>
        <time>2025-10-05T08:47:44Z</time>
      </trkpt>
      <trkpt lat="43.33735" lon="5.79124">
        <ele>923.6</ele>
        <time>2025-10-05T08:47:45Z</time>
      </trkpt>
      <trkpt lat="43.33734" lon="5.79123">
        <ele>923.7</ele>
        <time>2025-10-05T08:47:46Z</time>
      </trkpt>
      <trkpt lat="43.33734" lon="5.79124">
        <ele>923.7</ele>
        <time>2025-10-05T08:47:47Z</time>
      </trkpt>
      <trkpt lat="43.33734" lon="5.79124">
        <ele>923.8</ele>
        <time>2025-10-05T08:47:48Z</time>
      </trkpt>
      <trkpt lat="43.33734" lon="5.79124">
        <ele>923.9</ele>
        <time>2025-10-05T08:47:49Z</time>
      </trkpt>
      <trkpt lat="43.33734" lon="5.79124">
        <ele>924</ele>
        <time>2025-10-05T08:47:50Z</time>
      </trkpt>
      <trkpt lat="43.33734" lon="5.79124">
        <ele>924.1</ele>
        <time>2025-10-05T08:47:51Z</time>
      </trkpt>
      <trkpt lat="43.33734" lon="5.79124">
        <ele>924.3</ele>
        <time>2025-10-05T08:47:52Z</time>
      </trkpt>
      <trkpt lat="43.33734" lon="5.79124">
        <ele>924.4</ele>
        <time>2025-10-05T08:47:53Z</time>
      </trkpt>
      <trkpt lat="43.33734" lon="5.79125">
        <ele>924.5</ele>
        <time>2025-10-05T08:47:54Z</time>
      </trkpt>
      <trkpt lat="43.33735" lon="5.79125">
        <ele>924.6</ele>
        <time>2025-10-05T08:47:55Z</time>
      </trkpt>
      <trkpt lat="43.33735" lon="5.79125">
        <ele>924.6</ele>
        <time>2025-10-05T08:47:56Z</time>
      </trkpt>
      <trkpt lat="43.33735" lon="5.79125">
        <ele>924.5</ele>
        <time>2025-10-05T08:47:57Z</time>
      </trkpt>
      <trkpt lat="43.33735" lon="5.79125">
        <ele>924.5</ele>
        <time>2025-10-05T08:47:58Z</time>
      </trkpt>
      <trkpt lat="43.33736" lon="5.79125">
        <ele>924.4</ele>
        <time>2025-10-05T08:47:59Z</time>
      </trkpt>
      <trkpt lat="43.33736" lon="5.79125">
        <ele>924.5</ele>
        <time>2025-10-05T08:48:00Z</time>
      </trkpt>
      <trkpt lat="43.33736" lon="5.79125">
        <ele>924.6</ele>
        <time>2025-10-05T08:48:01Z</time>
      </trkpt>
      <trkpt lat="43.33736" lon="5.79124">
        <ele>924.7</ele>
        <time>2025-10-05T08:48:02Z</time>
      </trkpt>
      <trkpt lat="43.33737" lon="5.79124">
        <ele>924.6</ele>
        <time>2025-10-05T08:48:03Z</time>
      </trkpt>
      <trkpt lat="43.33736" lon="5.79124">
        <ele>924.6</ele>
        <time>2025-10-05T08:48:04Z</time>
      </trkpt>
      <trkpt lat="43.33736" lon="5.79124">
        <ele>924.7</ele>
        <time>2025-10-05T08:48:05Z</time>
      </trkpt>
      <trkpt lat="43.33736" lon="5.79123">
        <ele>924.8</ele>
        <time>2025-10-05T08:48:06Z</time>
      </trkpt>
      <trkpt lat="43.33736" lon="5.79123">
        <ele>924.8</ele>
        <time>2025-10-05T08:48:07Z</time>
      </trkpt>
      <trkpt lat="43.33736" lon="5.79123">
        <ele>924.9</ele>
        <time>2025-10-05T08:48:08Z</time>
      </trkpt>
      <trkpt lat="43.33736" lon="5.79123">
        <ele>925</ele>
        <time>2025-10-05T08:48:09Z</time>
      </trkpt>
      <trkpt lat="43.33736" lon="5.79123">
        <ele>925</ele>
        <time>2025-10-05T08:48:10Z</time>
      </trkpt>
      <trkpt lat="43.33737" lon="5.79123">
        <ele>925.2</ele>
        <time>2025-10-05T08:48:11Z</time>
      </trkpt>
      <trkpt lat="43.33737" lon="5.79123">
        <ele>925.3</ele>
        <time>2025-10-05T08:48:12Z</time>
      </trkpt>
      <trkpt lat="43.33737" lon="5.79123">
        <ele>925.5</ele>
        <time>2025-10-05T08:48:13Z</time>
      </trkpt>
      <trkpt lat="43.33737" lon="5.79123">
        <ele>925.6</ele>
        <time>2025-10-05T08:48:14Z</time>
      </trkpt>
      <trkpt lat="43.33738" lon="5.79122">
        <ele>925.7</ele>
        <time>2025-10-05T08:48:15Z</time>
      </trkpt>
      <trkpt lat="43.33738" lon="5.79123">
        <ele>925.8</ele>
        <time>2025-10-05T08:48:16Z</time>
      </trkpt>
      <trkpt lat="43.33737" lon="5.79124">
        <ele>925.9</ele>
        <time>2025-10-05T08:48:17Z</time>
      </trkpt>
      <trkpt lat="43.33737" lon="5.79124">
        <ele>925.9</ele>
        <time>2025-10-05T08:48:18Z</time>
      </trkpt>
      <trkpt lat="43.33737" lon="5.79124">
        <ele>926.1</ele>
        <time>2025-10-05T08:48:19Z</time>
      </trkpt>
      <trkpt lat="43.33737" lon="5.79124">
        <ele>926</ele>
        <time>2025-10-05T08:48:20Z</time>
      </trkpt>
      <trkpt lat="43.33737" lon="5.79124">
        <ele>926.1</ele>
        <time>2025-10-05T08:48:21Z</time>
      </trkpt>
      <trkpt lat="43.33736" lon="5.79123">
        <ele>926.3</ele>
        <time>2025-10-05T08:48:22Z</time>
      </trkpt>
      <trkpt lat="43.33736" lon="5.79122">
        <ele>926.3</ele>
        <time>2025-10-05T08:48:23Z</time>
      </trkpt>
      <trkpt lat="43.33735" lon="5.79122">
        <ele>926.4</ele>
        <time>2025-10-05T08:48:24Z</time>
      </trkpt>
      <trkpt lat="43.33735" lon="5.79121">
        <ele>926.4</ele>
        <time>2025-10-05T08:48:25Z</time>
      </trkpt>
      <trkpt lat="43.33734" lon="5.79121">
        <ele>926.5</ele>
        <time>2025-10-05T08:48:26Z</time>
      </trkpt>
      <trkpt lat="43.33733" lon="5.7912">
        <ele>926.5</ele>
        <time>2025-10-05T08:48:27Z</time>
      </trkpt>
      <trkpt lat="43.33733" lon="5.7912">
        <ele>926.5</ele>
        <time>2025-10-05T08:48:28Z</time>
      </trkpt>
      <trkpt lat="43.33733" lon="5.7912">
        <ele>926.7</ele>
        <time>2025-10-05T08:48:29Z</time>
      </trkpt>
      <trkpt lat="43.33733" lon="5.79119">
        <ele>926.8</ele>
        <time>2025-10-05T08:48:30Z</time>
      </trkpt>
      <trkpt lat="43.33732" lon="5.79119">
        <ele>926.9</ele>
        <time>2025-10-05T08:48:31Z</time>
      </trkpt>
      <trkpt lat="43.33732" lon="5.79118">
        <ele>927.1</ele>
        <time>2025-10-05T08:48:32Z</time>
      </trkpt>
      <trkpt lat="43.33731" lon="5.79118">
        <ele>927.2</ele>
        <time>2025-10-05T08:48:33Z</time>
      </trkpt>
      <trkpt lat="43.33731" lon="5.79117">
        <ele>927.3</ele>
        <time>2025-10-05T08:48:34Z</time>
      </trkpt>
      <trkpt lat="43.3373" lon="5.79117">
        <ele>927.3</ele>
        <time>2025-10-05T08:48:35Z</time>
      </trkpt>
      <trkpt lat="43.3373" lon="5.79116">
        <ele>927.3</ele>
        <time>2025-10-05T08:48:36Z</time>
      </trkpt>
      <trkpt lat="43.3373" lon="5.79116">
        <ele>927.3</ele>
        <time>2025-10-05T08:48:37Z</time>
      </trkpt>
      <trkpt lat="43.3373" lon="5.79116">
        <ele>927.2</ele>
        <time>2025-10-05T08:48:38Z</time>
      </trkpt>
      <trkpt lat="43.3373" lon="5.79116">
        <ele>927.1</ele>
        <time>2025-10-05T08:48:39Z</time>
      </trkpt>
      <trkpt lat="43.3373" lon="5.79116">
        <ele>927</ele>
        <time>2025-10-05T08:48:40Z</time>
      </trkpt>
      <trkpt lat="43.33729" lon="5.79116">
        <ele>926.9</ele>
        <time>2025-10-05T08:48:41Z</time>
      </trkpt>
      <trkpt lat="43.33729" lon="5.79116">
        <ele>926.8</ele>
        <time>2025-10-05T08:48:42Z</time>
      </trkpt>
      <trkpt lat="43.33729" lon="5.79115">
        <ele>926.8</ele>
        <time>2025-10-05T08:48:43Z</time>
      </trkpt>
      <trkpt lat="43.33729" lon="5.79115">
        <ele>926.8</ele>
        <time>2025-10-05T08:48:44Z</time>
      </trkpt>
      <trkpt lat="43.33728" lon="5.79114">
        <ele>926.7</ele>
        <time>2025-10-05T08:48:45Z</time>
      </trkpt>
      <trkpt lat="43.33728" lon="5.79113">
        <ele>926.7</ele>
        <time>2025-10-05T08:48:46Z</time>
      </trkpt>
      <trkpt lat="43.33727" lon="5.79112">
        <ele>926.5</ele>
        <time>2025-10-05T08:48:47Z</time>
      </trkpt>
      <trkpt lat="43.33726" lon="5.79112">
        <ele>926.3</ele>
        <time>2025-10-05T08:48:48Z</time>
      </trkpt>
      <trkpt lat="43.33726" lon="5.79111">
        <ele>926.5</ele>
        <time>2025-10-05T08:48:49Z</time>
      </trkpt>
      <trkpt lat="43.33725" lon="5.7911">
        <ele>926.7</ele>
        <time>2025-10-05T08:48:50Z</time>
      </trkpt>
      <trkpt lat="43.33724" lon="5.79109">
        <ele>926.7</ele>
        <time>2025-10-05T08:48:51Z</time>
      </trkpt>
      <trkpt lat="43.33724" lon="5.79108">
        <ele>926.8</ele>
        <time>2025-10-05T08:48:52Z</time>
      </trkpt>
      <trkpt lat="43.33723" lon="5.79107">
        <ele>927</ele>
        <time>2025-10-05T08:48:53Z</time>
      </trkpt>
      <trkpt lat="43.33723" lon="5.79106">
        <ele>927.1</ele>
        <time>2025-10-05T08:48:54Z</time>
      </trkpt>
      <trkpt lat="43.33722" lon="5.79106">
        <ele>927.2</ele>
        <time>2025-10-05T08:48:55Z</time>
      </trkpt>
      <trkpt lat="43.33722" lon="5.79106">
        <ele>927.3</ele>
        <time>2025-10-05T08:48:56Z</time>
      </trkpt>
      <trkpt lat="43.33722" lon="5.79106">
        <ele>927.4</ele>
        <time>2025-10-05T08:48:57Z</time>
      </trkpt>
      <trkpt lat="43.33722" lon="5.79106">
        <ele>927.5</ele>
        <time>2025-10-05T08:48:58Z</time>
      </trkpt>
      <trkpt lat="43.33722" lon="5.79106">
        <ele>927.6</ele>
        <time>2025-10-05T08:48:59Z</time>
      </trkpt>
      <trkpt lat="43.33722" lon="5.79106">
        <ele>927.6</ele>
        <time>2025-10-05T08:49:00Z</time>
      </trkpt>
      <trkpt lat="43.33722" lon="5.79106">
        <ele>927.7</ele>
        <time>2025-10-05T08:49:01Z</time>
      </trkpt>
      <trkpt lat="43.33722" lon="5.79106">
        <ele>927.8</ele>
        <time>2025-10-05T08:49:02Z</time>
      </trkpt>
      <trkpt lat="43.33722" lon="5.79106">
        <ele>927.9</ele>
        <time>2025-10-05T08:49:03Z</time>
      </trkpt>
      <trkpt lat="43.33722" lon="5.79106">
        <ele>928</ele>
        <time>2025-10-05T08:49:04Z</time>
      </trkpt>
      <trkpt lat="43.33722" lon="5.79106">
        <ele>928.3</ele>
        <time>2025-10-05T08:49:05Z</time>
      </trkpt>
      <trkpt lat="43.33722" lon="5.79106">
        <ele>928.6</ele>
        <time>2025-10-05T08:49:06Z</time>
      </trkpt>
      <trkpt lat="43.33722" lon="5.79106">
        <ele>928.6</ele>
        <time>2025-10-05T08:49:07Z</time>
      </trkpt>
      <trkpt lat="43.33722" lon="5.79106">
        <ele>928.8</ele>
        <time>2025-10-05T08:49:08Z</time>
      </trkpt>
      <trkpt lat="43.33722" lon="5.79106">
        <ele>929</ele>
        <time>2025-10-05T08:49:09Z</time>
      </trkpt>
      <trkpt lat="43.33722" lon="5.79106">
        <ele>929.2</ele>
        <time>2025-10-05T08:49:10Z</time>
      </trkpt>
      <trkpt lat="43.33722" lon="5.79106">
        <ele>929.4</ele>
        <time>2025-10-05T08:49:11Z</time>
      </trkpt>
      <trkpt lat="43.33721" lon="5.79106">
        <ele>929.6</ele>
        <time>2025-10-05T08:49:12Z</time>
      </trkpt>
      <trkpt lat="43.33721" lon="5.79106">
        <ele>929.8</ele>
        <time>2025-10-05T08:49:13Z</time>
      </trkpt>
      <trkpt lat="43.33721" lon="5.79106">
        <ele>929.9</ele>
        <time>2025-10-05T08:49:14Z</time>
      </trkpt>
      <trkpt lat="43.3372" lon="5.79106">
        <ele>930.1</ele>
        <time>2025-10-05T08:49:15Z</time>
      </trkpt>
      <trkpt lat="43.3372" lon="5.79106">
        <ele>930.2</ele>
        <time>2025-10-05T08:49:16Z</time>
      </trkpt>
      <trkpt lat="43.3372" lon="5.79106">
        <ele>930.3</ele>
        <time>2025-10-05T08:49:17Z</time>
      </trkpt>
      <trkpt lat="43.33719" lon="5.79106">
        <ele>930.4</ele>
        <time>2025-10-05T08:49:18Z</time>
      </trkpt>
      <trkpt lat="43.33719" lon="5.79106">
        <ele>930.4</ele>
        <time>2025-10-05T08:49:19Z</time>
      </trkpt>
      <trkpt lat="43.33719" lon="5.79106">
        <ele>930.4</ele>
        <time>2025-10-05T08:49:20Z</time>
      </trkpt>
      <trkpt lat="43.33718" lon="5.79107">
        <ele>930.4</ele>
        <time>2025-10-05T08:49:21Z</time>
      </trkpt>
      <trkpt lat="43.33718" lon="5.79107">
        <ele>930.4</ele>
        <time>2025-10-05T08:49:22Z</time>
      </trkpt>
      <trkpt lat="43.33718" lon="5.79107">
        <ele>930.1</ele>
        <time>2025-10-05T08:49:23Z</time>
      </trkpt>
      <trkpt lat="43.33718" lon="5.79107">
        <ele>929.9</ele>
        <time>2025-10-05T08:49:24Z</time>
      </trkpt>
      <trkpt lat="43.33718" lon="5.79107">
        <ele>929.8</ele>
        <time>2025-10-05T08:49:25Z</time>
      </trkpt>
      <trkpt lat="43.33718" lon="5.79107">
        <ele>929.8</ele>
        <time>2025-10-05T08:49:26Z</time>
      </trkpt>
      <trkpt lat="43.33717" lon="5.79108">
        <ele>929.8</ele>
        <time>2025-10-05T08:49:27Z</time>
      </trkpt>
      <trkpt lat="43.33717" lon="5.79107">
        <ele>929.6</ele>
        <time>2025-10-05T08:49:28Z</time>
      </trkpt>
      <trkpt lat="43.33717" lon="5.79107">
        <ele>929.7</ele>
        <time>2025-10-05T08:49:29Z</time>
      </trkpt>
      <trkpt lat="43.33717" lon="5.79107">
        <ele>929.8</ele>
        <time>2025-10-05T08:49:30Z</time>
      </trkpt>
      <trkpt lat="43.33717" lon="5.79106">
        <ele>929.8</ele>
        <time>2025-10-05T08:49:31Z</time>
      </trkpt>
      <trkpt lat="43.33717" lon="5.79106">
        <ele>929.8</ele>
        <time>2025-10-05T08:49:32Z</time>
      </trkpt>
      <trkpt lat="43.33717" lon="5.79105">
        <ele>929.8</ele>
        <time>2025-10-05T08:49:33Z</time>
      </trkpt>
      <trkpt lat="43.33717" lon="5.79105">
        <ele>929.9</ele>
        <time>2025-10-05T08:49:34Z</time>
      </trkpt>
      <trkpt lat="43.33717" lon="5.79105">
        <ele>930</ele>
        <time>2025-10-05T08:49:35Z</time>
      </trkpt>
      <trkpt lat="43.33717" lon="5.79104">
        <ele>930.1</ele>
        <time>2025-10-05T08:49:36Z</time>
      </trkpt>
      <trkpt lat="43.33717" lon="5.79104">
        <ele>929.7</ele>
        <time>2025-10-05T08:49:37Z</time>
      </trkpt>
      <trkpt lat="43.33717" lon="5.79104">
        <ele>929.4</ele>
        <time>2025-10-05T08:49:38Z</time>
      </trkpt>
      <trkpt lat="43.33717" lon="5.79104">
        <ele>929.1</ele>
        <time>2025-10-05T08:49:39Z</time>
      </trkpt>
      <trkpt lat="43.33717" lon="5.79104">
        <ele>928.7</ele>
        <time>2025-10-05T08:49:40Z</time>
      </trkpt>
      <trkpt lat="43.33717" lon="5.79104">
        <ele>928.4</ele>
        <time>2025-10-05T08:49:41Z</time>
      </trkpt>
      <trkpt lat="43.33717" lon="5.79104">
        <ele>927.9</ele>
        <time>2025-10-05T08:49:42Z</time>
      </trkpt>
      <trkpt lat="43.33717" lon="5.79104">
        <ele>927.5</ele>
        <time>2025-10-05T08:49:43Z</time>
      </trkpt>
      <trkpt lat="43.33717" lon="5.79104">
        <ele>927.2</ele>
        <time>2025-10-05T08:49:44Z</time>
      </trkpt>
      <trkpt lat="43.33717" lon="5.79103">
        <ele>927</ele>
        <time>2025-10-05T08:49:45Z</time>
      </trkpt>
      <trkpt lat="43.33716" lon="5.79103">
        <ele>927.1</ele>
        <time>2025-10-05T08:49:46Z</time>
      </trkpt>
      <trkpt lat="43.33716" lon="5.79103">
        <ele>926.7</ele>
        <time>2025-10-05T08:49:47Z</time>
      </trkpt>
      <trkpt lat="43.33716" lon="5.79102">
        <ele>926.7</ele>
        <time>2025-10-05T08:49:48Z</time>
      </trkpt>
      <trkpt lat="43.33716" lon="5.79101">
        <ele>926.2</ele>
        <time>2025-10-05T08:49:49Z</time>
      </trkpt>
      <trkpt lat="43.33716" lon="5.79101">
        <ele>925.8</ele>
        <time>2025-10-05T08:49:50Z</time>
      </trkpt>
      <trkpt lat="43.33716" lon="5.79101">
        <ele>925.6</ele>
        <time>2025-10-05T08:49:51Z</time>
      </trkpt>
      <trkpt lat="43.33716" lon="5.791">
        <ele>925.6</ele>
        <time>2025-10-05T08:49:52Z</time>
      </trkpt>
      <trkpt lat="43.33716" lon="5.791">
        <ele>925.6</ele>
        <time>2025-10-05T08:49:53Z</time>
      </trkpt>
      <trkpt lat="43.33715" lon="5.79099">
        <ele>925.6</ele>
        <time>2025-10-05T08:49:54Z</time>
      </trkpt>
      <trkpt lat="43.33714" lon="5.79098">
        <ele>925.7</ele>
        <time>2025-10-05T08:49:55Z</time>
      </trkpt>
      <trkpt lat="43.33713" lon="5.79097">
        <ele>925.5</ele>
        <time>2025-10-05T08:49:56Z</time>
      </trkpt>
      <trkpt lat="43.33714" lon="5.79095">
        <ele>925.3</ele>
        <time>2025-10-05T08:49:57Z</time>
      </trkpt>
      <trkpt lat="43.33714" lon="5.79093">
        <ele>925.2</ele>
        <time>2025-10-05T08:49:58Z</time>
      </trkpt>
      <trkpt lat="43.33714" lon="5.79091">
        <ele>925.1</ele>
        <time>2025-10-05T08:49:59Z</time>
      </trkpt>
      <trkpt lat="43.33714" lon="5.7909">
        <ele>924.9</ele>
        <time>2025-10-05T08:50:00Z</time>
      </trkpt>
      <trkpt lat="43.33714" lon="5.79088">
        <ele>924.5</ele>
        <time>2025-10-05T08:50:01Z</time>
      </trkpt>
      <trkpt lat="43.33713" lon="5.79086">
        <ele>924.7</ele>
        <time>2025-10-05T08:50:02Z</time>
      </trkpt>
      <trkpt lat="43.33714" lon="5.79084">
        <ele>924.9</ele>
        <time>2025-10-05T08:50:03Z</time>
      </trkpt>
      <trkpt lat="43.33714" lon="5.79082">
        <ele>924.9</ele>
        <time>2025-10-05T08:50:04Z</time>
      </trkpt>
      <trkpt lat="43.33713" lon="5.79081">
        <ele>924.9</ele>
        <time>2025-10-05T08:50:05Z</time>
      </trkpt>
      <trkpt lat="43.33714" lon="5.7908">
        <ele>924.9</ele>
        <time>2025-10-05T08:50:06Z</time>
      </trkpt>
      <trkpt lat="43.33714" lon="5.79078">
        <ele>925.1</ele>
        <time>2025-10-05T08:50:07Z</time>
      </trkpt>
      <trkpt lat="43.33714" lon="5.79077">
        <ele>925.2</ele>
        <time>2025-10-05T08:50:08Z</time>
      </trkpt>
      <trkpt lat="43.33714" lon="5.79077">
        <ele>925.4</ele>
        <time>2025-10-05T08:50:09Z</time>
      </trkpt>
      <trkpt lat="43.33714" lon="5.79076">
        <ele>925.6</ele>
        <time>2025-10-05T08:50:10Z</time>
      </trkpt>
      <trkpt lat="43.33714" lon="5.79076">
        <ele>925.7</ele>
        <time>2025-10-05T08:50:11Z</time>
      </trkpt>
      <trkpt lat="43.33714" lon="5.79076">
        <ele>926</ele>
        <time>2025-10-05T08:50:12Z</time>
      </trkpt>
      <trkpt lat="43.33714" lon="5.79076">
        <ele>926</ele>
        <time>2025-10-05T08:50:13Z</time>
      </trkpt>
      <trkpt lat="43.33714" lon="5.79076">
        <ele>926</ele>
        <time>2025-10-05T08:50:14Z</time>
      </trkpt>
      <trkpt lat="43.33714" lon="5.79076">
        <ele>926.1</ele>
        <time>2025-10-05T08:50:15Z</time>
      </trkpt>
      <trkpt lat="43.33714" lon="5.79076">
        <ele>926.1</ele>
        <time>2025-10-05T08:50:16Z</time>
      </trkpt>
      <trkpt lat="43.33714" lon="5.79076">
        <ele>926.1</ele>
        <time>2025-10-05T08:50:17Z</time>
      </trkpt>
      <trkpt lat="43.33715" lon="5.79076">
        <ele>925.9</ele>
        <time>2025-10-05T08:50:18Z</time>
      </trkpt>
      <trkpt lat="43.33715" lon="5.79076">
        <ele>925.9</ele>
        <time>2025-10-05T08:50:19Z</time>
      </trkpt>
      <trkpt lat="43.33715" lon="5.79075">
        <ele>925.9</ele>
        <time>2025-10-05T08:50:20Z</time>
      </trkpt>
      <trkpt lat="43.33715" lon="5.79075">
        <ele>925.9</ele>
        <time>2025-10-05T08:50:21Z</time>
      </trkpt>
      <trkpt lat="43.33715" lon="5.79075">
        <ele>925.9</ele>
        <time>2025-10-05T08:50:22Z</time>
      </trkpt>
      <trkpt lat="43.33715" lon="5.79075">
        <ele>925.8</ele>
        <time>2025-10-05T08:50:23Z</time>
      </trkpt>
      <trkpt lat="43.33715" lon="5.79074">
        <ele>925.7</ele>
        <time>2025-10-05T08:50:24Z</time>
      </trkpt>
      <trkpt lat="43.33714" lon="5.79074">
        <ele>925.8</ele>
        <time>2025-10-05T08:50:25Z</time>
      </trkpt>
      <trkpt lat="43.33714" lon="5.79073">
        <ele>926.1</ele>
        <time>2025-10-05T08:50:26Z</time>
      </trkpt>
      <trkpt lat="43.33714" lon="5.79074">
        <ele>926.1</ele>
        <time>2025-10-05T08:50:27Z</time>
      </trkpt>
      <trkpt lat="43.33714" lon="5.79073">
        <ele>926.1</ele>
        <time>2025-10-05T08:50:28Z</time>
      </trkpt>
      <trkpt lat="43.33714" lon="5.79073">
        <ele>926.1</ele>
        <time>2025-10-05T08:50:29Z</time>
      </trkpt>
      <trkpt lat="43.33715" lon="5.79072">
        <ele>926.4</ele>
        <time>2025-10-05T08:50:30Z</time>
      </trkpt>
      <trkpt lat="43.33715" lon="5.79072">
        <ele>926.5</ele>
        <time>2025-10-05T08:50:31Z</time>
      </trkpt>
      <trkpt lat="43.33715" lon="5.79071">
        <ele>926.7</ele>
        <time>2025-10-05T08:50:32Z</time>
      </trkpt>
      <trkpt lat="43.33716" lon="5.79071">
        <ele>926.8</ele>
        <time>2025-10-05T08:50:33Z</time>
      </trkpt>
      <trkpt lat="43.33716" lon="5.7907">
        <ele>927.2</ele>
        <time>2025-10-05T08:50:34Z</time>
      </trkpt>
      <trkpt lat="43.33717" lon="5.7907">
        <ele>927.8</ele>
        <time>2025-10-05T08:50:35Z</time>
      </trkpt>
      <trkpt lat="43.33717" lon="5.79069">
        <ele>928.4</ele>
        <time>2025-10-05T08:50:36Z</time>
      </trkpt>
      <trkpt lat="43.33716" lon="5.79069">
        <ele>929.5</ele>
        <time>2025-10-05T08:50:37Z</time>
      </trkpt>
      <trkpt lat="43.33716" lon="5.79069">
        <ele>930.1</ele>
        <time>2025-10-05T08:50:38Z</time>
      </trkpt>
      <trkpt lat="43.33716" lon="5.79068">
        <ele>929.8</ele>
        <time>2025-10-05T08:50:39Z</time>
      </trkpt>
      <trkpt lat="43.33716" lon="5.79068">
        <ele>929.5</ele>
        <time>2025-10-05T08:50:40Z</time>
      </trkpt>
      <trkpt lat="43.33716" lon="5.79068">
        <ele>929.5</ele>
        <time>2025-10-05T08:50:41Z</time>
      </trkpt>
      <trkpt lat="43.33716" lon="5.79068">
        <ele>929.5</ele>
        <time>2025-10-05T08:50:42Z</time>
      </trkpt>
      <trkpt lat="43.33716" lon="5.79068">
        <ele>929.3</ele>
        <time>2025-10-05T08:50:43Z</time>
      </trkpt>
      <trkpt lat="43.33716" lon="5.79068">
        <ele>929.2</ele>
        <time>2025-10-05T08:50:44Z</time>
      </trkpt>
      <trkpt lat="43.33716" lon="5.79068">
        <ele>929</ele>
        <time>2025-10-05T08:50:45Z</time>
      </trkpt>
      <trkpt lat="43.33716" lon="5.79068">
        <ele>929.2</ele>
        <time>2025-10-05T08:50:46Z</time>
      </trkpt>
      <trkpt lat="43.33716" lon="5.79068">
        <ele>929.3</ele>
        <time>2025-10-05T08:50:47Z</time>
      </trkpt>
      <trkpt lat="43.33716" lon="5.79068">
        <ele>929.3</ele>
        <time>2025-10-05T08:50:48Z</time>
      </trkpt>
      <trkpt lat="43.33715" lon="5.79067">
        <ele>929.2</ele>
        <time>2025-10-05T08:50:49Z</time>
      </trkpt>
      <trkpt lat="43.33716" lon="5.79067">
        <ele>928.8</ele>
        <time>2025-10-05T08:50:50Z</time>
      </trkpt>
      <trkpt lat="43.33716" lon="5.79067">
        <ele>928.7</ele>
        <time>2025-10-05T08:50:51Z</time>
      </trkpt>
      <trkpt lat="43.33716" lon="5.79067">
        <ele>928.5</ele>
        <time>2025-10-05T08:50:52Z</time>
      </trkpt>
      <trkpt lat="43.33715" lon="5.79066">
        <ele>928.5</ele>
        <time>2025-10-05T08:50:53Z</time>
      </trkpt>
      <trkpt lat="43.33715" lon="5.79066">
        <ele>928.5</ele>
        <time>2025-10-05T08:50:54Z</time>
      </trkpt>
      <trkpt lat="43.33715" lon="5.79065">
        <ele>928.4</ele>
        <time>2025-10-05T08:50:55Z</time>
      </trkpt>
      <trkpt lat="43.33715" lon="5.79065">
        <ele>928.4</ele>
        <time>2025-10-05T08:50:56Z</time>
      </trkpt>
      <trkpt lat="43.33714" lon="5.79064">
        <ele>928.3</ele>
        <time>2025-10-05T08:50:57Z</time>
      </trkpt>
      <trkpt lat="43.33713" lon="5.79062">
        <ele>928.3</ele>
        <time>2025-10-05T08:50:58Z</time>
      </trkpt>
      <trkpt lat="43.33713" lon="5.79061">
        <ele>928.3</ele>
        <time>2025-10-05T08:50:59Z</time>
      </trkpt>
      <trkpt lat="43.33713" lon="5.79061">
        <ele>928.3</ele>
        <time>2025-10-05T08:51:00Z</time>
      </trkpt>
      <trkpt lat="43.33712" lon="5.79061">
        <ele>928.5</ele>
        <time>2025-10-05T08:51:01Z</time>
      </trkpt>
      <trkpt lat="43.33712" lon="5.7906">
        <ele>928.6</ele>
        <time>2025-10-05T08:51:02Z</time>
      </trkpt>
      <trkpt lat="43.33711" lon="5.79059">
        <ele>928.7</ele>
        <time>2025-10-05T08:51:03Z</time>
      </trkpt>
      <trkpt lat="43.33711" lon="5.79058">
        <ele>928.9</ele>
        <time>2025-10-05T08:51:04Z</time>
      </trkpt>
      <trkpt lat="43.33711" lon="5.79056">
        <ele>929.1</ele>
        <time>2025-10-05T08:51:05Z</time>
      </trkpt>
      <trkpt lat="43.3371" lon="5.79055">
        <ele>929.3</ele>
        <time>2025-10-05T08:51:06Z</time>
      </trkpt>
      <trkpt lat="43.3371" lon="5.79053">
        <ele>929.6</ele>
        <time>2025-10-05T08:51:07Z</time>
      </trkpt>
      <trkpt lat="43.3371" lon="5.79052">
        <ele>929.7</ele>
        <time>2025-10-05T08:51:08Z</time>
      </trkpt>
      <trkpt lat="43.3371" lon="5.79051">
        <ele>930</ele>
        <time>2025-10-05T08:51:09Z</time>
      </trkpt>
      <trkpt lat="43.3371" lon="5.7905">
        <ele>930.2</ele>
        <time>2025-10-05T08:51:10Z</time>
      </trkpt>
      <trkpt lat="43.3371" lon="5.7905">
        <ele>930.7</ele>
        <time>2025-10-05T08:51:11Z</time>
      </trkpt>
      <trkpt lat="43.33709" lon="5.79049">
        <ele>931.1</ele>
        <time>2025-10-05T08:51:12Z</time>
      </trkpt>
      <trkpt lat="43.33709" lon="5.79048">
        <ele>931.5</ele>
        <time>2025-10-05T08:51:13Z</time>
      </trkpt>
      <trkpt lat="43.33709" lon="5.79047">
        <ele>931.8</ele>
        <time>2025-10-05T08:51:14Z</time>
      </trkpt>
      <trkpt lat="43.33708" lon="5.79046">
        <ele>932.1</ele>
        <time>2025-10-05T08:51:15Z</time>
      </trkpt>
      <trkpt lat="43.33708" lon="5.79045">
        <ele>932.3</ele>
        <time>2025-10-05T08:51:16Z</time>
      </trkpt>
      <trkpt lat="43.33708" lon="5.79044">
        <ele>932.6</ele>
        <time>2025-10-05T08:51:17Z</time>
      </trkpt>
      <trkpt lat="43.33707" lon="5.79044">
        <ele>932.7</ele>
        <time>2025-10-05T08:51:18Z</time>
      </trkpt>
      <trkpt lat="43.33707" lon="5.79044">
        <ele>932.9</ele>
        <time>2025-10-05T08:51:19Z</time>
      </trkpt>
      <trkpt lat="43.33707" lon="5.79043">
        <ele>933</ele>
        <time>2025-10-05T08:51:20Z</time>
      </trkpt>
      <trkpt lat="43.33707" lon="5.79043">
        <ele>933</ele>
        <time>2025-10-05T08:51:21Z</time>
      </trkpt>
      <trkpt lat="43.33706" lon="5.79043">
        <ele>933.1</ele>
        <time>2025-10-05T08:51:22Z</time>
      </trkpt>
      <trkpt lat="43.33707" lon="5.79043">
        <ele>933.2</ele>
        <time>2025-10-05T08:51:23Z</time>
      </trkpt>
      <trkpt lat="43.33707" lon="5.79043">
        <ele>933.2</ele>
        <time>2025-10-05T08:51:24Z</time>
      </trkpt>
      <trkpt lat="43.33707" lon="5.79042">
        <ele>933.3</ele>
        <time>2025-10-05T08:51:25Z</time>
      </trkpt>
      <trkpt lat="43.33705" lon="5.79042">
        <ele>933.3</ele>
        <time>2025-10-05T08:51:26Z</time>
      </trkpt>
      <trkpt lat="43.33705" lon="5.79042">
        <ele>933.1</ele>
        <time>2025-10-05T08:51:27Z</time>
      </trkpt>
      <trkpt lat="43.33704" lon="5.79042">
        <ele>933</ele>
        <time>2025-10-05T08:51:28Z</time>
      </trkpt>
      <trkpt lat="43.33705" lon="5.79042">
        <ele>933</ele>
        <time>2025-10-05T08:51:29Z</time>
      </trkpt>
      <trkpt lat="43.33706" lon="5.79042">
        <ele>933</ele>
        <time>2025-10-05T08:51:30Z</time>
      </trkpt>
      <trkpt lat="43.33706" lon="5.79042">
        <ele>933</ele>
        <time>2025-10-05T08:51:31Z</time>
      </trkpt>
      <trkpt lat="43.33706" lon="5.79042">
        <ele>933</ele>
        <time>2025-10-05T08:51:32Z</time>
      </trkpt>
      <trkpt lat="43.33705" lon="5.79042">
        <ele>933.1</ele>
        <time>2025-10-05T08:51:33Z</time>
      </trkpt>
      <trkpt lat="43.33705" lon="5.79042">
        <ele>933.3</ele>
        <time>2025-10-05T08:51:34Z</time>
      </trkpt>
      <trkpt lat="43.33705" lon="5.79042">
        <ele>933.4</ele>
        <time>2025-10-05T08:51:35Z</time>
      </trkpt>
      <trkpt lat="43.33705" lon="5.79042">
        <ele>933.4</ele>
        <time>2025-10-05T08:51:36Z</time>
      </trkpt>
      <trkpt lat="43.33705" lon="5.79042">
        <ele>933.5</ele>
        <time>2025-10-05T08:51:37Z</time>
      </trkpt>
      <trkpt lat="43.33705" lon="5.79042">
        <ele>933.5</ele>
        <time>2025-10-05T08:51:38Z</time>
      </trkpt>
      <trkpt lat="43.33705" lon="5.79042">
        <ele>933.5</ele>
        <time>2025-10-05T08:51:39Z</time>
      </trkpt>
      <trkpt lat="43.33705" lon="5.79042">
        <ele>933.6</ele>
        <time>2025-10-05T08:51:40Z</time>
      </trkpt>
      <trkpt lat="43.33705" lon="5.79042">
        <ele>933.7</ele>
        <time>2025-10-05T08:51:41Z</time>
      </trkpt>
      <trkpt lat="43.33705" lon="5.79042">
        <ele>933.7</ele>
        <time>2025-10-05T08:51:42Z</time>
      </trkpt>
      <trkpt lat="43.33705" lon="5.79042">
        <ele>933.6</ele>
        <time>2025-10-05T08:51:43Z</time>
      </trkpt>
      <trkpt lat="43.33704" lon="5.79043">
        <ele>933.6</ele>
        <time>2025-10-05T08:51:44Z</time>
      </trkpt>
      <trkpt lat="43.33705" lon="5.79043">
        <ele>933.8</ele>
        <time>2025-10-05T08:51:45Z</time>
      </trkpt>
      <trkpt lat="43.33705" lon="5.79042">
        <ele>934.1</ele>
        <time>2025-10-05T08:51:46Z</time>
      </trkpt>
      <trkpt lat="43.33706" lon="5.79041">
        <ele>934.5</ele>
        <time>2025-10-05T08:51:47Z</time>
      </trkpt>
      <trkpt lat="43.33705" lon="5.79042">
        <ele>934.7</ele>
        <time>2025-10-05T08:51:48Z</time>
      </trkpt>
      <trkpt lat="43.33705" lon="5.79042">
        <ele>934.9</ele>
        <time>2025-10-05T08:51:49Z</time>
      </trkpt>
      <trkpt lat="43.33704" lon="5.79042">
        <ele>935.1</ele>
        <time>2025-10-05T08:51:50Z</time>
      </trkpt>
      <trkpt lat="43.33704" lon="5.79041">
        <ele>935.2</ele>
        <time>2025-10-05T08:51:51Z</time>
      </trkpt>
      <trkpt lat="43.33704" lon="5.79041">
        <ele>935.6</ele>
        <time>2025-10-05T08:51:52Z</time>
      </trkpt>
      <trkpt lat="43.33704" lon="5.79041">
        <ele>935.8</ele>
        <time>2025-10-05T08:51:53Z</time>
      </trkpt>
      <trkpt lat="43.33703" lon="5.79041">
        <ele>936.2</ele>
        <time>2025-10-05T08:51:54Z</time>
      </trkpt>
      <trkpt lat="43.33704" lon="5.79041">
        <ele>936.6</ele>
        <time>2025-10-05T08:51:55Z</time>
      </trkpt>
      <trkpt lat="43.33704" lon="5.79041">
        <ele>936.8</ele>
        <time>2025-10-05T08:51:56Z</time>
      </trkpt>
      <trkpt lat="43.33704" lon="5.79041">
        <ele>937.1</ele>
        <time>2025-10-05T08:51:57Z</time>
      </trkpt>
      <trkpt lat="43.33704" lon="5.79041">
        <ele>937.3</ele>
        <time>2025-10-05T08:51:58Z</time>
      </trkpt>
      <trkpt lat="43.33703" lon="5.79041">
        <ele>937.6</ele>
        <time>2025-10-05T08:51:59Z</time>
      </trkpt>
      <trkpt lat="43.33703" lon="5.79041">
        <ele>937.8</ele>
        <time>2025-10-05T08:52:00Z</time>
      </trkpt>
      <trkpt lat="43.33702" lon="5.79041">
        <ele>937.9</ele>
        <time>2025-10-05T08:52:01Z</time>
      </trkpt>
      <trkpt lat="43.33701" lon="5.7904">
        <ele>938</ele>
        <time>2025-10-05T08:52:02Z</time>
      </trkpt>
      <trkpt lat="43.33701" lon="5.79041">
        <ele>938</ele>
        <time>2025-10-05T08:52:03Z</time>
      </trkpt>
      <trkpt lat="43.337" lon="5.79041">
        <ele>938.2</ele>
        <time>2025-10-05T08:52:04Z</time>
      </trkpt>
      <trkpt lat="43.337" lon="5.79041">
        <ele>938.4</ele>
        <time>2025-10-05T08:52:05Z</time>
      </trkpt>
      <trkpt lat="43.337" lon="5.79041">
        <ele>938.6</ele>
        <time>2025-10-05T08:52:06Z</time>
      </trkpt>
      <trkpt lat="43.33699" lon="5.79041">
        <ele>938.8</ele>
        <time>2025-10-05T08:52:07Z</time>
      </trkpt>
      <trkpt lat="43.33699" lon="5.79041">
        <ele>939.2</ele>
        <time>2025-10-05T08:52:08Z</time>
      </trkpt>
      <trkpt lat="43.33698" lon="5.79041">
        <ele>939.4</ele>
        <time>2025-10-05T08:52:09Z</time>
      </trkpt>
      <trkpt lat="43.33698" lon="5.79041">
        <ele>939.7</ele>
        <time>2025-10-05T08:52:10Z</time>
      </trkpt>
      <trkpt lat="43.33698" lon="5.79041">
        <ele>940</ele>
        <time>2025-10-05T08:52:11Z</time>
      </trkpt>
      <trkpt lat="43.33699" lon="5.79041">
        <ele>940.2</ele>
        <time>2025-10-05T08:52:12Z</time>
      </trkpt>
      <trkpt lat="43.33699" lon="5.79041">
        <ele>940.4</ele>
        <time>2025-10-05T08:52:13Z</time>
      </trkpt>
      <trkpt lat="43.33699" lon="5.79041">
        <ele>940.7</ele>
        <time>2025-10-05T08:52:14Z</time>
      </trkpt>
      <trkpt lat="43.33699" lon="5.79041">
        <ele>941</ele>
        <time>2025-10-05T08:52:15Z</time>
      </trkpt>
      <trkpt lat="43.33699" lon="5.79041">
        <ele>941.2</ele>
        <time>2025-10-05T08:52:16Z</time>
      </trkpt>
      <trkpt lat="43.33699" lon="5.79041">
        <ele>941.3</ele>
        <time>2025-10-05T08:52:17Z</time>
      </trkpt>
      <trkpt lat="43.33698" lon="5.79041">
        <ele>941.5</ele>
        <time>2025-10-05T08:52:18Z</time>
      </trkpt>
      <trkpt lat="43.33697" lon="5.79041">
        <ele>941.6</ele>
        <time>2025-10-05T08:52:19Z</time>
      </trkpt>
      <trkpt lat="43.33697" lon="5.79041">
        <ele>941.7</ele>
        <time>2025-10-05T08:52:20Z</time>
      </trkpt>
      <trkpt lat="43.33697" lon="5.79042">
        <ele>941.8</ele>
        <time>2025-10-05T08:52:21Z</time>
      </trkpt>
      <trkpt lat="43.33697" lon="5.79042">
        <ele>942.1</ele>
        <time>2025-10-05T08:52:22Z</time>
      </trkpt>
      <trkpt lat="43.33696" lon="5.79042">
        <ele>942.2</ele>
        <time>2025-10-05T08:52:23Z</time>
      </trkpt>
      <trkpt lat="43.33696" lon="5.79042">
        <ele>942.5</ele>
        <time>2025-10-05T08:52:24Z</time>
      </trkpt>
      <trkpt lat="43.33696" lon="5.79042">
        <ele>942.7</ele>
        <time>2025-10-05T08:52:25Z</time>
      </trkpt>
      <trkpt lat="43.33696" lon="5.79041">
        <ele>942.8</ele>
        <time>2025-10-05T08:52:26Z</time>
      </trkpt>
      <trkpt lat="43.33696" lon="5.79042">
        <ele>942.9</ele>
        <time>2025-10-05T08:52:27Z</time>
      </trkpt>
      <trkpt lat="43.33696" lon="5.79043">
        <ele>943</ele>
        <time>2025-10-05T08:52:28Z</time>
      </trkpt>
      <trkpt lat="43.33696" lon="5.79043">
        <ele>943.1</ele>
        <time>2025-10-05T08:52:29Z</time>
      </trkpt>
      <trkpt lat="43.33696" lon="5.79042">
        <ele>943.2</ele>
        <time>2025-10-05T08:52:30Z</time>
      </trkpt>
      <trkpt lat="43.33696" lon="5.79042">
        <ele>943.2</ele>
        <time>2025-10-05T08:52:31Z</time>
      </trkpt>
      <trkpt lat="43.33695" lon="5.79041">
        <ele>943.3</ele>
        <time>2025-10-05T08:52:32Z</time>
      </trkpt>
      <trkpt lat="43.33695" lon="5.79041">
        <ele>943.2</ele>
        <time>2025-10-05T08:52:33Z</time>
      </trkpt>
      <trkpt lat="43.33695" lon="5.79041">
        <ele>943.4</ele>
        <time>2025-10-05T08:52:34Z</time>
      </trkpt>
      <trkpt lat="43.33695" lon="5.79041">
        <ele>943.4</ele>
        <time>2025-10-05T08:52:35Z</time>
      </trkpt>
      <trkpt lat="43.33695" lon="5.79041">
        <ele>943.5</ele>
        <time>2025-10-05T08:52:36Z</time>
      </trkpt>
      <trkpt lat="43.33695" lon="5.79041">
        <ele>943.6</ele>
        <time>2025-10-05T08:52:37Z</time>
      </trkpt>
      <trkpt lat="43.33695" lon="5.79041">
        <ele>943.6</ele>
        <time>2025-10-05T08:52:38Z</time>
      </trkpt>
      <trkpt lat="43.33694" lon="5.79041">
        <ele>943.4</ele>
        <time>2025-10-05T08:52:39Z</time>
      </trkpt>
      <trkpt lat="43.33694" lon="5.79041">
        <ele>943.6</ele>
        <time>2025-10-05T08:52:40Z</time>
      </trkpt>
      <trkpt lat="43.33694" lon="5.79041">
        <ele>943.5</ele>
        <time>2025-10-05T08:52:41Z</time>
      </trkpt>
      <trkpt lat="43.33694" lon="5.79041">
        <ele>943.5</ele>
        <time>2025-10-05T08:52:42Z</time>
      </trkpt>
      <trkpt lat="43.33694" lon="5.7904">
        <ele>943.4</ele>
        <time>2025-10-05T08:52:43Z</time>
      </trkpt>
      <trkpt lat="43.33694" lon="5.7904">
        <ele>943.3</ele>
        <time>2025-10-05T08:52:44Z</time>
      </trkpt>
      <trkpt lat="43.33694" lon="5.7904">
        <ele>943.3</ele>
        <time>2025-10-05T08:52:45Z</time>
      </trkpt>
      <trkpt lat="43.33694" lon="5.7904">
        <ele>943.3</ele>
        <time>2025-10-05T08:52:46Z</time>
      </trkpt>
      <trkpt lat="43.33694" lon="5.7904">
        <ele>943.5</ele>
        <time>2025-10-05T08:52:47Z</time>
      </trkpt>
      <trkpt lat="43.33694" lon="5.79039">
        <ele>943.6</ele>
        <time>2025-10-05T08:52:48Z</time>
      </trkpt>
      <trkpt lat="43.33693" lon="5.79039">
        <ele>943.7</ele>
        <time>2025-10-05T08:52:49Z</time>
      </trkpt>
      <trkpt lat="43.33693" lon="5.79039">
        <ele>943.8</ele>
        <time>2025-10-05T08:52:50Z</time>
      </trkpt>
      <trkpt lat="43.33693" lon="5.79039">
        <ele>943.8</ele>
        <time>2025-10-05T08:52:51Z</time>
      </trkpt>
      <trkpt lat="43.33693" lon="5.79039">
        <ele>943.9</ele>
        <time>2025-10-05T08:52:52Z</time>
      </trkpt>
      <trkpt lat="43.33693" lon="5.79039">
        <ele>943.9</ele>
        <time>2025-10-05T08:52:53Z</time>
      </trkpt>
      <trkpt lat="43.33693" lon="5.7904">
        <ele>943.9</ele>
        <time>2025-10-05T08:52:54Z</time>
      </trkpt>
      <trkpt lat="43.33692" lon="5.7904">
        <ele>943.9</ele>
        <time>2025-10-05T08:52:55Z</time>
      </trkpt>
      <trkpt lat="43.33692" lon="5.7904">
        <ele>943.9</ele>
        <time>2025-10-05T08:52:56Z</time>
      </trkpt>
      <trkpt lat="43.33692" lon="5.7904">
        <ele>943.9</ele>
        <time>2025-10-05T08:52:57Z</time>
      </trkpt>
      <trkpt lat="43.33692" lon="5.7904">
        <ele>943.9</ele>
        <time>2025-10-05T08:52:58Z</time>
      </trkpt>
      <trkpt lat="43.33691" lon="5.7904">
        <ele>943.9</ele>
        <time>2025-10-05T08:52:59Z</time>
      </trkpt>
      <trkpt lat="43.33692" lon="5.7904">
        <ele>943.9</ele>
        <time>2025-10-05T08:53:00Z</time>
      </trkpt>
      <trkpt lat="43.33692" lon="5.79041">
        <ele>943.9</ele>
        <time>2025-10-05T08:53:01Z</time>
      </trkpt>
      <trkpt lat="43.33691" lon="5.79042">
        <ele>943.7</ele>
        <time>2025-10-05T08:53:02Z</time>
      </trkpt>
      <trkpt lat="43.33691" lon="5.79041">
        <ele>943.7</ele>
        <time>2025-10-05T08:53:03Z</time>
      </trkpt>
      <trkpt lat="43.33691" lon="5.79041">
        <ele>943.7</ele>
        <time>2025-10-05T08:53:04Z</time>
      </trkpt>
      <trkpt lat="43.3369" lon="5.79041">
        <ele>943.7</ele>
        <time>2025-10-05T08:53:05Z</time>
      </trkpt>
      <trkpt lat="43.3369" lon="5.79041">
        <ele>943.7</ele>
        <time>2025-10-05T08:53:06Z</time>
      </trkpt>
      <trkpt lat="43.3369" lon="5.79041">
        <ele>943.6</ele>
        <time>2025-10-05T08:53:08Z</time>
      </trkpt>
      <trkpt lat="43.33691" lon="5.79041">
        <ele>943.6</ele>
        <time>2025-10-05T08:53:09Z</time>
      </trkpt>
      <trkpt lat="43.33691" lon="5.79041">
        <ele>943.5</ele>
        <time>2025-10-05T08:53:10Z</time>
      </trkpt>
      <trkpt lat="43.33691" lon="5.79042">
        <ele>943.3</ele>
        <time>2025-10-05T08:53:11Z</time>
      </trkpt>
      <trkpt lat="43.33691" lon="5.79042">
        <ele>943.2</ele>
        <time>2025-10-05T08:53:12Z</time>
      </trkpt>
      <trkpt lat="43.33691" lon="5.79042">
        <ele>943.1</ele>
        <time>2025-10-05T08:53:13Z</time>
      </trkpt>
      <trkpt lat="43.3369" lon="5.79042">
        <ele>943.1</ele>
        <time>2025-10-05T08:53:14Z</time>
      </trkpt>
      <trkpt lat="43.3369" lon="5.79043">
        <ele>943.1</ele>
        <time>2025-10-05T08:53:15Z</time>
      </trkpt>
      <trkpt lat="43.3369" lon="5.79043">
        <ele>943.1</ele>
        <time>2025-10-05T08:53:16Z</time>
      </trkpt>
      <trkpt lat="43.3369" lon="5.79043">
        <ele>943.1</ele>
        <time>2025-10-05T08:53:17Z</time>
      </trkpt>
      <trkpt lat="43.3369" lon="5.79043">
        <ele>943.1</ele>
        <time>2025-10-05T08:53:18Z</time>
      </trkpt>
      <trkpt lat="43.3369" lon="5.79043">
        <ele>942.9</ele>
        <time>2025-10-05T08:53:19Z</time>
      </trkpt>
      <trkpt lat="43.3369" lon="5.79043">
        <ele>942.8</ele>
        <time>2025-10-05T08:53:20Z</time>
      </trkpt>
      <trkpt lat="43.33689" lon="5.79043">
        <ele>942.8</ele>
        <time>2025-10-05T08:53:21Z</time>
      </trkpt>
      <trkpt lat="43.33689" lon="5.79044">
        <ele>942.8</ele>
        <time>2025-10-05T08:53:22Z</time>
      </trkpt>
      <trkpt lat="43.33689" lon="5.79044">
        <ele>942.8</ele>
        <time>2025-10-05T08:53:23Z</time>
      </trkpt>
      <trkpt lat="43.33689" lon="5.79044">
        <ele>942.9</ele>
        <time>2025-10-05T08:53:24Z</time>
      </trkpt>
      <trkpt lat="43.33689" lon="5.79044">
        <ele>943.1</ele>
        <time>2025-10-05T08:53:25Z</time>
      </trkpt>
      <trkpt lat="43.33689" lon="5.79044">
        <ele>943</ele>
        <time>2025-10-05T08:53:26Z</time>
      </trkpt>
      <trkpt lat="43.33689" lon="5.79044">
        <ele>942.9</ele>
        <time>2025-10-05T08:53:27Z</time>
      </trkpt>
      <trkpt lat="43.33689" lon="5.79044">
        <ele>942.9</ele>
        <time>2025-10-05T08:53:28Z</time>
      </trkpt>
      <trkpt lat="43.33689" lon="5.79044">
        <ele>942.9</ele>
        <time>2025-10-05T08:53:29Z</time>
      </trkpt>
      <trkpt lat="43.33689" lon="5.79044">
        <ele>942.8</ele>
        <time>2025-10-05T08:53:30Z</time>
      </trkpt>
      <trkpt lat="43.3369" lon="5.79044">
        <ele>942.9</ele>
        <time>2025-10-05T08:53:31Z</time>
      </trkpt>
      <trkpt lat="43.3369" lon="5.79044">
        <ele>942.9</ele>
        <time>2025-10-05T08:53:32Z</time>
      </trkpt>
      <trkpt lat="43.3369" lon="5.79044">
        <ele>943</ele>
        <time>2025-10-05T08:53:33Z</time>
      </trkpt>
      <trkpt lat="43.3369" lon="5.79044">
        <ele>943</ele>
        <time>2025-10-05T08:53:34Z</time>
      </trkpt>
      <trkpt lat="43.3369" lon="5.79043">
        <ele>942.9</ele>
        <time>2025-10-05T08:53:35Z</time>
      </trkpt>
      <trkpt lat="43.33691" lon="5.79044">
        <ele>942.7</ele>
        <time>2025-10-05T08:53:36Z</time>
      </trkpt>
      <trkpt lat="43.33692" lon="5.79042">
        <ele>942.6</ele>
        <time>2025-10-05T08:53:37Z</time>
      </trkpt>
      <trkpt lat="43.33693" lon="5.79042">
        <ele>942.4</ele>
        <time>2025-10-05T08:53:38Z</time>
      </trkpt>
      <trkpt lat="43.33693" lon="5.79042">
        <ele>942.3</ele>
        <time>2025-10-05T08:53:39Z</time>
      </trkpt>
      <trkpt lat="43.33693" lon="5.79042">
        <ele>942.2</ele>
        <time>2025-10-05T08:53:40Z</time>
      </trkpt>
      <trkpt lat="43.33693" lon="5.79042">
        <ele>942.2</ele>
        <time>2025-10-05T08:53:41Z</time>
      </trkpt>
      <trkpt lat="43.33692" lon="5.79042">
        <ele>942</ele>
        <time>2025-10-05T08:53:42Z</time>
      </trkpt>
      <trkpt lat="43.33691" lon="5.79042">
        <ele>942</ele>
        <time>2025-10-05T08:53:43Z</time>
      </trkpt>
      <trkpt lat="43.33691" lon="5.79042">
        <ele>942</ele>
        <time>2025-10-05T08:53:44Z</time>
      </trkpt>
      <trkpt lat="43.3369" lon="5.79041">
        <ele>942.1</ele>
        <time>2025-10-05T08:53:45Z</time>
      </trkpt>
      <trkpt lat="43.33691" lon="5.7904">
        <ele>942.2</ele>
        <time>2025-10-05T08:53:46Z</time>
      </trkpt>
      <trkpt lat="43.33691" lon="5.7904">
        <ele>942.1</ele>
        <time>2025-10-05T08:53:47Z</time>
      </trkpt>
      <trkpt lat="43.33691" lon="5.7904">
        <ele>942.2</ele>
        <time>2025-10-05T08:53:48Z</time>
      </trkpt>
      <trkpt lat="43.33691" lon="5.7904">
        <ele>942.3</ele>
        <time>2025-10-05T08:53:49Z</time>
      </trkpt>
      <trkpt lat="43.33691" lon="5.7904">
        <ele>942.4</ele>
        <time>2025-10-05T08:53:50Z</time>
      </trkpt>
      <trkpt lat="43.33691" lon="5.7904">
        <ele>942.4</ele>
        <time>2025-10-05T08:53:51Z</time>
      </trkpt>
      <trkpt lat="43.3369" lon="5.7904">
        <ele>942.5</ele>
        <time>2025-10-05T08:53:52Z</time>
      </trkpt>
      <trkpt lat="43.3369" lon="5.7904">
        <ele>942.5</ele>
        <time>2025-10-05T08:53:53Z</time>
      </trkpt>
      <trkpt lat="43.3369" lon="5.7904">
        <ele>942.5</ele>
        <time>2025-10-05T08:53:54Z</time>
      </trkpt>
      <trkpt lat="43.3369" lon="5.7904">
        <ele>942.6</ele>
        <time>2025-10-05T08:53:55Z</time>
      </trkpt>
      <trkpt lat="43.3369" lon="5.7904">
        <ele>942.9</ele>
        <time>2025-10-05T08:53:56Z</time>
      </trkpt>
      <trkpt lat="43.33689" lon="5.79041">
        <ele>943</ele>
        <time>2025-10-05T08:53:57Z</time>
      </trkpt>
      <trkpt lat="43.33691" lon="5.79041">
        <ele>943</ele>
        <time>2025-10-05T08:53:58Z</time>
      </trkpt>
      <trkpt lat="43.33691" lon="5.7904">
        <ele>942.9</ele>
        <time>2025-10-05T08:53:59Z</time>
      </trkpt>
      <trkpt lat="43.3369" lon="5.7904">
        <ele>942.9</ele>
        <time>2025-10-05T08:54:00Z</time>
      </trkpt>
      <trkpt lat="43.3369" lon="5.79039">
        <ele>943</ele>
        <time>2025-10-05T08:54:01Z</time>
      </trkpt>
      <trkpt lat="43.3369" lon="5.79039">
        <ele>942.9</ele>
        <time>2025-10-05T08:54:02Z</time>
      </trkpt>
      <trkpt lat="43.3369" lon="5.79038">
        <ele>942.8</ele>
        <time>2025-10-05T08:54:03Z</time>
      </trkpt>
      <trkpt lat="43.3369" lon="5.79037">
        <ele>942.8</ele>
        <time>2025-10-05T08:54:04Z</time>
      </trkpt>
      <trkpt lat="43.33691" lon="5.79036">
        <ele>942.8</ele>
        <time>2025-10-05T08:54:05Z</time>
      </trkpt>
      <trkpt lat="43.33691" lon="5.79035">
        <ele>943.1</ele>
        <time>2025-10-05T08:54:06Z</time>
      </trkpt>
      <trkpt lat="43.33691" lon="5.79034">
        <ele>943.4</ele>
        <time>2025-10-05T08:54:07Z</time>
      </trkpt>
      <trkpt lat="43.3369" lon="5.79034">
        <ele>943.4</ele>
        <time>2025-10-05T08:54:08Z</time>
      </trkpt>
      <trkpt lat="43.3369" lon="5.79033">
        <ele>943.4</ele>
        <time>2025-10-05T08:54:09Z</time>
      </trkpt>
      <trkpt lat="43.33689" lon="5.79034">
        <ele>943.3</ele>
        <time>2025-10-05T08:54:10Z</time>
      </trkpt>
      <trkpt lat="43.33689" lon="5.79034">
        <ele>943.3</ele>
        <time>2025-10-05T08:54:11Z</time>
      </trkpt>
      <trkpt lat="43.33689" lon="5.79033">
        <ele>942.9</ele>
        <time>2025-10-05T08:54:12Z</time>
      </trkpt>
      <trkpt lat="43.3369" lon="5.79032">
        <ele>942.6</ele>
        <time>2025-10-05T08:54:13Z</time>
      </trkpt>
      <trkpt lat="43.3369" lon="5.79031">
        <ele>942.5</ele>
        <time>2025-10-05T08:54:14Z</time>
      </trkpt>
      <trkpt lat="43.3369" lon="5.79029">
        <ele>942.4</ele>
        <time>2025-10-05T08:54:15Z</time>
      </trkpt>
      <trkpt lat="43.3369" lon="5.79028">
        <ele>942.4</ele>
        <time>2025-10-05T08:54:16Z</time>
      </trkpt>
      <trkpt lat="43.3369" lon="5.79027">
        <ele>942.4</ele>
        <time>2025-10-05T08:54:17Z</time>
      </trkpt>
      <trkpt lat="43.33689" lon="5.79026">
        <ele>942.4</ele>
        <time>2025-10-05T08:54:18Z</time>
      </trkpt>
      <trkpt lat="43.33689" lon="5.79025">
        <ele>942.6</ele>
        <time>2025-10-05T08:54:19Z</time>
      </trkpt>
      <trkpt lat="43.3369" lon="5.79024">
        <ele>942.8</ele>
        <time>2025-10-05T08:54:20Z</time>
      </trkpt>
      <trkpt lat="43.3369" lon="5.79024">
        <ele>943.1</ele>
        <time>2025-10-05T08:54:21Z</time>
      </trkpt>
      <trkpt lat="43.3369" lon="5.79024">
        <ele>943.3</ele>
        <time>2025-10-05T08:54:22Z</time>
      </trkpt>
      <trkpt lat="43.3369" lon="5.79024">
        <ele>943.2</ele>
        <time>2025-10-05T08:54:23Z</time>
      </trkpt>
      <trkpt lat="43.3369" lon="5.79024">
        <ele>943.3</ele>
        <time>2025-10-05T08:54:24Z</time>
      </trkpt>
      <trkpt lat="43.3369" lon="5.79024">
        <ele>943.4</ele>
        <time>2025-10-05T08:54:25Z</time>
      </trkpt>
      <trkpt lat="43.3369" lon="5.79024">
        <ele>943.4</ele>
        <time>2025-10-05T08:54:26Z</time>
      </trkpt>
      <trkpt lat="43.3369" lon="5.79023">
        <ele>943.3</ele>
        <time>2025-10-05T08:54:27Z</time>
      </trkpt>
      <trkpt lat="43.3369" lon="5.79023">
        <ele>943.6</ele>
        <time>2025-10-05T08:54:28Z</time>
      </trkpt>
      <trkpt lat="43.3369" lon="5.79022">
        <ele>943.9</ele>
        <time>2025-10-05T08:54:29Z</time>
      </trkpt>
      <trkpt lat="43.3369" lon="5.79022">
        <ele>944.2</ele>
        <time>2025-10-05T08:54:30Z</time>
      </trkpt>
      <trkpt lat="43.3369" lon="5.79022">
        <ele>944.6</ele>
        <time>2025-10-05T08:54:31Z</time>
      </trkpt>
      <trkpt lat="43.33691" lon="5.79021">
        <ele>944.8</ele>
        <time>2025-10-05T08:54:32Z</time>
      </trkpt>
      <trkpt lat="43.33691" lon="5.79021">
        <ele>945</ele>
        <time>2025-10-05T08:54:33Z</time>
      </trkpt>
      <trkpt lat="43.33691" lon="5.7902">
        <ele>945</ele>
        <time>2025-10-05T08:54:34Z</time>
      </trkpt>
      <trkpt lat="43.33691" lon="5.7902">
        <ele>945.1</ele>
        <time>2025-10-05T08:54:35Z</time>
      </trkpt>
      <trkpt lat="43.33691" lon="5.7902">
        <ele>945.2</ele>
        <time>2025-10-05T08:54:36Z</time>
      </trkpt>
      <trkpt lat="43.3369" lon="5.79019">
        <ele>945.5</ele>
        <time>2025-10-05T08:54:37Z</time>
      </trkpt>
      <trkpt lat="43.3369" lon="5.79019">
        <ele>945.7</ele>
        <time>2025-10-05T08:54:38Z</time>
      </trkpt>
      <trkpt lat="43.33689" lon="5.79019">
        <ele>945.7</ele>
        <time>2025-10-05T08:54:39Z</time>
      </trkpt>
      <trkpt lat="43.33689" lon="5.7902">
        <ele>945.7</ele>
        <time>2025-10-05T08:54:40Z</time>
      </trkpt>
      <trkpt lat="43.33689" lon="5.7902">
        <ele>945.8</ele>
        <time>2025-10-05T08:54:41Z</time>
      </trkpt>
      <trkpt lat="43.33689" lon="5.79021">
        <ele>945.9</ele>
        <time>2025-10-05T08:54:42Z</time>
      </trkpt>
      <trkpt lat="43.33689" lon="5.79021">
        <ele>946</ele>
        <time>2025-10-05T08:54:43Z</time>
      </trkpt>
      <trkpt lat="43.3369" lon="5.79021">
        <ele>946.1</ele>
        <time>2025-10-05T08:54:44Z</time>
      </trkpt>
      <trkpt lat="43.3369" lon="5.79021">
        <ele>946.3</ele>
        <time>2025-10-05T08:54:45Z</time>
      </trkpt>
      <trkpt lat="43.3369" lon="5.79021">
        <ele>946.5</ele>
        <time>2025-10-05T08:54:46Z</time>
      </trkpt>
      <trkpt lat="43.3369" lon="5.79022">
        <ele>946.7</ele>
        <time>2025-10-05T08:54:47Z</time>
      </trkpt>
      <trkpt lat="43.33689" lon="5.79021">
        <ele>946.9</ele>
        <time>2025-10-05T08:54:48Z</time>
      </trkpt>
      <trkpt lat="43.33689" lon="5.79021">
        <ele>947.3</ele>
        <time>2025-10-05T08:54:49Z</time>
      </trkpt>
      <trkpt lat="43.33689" lon="5.79021">
        <ele>947.6</ele>
        <time>2025-10-05T08:54:50Z</time>
      </trkpt>
      <trkpt lat="43.33688" lon="5.79021">
        <ele>947.8</ele>
        <time>2025-10-05T08:54:51Z</time>
      </trkpt>
      <trkpt lat="43.33688" lon="5.79022">
        <ele>948.1</ele>
        <time>2025-10-05T08:54:52Z</time>
      </trkpt>
      <trkpt lat="43.33688" lon="5.79022">
        <ele>948.3</ele>
        <time>2025-10-05T08:54:53Z</time>
      </trkpt>
      <trkpt lat="43.33688" lon="5.79022">
        <ele>948.6</ele>
        <time>2025-10-05T08:54:54Z</time>
      </trkpt>
      <trkpt lat="43.33688" lon="5.79022">
        <ele>948.9</ele>
        <time>2025-10-05T08:54:55Z</time>
      </trkpt>
      <trkpt lat="43.33688" lon="5.79022">
        <ele>949.1</ele>
        <time>2025-10-05T08:54:56Z</time>
      </trkpt>
      <trkpt lat="43.33688" lon="5.79022">
        <ele>949.3</ele>
        <time>2025-10-05T08:54:57Z</time>
      </trkpt>
      <trkpt lat="43.33688" lon="5.79022">
        <ele>949.5</ele>
        <time>2025-10-05T08:54:58Z</time>
      </trkpt>
      <trkpt lat="43.33687" lon="5.79021">
        <ele>949.8</ele>
        <time>2025-10-05T08:54:59Z</time>
      </trkpt>
      <trkpt lat="43.33687" lon="5.79021">
        <ele>950</ele>
        <time>2025-10-05T08:55:00Z</time>
      </trkpt>
      <trkpt lat="43.33687" lon="5.79021">
        <ele>950.2</ele>
        <time>2025-10-05T08:55:01Z</time>
      </trkpt>
      <trkpt lat="43.33687" lon="5.79021">
        <ele>950.4</ele>
        <time>2025-10-05T08:55:02Z</time>
      </trkpt>
      <trkpt lat="43.33687" lon="5.7902">
        <ele>950.8</ele>
        <time>2025-10-05T08:55:03Z</time>
      </trkpt>
      <trkpt lat="43.33687" lon="5.7902">
        <ele>951.1</ele>
        <time>2025-10-05T08:55:04Z</time>
      </trkpt>
      <trkpt lat="43.33687" lon="5.7902">
        <ele>951.3</ele>
        <time>2025-10-05T08:55:05Z</time>
      </trkpt>
      <trkpt lat="43.33686" lon="5.7902">
        <ele>951.5</ele>
        <time>2025-10-05T08:55:06Z</time>
      </trkpt>
      <trkpt lat="43.33686" lon="5.7902">
        <ele>951.7</ele>
        <time>2025-10-05T08:55:07Z</time>
      </trkpt>
      <trkpt lat="43.33686" lon="5.79019">
        <ele>951.8</ele>
        <time>2025-10-05T08:55:08Z</time>
      </trkpt>
      <trkpt lat="43.33686" lon="5.79019">
        <ele>952</ele>
        <time>2025-10-05T08:55:09Z</time>
      </trkpt>
      <trkpt lat="43.33686" lon="5.79019">
        <ele>952.1</ele>
        <time>2025-10-05T08:55:10Z</time>
      </trkpt>
      <trkpt lat="43.33685" lon="5.79019">
        <ele>952</ele>
        <time>2025-10-05T08:55:11Z</time>
      </trkpt>
      <trkpt lat="43.33685" lon="5.79019">
        <ele>952</ele>
        <time>2025-10-05T08:55:12Z</time>
      </trkpt>
      <trkpt lat="43.33685" lon="5.79018">
        <ele>951.9</ele>
        <time>2025-10-05T08:55:13Z</time>
      </trkpt>
      <trkpt lat="43.33685" lon="5.79018">
        <ele>951.9</ele>
        <time>2025-10-05T08:55:14Z</time>
      </trkpt>
      <trkpt lat="43.33685" lon="5.79018">
        <ele>951.9</ele>
        <time>2025-10-05T08:55:15Z</time>
      </trkpt>
      <trkpt lat="43.33684" lon="5.79018">
        <ele>951.8</ele>
        <time>2025-10-05T08:55:16Z</time>
      </trkpt>
      <trkpt lat="43.33683" lon="5.79018">
        <ele>951.7</ele>
        <time>2025-10-05T08:55:17Z</time>
      </trkpt>
      <trkpt lat="43.33682" lon="5.79018">
        <ele>951.8</ele>
        <time>2025-10-05T08:55:18Z</time>
      </trkpt>
      <trkpt lat="43.33682" lon="5.79018">
        <ele>951.8</ele>
        <time>2025-10-05T08:55:19Z</time>
      </trkpt>
      <trkpt lat="43.33682" lon="5.79018">
        <ele>951.9</ele>
        <time>2025-10-05T08:55:20Z</time>
      </trkpt>
      <trkpt lat="43.33682" lon="5.79017">
        <ele>951.9</ele>
        <time>2025-10-05T08:55:21Z</time>
      </trkpt>
      <trkpt lat="43.33681" lon="5.79017">
        <ele>951.9</ele>
        <time>2025-10-05T08:55:22Z</time>
      </trkpt>
      <trkpt lat="43.33681" lon="5.79017">
        <ele>951.9</ele>
        <time>2025-10-05T08:55:23Z</time>
      </trkpt>
      <trkpt lat="43.33681" lon="5.79017">
        <ele>951.9</ele>
        <time>2025-10-05T08:55:24Z</time>
      </trkpt>
      <trkpt lat="43.33681" lon="5.79016">
        <ele>951.8</ele>
        <time>2025-10-05T08:55:25Z</time>
      </trkpt>
      <trkpt lat="43.33679" lon="5.79017">
        <ele>951.6</ele>
        <time>2025-10-05T08:55:26Z</time>
      </trkpt>
      <trkpt lat="43.33679" lon="5.79017">
        <ele>951.5</ele>
        <time>2025-10-05T08:55:27Z</time>
      </trkpt>
      <trkpt lat="43.3368" lon="5.79017">
        <ele>951.2</ele>
        <time>2025-10-05T08:55:28Z</time>
      </trkpt>
      <trkpt lat="43.3368" lon="5.79017">
        <ele>951.1</ele>
        <time>2025-10-05T08:55:29Z</time>
      </trkpt>
      <trkpt lat="43.33681" lon="5.79017">
        <ele>951</ele>
        <time>2025-10-05T08:55:30Z</time>
      </trkpt>
      <trkpt lat="43.33682" lon="5.79016">
        <ele>951.1</ele>
        <time>2025-10-05T08:55:31Z</time>
      </trkpt>
      <trkpt lat="43.33681" lon="5.79016">
        <ele>951</ele>
        <time>2025-10-05T08:55:32Z</time>
      </trkpt>
      <trkpt lat="43.3368" lon="5.79016">
        <ele>951</ele>
        <time>2025-10-05T08:55:33Z</time>
      </trkpt>
      <trkpt lat="43.3368" lon="5.79016">
        <ele>951</ele>
        <time>2025-10-05T08:55:34Z</time>
      </trkpt>
      <trkpt lat="43.3368" lon="5.79017">
        <ele>951</ele>
        <time>2025-10-05T08:55:35Z</time>
      </trkpt>
      <trkpt lat="43.3368" lon="5.79017">
        <ele>951</ele>
        <time>2025-10-05T08:55:36Z</time>
      </trkpt>
      <trkpt lat="43.3368" lon="5.79017">
        <ele>951.1</ele>
        <time>2025-10-05T08:55:37Z</time>
      </trkpt>
      <trkpt lat="43.3368" lon="5.79017">
        <ele>951.1</ele>
        <time>2025-10-05T08:55:38Z</time>
      </trkpt>
      <trkpt lat="43.3368" lon="5.79017">
        <ele>951.1</ele>
        <time>2025-10-05T08:55:39Z</time>
      </trkpt>
      <trkpt lat="43.33679" lon="5.79017">
        <ele>951.2</ele>
        <time>2025-10-05T08:55:40Z</time>
      </trkpt>
      <trkpt lat="43.33679" lon="5.79017">
        <ele>951.2</ele>
        <time>2025-10-05T08:55:41Z</time>
      </trkpt>
      <trkpt lat="43.33679" lon="5.79017">
        <ele>951.3</ele>
        <time>2025-10-05T08:55:42Z</time>
      </trkpt>
      <trkpt lat="43.33679" lon="5.79018">
        <ele>951.5</ele>
        <time>2025-10-05T08:55:43Z</time>
      </trkpt>
      <trkpt lat="43.33678" lon="5.79018">
        <ele>951.5</ele>
        <time>2025-10-05T08:55:44Z</time>
      </trkpt>
      <trkpt lat="43.33678" lon="5.79018">
        <ele>951.5</ele>
        <time>2025-10-05T08:55:45Z</time>
      </trkpt>
      <trkpt lat="43.33679" lon="5.79018">
        <ele>951.5</ele>
        <time>2025-10-05T08:55:46Z</time>
      </trkpt>
      <trkpt lat="43.33679" lon="5.79018">
        <ele>951.6</ele>
        <time>2025-10-05T08:55:47Z</time>
      </trkpt>
      <trkpt lat="43.33679" lon="5.79018">
        <ele>951.6</ele>
        <time>2025-10-05T08:55:48Z</time>
      </trkpt>
      <trkpt lat="43.33679" lon="5.79018">
        <ele>951.6</ele>
        <time>2025-10-05T08:55:49Z</time>
      </trkpt>
      <trkpt lat="43.33679" lon="5.79018">
        <ele>951.7</ele>
        <time>2025-10-05T08:55:50Z</time>
      </trkpt>
      <trkpt lat="43.33679" lon="5.79018">
        <ele>951.7</ele>
        <time>2025-10-05T08:55:51Z</time>
      </trkpt>
      <trkpt lat="43.33679" lon="5.79018">
        <ele>951.8</ele>
        <time>2025-10-05T08:55:52Z</time>
      </trkpt>
      <trkpt lat="43.33679" lon="5.79017">
        <ele>951.9</ele>
        <time>2025-10-05T08:55:53Z</time>
      </trkpt>
      <trkpt lat="43.33679" lon="5.79017">
        <ele>952</ele>
        <time>2025-10-05T08:55:54Z</time>
      </trkpt>
      <trkpt lat="43.33679" lon="5.79017">
        <ele>952</ele>
        <time>2025-10-05T08:55:55Z</time>
      </trkpt>
      <trkpt lat="43.3368" lon="5.79017">
        <ele>952.2</ele>
        <time>2025-10-05T08:55:56Z</time>
      </trkpt>
      <trkpt lat="43.3368" lon="5.79016">
        <ele>952.2</ele>
        <time>2025-10-05T08:55:57Z</time>
      </trkpt>
      <trkpt lat="43.3368" lon="5.79016">
        <ele>952.3</ele>
        <time>2025-10-05T08:55:58Z</time>
      </trkpt>
      <trkpt lat="43.3368" lon="5.79016">
        <ele>952.3</ele>
        <time>2025-10-05T08:55:59Z</time>
      </trkpt>
      <trkpt lat="43.3368" lon="5.79016">
        <ele>952.2</ele>
        <time>2025-10-05T08:56:00Z</time>
      </trkpt>
      <trkpt lat="43.3368" lon="5.79016">
        <ele>952.2</ele>
        <time>2025-10-05T08:56:01Z</time>
      </trkpt>
      <trkpt lat="43.33679" lon="5.79016">
        <ele>952.2</ele>
        <time>2025-10-05T08:56:02Z</time>
      </trkpt>
      <trkpt lat="43.33679" lon="5.79016">
        <ele>952.2</ele>
        <time>2025-10-05T08:56:03Z</time>
      </trkpt>
      <trkpt lat="43.33679" lon="5.79016">
        <ele>952.1</ele>
        <time>2025-10-05T08:56:04Z</time>
      </trkpt>
      <trkpt lat="43.3368" lon="5.79016">
        <ele>952.1</ele>
        <time>2025-10-05T08:56:05Z</time>
      </trkpt>
      <trkpt lat="43.3368" lon="5.79016">
        <ele>951.9</ele>
        <time>2025-10-05T08:56:06Z</time>
      </trkpt>
      <trkpt lat="43.3368" lon="5.79016">
        <ele>951.7</ele>
        <time>2025-10-05T08:56:07Z</time>
      </trkpt>
      <trkpt lat="43.3368" lon="5.79016">
        <ele>951.7</ele>
        <time>2025-10-05T08:56:08Z</time>
      </trkpt>
      <trkpt lat="43.3368" lon="5.79016">
        <ele>951.7</ele>
        <time>2025-10-05T08:56:09Z</time>
      </trkpt>
      <trkpt lat="43.33682" lon="5.79016">
        <ele>951.7</ele>
        <time>2025-10-05T08:56:10Z</time>
      </trkpt>
      <trkpt lat="43.33682" lon="5.79016">
        <ele>951.9</ele>
        <time>2025-10-05T08:56:11Z</time>
      </trkpt>
      <trkpt lat="43.33683" lon="5.79016">
        <ele>952.1</ele>
        <time>2025-10-05T08:56:12Z</time>
      </trkpt>
      <trkpt lat="43.33683" lon="5.79016">
        <ele>952.2</ele>
        <time>2025-10-05T08:56:13Z</time>
      </trkpt>
      <trkpt lat="43.33685" lon="5.79016">
        <ele>952.2</ele>
        <time>2025-10-05T08:56:14Z</time>
      </trkpt>
      <trkpt lat="43.33685" lon="5.79015">
        <ele>952.2</ele>
        <time>2025-10-05T08:56:15Z</time>
      </trkpt>
      <trkpt lat="43.33685" lon="5.79015">
        <ele>952.4</ele>
        <time>2025-10-05T08:56:16Z</time>
      </trkpt>
      <trkpt lat="43.33685" lon="5.79015">
        <ele>952.3</ele>
        <time>2025-10-05T08:56:17Z</time>
      </trkpt>
      <trkpt lat="43.33684" lon="5.79015">
        <ele>952.1</ele>
        <time>2025-10-05T08:56:18Z</time>
      </trkpt>
      <trkpt lat="43.33684" lon="5.79015">
        <ele>952.1</ele>
        <time>2025-10-05T08:56:19Z</time>
      </trkpt>
      <trkpt lat="43.33684" lon="5.79015">
        <ele>951.8</ele>
        <time>2025-10-05T08:56:20Z</time>
      </trkpt>
      <trkpt lat="43.33683" lon="5.79015">
        <ele>951.6</ele>
        <time>2025-10-05T08:56:21Z</time>
      </trkpt>
      <trkpt lat="43.33683" lon="5.79015">
        <ele>951.4</ele>
        <time>2025-10-05T08:56:22Z</time>
      </trkpt>
      <trkpt lat="43.33683" lon="5.79015">
        <ele>951.3</ele>
        <time>2025-10-05T08:56:23Z</time>
      </trkpt>
      <trkpt lat="43.33683" lon="5.79015">
        <ele>951.3</ele>
        <time>2025-10-05T08:56:24Z</time>
      </trkpt>
      <trkpt lat="43.33684" lon="5.79015">
        <ele>951.3</ele>
        <time>2025-10-05T08:56:25Z</time>
      </trkpt>
      <trkpt lat="43.33684" lon="5.79015">
        <ele>951.3</ele>
        <time>2025-10-05T08:56:26Z</time>
      </trkpt>
      <trkpt lat="43.33683" lon="5.79015">
        <ele>951.4</ele>
        <time>2025-10-05T08:56:27Z</time>
      </trkpt>
      <trkpt lat="43.33683" lon="5.79015">
        <ele>951.5</ele>
        <time>2025-10-05T08:56:28Z</time>
      </trkpt>
      <trkpt lat="43.33684" lon="5.79015">
        <ele>951.5</ele>
        <time>2025-10-05T08:56:29Z</time>
      </trkpt>
      <trkpt lat="43.33684" lon="5.79014">
        <ele>951.6</ele>
        <time>2025-10-05T08:56:30Z</time>
      </trkpt>
      <trkpt lat="43.33684" lon="5.79014">
        <ele>951.7</ele>
        <time>2025-10-05T08:56:31Z</time>
      </trkpt>
      <trkpt lat="43.33684" lon="5.79014">
        <ele>951.7</ele>
        <time>2025-10-05T08:56:32Z</time>
      </trkpt>
      <trkpt lat="43.33684" lon="5.79014">
        <ele>951.9</ele>
        <time>2025-10-05T08:56:33Z</time>
      </trkpt>
      <trkpt lat="43.33684" lon="5.79014">
        <ele>952</ele>
        <time>2025-10-05T08:56:34Z</time>
      </trkpt>
      <trkpt lat="43.33683" lon="5.79013">
        <ele>952.1</ele>
        <time>2025-10-05T08:56:35Z</time>
      </trkpt>
      <trkpt lat="43.33683" lon="5.79013">
        <ele>952.7</ele>
        <time>2025-10-05T08:56:36Z</time>
      </trkpt>
      <trkpt lat="43.33682" lon="5.79013">
        <ele>953</ele>
        <time>2025-10-05T08:56:37Z</time>
      </trkpt>
      <trkpt lat="43.33682" lon="5.79012">
        <ele>953.2</ele>
        <time>2025-10-05T08:56:38Z</time>
      </trkpt>
      <trkpt lat="43.33682" lon="5.79012">
        <ele>953.4</ele>
        <time>2025-10-05T08:56:39Z</time>
      </trkpt>
      <trkpt lat="43.33681" lon="5.79012">
        <ele>953.6</ele>
        <time>2025-10-05T08:56:40Z</time>
      </trkpt>
      <trkpt lat="43.33681" lon="5.79012">
        <ele>953.8</ele>
        <time>2025-10-05T08:56:41Z</time>
      </trkpt>
      <trkpt lat="43.3368" lon="5.79011">
        <ele>954</ele>
        <time>2025-10-05T08:56:42Z</time>
      </trkpt>
      <trkpt lat="43.3368" lon="5.79011">
        <ele>954.1</ele>
        <time>2025-10-05T08:56:43Z</time>
      </trkpt>
      <trkpt lat="43.3368" lon="5.79011">
        <ele>954.2</ele>
        <time>2025-10-05T08:56:44Z</time>
      </trkpt>
      <trkpt lat="43.3368" lon="5.79011">
        <ele>954.3</ele>
        <time>2025-10-05T08:56:45Z</time>
      </trkpt>
      <trkpt lat="43.33681" lon="5.79011">
        <ele>954.3</ele>
        <time>2025-10-05T08:56:46Z</time>
      </trkpt>
      <trkpt lat="43.33681" lon="5.79011">
        <ele>954.4</ele>
        <time>2025-10-05T08:56:47Z</time>
      </trkpt>
      <trkpt lat="43.33681" lon="5.79011">
        <ele>954.5</ele>
        <time>2025-10-05T08:56:48Z</time>
      </trkpt>
      <trkpt lat="43.33682" lon="5.79011">
        <ele>954.2</ele>
        <time>2025-10-05T08:56:49Z</time>
      </trkpt>
      <trkpt lat="43.33682" lon="5.79011">
        <ele>954.1</ele>
        <time>2025-10-05T08:56:50Z</time>
      </trkpt>
      <trkpt lat="43.33681" lon="5.79011">
        <ele>954.2</ele>
        <time>2025-10-05T08:56:51Z</time>
      </trkpt>
      <trkpt lat="43.33681" lon="5.79011">
        <ele>954.4</ele>
        <time>2025-10-05T08:56:52Z</time>
      </trkpt>
      <trkpt lat="43.33681" lon="5.79011">
        <ele>954.4</ele>
        <time>2025-10-05T08:56:53Z</time>
      </trkpt>
      <trkpt lat="43.33681" lon="5.79011">
        <ele>954.4</ele>
        <time>2025-10-05T08:56:54Z</time>
      </trkpt>
      <trkpt lat="43.33681" lon="5.79011">
        <ele>954.5</ele>
        <time>2025-10-05T08:56:55Z</time>
      </trkpt>
      <trkpt lat="43.33681" lon="5.79011">
        <ele>954.7</ele>
        <time>2025-10-05T08:56:56Z</time>
      </trkpt>
      <trkpt lat="43.33681" lon="5.7901">
        <ele>954.7</ele>
        <time>2025-10-05T08:56:57Z</time>
      </trkpt>
      <trkpt lat="43.3368" lon="5.79011">
        <ele>954.8</ele>
        <time>2025-10-05T08:56:58Z</time>
      </trkpt>
      <trkpt lat="43.3368" lon="5.7901">
        <ele>954.8</ele>
        <time>2025-10-05T08:56:59Z</time>
      </trkpt>
      <trkpt lat="43.33679" lon="5.7901">
        <ele>955</ele>
        <time>2025-10-05T08:57:00Z</time>
      </trkpt>
      <trkpt lat="43.3368" lon="5.7901">
        <ele>955</ele>
        <time>2025-10-05T08:57:01Z</time>
      </trkpt>
      <trkpt lat="43.33679" lon="5.7901">
        <ele>955.2</ele>
        <time>2025-10-05T08:57:02Z</time>
      </trkpt>
      <trkpt lat="43.33679" lon="5.79011">
        <ele>955.4</ele>
        <time>2025-10-05T08:57:03Z</time>
      </trkpt>
      <trkpt lat="43.33679" lon="5.79011">
        <ele>955.7</ele>
        <time>2025-10-05T08:57:04Z</time>
      </trkpt>
      <trkpt lat="43.3368" lon="5.79011">
        <ele>955.8</ele>
        <time>2025-10-05T08:57:05Z</time>
      </trkpt>
      <trkpt lat="43.3368" lon="5.79011">
        <ele>955.9</ele>
        <time>2025-10-05T08:57:06Z</time>
      </trkpt>
      <trkpt lat="43.3368" lon="5.79011">
        <ele>955.8</ele>
        <time>2025-10-05T08:57:07Z</time>
      </trkpt>
      <trkpt lat="43.3368" lon="5.79012">
        <ele>955.8</ele>
        <time>2025-10-05T08:57:08Z</time>
      </trkpt>
      <trkpt lat="43.3368" lon="5.79011">
        <ele>956</ele>
        <time>2025-10-05T08:57:09Z</time>
      </trkpt>
      <trkpt lat="43.33679" lon="5.79011">
        <ele>956.2</ele>
        <time>2025-10-05T08:57:10Z</time>
      </trkpt>
      <trkpt lat="43.33679" lon="5.79011">
        <ele>956.4</ele>
        <time>2025-10-05T08:57:11Z</time>
      </trkpt>
      <trkpt lat="43.33679" lon="5.79011">
        <ele>956.7</ele>
        <time>2025-10-05T08:57:12Z</time>
      </trkpt>
      <trkpt lat="43.33678" lon="5.79011">
        <ele>957</ele>
        <time>2025-10-05T08:57:13Z</time>
      </trkpt>
      <trkpt lat="43.33678" lon="5.79011">
        <ele>957.2</ele>
        <time>2025-10-05T08:57:14Z</time>
      </trkpt>
      <trkpt lat="43.33678" lon="5.79011">
        <ele>957.4</ele>
        <time>2025-10-05T08:57:15Z</time>
      </trkpt>
      <trkpt lat="43.33678" lon="5.79011">
        <ele>957.5</ele>
        <time>2025-10-05T08:57:16Z</time>
      </trkpt>
      <trkpt lat="43.33678" lon="5.7901">
        <ele>957.5</ele>
        <time>2025-10-05T08:57:17Z</time>
      </trkpt>
      <trkpt lat="43.33678" lon="5.7901">
        <ele>957.6</ele>
        <time>2025-10-05T08:57:18Z</time>
      </trkpt>
      <trkpt lat="43.33677" lon="5.79009">
        <ele>957.7</ele>
        <time>2025-10-05T08:57:19Z</time>
      </trkpt>
      <trkpt lat="43.33677" lon="5.79009">
        <ele>957.7</ele>
        <time>2025-10-05T08:57:20Z</time>
      </trkpt>
      <trkpt lat="43.33677" lon="5.79009">
        <ele>957.7</ele>
        <time>2025-10-05T08:57:21Z</time>
      </trkpt>
      <trkpt lat="43.33676" lon="5.79009">
        <ele>957.7</ele>
        <time>2025-10-05T08:57:22Z</time>
      </trkpt>
      <trkpt lat="43.33676" lon="5.79009">
        <ele>957.7</ele>
        <time>2025-10-05T08:57:23Z</time>
      </trkpt>
      <trkpt lat="43.33676" lon="5.79009">
        <ele>957.7</ele>
        <time>2025-10-05T08:57:24Z</time>
      </trkpt>
      <trkpt lat="43.33676" lon="5.79009">
        <ele>957.8</ele>
        <time>2025-10-05T08:57:25Z</time>
      </trkpt>
      <trkpt lat="43.33675" lon="5.7901">
        <ele>957.8</ele>
        <time>2025-10-05T08:57:26Z</time>
      </trkpt>
      <trkpt lat="43.33675" lon="5.7901">
        <ele>957.7</ele>
        <time>2025-10-05T08:57:27Z</time>
      </trkpt>
      <trkpt lat="43.33676" lon="5.79009">
        <ele>957.7</ele>
        <time>2025-10-05T08:57:28Z</time>
      </trkpt>
      <trkpt lat="43.33676" lon="5.79009">
        <ele>957.8</ele>
        <time>2025-10-05T08:57:29Z</time>
      </trkpt>
      <trkpt lat="43.33676" lon="5.79009">
        <ele>957.8</ele>
        <time>2025-10-05T08:57:30Z</time>
      </trkpt>
      <trkpt lat="43.33676" lon="5.79009">
        <ele>957.8</ele>
        <time>2025-10-05T08:57:31Z</time>
      </trkpt>
      <trkpt lat="43.33675" lon="5.79009">
        <ele>957.8</ele>
        <time>2025-10-05T08:57:32Z</time>
      </trkpt>
      <trkpt lat="43.33676" lon="5.79009">
        <ele>957.8</ele>
        <time>2025-10-05T08:57:33Z</time>
      </trkpt>
      <trkpt lat="43.33675" lon="5.79009">
        <ele>957.9</ele>
        <time>2025-10-05T08:57:34Z</time>
      </trkpt>
      <trkpt lat="43.33675" lon="5.79009">
        <ele>957.9</ele>
        <time>2025-10-05T08:57:35Z</time>
      </trkpt>
      <trkpt lat="43.33675" lon="5.79009">
        <ele>958</ele>
        <time>2025-10-05T08:57:36Z</time>
      </trkpt>
      <trkpt lat="43.33676" lon="5.79009">
        <ele>958.1</ele>
        <time>2025-10-05T08:57:37Z</time>
      </trkpt>
      <trkpt lat="43.33676" lon="5.79008">
        <ele>958</ele>
        <time>2025-10-05T08:57:38Z</time>
      </trkpt>
      <trkpt lat="43.33676" lon="5.79008">
        <ele>957.8</ele>
        <time>2025-10-05T08:57:39Z</time>
      </trkpt>
      <trkpt lat="43.33676" lon="5.79007">
        <ele>957.5</ele>
        <time>2025-10-05T08:57:40Z</time>
      </trkpt>
      <trkpt lat="43.33676" lon="5.79007">
        <ele>957.1</ele>
        <time>2025-10-05T08:57:41Z</time>
      </trkpt>
      <trkpt lat="43.33676" lon="5.79007">
        <ele>956.7</ele>
        <time>2025-10-05T08:57:42Z</time>
      </trkpt>
      <trkpt lat="43.33676" lon="5.79006">
        <ele>956.4</ele>
        <time>2025-10-05T08:57:43Z</time>
      </trkpt>
      <trkpt lat="43.33676" lon="5.79006">
        <ele>956.1</ele>
        <time>2025-10-05T08:57:44Z</time>
      </trkpt>
      <trkpt lat="43.33676" lon="5.79005">
        <ele>956</ele>
        <time>2025-10-05T08:57:45Z</time>
      </trkpt>
      <trkpt lat="43.33676" lon="5.79005">
        <ele>955.7</ele>
        <time>2025-10-05T08:57:46Z</time>
      </trkpt>
      <trkpt lat="43.33674" lon="5.79004">
        <ele>955.7</ele>
        <time>2025-10-05T08:57:47Z</time>
      </trkpt>
      <trkpt lat="43.33674" lon="5.79004">
        <ele>955.5</ele>
        <time>2025-10-05T08:57:48Z</time>
      </trkpt>
      <trkpt lat="43.33673" lon="5.79003">
        <ele>955.4</ele>
        <time>2025-10-05T08:57:49Z</time>
      </trkpt>
      <trkpt lat="43.33674" lon="5.79002">
        <ele>955.3</ele>
        <time>2025-10-05T08:57:50Z</time>
      </trkpt>
      <trkpt lat="43.33674" lon="5.79002">
        <ele>955.2</ele>
        <time>2025-10-05T08:57:51Z</time>
      </trkpt>
      <trkpt lat="43.33675" lon="5.79002">
        <ele>955.2</ele>
        <time>2025-10-05T08:57:52Z</time>
      </trkpt>
      <trkpt lat="43.33674" lon="5.79002">
        <ele>955.2</ele>
        <time>2025-10-05T08:57:53Z</time>
      </trkpt>
      <trkpt lat="43.33673" lon="5.79001">
        <ele>955.1</ele>
        <time>2025-10-05T08:57:54Z</time>
      </trkpt>
      <trkpt lat="43.33673" lon="5.79001">
        <ele>955.1</ele>
        <time>2025-10-05T08:57:55Z</time>
      </trkpt>
      <trkpt lat="43.33673" lon="5.79001">
        <ele>955.1</ele>
        <time>2025-10-05T08:57:56Z</time>
      </trkpt>
      <trkpt lat="43.33673" lon="5.79001">
        <ele>955.1</ele>
        <time>2025-10-05T08:57:57Z</time>
      </trkpt>
      <trkpt lat="43.33672" lon="5.79002">
        <ele>955</ele>
        <time>2025-10-05T08:57:58Z</time>
      </trkpt>
      <trkpt lat="43.33672" lon="5.79001">
        <ele>954.9</ele>
        <time>2025-10-05T08:57:59Z</time>
      </trkpt>
      <trkpt lat="43.33672" lon="5.79001">
        <ele>954.8</ele>
        <time>2025-10-05T08:58:00Z</time>
      </trkpt>
      <trkpt lat="43.33672" lon="5.79001">
        <ele>954.7</ele>
        <time>2025-10-05T08:58:01Z</time>
      </trkpt>
      <trkpt lat="43.33672" lon="5.79001">
        <ele>954.6</ele>
        <time>2025-10-05T08:58:02Z</time>
      </trkpt>
      <trkpt lat="43.33672" lon="5.79002">
        <ele>954.6</ele>
        <time>2025-10-05T08:58:03Z</time>
      </trkpt>
      <trkpt lat="43.33672" lon="5.79002">
        <ele>954.5</ele>
        <time>2025-10-05T08:58:04Z</time>
      </trkpt>
      <trkpt lat="43.33672" lon="5.79001">
        <ele>954.6</ele>
        <time>2025-10-05T08:58:05Z</time>
      </trkpt>
      <trkpt lat="43.33672" lon="5.79">
        <ele>954.5</ele>
        <time>2025-10-05T08:58:06Z</time>
      </trkpt>
      <trkpt lat="43.33672" lon="5.79">
        <ele>954.5</ele>
        <time>2025-10-05T08:58:07Z</time>
      </trkpt>
      <trkpt lat="43.33672" lon="5.78999">
        <ele>954.5</ele>
        <time>2025-10-05T08:58:08Z</time>
      </trkpt>
      <trkpt lat="43.33672" lon="5.78999">
        <ele>954.5</ele>
        <time>2025-10-05T08:58:09Z</time>
      </trkpt>
      <trkpt lat="43.33672" lon="5.78999">
        <ele>954.5</ele>
        <time>2025-10-05T08:58:10Z</time>
      </trkpt>
      <trkpt lat="43.33671" lon="5.78999">
        <ele>954.4</ele>
        <time>2025-10-05T08:58:11Z</time>
      </trkpt>
      <trkpt lat="43.33671" lon="5.78999">
        <ele>954.3</ele>
        <time>2025-10-05T08:58:12Z</time>
      </trkpt>
      <trkpt lat="43.33671" lon="5.78998">
        <ele>954.2</ele>
        <time>2025-10-05T08:58:13Z</time>
      </trkpt>
      <trkpt lat="43.33671" lon="5.78998">
        <ele>954.2</ele>
        <time>2025-10-05T08:58:14Z</time>
      </trkpt>
      <trkpt lat="43.33671" lon="5.78997">
        <ele>954.2</ele>
        <time>2025-10-05T08:58:15Z</time>
      </trkpt>
      <trkpt lat="43.3367" lon="5.78996">
        <ele>954.2</ele>
        <time>2025-10-05T08:58:16Z</time>
      </trkpt>
      <trkpt lat="43.3367" lon="5.78995">
        <ele>954.2</ele>
        <time>2025-10-05T08:58:17Z</time>
      </trkpt>
      <trkpt lat="43.3367" lon="5.78994">
        <ele>954.2</ele>
        <time>2025-10-05T08:58:18Z</time>
      </trkpt>
      <trkpt lat="43.33669" lon="5.78994">
        <ele>954.2</ele>
        <time>2025-10-05T08:58:19Z</time>
      </trkpt>
      <trkpt lat="43.33671" lon="5.78994">
        <ele>954.2</ele>
        <time>2025-10-05T08:58:20Z</time>
      </trkpt>
      <trkpt lat="43.33672" lon="5.78994">
        <ele>954.2</ele>
        <time>2025-10-05T08:58:21Z</time>
      </trkpt>
      <trkpt lat="43.33672" lon="5.78994">
        <ele>954.1</ele>
        <time>2025-10-05T08:58:22Z</time>
      </trkpt>
      <trkpt lat="43.33672" lon="5.78994">
        <ele>954.1</ele>
        <time>2025-10-05T08:58:23Z</time>
      </trkpt>
      <trkpt lat="43.33671" lon="5.78994">
        <ele>954</ele>
        <time>2025-10-05T08:58:24Z</time>
      </trkpt>
      <trkpt lat="43.33671" lon="5.78994">
        <ele>954</ele>
        <time>2025-10-05T08:58:25Z</time>
      </trkpt>
      <trkpt lat="43.33671" lon="5.78994">
        <ele>954</ele>
        <time>2025-10-05T08:58:26Z</time>
      </trkpt>
      <trkpt lat="43.3367" lon="5.78994">
        <ele>954</ele>
        <time>2025-10-05T08:58:27Z</time>
      </trkpt>
      <trkpt lat="43.3367" lon="5.78994">
        <ele>953.9</ele>
        <time>2025-10-05T08:58:28Z</time>
      </trkpt>
      <trkpt lat="43.3367" lon="5.78994">
        <ele>953.8</ele>
        <time>2025-10-05T08:58:29Z</time>
      </trkpt>
      <trkpt lat="43.3367" lon="5.78994">
        <ele>953.7</ele>
        <time>2025-10-05T08:58:30Z</time>
      </trkpt>
      <trkpt lat="43.3367" lon="5.78994">
        <ele>953.6</ele>
        <time>2025-10-05T08:58:31Z</time>
      </trkpt>
      <trkpt lat="43.3367" lon="5.78993">
        <ele>953.5</ele>
        <time>2025-10-05T08:58:32Z</time>
      </trkpt>
      <trkpt lat="43.33671" lon="5.78993">
        <ele>953.6</ele>
        <time>2025-10-05T08:58:33Z</time>
      </trkpt>
      <trkpt lat="43.33671" lon="5.78992">
        <ele>953.6</ele>
        <time>2025-10-05T08:58:34Z</time>
      </trkpt>
      <trkpt lat="43.33671" lon="5.78991">
        <ele>953.7</ele>
        <time>2025-10-05T08:58:35Z</time>
      </trkpt>
      <trkpt lat="43.33672" lon="5.7899">
        <ele>953.7</ele>
        <time>2025-10-05T08:58:36Z</time>
      </trkpt>
      <trkpt lat="43.33672" lon="5.78988">
        <ele>953.7</ele>
        <time>2025-10-05T08:58:37Z</time>
      </trkpt>
      <trkpt lat="43.33671" lon="5.78987">
        <ele>953.7</ele>
        <time>2025-10-05T08:58:38Z</time>
      </trkpt>
      <trkpt lat="43.33671" lon="5.78985">
        <ele>953.9</ele>
        <time>2025-10-05T08:58:39Z</time>
      </trkpt>
      <trkpt lat="43.33671" lon="5.78984">
        <ele>954.1</ele>
        <time>2025-10-05T08:58:40Z</time>
      </trkpt>
      <trkpt lat="43.3367" lon="5.78983">
        <ele>954.3</ele>
        <time>2025-10-05T08:58:41Z</time>
      </trkpt>
      <trkpt lat="43.33669" lon="5.78983">
        <ele>954.3</ele>
        <time>2025-10-05T08:58:42Z</time>
      </trkpt>
      <trkpt lat="43.3367" lon="5.78982">
        <ele>954.5</ele>
        <time>2025-10-05T08:58:43Z</time>
      </trkpt>
      <trkpt lat="43.33669" lon="5.78982">
        <ele>954.8</ele>
        <time>2025-10-05T08:58:44Z</time>
      </trkpt>
      <trkpt lat="43.33669" lon="5.78981">
        <ele>954.9</ele>
        <time>2025-10-05T08:58:45Z</time>
      </trkpt>
      <trkpt lat="43.3367" lon="5.7898">
        <ele>955.1</ele>
        <time>2025-10-05T08:58:46Z</time>
      </trkpt>
      <trkpt lat="43.3367" lon="5.7898">
        <ele>955.2</ele>
        <time>2025-10-05T08:58:47Z</time>
      </trkpt>
      <trkpt lat="43.3367" lon="5.78979">
        <ele>955.3</ele>
        <time>2025-10-05T08:58:48Z</time>
      </trkpt>
      <trkpt lat="43.3367" lon="5.78979">
        <ele>955.3</ele>
        <time>2025-10-05T08:58:49Z</time>
      </trkpt>
      <trkpt lat="43.33669" lon="5.78978">
        <ele>955.4</ele>
        <time>2025-10-05T08:58:50Z</time>
      </trkpt>
      <trkpt lat="43.33669" lon="5.78978">
        <ele>955.3</ele>
        <time>2025-10-05T08:58:51Z</time>
      </trkpt>
      <trkpt lat="43.33669" lon="5.78977">
        <ele>955.3</ele>
        <time>2025-10-05T08:58:52Z</time>
      </trkpt>
      <trkpt lat="43.33669" lon="5.78976">
        <ele>955.2</ele>
        <time>2025-10-05T08:58:53Z</time>
      </trkpt>
      <trkpt lat="43.33669" lon="5.78975">
        <ele>955.1</ele>
        <time>2025-10-05T08:58:54Z</time>
      </trkpt>
      <trkpt lat="43.33669" lon="5.78974">
        <ele>955</ele>
        <time>2025-10-05T08:58:55Z</time>
      </trkpt>
      <trkpt lat="43.33669" lon="5.78973">
        <ele>954.9</ele>
        <time>2025-10-05T08:58:56Z</time>
      </trkpt>
      <trkpt lat="43.33669" lon="5.78972">
        <ele>954.8</ele>
        <time>2025-10-05T08:58:57Z</time>
      </trkpt>
      <trkpt lat="43.33668" lon="5.78971">
        <ele>954.7</ele>
        <time>2025-10-05T08:58:58Z</time>
      </trkpt>
      <trkpt lat="43.33668" lon="5.7897">
        <ele>954.8</ele>
        <time>2025-10-05T08:58:59Z</time>
      </trkpt>
      <trkpt lat="43.33667" lon="5.7897">
        <ele>954.9</ele>
        <time>2025-10-05T08:59:00Z</time>
      </trkpt>
      <trkpt lat="43.33668" lon="5.78969">
        <ele>954.8</ele>
        <time>2025-10-05T08:59:01Z</time>
      </trkpt>
      <trkpt lat="43.33667" lon="5.78969">
        <ele>954.7</ele>
        <time>2025-10-05T08:59:02Z</time>
      </trkpt>
      <trkpt lat="43.33667" lon="5.78968">
        <ele>954.8</ele>
        <time>2025-10-05T08:59:03Z</time>
      </trkpt>
      <trkpt lat="43.33666" lon="5.78968">
        <ele>954.8</ele>
        <time>2025-10-05T08:59:04Z</time>
      </trkpt>
      <trkpt lat="43.33666" lon="5.78967">
        <ele>954.9</ele>
        <time>2025-10-05T08:59:05Z</time>
      </trkpt>
      <trkpt lat="43.33664" lon="5.78967">
        <ele>954.9</ele>
        <time>2025-10-05T08:59:06Z</time>
      </trkpt>
      <trkpt lat="43.33664" lon="5.78966">
        <ele>954.9</ele>
        <time>2025-10-05T08:59:07Z</time>
      </trkpt>
      <trkpt lat="43.33664" lon="5.78965">
        <ele>954.9</ele>
        <time>2025-10-05T08:59:08Z</time>
      </trkpt>
      <trkpt lat="43.33663" lon="5.78965">
        <ele>954.9</ele>
        <time>2025-10-05T08:59:09Z</time>
      </trkpt>
      <trkpt lat="43.33663" lon="5.78964">
        <ele>955</ele>
        <time>2025-10-05T08:59:10Z</time>
      </trkpt>
      <trkpt lat="43.33663" lon="5.78963">
        <ele>955.2</ele>
        <time>2025-10-05T08:59:11Z</time>
      </trkpt>
      <trkpt lat="43.33662" lon="5.78962">
        <ele>955.2</ele>
        <time>2025-10-05T08:59:12Z</time>
      </trkpt>
      <trkpt lat="43.33661" lon="5.78962">
        <ele>955.3</ele>
        <time>2025-10-05T08:59:13Z</time>
      </trkpt>
      <trkpt lat="43.3366" lon="5.78961">
        <ele>955.3</ele>
        <time>2025-10-05T08:59:14Z</time>
      </trkpt>
      <trkpt lat="43.33659" lon="5.78961">
        <ele>955.4</ele>
        <time>2025-10-05T08:59:15Z</time>
      </trkpt>
      <trkpt lat="43.33658" lon="5.78961">
        <ele>955.5</ele>
        <time>2025-10-05T08:59:16Z</time>
      </trkpt>
      <trkpt lat="43.33657" lon="5.78961">
        <ele>955.6</ele>
        <time>2025-10-05T08:59:17Z</time>
      </trkpt>
      <trkpt lat="43.33657" lon="5.7896">
        <ele>955.7</ele>
        <time>2025-10-05T08:59:18Z</time>
      </trkpt>
      <trkpt lat="43.33657" lon="5.7896">
        <ele>956</ele>
        <time>2025-10-05T08:59:19Z</time>
      </trkpt>
      <trkpt lat="43.33655" lon="5.7896">
        <ele>956.2</ele>
        <time>2025-10-05T08:59:20Z</time>
      </trkpt>
      <trkpt lat="43.33655" lon="5.7896">
        <ele>956.2</ele>
        <time>2025-10-05T08:59:21Z</time>
      </trkpt>
      <trkpt lat="43.33654" lon="5.7896">
        <ele>956.3</ele>
        <time>2025-10-05T08:59:22Z</time>
      </trkpt>
      <trkpt lat="43.33654" lon="5.78959">
        <ele>956.3</ele>
        <time>2025-10-05T08:59:23Z</time>
      </trkpt>
      <trkpt lat="43.33654" lon="5.78959">
        <ele>956.3</ele>
        <time>2025-10-05T08:59:24Z</time>
      </trkpt>
      <trkpt lat="43.33654" lon="5.78959">
        <ele>956.5</ele>
        <time>2025-10-05T08:59:25Z</time>
      </trkpt>
      <trkpt lat="43.33652" lon="5.7896">
        <ele>956.6</ele>
        <time>2025-10-05T08:59:26Z</time>
      </trkpt>
      <trkpt lat="43.33652" lon="5.78959">
        <ele>956.6</ele>
        <time>2025-10-05T08:59:27Z</time>
      </trkpt>
      <trkpt lat="43.33652" lon="5.78959">
        <ele>956.7</ele>
        <time>2025-10-05T08:59:28Z</time>
      </trkpt>
      <trkpt lat="43.33651" lon="5.78959">
        <ele>956.7</ele>
        <time>2025-10-05T08:59:29Z</time>
      </trkpt>
      <trkpt lat="43.3365" lon="5.78958">
        <ele>956.7</ele>
        <time>2025-10-05T08:59:30Z</time>
      </trkpt>
      <trkpt lat="43.33649" lon="5.78958">
        <ele>956.7</ele>
        <time>2025-10-05T08:59:31Z</time>
      </trkpt>
      <trkpt lat="43.33648" lon="5.78958">
        <ele>956.7</ele>
        <time>2025-10-05T08:59:32Z</time>
      </trkpt>
      <trkpt lat="43.33647" lon="5.78958">
        <ele>956.6</ele>
        <time>2025-10-05T08:59:33Z</time>
      </trkpt>
      <trkpt lat="43.33647" lon="5.78959">
        <ele>956.7</ele>
        <time>2025-10-05T08:59:34Z</time>
      </trkpt>
      <trkpt lat="43.33646" lon="5.78959">
        <ele>956.7</ele>
        <time>2025-10-05T08:59:35Z</time>
      </trkpt>
      <trkpt lat="43.33645" lon="5.78959">
        <ele>956.8</ele>
        <time>2025-10-05T08:59:36Z</time>
      </trkpt>
      <trkpt lat="43.33644" lon="5.7896">
        <ele>956.9</ele>
        <time>2025-10-05T08:59:37Z</time>
      </trkpt>
      <trkpt lat="43.33643" lon="5.78959">
        <ele>956.9</ele>
        <time>2025-10-05T08:59:38Z</time>
      </trkpt>
      <trkpt lat="43.33643" lon="5.78959">
        <ele>957</ele>
        <time>2025-10-05T08:59:39Z</time>
      </trkpt>
      <trkpt lat="43.33642" lon="5.7896">
        <ele>956.9</ele>
        <time>2025-10-05T08:59:40Z</time>
      </trkpt>
      <trkpt lat="43.33641" lon="5.7896">
        <ele>956.8</ele>
        <time>2025-10-05T08:59:41Z</time>
      </trkpt>
      <trkpt lat="43.33641" lon="5.7896">
        <ele>956.7</ele>
        <time>2025-10-05T08:59:42Z</time>
      </trkpt>
      <trkpt lat="43.33641" lon="5.7896">
        <ele>956.6</ele>
        <time>2025-10-05T08:59:43Z</time>
      </trkpt>
      <trkpt lat="43.33642" lon="5.78959">
        <ele>956.5</ele>
        <time>2025-10-05T08:59:44Z</time>
      </trkpt>
      <trkpt lat="43.33642" lon="5.78959">
        <ele>956.5</ele>
        <time>2025-10-05T08:59:45Z</time>
      </trkpt>
      <trkpt lat="43.33642" lon="5.78959">
        <ele>956.5</ele>
        <time>2025-10-05T08:59:46Z</time>
      </trkpt>
      <trkpt lat="43.33642" lon="5.78958">
        <ele>956.6</ele>
        <time>2025-10-05T08:59:47Z</time>
      </trkpt>
      <trkpt lat="43.33642" lon="5.78959">
        <ele>956.5</ele>
        <time>2025-10-05T08:59:48Z</time>
      </trkpt>
      <trkpt lat="43.33642" lon="5.78959">
        <ele>956.4</ele>
        <time>2025-10-05T08:59:49Z</time>
      </trkpt>
      <trkpt lat="43.33642" lon="5.78958">
        <ele>956.4</ele>
        <time>2025-10-05T08:59:50Z</time>
      </trkpt>
      <trkpt lat="43.33643" lon="5.78958">
        <ele>956.3</ele>
        <time>2025-10-05T08:59:51Z</time>
      </trkpt>
      <trkpt lat="43.33643" lon="5.78958">
        <ele>956.1</ele>
        <time>2025-10-05T08:59:52Z</time>
      </trkpt>
      <trkpt lat="43.33644" lon="5.78957">
        <ele>956.1</ele>
        <time>2025-10-05T08:59:53Z</time>
      </trkpt>
      <trkpt lat="43.33645" lon="5.78957">
        <ele>956.1</ele>
        <time>2025-10-05T08:59:54Z</time>
      </trkpt>
      <trkpt lat="43.33646" lon="5.78957">
        <ele>956</ele>
        <time>2025-10-05T08:59:55Z</time>
      </trkpt>
      <trkpt lat="43.33647" lon="5.78956">
        <ele>956</ele>
        <time>2025-10-05T08:59:56Z</time>
      </trkpt>
      <trkpt lat="43.33648" lon="5.78956">
        <ele>955.7</ele>
        <time>2025-10-05T08:59:57Z</time>
      </trkpt>
      <trkpt lat="43.33649" lon="5.78956">
        <ele>955.5</ele>
        <time>2025-10-05T08:59:58Z</time>
      </trkpt>
      <trkpt lat="43.33649" lon="5.78956">
        <ele>955.5</ele>
        <time>2025-10-05T08:59:59Z</time>
      </trkpt>
      <trkpt lat="43.33651" lon="5.78955">
        <ele>955.4</ele>
        <time>2025-10-05T09:00:00Z</time>
      </trkpt>
      <trkpt lat="43.33653" lon="5.78955">
        <ele>955.3</ele>
        <time>2025-10-05T09:00:01Z</time>
      </trkpt>
      <trkpt lat="43.33654" lon="5.78955">
        <ele>955.2</ele>
        <time>2025-10-05T09:00:02Z</time>
      </trkpt>
      <trkpt lat="43.33655" lon="5.78955">
        <ele>955.1</ele>
        <time>2025-10-05T09:00:03Z</time>
      </trkpt>
      <trkpt lat="43.33656" lon="5.78954">
        <ele>955.1</ele>
        <time>2025-10-05T09:00:04Z</time>
      </trkpt>
      <trkpt lat="43.33657" lon="5.78954">
        <ele>955.1</ele>
        <time>2025-10-05T09:00:05Z</time>
      </trkpt>
      <trkpt lat="43.33657" lon="5.78954">
        <ele>955</ele>
        <time>2025-10-05T09:00:06Z</time>
      </trkpt>
      <trkpt lat="43.33658" lon="5.78954">
        <ele>954.9</ele>
        <time>2025-10-05T09:00:07Z</time>
      </trkpt>
      <trkpt lat="43.3366" lon="5.78954">
        <ele>954.8</ele>
        <time>2025-10-05T09:00:08Z</time>
      </trkpt>
      <trkpt lat="43.3366" lon="5.78954">
        <ele>954.8</ele>
        <time>2025-10-05T09:00:09Z</time>
      </trkpt>
      <trkpt lat="43.33661" lon="5.78953">
        <ele>954.9</ele>
        <time>2025-10-05T09:00:10Z</time>
      </trkpt>
      <trkpt lat="43.33661" lon="5.78953">
        <ele>955</ele>
        <time>2025-10-05T09:00:11Z</time>
      </trkpt>
      <trkpt lat="43.33661" lon="5.78953">
        <ele>955.1</ele>
        <time>2025-10-05T09:00:12Z</time>
      </trkpt>
      <trkpt lat="43.33661" lon="5.78953">
        <ele>955.1</ele>
        <time>2025-10-05T09:00:13Z</time>
      </trkpt>
      <trkpt lat="43.33661" lon="5.78953">
        <ele>955.1</ele>
        <time>2025-10-05T09:00:14Z</time>
      </trkpt>
      <trkpt lat="43.33661" lon="5.78953">
        <ele>955.1</ele>
        <time>2025-10-05T09:00:15Z</time>
      </trkpt>
      <trkpt lat="43.33661" lon="5.78954">
        <ele>955.2</ele>
        <time>2025-10-05T09:00:16Z</time>
      </trkpt>
      <trkpt lat="43.3366" lon="5.78953">
        <ele>955.2</ele>
        <time>2025-10-05T09:00:17Z</time>
      </trkpt>
      <trkpt lat="43.3366" lon="5.78953">
        <ele>955.3</ele>
        <time>2025-10-05T09:00:18Z</time>
      </trkpt>
      <trkpt lat="43.33661" lon="5.78953">
        <ele>955.3</ele>
        <time>2025-10-05T09:00:19Z</time>
      </trkpt>
      <trkpt lat="43.33661" lon="5.78953">
        <ele>955.4</ele>
        <time>2025-10-05T09:00:20Z</time>
      </trkpt>
      <trkpt lat="43.33661" lon="5.78953">
        <ele>955.4</ele>
        <time>2025-10-05T09:00:21Z</time>
      </trkpt>
      <trkpt lat="43.33661" lon="5.78953">
        <ele>955.5</ele>
        <time>2025-10-05T09:00:22Z</time>
      </trkpt>
      <trkpt lat="43.33661" lon="5.78953">
        <ele>955.4</ele>
        <time>2025-10-05T09:00:23Z</time>
      </trkpt>
      <trkpt lat="43.3366" lon="5.78953">
        <ele>955.3</ele>
        <time>2025-10-05T09:00:24Z</time>
      </trkpt>
      <trkpt lat="43.3366" lon="5.78953">
        <ele>955.2</ele>
        <time>2025-10-05T09:00:25Z</time>
      </trkpt>
      <trkpt lat="43.33661" lon="5.78952">
        <ele>955.1</ele>
        <time>2025-10-05T09:00:26Z</time>
      </trkpt>
      <trkpt lat="43.3366" lon="5.78952">
        <ele>954.9</ele>
        <time>2025-10-05T09:00:27Z</time>
      </trkpt>
      <trkpt lat="43.3366" lon="5.78952">
        <ele>954.9</ele>
        <time>2025-10-05T09:00:28Z</time>
      </trkpt>
      <trkpt lat="43.3366" lon="5.78952">
        <ele>954.8</ele>
        <time>2025-10-05T09:00:29Z</time>
      </trkpt>
      <trkpt lat="43.33659" lon="5.78953">
        <ele>954.6</ele>
        <time>2025-10-05T09:00:30Z</time>
      </trkpt>
      <trkpt lat="43.33659" lon="5.78953">
        <ele>954.6</ele>
        <time>2025-10-05T09:00:31Z</time>
      </trkpt>
      <trkpt lat="43.33659" lon="5.78952">
        <ele>954.6</ele>
        <time>2025-10-05T09:00:32Z</time>
      </trkpt>
      <trkpt lat="43.33659" lon="5.78953">
        <ele>954.5</ele>
        <time>2025-10-05T09:00:33Z</time>
      </trkpt>
      <trkpt lat="43.33659" lon="5.78952">
        <ele>954.5</ele>
        <time>2025-10-05T09:00:34Z</time>
      </trkpt>
      <trkpt lat="43.33659" lon="5.78952">
        <ele>954.5</ele>
        <time>2025-10-05T09:00:35Z</time>
      </trkpt>
      <trkpt lat="43.33659" lon="5.78952">
        <ele>954.5</ele>
        <time>2025-10-05T09:00:36Z</time>
      </trkpt>
      <trkpt lat="43.33659" lon="5.78952">
        <ele>954.5</ele>
        <time>2025-10-05T09:00:37Z</time>
      </trkpt>
      <trkpt lat="43.33658" lon="5.78952">
        <ele>954.6</ele>
        <time>2025-10-05T09:00:38Z</time>
      </trkpt>
      <trkpt lat="43.33658" lon="5.78952">
        <ele>954.6</ele>
        <time>2025-10-05T09:00:39Z</time>
      </trkpt>
      <trkpt lat="43.33658" lon="5.78952">
        <ele>954.6</ele>
        <time>2025-10-05T09:00:40Z</time>
      </trkpt>
      <trkpt lat="43.33658" lon="5.78952">
        <ele>954.5</ele>
        <time>2025-10-05T09:00:41Z</time>
      </trkpt>
      <trkpt lat="43.33658" lon="5.78952">
        <ele>954.6</ele>
        <time>2025-10-05T09:00:42Z</time>
      </trkpt>
      <trkpt lat="43.33657" lon="5.78953">
        <ele>954.6</ele>
        <time>2025-10-05T09:00:43Z</time>
      </trkpt>
      <trkpt lat="43.33657" lon="5.78953">
        <ele>954.6</ele>
        <time>2025-10-05T09:00:44Z</time>
      </trkpt>
      <trkpt lat="43.33655" lon="5.78953">
        <ele>954.7</ele>
        <time>2025-10-05T09:00:45Z</time>
      </trkpt>
      <trkpt lat="43.33655" lon="5.78953">
        <ele>954.7</ele>
        <time>2025-10-05T09:00:46Z</time>
      </trkpt>
      <trkpt lat="43.33654" lon="5.78953">
        <ele>954.7</ele>
        <time>2025-10-05T09:00:47Z</time>
      </trkpt>
      <trkpt lat="43.33653" lon="5.78953">
        <ele>954.7</ele>
        <time>2025-10-05T09:00:48Z</time>
      </trkpt>
      <trkpt lat="43.33652" lon="5.78953">
        <ele>954.7</ele>
        <time>2025-10-05T09:00:49Z</time>
      </trkpt>
      <trkpt lat="43.33652" lon="5.78953">
        <ele>954.7</ele>
        <time>2025-10-05T09:00:50Z</time>
      </trkpt>
      <trkpt lat="43.33651" lon="5.78953">
        <ele>954.7</ele>
        <time>2025-10-05T09:00:51Z</time>
      </trkpt>
      <trkpt lat="43.33651" lon="5.78953">
        <ele>954.8</ele>
        <time>2025-10-05T09:00:52Z</time>
      </trkpt>
      <trkpt lat="43.33651" lon="5.78953">
        <ele>954.8</ele>
        <time>2025-10-05T09:00:53Z</time>
      </trkpt>
      <trkpt lat="43.33651" lon="5.78953">
        <ele>954.9</ele>
        <time>2025-10-05T09:00:54Z</time>
      </trkpt>
      <trkpt lat="43.33651" lon="5.78953">
        <ele>954.9</ele>
        <time>2025-10-05T09:00:55Z</time>
      </trkpt>
      <trkpt lat="43.3365" lon="5.78954">
        <ele>955</ele>
        <time>2025-10-05T09:00:56Z</time>
      </trkpt>
      <trkpt lat="43.33651" lon="5.78954">
        <ele>955.1</ele>
        <time>2025-10-05T09:00:57Z</time>
      </trkpt>
      <trkpt lat="43.3365" lon="5.78954">
        <ele>955.1</ele>
        <time>2025-10-05T09:00:58Z</time>
      </trkpt>
      <trkpt lat="43.33649" lon="5.78954">
        <ele>955.1</ele>
        <time>2025-10-05T09:00:59Z</time>
      </trkpt>
      <trkpt lat="43.33649" lon="5.78953">
        <ele>955.1</ele>
        <time>2025-10-05T09:01:00Z</time>
      </trkpt>
      <trkpt lat="43.33649" lon="5.78953">
        <ele>955.2</ele>
        <time>2025-10-05T09:01:01Z</time>
      </trkpt>
      <trkpt lat="43.3365" lon="5.78953">
        <ele>955.2</ele>
        <time>2025-10-05T09:01:02Z</time>
      </trkpt>
      <trkpt lat="43.3365" lon="5.78952">
        <ele>955.1</ele>
        <time>2025-10-05T09:01:03Z</time>
      </trkpt>
      <trkpt lat="43.3365" lon="5.78952">
        <ele>954.9</ele>
        <time>2025-10-05T09:01:04Z</time>
      </trkpt>
      <trkpt lat="43.3365" lon="5.78952">
        <ele>954.8</ele>
        <time>2025-10-05T09:01:05Z</time>
      </trkpt>
      <trkpt lat="43.3365" lon="5.78952">
        <ele>954.8</ele>
        <time>2025-10-05T09:01:06Z</time>
      </trkpt>
      <trkpt lat="43.33651" lon="5.78952">
        <ele>954.6</ele>
        <time>2025-10-05T09:01:07Z</time>
      </trkpt>
      <trkpt lat="43.33651" lon="5.78952">
        <ele>954.5</ele>
        <time>2025-10-05T09:01:08Z</time>
      </trkpt>
      <trkpt lat="43.33652" lon="5.78951">
        <ele>954.6</ele>
        <time>2025-10-05T09:01:09Z</time>
      </trkpt>
      <trkpt lat="43.33652" lon="5.78952">
        <ele>954.6</ele>
        <time>2025-10-05T09:01:10Z</time>
      </trkpt>
      <trkpt lat="43.33651" lon="5.78952">
        <ele>954.6</ele>
        <time>2025-10-05T09:01:11Z</time>
      </trkpt>
      <trkpt lat="43.33652" lon="5.78953">
        <ele>954.6</ele>
        <time>2025-10-05T09:01:12Z</time>
      </trkpt>
      <trkpt lat="43.33651" lon="5.78953">
        <ele>954.7</ele>
        <time>2025-10-05T09:01:13Z</time>
      </trkpt>
      <trkpt lat="43.33651" lon="5.78953">
        <ele>954.8</ele>
        <time>2025-10-05T09:01:14Z</time>
      </trkpt>
      <trkpt lat="43.33652" lon="5.78953">
        <ele>955</ele>
        <time>2025-10-05T09:01:15Z</time>
      </trkpt>
      <trkpt lat="43.33651" lon="5.78953">
        <ele>955.2</ele>
        <time>2025-10-05T09:01:16Z</time>
      </trkpt>
      <trkpt lat="43.33652" lon="5.78953">
        <ele>955.4</ele>
        <time>2025-10-05T09:01:17Z</time>
      </trkpt>
      <trkpt lat="43.33652" lon="5.78954">
        <ele>955.6</ele>
        <time>2025-10-05T09:01:18Z</time>
      </trkpt>
      <trkpt lat="43.33652" lon="5.78953">
        <ele>955.9</ele>
        <time>2025-10-05T09:01:19Z</time>
      </trkpt>
      <trkpt lat="43.33652" lon="5.78953">
        <ele>956.1</ele>
        <time>2025-10-05T09:01:20Z</time>
      </trkpt>
      <trkpt lat="43.33652" lon="5.78954">
        <ele>956</ele>
        <time>2025-10-05T09:01:21Z</time>
      </trkpt>
      <trkpt lat="43.33652" lon="5.78954">
        <ele>955.9</ele>
        <time>2025-10-05T09:01:22Z</time>
      </trkpt>
      <trkpt lat="43.33652" lon="5.78954">
        <ele>956</ele>
        <time>2025-10-05T09:01:23Z</time>
      </trkpt>
      <trkpt lat="43.33653" lon="5.78954">
        <ele>956</ele>
        <time>2025-10-05T09:01:24Z</time>
      </trkpt>
      <trkpt lat="43.33653" lon="5.78954">
        <ele>956</ele>
        <time>2025-10-05T09:01:25Z</time>
      </trkpt>
      <trkpt lat="43.33653" lon="5.78954">
        <ele>955.9</ele>
        <time>2025-10-05T09:01:26Z</time>
      </trkpt>
      <trkpt lat="43.33652" lon="5.78955">
        <ele>956</ele>
        <time>2025-10-05T09:01:27Z</time>
      </trkpt>
      <trkpt lat="43.33653" lon="5.78954">
        <ele>956</ele>
        <time>2025-10-05T09:01:28Z</time>
      </trkpt>
      <trkpt lat="43.33653" lon="5.78954">
        <ele>955.8</ele>
        <time>2025-10-05T09:01:29Z</time>
      </trkpt>
      <trkpt lat="43.33653" lon="5.78954">
        <ele>955.8</ele>
        <time>2025-10-05T09:01:30Z</time>
      </trkpt>
      <trkpt lat="43.33652" lon="5.78954">
        <ele>955.8</ele>
        <time>2025-10-05T09:01:31Z</time>
      </trkpt>
      <trkpt lat="43.33653" lon="5.78954">
        <ele>955.8</ele>
        <time>2025-10-05T09:01:32Z</time>
      </trkpt>
      <trkpt lat="43.33653" lon="5.78953">
        <ele>955.8</ele>
        <time>2025-10-05T09:01:33Z</time>
      </trkpt>
      <trkpt lat="43.33653" lon="5.78953">
        <ele>955.6</ele>
        <time>2025-10-05T09:01:34Z</time>
      </trkpt>
      <trkpt lat="43.33653" lon="5.78954">
        <ele>955.5</ele>
        <time>2025-10-05T09:01:35Z</time>
      </trkpt>
      <trkpt lat="43.33654" lon="5.78954">
        <ele>955.4</ele>
        <time>2025-10-05T09:01:36Z</time>
      </trkpt>
      <trkpt lat="43.33654" lon="5.78954">
        <ele>955.4</ele>
        <time>2025-10-05T09:01:37Z</time>
      </trkpt>
      <trkpt lat="43.33654" lon="5.78955">
        <ele>955.5</ele>
        <time>2025-10-05T09:01:38Z</time>
      </trkpt>
      <trkpt lat="43.33654" lon="5.78954">
        <ele>955.6</ele>
        <time>2025-10-05T09:01:39Z</time>
      </trkpt>
      <trkpt lat="43.33654" lon="5.78955">
        <ele>955.7</ele>
        <time>2025-10-05T09:01:40Z</time>
      </trkpt>
      <trkpt lat="43.33654" lon="5.78955">
        <ele>955.7</ele>
        <time>2025-10-05T09:01:41Z</time>
      </trkpt>
      <trkpt lat="43.33654" lon="5.78955">
        <ele>955.6</ele>
        <time>2025-10-05T09:01:42Z</time>
      </trkpt>
      <trkpt lat="43.33654" lon="5.78955">
        <ele>955.7</ele>
        <time>2025-10-05T09:01:43Z</time>
      </trkpt>
      <trkpt lat="43.33654" lon="5.78955">
        <ele>955.8</ele>
        <time>2025-10-05T09:01:44Z</time>
      </trkpt>
      <trkpt lat="43.33654" lon="5.78955">
        <ele>955.7</ele>
        <time>2025-10-05T09:01:45Z</time>
      </trkpt>
      <trkpt lat="43.33654" lon="5.78955">
        <ele>955.7</ele>
        <time>2025-10-05T09:01:46Z</time>
      </trkpt>
      <trkpt lat="43.33654" lon="5.78955">
        <ele>955.8</ele>
        <time>2025-10-05T09:01:47Z</time>
      </trkpt>
      <trkpt lat="43.33654" lon="5.78955">
        <ele>955.9</ele>
        <time>2025-10-05T09:01:48Z</time>
      </trkpt>
      <trkpt lat="43.33654" lon="5.78955">
        <ele>955.9</ele>
        <time>2025-10-05T09:01:49Z</time>
      </trkpt>
      <trkpt lat="43.33654" lon="5.78955">
        <ele>956.1</ele>
        <time>2025-10-05T09:01:50Z</time>
      </trkpt>
      <trkpt lat="43.33654" lon="5.78955">
        <ele>956.1</ele>
        <time>2025-10-05T09:01:51Z</time>
      </trkpt>
      <trkpt lat="43.33654" lon="5.78955">
        <ele>956.2</ele>
        <time>2025-10-05T09:01:52Z</time>
      </trkpt>
      <trkpt lat="43.33654" lon="5.78955">
        <ele>956.5</ele>
        <time>2025-10-05T09:01:53Z</time>
      </trkpt>
      <trkpt lat="43.33654" lon="5.78955">
        <ele>956.7</ele>
        <time>2025-10-05T09:01:54Z</time>
      </trkpt>
      <trkpt lat="43.33654" lon="5.78955">
        <ele>956.8</ele>
        <time>2025-10-05T09:01:55Z</time>
      </trkpt>
      <trkpt lat="43.33654" lon="5.78955">
        <ele>956.9</ele>
        <time>2025-10-05T09:01:56Z</time>
      </trkpt>
      <trkpt lat="43.33654" lon="5.78955">
        <ele>956.9</ele>
        <time>2025-10-05T09:01:57Z</time>
      </trkpt>
      <trkpt lat="43.33654" lon="5.78955">
        <ele>956.8</ele>
        <time>2025-10-05T09:01:58Z</time>
      </trkpt>
      <trkpt lat="43.33654" lon="5.78955">
        <ele>956.7</ele>
        <time>2025-10-05T09:01:59Z</time>
      </trkpt>
      <trkpt lat="43.33654" lon="5.78955">
        <ele>956.5</ele>
        <time>2025-10-05T09:02:00Z</time>
      </trkpt>
      <trkpt lat="43.33654" lon="5.78955">
        <ele>956.4</ele>
        <time>2025-10-05T09:02:01Z</time>
      </trkpt>
      <trkpt lat="43.33655" lon="5.78955">
        <ele>956.3</ele>
        <time>2025-10-05T09:02:02Z</time>
      </trkpt>
      <trkpt lat="43.33655" lon="5.78955">
        <ele>956.2</ele>
        <time>2025-10-05T09:02:03Z</time>
      </trkpt>
      <trkpt lat="43.33656" lon="5.78955">
        <ele>956.1</ele>
        <time>2025-10-05T09:02:04Z</time>
      </trkpt>
      <trkpt lat="43.33656" lon="5.78955">
        <ele>956.3</ele>
        <time>2025-10-05T09:02:05Z</time>
      </trkpt>
      <trkpt lat="43.33656" lon="5.78955">
        <ele>956.1</ele>
        <time>2025-10-05T09:02:06Z</time>
      </trkpt>
      <trkpt lat="43.33657" lon="5.78955">
        <ele>956</ele>
        <time>2025-10-05T09:02:07Z</time>
      </trkpt>
      <trkpt lat="43.33657" lon="5.78954">
        <ele>956.1</ele>
        <time>2025-10-05T09:02:08Z</time>
      </trkpt>
      <trkpt lat="43.33657" lon="5.78954">
        <ele>956.1</ele>
        <time>2025-10-05T09:02:09Z</time>
      </trkpt>
      <trkpt lat="43.33658" lon="5.78954">
        <ele>956.2</ele>
        <time>2025-10-05T09:02:10Z</time>
      </trkpt>
      <trkpt lat="43.33658" lon="5.78954">
        <ele>956.2</ele>
        <time>2025-10-05T09:02:11Z</time>
      </trkpt>
      <trkpt lat="43.33658" lon="5.78954">
        <ele>956.1</ele>
        <time>2025-10-05T09:02:12Z</time>
      </trkpt>
      <trkpt lat="43.33658" lon="5.78954">
        <ele>956.1</ele>
        <time>2025-10-05T09:02:13Z</time>
      </trkpt>
      <trkpt lat="43.33658" lon="5.78954">
        <ele>956.2</ele>
        <time>2025-10-05T09:02:14Z</time>
      </trkpt>
      <trkpt lat="43.33658" lon="5.78954">
        <ele>956.3</ele>
        <time>2025-10-05T09:02:15Z</time>
      </trkpt>
      <trkpt lat="43.33658" lon="5.78955">
        <ele>956.3</ele>
        <time>2025-10-05T09:02:16Z</time>
      </trkpt>
      <trkpt lat="43.33659" lon="5.78955">
        <ele>956.2</ele>
        <time>2025-10-05T09:02:17Z</time>
      </trkpt>
      <trkpt lat="43.33659" lon="5.78955">
        <ele>956.1</ele>
        <time>2025-10-05T09:02:18Z</time>
      </trkpt>
      <trkpt lat="43.33659" lon="5.78955">
        <ele>956</ele>
        <time>2025-10-05T09:02:19Z</time>
      </trkpt>
      <trkpt lat="43.33658" lon="5.78955">
        <ele>956.1</ele>
        <time>2025-10-05T09:02:20Z</time>
      </trkpt>
      <trkpt lat="43.33658" lon="5.78955">
        <ele>956.1</ele>
        <time>2025-10-05T09:02:21Z</time>
      </trkpt>
      <trkpt lat="43.33658" lon="5.78955">
        <ele>956.1</ele>
        <time>2025-10-05T09:02:22Z</time>
      </trkpt>
      <trkpt lat="43.33658" lon="5.78955">
        <ele>956.2</ele>
        <time>2025-10-05T09:02:23Z</time>
      </trkpt>
      <trkpt lat="43.33658" lon="5.78955">
        <ele>956.3</ele>
        <time>2025-10-05T09:02:24Z</time>
      </trkpt>
      <trkpt lat="43.33658" lon="5.78955">
        <ele>956.2</ele>
        <time>2025-10-05T09:02:25Z</time>
      </trkpt>
      <trkpt lat="43.33658" lon="5.78954">
        <ele>956.2</ele>
        <time>2025-10-05T09:02:26Z</time>
      </trkpt>
      <trkpt lat="43.33658" lon="5.78954">
        <ele>956.3</ele>
        <time>2025-10-05T09:02:27Z</time>
      </trkpt>
      <trkpt lat="43.33658" lon="5.78955">
        <ele>956.4</ele>
        <time>2025-10-05T09:02:28Z</time>
      </trkpt>
      <trkpt lat="43.33659" lon="5.78955">
        <ele>956.5</ele>
        <time>2025-10-05T09:02:29Z</time>
      </trkpt>
      <trkpt lat="43.33659" lon="5.78956">
        <ele>956.7</ele>
        <time>2025-10-05T09:02:30Z</time>
      </trkpt>
      <trkpt lat="43.33659" lon="5.78956">
        <ele>956.8</ele>
        <time>2025-10-05T09:02:31Z</time>
      </trkpt>
      <trkpt lat="43.33659" lon="5.78956">
        <ele>956.8</ele>
        <time>2025-10-05T09:02:32Z</time>
      </trkpt>
      <trkpt lat="43.33659" lon="5.78956">
        <ele>956.8</ele>
        <time>2025-10-05T09:02:33Z</time>
      </trkpt>
      <trkpt lat="43.33659" lon="5.78956">
        <ele>956.9</ele>
        <time>2025-10-05T09:02:34Z</time>
      </trkpt>
      <trkpt lat="43.33659" lon="5.78957">
        <ele>957.2</ele>
        <time>2025-10-05T09:02:35Z</time>
      </trkpt>
      <trkpt lat="43.33659" lon="5.78957">
        <ele>957.3</ele>
        <time>2025-10-05T09:02:36Z</time>
      </trkpt>
      <trkpt lat="43.33659" lon="5.78956">
        <ele>957.3</ele>
        <time>2025-10-05T09:02:37Z</time>
      </trkpt>
      <trkpt lat="43.33659" lon="5.78956">
        <ele>957.4</ele>
        <time>2025-10-05T09:02:38Z</time>
      </trkpt>
      <trkpt lat="43.33659" lon="5.78957">
        <ele>957.4</ele>
        <time>2025-10-05T09:02:39Z</time>
      </trkpt>
      <trkpt lat="43.33659" lon="5.78958">
        <ele>957.5</ele>
        <time>2025-10-05T09:02:40Z</time>
      </trkpt>
      <trkpt lat="43.33659" lon="5.78957">
        <ele>957.6</ele>
        <time>2025-10-05T09:02:41Z</time>
      </trkpt>
      <trkpt lat="43.33659" lon="5.78957">
        <ele>957.6</ele>
        <time>2025-10-05T09:02:42Z</time>
      </trkpt>
      <trkpt lat="43.33658" lon="5.78957">
        <ele>957.8</ele>
        <time>2025-10-05T09:02:43Z</time>
      </trkpt>
      <trkpt lat="43.33658" lon="5.78958">
        <ele>958</ele>
        <time>2025-10-05T09:02:44Z</time>
      </trkpt>
      <trkpt lat="43.33658" lon="5.78958">
        <ele>958.2</ele>
        <time>2025-10-05T09:02:45Z</time>
      </trkpt>
      <trkpt lat="43.33657" lon="5.78959">
        <ele>958.4</ele>
        <time>2025-10-05T09:02:46Z</time>
      </trkpt>
      <trkpt lat="43.33657" lon="5.78959">
        <ele>958.5</ele>
        <time>2025-10-05T09:02:47Z</time>
      </trkpt>
      <trkpt lat="43.33657" lon="5.78959">
        <ele>958.5</ele>
        <time>2025-10-05T09:02:48Z</time>
      </trkpt>
      <trkpt lat="43.33657" lon="5.78959">
        <ele>958.6</ele>
        <time>2025-10-05T09:02:49Z</time>
      </trkpt>
      <trkpt lat="43.33656" lon="5.78959">
        <ele>958.9</ele>
        <time>2025-10-05T09:02:50Z</time>
      </trkpt>
      <trkpt lat="43.33656" lon="5.78959">
        <ele>959</ele>
        <time>2025-10-05T09:02:51Z</time>
      </trkpt>
      <trkpt lat="43.33656" lon="5.78959">
        <ele>959.2</ele>
        <time>2025-10-05T09:02:52Z</time>
      </trkpt>
      <trkpt lat="43.33656" lon="5.7896">
        <ele>959.3</ele>
        <time>2025-10-05T09:02:53Z</time>
      </trkpt>
      <trkpt lat="43.33656" lon="5.7896">
        <ele>959.4</ele>
        <time>2025-10-05T09:02:54Z</time>
      </trkpt>
      <trkpt lat="43.33655" lon="5.7896">
        <ele>959.5</ele>
        <time>2025-10-05T09:02:55Z</time>
      </trkpt>
      <trkpt lat="43.33655" lon="5.7896">
        <ele>959.6</ele>
        <time>2025-10-05T09:02:56Z</time>
      </trkpt>
      <trkpt lat="43.33655" lon="5.7896">
        <ele>959.7</ele>
        <time>2025-10-05T09:02:57Z</time>
      </trkpt>
      <trkpt lat="43.33655" lon="5.7896">
        <ele>959.7</ele>
        <time>2025-10-05T09:02:58Z</time>
      </trkpt>
      <trkpt lat="43.33655" lon="5.7896">
        <ele>959.9</ele>
        <time>2025-10-05T09:02:59Z</time>
      </trkpt>
      <trkpt lat="43.33655" lon="5.7896">
        <ele>960</ele>
        <time>2025-10-05T09:03:00Z</time>
      </trkpt>
      <trkpt lat="43.33655" lon="5.7896">
        <ele>960.1</ele>
        <time>2025-10-05T09:03:01Z</time>
      </trkpt>
      <trkpt lat="43.33655" lon="5.7896">
        <ele>960.2</ele>
        <time>2025-10-05T09:03:02Z</time>
      </trkpt>
      <trkpt lat="43.33655" lon="5.7896">
        <ele>960.1</ele>
        <time>2025-10-05T09:03:03Z</time>
      </trkpt>
      <trkpt lat="43.33655" lon="5.7896">
        <ele>960.2</ele>
        <time>2025-10-05T09:03:04Z</time>
      </trkpt>
      <trkpt lat="43.33655" lon="5.7896">
        <ele>960.1</ele>
        <time>2025-10-05T09:03:05Z</time>
      </trkpt>
      <trkpt lat="43.33655" lon="5.7896">
        <ele>960.1</ele>
        <time>2025-10-05T09:03:06Z</time>
      </trkpt>
      <trkpt lat="43.33655" lon="5.7896">
        <ele>960</ele>
        <time>2025-10-05T09:03:07Z</time>
      </trkpt>
      <trkpt lat="43.33655" lon="5.7896">
        <ele>960</ele>
        <time>2025-10-05T09:03:08Z</time>
      </trkpt>
      <trkpt lat="43.33655" lon="5.78961">
        <ele>960</ele>
        <time>2025-10-05T09:03:09Z</time>
      </trkpt>
      <trkpt lat="43.33655" lon="5.7896">
        <ele>960.1</ele>
        <time>2025-10-05T09:03:10Z</time>
      </trkpt>
      <trkpt lat="43.33654" lon="5.7896">
        <ele>960.2</ele>
        <time>2025-10-05T09:03:11Z</time>
      </trkpt>
      <trkpt lat="43.33654" lon="5.7896">
        <ele>960.2</ele>
        <time>2025-10-05T09:03:12Z</time>
      </trkpt>
      <trkpt lat="43.33654" lon="5.7896">
        <ele>960.3</ele>
        <time>2025-10-05T09:03:13Z</time>
      </trkpt>
      <trkpt lat="43.33654" lon="5.7896">
        <ele>960.3</ele>
        <time>2025-10-05T09:03:14Z</time>
      </trkpt>
      <trkpt lat="43.33653" lon="5.7896">
        <ele>960.3</ele>
        <time>2025-10-05T09:03:15Z</time>
      </trkpt>
      <trkpt lat="43.33653" lon="5.7896">
        <ele>960.3</ele>
        <time>2025-10-05T09:03:16Z</time>
      </trkpt>
      <trkpt lat="43.33653" lon="5.7896">
        <ele>960.3</ele>
        <time>2025-10-05T09:03:17Z</time>
      </trkpt>
      <trkpt lat="43.33653" lon="5.78959">
        <ele>960.3</ele>
        <time>2025-10-05T09:03:18Z</time>
      </trkpt>
      <trkpt lat="43.33653" lon="5.78959">
        <ele>960.3</ele>
        <time>2025-10-05T09:03:19Z</time>
      </trkpt>
      <trkpt lat="43.33653" lon="5.78959">
        <ele>960.4</ele>
        <time>2025-10-05T09:03:20Z</time>
      </trkpt>
      <trkpt lat="43.33654" lon="5.78959">
        <ele>960.5</ele>
        <time>2025-10-05T09:03:21Z</time>
      </trkpt>
      <trkpt lat="43.33654" lon="5.7896">
        <ele>960.6</ele>
        <time>2025-10-05T09:03:22Z</time>
      </trkpt>
      <trkpt lat="43.33654" lon="5.7896">
        <ele>960.8</ele>
        <time>2025-10-05T09:03:23Z</time>
      </trkpt>
      <trkpt lat="43.33653" lon="5.7896">
        <ele>960.9</ele>
        <time>2025-10-05T09:03:24Z</time>
      </trkpt>
      <trkpt lat="43.33653" lon="5.78961">
        <ele>961</ele>
        <time>2025-10-05T09:03:25Z</time>
      </trkpt>
      <trkpt lat="43.33652" lon="5.78963">
        <ele>961.1</ele>
        <time>2025-10-05T09:03:26Z</time>
      </trkpt>
      <trkpt lat="43.33652" lon="5.78963">
        <ele>961.3</ele>
        <time>2025-10-05T09:03:27Z</time>
      </trkpt>
      <trkpt lat="43.33653" lon="5.78963">
        <ele>961.6</ele>
        <time>2025-10-05T09:03:28Z</time>
      </trkpt>
      <trkpt lat="43.33653" lon="5.78963">
        <ele>961.8</ele>
        <time>2025-10-05T09:03:29Z</time>
      </trkpt>
      <trkpt lat="43.33653" lon="5.78963">
        <ele>962</ele>
        <time>2025-10-05T09:03:30Z</time>
      </trkpt>
      <trkpt lat="43.33653" lon="5.78962">
        <ele>962.2</ele>
        <time>2025-10-05T09:03:31Z</time>
      </trkpt>
      <trkpt lat="43.33653" lon="5.78962">
        <ele>962.2</ele>
        <time>2025-10-05T09:03:32Z</time>
      </trkpt>
      <trkpt lat="43.33653" lon="5.78962">
        <ele>962.1</ele>
        <time>2025-10-05T09:03:33Z</time>
      </trkpt>
      <trkpt lat="43.33653" lon="5.78961">
        <ele>962</ele>
        <time>2025-10-05T09:03:34Z</time>
      </trkpt>
      <trkpt lat="43.33653" lon="5.78961">
        <ele>961.9</ele>
        <time>2025-10-05T09:03:35Z</time>
      </trkpt>
      <trkpt lat="43.33653" lon="5.78961">
        <ele>961.8</ele>
        <time>2025-10-05T09:03:36Z</time>
      </trkpt>
      <trkpt lat="43.33654" lon="5.7896">
        <ele>961.8</ele>
        <time>2025-10-05T09:03:37Z</time>
      </trkpt>
      <trkpt lat="43.33654" lon="5.7896">
        <ele>961.7</ele>
        <time>2025-10-05T09:03:38Z</time>
      </trkpt>
      <trkpt lat="43.33654" lon="5.78959">
        <ele>961.7</ele>
        <time>2025-10-05T09:03:39Z</time>
      </trkpt>
      <trkpt lat="43.33654" lon="5.78959">
        <ele>961.5</ele>
        <time>2025-10-05T09:03:40Z</time>
      </trkpt>
      <trkpt lat="43.33654" lon="5.78959">
        <ele>961.4</ele>
        <time>2025-10-05T09:03:41Z</time>
      </trkpt>
      <trkpt lat="43.33654" lon="5.78959">
        <ele>961.4</ele>
        <time>2025-10-05T09:03:42Z</time>
      </trkpt>
      <trkpt lat="43.33654" lon="5.78959">
        <ele>961.4</ele>
        <time>2025-10-05T09:03:43Z</time>
      </trkpt>
      <trkpt lat="43.33654" lon="5.78959">
        <ele>961.2</ele>
        <time>2025-10-05T09:03:44Z</time>
      </trkpt>
      <trkpt lat="43.33654" lon="5.78959">
        <ele>961.2</ele>
        <time>2025-10-05T09:03:45Z</time>
      </trkpt>
      <trkpt lat="43.33654" lon="5.78959">
        <ele>961.1</ele>
        <time>2025-10-05T09:03:46Z</time>
      </trkpt>
      <trkpt lat="43.33654" lon="5.7896">
        <ele>961.1</ele>
        <time>2025-10-05T09:03:47Z</time>
      </trkpt>
      <trkpt lat="43.33654" lon="5.7896">
        <ele>961</ele>
        <time>2025-10-05T09:03:48Z</time>
      </trkpt>
      <trkpt lat="43.33654" lon="5.7896">
        <ele>961</ele>
        <time>2025-10-05T09:03:49Z</time>
      </trkpt>
      <trkpt lat="43.33654" lon="5.7896">
        <ele>960.9</ele>
        <time>2025-10-05T09:03:50Z</time>
      </trkpt>
      <trkpt lat="43.33654" lon="5.7896">
        <ele>960.8</ele>
        <time>2025-10-05T09:03:51Z</time>
      </trkpt>
      <trkpt lat="43.33654" lon="5.7896">
        <ele>960.8</ele>
        <time>2025-10-05T09:03:52Z</time>
      </trkpt>
      <trkpt lat="43.33654" lon="5.78961">
        <ele>960.8</ele>
        <time>2025-10-05T09:03:53Z</time>
      </trkpt>
      <trkpt lat="43.33654" lon="5.78961">
        <ele>960.7</ele>
        <time>2025-10-05T09:03:54Z</time>
      </trkpt>
      <trkpt lat="43.33654" lon="5.78961">
        <ele>960.8</ele>
        <time>2025-10-05T09:03:55Z</time>
      </trkpt>
      <trkpt lat="43.33655" lon="5.78962">
        <ele>960.7</ele>
        <time>2025-10-05T09:03:56Z</time>
      </trkpt>
      <trkpt lat="43.33655" lon="5.78962">
        <ele>960.7</ele>
        <time>2025-10-05T09:03:57Z</time>
      </trkpt>
      <trkpt lat="43.33655" lon="5.78962">
        <ele>960.7</ele>
        <time>2025-10-05T09:03:58Z</time>
      </trkpt>
      <trkpt lat="43.33655" lon="5.78963">
        <ele>960.7</ele>
        <time>2025-10-05T09:03:59Z</time>
      </trkpt>
      <trkpt lat="43.33655" lon="5.78963">
        <ele>960.7</ele>
        <time>2025-10-05T09:04:00Z</time>
      </trkpt>
      <trkpt lat="43.33654" lon="5.78962">
        <ele>960.6</ele>
        <time>2025-10-05T09:04:01Z</time>
      </trkpt>
      <trkpt lat="43.33654" lon="5.78962">
        <ele>960.6</ele>
        <time>2025-10-05T09:04:02Z</time>
      </trkpt>
      <trkpt lat="43.33654" lon="5.78962">
        <ele>960.6</ele>
        <time>2025-10-05T09:04:03Z</time>
      </trkpt>
      <trkpt lat="43.33654" lon="5.78962">
        <ele>960.5</ele>
        <time>2025-10-05T09:04:04Z</time>
      </trkpt>
      <trkpt lat="43.33654" lon="5.78962">
        <ele>960.5</ele>
        <time>2025-10-05T09:04:05Z</time>
      </trkpt>
      <trkpt lat="43.33654" lon="5.78962">
        <ele>960.5</ele>
        <time>2025-10-05T09:04:06Z</time>
      </trkpt>
      <trkpt lat="43.33654" lon="5.78962">
        <ele>960.4</ele>
        <time>2025-10-05T09:04:07Z</time>
      </trkpt>
      <trkpt lat="43.33654" lon="5.78962">
        <ele>960.4</ele>
        <time>2025-10-05T09:04:08Z</time>
      </trkpt>
      <trkpt lat="43.33654" lon="5.78962">
        <ele>960.3</ele>
        <time>2025-10-05T09:04:09Z</time>
      </trkpt>
      <trkpt lat="43.33654" lon="5.78961">
        <ele>960.3</ele>
        <time>2025-10-05T09:04:10Z</time>
      </trkpt>
      <trkpt lat="43.33654" lon="5.78961">
        <ele>960.1</ele>
        <time>2025-10-05T09:04:11Z</time>
      </trkpt>
      <trkpt lat="43.33653" lon="5.78961">
        <ele>960</ele>
        <time>2025-10-05T09:04:12Z</time>
      </trkpt>
      <trkpt lat="43.33653" lon="5.78961">
        <ele>959.8</ele>
        <time>2025-10-05T09:04:13Z</time>
      </trkpt>
      <trkpt lat="43.33653" lon="5.78961">
        <ele>959.7</ele>
        <time>2025-10-05T09:04:14Z</time>
      </trkpt>
      <trkpt lat="43.33654" lon="5.78961">
        <ele>959.7</ele>
        <time>2025-10-05T09:04:15Z</time>
      </trkpt>
      <trkpt lat="43.33654" lon="5.78961">
        <ele>959.6</ele>
        <time>2025-10-05T09:04:16Z</time>
      </trkpt>
      <trkpt lat="43.33654" lon="5.78961">
        <ele>959.6</ele>
        <time>2025-10-05T09:04:17Z</time>
      </trkpt>
      <trkpt lat="43.33654" lon="5.78961">
        <ele>959.6</ele>
        <time>2025-10-05T09:04:18Z</time>
      </trkpt>
      <trkpt lat="43.33654" lon="5.7896">
        <ele>959.6</ele>
        <time>2025-10-05T09:04:19Z</time>
      </trkpt>
      <trkpt lat="43.33654" lon="5.78961">
        <ele>959.6</ele>
        <time>2025-10-05T09:04:20Z</time>
      </trkpt>
      <trkpt lat="43.33654" lon="5.78961">
        <ele>959.6</ele>
        <time>2025-10-05T09:04:21Z</time>
      </trkpt>
      <trkpt lat="43.33654" lon="5.78961">
        <ele>959.6</ele>
        <time>2025-10-05T09:04:22Z</time>
      </trkpt>
      <trkpt lat="43.33654" lon="5.78961">
        <ele>959.7</ele>
        <time>2025-10-05T09:04:23Z</time>
      </trkpt>
      <trkpt lat="43.33654" lon="5.78961">
        <ele>959.9</ele>
        <time>2025-10-05T09:04:24Z</time>
      </trkpt>
      <trkpt lat="43.33654" lon="5.78961">
        <ele>960.1</ele>
        <time>2025-10-05T09:04:25Z</time>
      </trkpt>
      <trkpt lat="43.33654" lon="5.78961">
        <ele>960.2</ele>
        <time>2025-10-05T09:04:26Z</time>
      </trkpt>
      <trkpt lat="43.33654" lon="5.78961">
        <ele>960.4</ele>
        <time>2025-10-05T09:04:27Z</time>
      </trkpt>
      <trkpt lat="43.33654" lon="5.78961">
        <ele>960.7</ele>
        <time>2025-10-05T09:04:28Z</time>
      </trkpt>
      <trkpt lat="43.33654" lon="5.78961">
        <ele>960.9</ele>
        <time>2025-10-05T09:04:29Z</time>
      </trkpt>
      <trkpt lat="43.33654" lon="5.78961">
        <ele>961.1</ele>
        <time>2025-10-05T09:04:30Z</time>
      </trkpt>
      <trkpt lat="43.33654" lon="5.78961">
        <ele>961.3</ele>
        <time>2025-10-05T09:04:31Z</time>
      </trkpt>
      <trkpt lat="43.33654" lon="5.78961">
        <ele>961.5</ele>
        <time>2025-10-05T09:04:32Z</time>
      </trkpt>
      <trkpt lat="43.33654" lon="5.78961">
        <ele>961.6</ele>
        <time>2025-10-05T09:04:33Z</time>
      </trkpt>
      <trkpt lat="43.33654" lon="5.78962">
        <ele>961.8</ele>
        <time>2025-10-05T09:04:34Z</time>
      </trkpt>
      <trkpt lat="43.33654" lon="5.78962">
        <ele>962.1</ele>
        <time>2025-10-05T09:04:35Z</time>
      </trkpt>
      <trkpt lat="43.33654" lon="5.78962">
        <ele>962.3</ele>
        <time>2025-10-05T09:04:36Z</time>
      </trkpt>
      <trkpt lat="43.33654" lon="5.78962">
        <ele>962.4</ele>
        <time>2025-10-05T09:04:37Z</time>
      </trkpt>
      <trkpt lat="43.33654" lon="5.78963">
        <ele>962.7</ele>
        <time>2025-10-05T09:04:38Z</time>
      </trkpt>
      <trkpt lat="43.33654" lon="5.78964">
        <ele>962.9</ele>
        <time>2025-10-05T09:04:39Z</time>
      </trkpt>
      <trkpt lat="43.33653" lon="5.78964">
        <ele>963.1</ele>
        <time>2025-10-05T09:04:40Z</time>
      </trkpt>
      <trkpt lat="43.33653" lon="5.78964">
        <ele>963.5</ele>
        <time>2025-10-05T09:04:41Z</time>
      </trkpt>
      <trkpt lat="43.33653" lon="5.78965">
        <ele>964</ele>
        <time>2025-10-05T09:04:42Z</time>
      </trkpt>
      <trkpt lat="43.33653" lon="5.78966">
        <ele>964.4</ele>
        <time>2025-10-05T09:04:43Z</time>
      </trkpt>
      <trkpt lat="43.33653" lon="5.78966">
        <ele>964.7</ele>
        <time>2025-10-05T09:04:44Z</time>
      </trkpt>
      <trkpt lat="43.33652" lon="5.78966">
        <ele>965.1</ele>
        <time>2025-10-05T09:04:45Z</time>
      </trkpt>
      <trkpt lat="43.33652" lon="5.78967">
        <ele>965.4</ele>
        <time>2025-10-05T09:04:46Z</time>
      </trkpt>
      <trkpt lat="43.33652" lon="5.78967">
        <ele>965.7</ele>
        <time>2025-10-05T09:04:47Z</time>
      </trkpt>
      <trkpt lat="43.33652" lon="5.78967">
        <ele>965.9</ele>
        <time>2025-10-05T09:04:48Z</time>
      </trkpt>
      <trkpt lat="43.33652" lon="5.78968">
        <ele>966</ele>
        <time>2025-10-05T09:04:49Z</time>
      </trkpt>
      <trkpt lat="43.33651" lon="5.78968">
        <ele>966.1</ele>
        <time>2025-10-05T09:04:50Z</time>
      </trkpt>
      <trkpt lat="43.33651" lon="5.78968">
        <ele>966.1</ele>
        <time>2025-10-05T09:04:51Z</time>
      </trkpt>
      <trkpt lat="43.33651" lon="5.78968">
        <ele>966.3</ele>
        <time>2025-10-05T09:04:52Z</time>
      </trkpt>
      <trkpt lat="43.3365" lon="5.78969">
        <ele>966.4</ele>
        <time>2025-10-05T09:04:53Z</time>
      </trkpt>
      <trkpt lat="43.3365" lon="5.78969">
        <ele>966.4</ele>
        <time>2025-10-05T09:04:54Z</time>
      </trkpt>
      <trkpt lat="43.3365" lon="5.78969">
        <ele>966.5</ele>
        <time>2025-10-05T09:04:55Z</time>
      </trkpt>
      <trkpt lat="43.33649" lon="5.78969">
        <ele>966.6</ele>
        <time>2025-10-05T09:04:56Z</time>
      </trkpt>
      <trkpt lat="43.33649" lon="5.78969">
        <ele>966.7</ele>
        <time>2025-10-05T09:04:57Z</time>
      </trkpt>
      <trkpt lat="43.33649" lon="5.78969">
        <ele>966.7</ele>
        <time>2025-10-05T09:04:58Z</time>
      </trkpt>
      <trkpt lat="43.33649" lon="5.78969">
        <ele>966.8</ele>
        <time>2025-10-05T09:04:59Z</time>
      </trkpt>
      <trkpt lat="43.33649" lon="5.78969">
        <ele>966.8</ele>
        <time>2025-10-05T09:05:00Z</time>
      </trkpt>
      <trkpt lat="43.33649" lon="5.7897">
        <ele>966.8</ele>
        <time>2025-10-05T09:05:01Z</time>
      </trkpt>
      <trkpt lat="43.33649" lon="5.7897">
        <ele>966.9</ele>
        <time>2025-10-05T09:05:02Z</time>
      </trkpt>
      <trkpt lat="43.33649" lon="5.7897">
        <ele>967</ele>
        <time>2025-10-05T09:05:03Z</time>
      </trkpt>
      <trkpt lat="43.33649" lon="5.7897">
        <ele>967.1</ele>
        <time>2025-10-05T09:05:04Z</time>
      </trkpt>
      <trkpt lat="43.33649" lon="5.7897">
        <ele>967.1</ele>
        <time>2025-10-05T09:05:05Z</time>
      </trkpt>
      <trkpt lat="43.33649" lon="5.7897">
        <ele>967</ele>
        <time>2025-10-05T09:05:06Z</time>
      </trkpt>
      <trkpt lat="43.33649" lon="5.7897">
        <ele>967</ele>
        <time>2025-10-05T09:05:07Z</time>
      </trkpt>
      <trkpt lat="43.33649" lon="5.7897">
        <ele>967</ele>
        <time>2025-10-05T09:05:08Z</time>
      </trkpt>
      <trkpt lat="43.33649" lon="5.7897">
        <ele>966.9</ele>
        <time>2025-10-05T09:05:09Z</time>
      </trkpt>
      <trkpt lat="43.33649" lon="5.78971">
        <ele>966.8</ele>
        <time>2025-10-05T09:05:10Z</time>
      </trkpt>
      <trkpt lat="43.33649" lon="5.78971">
        <ele>966.7</ele>
        <time>2025-10-05T09:05:11Z</time>
      </trkpt>
      <trkpt lat="43.33649" lon="5.78971">
        <ele>966.6</ele>
        <time>2025-10-05T09:05:12Z</time>
      </trkpt>
      <trkpt lat="43.33649" lon="5.78971">
        <ele>966.5</ele>
        <time>2025-10-05T09:05:13Z</time>
      </trkpt>
      <trkpt lat="43.33649" lon="5.78972">
        <ele>966.4</ele>
        <time>2025-10-05T09:05:14Z</time>
      </trkpt>
      <trkpt lat="43.33649" lon="5.78972">
        <ele>966.4</ele>
        <time>2025-10-05T09:05:15Z</time>
      </trkpt>
      <trkpt lat="43.33649" lon="5.78972">
        <ele>966.4</ele>
        <time>2025-10-05T09:05:16Z</time>
      </trkpt>
      <trkpt lat="43.33649" lon="5.78972">
        <ele>966.4</ele>
        <time>2025-10-05T09:05:17Z</time>
      </trkpt>
      <trkpt lat="43.33649" lon="5.78972">
        <ele>966.4</ele>
        <time>2025-10-05T09:05:18Z</time>
      </trkpt>
      <trkpt lat="43.33649" lon="5.78972">
        <ele>966.4</ele>
        <time>2025-10-05T09:05:19Z</time>
      </trkpt>
      <trkpt lat="43.33649" lon="5.78972">
        <ele>966.4</ele>
        <time>2025-10-05T09:05:20Z</time>
      </trkpt>
      <trkpt lat="43.33649" lon="5.78972">
        <ele>966.5</ele>
        <time>2025-10-05T09:05:21Z</time>
      </trkpt>
      <trkpt lat="43.33649" lon="5.78973">
        <ele>966.5</ele>
        <time>2025-10-05T09:05:22Z</time>
      </trkpt>
      <trkpt lat="43.33649" lon="5.78973">
        <ele>966.4</ele>
        <time>2025-10-05T09:05:23Z</time>
      </trkpt>
      <trkpt lat="43.33649" lon="5.78972">
        <ele>966.4</ele>
        <time>2025-10-05T09:05:24Z</time>
      </trkpt>
      <trkpt lat="43.33649" lon="5.78972">
        <ele>966.5</ele>
        <time>2025-10-05T09:05:25Z</time>
      </trkpt>
      <trkpt lat="43.3365" lon="5.78972">
        <ele>966.6</ele>
        <time>2025-10-05T09:05:26Z</time>
      </trkpt>
      <trkpt lat="43.33649" lon="5.78972">
        <ele>966.7</ele>
        <time>2025-10-05T09:05:27Z</time>
      </trkpt>
      <trkpt lat="43.33649" lon="5.78972">
        <ele>966.9</ele>
        <time>2025-10-05T09:05:28Z</time>
      </trkpt>
      <trkpt lat="43.33649" lon="5.78972">
        <ele>967</ele>
        <time>2025-10-05T09:05:29Z</time>
      </trkpt>
      <trkpt lat="43.3365" lon="5.78972">
        <ele>967.1</ele>
        <time>2025-10-05T09:05:30Z</time>
      </trkpt>
      <trkpt lat="43.3365" lon="5.78972">
        <ele>967</ele>
        <time>2025-10-05T09:05:31Z</time>
      </trkpt>
      <trkpt lat="43.33649" lon="5.78972">
        <ele>967</ele>
        <time>2025-10-05T09:05:32Z</time>
      </trkpt>
      <trkpt lat="43.33649" lon="5.78972">
        <ele>966.9</ele>
        <time>2025-10-05T09:05:33Z</time>
      </trkpt>
      <trkpt lat="43.33649" lon="5.78972">
        <ele>967</ele>
        <time>2025-10-05T09:05:34Z</time>
      </trkpt>
      <trkpt lat="43.33648" lon="5.78972">
        <ele>967.1</ele>
        <time>2025-10-05T09:05:35Z</time>
      </trkpt>
      <trkpt lat="43.33647" lon="5.78971">
        <ele>967.2</ele>
        <time>2025-10-05T09:05:36Z</time>
      </trkpt>
      <trkpt lat="43.33647" lon="5.78971">
        <ele>967.2</ele>
        <time>2025-10-05T09:05:37Z</time>
      </trkpt>
      <trkpt lat="43.33647" lon="5.78971">
        <ele>967.2</ele>
        <time>2025-10-05T09:05:38Z</time>
      </trkpt>
      <trkpt lat="43.33647" lon="5.78971">
        <ele>967.5</ele>
        <time>2025-10-05T09:05:39Z</time>
      </trkpt>
      <trkpt lat="43.33647" lon="5.78971">
        <ele>967.7</ele>
        <time>2025-10-05T09:05:40Z</time>
      </trkpt>
      <trkpt lat="43.33647" lon="5.78971">
        <ele>967.8</ele>
        <time>2025-10-05T09:05:41Z</time>
      </trkpt>
      <trkpt lat="43.33647" lon="5.78971">
        <ele>967.9</ele>
        <time>2025-10-05T09:05:42Z</time>
      </trkpt>
      <trkpt lat="43.33647" lon="5.78971">
        <ele>968</ele>
        <time>2025-10-05T09:05:43Z</time>
      </trkpt>
      <trkpt lat="43.33647" lon="5.78971">
        <ele>968.2</ele>
        <time>2025-10-05T09:05:44Z</time>
      </trkpt>
      <trkpt lat="43.33648" lon="5.78971">
        <ele>968.4</ele>
        <time>2025-10-05T09:05:45Z</time>
      </trkpt>
      <trkpt lat="43.33647" lon="5.78972">
        <ele>968.5</ele>
        <time>2025-10-05T09:05:46Z</time>
      </trkpt>
      <trkpt lat="43.33647" lon="5.78972">
        <ele>968.6</ele>
        <time>2025-10-05T09:05:47Z</time>
      </trkpt>
      <trkpt lat="43.33647" lon="5.78972">
        <ele>968.7</ele>
        <time>2025-10-05T09:05:48Z</time>
      </trkpt>
      <trkpt lat="43.33647" lon="5.78972">
        <ele>968.7</ele>
        <time>2025-10-05T09:05:49Z</time>
      </trkpt>
      <trkpt lat="43.33647" lon="5.78973">
        <ele>968.8</ele>
        <time>2025-10-05T09:05:50Z</time>
      </trkpt>
      <trkpt lat="43.33647" lon="5.78973">
        <ele>968.8</ele>
        <time>2025-10-05T09:05:51Z</time>
      </trkpt>
      <trkpt lat="43.33647" lon="5.78973">
        <ele>968.9</ele>
        <time>2025-10-05T09:05:52Z</time>
      </trkpt>
      <trkpt lat="43.33647" lon="5.78973">
        <ele>968.9</ele>
        <time>2025-10-05T09:05:53Z</time>
      </trkpt>
      <trkpt lat="43.33646" lon="5.78973">
        <ele>969</ele>
        <time>2025-10-05T09:05:54Z</time>
      </trkpt>
      <trkpt lat="43.33645" lon="5.78973">
        <ele>969.1</ele>
        <time>2025-10-05T09:05:55Z</time>
      </trkpt>
      <trkpt lat="43.33645" lon="5.78974">
        <ele>969.2</ele>
        <time>2025-10-05T09:05:56Z</time>
      </trkpt>
      <trkpt lat="43.33645" lon="5.78974">
        <ele>969.4</ele>
        <time>2025-10-05T09:05:57Z</time>
      </trkpt>
      <trkpt lat="43.33645" lon="5.78974">
        <ele>969.6</ele>
        <time>2025-10-05T09:05:58Z</time>
      </trkpt>
      <trkpt lat="43.33645" lon="5.78974">
        <ele>969.8</ele>
        <time>2025-10-05T09:05:59Z</time>
      </trkpt>
      <trkpt lat="43.33645" lon="5.78974">
        <ele>970.1</ele>
        <time>2025-10-05T09:06:00Z</time>
      </trkpt>
      <trkpt lat="43.33645" lon="5.78973">
        <ele>970.3</ele>
        <time>2025-10-05T09:06:01Z</time>
      </trkpt>
      <trkpt lat="43.33644" lon="5.78974">
        <ele>970.4</ele>
        <time>2025-10-05T09:06:02Z</time>
      </trkpt>
      <trkpt lat="43.33644" lon="5.78973">
        <ele>970.5</ele>
        <time>2025-10-05T09:06:03Z</time>
      </trkpt>
      <trkpt lat="43.33644" lon="5.78973">
        <ele>970.5</ele>
        <time>2025-10-05T09:06:04Z</time>
      </trkpt>
      <trkpt lat="43.33644" lon="5.78974">
        <ele>970.5</ele>
        <time>2025-10-05T09:06:05Z</time>
      </trkpt>
      <trkpt lat="43.33644" lon="5.78974">
        <ele>970.7</ele>
        <time>2025-10-05T09:06:06Z</time>
      </trkpt>
      <trkpt lat="43.33644" lon="5.78974">
        <ele>970.9</ele>
        <time>2025-10-05T09:06:07Z</time>
      </trkpt>
      <trkpt lat="43.33644" lon="5.78974">
        <ele>971.1</ele>
        <time>2025-10-05T09:06:08Z</time>
      </trkpt>
      <trkpt lat="43.33643" lon="5.78974">
        <ele>971.5</ele>
        <time>2025-10-05T09:06:09Z</time>
      </trkpt>
      <trkpt lat="43.33643" lon="5.78974">
        <ele>971.8</ele>
        <time>2025-10-05T09:06:10Z</time>
      </trkpt>
      <trkpt lat="43.33643" lon="5.78974">
        <ele>972.1</ele>
        <time>2025-10-05T09:06:11Z</time>
      </trkpt>
      <trkpt lat="43.33643" lon="5.78974">
        <ele>972.5</ele>
        <time>2025-10-05T09:06:12Z</time>
      </trkpt>
      <trkpt lat="43.33643" lon="5.78974">
        <ele>972.8</ele>
        <time>2025-10-05T09:06:13Z</time>
      </trkpt>
      <trkpt lat="43.33643" lon="5.78974">
        <ele>973.1</ele>
        <time>2025-10-05T09:06:14Z</time>
      </trkpt>
      <trkpt lat="43.33643" lon="5.78974">
        <ele>973.3</ele>
        <time>2025-10-05T09:06:15Z</time>
      </trkpt>
      <trkpt lat="43.33643" lon="5.78973">
        <ele>973.5</ele>
        <time>2025-10-05T09:06:16Z</time>
      </trkpt>
      <trkpt lat="43.33644" lon="5.78973">
        <ele>973.7</ele>
        <time>2025-10-05T09:06:17Z</time>
      </trkpt>
      <trkpt lat="43.33644" lon="5.78973">
        <ele>974</ele>
        <time>2025-10-05T09:06:18Z</time>
      </trkpt>
      <trkpt lat="43.33644" lon="5.78973">
        <ele>974.2</ele>
        <time>2025-10-05T09:06:19Z</time>
      </trkpt>
      <trkpt lat="43.33644" lon="5.78973">
        <ele>974.5</ele>
        <time>2025-10-05T09:06:20Z</time>
      </trkpt>
      <trkpt lat="43.33643" lon="5.78972">
        <ele>974.9</ele>
        <time>2025-10-05T09:06:21Z</time>
      </trkpt>
      <trkpt lat="43.33643" lon="5.78972">
        <ele>975.2</ele>
        <time>2025-10-05T09:06:22Z</time>
      </trkpt>
      <trkpt lat="43.33643" lon="5.78972">
        <ele>975.4</ele>
        <time>2025-10-05T09:06:23Z</time>
      </trkpt>
      <trkpt lat="43.33642" lon="5.78972">
        <ele>975.7</ele>
        <time>2025-10-05T09:06:24Z</time>
      </trkpt>
      <trkpt lat="43.33642" lon="5.78972">
        <ele>975.9</ele>
        <time>2025-10-05T09:06:25Z</time>
      </trkpt>
      <trkpt lat="43.33642" lon="5.78972">
        <ele>976.2</ele>
        <time>2025-10-05T09:06:26Z</time>
      </trkpt>
      <trkpt lat="43.33642" lon="5.78973">
        <ele>976.6</ele>
        <time>2025-10-05T09:06:27Z</time>
      </trkpt>
      <trkpt lat="43.33642" lon="5.78973">
        <ele>976.8</ele>
        <time>2025-10-05T09:06:28Z</time>
      </trkpt>
      <trkpt lat="43.33643" lon="5.78973">
        <ele>977</ele>
        <time>2025-10-05T09:06:29Z</time>
      </trkpt>
      <trkpt lat="43.33643" lon="5.78973">
        <ele>977.2</ele>
        <time>2025-10-05T09:06:30Z</time>
      </trkpt>
      <trkpt lat="43.33643" lon="5.78973">
        <ele>977.4</ele>
        <time>2025-10-05T09:06:31Z</time>
      </trkpt>
      <trkpt lat="43.33643" lon="5.78974">
        <ele>977.5</ele>
        <time>2025-10-05T09:06:32Z</time>
      </trkpt>
      <trkpt lat="43.33643" lon="5.78974">
        <ele>977.7</ele>
        <time>2025-10-05T09:06:33Z</time>
      </trkpt>
      <trkpt lat="43.33642" lon="5.78974">
        <ele>977.7</ele>
        <time>2025-10-05T09:06:34Z</time>
      </trkpt>
      <trkpt lat="43.33642" lon="5.78974">
        <ele>977.8</ele>
        <time>2025-10-05T09:06:35Z</time>
      </trkpt>
      <trkpt lat="43.33642" lon="5.78974">
        <ele>978</ele>
        <time>2025-10-05T09:06:36Z</time>
      </trkpt>
      <trkpt lat="43.33642" lon="5.78975">
        <ele>978.2</ele>
        <time>2025-10-05T09:06:37Z</time>
      </trkpt>
      <trkpt lat="43.33642" lon="5.78974">
        <ele>978.3</ele>
        <time>2025-10-05T09:06:38Z</time>
      </trkpt>
      <trkpt lat="43.33641" lon="5.78974">
        <ele>978.5</ele>
        <time>2025-10-05T09:06:39Z</time>
      </trkpt>
      <trkpt lat="43.33641" lon="5.78975">
        <ele>978.8</ele>
        <time>2025-10-05T09:06:40Z</time>
      </trkpt>
      <trkpt lat="43.33641" lon="5.78975">
        <ele>978.9</ele>
        <time>2025-10-05T09:06:41Z</time>
      </trkpt>
      <trkpt lat="43.33641" lon="5.78975">
        <ele>978.9</ele>
        <time>2025-10-05T09:06:42Z</time>
      </trkpt>
      <trkpt lat="43.33641" lon="5.78975">
        <ele>979.1</ele>
        <time>2025-10-05T09:06:43Z</time>
      </trkpt>
      <trkpt lat="43.33641" lon="5.78975">
        <ele>979.3</ele>
        <time>2025-10-05T09:06:44Z</time>
      </trkpt>
      <trkpt lat="43.33641" lon="5.78975">
        <ele>979.5</ele>
        <time>2025-10-05T09:06:45Z</time>
      </trkpt>
      <trkpt lat="43.3364" lon="5.78975">
        <ele>979.6</ele>
        <time>2025-10-05T09:06:46Z</time>
      </trkpt>
      <trkpt lat="43.3364" lon="5.78975">
        <ele>979.7</ele>
        <time>2025-10-05T09:06:47Z</time>
      </trkpt>
      <trkpt lat="43.3364" lon="5.78975">
        <ele>980</ele>
        <time>2025-10-05T09:06:48Z</time>
      </trkpt>
      <trkpt lat="43.3364" lon="5.78975">
        <ele>980.2</ele>
        <time>2025-10-05T09:06:49Z</time>
      </trkpt>
      <trkpt lat="43.3364" lon="5.78975">
        <ele>980.4</ele>
        <time>2025-10-05T09:06:50Z</time>
      </trkpt>
      <trkpt lat="43.3364" lon="5.78975">
        <ele>980.5</ele>
        <time>2025-10-05T09:06:51Z</time>
      </trkpt>
      <trkpt lat="43.3364" lon="5.78975">
        <ele>980.5</ele>
        <time>2025-10-05T09:06:52Z</time>
      </trkpt>
      <trkpt lat="43.33639" lon="5.78975">
        <ele>980.6</ele>
        <time>2025-10-05T09:06:53Z</time>
      </trkpt>
      <trkpt lat="43.33639" lon="5.78974">
        <ele>980.6</ele>
        <time>2025-10-05T09:06:54Z</time>
      </trkpt>
      <trkpt lat="43.33639" lon="5.78973">
        <ele>980.7</ele>
        <time>2025-10-05T09:06:55Z</time>
      </trkpt>
      <trkpt lat="43.33639" lon="5.78973">
        <ele>980.7</ele>
        <time>2025-10-05T09:06:56Z</time>
      </trkpt>
      <trkpt lat="43.33638" lon="5.78973">
        <ele>980.7</ele>
        <time>2025-10-05T09:06:57Z</time>
      </trkpt>
      <trkpt lat="43.33639" lon="5.78973">
        <ele>980.7</ele>
        <time>2025-10-05T09:06:58Z</time>
      </trkpt>
      <trkpt lat="43.33639" lon="5.78974">
        <ele>980.8</ele>
        <time>2025-10-05T09:06:59Z</time>
      </trkpt>
      <trkpt lat="43.33639" lon="5.78973">
        <ele>980.8</ele>
        <time>2025-10-05T09:07:00Z</time>
      </trkpt>
      <trkpt lat="43.3364" lon="5.78973">
        <ele>980.8</ele>
        <time>2025-10-05T09:07:01Z</time>
      </trkpt>
      <trkpt lat="43.3364" lon="5.78973">
        <ele>980.7</ele>
        <time>2025-10-05T09:07:02Z</time>
      </trkpt>
      <trkpt lat="43.3364" lon="5.78973">
        <ele>980.7</ele>
        <time>2025-10-05T09:07:03Z</time>
      </trkpt>
      <trkpt lat="43.33639" lon="5.78972">
        <ele>980.9</ele>
        <time>2025-10-05T09:07:04Z</time>
      </trkpt>
      <trkpt lat="43.33639" lon="5.78972">
        <ele>980.9</ele>
        <time>2025-10-05T09:07:05Z</time>
      </trkpt>
      <trkpt lat="43.33639" lon="5.78972">
        <ele>980.8</ele>
        <time>2025-10-05T09:07:06Z</time>
      </trkpt>
      <trkpt lat="43.33639" lon="5.78972">
        <ele>980.7</ele>
        <time>2025-10-05T09:07:07Z</time>
      </trkpt>
      <trkpt lat="43.33639" lon="5.78972">
        <ele>980.6</ele>
        <time>2025-10-05T09:07:08Z</time>
      </trkpt>
      <trkpt lat="43.33638" lon="5.78972">
        <ele>980.5</ele>
        <time>2025-10-05T09:07:09Z</time>
      </trkpt>
      <trkpt lat="43.33638" lon="5.78972">
        <ele>980.4</ele>
        <time>2025-10-05T09:07:10Z</time>
      </trkpt>
      <trkpt lat="43.33638" lon="5.78972">
        <ele>980.4</ele>
        <time>2025-10-05T09:07:11Z</time>
      </trkpt>
      <trkpt lat="43.33637" lon="5.78972">
        <ele>980.5</ele>
        <time>2025-10-05T09:07:12Z</time>
      </trkpt>
      <trkpt lat="43.33637" lon="5.78972">
        <ele>980.6</ele>
        <time>2025-10-05T09:07:13Z</time>
      </trkpt>
      <trkpt lat="43.33637" lon="5.78973">
        <ele>980.6</ele>
        <time>2025-10-05T09:07:14Z</time>
      </trkpt>
      <trkpt lat="43.33636" lon="5.78973">
        <ele>980.6</ele>
        <time>2025-10-05T09:07:15Z</time>
      </trkpt>
      <trkpt lat="43.33636" lon="5.78973">
        <ele>980.6</ele>
        <time>2025-10-05T09:07:16Z</time>
      </trkpt>
      <trkpt lat="43.33636" lon="5.78973">
        <ele>980.5</ele>
        <time>2025-10-05T09:07:17Z</time>
      </trkpt>
      <trkpt lat="43.33635" lon="5.78973">
        <ele>980.5</ele>
        <time>2025-10-05T09:07:18Z</time>
      </trkpt>
      <trkpt lat="43.33635" lon="5.78973">
        <ele>980.5</ele>
        <time>2025-10-05T09:07:19Z</time>
      </trkpt>
      <trkpt lat="43.33635" lon="5.78973">
        <ele>980.4</ele>
        <time>2025-10-05T09:07:20Z</time>
      </trkpt>
      <trkpt lat="43.33635" lon="5.78973">
        <ele>980.4</ele>
        <time>2025-10-05T09:07:21Z</time>
      </trkpt>
      <trkpt lat="43.33636" lon="5.78972">
        <ele>980.5</ele>
        <time>2025-10-05T09:07:22Z</time>
      </trkpt>
      <trkpt lat="43.33636" lon="5.78972">
        <ele>980.4</ele>
        <time>2025-10-05T09:07:23Z</time>
      </trkpt>
      <trkpt lat="43.33635" lon="5.78972">
        <ele>980.5</ele>
        <time>2025-10-05T09:07:24Z</time>
      </trkpt>
      <trkpt lat="43.33636" lon="5.78972">
        <ele>980.5</ele>
        <time>2025-10-05T09:07:25Z</time>
      </trkpt>
      <trkpt lat="43.33636" lon="5.78971">
        <ele>980.6</ele>
        <time>2025-10-05T09:07:26Z</time>
      </trkpt>
      <trkpt lat="43.33636" lon="5.78971">
        <ele>980.5</ele>
        <time>2025-10-05T09:07:27Z</time>
      </trkpt>
      <trkpt lat="43.33636" lon="5.78971">
        <ele>980.5</ele>
        <time>2025-10-05T09:07:28Z</time>
      </trkpt>
      <trkpt lat="43.33636" lon="5.78971">
        <ele>980.5</ele>
        <time>2025-10-05T09:07:29Z</time>
      </trkpt>
      <trkpt lat="43.33636" lon="5.78971">
        <ele>980.6</ele>
        <time>2025-10-05T09:07:30Z</time>
      </trkpt>
      <trkpt lat="43.33636" lon="5.7897">
        <ele>980.6</ele>
        <time>2025-10-05T09:07:31Z</time>
      </trkpt>
      <trkpt lat="43.33635" lon="5.78971">
        <ele>980.7</ele>
        <time>2025-10-05T09:07:32Z</time>
      </trkpt>
      <trkpt lat="43.33635" lon="5.78971">
        <ele>980.7</ele>
        <time>2025-10-05T09:07:33Z</time>
      </trkpt>
      <trkpt lat="43.33635" lon="5.78971">
        <ele>980.7</ele>
        <time>2025-10-05T09:07:34Z</time>
      </trkpt>
      <trkpt lat="43.33635" lon="5.78971">
        <ele>980.7</ele>
        <time>2025-10-05T09:07:35Z</time>
      </trkpt>
      <trkpt lat="43.33635" lon="5.78971">
        <ele>980.7</ele>
        <time>2025-10-05T09:07:36Z</time>
      </trkpt>
      <trkpt lat="43.33635" lon="5.78971">
        <ele>980.6</ele>
        <time>2025-10-05T09:07:37Z</time>
      </trkpt>
      <trkpt lat="43.33635" lon="5.78972">
        <ele>980.6</ele>
        <time>2025-10-05T09:07:38Z</time>
      </trkpt>
      <trkpt lat="43.33635" lon="5.78972">
        <ele>980.6</ele>
        <time>2025-10-05T09:07:39Z</time>
      </trkpt>
      <trkpt lat="43.33635" lon="5.78971">
        <ele>980.5</ele>
        <time>2025-10-05T09:07:40Z</time>
      </trkpt>
      <trkpt lat="43.33635" lon="5.78971">
        <ele>980.4</ele>
        <time>2025-10-05T09:07:41Z</time>
      </trkpt>
      <trkpt lat="43.33635" lon="5.78971">
        <ele>980.3</ele>
        <time>2025-10-05T09:07:42Z</time>
      </trkpt>
      <trkpt lat="43.33635" lon="5.78971">
        <ele>980.1</ele>
        <time>2025-10-05T09:07:43Z</time>
      </trkpt>
      <trkpt lat="43.33635" lon="5.78971">
        <ele>980.1</ele>
        <time>2025-10-05T09:07:44Z</time>
      </trkpt>
      <trkpt lat="43.33634" lon="5.7897">
        <ele>980</ele>
        <time>2025-10-05T09:07:45Z</time>
      </trkpt>
      <trkpt lat="43.33635" lon="5.7897">
        <ele>979.9</ele>
        <time>2025-10-05T09:07:46Z</time>
      </trkpt>
      <trkpt lat="43.33634" lon="5.7897">
        <ele>979.8</ele>
        <time>2025-10-05T09:07:47Z</time>
      </trkpt>
      <trkpt lat="43.33634" lon="5.7897">
        <ele>979.7</ele>
        <time>2025-10-05T09:07:48Z</time>
      </trkpt>
      <trkpt lat="43.33634" lon="5.7897">
        <ele>979.9</ele>
        <time>2025-10-05T09:07:49Z</time>
      </trkpt>
      <trkpt lat="43.33634" lon="5.7897">
        <ele>980</ele>
        <time>2025-10-05T09:07:50Z</time>
      </trkpt>
      <trkpt lat="43.33634" lon="5.7897">
        <ele>980.1</ele>
        <time>2025-10-05T09:07:51Z</time>
      </trkpt>
      <trkpt lat="43.33634" lon="5.7897">
        <ele>980.2</ele>
        <time>2025-10-05T09:07:52Z</time>
      </trkpt>
      <trkpt lat="43.33634" lon="5.7897">
        <ele>980.2</ele>
        <time>2025-10-05T09:07:53Z</time>
      </trkpt>
      <trkpt lat="43.33634" lon="5.7897">
        <ele>980.2</ele>
        <time>2025-10-05T09:07:54Z</time>
      </trkpt>
      <trkpt lat="43.33634" lon="5.7897">
        <ele>980.2</ele>
        <time>2025-10-05T09:07:55Z</time>
      </trkpt>
      <trkpt lat="43.33634" lon="5.7897">
        <ele>980.2</ele>
        <time>2025-10-05T09:07:56Z</time>
      </trkpt>
      <trkpt lat="43.33634" lon="5.7897">
        <ele>980.1</ele>
        <time>2025-10-05T09:07:57Z</time>
      </trkpt>
      <trkpt lat="43.33634" lon="5.7897">
        <ele>980.1</ele>
        <time>2025-10-05T09:07:58Z</time>
      </trkpt>
      <trkpt lat="43.33634" lon="5.7897">
        <ele>980</ele>
        <time>2025-10-05T09:07:59Z</time>
      </trkpt>
      <trkpt lat="43.33634" lon="5.7897">
        <ele>979.9</ele>
        <time>2025-10-05T09:08:00Z</time>
      </trkpt>
      <trkpt lat="43.33633" lon="5.7897">
        <ele>979.8</ele>
        <time>2025-10-05T09:08:01Z</time>
      </trkpt>
      <trkpt lat="43.33633" lon="5.78969">
        <ele>979.8</ele>
        <time>2025-10-05T09:08:02Z</time>
      </trkpt>
      <trkpt lat="43.33633" lon="5.78969">
        <ele>979.9</ele>
        <time>2025-10-05T09:08:03Z</time>
      </trkpt>
      <trkpt lat="43.33633" lon="5.7897">
        <ele>979.9</ele>
        <time>2025-10-05T09:08:04Z</time>
      </trkpt>
      <trkpt lat="43.33633" lon="5.7897">
        <ele>980</ele>
        <time>2025-10-05T09:08:05Z</time>
      </trkpt>
      <trkpt lat="43.33633" lon="5.7897">
        <ele>979.8</ele>
        <time>2025-10-05T09:08:06Z</time>
      </trkpt>
      <trkpt lat="43.33633" lon="5.7897">
        <ele>979.7</ele>
        <time>2025-10-05T09:08:07Z</time>
      </trkpt>
      <trkpt lat="43.33633" lon="5.7897">
        <ele>979.6</ele>
        <time>2025-10-05T09:08:08Z</time>
      </trkpt>
      <trkpt lat="43.33634" lon="5.7897">
        <ele>979.5</ele>
        <time>2025-10-05T09:08:09Z</time>
      </trkpt>
      <trkpt lat="43.33634" lon="5.7897">
        <ele>979.4</ele>
        <time>2025-10-05T09:08:10Z</time>
      </trkpt>
      <trkpt lat="43.33634" lon="5.7897">
        <ele>979.4</ele>
        <time>2025-10-05T09:08:11Z</time>
      </trkpt>
      <trkpt lat="43.33634" lon="5.7897">
        <ele>979.4</ele>
        <time>2025-10-05T09:08:12Z</time>
      </trkpt>
      <trkpt lat="43.33634" lon="5.78969">
        <ele>979.4</ele>
        <time>2025-10-05T09:08:13Z</time>
      </trkpt>
      <trkpt lat="43.33634" lon="5.78969">
        <ele>979.4</ele>
        <time>2025-10-05T09:08:14Z</time>
      </trkpt>
      <trkpt lat="43.33634" lon="5.78969">
        <ele>979.4</ele>
        <time>2025-10-05T09:08:15Z</time>
      </trkpt>
      <trkpt lat="43.33634" lon="5.78969">
        <ele>979.4</ele>
        <time>2025-10-05T09:08:16Z</time>
      </trkpt>
      <trkpt lat="43.33634" lon="5.78969">
        <ele>979.6</ele>
        <time>2025-10-05T09:08:17Z</time>
      </trkpt>
      <trkpt lat="43.33634" lon="5.78969">
        <ele>979.7</ele>
        <time>2025-10-05T09:08:18Z</time>
      </trkpt>
      <trkpt lat="43.33634" lon="5.78969">
        <ele>979.8</ele>
        <time>2025-10-05T09:08:19Z</time>
      </trkpt>
      <trkpt lat="43.33634" lon="5.78969">
        <ele>979.9</ele>
        <time>2025-10-05T09:08:20Z</time>
      </trkpt>
      <trkpt lat="43.33635" lon="5.78969">
        <ele>979.9</ele>
        <time>2025-10-05T09:08:21Z</time>
      </trkpt>
      <trkpt lat="43.33635" lon="5.7897">
        <ele>979.9</ele>
        <time>2025-10-05T09:08:22Z</time>
      </trkpt>
      <trkpt lat="43.33634" lon="5.7897">
        <ele>979.9</ele>
        <time>2025-10-05T09:08:23Z</time>
      </trkpt>
      <trkpt lat="43.33633" lon="5.7897">
        <ele>979.8</ele>
        <time>2025-10-05T09:08:24Z</time>
      </trkpt>
      <trkpt lat="43.33633" lon="5.7897">
        <ele>980</ele>
        <time>2025-10-05T09:08:25Z</time>
      </trkpt>
      <trkpt lat="43.33633" lon="5.7897">
        <ele>980.1</ele>
        <time>2025-10-05T09:08:26Z</time>
      </trkpt>
      <trkpt lat="43.33634" lon="5.7897">
        <ele>980.3</ele>
        <time>2025-10-05T09:08:27Z</time>
      </trkpt>
      <trkpt lat="43.33634" lon="5.7897">
        <ele>980.4</ele>
        <time>2025-10-05T09:08:28Z</time>
      </trkpt>
      <trkpt lat="43.33634" lon="5.78969">
        <ele>980.3</ele>
        <time>2025-10-05T09:08:29Z</time>
      </trkpt>
      <trkpt lat="43.33634" lon="5.78969">
        <ele>980.3</ele>
        <time>2025-10-05T09:08:30Z</time>
      </trkpt>
      <trkpt lat="43.33633" lon="5.78969">
        <ele>980.2</ele>
        <time>2025-10-05T09:08:31Z</time>
      </trkpt>
      <trkpt lat="43.33634" lon="5.78969">
        <ele>980.2</ele>
        <time>2025-10-05T09:08:32Z</time>
      </trkpt>
      <trkpt lat="43.33634" lon="5.7897">
        <ele>980.2</ele>
        <time>2025-10-05T09:08:33Z</time>
      </trkpt>
      <trkpt lat="43.33634" lon="5.78969">
        <ele>980.1</ele>
        <time>2025-10-05T09:08:34Z</time>
      </trkpt>
      <trkpt lat="43.33634" lon="5.78969">
        <ele>980.1</ele>
        <time>2025-10-05T09:08:35Z</time>
      </trkpt>
      <trkpt lat="43.33634" lon="5.78969">
        <ele>979.9</ele>
        <time>2025-10-05T09:08:36Z</time>
      </trkpt>
      <trkpt lat="43.33634" lon="5.78969">
        <ele>979.7</ele>
        <time>2025-10-05T09:08:37Z</time>
      </trkpt>
      <trkpt lat="43.33634" lon="5.78969">
        <ele>979.6</ele>
        <time>2025-10-05T09:08:38Z</time>
      </trkpt>
      <trkpt lat="43.33634" lon="5.78968">
        <ele>979.7</ele>
        <time>2025-10-05T09:08:39Z</time>
      </trkpt>
      <trkpt lat="43.33634" lon="5.78968">
        <ele>979.7</ele>
        <time>2025-10-05T09:08:40Z</time>
      </trkpt>
      <trkpt lat="43.33634" lon="5.78968">
        <ele>979.7</ele>
        <time>2025-10-05T09:08:41Z</time>
      </trkpt>
      <trkpt lat="43.33634" lon="5.78968">
        <ele>979.6</ele>
        <time>2025-10-05T09:08:42Z</time>
      </trkpt>
      <trkpt lat="43.33634" lon="5.78968">
        <ele>979.3</ele>
        <time>2025-10-05T09:08:43Z</time>
      </trkpt>
      <trkpt lat="43.33634" lon="5.78968">
        <ele>979.2</ele>
        <time>2025-10-05T09:08:44Z</time>
      </trkpt>
      <trkpt lat="43.33634" lon="5.78968">
        <ele>979.3</ele>
        <time>2025-10-05T09:08:45Z</time>
      </trkpt>
      <trkpt lat="43.33634" lon="5.78969">
        <ele>979.2</ele>
        <time>2025-10-05T09:08:46Z</time>
      </trkpt>
      <trkpt lat="43.33634" lon="5.78969">
        <ele>979.2</ele>
        <time>2025-10-05T09:08:47Z</time>
      </trkpt>
      <trkpt lat="43.33634" lon="5.78969">
        <ele>979.3</ele>
        <time>2025-10-05T09:08:48Z</time>
      </trkpt>
      <trkpt lat="43.33634" lon="5.78969">
        <ele>979.3</ele>
        <time>2025-10-05T09:08:49Z</time>
      </trkpt>
      <trkpt lat="43.33634" lon="5.78969">
        <ele>979.4</ele>
        <time>2025-10-05T09:08:50Z</time>
      </trkpt>
      <trkpt lat="43.33633" lon="5.7897">
        <ele>979.5</ele>
        <time>2025-10-05T09:08:51Z</time>
      </trkpt>
      <trkpt lat="43.33633" lon="5.7897">
        <ele>979.6</ele>
        <time>2025-10-05T09:08:52Z</time>
      </trkpt>
      <trkpt lat="43.33633" lon="5.7897">
        <ele>979.8</ele>
        <time>2025-10-05T09:08:53Z</time>
      </trkpt>
      <trkpt lat="43.33633" lon="5.78971">
        <ele>979.7</ele>
        <time>2025-10-05T09:08:54Z</time>
      </trkpt>
      <trkpt lat="43.33633" lon="5.78971">
        <ele>979.8</ele>
        <time>2025-10-05T09:08:55Z</time>
      </trkpt>
      <trkpt lat="43.33633" lon="5.78971">
        <ele>979.9</ele>
        <time>2025-10-05T09:08:56Z</time>
      </trkpt>
      <trkpt lat="43.33633" lon="5.78971">
        <ele>980</ele>
        <time>2025-10-05T09:08:57Z</time>
      </trkpt>
      <trkpt lat="43.33633" lon="5.78971">
        <ele>980.1</ele>
        <time>2025-10-05T09:08:58Z</time>
      </trkpt>
      <trkpt lat="43.33633" lon="5.78972">
        <ele>980.2</ele>
        <time>2025-10-05T09:08:59Z</time>
      </trkpt>
      <trkpt lat="43.33633" lon="5.78972">
        <ele>980.3</ele>
        <time>2025-10-05T09:09:00Z</time>
      </trkpt>
      <trkpt lat="43.33633" lon="5.78973">
        <ele>980.6</ele>
        <time>2025-10-05T09:09:01Z</time>
      </trkpt>
      <trkpt lat="43.33633" lon="5.78973">
        <ele>980.9</ele>
        <time>2025-10-05T09:09:02Z</time>
      </trkpt>
      <trkpt lat="43.33633" lon="5.78973">
        <ele>981.2</ele>
        <time>2025-10-05T09:09:03Z</time>
      </trkpt>
      <trkpt lat="43.33633" lon="5.78974">
        <ele>981.5</ele>
        <time>2025-10-05T09:09:04Z</time>
      </trkpt>
      <trkpt lat="43.33633" lon="5.78974">
        <ele>981.7</ele>
        <time>2025-10-05T09:09:05Z</time>
      </trkpt>
      <trkpt lat="43.33633" lon="5.78974">
        <ele>981.9</ele>
        <time>2025-10-05T09:09:06Z</time>
      </trkpt>
      <trkpt lat="43.33633" lon="5.78975">
        <ele>982.2</ele>
        <time>2025-10-05T09:09:07Z</time>
      </trkpt>
      <trkpt lat="43.33633" lon="5.78976">
        <ele>982.4</ele>
        <time>2025-10-05T09:09:08Z</time>
      </trkpt>
      <trkpt lat="43.33633" lon="5.78976">
        <ele>982.7</ele>
        <time>2025-10-05T09:09:09Z</time>
      </trkpt>
      <trkpt lat="43.33633" lon="5.78977">
        <ele>983</ele>
        <time>2025-10-05T09:09:10Z</time>
      </trkpt>
      <trkpt lat="43.33633" lon="5.78977">
        <ele>983.1</ele>
        <time>2025-10-05T09:09:11Z</time>
      </trkpt>
      <trkpt lat="43.33633" lon="5.78977">
        <ele>983.3</ele>
        <time>2025-10-05T09:09:12Z</time>
      </trkpt>
      <trkpt lat="43.33633" lon="5.78978">
        <ele>983.6</ele>
        <time>2025-10-05T09:09:13Z</time>
      </trkpt>
      <trkpt lat="43.33632" lon="5.78979">
        <ele>983.8</ele>
        <time>2025-10-05T09:09:14Z</time>
      </trkpt>
      <trkpt lat="43.33632" lon="5.78979">
        <ele>983.9</ele>
        <time>2025-10-05T09:09:15Z</time>
      </trkpt>
      <trkpt lat="43.33632" lon="5.78979">
        <ele>984.2</ele>
        <time>2025-10-05T09:09:16Z</time>
      </trkpt>
      <trkpt lat="43.33632" lon="5.7898">
        <ele>984.2</ele>
        <time>2025-10-05T09:09:17Z</time>
      </trkpt>
      <trkpt lat="43.33632" lon="5.78981">
        <ele>984.4</ele>
        <time>2025-10-05T09:09:18Z</time>
      </trkpt>
      <trkpt lat="43.33631" lon="5.78981">
        <ele>984.9</ele>
        <time>2025-10-05T09:09:19Z</time>
      </trkpt>
      <trkpt lat="43.33631" lon="5.78981">
        <ele>985.1</ele>
        <time>2025-10-05T09:09:20Z</time>
      </trkpt>
      <trkpt lat="43.3363" lon="5.78982">
        <ele>985.1</ele>
        <time>2025-10-05T09:09:21Z</time>
      </trkpt>
      <trkpt lat="43.3363" lon="5.78982">
        <ele>985.7</ele>
        <time>2025-10-05T09:09:22Z</time>
      </trkpt>
      <trkpt lat="43.3363" lon="5.78983">
        <ele>985.8</ele>
        <time>2025-10-05T09:09:23Z</time>
      </trkpt>
      <trkpt lat="43.33629" lon="5.78983">
        <ele>986.2</ele>
        <time>2025-10-05T09:09:24Z</time>
      </trkpt>
      <trkpt lat="43.33629" lon="5.78984">
        <ele>986.4</ele>
        <time>2025-10-05T09:09:25Z</time>
      </trkpt>
      <trkpt lat="43.33629" lon="5.78984">
        <ele>986.6</ele>
        <time>2025-10-05T09:09:26Z</time>
      </trkpt>
      <trkpt lat="43.33629" lon="5.78984">
        <ele>986.8</ele>
        <time>2025-10-05T09:09:27Z</time>
      </trkpt>
      <trkpt lat="43.33629" lon="5.78985">
        <ele>987</ele>
        <time>2025-10-05T09:09:28Z</time>
      </trkpt>
      <trkpt lat="43.33629" lon="5.78985">
        <ele>987.1</ele>
        <time>2025-10-05T09:09:29Z</time>
      </trkpt>
      <trkpt lat="43.33629" lon="5.78985">
        <ele>987.2</ele>
        <time>2025-10-05T09:09:30Z</time>
      </trkpt>
      <trkpt lat="43.33629" lon="5.78985">
        <ele>987.4</ele>
        <time>2025-10-05T09:09:31Z</time>
      </trkpt>
      <trkpt lat="43.33629" lon="5.78985">
        <ele>987.5</ele>
        <time>2025-10-05T09:09:32Z</time>
      </trkpt>
      <trkpt lat="43.3363" lon="5.78986">
        <ele>987.7</ele>
        <time>2025-10-05T09:09:33Z</time>
      </trkpt>
      <trkpt lat="43.3363" lon="5.78985">
        <ele>988</ele>
        <time>2025-10-05T09:09:34Z</time>
      </trkpt>
      <trkpt lat="43.3363" lon="5.78985">
        <ele>988.1</ele>
        <time>2025-10-05T09:09:35Z</time>
      </trkpt>
      <trkpt lat="43.3363" lon="5.78985">
        <ele>988.2</ele>
        <time>2025-10-05T09:09:36Z</time>
      </trkpt>
      <trkpt lat="43.33629" lon="5.78985">
        <ele>988.3</ele>
        <time>2025-10-05T09:09:37Z</time>
      </trkpt>
      <trkpt lat="43.33629" lon="5.78985">
        <ele>988.4</ele>
        <time>2025-10-05T09:09:38Z</time>
      </trkpt>
      <trkpt lat="43.33629" lon="5.78985">
        <ele>988.3</ele>
        <time>2025-10-05T09:09:39Z</time>
      </trkpt>
      <trkpt lat="43.3363" lon="5.78985">
        <ele>988.4</ele>
        <time>2025-10-05T09:09:40Z</time>
      </trkpt>
      <trkpt lat="43.3363" lon="5.78986">
        <ele>988.4</ele>
        <time>2025-10-05T09:09:41Z</time>
      </trkpt>
      <trkpt lat="43.3363" lon="5.78985">
        <ele>988.5</ele>
        <time>2025-10-05T09:09:42Z</time>
      </trkpt>
      <trkpt lat="43.3363" lon="5.78985">
        <ele>988.6</ele>
        <time>2025-10-05T09:09:43Z</time>
      </trkpt>
      <trkpt lat="43.33629" lon="5.78986">
        <ele>988.6</ele>
        <time>2025-10-05T09:09:44Z</time>
      </trkpt>
      <trkpt lat="43.33629" lon="5.78986">
        <ele>988.7</ele>
        <time>2025-10-05T09:09:45Z</time>
      </trkpt>
      <trkpt lat="43.33629" lon="5.78986">
        <ele>988.9</ele>
        <time>2025-10-05T09:09:46Z</time>
      </trkpt>
      <trkpt lat="43.33629" lon="5.78986">
        <ele>989</ele>
        <time>2025-10-05T09:09:47Z</time>
      </trkpt>
      <trkpt lat="43.3363" lon="5.78986">
        <ele>989</ele>
        <time>2025-10-05T09:09:48Z</time>
      </trkpt>
      <trkpt lat="43.3363" lon="5.78987">
        <ele>989</ele>
        <time>2025-10-05T09:09:49Z</time>
      </trkpt>
      <trkpt lat="43.3363" lon="5.78987">
        <ele>988.9</ele>
        <time>2025-10-05T09:09:50Z</time>
      </trkpt>
      <trkpt lat="43.3363" lon="5.78987">
        <ele>988.8</ele>
        <time>2025-10-05T09:09:51Z</time>
      </trkpt>
      <trkpt lat="43.3363" lon="5.78987">
        <ele>988.8</ele>
        <time>2025-10-05T09:09:52Z</time>
      </trkpt>
      <trkpt lat="43.3363" lon="5.78987">
        <ele>988.8</ele>
        <time>2025-10-05T09:09:53Z</time>
      </trkpt>
      <trkpt lat="43.3363" lon="5.78987">
        <ele>988.9</ele>
        <time>2025-10-05T09:09:54Z</time>
      </trkpt>
      <trkpt lat="43.33629" lon="5.78986">
        <ele>988.9</ele>
        <time>2025-10-05T09:09:55Z</time>
      </trkpt>
      <trkpt lat="43.33629" lon="5.78986">
        <ele>989</ele>
        <time>2025-10-05T09:09:56Z</time>
      </trkpt>
      <trkpt lat="43.3363" lon="5.78986">
        <ele>989</ele>
        <time>2025-10-05T09:09:57Z</time>
      </trkpt>
      <trkpt lat="43.3363" lon="5.78986">
        <ele>988.8</ele>
        <time>2025-10-05T09:09:58Z</time>
      </trkpt>
      <trkpt lat="43.3363" lon="5.78986">
        <ele>988.7</ele>
        <time>2025-10-05T09:09:59Z</time>
      </trkpt>
      <trkpt lat="43.3363" lon="5.78985">
        <ele>988.6</ele>
        <time>2025-10-05T09:10:00Z</time>
      </trkpt>
      <trkpt lat="43.3363" lon="5.78986">
        <ele>988.6</ele>
        <time>2025-10-05T09:10:01Z</time>
      </trkpt>
      <trkpt lat="43.3363" lon="5.78986">
        <ele>988.5</ele>
        <time>2025-10-05T09:10:02Z</time>
      </trkpt>
      <trkpt lat="43.3363" lon="5.78987">
        <ele>988.5</ele>
        <time>2025-10-05T09:10:03Z</time>
      </trkpt>
      <trkpt lat="43.3363" lon="5.78987">
        <ele>988.9</ele>
        <time>2025-10-05T09:10:04Z</time>
      </trkpt>
      <trkpt lat="43.3363" lon="5.78988">
        <ele>988.9</ele>
        <time>2025-10-05T09:10:05Z</time>
      </trkpt>
      <trkpt lat="43.3363" lon="5.78988">
        <ele>989</ele>
        <time>2025-10-05T09:10:06Z</time>
      </trkpt>
      <trkpt lat="43.3363" lon="5.78988">
        <ele>989.1</ele>
        <time>2025-10-05T09:10:07Z</time>
      </trkpt>
      <trkpt lat="43.3363" lon="5.78989">
        <ele>989.2</ele>
        <time>2025-10-05T09:10:08Z</time>
      </trkpt>
      <trkpt lat="43.3363" lon="5.78989">
        <ele>989.3</ele>
        <time>2025-10-05T09:10:09Z</time>
      </trkpt>
      <trkpt lat="43.3363" lon="5.7899">
        <ele>989.4</ele>
        <time>2025-10-05T09:10:10Z</time>
      </trkpt>
      <trkpt lat="43.33629" lon="5.7899">
        <ele>989.4</ele>
        <time>2025-10-05T09:10:11Z</time>
      </trkpt>
      <trkpt lat="43.33629" lon="5.7899">
        <ele>989.6</ele>
        <time>2025-10-05T09:10:12Z</time>
      </trkpt>
      <trkpt lat="43.33629" lon="5.78991">
        <ele>989.8</ele>
        <time>2025-10-05T09:10:13Z</time>
      </trkpt>
      <trkpt lat="43.33629" lon="5.78991">
        <ele>990</ele>
        <time>2025-10-05T09:10:14Z</time>
      </trkpt>
      <trkpt lat="43.33628" lon="5.78991">
        <ele>990.1</ele>
        <time>2025-10-05T09:10:15Z</time>
      </trkpt>
      <trkpt lat="43.33628" lon="5.78991">
        <ele>990.3</ele>
        <time>2025-10-05T09:10:16Z</time>
      </trkpt>
      <trkpt lat="43.33628" lon="5.78992">
        <ele>990.6</ele>
        <time>2025-10-05T09:10:17Z</time>
      </trkpt>
      <trkpt lat="43.33628" lon="5.78992">
        <ele>990.8</ele>
        <time>2025-10-05T09:10:18Z</time>
      </trkpt>
      <trkpt lat="43.33628" lon="5.78992">
        <ele>990.9</ele>
        <time>2025-10-05T09:10:19Z</time>
      </trkpt>
      <trkpt lat="43.33628" lon="5.78992">
        <ele>991.1</ele>
        <time>2025-10-05T09:10:20Z</time>
      </trkpt>
      <trkpt lat="43.33628" lon="5.78992">
        <ele>991.4</ele>
        <time>2025-10-05T09:10:21Z</time>
      </trkpt>
      <trkpt lat="43.33628" lon="5.78992">
        <ele>991.5</ele>
        <time>2025-10-05T09:10:22Z</time>
      </trkpt>
      <trkpt lat="43.33628" lon="5.78992">
        <ele>991.5</ele>
        <time>2025-10-05T09:10:23Z</time>
      </trkpt>
      <trkpt lat="43.33628" lon="5.78993">
        <ele>991.4</ele>
        <time>2025-10-05T09:10:24Z</time>
      </trkpt>
      <trkpt lat="43.33628" lon="5.78993">
        <ele>991.3</ele>
        <time>2025-10-05T09:10:25Z</time>
      </trkpt>
      <trkpt lat="43.33628" lon="5.78993">
        <ele>991.2</ele>
        <time>2025-10-05T09:10:26Z</time>
      </trkpt>
      <trkpt lat="43.33628" lon="5.78993">
        <ele>991.1</ele>
        <time>2025-10-05T09:10:27Z</time>
      </trkpt>
      <trkpt lat="43.33628" lon="5.78993">
        <ele>991.1</ele>
        <time>2025-10-05T09:10:28Z</time>
      </trkpt>
      <trkpt lat="43.33628" lon="5.78993">
        <ele>991.1</ele>
        <time>2025-10-05T09:10:29Z</time>
      </trkpt>
      <trkpt lat="43.33628" lon="5.78993">
        <ele>991.1</ele>
        <time>2025-10-05T09:10:30Z</time>
      </trkpt>
      <trkpt lat="43.33628" lon="5.78993">
        <ele>991.2</ele>
        <time>2025-10-05T09:10:31Z</time>
      </trkpt>
      <trkpt lat="43.33628" lon="5.78993">
        <ele>991.1</ele>
        <time>2025-10-05T09:10:32Z</time>
      </trkpt>
      <trkpt lat="43.33628" lon="5.78993">
        <ele>991</ele>
        <time>2025-10-05T09:10:33Z</time>
      </trkpt>
      <trkpt lat="43.33628" lon="5.78993">
        <ele>990.9</ele>
        <time>2025-10-05T09:10:34Z</time>
      </trkpt>
      <trkpt lat="43.33628" lon="5.78993">
        <ele>990.8</ele>
        <time>2025-10-05T09:10:35Z</time>
      </trkpt>
      <trkpt lat="43.33628" lon="5.78993">
        <ele>990.8</ele>
        <time>2025-10-05T09:10:36Z</time>
      </trkpt>
      <trkpt lat="43.33628" lon="5.78993">
        <ele>990.9</ele>
        <time>2025-10-05T09:10:37Z</time>
      </trkpt>
      <trkpt lat="43.33627" lon="5.78993">
        <ele>991</ele>
        <time>2025-10-05T09:10:38Z</time>
      </trkpt>
      <trkpt lat="43.33627" lon="5.78993">
        <ele>991.1</ele>
        <time>2025-10-05T09:10:39Z</time>
      </trkpt>
      <trkpt lat="43.33627" lon="5.78994">
        <ele>991.2</ele>
        <time>2025-10-05T09:10:40Z</time>
      </trkpt>
      <trkpt lat="43.33627" lon="5.78994">
        <ele>991.3</ele>
        <time>2025-10-05T09:10:41Z</time>
      </trkpt>
      <trkpt lat="43.33627" lon="5.78995">
        <ele>991.5</ele>
        <time>2025-10-05T09:10:42Z</time>
      </trkpt>
      <trkpt lat="43.33627" lon="5.78995">
        <ele>991.6</ele>
        <time>2025-10-05T09:10:43Z</time>
      </trkpt>
      <trkpt lat="43.33627" lon="5.78995">
        <ele>991.8</ele>
        <time>2025-10-05T09:10:44Z</time>
      </trkpt>
      <trkpt lat="43.33627" lon="5.78996">
        <ele>991.8</ele>
        <time>2025-10-05T09:10:45Z</time>
      </trkpt>
      <trkpt lat="43.33626" lon="5.78996">
        <ele>992</ele>
        <time>2025-10-05T09:10:46Z</time>
      </trkpt>
      <trkpt lat="43.33626" lon="5.78997">
        <ele>992.2</ele>
        <time>2025-10-05T09:10:47Z</time>
      </trkpt>
      <trkpt lat="43.33626" lon="5.78997">
        <ele>992.4</ele>
        <time>2025-10-05T09:10:48Z</time>
      </trkpt>
      <trkpt lat="43.33626" lon="5.78997">
        <ele>992.8</ele>
        <time>2025-10-05T09:10:49Z</time>
      </trkpt>
      <trkpt lat="43.33626" lon="5.78997">
        <ele>993</ele>
        <time>2025-10-05T09:10:50Z</time>
      </trkpt>
      <trkpt lat="43.33626" lon="5.78997">
        <ele>993.1</ele>
        <time>2025-10-05T09:10:51Z</time>
      </trkpt>
      <trkpt lat="43.33626" lon="5.78998">
        <ele>993.2</ele>
        <time>2025-10-05T09:10:52Z</time>
      </trkpt>
      <trkpt lat="43.33626" lon="5.78998">
        <ele>993.6</ele>
        <time>2025-10-05T09:10:53Z</time>
      </trkpt>
      <trkpt lat="43.33626" lon="5.78998">
        <ele>993.8</ele>
        <time>2025-10-05T09:10:54Z</time>
      </trkpt>
      <trkpt lat="43.33625" lon="5.78998">
        <ele>994.1</ele>
        <time>2025-10-05T09:10:55Z</time>
      </trkpt>
      <trkpt lat="43.33625" lon="5.78999">
        <ele>994.3</ele>
        <time>2025-10-05T09:10:56Z</time>
      </trkpt>
      <trkpt lat="43.33625" lon="5.79">
        <ele>994.5</ele>
        <time>2025-10-05T09:10:57Z</time>
      </trkpt>
      <trkpt lat="43.33625" lon="5.79">
        <ele>994.7</ele>
        <time>2025-10-05T09:10:58Z</time>
      </trkpt>
      <trkpt lat="43.33625" lon="5.79001">
        <ele>994.9</ele>
        <time>2025-10-05T09:10:59Z</time>
      </trkpt>
      <trkpt lat="43.33624" lon="5.79001">
        <ele>995.2</ele>
        <time>2025-10-05T09:11:00Z</time>
      </trkpt>
      <trkpt lat="43.33624" lon="5.79001">
        <ele>995.5</ele>
        <time>2025-10-05T09:11:01Z</time>
      </trkpt>
      <trkpt lat="43.33624" lon="5.79001">
        <ele>995.8</ele>
        <time>2025-10-05T09:11:02Z</time>
      </trkpt>
      <trkpt lat="43.33624" lon="5.79002">
        <ele>996</ele>
        <time>2025-10-05T09:11:03Z</time>
      </trkpt>
      <trkpt lat="43.33624" lon="5.79002">
        <ele>996.2</ele>
        <time>2025-10-05T09:11:04Z</time>
      </trkpt>
      <trkpt lat="43.33624" lon="5.79002">
        <ele>996.5</ele>
        <time>2025-10-05T09:11:05Z</time>
      </trkpt>
      <trkpt lat="43.33624" lon="5.79001">
        <ele>996.7</ele>
        <time>2025-10-05T09:11:06Z</time>
      </trkpt>
      <trkpt lat="43.33624" lon="5.79001">
        <ele>996.7</ele>
        <time>2025-10-05T09:11:07Z</time>
      </trkpt>
      <trkpt lat="43.33624" lon="5.79001">
        <ele>996.7</ele>
        <time>2025-10-05T09:11:08Z</time>
      </trkpt>
      <trkpt lat="43.33624" lon="5.79002">
        <ele>996.9</ele>
        <time>2025-10-05T09:11:09Z</time>
      </trkpt>
      <trkpt lat="43.33623" lon="5.79002">
        <ele>997</ele>
        <time>2025-10-05T09:11:10Z</time>
      </trkpt>
      <trkpt lat="43.33623" lon="5.79002">
        <ele>997.2</ele>
        <time>2025-10-05T09:11:11Z</time>
      </trkpt>
      <trkpt lat="43.33623" lon="5.79003">
        <ele>997.4</ele>
        <time>2025-10-05T09:11:12Z</time>
      </trkpt>
      <trkpt lat="43.33623" lon="5.79003">
        <ele>997.6</ele>
        <time>2025-10-05T09:11:13Z</time>
      </trkpt>
      <trkpt lat="43.33623" lon="5.79003">
        <ele>997.8</ele>
        <time>2025-10-05T09:11:14Z</time>
      </trkpt>
      <trkpt lat="43.33623" lon="5.79003">
        <ele>998.1</ele>
        <time>2025-10-05T09:11:15Z</time>
      </trkpt>
      <trkpt lat="43.33622" lon="5.79003">
        <ele>998.3</ele>
        <time>2025-10-05T09:11:16Z</time>
      </trkpt>
      <trkpt lat="43.33622" lon="5.79003">
        <ele>998.6</ele>
        <time>2025-10-05T09:11:17Z</time>
      </trkpt>
      <trkpt lat="43.33621" lon="5.79003">
        <ele>999</ele>
        <time>2025-10-05T09:11:18Z</time>
      </trkpt>
      <trkpt lat="43.33621" lon="5.79004">
        <ele>999.2</ele>
        <time>2025-10-05T09:11:19Z</time>
      </trkpt>
      <trkpt lat="43.3362" lon="5.79004">
        <ele>999.4</ele>
        <time>2025-10-05T09:11:20Z</time>
      </trkpt>
      <trkpt lat="43.3362" lon="5.79005">
        <ele>999.7</ele>
        <time>2025-10-05T09:11:21Z</time>
      </trkpt>
      <trkpt lat="43.3362" lon="5.79005">
        <ele>1000</ele>
        <time>2025-10-05T09:11:22Z</time>
      </trkpt>
      <trkpt lat="43.3362" lon="5.79005">
        <ele>1000.2</ele>
        <time>2025-10-05T09:11:23Z</time>
      </trkpt>
      <trkpt lat="43.3362" lon="5.79006">
        <ele>1000.5</ele>
        <time>2025-10-05T09:11:24Z</time>
      </trkpt>
      <trkpt lat="43.3362" lon="5.79006">
        <ele>1000.6</ele>
        <time>2025-10-05T09:11:25Z</time>
      </trkpt>
      <trkpt lat="43.3362" lon="5.79006">
        <ele>1000.7</ele>
        <time>2025-10-05T09:11:26Z</time>
      </trkpt>
      <trkpt lat="43.3362" lon="5.79006">
        <ele>1001.1</ele>
        <time>2025-10-05T09:11:27Z</time>
      </trkpt>
      <trkpt lat="43.33619" lon="5.79007">
        <ele>1001.4</ele>
        <time>2025-10-05T09:11:28Z</time>
      </trkpt>
      <trkpt lat="43.33619" lon="5.79007">
        <ele>1001.7</ele>
        <time>2025-10-05T09:11:29Z</time>
      </trkpt>
      <trkpt lat="43.33619" lon="5.79008">
        <ele>1002</ele>
        <time>2025-10-05T09:11:30Z</time>
      </trkpt>
      <trkpt lat="43.33618" lon="5.79008">
        <ele>1002.2</ele>
        <time>2025-10-05T09:11:31Z</time>
      </trkpt>
      <trkpt lat="43.33618" lon="5.79008">
        <ele>1002.4</ele>
        <time>2025-10-05T09:11:32Z</time>
      </trkpt>
      <trkpt lat="43.33618" lon="5.79009">
        <ele>1002.6</ele>
        <time>2025-10-05T09:11:33Z</time>
      </trkpt>
      <trkpt lat="43.33618" lon="5.79009">
        <ele>1002.7</ele>
        <time>2025-10-05T09:11:34Z</time>
      </trkpt>
      <trkpt lat="43.33618" lon="5.79009">
        <ele>1003</ele>
        <time>2025-10-05T09:11:35Z</time>
      </trkpt>
      <trkpt lat="43.33617" lon="5.7901">
        <ele>1003.1</ele>
        <time>2025-10-05T09:11:36Z</time>
      </trkpt>
      <trkpt lat="43.33617" lon="5.7901">
        <ele>1003.3</ele>
        <time>2025-10-05T09:11:37Z</time>
      </trkpt>
      <trkpt lat="43.33617" lon="5.79011">
        <ele>1003.4</ele>
        <time>2025-10-05T09:11:38Z</time>
      </trkpt>
      <trkpt lat="43.33618" lon="5.79011">
        <ele>1003.6</ele>
        <time>2025-10-05T09:11:39Z</time>
      </trkpt>
      <trkpt lat="43.33618" lon="5.79011">
        <ele>1003.6</ele>
        <time>2025-10-05T09:11:40Z</time>
      </trkpt>
      <trkpt lat="43.33618" lon="5.79011">
        <ele>1003.8</ele>
        <time>2025-10-05T09:11:41Z</time>
      </trkpt>
      <trkpt lat="43.33618" lon="5.79011">
        <ele>1003.9</ele>
        <time>2025-10-05T09:11:42Z</time>
      </trkpt>
      <trkpt lat="43.33618" lon="5.79011">
        <ele>1004.1</ele>
        <time>2025-10-05T09:11:43Z</time>
      </trkpt>
      <trkpt lat="43.33617" lon="5.79011">
        <ele>1004.4</ele>
        <time>2025-10-05T09:11:44Z</time>
      </trkpt>
      <trkpt lat="43.33617" lon="5.79011">
        <ele>1004.5</ele>
        <time>2025-10-05T09:11:45Z</time>
      </trkpt>
      <trkpt lat="43.33617" lon="5.79011">
        <ele>1004.6</ele>
        <time>2025-10-05T09:11:46Z</time>
      </trkpt>
      <trkpt lat="43.33617" lon="5.79011">
        <ele>1004.6</ele>
        <time>2025-10-05T09:11:47Z</time>
      </trkpt>
      <trkpt lat="43.33616" lon="5.79011">
        <ele>1004.7</ele>
        <time>2025-10-05T09:11:48Z</time>
      </trkpt>
      <trkpt lat="43.33616" lon="5.7901">
        <ele>1004.9</ele>
        <time>2025-10-05T09:11:49Z</time>
      </trkpt>
      <trkpt lat="43.33615" lon="5.7901">
        <ele>1005</ele>
        <time>2025-10-05T09:11:50Z</time>
      </trkpt>
      <trkpt lat="43.33615" lon="5.7901">
        <ele>1005.1</ele>
        <time>2025-10-05T09:11:51Z</time>
      </trkpt>
      <trkpt lat="43.33615" lon="5.7901">
        <ele>1005.1</ele>
        <time>2025-10-05T09:11:52Z</time>
      </trkpt>
      <trkpt lat="43.33615" lon="5.7901">
        <ele>1005.1</ele>
        <time>2025-10-05T09:11:53Z</time>
      </trkpt>
      <trkpt lat="43.33614" lon="5.79009">
        <ele>1005.1</ele>
        <time>2025-10-05T09:11:54Z</time>
      </trkpt>
      <trkpt lat="43.33614" lon="5.7901">
        <ele>1005.2</ele>
        <time>2025-10-05T09:11:55Z</time>
      </trkpt>
      <trkpt lat="43.33613" lon="5.7901">
        <ele>1005.2</ele>
        <time>2025-10-05T09:11:56Z</time>
      </trkpt>
      <trkpt lat="43.33613" lon="5.79009">
        <ele>1005.2</ele>
        <time>2025-10-05T09:11:57Z</time>
      </trkpt>
      <trkpt lat="43.33613" lon="5.79009">
        <ele>1005.2</ele>
        <time>2025-10-05T09:11:58Z</time>
      </trkpt>
      <trkpt lat="43.33612" lon="5.79008">
        <ele>1005.5</ele>
        <time>2025-10-05T09:11:59Z</time>
      </trkpt>
      <trkpt lat="43.33612" lon="5.79008">
        <ele>1005.7</ele>
        <time>2025-10-05T09:12:00Z</time>
      </trkpt>
      <trkpt lat="43.33612" lon="5.79008">
        <ele>1005.8</ele>
        <time>2025-10-05T09:12:01Z</time>
      </trkpt>
      <trkpt lat="43.33612" lon="5.79008">
        <ele>1005.8</ele>
        <time>2025-10-05T09:12:02Z</time>
      </trkpt>
      <trkpt lat="43.33611" lon="5.79008">
        <ele>1006</ele>
        <time>2025-10-05T09:12:03Z</time>
      </trkpt>
      <trkpt lat="43.33611" lon="5.79008">
        <ele>1006.1</ele>
        <time>2025-10-05T09:12:04Z</time>
      </trkpt>
      <trkpt lat="43.33611" lon="5.79008">
        <ele>1006.2</ele>
        <time>2025-10-05T09:12:05Z</time>
      </trkpt>
      <trkpt lat="43.3361" lon="5.79008">
        <ele>1006.3</ele>
        <time>2025-10-05T09:12:06Z</time>
      </trkpt>
      <trkpt lat="43.3361" lon="5.79008">
        <ele>1006.3</ele>
        <time>2025-10-05T09:12:07Z</time>
      </trkpt>
      <trkpt lat="43.33609" lon="5.79008">
        <ele>1006.6</ele>
        <time>2025-10-05T09:12:08Z</time>
      </trkpt>
      <trkpt lat="43.33609" lon="5.79008">
        <ele>1006.8</ele>
        <time>2025-10-05T09:12:09Z</time>
      </trkpt>
      <trkpt lat="43.33609" lon="5.79009">
        <ele>1006.7</ele>
        <time>2025-10-05T09:12:10Z</time>
      </trkpt>
      <trkpt lat="43.33609" lon="5.79009">
        <ele>1006.8</ele>
        <time>2025-10-05T09:12:11Z</time>
      </trkpt>
      <trkpt lat="43.33608" lon="5.79009">
        <ele>1006.9</ele>
        <time>2025-10-05T09:12:12Z</time>
      </trkpt>
      <trkpt lat="43.33608" lon="5.7901">
        <ele>1007</ele>
        <time>2025-10-05T09:12:13Z</time>
      </trkpt>
      <trkpt lat="43.33608" lon="5.7901">
        <ele>1007.1</ele>
        <time>2025-10-05T09:12:14Z</time>
      </trkpt>
      <trkpt lat="43.33607" lon="5.7901">
        <ele>1007.2</ele>
        <time>2025-10-05T09:12:15Z</time>
      </trkpt>
      <trkpt lat="43.33607" lon="5.7901">
        <ele>1007.2</ele>
        <time>2025-10-05T09:12:16Z</time>
      </trkpt>
      <trkpt lat="43.33608" lon="5.7901">
        <ele>1007.3</ele>
        <time>2025-10-05T09:12:17Z</time>
      </trkpt>
      <trkpt lat="43.33608" lon="5.7901">
        <ele>1007.1</ele>
        <time>2025-10-05T09:12:18Z</time>
      </trkpt>
      <trkpt lat="43.33608" lon="5.7901">
        <ele>1007.1</ele>
        <time>2025-10-05T09:12:19Z</time>
      </trkpt>
      <trkpt lat="43.33608" lon="5.7901">
        <ele>1007.2</ele>
        <time>2025-10-05T09:12:20Z</time>
      </trkpt>
      <trkpt lat="43.33609" lon="5.7901">
        <ele>1007.2</ele>
        <time>2025-10-05T09:12:21Z</time>
      </trkpt>
      <trkpt lat="43.33608" lon="5.7901">
        <ele>1007.3</ele>
        <time>2025-10-05T09:12:22Z</time>
      </trkpt>
      <trkpt lat="43.33608" lon="5.7901">
        <ele>1007.4</ele>
        <time>2025-10-05T09:12:23Z</time>
      </trkpt>
      <trkpt lat="43.33607" lon="5.79009">
        <ele>1007.5</ele>
        <time>2025-10-05T09:12:24Z</time>
      </trkpt>
      <trkpt lat="43.33608" lon="5.79009">
        <ele>1007.7</ele>
        <time>2025-10-05T09:12:25Z</time>
      </trkpt>
      <trkpt lat="43.33607" lon="5.7901">
        <ele>1008</ele>
        <time>2025-10-05T09:12:26Z</time>
      </trkpt>
      <trkpt lat="43.33608" lon="5.7901">
        <ele>1008.1</ele>
        <time>2025-10-05T09:12:27Z</time>
      </trkpt>
      <trkpt lat="43.33608" lon="5.79009">
        <ele>1008.5</ele>
        <time>2025-10-05T09:12:28Z</time>
      </trkpt>
      <trkpt lat="43.33608" lon="5.79009">
        <ele>1008.7</ele>
        <time>2025-10-05T09:12:29Z</time>
      </trkpt>
      <trkpt lat="43.33607" lon="5.79009">
        <ele>1008.9</ele>
        <time>2025-10-05T09:12:30Z</time>
      </trkpt>
      <trkpt lat="43.33607" lon="5.79009">
        <ele>1009</ele>
        <time>2025-10-05T09:12:31Z</time>
      </trkpt>
      <trkpt lat="43.33607" lon="5.79009">
        <ele>1009.2</ele>
        <time>2025-10-05T09:12:32Z</time>
      </trkpt>
      <trkpt lat="43.33607" lon="5.7901">
        <ele>1009.3</ele>
        <time>2025-10-05T09:12:33Z</time>
      </trkpt>
      <trkpt lat="43.33606" lon="5.7901">
        <ele>1009.4</ele>
        <time>2025-10-05T09:12:34Z</time>
      </trkpt>
      <trkpt lat="43.33606" lon="5.79011">
        <ele>1009.7</ele>
        <time>2025-10-05T09:12:35Z</time>
      </trkpt>
      <trkpt lat="43.33606" lon="5.79011">
        <ele>1009.8</ele>
        <time>2025-10-05T09:12:36Z</time>
      </trkpt>
      <trkpt lat="43.33606" lon="5.79011">
        <ele>1010</ele>
        <time>2025-10-05T09:12:37Z</time>
      </trkpt>
      <trkpt lat="43.33606" lon="5.79011">
        <ele>1010.3</ele>
        <time>2025-10-05T09:12:38Z</time>
      </trkpt>
      <trkpt lat="43.33605" lon="5.79011">
        <ele>1010.6</ele>
        <time>2025-10-05T09:12:39Z</time>
      </trkpt>
      <trkpt lat="43.33605" lon="5.79011">
        <ele>1010.8</ele>
        <time>2025-10-05T09:12:40Z</time>
      </trkpt>
      <trkpt lat="43.33604" lon="5.79011">
        <ele>1011</ele>
        <time>2025-10-05T09:12:41Z</time>
      </trkpt>
      <trkpt lat="43.33604" lon="5.79011">
        <ele>1011.3</ele>
        <time>2025-10-05T09:12:42Z</time>
      </trkpt>
      <trkpt lat="43.33604" lon="5.79011">
        <ele>1011.5</ele>
        <time>2025-10-05T09:12:43Z</time>
      </trkpt>
      <trkpt lat="43.33604" lon="5.79011">
        <ele>1011.7</ele>
        <time>2025-10-05T09:12:44Z</time>
      </trkpt>
      <trkpt lat="43.33604" lon="5.79011">
        <ele>1011.7</ele>
        <time>2025-10-05T09:12:45Z</time>
      </trkpt>
      <trkpt lat="43.33604" lon="5.79011">
        <ele>1011.8</ele>
        <time>2025-10-05T09:12:46Z</time>
      </trkpt>
      <trkpt lat="43.33604" lon="5.79011">
        <ele>1012.1</ele>
        <time>2025-10-05T09:12:47Z</time>
      </trkpt>
      <trkpt lat="43.33604" lon="5.79011">
        <ele>1012.3</ele>
        <time>2025-10-05T09:12:48Z</time>
      </trkpt>
      <trkpt lat="43.33604" lon="5.7901">
        <ele>1012.5</ele>
        <time>2025-10-05T09:12:49Z</time>
      </trkpt>
      <trkpt lat="43.33604" lon="5.7901">
        <ele>1012.5</ele>
        <time>2025-10-05T09:12:50Z</time>
      </trkpt>
      <trkpt lat="43.33603" lon="5.7901">
        <ele>1012.5</ele>
        <time>2025-10-05T09:12:51Z</time>
      </trkpt>
      <trkpt lat="43.33603" lon="5.79011">
        <ele>1012.6</ele>
        <time>2025-10-05T09:12:52Z</time>
      </trkpt>
      <trkpt lat="43.33604" lon="5.79011">
        <ele>1012.7</ele>
        <time>2025-10-05T09:12:53Z</time>
      </trkpt>
      <trkpt lat="43.33604" lon="5.79011">
        <ele>1012.7</ele>
        <time>2025-10-05T09:12:54Z</time>
      </trkpt>
      <trkpt lat="43.33603" lon="5.79011">
        <ele>1012.7</ele>
        <time>2025-10-05T09:12:55Z</time>
      </trkpt>
      <trkpt lat="43.33603" lon="5.79011">
        <ele>1012.8</ele>
        <time>2025-10-05T09:12:56Z</time>
      </trkpt>
      <trkpt lat="43.33603" lon="5.79011">
        <ele>1012.8</ele>
        <time>2025-10-05T09:12:57Z</time>
      </trkpt>
      <trkpt lat="43.33603" lon="5.79012">
        <ele>1012.9</ele>
        <time>2025-10-05T09:12:58Z</time>
      </trkpt>
      <trkpt lat="43.33603" lon="5.79012">
        <ele>1013</ele>
        <time>2025-10-05T09:12:59Z</time>
      </trkpt>
      <trkpt lat="43.33603" lon="5.79012">
        <ele>1013.1</ele>
        <time>2025-10-05T09:13:00Z</time>
      </trkpt>
      <trkpt lat="43.33603" lon="5.79012">
        <ele>1013.2</ele>
        <time>2025-10-05T09:13:01Z</time>
      </trkpt>
      <trkpt lat="43.33603" lon="5.79012">
        <ele>1013.2</ele>
        <time>2025-10-05T09:13:02Z</time>
      </trkpt>
      <trkpt lat="43.33603" lon="5.79012">
        <ele>1013.4</ele>
        <time>2025-10-05T09:13:03Z</time>
      </trkpt>
      <trkpt lat="43.33604" lon="5.79011">
        <ele>1013.6</ele>
        <time>2025-10-05T09:13:04Z</time>
      </trkpt>
      <trkpt lat="43.33603" lon="5.7901">
        <ele>1013.8</ele>
        <time>2025-10-05T09:13:05Z</time>
      </trkpt>
      <trkpt lat="43.33604" lon="5.7901">
        <ele>1013.9</ele>
        <time>2025-10-05T09:13:06Z</time>
      </trkpt>
      <trkpt lat="43.33604" lon="5.79009">
        <ele>1014</ele>
        <time>2025-10-05T09:13:07Z</time>
      </trkpt>
      <trkpt lat="43.33603" lon="5.79008">
        <ele>1014.2</ele>
        <time>2025-10-05T09:13:08Z</time>
      </trkpt>
      <trkpt lat="43.33603" lon="5.79008">
        <ele>1014.1</ele>
        <time>2025-10-05T09:13:09Z</time>
      </trkpt>
      <trkpt lat="43.33604" lon="5.79007">
        <ele>1014.2</ele>
        <time>2025-10-05T09:13:10Z</time>
      </trkpt>
      <trkpt lat="43.33604" lon="5.79007">
        <ele>1014.2</ele>
        <time>2025-10-05T09:13:11Z</time>
      </trkpt>
      <trkpt lat="43.33604" lon="5.79007">
        <ele>1014.4</ele>
        <time>2025-10-05T09:13:12Z</time>
      </trkpt>
      <trkpt lat="43.33604" lon="5.79007">
        <ele>1014.5</ele>
        <time>2025-10-05T09:13:13Z</time>
      </trkpt>
      <trkpt lat="43.33604" lon="5.79007">
        <ele>1014.5</ele>
        <time>2025-10-05T09:13:14Z</time>
      </trkpt>
      <trkpt lat="43.33604" lon="5.79007">
        <ele>1014.5</ele>
        <time>2025-10-05T09:13:15Z</time>
      </trkpt>
      <trkpt lat="43.33603" lon="5.79007">
        <ele>1014.4</ele>
        <time>2025-10-05T09:13:16Z</time>
      </trkpt>
      <trkpt lat="43.33603" lon="5.79007">
        <ele>1014.5</ele>
        <time>2025-10-05T09:13:17Z</time>
      </trkpt>
      <trkpt lat="43.33604" lon="5.79007">
        <ele>1014.6</ele>
        <time>2025-10-05T09:13:18Z</time>
      </trkpt>
      <trkpt lat="43.33604" lon="5.79007">
        <ele>1014.6</ele>
        <time>2025-10-05T09:13:19Z</time>
      </trkpt>
      <trkpt lat="43.33604" lon="5.79006">
        <ele>1014.7</ele>
        <time>2025-10-05T09:13:20Z</time>
      </trkpt>
      <trkpt lat="43.33604" lon="5.79006">
        <ele>1014.7</ele>
        <time>2025-10-05T09:13:21Z</time>
      </trkpt>
      <trkpt lat="43.33604" lon="5.79006">
        <ele>1014.6</ele>
        <time>2025-10-05T09:13:22Z</time>
      </trkpt>
      <trkpt lat="43.33604" lon="5.79005">
        <ele>1014.6</ele>
        <time>2025-10-05T09:13:23Z</time>
      </trkpt>
      <trkpt lat="43.33604" lon="5.79005">
        <ele>1014.7</ele>
        <time>2025-10-05T09:13:24Z</time>
      </trkpt>
      <trkpt lat="43.33604" lon="5.79005">
        <ele>1014.7</ele>
        <time>2025-10-05T09:13:25Z</time>
      </trkpt>
      <trkpt lat="43.33604" lon="5.79004">
        <ele>1014.7</ele>
        <time>2025-10-05T09:13:26Z</time>
      </trkpt>
      <trkpt lat="43.33602" lon="5.79005">
        <ele>1014.6</ele>
        <time>2025-10-05T09:13:27Z</time>
      </trkpt>
      <trkpt lat="43.33602" lon="5.79005">
        <ele>1014.6</ele>
        <time>2025-10-05T09:13:28Z</time>
      </trkpt>
      <trkpt lat="43.33602" lon="5.79006">
        <ele>1014.6</ele>
        <time>2025-10-05T09:13:29Z</time>
      </trkpt>
      <trkpt lat="43.33602" lon="5.79005">
        <ele>1014.7</ele>
        <time>2025-10-05T09:13:30Z</time>
      </trkpt>
      <trkpt lat="43.33602" lon="5.79005">
        <ele>1014.8</ele>
        <time>2025-10-05T09:13:31Z</time>
      </trkpt>
      <trkpt lat="43.33602" lon="5.79005">
        <ele>1014.8</ele>
        <time>2025-10-05T09:13:32Z</time>
      </trkpt>
      <trkpt lat="43.33601" lon="5.79004">
        <ele>1014.8</ele>
        <time>2025-10-05T09:13:33Z</time>
      </trkpt>
      <trkpt lat="43.33601" lon="5.79004">
        <ele>1014.8</ele>
        <time>2025-10-05T09:13:34Z</time>
      </trkpt>
      <trkpt lat="43.336" lon="5.79004">
        <ele>1015</ele>
        <time>2025-10-05T09:13:35Z</time>
      </trkpt>
      <trkpt lat="43.336" lon="5.79004">
        <ele>1015.1</ele>
        <time>2025-10-05T09:13:36Z</time>
      </trkpt>
      <trkpt lat="43.336" lon="5.79003">
        <ele>1015.3</ele>
        <time>2025-10-05T09:13:37Z</time>
      </trkpt>
      <trkpt lat="43.336" lon="5.79002">
        <ele>1015.5</ele>
        <time>2025-10-05T09:13:38Z</time>
      </trkpt>
      <trkpt lat="43.336" lon="5.79001">
        <ele>1015.7</ele>
        <time>2025-10-05T09:13:39Z</time>
      </trkpt>
      <trkpt lat="43.33599" lon="5.79">
        <ele>1015.8</ele>
        <time>2025-10-05T09:13:40Z</time>
      </trkpt>
      <trkpt lat="43.33597" lon="5.79">
        <ele>1015.9</ele>
        <time>2025-10-05T09:13:41Z</time>
      </trkpt>
      <trkpt lat="43.33597" lon="5.79">
        <ele>1016.2</ele>
        <time>2025-10-05T09:13:42Z</time>
      </trkpt>
      <trkpt lat="43.33596" lon="5.79">
        <ele>1016.4</ele>
        <time>2025-10-05T09:13:43Z</time>
      </trkpt>
      <trkpt lat="43.33596" lon="5.79001">
        <ele>1016.6</ele>
        <time>2025-10-05T09:13:44Z</time>
      </trkpt>
      <trkpt lat="43.33595" lon="5.79001">
        <ele>1016.7</ele>
        <time>2025-10-05T09:13:45Z</time>
      </trkpt>
      <trkpt lat="43.33595" lon="5.79001">
        <ele>1016.8</ele>
        <time>2025-10-05T09:13:46Z</time>
      </trkpt>
      <trkpt lat="43.33594" lon="5.79">
        <ele>1017.1</ele>
        <time>2025-10-05T09:13:47Z</time>
      </trkpt>
      <trkpt lat="43.33594" lon="5.79001">
        <ele>1017.2</ele>
        <time>2025-10-05T09:13:48Z</time>
      </trkpt>
      <trkpt lat="43.33594" lon="5.79001">
        <ele>1017.5</ele>
        <time>2025-10-05T09:13:49Z</time>
      </trkpt>
      <trkpt lat="43.33594" lon="5.79001">
        <ele>1017.7</ele>
        <time>2025-10-05T09:13:50Z</time>
      </trkpt>
      <trkpt lat="43.33594" lon="5.79">
        <ele>1017.9</ele>
        <time>2025-10-05T09:13:51Z</time>
      </trkpt>
      <trkpt lat="43.33595" lon="5.78999">
        <ele>1018.1</ele>
        <time>2025-10-05T09:13:52Z</time>
      </trkpt>
      <trkpt lat="43.33595" lon="5.78998">
        <ele>1018.2</ele>
        <time>2025-10-05T09:13:53Z</time>
      </trkpt>
      <trkpt lat="43.33594" lon="5.78997">
        <ele>1018.3</ele>
        <time>2025-10-05T09:13:54Z</time>
      </trkpt>
      <trkpt lat="43.33594" lon="5.78997">
        <ele>1018.3</ele>
        <time>2025-10-05T09:13:55Z</time>
      </trkpt>
      <trkpt lat="43.33594" lon="5.78996">
        <ele>1018.4</ele>
        <time>2025-10-05T09:13:56Z</time>
      </trkpt>
      <trkpt lat="43.33594" lon="5.78996">
        <ele>1018.4</ele>
        <time>2025-10-05T09:13:57Z</time>
      </trkpt>
      <trkpt lat="43.33594" lon="5.78996">
        <ele>1018.4</ele>
        <time>2025-10-05T09:13:58Z</time>
      </trkpt>
      <trkpt lat="43.33593" lon="5.78996">
        <ele>1018.5</ele>
        <time>2025-10-05T09:13:59Z</time>
      </trkpt>
      <trkpt lat="43.33593" lon="5.78996">
        <ele>1018.5</ele>
        <time>2025-10-05T09:14:00Z</time>
      </trkpt>
      <trkpt lat="43.33593" lon="5.78996">
        <ele>1018.5</ele>
        <time>2025-10-05T09:14:01Z</time>
      </trkpt>
      <trkpt lat="43.33593" lon="5.78995">
        <ele>1018.7</ele>
        <time>2025-10-05T09:14:02Z</time>
      </trkpt>
      <trkpt lat="43.33593" lon="5.78995">
        <ele>1018.7</ele>
        <time>2025-10-05T09:14:03Z</time>
      </trkpt>
      <trkpt lat="43.33593" lon="5.78995">
        <ele>1018.7</ele>
        <time>2025-10-05T09:14:04Z</time>
      </trkpt>
      <trkpt lat="43.33593" lon="5.78995">
        <ele>1018.8</ele>
        <time>2025-10-05T09:14:05Z</time>
      </trkpt>
      <trkpt lat="43.33593" lon="5.78995">
        <ele>1019</ele>
        <time>2025-10-05T09:14:06Z</time>
      </trkpt>
      <trkpt lat="43.33592" lon="5.78995">
        <ele>1019.2</ele>
        <time>2025-10-05T09:14:07Z</time>
      </trkpt>
      <trkpt lat="43.33592" lon="5.78995">
        <ele>1019.3</ele>
        <time>2025-10-05T09:14:08Z</time>
      </trkpt>
      <trkpt lat="43.33591" lon="5.78994">
        <ele>1019.4</ele>
        <time>2025-10-05T09:14:09Z</time>
      </trkpt>
      <trkpt lat="43.33591" lon="5.78994">
        <ele>1019.6</ele>
        <time>2025-10-05T09:14:10Z</time>
      </trkpt>
      <trkpt lat="43.33591" lon="5.78994">
        <ele>1019.7</ele>
        <time>2025-10-05T09:14:11Z</time>
      </trkpt>
      <trkpt lat="43.33591" lon="5.78994">
        <ele>1019.8</ele>
        <time>2025-10-05T09:14:12Z</time>
      </trkpt>
      <trkpt lat="43.3359" lon="5.78994">
        <ele>1019.9</ele>
        <time>2025-10-05T09:14:13Z</time>
      </trkpt>
      <trkpt lat="43.33591" lon="5.78993">
        <ele>1019.9</ele>
        <time>2025-10-05T09:14:14Z</time>
      </trkpt>
      <trkpt lat="43.33591" lon="5.78993">
        <ele>1020</ele>
        <time>2025-10-05T09:14:15Z</time>
      </trkpt>
      <trkpt lat="43.33591" lon="5.78993">
        <ele>1020</ele>
        <time>2025-10-05T09:14:16Z</time>
      </trkpt>
      <trkpt lat="43.33591" lon="5.78993">
        <ele>1020.1</ele>
        <time>2025-10-05T09:14:17Z</time>
      </trkpt>
      <trkpt lat="43.33591" lon="5.78993">
        <ele>1020.1</ele>
        <time>2025-10-05T09:14:18Z</time>
      </trkpt>
      <trkpt lat="43.33591" lon="5.78993">
        <ele>1020.1</ele>
        <time>2025-10-05T09:14:19Z</time>
      </trkpt>
      <trkpt lat="43.33591" lon="5.78993">
        <ele>1020.1</ele>
        <time>2025-10-05T09:14:20Z</time>
      </trkpt>
      <trkpt lat="43.33591" lon="5.78993">
        <ele>1020.2</ele>
        <time>2025-10-05T09:14:21Z</time>
      </trkpt>
      <trkpt lat="43.33591" lon="5.78992">
        <ele>1020.2</ele>
        <time>2025-10-05T09:14:22Z</time>
      </trkpt>
      <trkpt lat="43.33591" lon="5.78991">
        <ele>1020.2</ele>
        <time>2025-10-05T09:14:23Z</time>
      </trkpt>
      <trkpt lat="43.33591" lon="5.78991">
        <ele>1020.2</ele>
        <time>2025-10-05T09:14:24Z</time>
      </trkpt>
      <trkpt lat="43.33591" lon="5.7899">
        <ele>1020.2</ele>
        <time>2025-10-05T09:14:25Z</time>
      </trkpt>
      <trkpt lat="43.33591" lon="5.7899">
        <ele>1020.3</ele>
        <time>2025-10-05T09:14:26Z</time>
      </trkpt>
      <trkpt lat="43.33591" lon="5.7899">
        <ele>1020.3</ele>
        <time>2025-10-05T09:14:27Z</time>
      </trkpt>
      <trkpt lat="43.33591" lon="5.7899">
        <ele>1020.4</ele>
        <time>2025-10-05T09:14:28Z</time>
      </trkpt>
      <trkpt lat="43.33592" lon="5.7899">
        <ele>1020.5</ele>
        <time>2025-10-05T09:14:29Z</time>
      </trkpt>
      <trkpt lat="43.33593" lon="5.7899">
        <ele>1020.5</ele>
        <time>2025-10-05T09:14:30Z</time>
      </trkpt>
      <trkpt lat="43.33593" lon="5.7899">
        <ele>1020.6</ele>
        <time>2025-10-05T09:14:31Z</time>
      </trkpt>
      <trkpt lat="43.33593" lon="5.7899">
        <ele>1020.6</ele>
        <time>2025-10-05T09:14:32Z</time>
      </trkpt>
      <trkpt lat="43.33593" lon="5.7899">
        <ele>1020.6</ele>
        <time>2025-10-05T09:14:33Z</time>
      </trkpt>
      <trkpt lat="43.33593" lon="5.7899">
        <ele>1020.7</ele>
        <time>2025-10-05T09:14:34Z</time>
      </trkpt>
      <trkpt lat="43.33593" lon="5.7899">
        <ele>1020.7</ele>
        <time>2025-10-05T09:14:35Z</time>
      </trkpt>
      <trkpt lat="43.33593" lon="5.7899">
        <ele>1020.7</ele>
        <time>2025-10-05T09:14:36Z</time>
      </trkpt>
      <trkpt lat="43.33593" lon="5.7899">
        <ele>1020.6</ele>
        <time>2025-10-05T09:14:37Z</time>
      </trkpt>
      <trkpt lat="43.33593" lon="5.78991">
        <ele>1020.6</ele>
        <time>2025-10-05T09:14:38Z</time>
      </trkpt>
      <trkpt lat="43.33593" lon="5.78991">
        <ele>1020.6</ele>
        <time>2025-10-05T09:14:39Z</time>
      </trkpt>
      <trkpt lat="43.33592" lon="5.7899">
        <ele>1020.8</ele>
        <time>2025-10-05T09:14:40Z</time>
      </trkpt>
      <trkpt lat="43.33592" lon="5.7899">
        <ele>1020.8</ele>
        <time>2025-10-05T09:14:41Z</time>
      </trkpt>
      <trkpt lat="43.33592" lon="5.7899">
        <ele>1020.8</ele>
        <time>2025-10-05T09:14:42Z</time>
      </trkpt>
      <trkpt lat="43.33592" lon="5.7899">
        <ele>1020.8</ele>
        <time>2025-10-05T09:14:43Z</time>
      </trkpt>
      <trkpt lat="43.33593" lon="5.7899">
        <ele>1020.9</ele>
        <time>2025-10-05T09:14:44Z</time>
      </trkpt>
      <trkpt lat="43.33593" lon="5.7899">
        <ele>1021</ele>
        <time>2025-10-05T09:14:45Z</time>
      </trkpt>
      <trkpt lat="43.33593" lon="5.7899">
        <ele>1020.9</ele>
        <time>2025-10-05T09:14:46Z</time>
      </trkpt>
      <trkpt lat="43.33593" lon="5.78989">
        <ele>1020.9</ele>
        <time>2025-10-05T09:14:47Z</time>
      </trkpt>
      <trkpt lat="43.33594" lon="5.78989">
        <ele>1020.8</ele>
        <time>2025-10-05T09:14:48Z</time>
      </trkpt>
      <trkpt lat="43.33593" lon="5.78989">
        <ele>1020.7</ele>
        <time>2025-10-05T09:14:49Z</time>
      </trkpt>
      <trkpt lat="43.33592" lon="5.7899">
        <ele>1020.8</ele>
        <time>2025-10-05T09:14:50Z</time>
      </trkpt>
      <trkpt lat="43.33592" lon="5.7899">
        <ele>1020.9</ele>
        <time>2025-10-05T09:14:51Z</time>
      </trkpt>
      <trkpt lat="43.33592" lon="5.7899">
        <ele>1020.9</ele>
        <time>2025-10-05T09:14:52Z</time>
      </trkpt>
      <trkpt lat="43.33591" lon="5.7899">
        <ele>1020.9</ele>
        <time>2025-10-05T09:14:53Z</time>
      </trkpt>
      <trkpt lat="43.33591" lon="5.7899">
        <ele>1020.9</ele>
        <time>2025-10-05T09:14:54Z</time>
      </trkpt>
      <trkpt lat="43.33592" lon="5.7899">
        <ele>1020.9</ele>
        <time>2025-10-05T09:14:55Z</time>
      </trkpt>
      <trkpt lat="43.33592" lon="5.7899">
        <ele>1020.9</ele>
        <time>2025-10-05T09:14:56Z</time>
      </trkpt>
      <trkpt lat="43.33591" lon="5.7899">
        <ele>1020.9</ele>
        <time>2025-10-05T09:14:57Z</time>
      </trkpt>
      <trkpt lat="43.33592" lon="5.7899">
        <ele>1020.8</ele>
        <time>2025-10-05T09:14:58Z</time>
      </trkpt>
      <trkpt lat="43.33591" lon="5.78991">
        <ele>1020.7</ele>
        <time>2025-10-05T09:14:59Z</time>
      </trkpt>
      <trkpt lat="43.33591" lon="5.78991">
        <ele>1020.6</ele>
        <time>2025-10-05T09:15:00Z</time>
      </trkpt>
      <trkpt lat="43.33591" lon="5.78991">
        <ele>1020.6</ele>
        <time>2025-10-05T09:15:01Z</time>
      </trkpt>
      <trkpt lat="43.33591" lon="5.78991">
        <ele>1020.5</ele>
        <time>2025-10-05T09:15:02Z</time>
      </trkpt>
      <trkpt lat="43.33591" lon="5.78991">
        <ele>1020.5</ele>
        <time>2025-10-05T09:15:03Z</time>
      </trkpt>
      <trkpt lat="43.3359" lon="5.78991">
        <ele>1020.5</ele>
        <time>2025-10-05T09:15:04Z</time>
      </trkpt>
      <trkpt lat="43.3359" lon="5.78991">
        <ele>1020.4</ele>
        <time>2025-10-05T09:15:05Z</time>
      </trkpt>
      <trkpt lat="43.3359" lon="5.78991">
        <ele>1020.3</ele>
        <time>2025-10-05T09:15:06Z</time>
      </trkpt>
      <trkpt lat="43.33591" lon="5.78991">
        <ele>1020.3</ele>
        <time>2025-10-05T09:15:07Z</time>
      </trkpt>
      <trkpt lat="43.3359" lon="5.78991">
        <ele>1020.3</ele>
        <time>2025-10-05T09:15:08Z</time>
      </trkpt>
      <trkpt lat="43.33589" lon="5.78991">
        <ele>1020.2</ele>
        <time>2025-10-05T09:15:09Z</time>
      </trkpt>
      <trkpt lat="43.33589" lon="5.78991">
        <ele>1020.1</ele>
        <time>2025-10-05T09:15:10Z</time>
      </trkpt>
      <trkpt lat="43.33588" lon="5.78991">
        <ele>1020</ele>
        <time>2025-10-05T09:15:11Z</time>
      </trkpt>
      <trkpt lat="43.33589" lon="5.78991">
        <ele>1020</ele>
        <time>2025-10-05T09:15:12Z</time>
      </trkpt>
      <trkpt lat="43.33588" lon="5.78991">
        <ele>1020.2</ele>
        <time>2025-10-05T09:15:13Z</time>
      </trkpt>
      <trkpt lat="43.33588" lon="5.78991">
        <ele>1020.3</ele>
        <time>2025-10-05T09:15:14Z</time>
      </trkpt>
      <trkpt lat="43.33588" lon="5.78991">
        <ele>1020.3</ele>
        <time>2025-10-05T09:15:15Z</time>
      </trkpt>
      <trkpt lat="43.33588" lon="5.78991">
        <ele>1020.2</ele>
        <time>2025-10-05T09:15:16Z</time>
      </trkpt>
      <trkpt lat="43.33588" lon="5.78991">
        <ele>1020.1</ele>
        <time>2025-10-05T09:15:17Z</time>
      </trkpt>
      <trkpt lat="43.33587" lon="5.78991">
        <ele>1020.1</ele>
        <time>2025-10-05T09:15:18Z</time>
      </trkpt>
      <trkpt lat="43.33587" lon="5.78991">
        <ele>1020.1</ele>
        <time>2025-10-05T09:15:19Z</time>
      </trkpt>
      <trkpt lat="43.33587" lon="5.78991">
        <ele>1020</ele>
        <time>2025-10-05T09:15:20Z</time>
      </trkpt>
      <trkpt lat="43.33587" lon="5.78991">
        <ele>1019.7</ele>
        <time>2025-10-05T09:15:21Z</time>
      </trkpt>
      <trkpt lat="43.33586" lon="5.78991">
        <ele>1019.5</ele>
        <time>2025-10-05T09:15:22Z</time>
      </trkpt>
      <trkpt lat="43.33586" lon="5.78991">
        <ele>1019.3</ele>
        <time>2025-10-05T09:15:23Z</time>
      </trkpt>
      <trkpt lat="43.33586" lon="5.78991">
        <ele>1019</ele>
        <time>2025-10-05T09:15:24Z</time>
      </trkpt>
      <trkpt lat="43.33585" lon="5.78991">
        <ele>1018.8</ele>
        <time>2025-10-05T09:15:25Z</time>
      </trkpt>
      <trkpt lat="43.33585" lon="5.78991">
        <ele>1018.6</ele>
        <time>2025-10-05T09:15:26Z</time>
      </trkpt>
      <trkpt lat="43.33586" lon="5.78991">
        <ele>1018.4</ele>
        <time>2025-10-05T09:15:27Z</time>
      </trkpt>
      <trkpt lat="43.33586" lon="5.78991">
        <ele>1018.3</ele>
        <time>2025-10-05T09:15:28Z</time>
      </trkpt>
      <trkpt lat="43.33585" lon="5.78991">
        <ele>1018.2</ele>
        <time>2025-10-05T09:15:29Z</time>
      </trkpt>
      <trkpt lat="43.33585" lon="5.78991">
        <ele>1018.3</ele>
        <time>2025-10-05T09:15:30Z</time>
      </trkpt>
      <trkpt lat="43.33585" lon="5.78991">
        <ele>1018.3</ele>
        <time>2025-10-05T09:15:31Z</time>
      </trkpt>
      <trkpt lat="43.33584" lon="5.78991">
        <ele>1018.3</ele>
        <time>2025-10-05T09:15:32Z</time>
      </trkpt>
      <trkpt lat="43.33584" lon="5.78991">
        <ele>1018.2</ele>
        <time>2025-10-05T09:15:33Z</time>
      </trkpt>
      <trkpt lat="43.33584" lon="5.78991">
        <ele>1018.2</ele>
        <time>2025-10-05T09:15:34Z</time>
      </trkpt>
      <trkpt lat="43.33584" lon="5.78991">
        <ele>1018.2</ele>
        <time>2025-10-05T09:15:35Z</time>
      </trkpt>
      <trkpt lat="43.33583" lon="5.78991">
        <ele>1018.3</ele>
        <time>2025-10-05T09:15:36Z</time>
      </trkpt>
      <trkpt lat="43.33584" lon="5.78991">
        <ele>1018.2</ele>
        <time>2025-10-05T09:15:37Z</time>
      </trkpt>
      <trkpt lat="43.33584" lon="5.78991">
        <ele>1018.3</ele>
        <time>2025-10-05T09:15:38Z</time>
      </trkpt>
      <trkpt lat="43.33584" lon="5.78991">
        <ele>1018.3</ele>
        <time>2025-10-05T09:15:39Z</time>
      </trkpt>
      <trkpt lat="43.33585" lon="5.78991">
        <ele>1018.4</ele>
        <time>2025-10-05T09:15:40Z</time>
      </trkpt>
      <trkpt lat="43.33585" lon="5.78991">
        <ele>1018.4</ele>
        <time>2025-10-05T09:15:41Z</time>
      </trkpt>
      <trkpt lat="43.33586" lon="5.78991">
        <ele>1018.5</ele>
        <time>2025-10-05T09:15:42Z</time>
      </trkpt>
      <trkpt lat="43.33585" lon="5.78991">
        <ele>1018.6</ele>
        <time>2025-10-05T09:15:43Z</time>
      </trkpt>
      <trkpt lat="43.33586" lon="5.78991">
        <ele>1018.6</ele>
        <time>2025-10-05T09:15:44Z</time>
      </trkpt>
      <trkpt lat="43.33585" lon="5.78991">
        <ele>1018.5</ele>
        <time>2025-10-05T09:15:45Z</time>
      </trkpt>
      <trkpt lat="43.33585" lon="5.78991">
        <ele>1018.5</ele>
        <time>2025-10-05T09:15:46Z</time>
      </trkpt>
      <trkpt lat="43.33585" lon="5.78991">
        <ele>1018.5</ele>
        <time>2025-10-05T09:15:47Z</time>
      </trkpt>
      <trkpt lat="43.33585" lon="5.78991">
        <ele>1018.5</ele>
        <time>2025-10-05T09:15:48Z</time>
      </trkpt>
      <trkpt lat="43.33585" lon="5.78991">
        <ele>1018.4</ele>
        <time>2025-10-05T09:15:49Z</time>
      </trkpt>
      <trkpt lat="43.33584" lon="5.78991">
        <ele>1018.3</ele>
        <time>2025-10-05T09:15:50Z</time>
      </trkpt>
      <trkpt lat="43.33583" lon="5.78992">
        <ele>1018.4</ele>
        <time>2025-10-05T09:15:51Z</time>
      </trkpt>
      <trkpt lat="43.33582" lon="5.78992">
        <ele>1018.6</ele>
        <time>2025-10-05T09:15:52Z</time>
      </trkpt>
      <trkpt lat="43.3358" lon="5.78992">
        <ele>1018.8</ele>
        <time>2025-10-05T09:15:53Z</time>
      </trkpt>
      <trkpt lat="43.33579" lon="5.78992">
        <ele>1018.9</ele>
        <time>2025-10-05T09:15:54Z</time>
      </trkpt>
      <trkpt lat="43.33578" lon="5.78993">
        <ele>1019.1</ele>
        <time>2025-10-05T09:15:55Z</time>
      </trkpt>
      <trkpt lat="43.33576" lon="5.78993">
        <ele>1019</ele>
        <time>2025-10-05T09:15:56Z</time>
      </trkpt>
      <trkpt lat="43.33576" lon="5.78993">
        <ele>1019</ele>
        <time>2025-10-05T09:15:57Z</time>
      </trkpt>
      <trkpt lat="43.33576" lon="5.78993">
        <ele>1019</ele>
        <time>2025-10-05T09:15:58Z</time>
      </trkpt>
      <trkpt lat="43.33576" lon="5.78993">
        <ele>1019</ele>
        <time>2025-10-05T09:15:59Z</time>
      </trkpt>
      <trkpt lat="43.33576" lon="5.78993">
        <ele>1019.1</ele>
        <time>2025-10-05T09:16:00Z</time>
      </trkpt>
      <trkpt lat="43.33576" lon="5.78993">
        <ele>1019.2</ele>
        <time>2025-10-05T09:16:01Z</time>
      </trkpt>
      <trkpt lat="43.33577" lon="5.78993">
        <ele>1019.3</ele>
        <time>2025-10-05T09:16:02Z</time>
      </trkpt>
      <trkpt lat="43.33577" lon="5.78993">
        <ele>1019.3</ele>
        <time>2025-10-05T09:16:03Z</time>
      </trkpt>
      <trkpt lat="43.33578" lon="5.78992">
        <ele>1019.3</ele>
        <time>2025-10-05T09:16:04Z</time>
      </trkpt>
      <trkpt lat="43.33578" lon="5.78992">
        <ele>1019.3</ele>
        <time>2025-10-05T09:16:05Z</time>
      </trkpt>
      <trkpt lat="43.33579" lon="5.78992">
        <ele>1019.4</ele>
        <time>2025-10-05T09:16:06Z</time>
      </trkpt>
      <trkpt lat="43.33579" lon="5.78992">
        <ele>1019.4</ele>
        <time>2025-10-05T09:16:07Z</time>
      </trkpt>
      <trkpt lat="43.33579" lon="5.78992">
        <ele>1019.4</ele>
        <time>2025-10-05T09:16:08Z</time>
      </trkpt>
      <trkpt lat="43.3358" lon="5.78992">
        <ele>1019.4</ele>
        <time>2025-10-05T09:16:09Z</time>
      </trkpt>
      <trkpt lat="43.3358" lon="5.78992">
        <ele>1019.3</ele>
        <time>2025-10-05T09:16:10Z</time>
      </trkpt>
      <trkpt lat="43.3358" lon="5.78992">
        <ele>1019.2</ele>
        <time>2025-10-05T09:16:11Z</time>
      </trkpt>
      <trkpt lat="43.3358" lon="5.78992">
        <ele>1019.3</ele>
        <time>2025-10-05T09:16:12Z</time>
      </trkpt>
      <trkpt lat="43.33581" lon="5.78992">
        <ele>1019.4</ele>
        <time>2025-10-05T09:16:13Z</time>
      </trkpt>
      <trkpt lat="43.33581" lon="5.78992">
        <ele>1019.2</ele>
        <time>2025-10-05T09:16:14Z</time>
      </trkpt>
      <trkpt lat="43.33581" lon="5.78992">
        <ele>1019.1</ele>
        <time>2025-10-05T09:16:15Z</time>
      </trkpt>
      <trkpt lat="43.33582" lon="5.78992">
        <ele>1019.1</ele>
        <time>2025-10-05T09:16:16Z</time>
      </trkpt>
      <trkpt lat="43.33582" lon="5.78992">
        <ele>1019.1</ele>
        <time>2025-10-05T09:16:17Z</time>
      </trkpt>
      <trkpt lat="43.33582" lon="5.78992">
        <ele>1019.1</ele>
        <time>2025-10-05T09:16:18Z</time>
      </trkpt>
      <trkpt lat="43.33581" lon="5.78992">
        <ele>1019.1</ele>
        <time>2025-10-05T09:16:19Z</time>
      </trkpt>
      <trkpt lat="43.33582" lon="5.78992">
        <ele>1019.1</ele>
        <time>2025-10-05T09:16:20Z</time>
      </trkpt>
      <trkpt lat="43.33582" lon="5.78992">
        <ele>1018.9</ele>
        <time>2025-10-05T09:16:21Z</time>
      </trkpt>
      <trkpt lat="43.33582" lon="5.78991">
        <ele>1018.7</ele>
        <time>2025-10-05T09:16:22Z</time>
      </trkpt>
      <trkpt lat="43.33582" lon="5.78991">
        <ele>1018.6</ele>
        <time>2025-10-05T09:16:23Z</time>
      </trkpt>
      <trkpt lat="43.33582" lon="5.78991">
        <ele>1018.5</ele>
        <time>2025-10-05T09:16:24Z</time>
      </trkpt>
      <trkpt lat="43.33582" lon="5.78991">
        <ele>1018.5</ele>
        <time>2025-10-05T09:16:25Z</time>
      </trkpt>
      <trkpt lat="43.33581" lon="5.78991">
        <ele>1018.4</ele>
        <time>2025-10-05T09:16:26Z</time>
      </trkpt>
      <trkpt lat="43.33581" lon="5.78991">
        <ele>1018.3</ele>
        <time>2025-10-05T09:16:27Z</time>
      </trkpt>
      <trkpt lat="43.33581" lon="5.78991">
        <ele>1018.4</ele>
        <time>2025-10-05T09:16:28Z</time>
      </trkpt>
      <trkpt lat="43.33581" lon="5.78991">
        <ele>1018.4</ele>
        <time>2025-10-05T09:16:29Z</time>
      </trkpt>
      <trkpt lat="43.33581" lon="5.78991">
        <ele>1018.4</ele>
        <time>2025-10-05T09:16:30Z</time>
      </trkpt>
      <trkpt lat="43.33581" lon="5.78991">
        <ele>1018.5</ele>
        <time>2025-10-05T09:16:31Z</time>
      </trkpt>
      <trkpt lat="43.3358" lon="5.78991">
        <ele>1018.4</ele>
        <time>2025-10-05T09:16:32Z</time>
      </trkpt>
      <trkpt lat="43.33581" lon="5.78991">
        <ele>1018.3</ele>
        <time>2025-10-05T09:16:33Z</time>
      </trkpt>
      <trkpt lat="43.33581" lon="5.78991">
        <ele>1018.3</ele>
        <time>2025-10-05T09:16:34Z</time>
      </trkpt>
      <trkpt lat="43.33581" lon="5.78991">
        <ele>1018.3</ele>
        <time>2025-10-05T09:16:35Z</time>
      </trkpt>
      <trkpt lat="43.33581" lon="5.78991">
        <ele>1018.3</ele>
        <time>2025-10-05T09:16:36Z</time>
      </trkpt>
      <trkpt lat="43.33581" lon="5.78991">
        <ele>1018.3</ele>
        <time>2025-10-05T09:16:37Z</time>
      </trkpt>
      <trkpt lat="43.33582" lon="5.78991">
        <ele>1018.4</ele>
        <time>2025-10-05T09:16:38Z</time>
      </trkpt>
      <trkpt lat="43.33582" lon="5.78992">
        <ele>1018.2</ele>
        <time>2025-10-05T09:16:39Z</time>
      </trkpt>
      <trkpt lat="43.33582" lon="5.78992">
        <ele>1018.1</ele>
        <time>2025-10-05T09:16:40Z</time>
      </trkpt>
      <trkpt lat="43.33583" lon="5.78992">
        <ele>1018.1</ele>
        <time>2025-10-05T09:16:41Z</time>
      </trkpt>
      <trkpt lat="43.33583" lon="5.78992">
        <ele>1018.2</ele>
        <time>2025-10-05T09:16:42Z</time>
      </trkpt>
      <trkpt lat="43.33583" lon="5.78992">
        <ele>1018.3</ele>
        <time>2025-10-05T09:16:43Z</time>
      </trkpt>
      <trkpt lat="43.33584" lon="5.78992">
        <ele>1018.4</ele>
        <time>2025-10-05T09:16:44Z</time>
      </trkpt>
      <trkpt lat="43.33585" lon="5.78992">
        <ele>1018.4</ele>
        <time>2025-10-05T09:16:45Z</time>
      </trkpt>
      <trkpt lat="43.33585" lon="5.78992">
        <ele>1018.4</ele>
        <time>2025-10-05T09:16:46Z</time>
      </trkpt>
      <trkpt lat="43.33586" lon="5.78992">
        <ele>1018.5</ele>
        <time>2025-10-05T09:16:47Z</time>
      </trkpt>
      <trkpt lat="43.33586" lon="5.78992">
        <ele>1018.3</ele>
        <time>2025-10-05T09:16:48Z</time>
      </trkpt>
      <trkpt lat="43.33586" lon="5.78992">
        <ele>1018.3</ele>
        <time>2025-10-05T09:16:49Z</time>
      </trkpt>
      <trkpt lat="43.33586" lon="5.78992">
        <ele>1018.4</ele>
        <time>2025-10-05T09:16:50Z</time>
      </trkpt>
      <trkpt lat="43.33586" lon="5.78992">
        <ele>1018.3</ele>
        <time>2025-10-05T09:16:51Z</time>
      </trkpt>
      <trkpt lat="43.33585" lon="5.78991">
        <ele>1018.2</ele>
        <time>2025-10-05T09:16:52Z</time>
      </trkpt>
      <trkpt lat="43.33586" lon="5.78991">
        <ele>1018.2</ele>
        <time>2025-10-05T09:16:53Z</time>
      </trkpt>
      <trkpt lat="43.33586" lon="5.78991">
        <ele>1018.2</ele>
        <time>2025-10-05T09:16:54Z</time>
      </trkpt>
      <trkpt lat="43.33586" lon="5.78991">
        <ele>1018.2</ele>
        <time>2025-10-05T09:16:55Z</time>
      </trkpt>
      <trkpt lat="43.33586" lon="5.78991">
        <ele>1018.3</ele>
        <time>2025-10-05T09:16:56Z</time>
      </trkpt>
      <trkpt lat="43.33585" lon="5.78991">
        <ele>1018.3</ele>
        <time>2025-10-05T09:16:57Z</time>
      </trkpt>
      <trkpt lat="43.33585" lon="5.78991">
        <ele>1018.4</ele>
        <time>2025-10-05T09:16:58Z</time>
      </trkpt>
      <trkpt lat="43.33585" lon="5.78991">
        <ele>1018.4</ele>
        <time>2025-10-05T09:16:59Z</time>
      </trkpt>
      <trkpt lat="43.33585" lon="5.78991">
        <ele>1018.4</ele>
        <time>2025-10-05T09:17:00Z</time>
      </trkpt>
      <trkpt lat="43.33585" lon="5.78991">
        <ele>1018.6</ele>
        <time>2025-10-05T09:17:01Z</time>
      </trkpt>
      <trkpt lat="43.33584" lon="5.7899">
        <ele>1018.6</ele>
        <time>2025-10-05T09:17:02Z</time>
      </trkpt>
      <trkpt lat="43.33584" lon="5.78991">
        <ele>1018.8</ele>
        <time>2025-10-05T09:17:03Z</time>
      </trkpt>
      <trkpt lat="43.33584" lon="5.7899">
        <ele>1018.9</ele>
        <time>2025-10-05T09:17:04Z</time>
      </trkpt>
      <trkpt lat="43.33584" lon="5.7899">
        <ele>1019</ele>
        <time>2025-10-05T09:17:05Z</time>
      </trkpt>
      <trkpt lat="43.33585" lon="5.7899">
        <ele>1019.1</ele>
        <time>2025-10-05T09:17:06Z</time>
      </trkpt>
      <trkpt lat="43.33585" lon="5.7899">
        <ele>1019.2</ele>
        <time>2025-10-05T09:17:07Z</time>
      </trkpt>
      <trkpt lat="43.33585" lon="5.7899">
        <ele>1019.3</ele>
        <time>2025-10-05T09:17:08Z</time>
      </trkpt>
      <trkpt lat="43.33585" lon="5.7899">
        <ele>1019.3</ele>
        <time>2025-10-05T09:17:09Z</time>
      </trkpt>
      <trkpt lat="43.33585" lon="5.7899">
        <ele>1019.4</ele>
        <time>2025-10-05T09:17:10Z</time>
      </trkpt>
      <trkpt lat="43.33585" lon="5.78989">
        <ele>1019.6</ele>
        <time>2025-10-05T09:17:11Z</time>
      </trkpt>
      <trkpt lat="43.33585" lon="5.78989">
        <ele>1019.6</ele>
        <time>2025-10-05T09:17:12Z</time>
      </trkpt>
      <trkpt lat="43.33585" lon="5.78989">
        <ele>1019.7</ele>
        <time>2025-10-05T09:17:13Z</time>
      </trkpt>
      <trkpt lat="43.33585" lon="5.78989">
        <ele>1019.8</ele>
        <time>2025-10-05T09:17:14Z</time>
      </trkpt>
      <trkpt lat="43.33585" lon="5.78989">
        <ele>1019.8</ele>
        <time>2025-10-05T09:17:15Z</time>
      </trkpt>
      <trkpt lat="43.33585" lon="5.7899">
        <ele>1019.9</ele>
        <time>2025-10-05T09:17:16Z</time>
      </trkpt>
      <trkpt lat="43.33585" lon="5.7899">
        <ele>1019.8</ele>
        <time>2025-10-05T09:17:17Z</time>
      </trkpt>
      <trkpt lat="43.33585" lon="5.7899">
        <ele>1019.7</ele>
        <time>2025-10-05T09:17:18Z</time>
      </trkpt>
      <trkpt lat="43.33585" lon="5.7899">
        <ele>1019.6</ele>
        <time>2025-10-05T09:17:19Z</time>
      </trkpt>
      <trkpt lat="43.33585" lon="5.7899">
        <ele>1019.6</ele>
        <time>2025-10-05T09:17:20Z</time>
      </trkpt>
      <trkpt lat="43.33585" lon="5.7899">
        <ele>1019.7</ele>
        <time>2025-10-05T09:17:21Z</time>
      </trkpt>
      <trkpt lat="43.33585" lon="5.7899">
        <ele>1019.8</ele>
        <time>2025-10-05T09:17:22Z</time>
      </trkpt>
      <trkpt lat="43.33586" lon="5.7899">
        <ele>1019.8</ele>
        <time>2025-10-05T09:17:23Z</time>
      </trkpt>
      <trkpt lat="43.33586" lon="5.7899">
        <ele>1019.8</ele>
        <time>2025-10-05T09:17:24Z</time>
      </trkpt>
      <trkpt lat="43.33586" lon="5.7899">
        <ele>1019.9</ele>
        <time>2025-10-05T09:17:25Z</time>
      </trkpt>
      <trkpt lat="43.33586" lon="5.7899">
        <ele>1019.9</ele>
        <time>2025-10-05T09:17:26Z</time>
      </trkpt>
      <trkpt lat="43.33586" lon="5.7899">
        <ele>1019.9</ele>
        <time>2025-10-05T09:17:27Z</time>
      </trkpt>
      <trkpt lat="43.33586" lon="5.7899">
        <ele>1019.9</ele>
        <time>2025-10-05T09:17:28Z</time>
      </trkpt>
      <trkpt lat="43.33586" lon="5.78991">
        <ele>1019.9</ele>
        <time>2025-10-05T09:17:29Z</time>
      </trkpt>
      <trkpt lat="43.33586" lon="5.78991">
        <ele>1019.9</ele>
        <time>2025-10-05T09:17:30Z</time>
      </trkpt>
      <trkpt lat="43.33585" lon="5.78991">
        <ele>1019.9</ele>
        <time>2025-10-05T09:17:31Z</time>
      </trkpt>
      <trkpt lat="43.33585" lon="5.78993">
        <ele>1019.8</ele>
        <time>2025-10-05T09:17:32Z</time>
      </trkpt>
      <trkpt lat="43.33585" lon="5.78993">
        <ele>1019.9</ele>
        <time>2025-10-05T09:17:33Z</time>
      </trkpt>
      <trkpt lat="43.33585" lon="5.78993">
        <ele>1020</ele>
        <time>2025-10-05T09:17:34Z</time>
      </trkpt>
      <trkpt lat="43.33585" lon="5.78993">
        <ele>1020</ele>
        <time>2025-10-05T09:17:35Z</time>
      </trkpt>
      <trkpt lat="43.33585" lon="5.78993">
        <ele>1020</ele>
        <time>2025-10-05T09:17:36Z</time>
      </trkpt>
      <trkpt lat="43.33586" lon="5.78993">
        <ele>1020.1</ele>
        <time>2025-10-05T09:17:37Z</time>
      </trkpt>
      <trkpt lat="43.33585" lon="5.78993">
        <ele>1020.1</ele>
        <time>2025-10-05T09:17:38Z</time>
      </trkpt>
      <trkpt lat="43.33586" lon="5.78993">
        <ele>1020.1</ele>
        <time>2025-10-05T09:17:39Z</time>
      </trkpt>
      <trkpt lat="43.33586" lon="5.78993">
        <ele>1020.1</ele>
        <time>2025-10-05T09:17:40Z</time>
      </trkpt>
      <trkpt lat="43.33586" lon="5.78993">
        <ele>1020.2</ele>
        <time>2025-10-05T09:17:41Z</time>
      </trkpt>
      <trkpt lat="43.33586" lon="5.78993">
        <ele>1020.2</ele>
        <time>2025-10-05T09:17:42Z</time>
      </trkpt>
      <trkpt lat="43.33585" lon="5.78993">
        <ele>1020.2</ele>
        <time>2025-10-05T09:17:43Z</time>
      </trkpt>
      <trkpt lat="43.33586" lon="5.78993">
        <ele>1020.3</ele>
        <time>2025-10-05T09:17:44Z</time>
      </trkpt>
      <trkpt lat="43.33586" lon="5.78993">
        <ele>1020.5</ele>
        <time>2025-10-05T09:17:45Z</time>
      </trkpt>
      <trkpt lat="43.33586" lon="5.78993">
        <ele>1020.6</ele>
        <time>2025-10-05T09:17:46Z</time>
      </trkpt>
      <trkpt lat="43.33586" lon="5.78993">
        <ele>1020.7</ele>
        <time>2025-10-05T09:17:47Z</time>
      </trkpt>
      <trkpt lat="43.33586" lon="5.78993">
        <ele>1021</ele>
        <time>2025-10-05T09:17:48Z</time>
      </trkpt>
      <trkpt lat="43.33585" lon="5.78993">
        <ele>1021.3</ele>
        <time>2025-10-05T09:17:49Z</time>
      </trkpt>
      <trkpt lat="43.33585" lon="5.78993">
        <ele>1021.5</ele>
        <time>2025-10-05T09:17:50Z</time>
      </trkpt>
      <trkpt lat="43.33585" lon="5.78993">
        <ele>1021.7</ele>
        <time>2025-10-05T09:17:51Z</time>
      </trkpt>
      <trkpt lat="43.33583" lon="5.78994">
        <ele>1021.8</ele>
        <time>2025-10-05T09:17:52Z</time>
      </trkpt>
      <trkpt lat="43.33584" lon="5.78994">
        <ele>1022</ele>
        <time>2025-10-05T09:17:53Z</time>
      </trkpt>
      <trkpt lat="43.33585" lon="5.78994">
        <ele>1022.2</ele>
        <time>2025-10-05T09:17:54Z</time>
      </trkpt>
      <trkpt lat="43.33586" lon="5.78994">
        <ele>1022.3</ele>
        <time>2025-10-05T09:17:55Z</time>
      </trkpt>
      <trkpt lat="43.33587" lon="5.78993">
        <ele>1022.4</ele>
        <time>2025-10-05T09:17:56Z</time>
      </trkpt>
      <trkpt lat="43.33587" lon="5.78993">
        <ele>1022.4</ele>
        <time>2025-10-05T09:17:57Z</time>
      </trkpt>
      <trkpt lat="43.33587" lon="5.78993">
        <ele>1022.4</ele>
        <time>2025-10-05T09:17:58Z</time>
      </trkpt>
      <trkpt lat="43.33587" lon="5.78993">
        <ele>1022.4</ele>
        <time>2025-10-05T09:17:59Z</time>
      </trkpt>
      <trkpt lat="43.33587" lon="5.78992">
        <ele>1022.4</ele>
        <time>2025-10-05T09:18:00Z</time>
      </trkpt>
      <trkpt lat="43.33587" lon="5.78992">
        <ele>1022.4</ele>
        <time>2025-10-05T09:18:01Z</time>
      </trkpt>
      <trkpt lat="43.33588" lon="5.78992">
        <ele>1022.4</ele>
        <time>2025-10-05T09:18:02Z</time>
      </trkpt>
      <trkpt lat="43.33588" lon="5.78992">
        <ele>1022.4</ele>
        <time>2025-10-05T09:18:03Z</time>
      </trkpt>
      <trkpt lat="43.33587" lon="5.78992">
        <ele>1022.2</ele>
        <time>2025-10-05T09:18:04Z</time>
      </trkpt>
      <trkpt lat="43.33588" lon="5.78992">
        <ele>1022.1</ele>
        <time>2025-10-05T09:18:05Z</time>
      </trkpt>
      <trkpt lat="43.33588" lon="5.78992">
        <ele>1022</ele>
        <time>2025-10-05T09:18:06Z</time>
      </trkpt>
      <trkpt lat="43.33588" lon="5.78992">
        <ele>1021.9</ele>
        <time>2025-10-05T09:18:07Z</time>
      </trkpt>
      <trkpt lat="43.33588" lon="5.78992">
        <ele>1021.8</ele>
        <time>2025-10-05T09:18:08Z</time>
      </trkpt>
      <trkpt lat="43.33588" lon="5.78992">
        <ele>1021.8</ele>
        <time>2025-10-05T09:18:09Z</time>
      </trkpt>
      <trkpt lat="43.33587" lon="5.78993">
        <ele>1021.7</ele>
        <time>2025-10-05T09:18:10Z</time>
      </trkpt>
      <trkpt lat="43.33586" lon="5.78993">
        <ele>1021.5</ele>
        <time>2025-10-05T09:18:11Z</time>
      </trkpt>
      <trkpt lat="43.33586" lon="5.78993">
        <ele>1021.5</ele>
        <time>2025-10-05T09:18:12Z</time>
      </trkpt>
      <trkpt lat="43.33586" lon="5.78993">
        <ele>1021.5</ele>
        <time>2025-10-05T09:18:13Z</time>
      </trkpt>
      <trkpt lat="43.33586" lon="5.78993">
        <ele>1021.4</ele>
        <time>2025-10-05T09:18:14Z</time>
      </trkpt>
      <trkpt lat="43.33586" lon="5.78994">
        <ele>1021.5</ele>
        <time>2025-10-05T09:18:15Z</time>
      </trkpt>
      <trkpt lat="43.33586" lon="5.78994">
        <ele>1021.6</ele>
        <time>2025-10-05T09:18:16Z</time>
      </trkpt>
      <trkpt lat="43.33586" lon="5.78994">
        <ele>1021.7</ele>
        <time>2025-10-05T09:18:17Z</time>
      </trkpt>
      <trkpt lat="43.33586" lon="5.78994">
        <ele>1021.5</ele>
        <time>2025-10-05T09:18:18Z</time>
      </trkpt>
      <trkpt lat="43.33586" lon="5.78994">
        <ele>1021.5</ele>
        <time>2025-10-05T09:18:19Z</time>
      </trkpt>
      <trkpt lat="43.33586" lon="5.78994">
        <ele>1021.5</ele>
        <time>2025-10-05T09:18:20Z</time>
      </trkpt>
      <trkpt lat="43.33586" lon="5.78994">
        <ele>1021.5</ele>
        <time>2025-10-05T09:18:21Z</time>
      </trkpt>
      <trkpt lat="43.33586" lon="5.78994">
        <ele>1021.4</ele>
        <time>2025-10-05T09:18:22Z</time>
      </trkpt>
      <trkpt lat="43.33585" lon="5.78994">
        <ele>1021.4</ele>
        <time>2025-10-05T09:18:23Z</time>
      </trkpt>
      <trkpt lat="43.33586" lon="5.78994">
        <ele>1021.3</ele>
        <time>2025-10-05T09:18:24Z</time>
      </trkpt>
      <trkpt lat="43.33586" lon="5.78994">
        <ele>1021.1</ele>
        <time>2025-10-05T09:18:25Z</time>
      </trkpt>
      <trkpt lat="43.33586" lon="5.78994">
        <ele>1020.9</ele>
        <time>2025-10-05T09:18:26Z</time>
      </trkpt>
      <trkpt lat="43.33586" lon="5.78994">
        <ele>1020.8</ele>
        <time>2025-10-05T09:18:27Z</time>
      </trkpt>
      <trkpt lat="43.33586" lon="5.78994">
        <ele>1020.7</ele>
        <time>2025-10-05T09:18:28Z</time>
      </trkpt>
      <trkpt lat="43.33586" lon="5.78994">
        <ele>1020.7</ele>
        <time>2025-10-05T09:18:29Z</time>
      </trkpt>
      <trkpt lat="43.33585" lon="5.78994">
        <ele>1020.7</ele>
        <time>2025-10-05T09:18:30Z</time>
      </trkpt>
      <trkpt lat="43.33585" lon="5.78994">
        <ele>1020.7</ele>
        <time>2025-10-05T09:18:31Z</time>
      </trkpt>
      <trkpt lat="43.33585" lon="5.78994">
        <ele>1020.6</ele>
        <time>2025-10-05T09:18:32Z</time>
      </trkpt>
      <trkpt lat="43.33586" lon="5.78993">
        <ele>1020.5</ele>
        <time>2025-10-05T09:18:33Z</time>
      </trkpt>
      <trkpt lat="43.33586" lon="5.78993">
        <ele>1020.5</ele>
        <time>2025-10-05T09:18:34Z</time>
      </trkpt>
      <trkpt lat="43.33586" lon="5.78993">
        <ele>1020.4</ele>
        <time>2025-10-05T09:18:35Z</time>
      </trkpt>
      <trkpt lat="43.33586" lon="5.78993">
        <ele>1020.3</ele>
        <time>2025-10-05T09:18:36Z</time>
      </trkpt>
      <trkpt lat="43.33586" lon="5.78993">
        <ele>1020.2</ele>
        <time>2025-10-05T09:18:37Z</time>
      </trkpt>
      <trkpt lat="43.33586" lon="5.78993">
        <ele>1020</ele>
        <time>2025-10-05T09:18:38Z</time>
      </trkpt>
      <trkpt lat="43.33586" lon="5.78993">
        <ele>1019.8</ele>
        <time>2025-10-05T09:18:39Z</time>
      </trkpt>
      <trkpt lat="43.33586" lon="5.78992">
        <ele>1019.6</ele>
        <time>2025-10-05T09:18:40Z</time>
      </trkpt>
      <trkpt lat="43.33586" lon="5.78992">
        <ele>1019.5</ele>
        <time>2025-10-05T09:18:41Z</time>
      </trkpt>
      <trkpt lat="43.33586" lon="5.78992">
        <ele>1019.5</ele>
        <time>2025-10-05T09:18:42Z</time>
      </trkpt>
      <trkpt lat="43.33586" lon="5.78993">
        <ele>1019.5</ele>
        <time>2025-10-05T09:18:43Z</time>
      </trkpt>
      <trkpt lat="43.33586" lon="5.78993">
        <ele>1019.4</ele>
        <time>2025-10-05T09:18:44Z</time>
      </trkpt>
      <trkpt lat="43.33586" lon="5.78993">
        <ele>1019.5</ele>
        <time>2025-10-05T09:18:45Z</time>
      </trkpt>
      <trkpt lat="43.33586" lon="5.78993">
        <ele>1019.5</ele>
        <time>2025-10-05T09:18:46Z</time>
      </trkpt>
      <trkpt lat="43.33586" lon="5.78993">
        <ele>1019.5</ele>
        <time>2025-10-05T09:18:47Z</time>
      </trkpt>
      <trkpt lat="43.33586" lon="5.78993">
        <ele>1019.7</ele>
        <time>2025-10-05T09:18:48Z</time>
      </trkpt>
      <trkpt lat="43.33587" lon="5.78993">
        <ele>1019.9</ele>
        <time>2025-10-05T09:18:49Z</time>
      </trkpt>
      <trkpt lat="43.33587" lon="5.78993">
        <ele>1020</ele>
        <time>2025-10-05T09:18:50Z</time>
      </trkpt>
      <trkpt lat="43.33587" lon="5.78993">
        <ele>1020.2</ele>
        <time>2025-10-05T09:18:51Z</time>
      </trkpt>
      <trkpt lat="43.33587" lon="5.78993">
        <ele>1020.3</ele>
        <time>2025-10-05T09:18:52Z</time>
      </trkpt>
      <trkpt lat="43.33587" lon="5.78993">
        <ele>1020.4</ele>
        <time>2025-10-05T09:18:53Z</time>
      </trkpt>
      <trkpt lat="43.33587" lon="5.78993">
        <ele>1020.5</ele>
        <time>2025-10-05T09:18:54Z</time>
      </trkpt>
      <trkpt lat="43.33587" lon="5.78993">
        <ele>1020.6</ele>
        <time>2025-10-05T09:18:55Z</time>
      </trkpt>
      <trkpt lat="43.33588" lon="5.78993">
        <ele>1020.6</ele>
        <time>2025-10-05T09:18:56Z</time>
      </trkpt>
      <trkpt lat="43.33588" lon="5.78993">
        <ele>1020.6</ele>
        <time>2025-10-05T09:18:57Z</time>
      </trkpt>
      <trkpt lat="43.33588" lon="5.78993">
        <ele>1020.6</ele>
        <time>2025-10-05T09:18:58Z</time>
      </trkpt>
      <trkpt lat="43.33588" lon="5.78992">
        <ele>1020.5</ele>
        <time>2025-10-05T09:18:59Z</time>
      </trkpt>
      <trkpt lat="43.33588" lon="5.78992">
        <ele>1020.4</ele>
        <time>2025-10-05T09:19:00Z</time>
      </trkpt>
      <trkpt lat="43.33588" lon="5.78992">
        <ele>1020.4</ele>
        <time>2025-10-05T09:19:01Z</time>
      </trkpt>
      <trkpt lat="43.33588" lon="5.78992">
        <ele>1020.4</ele>
        <time>2025-10-05T09:19:02Z</time>
      </trkpt>
      <trkpt lat="43.33588" lon="5.78992">
        <ele>1020.5</ele>
        <time>2025-10-05T09:19:03Z</time>
      </trkpt>
      <trkpt lat="43.33588" lon="5.78992">
        <ele>1020.4</ele>
        <time>2025-10-05T09:19:04Z</time>
      </trkpt>
      <trkpt lat="43.33588" lon="5.78993">
        <ele>1020.3</ele>
        <time>2025-10-05T09:19:05Z</time>
      </trkpt>
      <trkpt lat="43.33588" lon="5.78993">
        <ele>1020.3</ele>
        <time>2025-10-05T09:19:06Z</time>
      </trkpt>
      <trkpt lat="43.33588" lon="5.78992">
        <ele>1020.2</ele>
        <time>2025-10-05T09:19:07Z</time>
      </trkpt>
      <trkpt lat="43.33588" lon="5.78993">
        <ele>1020</ele>
        <time>2025-10-05T09:19:08Z</time>
      </trkpt>
      <trkpt lat="43.33588" lon="5.78993">
        <ele>1020</ele>
        <time>2025-10-05T09:19:09Z</time>
      </trkpt>
      <trkpt lat="43.33589" lon="5.78993">
        <ele>1020.1</ele>
        <time>2025-10-05T09:19:10Z</time>
      </trkpt>
      <trkpt lat="43.33589" lon="5.78992">
        <ele>1020</ele>
        <time>2025-10-05T09:19:11Z</time>
      </trkpt>
      <trkpt lat="43.33589" lon="5.78992">
        <ele>1020</ele>
        <time>2025-10-05T09:19:12Z</time>
      </trkpt>
      <trkpt lat="43.33588" lon="5.78992">
        <ele>1020</ele>
        <time>2025-10-05T09:19:13Z</time>
      </trkpt>
      <trkpt lat="43.33588" lon="5.78992">
        <ele>1020.1</ele>
        <time>2025-10-05T09:19:14Z</time>
      </trkpt>
      <trkpt lat="43.33589" lon="5.78992">
        <ele>1020.3</ele>
        <time>2025-10-05T09:19:15Z</time>
      </trkpt>
      <trkpt lat="43.33589" lon="5.78991">
        <ele>1020.5</ele>
        <time>2025-10-05T09:19:16Z</time>
      </trkpt>
      <trkpt lat="43.33589" lon="5.78991">
        <ele>1020.6</ele>
        <time>2025-10-05T09:19:17Z</time>
      </trkpt>
      <trkpt lat="43.33589" lon="5.7899">
        <ele>1020.6</ele>
        <time>2025-10-05T09:19:18Z</time>
      </trkpt>
      <trkpt lat="43.3359" lon="5.7899">
        <ele>1020.8</ele>
        <time>2025-10-05T09:19:19Z</time>
      </trkpt>
      <trkpt lat="43.3359" lon="5.78989">
        <ele>1021</ele>
        <time>2025-10-05T09:19:20Z</time>
      </trkpt>
      <trkpt lat="43.3359" lon="5.78988">
        <ele>1021.1</ele>
        <time>2025-10-05T09:19:21Z</time>
      </trkpt>
      <trkpt lat="43.3359" lon="5.78987">
        <ele>1021.2</ele>
        <time>2025-10-05T09:19:22Z</time>
      </trkpt>
      <trkpt lat="43.33589" lon="5.78986">
        <ele>1021.3</ele>
        <time>2025-10-05T09:19:23Z</time>
      </trkpt>
      <trkpt lat="43.33588" lon="5.78987">
        <ele>1021.5</ele>
        <time>2025-10-05T09:19:24Z</time>
      </trkpt>
      <trkpt lat="43.33588" lon="5.78987">
        <ele>1021.8</ele>
        <time>2025-10-05T09:19:25Z</time>
      </trkpt>
      <trkpt lat="43.33588" lon="5.78986">
        <ele>1021.8</ele>
        <time>2025-10-05T09:19:26Z</time>
      </trkpt>
      <trkpt lat="43.33588" lon="5.78986">
        <ele>1022.1</ele>
        <time>2025-10-05T09:19:27Z</time>
      </trkpt>
      <trkpt lat="43.33588" lon="5.78985">
        <ele>1022.3</ele>
        <time>2025-10-05T09:19:28Z</time>
      </trkpt>
      <trkpt lat="43.33588" lon="5.78984">
        <ele>1022.3</ele>
        <time>2025-10-05T09:19:29Z</time>
      </trkpt>
      <trkpt lat="43.33588" lon="5.78984">
        <ele>1022.3</ele>
        <time>2025-10-05T09:19:30Z</time>
      </trkpt>
      <trkpt lat="43.33588" lon="5.78984">
        <ele>1022.4</ele>
        <time>2025-10-05T09:19:31Z</time>
      </trkpt>
      <trkpt lat="43.33588" lon="5.78983">
        <ele>1022.5</ele>
        <time>2025-10-05T09:19:32Z</time>
      </trkpt>
      <trkpt lat="43.33588" lon="5.78983">
        <ele>1022.6</ele>
        <time>2025-10-05T09:19:33Z</time>
      </trkpt>
      <trkpt lat="43.33588" lon="5.78983">
        <ele>1022.7</ele>
        <time>2025-10-05T09:19:34Z</time>
      </trkpt>
      <trkpt lat="43.33588" lon="5.78983">
        <ele>1022.6</ele>
        <time>2025-10-05T09:19:35Z</time>
      </trkpt>
      <trkpt lat="43.33588" lon="5.78984">
        <ele>1022.6</ele>
        <time>2025-10-05T09:19:36Z</time>
      </trkpt>
      <trkpt lat="43.33588" lon="5.78984">
        <ele>1022.6</ele>
        <time>2025-10-05T09:19:37Z</time>
      </trkpt>
      <trkpt lat="43.33588" lon="5.78984">
        <ele>1022.6</ele>
        <time>2025-10-05T09:19:38Z</time>
      </trkpt>
      <trkpt lat="43.33588" lon="5.78984">
        <ele>1022.5</ele>
        <time>2025-10-05T09:19:39Z</time>
      </trkpt>
      <trkpt lat="43.33588" lon="5.78984">
        <ele>1022.6</ele>
        <time>2025-10-05T09:19:40Z</time>
      </trkpt>
      <trkpt lat="43.33588" lon="5.78984">
        <ele>1022.5</ele>
        <time>2025-10-05T09:19:41Z</time>
      </trkpt>
      <trkpt lat="43.33588" lon="5.78984">
        <ele>1022.5</ele>
        <time>2025-10-05T09:19:42Z</time>
      </trkpt>
      <trkpt lat="43.33588" lon="5.78984">
        <ele>1022.4</ele>
        <time>2025-10-05T09:19:43Z</time>
      </trkpt>
      <trkpt lat="43.33588" lon="5.78984">
        <ele>1022.4</ele>
        <time>2025-10-05T09:19:44Z</time>
      </trkpt>
      <trkpt lat="43.33588" lon="5.78984">
        <ele>1022.3</ele>
        <time>2025-10-05T09:19:45Z</time>
      </trkpt>
      <trkpt lat="43.33588" lon="5.78984">
        <ele>1022.3</ele>
        <time>2025-10-05T09:19:46Z</time>
      </trkpt>
      <trkpt lat="43.33588" lon="5.78984">
        <ele>1022.3</ele>
        <time>2025-10-05T09:19:47Z</time>
      </trkpt>
      <trkpt lat="43.33588" lon="5.78984">
        <ele>1022.2</ele>
        <time>2025-10-05T09:19:48Z</time>
      </trkpt>
      <trkpt lat="43.33589" lon="5.78984">
        <ele>1022.2</ele>
        <time>2025-10-05T09:19:49Z</time>
      </trkpt>
      <trkpt lat="43.33589" lon="5.78984">
        <ele>1022.2</ele>
        <time>2025-10-05T09:19:50Z</time>
      </trkpt>
      <trkpt lat="43.33589" lon="5.78984">
        <ele>1022.1</ele>
        <time>2025-10-05T09:19:51Z</time>
      </trkpt>
      <trkpt lat="43.33589" lon="5.78983">
        <ele>1022.1</ele>
        <time>2025-10-05T09:19:52Z</time>
      </trkpt>
      <trkpt lat="43.33589" lon="5.78983">
        <ele>1022.1</ele>
        <time>2025-10-05T09:19:53Z</time>
      </trkpt>
      <trkpt lat="43.3359" lon="5.78982">
        <ele>1022</ele>
        <time>2025-10-05T09:19:54Z</time>
      </trkpt>
      <trkpt lat="43.3359" lon="5.78982">
        <ele>1021.9</ele>
        <time>2025-10-05T09:19:55Z</time>
      </trkpt>
      <trkpt lat="43.3359" lon="5.78982">
        <ele>1021.7</ele>
        <time>2025-10-05T09:19:56Z</time>
      </trkpt>
      <trkpt lat="43.3359" lon="5.78981">
        <ele>1021.6</ele>
        <time>2025-10-05T09:19:57Z</time>
      </trkpt>
      <trkpt lat="43.3359" lon="5.78981">
        <ele>1021.5</ele>
        <time>2025-10-05T09:19:58Z</time>
      </trkpt>
      <trkpt lat="43.3359" lon="5.7898">
        <ele>1021.4</ele>
        <time>2025-10-05T09:19:59Z</time>
      </trkpt>
      <trkpt lat="43.33589" lon="5.7898">
        <ele>1021.3</ele>
        <time>2025-10-05T09:20:00Z</time>
      </trkpt>
      <trkpt lat="43.33589" lon="5.7898">
        <ele>1021.2</ele>
        <time>2025-10-05T09:20:01Z</time>
      </trkpt>
      <trkpt lat="43.33589" lon="5.7898">
        <ele>1021.1</ele>
        <time>2025-10-05T09:20:02Z</time>
      </trkpt>
      <trkpt lat="43.33589" lon="5.7898">
        <ele>1021</ele>
        <time>2025-10-05T09:20:03Z</time>
      </trkpt>
      <trkpt lat="43.33588" lon="5.78979">
        <ele>1021.1</ele>
        <time>2025-10-05T09:20:04Z</time>
      </trkpt>
      <trkpt lat="43.33587" lon="5.78979">
        <ele>1021.2</ele>
        <time>2025-10-05T09:20:05Z</time>
      </trkpt>
      <trkpt lat="43.33587" lon="5.78979">
        <ele>1021.2</ele>
        <time>2025-10-05T09:20:06Z</time>
      </trkpt>
      <trkpt lat="43.33587" lon="5.78979">
        <ele>1021.3</ele>
        <time>2025-10-05T09:20:07Z</time>
      </trkpt>
      <trkpt lat="43.33587" lon="5.78979">
        <ele>1021.3</ele>
        <time>2025-10-05T09:20:08Z</time>
      </trkpt>
      <trkpt lat="43.33587" lon="5.78978">
        <ele>1021.4</ele>
        <time>2025-10-05T09:20:09Z</time>
      </trkpt>
      <trkpt lat="43.33587" lon="5.78976">
        <ele>1021.4</ele>
        <time>2025-10-05T09:20:10Z</time>
      </trkpt>
      <trkpt lat="43.33586" lon="5.78976">
        <ele>1021.4</ele>
        <time>2025-10-05T09:20:11Z</time>
      </trkpt>
      <trkpt lat="43.33586" lon="5.78975">
        <ele>1021.5</ele>
        <time>2025-10-05T09:20:12Z</time>
      </trkpt>
      <trkpt lat="43.33585" lon="5.78975">
        <ele>1021.6</ele>
        <time>2025-10-05T09:20:13Z</time>
      </trkpt>
      <trkpt lat="43.33585" lon="5.78974">
        <ele>1021.5</ele>
        <time>2025-10-05T09:20:14Z</time>
      </trkpt>
      <trkpt lat="43.33585" lon="5.78973">
        <ele>1021.5</ele>
        <time>2025-10-05T09:20:15Z</time>
      </trkpt>
      <trkpt lat="43.33585" lon="5.78973">
        <ele>1021.5</ele>
        <time>2025-10-05T09:20:16Z</time>
      </trkpt>
      <trkpt lat="43.33585" lon="5.78971">
        <ele>1021.4</ele>
        <time>2025-10-05T09:20:17Z</time>
      </trkpt>
      <trkpt lat="43.33585" lon="5.7897">
        <ele>1021.4</ele>
        <time>2025-10-05T09:20:18Z</time>
      </trkpt>
      <trkpt lat="43.33584" lon="5.7897">
        <ele>1021.3</ele>
        <time>2025-10-05T09:20:19Z</time>
      </trkpt>
      <trkpt lat="43.33584" lon="5.7897">
        <ele>1021.3</ele>
        <time>2025-10-05T09:20:20Z</time>
      </trkpt>
      <trkpt lat="43.33583" lon="5.7897">
        <ele>1021.4</ele>
        <time>2025-10-05T09:20:21Z</time>
      </trkpt>
      <trkpt lat="43.33583" lon="5.7897">
        <ele>1021.4</ele>
        <time>2025-10-05T09:20:22Z</time>
      </trkpt>
      <trkpt lat="43.33583" lon="5.78969">
        <ele>1021.5</ele>
        <time>2025-10-05T09:20:23Z</time>
      </trkpt>
      <trkpt lat="43.33583" lon="5.78969">
        <ele>1021.6</ele>
        <time>2025-10-05T09:20:24Z</time>
      </trkpt>
      <trkpt lat="43.33583" lon="5.78969">
        <ele>1021.7</ele>
        <time>2025-10-05T09:20:25Z</time>
      </trkpt>
      <trkpt lat="43.33583" lon="5.78968">
        <ele>1021.8</ele>
        <time>2025-10-05T09:20:26Z</time>
      </trkpt>
      <trkpt lat="43.33583" lon="5.78967">
        <ele>1021.7</ele>
        <time>2025-10-05T09:20:27Z</time>
      </trkpt>
      <trkpt lat="43.33583" lon="5.78966">
        <ele>1021.4</ele>
        <time>2025-10-05T09:20:28Z</time>
      </trkpt>
      <trkpt lat="43.33584" lon="5.78966">
        <ele>1021.3</ele>
        <time>2025-10-05T09:20:29Z</time>
      </trkpt>
      <trkpt lat="43.33583" lon="5.78966">
        <ele>1021.2</ele>
        <time>2025-10-05T09:20:30Z</time>
      </trkpt>
      <trkpt lat="43.33583" lon="5.78965">
        <ele>1021.1</ele>
        <time>2025-10-05T09:20:31Z</time>
      </trkpt>
      <trkpt lat="43.33582" lon="5.78965">
        <ele>1021.3</ele>
        <time>2025-10-05T09:20:32Z</time>
      </trkpt>
      <trkpt lat="43.33581" lon="5.78964">
        <ele>1021.3</ele>
        <time>2025-10-05T09:20:33Z</time>
      </trkpt>
      <trkpt lat="43.33581" lon="5.78964">
        <ele>1021.3</ele>
        <time>2025-10-05T09:20:34Z</time>
      </trkpt>
      <trkpt lat="43.3358" lon="5.78963">
        <ele>1021.5</ele>
        <time>2025-10-05T09:20:35Z</time>
      </trkpt>
      <trkpt lat="43.3358" lon="5.78962">
        <ele>1021.5</ele>
        <time>2025-10-05T09:20:36Z</time>
      </trkpt>
      <trkpt lat="43.3358" lon="5.78961">
        <ele>1021.5</ele>
        <time>2025-10-05T09:20:37Z</time>
      </trkpt>
      <trkpt lat="43.3358" lon="5.78961">
        <ele>1021.6</ele>
        <time>2025-10-05T09:20:38Z</time>
      </trkpt>
      <trkpt lat="43.3358" lon="5.78961">
        <ele>1021.8</ele>
        <time>2025-10-05T09:20:39Z</time>
      </trkpt>
      <trkpt lat="43.3358" lon="5.78961">
        <ele>1021.8</ele>
        <time>2025-10-05T09:20:40Z</time>
      </trkpt>
      <trkpt lat="43.33581" lon="5.7896">
        <ele>1021.7</ele>
        <time>2025-10-05T09:20:41Z</time>
      </trkpt>
      <trkpt lat="43.33581" lon="5.7896">
        <ele>1021.8</ele>
        <time>2025-10-05T09:20:42Z</time>
      </trkpt>
      <trkpt lat="43.33581" lon="5.78959">
        <ele>1021.8</ele>
        <time>2025-10-05T09:20:43Z</time>
      </trkpt>
      <trkpt lat="43.33581" lon="5.78959">
        <ele>1021.9</ele>
        <time>2025-10-05T09:20:44Z</time>
      </trkpt>
      <trkpt lat="43.33581" lon="5.78959">
        <ele>1021.9</ele>
        <time>2025-10-05T09:20:45Z</time>
      </trkpt>
      <trkpt lat="43.33581" lon="5.78959">
        <ele>1021.9</ele>
        <time>2025-10-05T09:20:46Z</time>
      </trkpt>
      <trkpt lat="43.33581" lon="5.78958">
        <ele>1022</ele>
        <time>2025-10-05T09:20:47Z</time>
      </trkpt>
      <trkpt lat="43.33581" lon="5.78958">
        <ele>1022.1</ele>
        <time>2025-10-05T09:20:48Z</time>
      </trkpt>
      <trkpt lat="43.33581" lon="5.78958">
        <ele>1022.2</ele>
        <time>2025-10-05T09:20:49Z</time>
      </trkpt>
      <trkpt lat="43.3358" lon="5.78956">
        <ele>1022.3</ele>
        <time>2025-10-05T09:20:50Z</time>
      </trkpt>
      <trkpt lat="43.3358" lon="5.78956">
        <ele>1022.4</ele>
        <time>2025-10-05T09:20:51Z</time>
      </trkpt>
      <trkpt lat="43.3358" lon="5.78955">
        <ele>1022.4</ele>
        <time>2025-10-05T09:20:52Z</time>
      </trkpt>
      <trkpt lat="43.3358" lon="5.78955">
        <ele>1022.5</ele>
        <time>2025-10-05T09:20:53Z</time>
      </trkpt>
      <trkpt lat="43.3358" lon="5.78955">
        <ele>1022.6</ele>
        <time>2025-10-05T09:20:54Z</time>
      </trkpt>
      <trkpt lat="43.3358" lon="5.78955">
        <ele>1022.5</ele>
        <time>2025-10-05T09:20:55Z</time>
      </trkpt>
      <trkpt lat="43.3358" lon="5.78955">
        <ele>1022.6</ele>
        <time>2025-10-05T09:20:56Z</time>
      </trkpt>
      <trkpt lat="43.3358" lon="5.78955">
        <ele>1022.6</ele>
        <time>2025-10-05T09:20:57Z</time>
      </trkpt>
      <trkpt lat="43.3358" lon="5.78954">
        <ele>1022.7</ele>
        <time>2025-10-05T09:20:58Z</time>
      </trkpt>
      <trkpt lat="43.3358" lon="5.78954">
        <ele>1022.7</ele>
        <time>2025-10-05T09:20:59Z</time>
      </trkpt>
      <trkpt lat="43.3358" lon="5.78954">
        <ele>1022.6</ele>
        <time>2025-10-05T09:21:00Z</time>
      </trkpt>
      <trkpt lat="43.33581" lon="5.78954">
        <ele>1022.6</ele>
        <time>2025-10-05T09:21:01Z</time>
      </trkpt>
      <trkpt lat="43.33581" lon="5.78954">
        <ele>1022.6</ele>
        <time>2025-10-05T09:21:02Z</time>
      </trkpt>
      <trkpt lat="43.33581" lon="5.78953">
        <ele>1022.5</ele>
        <time>2025-10-05T09:21:03Z</time>
      </trkpt>
      <trkpt lat="43.33581" lon="5.78953">
        <ele>1022.5</ele>
        <time>2025-10-05T09:21:04Z</time>
      </trkpt>
      <trkpt lat="43.33581" lon="5.78953">
        <ele>1022.5</ele>
        <time>2025-10-05T09:21:05Z</time>
      </trkpt>
      <trkpt lat="43.33581" lon="5.78953">
        <ele>1022.6</ele>
        <time>2025-10-05T09:21:06Z</time>
      </trkpt>
      <trkpt lat="43.33581" lon="5.78953">
        <ele>1022.7</ele>
        <time>2025-10-05T09:21:07Z</time>
      </trkpt>
      <trkpt lat="43.33581" lon="5.78953">
        <ele>1022.8</ele>
        <time>2025-10-05T09:21:08Z</time>
      </trkpt>
      <trkpt lat="43.33581" lon="5.78953">
        <ele>1022.9</ele>
        <time>2025-10-05T09:21:09Z</time>
      </trkpt>
      <trkpt lat="43.33581" lon="5.78952">
        <ele>1022.9</ele>
        <time>2025-10-05T09:21:10Z</time>
      </trkpt>
      <trkpt lat="43.33581" lon="5.78952">
        <ele>1022.8</ele>
        <time>2025-10-05T09:21:11Z</time>
      </trkpt>
      <trkpt lat="43.33581" lon="5.78952">
        <ele>1022.9</ele>
        <time>2025-10-05T09:21:12Z</time>
      </trkpt>
      <trkpt lat="43.33581" lon="5.78952">
        <ele>1023</ele>
        <time>2025-10-05T09:21:13Z</time>
      </trkpt>
      <trkpt lat="43.33581" lon="5.78952">
        <ele>1023</ele>
        <time>2025-10-05T09:21:14Z</time>
      </trkpt>
      <trkpt lat="43.33581" lon="5.78951">
        <ele>1023</ele>
        <time>2025-10-05T09:21:15Z</time>
      </trkpt>
      <trkpt lat="43.33581" lon="5.78951">
        <ele>1023</ele>
        <time>2025-10-05T09:21:16Z</time>
      </trkpt>
      <trkpt lat="43.33581" lon="5.78951">
        <ele>1023</ele>
        <time>2025-10-05T09:21:17Z</time>
      </trkpt>
      <trkpt lat="43.33581" lon="5.78951">
        <ele>1023.1</ele>
        <time>2025-10-05T09:21:18Z</time>
      </trkpt>
      <trkpt lat="43.33581" lon="5.7895">
        <ele>1023.1</ele>
        <time>2025-10-05T09:21:19Z</time>
      </trkpt>
      <trkpt lat="43.33581" lon="5.7895">
        <ele>1023</ele>
        <time>2025-10-05T09:21:20Z</time>
      </trkpt>
      <trkpt lat="43.3358" lon="5.78949">
        <ele>1023</ele>
        <time>2025-10-05T09:21:21Z</time>
      </trkpt>
      <trkpt lat="43.3358" lon="5.78948">
        <ele>1022.9</ele>
        <time>2025-10-05T09:21:22Z</time>
      </trkpt>
      <trkpt lat="43.33581" lon="5.78947">
        <ele>1022.9</ele>
        <time>2025-10-05T09:21:23Z</time>
      </trkpt>
      <trkpt lat="43.33581" lon="5.78946">
        <ele>1022.9</ele>
        <time>2025-10-05T09:21:24Z</time>
      </trkpt>
      <trkpt lat="43.33581" lon="5.78946">
        <ele>1023</ele>
        <time>2025-10-05T09:21:25Z</time>
      </trkpt>
      <trkpt lat="43.3358" lon="5.78945">
        <ele>1023.1</ele>
        <time>2025-10-05T09:21:26Z</time>
      </trkpt>
      <trkpt lat="43.3358" lon="5.78945">
        <ele>1023.2</ele>
        <time>2025-10-05T09:21:27Z</time>
      </trkpt>
      <trkpt lat="43.33579" lon="5.78944">
        <ele>1023.3</ele>
        <time>2025-10-05T09:21:28Z</time>
      </trkpt>
      <trkpt lat="43.3358" lon="5.78944">
        <ele>1023.4</ele>
        <time>2025-10-05T09:21:29Z</time>
      </trkpt>
      <trkpt lat="43.33579" lon="5.78943">
        <ele>1023.5</ele>
        <time>2025-10-05T09:21:30Z</time>
      </trkpt>
      <trkpt lat="43.33578" lon="5.78943">
        <ele>1023.6</ele>
        <time>2025-10-05T09:21:31Z</time>
      </trkpt>
      <trkpt lat="43.33579" lon="5.78942">
        <ele>1023.7</ele>
        <time>2025-10-05T09:21:32Z</time>
      </trkpt>
      <trkpt lat="43.33579" lon="5.78941">
        <ele>1023.9</ele>
        <time>2025-10-05T09:21:33Z</time>
      </trkpt>
      <trkpt lat="43.33578" lon="5.78941">
        <ele>1024</ele>
        <time>2025-10-05T09:21:34Z</time>
      </trkpt>
      <trkpt lat="43.33578" lon="5.78941">
        <ele>1024</ele>
        <time>2025-10-05T09:21:35Z</time>
      </trkpt>
      <trkpt lat="43.33578" lon="5.7894">
        <ele>1024</ele>
        <time>2025-10-05T09:21:36Z</time>
      </trkpt>
      <trkpt lat="43.33578" lon="5.7894">
        <ele>1024</ele>
        <time>2025-10-05T09:21:37Z</time>
      </trkpt>
      <trkpt lat="43.33578" lon="5.7894">
        <ele>1024</ele>
        <time>2025-10-05T09:21:38Z</time>
      </trkpt>
      <trkpt lat="43.33578" lon="5.78939">
        <ele>1024</ele>
        <time>2025-10-05T09:21:39Z</time>
      </trkpt>
      <trkpt lat="43.33578" lon="5.78938">
        <ele>1024</ele>
        <time>2025-10-05T09:21:40Z</time>
      </trkpt>
      <trkpt lat="43.33579" lon="5.78938">
        <ele>1024.1</ele>
        <time>2025-10-05T09:21:41Z</time>
      </trkpt>
      <trkpt lat="43.33579" lon="5.78937">
        <ele>1023.9</ele>
        <time>2025-10-05T09:21:44Z</time>
      </trkpt>
      <trkpt lat="43.33579" lon="5.78937">
        <ele>1023.7</ele>
        <time>2025-10-05T09:21:45Z</time>
      </trkpt>
      <trkpt lat="43.33579" lon="5.78937">
        <ele>1023.6</ele>
        <time>2025-10-05T09:21:46Z</time>
      </trkpt>
      <trkpt lat="43.33579" lon="5.78936">
        <ele>1023.5</ele>
        <time>2025-10-05T09:21:47Z</time>
      </trkpt>
      <trkpt lat="43.33578" lon="5.78935">
        <ele>1023.4</ele>
        <time>2025-10-05T09:21:48Z</time>
      </trkpt>
      <trkpt lat="43.33578" lon="5.78935">
        <ele>1023.3</ele>
        <time>2025-10-05T09:21:49Z</time>
      </trkpt>
      <trkpt lat="43.3358" lon="5.78934">
        <ele>1023.2</ele>
        <time>2025-10-05T09:21:50Z</time>
      </trkpt>
      <trkpt lat="43.3358" lon="5.78933">
        <ele>1023.4</ele>
        <time>2025-10-05T09:21:51Z</time>
      </trkpt>
      <trkpt lat="43.3358" lon="5.78933">
        <ele>1023.5</ele>
        <time>2025-10-05T09:21:52Z</time>
      </trkpt>
      <trkpt lat="43.33578" lon="5.78932">
        <ele>1023.4</ele>
        <time>2025-10-05T09:21:53Z</time>
      </trkpt>
      <trkpt lat="43.33577" lon="5.78932">
        <ele>1023.4</ele>
        <time>2025-10-05T09:21:54Z</time>
      </trkpt>
      <trkpt lat="43.33577" lon="5.78931">
        <ele>1023.3</ele>
        <time>2025-10-05T09:21:55Z</time>
      </trkpt>
      <trkpt lat="43.33578" lon="5.78931">
        <ele>1023.3</ele>
        <time>2025-10-05T09:21:56Z</time>
      </trkpt>
      <trkpt lat="43.33577" lon="5.78931">
        <ele>1023.2</ele>
        <time>2025-10-05T09:21:57Z</time>
      </trkpt>
      <trkpt lat="43.33577" lon="5.78931">
        <ele>1023.1</ele>
        <time>2025-10-05T09:21:58Z</time>
      </trkpt>
      <trkpt lat="43.33577" lon="5.78931">
        <ele>1023.1</ele>
        <time>2025-10-05T09:21:59Z</time>
      </trkpt>
      <trkpt lat="43.33577" lon="5.78932">
        <ele>1023.3</ele>
        <time>2025-10-05T09:22:00Z</time>
      </trkpt>
      <trkpt lat="43.33578" lon="5.78932">
        <ele>1023.3</ele>
        <time>2025-10-05T09:22:01Z</time>
      </trkpt>
      <trkpt lat="43.33578" lon="5.78931">
        <ele>1023.3</ele>
        <time>2025-10-05T09:22:02Z</time>
      </trkpt>
      <trkpt lat="43.33578" lon="5.78931">
        <ele>1023.1</ele>
        <time>2025-10-05T09:22:03Z</time>
      </trkpt>
      <trkpt lat="43.33578" lon="5.78931">
        <ele>1023</ele>
        <time>2025-10-05T09:22:04Z</time>
      </trkpt>
      <trkpt lat="43.33577" lon="5.78931">
        <ele>1023</ele>
        <time>2025-10-05T09:22:05Z</time>
      </trkpt>
      <trkpt lat="43.33577" lon="5.78931">
        <ele>1023.1</ele>
        <time>2025-10-05T09:22:06Z</time>
      </trkpt>
      <trkpt lat="43.33576" lon="5.7893">
        <ele>1023.1</ele>
        <time>2025-10-05T09:22:07Z</time>
      </trkpt>
      <trkpt lat="43.33575" lon="5.78929">
        <ele>1023.1</ele>
        <time>2025-10-05T09:22:08Z</time>
      </trkpt>
      <trkpt lat="43.33575" lon="5.78929">
        <ele>1023.1</ele>
        <time>2025-10-05T09:22:09Z</time>
      </trkpt>
      <trkpt lat="43.33575" lon="5.78929">
        <ele>1023.1</ele>
        <time>2025-10-05T09:22:10Z</time>
      </trkpt>
      <trkpt lat="43.33574" lon="5.78928">
        <ele>1023.1</ele>
        <time>2025-10-05T09:22:11Z</time>
      </trkpt>
      <trkpt lat="43.33573" lon="5.78928">
        <ele>1023.1</ele>
        <time>2025-10-05T09:22:12Z</time>
      </trkpt>
      <trkpt lat="43.33573" lon="5.78927">
        <ele>1023.2</ele>
        <time>2025-10-05T09:22:13Z</time>
      </trkpt>
      <trkpt lat="43.33572" lon="5.78927">
        <ele>1023.3</ele>
        <time>2025-10-05T09:22:14Z</time>
      </trkpt>
      <trkpt lat="43.33572" lon="5.78926">
        <ele>1023.3</ele>
        <time>2025-10-05T09:22:15Z</time>
      </trkpt>
      <trkpt lat="43.33571" lon="5.78926">
        <ele>1023.4</ele>
        <time>2025-10-05T09:22:16Z</time>
      </trkpt>
      <trkpt lat="43.3357" lon="5.78925">
        <ele>1023.5</ele>
        <time>2025-10-05T09:22:17Z</time>
      </trkpt>
      <trkpt lat="43.33571" lon="5.78925">
        <ele>1023.7</ele>
        <time>2025-10-05T09:22:18Z</time>
      </trkpt>
      <trkpt lat="43.3357" lon="5.78925">
        <ele>1024</ele>
        <time>2025-10-05T09:22:19Z</time>
      </trkpt>
      <trkpt lat="43.33569" lon="5.78924">
        <ele>1024.3</ele>
        <time>2025-10-05T09:22:20Z</time>
      </trkpt>
      <trkpt lat="43.33569" lon="5.78924">
        <ele>1024.4</ele>
        <time>2025-10-05T09:22:21Z</time>
      </trkpt>
      <trkpt lat="43.33569" lon="5.78923">
        <ele>1024.6</ele>
        <time>2025-10-05T09:22:22Z</time>
      </trkpt>
      <trkpt lat="43.33569" lon="5.78923">
        <ele>1024.7</ele>
        <time>2025-10-05T09:22:23Z</time>
      </trkpt>
      <trkpt lat="43.33569" lon="5.78922">
        <ele>1024.9</ele>
        <time>2025-10-05T09:22:24Z</time>
      </trkpt>
      <trkpt lat="43.33569" lon="5.78922">
        <ele>1025</ele>
        <time>2025-10-05T09:22:25Z</time>
      </trkpt>
      <trkpt lat="43.33569" lon="5.78922">
        <ele>1025.2</ele>
        <time>2025-10-05T09:22:26Z</time>
      </trkpt>
      <trkpt lat="43.33568" lon="5.78922">
        <ele>1025.4</ele>
        <time>2025-10-05T09:22:27Z</time>
      </trkpt>
      <trkpt lat="43.33568" lon="5.78921">
        <ele>1025.6</ele>
        <time>2025-10-05T09:22:28Z</time>
      </trkpt>
      <trkpt lat="43.33567" lon="5.78921">
        <ele>1025.8</ele>
        <time>2025-10-05T09:22:29Z</time>
      </trkpt>
      <trkpt lat="43.33568" lon="5.7892">
        <ele>1025.8</ele>
        <time>2025-10-05T09:22:30Z</time>
      </trkpt>
      <trkpt lat="43.33567" lon="5.7892">
        <ele>1025.8</ele>
        <time>2025-10-05T09:22:31Z</time>
      </trkpt>
      <trkpt lat="43.33567" lon="5.78919">
        <ele>1025.8</ele>
        <time>2025-10-05T09:22:32Z</time>
      </trkpt>
      <trkpt lat="43.33567" lon="5.78919">
        <ele>1025.8</ele>
        <time>2025-10-05T09:22:33Z</time>
      </trkpt>
      <trkpt lat="43.33567" lon="5.78919">
        <ele>1025.8</ele>
        <time>2025-10-05T09:22:34Z</time>
      </trkpt>
      <trkpt lat="43.33567" lon="5.78918">
        <ele>1025.7</ele>
        <time>2025-10-05T09:22:35Z</time>
      </trkpt>
      <trkpt lat="43.33567" lon="5.78917">
        <ele>1025.5</ele>
        <time>2025-10-05T09:22:36Z</time>
      </trkpt>
      <trkpt lat="43.33567" lon="5.78916">
        <ele>1025.3</ele>
        <time>2025-10-05T09:22:37Z</time>
      </trkpt>
      <trkpt lat="43.33568" lon="5.78915">
        <ele>1025.1</ele>
        <time>2025-10-05T09:22:38Z</time>
      </trkpt>
      <trkpt lat="43.33567" lon="5.78915">
        <ele>1024.9</ele>
        <time>2025-10-05T09:22:39Z</time>
      </trkpt>
      <trkpt lat="43.33567" lon="5.78915">
        <ele>1024.9</ele>
        <time>2025-10-05T09:22:40Z</time>
      </trkpt>
      <trkpt lat="43.33566" lon="5.78915">
        <ele>1024.7</ele>
        <time>2025-10-05T09:22:41Z</time>
      </trkpt>
      <trkpt lat="43.33566" lon="5.78913">
        <ele>1024.7</ele>
        <time>2025-10-05T09:22:42Z</time>
      </trkpt>
      <trkpt lat="43.33566" lon="5.78913">
        <ele>1024.6</ele>
        <time>2025-10-05T09:22:43Z</time>
      </trkpt>
      <trkpt lat="43.33567" lon="5.78912">
        <ele>1024.4</ele>
        <time>2025-10-05T09:22:44Z</time>
      </trkpt>
      <trkpt lat="43.33566" lon="5.78911">
        <ele>1024.1</ele>
        <time>2025-10-05T09:22:45Z</time>
      </trkpt>
      <trkpt lat="43.33565" lon="5.7891">
        <ele>1023.7</ele>
        <time>2025-10-05T09:22:46Z</time>
      </trkpt>
      <trkpt lat="43.33566" lon="5.7891">
        <ele>1023.5</ele>
        <time>2025-10-05T09:22:47Z</time>
      </trkpt>
      <trkpt lat="43.33565" lon="5.7891">
        <ele>1023.4</ele>
        <time>2025-10-05T09:22:48Z</time>
      </trkpt>
      <trkpt lat="43.33565" lon="5.7891">
        <ele>1023.4</ele>
        <time>2025-10-05T09:22:49Z</time>
      </trkpt>
      <trkpt lat="43.33565" lon="5.7891">
        <ele>1023.2</ele>
        <time>2025-10-05T09:22:50Z</time>
      </trkpt>
      <trkpt lat="43.33566" lon="5.7891">
        <ele>1023</ele>
        <time>2025-10-05T09:22:51Z</time>
      </trkpt>
      <trkpt lat="43.33565" lon="5.78909">
        <ele>1022.8</ele>
        <time>2025-10-05T09:22:52Z</time>
      </trkpt>
      <trkpt lat="43.33565" lon="5.78909">
        <ele>1022.7</ele>
        <time>2025-10-05T09:22:53Z</time>
      </trkpt>
      <trkpt lat="43.33565" lon="5.78908">
        <ele>1022.4</ele>
        <time>2025-10-05T09:22:54Z</time>
      </trkpt>
      <trkpt lat="43.33565" lon="5.78908">
        <ele>1022.3</ele>
        <time>2025-10-05T09:22:55Z</time>
      </trkpt>
      <trkpt lat="43.33565" lon="5.78907">
        <ele>1022.2</ele>
        <time>2025-10-05T09:22:56Z</time>
      </trkpt>
      <trkpt lat="43.33565" lon="5.78907">
        <ele>1022</ele>
        <time>2025-10-05T09:22:57Z</time>
      </trkpt>
      <trkpt lat="43.33565" lon="5.78906">
        <ele>1021.9</ele>
        <time>2025-10-05T09:22:58Z</time>
      </trkpt>
      <trkpt lat="43.33566" lon="5.78905">
        <ele>1021.8</ele>
        <time>2025-10-05T09:22:59Z</time>
      </trkpt>
      <trkpt lat="43.33566" lon="5.78904">
        <ele>1021.7</ele>
        <time>2025-10-05T09:23:00Z</time>
      </trkpt>
      <trkpt lat="43.33566" lon="5.78904">
        <ele>1021.4</ele>
        <time>2025-10-05T09:23:01Z</time>
      </trkpt>
      <trkpt lat="43.33566" lon="5.78903">
        <ele>1021.1</ele>
        <time>2025-10-05T09:23:02Z</time>
      </trkpt>
      <trkpt lat="43.33566" lon="5.78901">
        <ele>1021</ele>
        <time>2025-10-05T09:23:03Z</time>
      </trkpt>
      <trkpt lat="43.33566" lon="5.789">
        <ele>1020.8</ele>
        <time>2025-10-05T09:23:04Z</time>
      </trkpt>
      <trkpt lat="43.33566" lon="5.789">
        <ele>1021</ele>
        <time>2025-10-05T09:23:05Z</time>
      </trkpt>
      <trkpt lat="43.33565" lon="5.789">
        <ele>1020.9</ele>
        <time>2025-10-05T09:23:06Z</time>
      </trkpt>
      <trkpt lat="43.33564" lon="5.78899">
        <ele>1020.9</ele>
        <time>2025-10-05T09:23:07Z</time>
      </trkpt>
      <trkpt lat="43.33563" lon="5.78899">
        <ele>1020.9</ele>
        <time>2025-10-05T09:23:08Z</time>
      </trkpt>
      <trkpt lat="43.33562" lon="5.78899">
        <ele>1020.9</ele>
        <time>2025-10-05T09:23:09Z</time>
      </trkpt>
      <trkpt lat="43.33562" lon="5.78899">
        <ele>1021</ele>
        <time>2025-10-05T09:23:10Z</time>
      </trkpt>
      <trkpt lat="43.33562" lon="5.78899">
        <ele>1020.8</ele>
        <time>2025-10-05T09:23:11Z</time>
      </trkpt>
      <trkpt lat="43.33562" lon="5.78897">
        <ele>1020.7</ele>
        <time>2025-10-05T09:23:12Z</time>
      </trkpt>
      <trkpt lat="43.33562" lon="5.78896">
        <ele>1020.6</ele>
        <time>2025-10-05T09:23:13Z</time>
      </trkpt>
      <trkpt lat="43.33562" lon="5.78895">
        <ele>1020.8</ele>
        <time>2025-10-05T09:23:14Z</time>
      </trkpt>
      <trkpt lat="43.33562" lon="5.78894">
        <ele>1020.6</ele>
        <time>2025-10-05T09:23:15Z</time>
      </trkpt>
      <trkpt lat="43.33561" lon="5.78893">
        <ele>1020.6</ele>
        <time>2025-10-05T09:23:16Z</time>
      </trkpt>
      <trkpt lat="43.3356" lon="5.78892">
        <ele>1020.6</ele>
        <time>2025-10-05T09:23:17Z</time>
      </trkpt>
      <trkpt lat="43.33561" lon="5.78891">
        <ele>1020.6</ele>
        <time>2025-10-05T09:23:18Z</time>
      </trkpt>
      <trkpt lat="43.33561" lon="5.7889">
        <ele>1020.7</ele>
        <time>2025-10-05T09:23:19Z</time>
      </trkpt>
      <trkpt lat="43.33561" lon="5.78888">
        <ele>1020.8</ele>
        <time>2025-10-05T09:23:20Z</time>
      </trkpt>
      <trkpt lat="43.33561" lon="5.78887">
        <ele>1020.9</ele>
        <time>2025-10-05T09:23:21Z</time>
      </trkpt>
      <trkpt lat="43.33561" lon="5.78887">
        <ele>1021.1</ele>
        <time>2025-10-05T09:23:22Z</time>
      </trkpt>
      <trkpt lat="43.33561" lon="5.78886">
        <ele>1021.2</ele>
        <time>2025-10-05T09:23:23Z</time>
      </trkpt>
      <trkpt lat="43.33561" lon="5.78885">
        <ele>1021.3</ele>
        <time>2025-10-05T09:23:24Z</time>
      </trkpt>
      <trkpt lat="43.33561" lon="5.78884">
        <ele>1021.4</ele>
        <time>2025-10-05T09:23:25Z</time>
      </trkpt>
      <trkpt lat="43.33561" lon="5.78883">
        <ele>1021.5</ele>
        <time>2025-10-05T09:23:26Z</time>
      </trkpt>
      <trkpt lat="43.33561" lon="5.78882">
        <ele>1021.6</ele>
        <time>2025-10-05T09:23:27Z</time>
      </trkpt>
      <trkpt lat="43.33562" lon="5.78882">
        <ele>1021.9</ele>
        <time>2025-10-05T09:23:28Z</time>
      </trkpt>
      <trkpt lat="43.33562" lon="5.78881">
        <ele>1022.2</ele>
        <time>2025-10-05T09:23:29Z</time>
      </trkpt>
      <trkpt lat="43.33562" lon="5.78881">
        <ele>1022.2</ele>
        <time>2025-10-05T09:23:30Z</time>
      </trkpt>
      <trkpt lat="43.33562" lon="5.7888">
        <ele>1022.3</ele>
        <time>2025-10-05T09:23:31Z</time>
      </trkpt>
      <trkpt lat="43.33561" lon="5.78879">
        <ele>1022.4</ele>
        <time>2025-10-05T09:23:32Z</time>
      </trkpt>
      <trkpt lat="43.33561" lon="5.78879">
        <ele>1022.2</ele>
        <time>2025-10-05T09:23:33Z</time>
      </trkpt>
      <trkpt lat="43.33562" lon="5.78879">
        <ele>1022.2</ele>
        <time>2025-10-05T09:23:34Z</time>
      </trkpt>
      <trkpt lat="43.33562" lon="5.78878">
        <ele>1022.1</ele>
        <time>2025-10-05T09:23:35Z</time>
      </trkpt>
      <trkpt lat="43.33562" lon="5.78878">
        <ele>1022.1</ele>
        <time>2025-10-05T09:23:36Z</time>
      </trkpt>
      <trkpt lat="43.33562" lon="5.78877">
        <ele>1022</ele>
        <time>2025-10-05T09:23:37Z</time>
      </trkpt>
      <trkpt lat="43.33562" lon="5.78877">
        <ele>1022.1</ele>
        <time>2025-10-05T09:23:38Z</time>
      </trkpt>
      <trkpt lat="43.33562" lon="5.78876">
        <ele>1022.5</ele>
        <time>2025-10-05T09:23:39Z</time>
      </trkpt>
      <trkpt lat="43.33563" lon="5.78876">
        <ele>1022.4</ele>
        <time>2025-10-05T09:23:40Z</time>
      </trkpt>
      <trkpt lat="43.33563" lon="5.78876">
        <ele>1022.3</ele>
        <time>2025-10-05T09:23:41Z</time>
      </trkpt>
      <trkpt lat="43.33563" lon="5.78876">
        <ele>1022.2</ele>
        <time>2025-10-05T09:23:42Z</time>
      </trkpt>
      <trkpt lat="43.33563" lon="5.78876">
        <ele>1022.1</ele>
        <time>2025-10-05T09:23:43Z</time>
      </trkpt>
      <trkpt lat="43.33563" lon="5.78875">
        <ele>1022</ele>
        <time>2025-10-05T09:23:44Z</time>
      </trkpt>
      <trkpt lat="43.33562" lon="5.78875">
        <ele>1022.2</ele>
        <time>2025-10-05T09:23:45Z</time>
      </trkpt>
      <trkpt lat="43.33562" lon="5.78874">
        <ele>1022.3</ele>
        <time>2025-10-05T09:23:46Z</time>
      </trkpt>
      <trkpt lat="43.33562" lon="5.78874">
        <ele>1022.3</ele>
        <time>2025-10-05T09:23:47Z</time>
      </trkpt>
      <trkpt lat="43.33562" lon="5.78873">
        <ele>1022.5</ele>
        <time>2025-10-05T09:23:48Z</time>
      </trkpt>
      <trkpt lat="43.33561" lon="5.78872">
        <ele>1022.6</ele>
        <time>2025-10-05T09:23:49Z</time>
      </trkpt>
      <trkpt lat="43.33561" lon="5.78871">
        <ele>1023</ele>
        <time>2025-10-05T09:23:50Z</time>
      </trkpt>
      <trkpt lat="43.3356" lon="5.7887">
        <ele>1022.9</ele>
        <time>2025-10-05T09:23:51Z</time>
      </trkpt>
      <trkpt lat="43.3356" lon="5.78869">
        <ele>1023</ele>
        <time>2025-10-05T09:23:52Z</time>
      </trkpt>
      <trkpt lat="43.3356" lon="5.78869">
        <ele>1023.2</ele>
        <time>2025-10-05T09:23:53Z</time>
      </trkpt>
      <trkpt lat="43.33559" lon="5.78868">
        <ele>1023.2</ele>
        <time>2025-10-05T09:23:54Z</time>
      </trkpt>
      <trkpt lat="43.33559" lon="5.78868">
        <ele>1023.3</ele>
        <time>2025-10-05T09:23:55Z</time>
      </trkpt>
      <trkpt lat="43.33559" lon="5.78867">
        <ele>1023.2</ele>
        <time>2025-10-05T09:23:56Z</time>
      </trkpt>
      <trkpt lat="43.33559" lon="5.78866">
        <ele>1023</ele>
        <time>2025-10-05T09:23:57Z</time>
      </trkpt>
      <trkpt lat="43.33559" lon="5.78865">
        <ele>1022.8</ele>
        <time>2025-10-05T09:23:58Z</time>
      </trkpt>
      <trkpt lat="43.33558" lon="5.78864">
        <ele>1022.4</ele>
        <time>2025-10-05T09:23:59Z</time>
      </trkpt>
      <trkpt lat="43.33558" lon="5.78864">
        <ele>1022.3</ele>
        <time>2025-10-05T09:24:00Z</time>
      </trkpt>
      <trkpt lat="43.33557" lon="5.78862">
        <ele>1022.4</ele>
        <time>2025-10-05T09:24:01Z</time>
      </trkpt>
      <trkpt lat="43.33557" lon="5.78861">
        <ele>1022.5</ele>
        <time>2025-10-05T09:24:02Z</time>
      </trkpt>
      <trkpt lat="43.33557" lon="5.78861">
        <ele>1022.7</ele>
        <time>2025-10-05T09:24:03Z</time>
      </trkpt>
      <trkpt lat="43.33557" lon="5.7886">
        <ele>1022.9</ele>
        <time>2025-10-05T09:24:04Z</time>
      </trkpt>
      <trkpt lat="43.33557" lon="5.78859">
        <ele>1023</ele>
        <time>2025-10-05T09:24:05Z</time>
      </trkpt>
      <trkpt lat="43.33557" lon="5.78858">
        <ele>1023.1</ele>
        <time>2025-10-05T09:24:06Z</time>
      </trkpt>
      <trkpt lat="43.33557" lon="5.78858">
        <ele>1023.2</ele>
        <time>2025-10-05T09:24:07Z</time>
      </trkpt>
      <trkpt lat="43.33557" lon="5.78857">
        <ele>1023.3</ele>
        <time>2025-10-05T09:24:08Z</time>
      </trkpt>
      <trkpt lat="43.33557" lon="5.78857">
        <ele>1023.6</ele>
        <time>2025-10-05T09:24:09Z</time>
      </trkpt>
      <trkpt lat="43.33557" lon="5.78856">
        <ele>1023.8</ele>
        <time>2025-10-05T09:24:10Z</time>
      </trkpt>
      <trkpt lat="43.33556" lon="5.78855">
        <ele>1024.1</ele>
        <time>2025-10-05T09:24:11Z</time>
      </trkpt>
      <trkpt lat="43.33556" lon="5.78855">
        <ele>1024.3</ele>
        <time>2025-10-05T09:24:12Z</time>
      </trkpt>
      <trkpt lat="43.33556" lon="5.78854">
        <ele>1024.5</ele>
        <time>2025-10-05T09:24:13Z</time>
      </trkpt>
      <trkpt lat="43.33555" lon="5.78853">
        <ele>1024.7</ele>
        <time>2025-10-05T09:24:14Z</time>
      </trkpt>
      <trkpt lat="43.33555" lon="5.78852">
        <ele>1024.8</ele>
        <time>2025-10-05T09:24:15Z</time>
      </trkpt>
      <trkpt lat="43.33555" lon="5.78851">
        <ele>1024.9</ele>
        <time>2025-10-05T09:24:16Z</time>
      </trkpt>
      <trkpt lat="43.33555" lon="5.7885">
        <ele>1025</ele>
        <time>2025-10-05T09:24:17Z</time>
      </trkpt>
      <trkpt lat="43.33555" lon="5.78849">
        <ele>1025.2</ele>
        <time>2025-10-05T09:24:18Z</time>
      </trkpt>
      <trkpt lat="43.33555" lon="5.78848">
        <ele>1025.4</ele>
        <time>2025-10-05T09:24:19Z</time>
      </trkpt>
      <trkpt lat="43.33555" lon="5.78847">
        <ele>1025.5</ele>
        <time>2025-10-05T09:24:20Z</time>
      </trkpt>
      <trkpt lat="43.33555" lon="5.78847">
        <ele>1025.8</ele>
        <time>2025-10-05T09:24:21Z</time>
      </trkpt>
      <trkpt lat="43.33555" lon="5.78846">
        <ele>1026</ele>
        <time>2025-10-05T09:24:22Z</time>
      </trkpt>
      <trkpt lat="43.33555" lon="5.78845">
        <ele>1026.2</ele>
        <time>2025-10-05T09:24:23Z</time>
      </trkpt>
      <trkpt lat="43.33555" lon="5.78845">
        <ele>1026.3</ele>
        <time>2025-10-05T09:24:24Z</time>
      </trkpt>
      <trkpt lat="43.33555" lon="5.78844">
        <ele>1026.5</ele>
        <time>2025-10-05T09:24:25Z</time>
      </trkpt>
      <trkpt lat="43.33555" lon="5.78843">
        <ele>1026.5</ele>
        <time>2025-10-05T09:24:26Z</time>
      </trkpt>
      <trkpt lat="43.33556" lon="5.78842">
        <ele>1026.3</ele>
        <time>2025-10-05T09:24:27Z</time>
      </trkpt>
      <trkpt lat="43.33556" lon="5.78842">
        <ele>1026.2</ele>
        <time>2025-10-05T09:24:28Z</time>
      </trkpt>
      <trkpt lat="43.33556" lon="5.78841">
        <ele>1026.4</ele>
        <time>2025-10-05T09:24:29Z</time>
      </trkpt>
      <trkpt lat="43.33556" lon="5.78841">
        <ele>1026.6</ele>
        <time>2025-10-05T09:24:30Z</time>
      </trkpt>
      <trkpt lat="43.33556" lon="5.7884">
        <ele>1026.7</ele>
        <time>2025-10-05T09:24:31Z</time>
      </trkpt>
      <trkpt lat="43.33555" lon="5.78839">
        <ele>1026.9</ele>
        <time>2025-10-05T09:24:32Z</time>
      </trkpt>
      <trkpt lat="43.33555" lon="5.78838">
        <ele>1027.1</ele>
        <time>2025-10-05T09:24:33Z</time>
      </trkpt>
      <trkpt lat="43.33555" lon="5.78838">
        <ele>1027.4</ele>
        <time>2025-10-05T09:24:34Z</time>
      </trkpt>
      <trkpt lat="43.33555" lon="5.78837">
        <ele>1027.6</ele>
        <time>2025-10-05T09:24:35Z</time>
      </trkpt>
      <trkpt lat="43.33556" lon="5.78837">
        <ele>1027.7</ele>
        <time>2025-10-05T09:24:36Z</time>
      </trkpt>
      <trkpt lat="43.33556" lon="5.78836">
        <ele>1027.9</ele>
        <time>2025-10-05T09:24:37Z</time>
      </trkpt>
      <trkpt lat="43.33556" lon="5.78836">
        <ele>1028</ele>
        <time>2025-10-05T09:24:38Z</time>
      </trkpt>
      <trkpt lat="43.33556" lon="5.78835">
        <ele>1028.2</ele>
        <time>2025-10-05T09:24:39Z</time>
      </trkpt>
      <trkpt lat="43.33556" lon="5.78834">
        <ele>1028.3</ele>
        <time>2025-10-05T09:24:40Z</time>
      </trkpt>
      <trkpt lat="43.33556" lon="5.78834">
        <ele>1028.6</ele>
        <time>2025-10-05T09:24:41Z</time>
      </trkpt>
      <trkpt lat="43.33556" lon="5.78833">
        <ele>1029.2</ele>
        <time>2025-10-05T09:24:42Z</time>
      </trkpt>
      <trkpt lat="43.33556" lon="5.78833">
        <ele>1029.8</ele>
        <time>2025-10-05T09:24:43Z</time>
      </trkpt>
      <trkpt lat="43.33556" lon="5.78832">
        <ele>1030.2</ele>
        <time>2025-10-05T09:24:44Z</time>
      </trkpt>
      <trkpt lat="43.33556" lon="5.78832">
        <ele>1030.3</ele>
        <time>2025-10-05T09:24:45Z</time>
      </trkpt>
      <trkpt lat="43.33556" lon="5.78831">
        <ele>1030.3</ele>
        <time>2025-10-05T09:24:46Z</time>
      </trkpt>
      <trkpt lat="43.33556" lon="5.78831">
        <ele>1030.6</ele>
        <time>2025-10-05T09:24:47Z</time>
      </trkpt>
      <trkpt lat="43.33556" lon="5.7883">
        <ele>1031</ele>
        <time>2025-10-05T09:24:48Z</time>
      </trkpt>
      <trkpt lat="43.33555" lon="5.78829">
        <ele>1030.9</ele>
        <time>2025-10-05T09:24:49Z</time>
      </trkpt>
      <trkpt lat="43.33555" lon="5.78828">
        <ele>1031.1</ele>
        <time>2025-10-05T09:24:50Z</time>
      </trkpt>
      <trkpt lat="43.33555" lon="5.78827">
        <ele>1031.7</ele>
        <time>2025-10-05T09:24:51Z</time>
      </trkpt>
      <trkpt lat="43.33554" lon="5.78826">
        <ele>1032.3</ele>
        <time>2025-10-05T09:24:52Z</time>
      </trkpt>
      <trkpt lat="43.33554" lon="5.78826">
        <ele>1032.5</ele>
        <time>2025-10-05T09:24:53Z</time>
      </trkpt>
      <trkpt lat="43.33554" lon="5.78826">
        <ele>1032.6</ele>
        <time>2025-10-05T09:24:54Z</time>
      </trkpt>
      <trkpt lat="43.33554" lon="5.78825">
        <ele>1032.6</ele>
        <time>2025-10-05T09:24:55Z</time>
      </trkpt>
      <trkpt lat="43.33554" lon="5.78824">
        <ele>1032.2</ele>
        <time>2025-10-05T09:24:56Z</time>
      </trkpt>
      <trkpt lat="43.33553" lon="5.78823">
        <ele>1032.5</ele>
        <time>2025-10-05T09:24:57Z</time>
      </trkpt>
      <trkpt lat="43.33553" lon="5.78822">
        <ele>1032.3</ele>
        <time>2025-10-05T09:24:58Z</time>
      </trkpt>
      <trkpt lat="43.33553" lon="5.78821">
        <ele>1032.5</ele>
        <time>2025-10-05T09:24:59Z</time>
      </trkpt>
      <trkpt lat="43.33552" lon="5.78821">
        <ele>1032.8</ele>
        <time>2025-10-05T09:25:00Z</time>
      </trkpt>
      <trkpt lat="43.33552" lon="5.7882">
        <ele>1033.2</ele>
        <time>2025-10-05T09:25:01Z</time>
      </trkpt>
      <trkpt lat="43.33551" lon="5.78818">
        <ele>1033.2</ele>
        <time>2025-10-05T09:25:02Z</time>
      </trkpt>
      <trkpt lat="43.33551" lon="5.78817">
        <ele>1033.4</ele>
        <time>2025-10-05T09:25:03Z</time>
      </trkpt>
      <trkpt lat="43.33551" lon="5.78816">
        <ele>1033.4</ele>
        <time>2025-10-05T09:25:04Z</time>
      </trkpt>
      <trkpt lat="43.3355" lon="5.78815">
        <ele>1033.4</ele>
        <time>2025-10-05T09:25:05Z</time>
      </trkpt>
      <trkpt lat="43.3355" lon="5.78814">
        <ele>1033.4</ele>
        <time>2025-10-05T09:25:06Z</time>
      </trkpt>
      <trkpt lat="43.3355" lon="5.78813">
        <ele>1033.3</ele>
        <time>2025-10-05T09:25:07Z</time>
      </trkpt>
      <trkpt lat="43.33549" lon="5.78812">
        <ele>1033</ele>
        <time>2025-10-05T09:25:08Z</time>
      </trkpt>
      <trkpt lat="43.33548" lon="5.78811">
        <ele>1032.8</ele>
        <time>2025-10-05T09:25:09Z</time>
      </trkpt>
      <trkpt lat="43.33548" lon="5.7881">
        <ele>1032.5</ele>
        <time>2025-10-05T09:25:10Z</time>
      </trkpt>
      <trkpt lat="43.33547" lon="5.78808">
        <ele>1032.4</ele>
        <time>2025-10-05T09:25:11Z</time>
      </trkpt>
      <trkpt lat="43.33546" lon="5.78806">
        <ele>1032.1</ele>
        <time>2025-10-05T09:25:12Z</time>
      </trkpt>
      <trkpt lat="43.33546" lon="5.78806">
        <ele>1032</ele>
        <time>2025-10-05T09:25:13Z</time>
      </trkpt>
      <trkpt lat="43.33546" lon="5.78806">
        <ele>1031.8</ele>
        <time>2025-10-05T09:25:14Z</time>
      </trkpt>
      <trkpt lat="43.33546" lon="5.78806">
        <ele>1031.6</ele>
        <time>2025-10-05T09:25:15Z</time>
      </trkpt>
      <trkpt lat="43.33546" lon="5.78805">
        <ele>1031.3</ele>
        <time>2025-10-05T09:25:16Z</time>
      </trkpt>
      <trkpt lat="43.33545" lon="5.78804">
        <ele>1031.1</ele>
        <time>2025-10-05T09:25:17Z</time>
      </trkpt>
      <trkpt lat="43.33545" lon="5.78803">
        <ele>1030.9</ele>
        <time>2025-10-05T09:25:18Z</time>
      </trkpt>
      <trkpt lat="43.33545" lon="5.78801">
        <ele>1030.7</ele>
        <time>2025-10-05T09:25:19Z</time>
      </trkpt>
      <trkpt lat="43.33545" lon="5.788">
        <ele>1030.6</ele>
        <time>2025-10-05T09:25:20Z</time>
      </trkpt>
      <trkpt lat="43.33544" lon="5.78798">
        <ele>1030.5</ele>
        <time>2025-10-05T09:25:21Z</time>
      </trkpt>
      <trkpt lat="43.33544" lon="5.78797">
        <ele>1030.5</ele>
        <time>2025-10-05T09:25:22Z</time>
      </trkpt>
      <trkpt lat="43.33544" lon="5.78796">
        <ele>1030.8</ele>
        <time>2025-10-05T09:25:23Z</time>
      </trkpt>
      <trkpt lat="43.33543" lon="5.78795">
        <ele>1031</ele>
        <time>2025-10-05T09:25:24Z</time>
      </trkpt>
      <trkpt lat="43.33543" lon="5.78795">
        <ele>1031</ele>
        <time>2025-10-05T09:25:25Z</time>
      </trkpt>
      <trkpt lat="43.33542" lon="5.78795">
        <ele>1031</ele>
        <time>2025-10-05T09:25:26Z</time>
      </trkpt>
      <trkpt lat="43.33541" lon="5.78795">
        <ele>1031.1</ele>
        <time>2025-10-05T09:25:27Z</time>
      </trkpt>
      <trkpt lat="43.3354" lon="5.78795">
        <ele>1031.2</ele>
        <time>2025-10-05T09:25:28Z</time>
      </trkpt>
      <trkpt lat="43.3354" lon="5.78796">
        <ele>1031.4</ele>
        <time>2025-10-05T09:25:29Z</time>
      </trkpt>
      <trkpt lat="43.33539" lon="5.78796">
        <ele>1031.6</ele>
        <time>2025-10-05T09:25:30Z</time>
      </trkpt>
      <trkpt lat="43.33538" lon="5.78797">
        <ele>1031.8</ele>
        <time>2025-10-05T09:25:31Z</time>
      </trkpt>
      <trkpt lat="43.33538" lon="5.78797">
        <ele>1032</ele>
        <time>2025-10-05T09:25:32Z</time>
      </trkpt>
      <trkpt lat="43.33537" lon="5.78797">
        <ele>1032.1</ele>
        <time>2025-10-05T09:25:33Z</time>
      </trkpt>
      <trkpt lat="43.33536" lon="5.78797">
        <ele>1032.2</ele>
        <time>2025-10-05T09:25:34Z</time>
      </trkpt>
      <trkpt lat="43.33536" lon="5.78797">
        <ele>1032.3</ele>
        <time>2025-10-05T09:25:35Z</time>
      </trkpt>
      <trkpt lat="43.33536" lon="5.78798">
        <ele>1032.5</ele>
        <time>2025-10-05T09:25:36Z</time>
      </trkpt>
      <trkpt lat="43.33536" lon="5.78797">
        <ele>1032.7</ele>
        <time>2025-10-05T09:25:37Z</time>
      </trkpt>
      <trkpt lat="43.33535" lon="5.78797">
        <ele>1032.8</ele>
        <time>2025-10-05T09:25:38Z</time>
      </trkpt>
      <trkpt lat="43.33535" lon="5.78797">
        <ele>1033</ele>
        <time>2025-10-05T09:25:39Z</time>
      </trkpt>
      <trkpt lat="43.33535" lon="5.78797">
        <ele>1033.1</ele>
        <time>2025-10-05T09:25:40Z</time>
      </trkpt>
      <trkpt lat="43.33535" lon="5.78796">
        <ele>1033.3</ele>
        <time>2025-10-05T09:25:41Z</time>
      </trkpt>
      <trkpt lat="43.33535" lon="5.78796">
        <ele>1033.5</ele>
        <time>2025-10-05T09:25:42Z</time>
      </trkpt>
      <trkpt lat="43.33535" lon="5.78796">
        <ele>1033.7</ele>
        <time>2025-10-05T09:25:43Z</time>
      </trkpt>
      <trkpt lat="43.33534" lon="5.78796">
        <ele>1033.9</ele>
        <time>2025-10-05T09:25:44Z</time>
      </trkpt>
      <trkpt lat="43.33534" lon="5.78796">
        <ele>1033.9</ele>
        <time>2025-10-05T09:25:45Z</time>
      </trkpt>
      <trkpt lat="43.33534" lon="5.78796">
        <ele>1034</ele>
        <time>2025-10-05T09:25:46Z</time>
      </trkpt>
      <trkpt lat="43.33534" lon="5.78796">
        <ele>1034</ele>
        <time>2025-10-05T09:25:47Z</time>
      </trkpt>
      <trkpt lat="43.33534" lon="5.78796">
        <ele>1034.1</ele>
        <time>2025-10-05T09:25:48Z</time>
      </trkpt>
      <trkpt lat="43.33534" lon="5.78796">
        <ele>1034.2</ele>
        <time>2025-10-05T09:25:49Z</time>
      </trkpt>
      <trkpt lat="43.33534" lon="5.78796">
        <ele>1034.3</ele>
        <time>2025-10-05T09:25:50Z</time>
      </trkpt>
      <trkpt lat="43.33534" lon="5.78796">
        <ele>1034.5</ele>
        <time>2025-10-05T09:25:51Z</time>
      </trkpt>
      <trkpt lat="43.33534" lon="5.78796">
        <ele>1034.6</ele>
        <time>2025-10-05T09:25:52Z</time>
      </trkpt>
      <trkpt lat="43.33534" lon="5.78796">
        <ele>1034.7</ele>
        <time>2025-10-05T09:25:53Z</time>
      </trkpt>
      <trkpt lat="43.33534" lon="5.78796">
        <ele>1034.9</ele>
        <time>2025-10-05T09:25:54Z</time>
      </trkpt>
      <trkpt lat="43.33534" lon="5.78796">
        <ele>1035</ele>
        <time>2025-10-05T09:25:55Z</time>
      </trkpt>
      <trkpt lat="43.33535" lon="5.78796">
        <ele>1035.1</ele>
        <time>2025-10-05T09:25:56Z</time>
      </trkpt>
      <trkpt lat="43.33534" lon="5.78796">
        <ele>1035.2</ele>
        <time>2025-10-05T09:25:57Z</time>
      </trkpt>
      <trkpt lat="43.33535" lon="5.78796">
        <ele>1035.3</ele>
        <time>2025-10-05T09:25:58Z</time>
      </trkpt>
      <trkpt lat="43.33535" lon="5.78796">
        <ele>1035.4</ele>
        <time>2025-10-05T09:25:59Z</time>
      </trkpt>
      <trkpt lat="43.33535" lon="5.78796">
        <ele>1035.5</ele>
        <time>2025-10-05T09:26:00Z</time>
      </trkpt>
      <trkpt lat="43.33535" lon="5.78796">
        <ele>1035.5</ele>
        <time>2025-10-05T09:26:01Z</time>
      </trkpt>
      <trkpt lat="43.33535" lon="5.78795">
        <ele>1035.4</ele>
        <time>2025-10-05T09:26:02Z</time>
      </trkpt>
      <trkpt lat="43.33535" lon="5.78795">
        <ele>1035.3</ele>
        <time>2025-10-05T09:26:03Z</time>
      </trkpt>
      <trkpt lat="43.33535" lon="5.78794">
        <ele>1035.5</ele>
        <time>2025-10-05T09:26:04Z</time>
      </trkpt>
      <trkpt lat="43.33534" lon="5.78793">
        <ele>1035.5</ele>
        <time>2025-10-05T09:26:05Z</time>
      </trkpt>
      <trkpt lat="43.33534" lon="5.78793">
        <ele>1035.6</ele>
        <time>2025-10-05T09:26:06Z</time>
      </trkpt>
      <trkpt lat="43.33534" lon="5.78792">
        <ele>1035.9</ele>
        <time>2025-10-05T09:26:07Z</time>
      </trkpt>
      <trkpt lat="43.33533" lon="5.78791">
        <ele>1036.1</ele>
        <time>2025-10-05T09:26:08Z</time>
      </trkpt>
      <trkpt lat="43.33533" lon="5.78791">
        <ele>1036.1</ele>
        <time>2025-10-05T09:26:09Z</time>
      </trkpt>
      <trkpt lat="43.33533" lon="5.78791">
        <ele>1036</ele>
        <time>2025-10-05T09:26:10Z</time>
      </trkpt>
      <trkpt lat="43.33532" lon="5.78791">
        <ele>1036.1</ele>
        <time>2025-10-05T09:26:11Z</time>
      </trkpt>
      <trkpt lat="43.33532" lon="5.78791">
        <ele>1036.3</ele>
        <time>2025-10-05T09:26:12Z</time>
      </trkpt>
      <trkpt lat="43.33532" lon="5.78791">
        <ele>1036.5</ele>
        <time>2025-10-05T09:26:13Z</time>
      </trkpt>
      <trkpt lat="43.33532" lon="5.78791">
        <ele>1036.8</ele>
        <time>2025-10-05T09:26:14Z</time>
      </trkpt>
      <trkpt lat="43.33532" lon="5.78791">
        <ele>1037</ele>
        <time>2025-10-05T09:26:15Z</time>
      </trkpt>
      <trkpt lat="43.33531" lon="5.78791">
        <ele>1037.3</ele>
        <time>2025-10-05T09:26:16Z</time>
      </trkpt>
      <trkpt lat="43.33531" lon="5.78791">
        <ele>1037.4</ele>
        <time>2025-10-05T09:26:17Z</time>
      </trkpt>
      <trkpt lat="43.33531" lon="5.7879">
        <ele>1037.5</ele>
        <time>2025-10-05T09:26:18Z</time>
      </trkpt>
      <trkpt lat="43.33532" lon="5.7879">
        <ele>1037.8</ele>
        <time>2025-10-05T09:26:19Z</time>
      </trkpt>
      <trkpt lat="43.33531" lon="5.7879">
        <ele>1038</ele>
        <time>2025-10-05T09:26:20Z</time>
      </trkpt>
      <trkpt lat="43.33531" lon="5.78789">
        <ele>1038.3</ele>
        <time>2025-10-05T09:26:21Z</time>
      </trkpt>
      <trkpt lat="43.33531" lon="5.7879">
        <ele>1038.5</ele>
        <time>2025-10-05T09:26:22Z</time>
      </trkpt>
      <trkpt lat="43.33531" lon="5.7879">
        <ele>1038.8</ele>
        <time>2025-10-05T09:26:23Z</time>
      </trkpt>
      <trkpt lat="43.33531" lon="5.7879">
        <ele>1039.1</ele>
        <time>2025-10-05T09:26:24Z</time>
      </trkpt>
      <trkpt lat="43.33531" lon="5.7879">
        <ele>1039.3</ele>
        <time>2025-10-05T09:26:25Z</time>
      </trkpt>
      <trkpt lat="43.33531" lon="5.7879">
        <ele>1039.6</ele>
        <time>2025-10-05T09:26:26Z</time>
      </trkpt>
      <trkpt lat="43.33531" lon="5.7879">
        <ele>1040</ele>
        <time>2025-10-05T09:26:27Z</time>
      </trkpt>
      <trkpt lat="43.33531" lon="5.7879">
        <ele>1040.3</ele>
        <time>2025-10-05T09:26:28Z</time>
      </trkpt>
      <trkpt lat="43.33531" lon="5.7879">
        <ele>1040.6</ele>
        <time>2025-10-05T09:26:29Z</time>
      </trkpt>
      <trkpt lat="43.3353" lon="5.7879">
        <ele>1040.8</ele>
        <time>2025-10-05T09:26:30Z</time>
      </trkpt>
      <trkpt lat="43.3353" lon="5.7879">
        <ele>1040.9</ele>
        <time>2025-10-05T09:26:31Z</time>
      </trkpt>
      <trkpt lat="43.33531" lon="5.7879">
        <ele>1041.1</ele>
        <time>2025-10-05T09:26:32Z</time>
      </trkpt>
      <trkpt lat="43.3353" lon="5.7879">
        <ele>1041.5</ele>
        <time>2025-10-05T09:26:33Z</time>
      </trkpt>
      <trkpt lat="43.33529" lon="5.7879">
        <ele>1041.8</ele>
        <time>2025-10-05T09:26:34Z</time>
      </trkpt>
      <trkpt lat="43.3353" lon="5.7879">
        <ele>1042</ele>
        <time>2025-10-05T09:26:35Z</time>
      </trkpt>
      <trkpt lat="43.33529" lon="5.7879">
        <ele>1042.3</ele>
        <time>2025-10-05T09:26:36Z</time>
      </trkpt>
      <trkpt lat="43.33529" lon="5.7879">
        <ele>1042.5</ele>
        <time>2025-10-05T09:26:37Z</time>
      </trkpt>
      <trkpt lat="43.33529" lon="5.7879">
        <ele>1042.9</ele>
        <time>2025-10-05T09:26:38Z</time>
      </trkpt>
      <trkpt lat="43.33529" lon="5.7879">
        <ele>1043.5</ele>
        <time>2025-10-05T09:26:39Z</time>
      </trkpt>
      <trkpt lat="43.33529" lon="5.78791">
        <ele>1043.9</ele>
        <time>2025-10-05T09:26:40Z</time>
      </trkpt>
      <trkpt lat="43.33529" lon="5.78792">
        <ele>1044.1</ele>
        <time>2025-10-05T09:26:41Z</time>
      </trkpt>
      <trkpt lat="43.33529" lon="5.78792">
        <ele>1044.2</ele>
        <time>2025-10-05T09:26:42Z</time>
      </trkpt>
      <trkpt lat="43.33529" lon="5.78792">
        <ele>1044.2</ele>
        <time>2025-10-05T09:26:43Z</time>
      </trkpt>
      <trkpt lat="43.33528" lon="5.78792">
        <ele>1044.3</ele>
        <time>2025-10-05T09:26:44Z</time>
      </trkpt>
      <trkpt lat="43.33528" lon="5.78793">
        <ele>1044.6</ele>
        <time>2025-10-05T09:26:45Z</time>
      </trkpt>
      <trkpt lat="43.33528" lon="5.78793">
        <ele>1044.9</ele>
        <time>2025-10-05T09:26:46Z</time>
      </trkpt>
      <trkpt lat="43.33528" lon="5.78793">
        <ele>1045.2</ele>
        <time>2025-10-05T09:26:47Z</time>
      </trkpt>
      <trkpt lat="43.33528" lon="5.78793">
        <ele>1045.5</ele>
        <time>2025-10-05T09:26:48Z</time>
      </trkpt>
      <trkpt lat="43.33528" lon="5.78793">
        <ele>1045.7</ele>
        <time>2025-10-05T09:26:49Z</time>
      </trkpt>
      <trkpt lat="43.33528" lon="5.78793">
        <ele>1045.8</ele>
        <time>2025-10-05T09:26:50Z</time>
      </trkpt>
      <trkpt lat="43.33527" lon="5.78793">
        <ele>1045.9</ele>
        <time>2025-10-05T09:26:51Z</time>
      </trkpt>
      <trkpt lat="43.33527" lon="5.78793">
        <ele>1046</ele>
        <time>2025-10-05T09:26:52Z</time>
      </trkpt>
      <trkpt lat="43.33527" lon="5.78793">
        <ele>1046.2</ele>
        <time>2025-10-05T09:26:53Z</time>
      </trkpt>
      <trkpt lat="43.33526" lon="5.78793">
        <ele>1046.3</ele>
        <time>2025-10-05T09:26:54Z</time>
      </trkpt>
      <trkpt lat="43.33526" lon="5.78793">
        <ele>1046.5</ele>
        <time>2025-10-05T09:26:55Z</time>
      </trkpt>
      <trkpt lat="43.33527" lon="5.78794">
        <ele>1047.1</ele>
        <time>2025-10-05T09:26:56Z</time>
      </trkpt>
      <trkpt lat="43.33526" lon="5.78793">
        <ele>1047.5</ele>
        <time>2025-10-05T09:26:57Z</time>
      </trkpt>
      <trkpt lat="43.33526" lon="5.78793">
        <ele>1048</ele>
        <time>2025-10-05T09:26:58Z</time>
      </trkpt>
      <trkpt lat="43.33526" lon="5.78793">
        <ele>1048.3</ele>
        <time>2025-10-05T09:26:59Z</time>
      </trkpt>
      <trkpt lat="43.33525" lon="5.78793">
        <ele>1048.8</ele>
        <time>2025-10-05T09:27:00Z</time>
      </trkpt>
      <trkpt lat="43.33525" lon="5.78793">
        <ele>1049</ele>
        <time>2025-10-05T09:27:01Z</time>
      </trkpt>
      <trkpt lat="43.33524" lon="5.78793">
        <ele>1049.2</ele>
        <time>2025-10-05T09:27:02Z</time>
      </trkpt>
      <trkpt lat="43.33524" lon="5.78793">
        <ele>1049.5</ele>
        <time>2025-10-05T09:27:03Z</time>
      </trkpt>
      <trkpt lat="43.33524" lon="5.78793">
        <ele>1049.6</ele>
        <time>2025-10-05T09:27:04Z</time>
      </trkpt>
      <trkpt lat="43.33523" lon="5.78793">
        <ele>1049.7</ele>
        <time>2025-10-05T09:27:05Z</time>
      </trkpt>
      <trkpt lat="43.33523" lon="5.78793">
        <ele>1049.7</ele>
        <time>2025-10-05T09:27:06Z</time>
      </trkpt>
      <trkpt lat="43.33523" lon="5.78793">
        <ele>1049.7</ele>
        <time>2025-10-05T09:27:07Z</time>
      </trkpt>
      <trkpt lat="43.33523" lon="5.78793">
        <ele>1049.7</ele>
        <time>2025-10-05T09:27:08Z</time>
      </trkpt>
      <trkpt lat="43.33522" lon="5.78793">
        <ele>1049.6</ele>
        <time>2025-10-05T09:27:09Z</time>
      </trkpt>
      <trkpt lat="43.33522" lon="5.78793">
        <ele>1049.6</ele>
        <time>2025-10-05T09:27:10Z</time>
      </trkpt>
      <trkpt lat="43.33522" lon="5.78793">
        <ele>1049.4</ele>
        <time>2025-10-05T09:27:11Z</time>
      </trkpt>
      <trkpt lat="43.33522" lon="5.78793">
        <ele>1049.2</ele>
        <time>2025-10-05T09:27:12Z</time>
      </trkpt>
      <trkpt lat="43.33522" lon="5.78793">
        <ele>1049.1</ele>
        <time>2025-10-05T09:27:13Z</time>
      </trkpt>
      <trkpt lat="43.33522" lon="5.78793">
        <ele>1049</ele>
        <time>2025-10-05T09:27:14Z</time>
      </trkpt>
      <trkpt lat="43.33522" lon="5.78793">
        <ele>1048.8</ele>
        <time>2025-10-05T09:27:15Z</time>
      </trkpt>
      <trkpt lat="43.33522" lon="5.78793">
        <ele>1048.7</ele>
        <time>2025-10-05T09:27:16Z</time>
      </trkpt>
      <trkpt lat="43.33522" lon="5.78793">
        <ele>1048.7</ele>
        <time>2025-10-05T09:27:17Z</time>
      </trkpt>
      <trkpt lat="43.33522" lon="5.78793">
        <ele>1048.9</ele>
        <time>2025-10-05T09:27:18Z</time>
      </trkpt>
      <trkpt lat="43.33522" lon="5.78793">
        <ele>1049</ele>
        <time>2025-10-05T09:27:19Z</time>
      </trkpt>
      <trkpt lat="43.33522" lon="5.78793">
        <ele>1049.8</ele>
        <time>2025-10-05T09:27:20Z</time>
      </trkpt>
      <trkpt lat="43.33521" lon="5.78793">
        <ele>1050.4</ele>
        <time>2025-10-05T09:27:21Z</time>
      </trkpt>
      <trkpt lat="43.33521" lon="5.78793">
        <ele>1050.5</ele>
        <time>2025-10-05T09:27:22Z</time>
      </trkpt>
      <trkpt lat="43.33521" lon="5.78792">
        <ele>1050.6</ele>
        <time>2025-10-05T09:27:23Z</time>
      </trkpt>
      <trkpt lat="43.33522" lon="5.78792">
        <ele>1050.5</ele>
        <time>2025-10-05T09:27:24Z</time>
      </trkpt>
      <trkpt lat="43.33522" lon="5.78792">
        <ele>1050.2</ele>
        <time>2025-10-05T09:27:25Z</time>
      </trkpt>
      <trkpt lat="43.33522" lon="5.78792">
        <ele>1049.9</ele>
        <time>2025-10-05T09:27:26Z</time>
      </trkpt>
      <trkpt lat="43.33522" lon="5.78792">
        <ele>1049.8</ele>
        <time>2025-10-05T09:27:27Z</time>
      </trkpt>
      <trkpt lat="43.33521" lon="5.78793">
        <ele>1049.7</ele>
        <time>2025-10-05T09:27:28Z</time>
      </trkpt>
      <trkpt lat="43.33521" lon="5.78793">
        <ele>1049.7</ele>
        <time>2025-10-05T09:27:29Z</time>
      </trkpt>
      <trkpt lat="43.33521" lon="5.78794">
        <ele>1049.7</ele>
        <time>2025-10-05T09:27:30Z</time>
      </trkpt>
      <trkpt lat="43.33521" lon="5.78795">
        <ele>1049.5</ele>
        <time>2025-10-05T09:27:31Z</time>
      </trkpt>
      <trkpt lat="43.33521" lon="5.78795">
        <ele>1049.4</ele>
        <time>2025-10-05T09:27:32Z</time>
      </trkpt>
      <trkpt lat="43.3352" lon="5.78796">
        <ele>1049.5</ele>
        <time>2025-10-05T09:27:33Z</time>
      </trkpt>
      <trkpt lat="43.3352" lon="5.78795">
        <ele>1049.5</ele>
        <time>2025-10-05T09:27:34Z</time>
      </trkpt>
      <trkpt lat="43.3352" lon="5.78795">
        <ele>1049.7</ele>
        <time>2025-10-05T09:27:35Z</time>
      </trkpt>
      <trkpt lat="43.33519" lon="5.78794">
        <ele>1049.8</ele>
        <time>2025-10-05T09:27:36Z</time>
      </trkpt>
      <trkpt lat="43.33519" lon="5.78794">
        <ele>1050</ele>
        <time>2025-10-05T09:27:37Z</time>
      </trkpt>
      <trkpt lat="43.33519" lon="5.78794">
        <ele>1050.1</ele>
        <time>2025-10-05T09:27:38Z</time>
      </trkpt>
      <trkpt lat="43.33519" lon="5.78795">
        <ele>1050.1</ele>
        <time>2025-10-05T09:27:39Z</time>
      </trkpt>
      <trkpt lat="43.33519" lon="5.78795">
        <ele>1050.3</ele>
        <time>2025-10-05T09:27:40Z</time>
      </trkpt>
      <trkpt lat="43.33519" lon="5.78796">
        <ele>1050.6</ele>
        <time>2025-10-05T09:27:41Z</time>
      </trkpt>
      <trkpt lat="43.33518" lon="5.78796">
        <ele>1050.8</ele>
        <time>2025-10-05T09:27:42Z</time>
      </trkpt>
      <trkpt lat="43.33518" lon="5.78797">
        <ele>1050.9</ele>
        <time>2025-10-05T09:27:43Z</time>
      </trkpt>
      <trkpt lat="43.33518" lon="5.78797">
        <ele>1051.1</ele>
        <time>2025-10-05T09:27:44Z</time>
      </trkpt>
      <trkpt lat="43.33518" lon="5.78797">
        <ele>1051.3</ele>
        <time>2025-10-05T09:27:45Z</time>
      </trkpt>
      <trkpt lat="43.33519" lon="5.78797">
        <ele>1051.6</ele>
        <time>2025-10-05T09:27:46Z</time>
      </trkpt>
      <trkpt lat="43.33518" lon="5.78797">
        <ele>1051.7</ele>
        <time>2025-10-05T09:27:47Z</time>
      </trkpt>
      <trkpt lat="43.33518" lon="5.78798">
        <ele>1051.9</ele>
        <time>2025-10-05T09:27:48Z</time>
      </trkpt>
      <trkpt lat="43.33518" lon="5.78798">
        <ele>1052</ele>
        <time>2025-10-05T09:27:49Z</time>
      </trkpt>
      <trkpt lat="43.33518" lon="5.78798">
        <ele>1052</ele>
        <time>2025-10-05T09:27:50Z</time>
      </trkpt>
      <trkpt lat="43.33518" lon="5.78797">
        <ele>1052.1</ele>
        <time>2025-10-05T09:27:51Z</time>
      </trkpt>
      <trkpt lat="43.33518" lon="5.78797">
        <ele>1052.1</ele>
        <time>2025-10-05T09:27:52Z</time>
      </trkpt>
      <trkpt lat="43.33518" lon="5.78796">
        <ele>1052.1</ele>
        <time>2025-10-05T09:27:53Z</time>
      </trkpt>
      <trkpt lat="43.33518" lon="5.78796">
        <ele>1052</ele>
        <time>2025-10-05T09:27:54Z</time>
      </trkpt>
      <trkpt lat="43.33519" lon="5.78796">
        <ele>1051.8</ele>
        <time>2025-10-05T09:27:55Z</time>
      </trkpt>
      <trkpt lat="43.33518" lon="5.78796">
        <ele>1051.9</ele>
        <time>2025-10-05T09:27:56Z</time>
      </trkpt>
      <trkpt lat="43.33518" lon="5.78796">
        <ele>1051.9</ele>
        <time>2025-10-05T09:27:57Z</time>
      </trkpt>
      <trkpt lat="43.33518" lon="5.78796">
        <ele>1051.8</ele>
        <time>2025-10-05T09:27:58Z</time>
      </trkpt>
      <trkpt lat="43.33517" lon="5.78796">
        <ele>1052</ele>
        <time>2025-10-05T09:27:59Z</time>
      </trkpt>
      <trkpt lat="43.33517" lon="5.78797">
        <ele>1052.2</ele>
        <time>2025-10-05T09:28:00Z</time>
      </trkpt>
      <trkpt lat="43.33516" lon="5.78796">
        <ele>1052.4</ele>
        <time>2025-10-05T09:28:01Z</time>
      </trkpt>
      <trkpt lat="43.33516" lon="5.78797">
        <ele>1052.8</ele>
        <time>2025-10-05T09:28:02Z</time>
      </trkpt>
      <trkpt lat="43.33516" lon="5.78797">
        <ele>1053</ele>
        <time>2025-10-05T09:28:03Z</time>
      </trkpt>
      <trkpt lat="43.33515" lon="5.78797">
        <ele>1053.5</ele>
        <time>2025-10-05T09:28:04Z</time>
      </trkpt>
      <trkpt lat="43.33515" lon="5.78797">
        <ele>1053.8</ele>
        <time>2025-10-05T09:28:05Z</time>
      </trkpt>
      <trkpt lat="43.33515" lon="5.78797">
        <ele>1054.1</ele>
        <time>2025-10-05T09:28:06Z</time>
      </trkpt>
      <trkpt lat="43.33515" lon="5.78797">
        <ele>1054.3</ele>
        <time>2025-10-05T09:28:07Z</time>
      </trkpt>
      <trkpt lat="43.33515" lon="5.78797">
        <ele>1054.6</ele>
        <time>2025-10-05T09:28:08Z</time>
      </trkpt>
      <trkpt lat="43.33515" lon="5.78797">
        <ele>1054.8</ele>
        <time>2025-10-05T09:28:09Z</time>
      </trkpt>
      <trkpt lat="43.33515" lon="5.78796">
        <ele>1054.9</ele>
        <time>2025-10-05T09:28:10Z</time>
      </trkpt>
      <trkpt lat="43.33514" lon="5.78796">
        <ele>1055</ele>
        <time>2025-10-05T09:28:11Z</time>
      </trkpt>
      <trkpt lat="43.33514" lon="5.78796">
        <ele>1055</ele>
        <time>2025-10-05T09:28:12Z</time>
      </trkpt>
      <trkpt lat="43.33514" lon="5.78795">
        <ele>1055.2</ele>
        <time>2025-10-05T09:28:13Z</time>
      </trkpt>
      <trkpt lat="43.33513" lon="5.78794">
        <ele>1055.4</ele>
        <time>2025-10-05T09:28:14Z</time>
      </trkpt>
      <trkpt lat="43.33513" lon="5.78794">
        <ele>1055.6</ele>
        <time>2025-10-05T09:28:15Z</time>
      </trkpt>
      <trkpt lat="43.33513" lon="5.78794">
        <ele>1055.7</ele>
        <time>2025-10-05T09:28:16Z</time>
      </trkpt>
      <trkpt lat="43.33513" lon="5.78794">
        <ele>1055.8</ele>
        <time>2025-10-05T09:28:17Z</time>
      </trkpt>
      <trkpt lat="43.33513" lon="5.78794">
        <ele>1056.1</ele>
        <time>2025-10-05T09:28:18Z</time>
      </trkpt>
      <trkpt lat="43.33512" lon="5.78794">
        <ele>1056.3</ele>
        <time>2025-10-05T09:28:19Z</time>
      </trkpt>
      <trkpt lat="43.33512" lon="5.78793">
        <ele>1056.5</ele>
        <time>2025-10-05T09:28:20Z</time>
      </trkpt>
      <trkpt lat="43.33511" lon="5.78793">
        <ele>1056.7</ele>
        <time>2025-10-05T09:28:21Z</time>
      </trkpt>
      <trkpt lat="43.33511" lon="5.78793">
        <ele>1056.9</ele>
        <time>2025-10-05T09:28:22Z</time>
      </trkpt>
      <trkpt lat="43.33512" lon="5.78793">
        <ele>1057.1</ele>
        <time>2025-10-05T09:28:23Z</time>
      </trkpt>
      <trkpt lat="43.33512" lon="5.78793">
        <ele>1057.2</ele>
        <time>2025-10-05T09:28:24Z</time>
      </trkpt>
      <trkpt lat="43.33512" lon="5.78793">
        <ele>1057.4</ele>
        <time>2025-10-05T09:28:25Z</time>
      </trkpt>
      <trkpt lat="43.33512" lon="5.78793">
        <ele>1057.5</ele>
        <time>2025-10-05T09:28:26Z</time>
      </trkpt>
      <trkpt lat="43.33512" lon="5.78792">
        <ele>1057.6</ele>
        <time>2025-10-05T09:28:27Z</time>
      </trkpt>
      <trkpt lat="43.33512" lon="5.78792">
        <ele>1057.7</ele>
        <time>2025-10-05T09:28:28Z</time>
      </trkpt>
      <trkpt lat="43.33512" lon="5.78792">
        <ele>1057.8</ele>
        <time>2025-10-05T09:28:29Z</time>
      </trkpt>
      <trkpt lat="43.33512" lon="5.78792">
        <ele>1057.9</ele>
        <time>2025-10-05T09:28:30Z</time>
      </trkpt>
      <trkpt lat="43.33512" lon="5.78792">
        <ele>1058.1</ele>
        <time>2025-10-05T09:28:31Z</time>
      </trkpt>
      <trkpt lat="43.33512" lon="5.78792">
        <ele>1058</ele>
        <time>2025-10-05T09:28:32Z</time>
      </trkpt>
      <trkpt lat="43.33511" lon="5.78792">
        <ele>1058</ele>
        <time>2025-10-05T09:28:33Z</time>
      </trkpt>
      <trkpt lat="43.3351" lon="5.78792">
        <ele>1058.1</ele>
        <time>2025-10-05T09:28:34Z</time>
      </trkpt>
      <trkpt lat="43.3351" lon="5.78793">
        <ele>1058.2</ele>
        <time>2025-10-05T09:28:35Z</time>
      </trkpt>
      <trkpt lat="43.3351" lon="5.78793">
        <ele>1058.5</ele>
        <time>2025-10-05T09:28:36Z</time>
      </trkpt>
      <trkpt lat="43.3351" lon="5.78793">
        <ele>1058.7</ele>
        <time>2025-10-05T09:28:37Z</time>
      </trkpt>
      <trkpt lat="43.33509" lon="5.78793">
        <ele>1058.7</ele>
        <time>2025-10-05T09:28:38Z</time>
      </trkpt>
      <trkpt lat="43.33509" lon="5.78793">
        <ele>1059.1</ele>
        <time>2025-10-05T09:28:39Z</time>
      </trkpt>
      <trkpt lat="43.33509" lon="5.78794">
        <ele>1059.2</ele>
        <time>2025-10-05T09:28:40Z</time>
      </trkpt>
      <trkpt lat="43.33508" lon="5.78793">
        <ele>1059.2</ele>
        <time>2025-10-05T09:28:41Z</time>
      </trkpt>
      <trkpt lat="43.33507" lon="5.78793">
        <ele>1059.3</ele>
        <time>2025-10-05T09:28:42Z</time>
      </trkpt>
      <trkpt lat="43.33507" lon="5.78793">
        <ele>1059.4</ele>
        <time>2025-10-05T09:28:43Z</time>
      </trkpt>
      <trkpt lat="43.33506" lon="5.78794">
        <ele>1059.5</ele>
        <time>2025-10-05T09:28:44Z</time>
      </trkpt>
      <trkpt lat="43.33506" lon="5.78794">
        <ele>1059.6</ele>
        <time>2025-10-05T09:28:45Z</time>
      </trkpt>
      <trkpt lat="43.33505" lon="5.78794">
        <ele>1059.8</ele>
        <time>2025-10-05T09:28:46Z</time>
      </trkpt>
      <trkpt lat="43.33505" lon="5.78794">
        <ele>1060.2</ele>
        <time>2025-10-05T09:28:47Z</time>
      </trkpt>
      <trkpt lat="43.33505" lon="5.78794">
        <ele>1060.6</ele>
        <time>2025-10-05T09:28:48Z</time>
      </trkpt>
      <trkpt lat="43.33504" lon="5.78794">
        <ele>1060.8</ele>
        <time>2025-10-05T09:28:49Z</time>
      </trkpt>
      <trkpt lat="43.33504" lon="5.78794">
        <ele>1061</ele>
        <time>2025-10-05T09:28:50Z</time>
      </trkpt>
      <trkpt lat="43.33504" lon="5.78794">
        <ele>1061.4</ele>
        <time>2025-10-05T09:28:51Z</time>
      </trkpt>
      <trkpt lat="43.33504" lon="5.78794">
        <ele>1061.6</ele>
        <time>2025-10-05T09:28:52Z</time>
      </trkpt>
      <trkpt lat="43.33504" lon="5.78794">
        <ele>1061.9</ele>
        <time>2025-10-05T09:28:53Z</time>
      </trkpt>
      <trkpt lat="43.33504" lon="5.78794">
        <ele>1062.1</ele>
        <time>2025-10-05T09:28:54Z</time>
      </trkpt>
      <trkpt lat="43.33503" lon="5.78794">
        <ele>1062.3</ele>
        <time>2025-10-05T09:28:55Z</time>
      </trkpt>
      <trkpt lat="43.33502" lon="5.78794">
        <ele>1062.5</ele>
        <time>2025-10-05T09:28:56Z</time>
      </trkpt>
      <trkpt lat="43.33502" lon="5.78794">
        <ele>1062.9</ele>
        <time>2025-10-05T09:28:57Z</time>
      </trkpt>
      <trkpt lat="43.33501" lon="5.78794">
        <ele>1063.2</ele>
        <time>2025-10-05T09:28:58Z</time>
      </trkpt>
      <trkpt lat="43.33501" lon="5.78793">
        <ele>1063.6</ele>
        <time>2025-10-05T09:28:59Z</time>
      </trkpt>
      <trkpt lat="43.33501" lon="5.78793">
        <ele>1063.8</ele>
        <time>2025-10-05T09:29:00Z</time>
      </trkpt>
      <trkpt lat="43.33501" lon="5.78793">
        <ele>1063.9</ele>
        <time>2025-10-05T09:29:01Z</time>
      </trkpt>
      <trkpt lat="43.33501" lon="5.78793">
        <ele>1064</ele>
        <time>2025-10-05T09:29:02Z</time>
      </trkpt>
      <trkpt lat="43.33501" lon="5.78793">
        <ele>1063.9</ele>
        <time>2025-10-05T09:29:03Z</time>
      </trkpt>
      <trkpt lat="43.33501" lon="5.78793">
        <ele>1063.9</ele>
        <time>2025-10-05T09:29:04Z</time>
      </trkpt>
      <trkpt lat="43.33501" lon="5.78793">
        <ele>1064</ele>
        <time>2025-10-05T09:29:05Z</time>
      </trkpt>
      <trkpt lat="43.33501" lon="5.78793">
        <ele>1064.2</ele>
        <time>2025-10-05T09:29:06Z</time>
      </trkpt>
      <trkpt lat="43.33502" lon="5.78793">
        <ele>1064.1</ele>
        <time>2025-10-05T09:29:07Z</time>
      </trkpt>
      <trkpt lat="43.33502" lon="5.78793">
        <ele>1064.3</ele>
        <time>2025-10-05T09:29:08Z</time>
      </trkpt>
      <trkpt lat="43.33502" lon="5.78793">
        <ele>1064.5</ele>
        <time>2025-10-05T09:29:09Z</time>
      </trkpt>
      <trkpt lat="43.33502" lon="5.78793">
        <ele>1064.5</ele>
        <time>2025-10-05T09:29:10Z</time>
      </trkpt>
      <trkpt lat="43.33502" lon="5.78794">
        <ele>1064.6</ele>
        <time>2025-10-05T09:29:11Z</time>
      </trkpt>
      <trkpt lat="43.33502" lon="5.78793">
        <ele>1064.8</ele>
        <time>2025-10-05T09:29:12Z</time>
      </trkpt>
      <trkpt lat="43.33502" lon="5.78793">
        <ele>1064.8</ele>
        <time>2025-10-05T09:29:13Z</time>
      </trkpt>
      <trkpt lat="43.33502" lon="5.78793">
        <ele>1064.7</ele>
        <time>2025-10-05T09:29:14Z</time>
      </trkpt>
      <trkpt lat="43.33502" lon="5.78793">
        <ele>1064.7</ele>
        <time>2025-10-05T09:29:15Z</time>
      </trkpt>
      <trkpt lat="43.33503" lon="5.78794">
        <ele>1064.9</ele>
        <time>2025-10-05T09:29:16Z</time>
      </trkpt>
      <trkpt lat="43.33502" lon="5.78794">
        <ele>1065</ele>
        <time>2025-10-05T09:29:17Z</time>
      </trkpt>
      <trkpt lat="43.33502" lon="5.78794">
        <ele>1065</ele>
        <time>2025-10-05T09:29:18Z</time>
      </trkpt>
      <trkpt lat="43.33502" lon="5.78794">
        <ele>1065.2</ele>
        <time>2025-10-05T09:29:19Z</time>
      </trkpt>
      <trkpt lat="43.33502" lon="5.78794">
        <ele>1065.4</ele>
        <time>2025-10-05T09:29:20Z</time>
      </trkpt>
      <trkpt lat="43.33502" lon="5.78794">
        <ele>1065.4</ele>
        <time>2025-10-05T09:29:21Z</time>
      </trkpt>
      <trkpt lat="43.33502" lon="5.78794">
        <ele>1065.4</ele>
        <time>2025-10-05T09:29:22Z</time>
      </trkpt>
      <trkpt lat="43.33502" lon="5.78794">
        <ele>1065.4</ele>
        <time>2025-10-05T09:29:23Z</time>
      </trkpt>
      <trkpt lat="43.33502" lon="5.78794">
        <ele>1065.3</ele>
        <time>2025-10-05T09:29:24Z</time>
      </trkpt>
      <trkpt lat="43.33502" lon="5.78794">
        <ele>1065.5</ele>
        <time>2025-10-05T09:29:25Z</time>
      </trkpt>
      <trkpt lat="43.33502" lon="5.78794">
        <ele>1065.3</ele>
        <time>2025-10-05T09:29:26Z</time>
      </trkpt>
      <trkpt lat="43.33502" lon="5.78794">
        <ele>1065.5</ele>
        <time>2025-10-05T09:29:27Z</time>
      </trkpt>
      <trkpt lat="43.33502" lon="5.78794">
        <ele>1065.5</ele>
        <time>2025-10-05T09:29:28Z</time>
      </trkpt>
      <trkpt lat="43.33502" lon="5.78794">
        <ele>1065.6</ele>
        <time>2025-10-05T09:29:29Z</time>
      </trkpt>
      <trkpt lat="43.33502" lon="5.78794">
        <ele>1065.7</ele>
        <time>2025-10-05T09:29:30Z</time>
      </trkpt>
      <trkpt lat="43.33502" lon="5.78794">
        <ele>1065.7</ele>
        <time>2025-10-05T09:29:31Z</time>
      </trkpt>
      <trkpt lat="43.33502" lon="5.78794">
        <ele>1065.7</ele>
        <time>2025-10-05T09:29:32Z</time>
      </trkpt>
      <trkpt lat="43.33502" lon="5.78793">
        <ele>1065.7</ele>
        <time>2025-10-05T09:29:33Z</time>
      </trkpt>
      <trkpt lat="43.33502" lon="5.78794">
        <ele>1065.6</ele>
        <time>2025-10-05T09:29:34Z</time>
      </trkpt>
      <trkpt lat="43.33502" lon="5.78794">
        <ele>1065.7</ele>
        <time>2025-10-05T09:29:35Z</time>
      </trkpt>
      <trkpt lat="43.33502" lon="5.78794">
        <ele>1065.6</ele>
        <time>2025-10-05T09:29:36Z</time>
      </trkpt>
      <trkpt lat="43.33502" lon="5.78794">
        <ele>1065.6</ele>
        <time>2025-10-05T09:29:37Z</time>
      </trkpt>
      <trkpt lat="43.33502" lon="5.78794">
        <ele>1065.6</ele>
        <time>2025-10-05T09:29:38Z</time>
      </trkpt>
      <trkpt lat="43.33502" lon="5.78794">
        <ele>1065.5</ele>
        <time>2025-10-05T09:29:39Z</time>
      </trkpt>
      <trkpt lat="43.33502" lon="5.78793">
        <ele>1065.5</ele>
        <time>2025-10-05T09:29:40Z</time>
      </trkpt>
      <trkpt lat="43.33502" lon="5.78794">
        <ele>1065.5</ele>
        <time>2025-10-05T09:29:41Z</time>
      </trkpt>
      <trkpt lat="43.33502" lon="5.78794">
        <ele>1065.5</ele>
        <time>2025-10-05T09:29:42Z</time>
      </trkpt>
      <trkpt lat="43.33502" lon="5.78794">
        <ele>1065.4</ele>
        <time>2025-10-05T09:29:43Z</time>
      </trkpt>
      <trkpt lat="43.33502" lon="5.78794">
        <ele>1065.3</ele>
        <time>2025-10-05T09:29:44Z</time>
      </trkpt>
      <trkpt lat="43.33502" lon="5.78794">
        <ele>1065.3</ele>
        <time>2025-10-05T09:29:45Z</time>
      </trkpt>
      <trkpt lat="43.33502" lon="5.78794">
        <ele>1065.3</ele>
        <time>2025-10-05T09:29:46Z</time>
      </trkpt>
      <trkpt lat="43.33502" lon="5.78794">
        <ele>1065.4</ele>
        <time>2025-10-05T09:29:47Z</time>
      </trkpt>
      <trkpt lat="43.33502" lon="5.78795">
        <ele>1065.5</ele>
        <time>2025-10-05T09:29:48Z</time>
      </trkpt>
      <trkpt lat="43.33502" lon="5.78795">
        <ele>1065.7</ele>
        <time>2025-10-05T09:29:49Z</time>
      </trkpt>
      <trkpt lat="43.33502" lon="5.78795">
        <ele>1065.9</ele>
        <time>2025-10-05T09:29:50Z</time>
      </trkpt>
      <trkpt lat="43.33502" lon="5.78795">
        <ele>1065.8</ele>
        <time>2025-10-05T09:29:51Z</time>
      </trkpt>
      <trkpt lat="43.33502" lon="5.78795">
        <ele>1066</ele>
        <time>2025-10-05T09:29:52Z</time>
      </trkpt>
      <trkpt lat="43.33502" lon="5.78795">
        <ele>1066.2</ele>
        <time>2025-10-05T09:29:53Z</time>
      </trkpt>
      <trkpt lat="43.33502" lon="5.78795">
        <ele>1066.4</ele>
        <time>2025-10-05T09:29:54Z</time>
      </trkpt>
      <trkpt lat="43.33502" lon="5.78795">
        <ele>1066.6</ele>
        <time>2025-10-05T09:29:55Z</time>
      </trkpt>
      <trkpt lat="43.33502" lon="5.78795">
        <ele>1066.6</ele>
        <time>2025-10-05T09:29:56Z</time>
      </trkpt>
      <trkpt lat="43.33502" lon="5.78795">
        <ele>1066.8</ele>
        <time>2025-10-05T09:29:57Z</time>
      </trkpt>
      <trkpt lat="43.33502" lon="5.78795">
        <ele>1066.9</ele>
        <time>2025-10-05T09:29:58Z</time>
      </trkpt>
      <trkpt lat="43.33502" lon="5.78795">
        <ele>1066.9</ele>
        <time>2025-10-05T09:29:59Z</time>
      </trkpt>
      <trkpt lat="43.33502" lon="5.78795">
        <ele>1067</ele>
        <time>2025-10-05T09:30:00Z</time>
      </trkpt>
      <trkpt lat="43.33502" lon="5.78795">
        <ele>1067.2</ele>
        <time>2025-10-05T09:30:01Z</time>
      </trkpt>
      <trkpt lat="43.33502" lon="5.78795">
        <ele>1067.2</ele>
        <time>2025-10-05T09:30:02Z</time>
      </trkpt>
      <trkpt lat="43.33503" lon="5.78795">
        <ele>1067.5</ele>
        <time>2025-10-05T09:30:03Z</time>
      </trkpt>
      <trkpt lat="43.33502" lon="5.78796">
        <ele>1067.7</ele>
        <time>2025-10-05T09:30:04Z</time>
      </trkpt>
      <trkpt lat="43.33501" lon="5.78795">
        <ele>1067.9</ele>
        <time>2025-10-05T09:30:05Z</time>
      </trkpt>
      <trkpt lat="43.33501" lon="5.78795">
        <ele>1068.1</ele>
        <time>2025-10-05T09:30:06Z</time>
      </trkpt>
      <trkpt lat="43.33501" lon="5.78795">
        <ele>1068.3</ele>
        <time>2025-10-05T09:30:07Z</time>
      </trkpt>
      <trkpt lat="43.33501" lon="5.78796">
        <ele>1068.4</ele>
        <time>2025-10-05T09:30:08Z</time>
      </trkpt>
      <trkpt lat="43.33501" lon="5.78796">
        <ele>1068.7</ele>
        <time>2025-10-05T09:30:09Z</time>
      </trkpt>
      <trkpt lat="43.335" lon="5.78796">
        <ele>1068.8</ele>
        <time>2025-10-05T09:30:10Z</time>
      </trkpt>
      <trkpt lat="43.335" lon="5.78796">
        <ele>1069</ele>
        <time>2025-10-05T09:30:11Z</time>
      </trkpt>
      <trkpt lat="43.335" lon="5.78796">
        <ele>1069.1</ele>
        <time>2025-10-05T09:30:12Z</time>
      </trkpt>
      <trkpt lat="43.335" lon="5.78796">
        <ele>1069.5</ele>
        <time>2025-10-05T09:30:13Z</time>
      </trkpt>
      <trkpt lat="43.335" lon="5.78796">
        <ele>1069.9</ele>
        <time>2025-10-05T09:30:14Z</time>
      </trkpt>
      <trkpt lat="43.33499" lon="5.78795">
        <ele>1070.4</ele>
        <time>2025-10-05T09:30:15Z</time>
      </trkpt>
      <trkpt lat="43.33499" lon="5.78795">
        <ele>1070.6</ele>
        <time>2025-10-05T09:30:16Z</time>
      </trkpt>
      <trkpt lat="43.33499" lon="5.78795">
        <ele>1071</ele>
        <time>2025-10-05T09:30:17Z</time>
      </trkpt>
      <trkpt lat="43.33499" lon="5.78795">
        <ele>1071.4</ele>
        <time>2025-10-05T09:30:18Z</time>
      </trkpt>
      <trkpt lat="43.33498" lon="5.78795">
        <ele>1072.2</ele>
        <time>2025-10-05T09:30:19Z</time>
      </trkpt>
      <trkpt lat="43.33498" lon="5.78796">
        <ele>1072.5</ele>
        <time>2025-10-05T09:30:20Z</time>
      </trkpt>
      <trkpt lat="43.33498" lon="5.78796">
        <ele>1072.5</ele>
        <time>2025-10-05T09:30:21Z</time>
      </trkpt>
      <trkpt lat="43.33498" lon="5.78795">
        <ele>1072.5</ele>
        <time>2025-10-05T09:30:22Z</time>
      </trkpt>
      <trkpt lat="43.33498" lon="5.78795">
        <ele>1072.4</ele>
        <time>2025-10-05T09:30:23Z</time>
      </trkpt>
      <trkpt lat="43.33497" lon="5.78794">
        <ele>1072.5</ele>
        <time>2025-10-05T09:30:24Z</time>
      </trkpt>
      <trkpt lat="43.33497" lon="5.78794">
        <ele>1072.7</ele>
        <time>2025-10-05T09:30:25Z</time>
      </trkpt>
      <trkpt lat="43.33496" lon="5.78794">
        <ele>1072.9</ele>
        <time>2025-10-05T09:30:26Z</time>
      </trkpt>
      <trkpt lat="43.33496" lon="5.78794">
        <ele>1073.1</ele>
        <time>2025-10-05T09:30:27Z</time>
      </trkpt>
      <trkpt lat="43.33496" lon="5.78794">
        <ele>1073.3</ele>
        <time>2025-10-05T09:30:28Z</time>
      </trkpt>
      <trkpt lat="43.33496" lon="5.78794">
        <ele>1073.5</ele>
        <time>2025-10-05T09:30:29Z</time>
      </trkpt>
      <trkpt lat="43.33496" lon="5.78794">
        <ele>1073.6</ele>
        <time>2025-10-05T09:30:30Z</time>
      </trkpt>
      <trkpt lat="43.33495" lon="5.78794">
        <ele>1073.7</ele>
        <time>2025-10-05T09:30:31Z</time>
      </trkpt>
      <trkpt lat="43.33495" lon="5.78794">
        <ele>1073.8</ele>
        <time>2025-10-05T09:30:32Z</time>
      </trkpt>
      <trkpt lat="43.33495" lon="5.78794">
        <ele>1073.8</ele>
        <time>2025-10-05T09:30:33Z</time>
      </trkpt>
      <trkpt lat="43.33495" lon="5.78794">
        <ele>1073.7</ele>
        <time>2025-10-05T09:30:34Z</time>
      </trkpt>
      <trkpt lat="43.33495" lon="5.78794">
        <ele>1073.7</ele>
        <time>2025-10-05T09:30:35Z</time>
      </trkpt>
      <trkpt lat="43.33495" lon="5.78794">
        <ele>1073.7</ele>
        <time>2025-10-05T09:30:36Z</time>
      </trkpt>
      <trkpt lat="43.33495" lon="5.78793">
        <ele>1073.7</ele>
        <time>2025-10-05T09:30:37Z</time>
      </trkpt>
      <trkpt lat="43.33495" lon="5.78793">
        <ele>1073.7</ele>
        <time>2025-10-05T09:30:38Z</time>
      </trkpt>
      <trkpt lat="43.33495" lon="5.78792">
        <ele>1073.5</ele>
        <time>2025-10-05T09:30:39Z</time>
      </trkpt>
      <trkpt lat="43.33495" lon="5.78791">
        <ele>1073.9</ele>
        <time>2025-10-05T09:30:40Z</time>
      </trkpt>
      <trkpt lat="43.33494" lon="5.78791">
        <ele>1073.8</ele>
        <time>2025-10-05T09:30:41Z</time>
      </trkpt>
      <trkpt lat="43.33494" lon="5.78791">
        <ele>1073.9</ele>
        <time>2025-10-05T09:30:42Z</time>
      </trkpt>
      <trkpt lat="43.33493" lon="5.7879">
        <ele>1074</ele>
        <time>2025-10-05T09:30:43Z</time>
      </trkpt>
      <trkpt lat="43.33493" lon="5.7879">
        <ele>1074</ele>
        <time>2025-10-05T09:30:44Z</time>
      </trkpt>
      <trkpt lat="43.33493" lon="5.78789">
        <ele>1074</ele>
        <time>2025-10-05T09:30:45Z</time>
      </trkpt>
      <trkpt lat="43.33493" lon="5.78789">
        <ele>1074.2</ele>
        <time>2025-10-05T09:30:46Z</time>
      </trkpt>
      <trkpt lat="43.33493" lon="5.78789">
        <ele>1074.2</ele>
        <time>2025-10-05T09:30:47Z</time>
      </trkpt>
      <trkpt lat="43.33493" lon="5.78789">
        <ele>1074.2</ele>
        <time>2025-10-05T09:30:48Z</time>
      </trkpt>
      <trkpt lat="43.33493" lon="5.78789">
        <ele>1074.2</ele>
        <time>2025-10-05T09:30:49Z</time>
      </trkpt>
      <trkpt lat="43.33493" lon="5.78789">
        <ele>1074.3</ele>
        <time>2025-10-05T09:30:50Z</time>
      </trkpt>
      <trkpt lat="43.33493" lon="5.78789">
        <ele>1074.4</ele>
        <time>2025-10-05T09:30:51Z</time>
      </trkpt>
      <trkpt lat="43.33493" lon="5.78789">
        <ele>1074.5</ele>
        <time>2025-10-05T09:30:52Z</time>
      </trkpt>
      <trkpt lat="43.33494" lon="5.78789">
        <ele>1074.5</ele>
        <time>2025-10-05T09:30:53Z</time>
      </trkpt>
      <trkpt lat="43.33494" lon="5.78789">
        <ele>1074.5</ele>
        <time>2025-10-05T09:30:54Z</time>
      </trkpt>
      <trkpt lat="43.33493" lon="5.78789">
        <ele>1074.5</ele>
        <time>2025-10-05T09:30:55Z</time>
      </trkpt>
      <trkpt lat="43.33493" lon="5.78789">
        <ele>1074.5</ele>
        <time>2025-10-05T09:30:56Z</time>
      </trkpt>
      <trkpt lat="43.33493" lon="5.78789">
        <ele>1074.6</ele>
        <time>2025-10-05T09:30:57Z</time>
      </trkpt>
      <trkpt lat="43.33493" lon="5.7879">
        <ele>1074.9</ele>
        <time>2025-10-05T09:30:58Z</time>
      </trkpt>
      <trkpt lat="43.33493" lon="5.78791">
        <ele>1074.9</ele>
        <time>2025-10-05T09:30:59Z</time>
      </trkpt>
      <trkpt lat="43.33493" lon="5.78791">
        <ele>1075</ele>
        <time>2025-10-05T09:31:00Z</time>
      </trkpt>
      <trkpt lat="43.33493" lon="5.78792">
        <ele>1075</ele>
        <time>2025-10-05T09:31:01Z</time>
      </trkpt>
      <trkpt lat="43.33493" lon="5.78793">
        <ele>1075</ele>
        <time>2025-10-05T09:31:02Z</time>
      </trkpt>
      <trkpt lat="43.33492" lon="5.78793">
        <ele>1075.1</ele>
        <time>2025-10-05T09:31:03Z</time>
      </trkpt>
      <trkpt lat="43.33492" lon="5.78794">
        <ele>1075.1</ele>
        <time>2025-10-05T09:31:04Z</time>
      </trkpt>
      <trkpt lat="43.33492" lon="5.78795">
        <ele>1075.1</ele>
        <time>2025-10-05T09:31:05Z</time>
      </trkpt>
      <trkpt lat="43.33492" lon="5.78796">
        <ele>1075.4</ele>
        <time>2025-10-05T09:31:06Z</time>
      </trkpt>
      <trkpt lat="43.33492" lon="5.78797">
        <ele>1075.4</ele>
        <time>2025-10-05T09:31:07Z</time>
      </trkpt>
      <trkpt lat="43.33492" lon="5.78797">
        <ele>1075.4</ele>
        <time>2025-10-05T09:31:08Z</time>
      </trkpt>
      <trkpt lat="43.33492" lon="5.78798">
        <ele>1075.6</ele>
        <time>2025-10-05T09:31:09Z</time>
      </trkpt>
      <trkpt lat="43.33491" lon="5.78798">
        <ele>1075.7</ele>
        <time>2025-10-05T09:31:10Z</time>
      </trkpt>
      <trkpt lat="43.33491" lon="5.78798">
        <ele>1075.7</ele>
        <time>2025-10-05T09:31:11Z</time>
      </trkpt>
      <trkpt lat="43.33492" lon="5.78798">
        <ele>1075.7</ele>
        <time>2025-10-05T09:31:12Z</time>
      </trkpt>
      <trkpt lat="43.33492" lon="5.78798">
        <ele>1076.1</ele>
        <time>2025-10-05T09:31:13Z</time>
      </trkpt>
      <trkpt lat="43.33492" lon="5.78798">
        <ele>1076.1</ele>
        <time>2025-10-05T09:31:14Z</time>
      </trkpt>
      <trkpt lat="43.33492" lon="5.78798">
        <ele>1076.1</ele>
        <time>2025-10-05T09:31:15Z</time>
      </trkpt>
      <trkpt lat="43.33492" lon="5.78798">
        <ele>1076.1</ele>
        <time>2025-10-05T09:31:16Z</time>
      </trkpt>
      <trkpt lat="43.33492" lon="5.78797">
        <ele>1076.3</ele>
        <time>2025-10-05T09:31:17Z</time>
      </trkpt>
      <trkpt lat="43.33492" lon="5.78797">
        <ele>1076.5</ele>
        <time>2025-10-05T09:31:18Z</time>
      </trkpt>
      <trkpt lat="43.33492" lon="5.78797">
        <ele>1076.6</ele>
        <time>2025-10-05T09:31:19Z</time>
      </trkpt>
      <trkpt lat="43.33492" lon="5.78797">
        <ele>1076.4</ele>
        <time>2025-10-05T09:31:20Z</time>
      </trkpt>
      <trkpt lat="43.33492" lon="5.78797">
        <ele>1076.3</ele>
        <time>2025-10-05T09:31:21Z</time>
      </trkpt>
      <trkpt lat="43.33492" lon="5.78798">
        <ele>1076.2</ele>
        <time>2025-10-05T09:31:22Z</time>
      </trkpt>
      <trkpt lat="43.33492" lon="5.78798">
        <ele>1076.1</ele>
        <time>2025-10-05T09:31:23Z</time>
      </trkpt>
      <trkpt lat="43.33491" lon="5.78798">
        <ele>1076.1</ele>
        <time>2025-10-05T09:31:24Z</time>
      </trkpt>
      <trkpt lat="43.33492" lon="5.78798">
        <ele>1076.1</ele>
        <time>2025-10-05T09:31:25Z</time>
      </trkpt>
      <trkpt lat="43.33492" lon="5.78799">
        <ele>1075.9</ele>
        <time>2025-10-05T09:31:26Z</time>
      </trkpt>
      <trkpt lat="43.33492" lon="5.788">
        <ele>1075.8</ele>
        <time>2025-10-05T09:31:27Z</time>
      </trkpt>
      <trkpt lat="43.33492" lon="5.788">
        <ele>1075.7</ele>
        <time>2025-10-05T09:31:28Z</time>
      </trkpt>
      <trkpt lat="43.33492" lon="5.78801">
        <ele>1076</ele>
        <time>2025-10-05T09:31:29Z</time>
      </trkpt>
      <trkpt lat="43.33492" lon="5.78801">
        <ele>1076.3</ele>
        <time>2025-10-05T09:31:30Z</time>
      </trkpt>
      <trkpt lat="43.33492" lon="5.78801">
        <ele>1076.6</ele>
        <time>2025-10-05T09:31:31Z</time>
      </trkpt>
      <trkpt lat="43.33491" lon="5.78801">
        <ele>1076.6</ele>
        <time>2025-10-05T09:31:32Z</time>
      </trkpt>
      <trkpt lat="43.33491" lon="5.78801">
        <ele>1076.5</ele>
        <time>2025-10-05T09:31:33Z</time>
      </trkpt>
      <trkpt lat="43.33491" lon="5.78802">
        <ele>1076.4</ele>
        <time>2025-10-05T09:31:34Z</time>
      </trkpt>
      <trkpt lat="43.33491" lon="5.78802">
        <ele>1076.5</ele>
        <time>2025-10-05T09:31:35Z</time>
      </trkpt>
      <trkpt lat="43.3349" lon="5.78802">
        <ele>1076.6</ele>
        <time>2025-10-05T09:31:36Z</time>
      </trkpt>
      <trkpt lat="43.3349" lon="5.78802">
        <ele>1077.1</ele>
        <time>2025-10-05T09:31:37Z</time>
      </trkpt>
      <trkpt lat="43.3349" lon="5.78802">
        <ele>1076.9</ele>
        <time>2025-10-05T09:31:38Z</time>
      </trkpt>
      <trkpt lat="43.3349" lon="5.78802">
        <ele>1076.6</ele>
        <time>2025-10-05T09:31:39Z</time>
      </trkpt>
      <trkpt lat="43.3349" lon="5.78803">
        <ele>1076.3</ele>
        <time>2025-10-05T09:31:40Z</time>
      </trkpt>
      <trkpt lat="43.3349" lon="5.78803">
        <ele>1076.2</ele>
        <time>2025-10-05T09:31:41Z</time>
      </trkpt>
      <trkpt lat="43.3349" lon="5.78803">
        <ele>1076</ele>
        <time>2025-10-05T09:31:42Z</time>
      </trkpt>
      <trkpt lat="43.3349" lon="5.78803">
        <ele>1076.2</ele>
        <time>2025-10-05T09:31:43Z</time>
      </trkpt>
      <trkpt lat="43.3349" lon="5.78803">
        <ele>1076.2</ele>
        <time>2025-10-05T09:31:44Z</time>
      </trkpt>
      <trkpt lat="43.3349" lon="5.78803">
        <ele>1076.3</ele>
        <time>2025-10-05T09:31:45Z</time>
      </trkpt>
      <trkpt lat="43.33489" lon="5.78804">
        <ele>1076.3</ele>
        <time>2025-10-05T09:31:46Z</time>
      </trkpt>
      <trkpt lat="43.33489" lon="5.78803">
        <ele>1076.3</ele>
        <time>2025-10-05T09:31:47Z</time>
      </trkpt>
      <trkpt lat="43.33489" lon="5.78803">
        <ele>1076.4</ele>
        <time>2025-10-05T09:31:48Z</time>
      </trkpt>
      <trkpt lat="43.33489" lon="5.78804">
        <ele>1076.4</ele>
        <time>2025-10-05T09:31:49Z</time>
      </trkpt>
      <trkpt lat="43.3349" lon="5.78804">
        <ele>1076.8</ele>
        <time>2025-10-05T09:31:50Z</time>
      </trkpt>
      <trkpt lat="43.3349" lon="5.78804">
        <ele>1077</ele>
        <time>2025-10-05T09:31:51Z</time>
      </trkpt>
      <trkpt lat="43.3349" lon="5.78804">
        <ele>1077</ele>
        <time>2025-10-05T09:31:52Z</time>
      </trkpt>
      <trkpt lat="43.3349" lon="5.78804">
        <ele>1077.1</ele>
        <time>2025-10-05T09:31:53Z</time>
      </trkpt>
      <trkpt lat="43.3349" lon="5.78804">
        <ele>1077.3</ele>
        <time>2025-10-05T09:31:54Z</time>
      </trkpt>
      <trkpt lat="43.3349" lon="5.78804">
        <ele>1077.4</ele>
        <time>2025-10-05T09:31:55Z</time>
      </trkpt>
      <trkpt lat="43.3349" lon="5.78804">
        <ele>1077.5</ele>
        <time>2025-10-05T09:31:56Z</time>
      </trkpt>
      <trkpt lat="43.3349" lon="5.78804">
        <ele>1077.3</ele>
        <time>2025-10-05T09:31:57Z</time>
      </trkpt>
      <trkpt lat="43.3349" lon="5.78803">
        <ele>1077.2</ele>
        <time>2025-10-05T09:31:58Z</time>
      </trkpt>
      <trkpt lat="43.3349" lon="5.78803">
        <ele>1077.1</ele>
        <time>2025-10-05T09:31:59Z</time>
      </trkpt>
      <trkpt lat="43.33489" lon="5.78803">
        <ele>1076.7</ele>
        <time>2025-10-05T09:32:00Z</time>
      </trkpt>
      <trkpt lat="43.33489" lon="5.78803">
        <ele>1076.8</ele>
        <time>2025-10-05T09:32:01Z</time>
      </trkpt>
      <trkpt lat="43.33489" lon="5.78803">
        <ele>1077</ele>
        <time>2025-10-05T09:32:02Z</time>
      </trkpt>
      <trkpt lat="43.33488" lon="5.78803">
        <ele>1077.3</ele>
        <time>2025-10-05T09:32:03Z</time>
      </trkpt>
      <trkpt lat="43.33488" lon="5.78804">
        <ele>1077.6</ele>
        <time>2025-10-05T09:32:04Z</time>
      </trkpt>
      <trkpt lat="43.33489" lon="5.78804">
        <ele>1077.8</ele>
        <time>2025-10-05T09:32:05Z</time>
      </trkpt>
      <trkpt lat="43.33489" lon="5.78804">
        <ele>1077.8</ele>
        <time>2025-10-05T09:32:06Z</time>
      </trkpt>
      <trkpt lat="43.33488" lon="5.78804">
        <ele>1078.3</ele>
        <time>2025-10-05T09:32:07Z</time>
      </trkpt>
      <trkpt lat="43.33488" lon="5.78805">
        <ele>1078.9</ele>
        <time>2025-10-05T09:32:08Z</time>
      </trkpt>
      <trkpt lat="43.33488" lon="5.78806">
        <ele>1079.4</ele>
        <time>2025-10-05T09:32:09Z</time>
      </trkpt>
      <trkpt lat="43.33487" lon="5.78806">
        <ele>1079.7</ele>
        <time>2025-10-05T09:32:10Z</time>
      </trkpt>
      <trkpt lat="43.33487" lon="5.78807">
        <ele>1079.8</ele>
        <time>2025-10-05T09:32:11Z</time>
      </trkpt>
      <trkpt lat="43.33487" lon="5.78807">
        <ele>1080</ele>
        <time>2025-10-05T09:32:12Z</time>
      </trkpt>
      <trkpt lat="43.33487" lon="5.78808">
        <ele>1080.3</ele>
        <time>2025-10-05T09:32:13Z</time>
      </trkpt>
      <trkpt lat="43.33487" lon="5.78808">
        <ele>1080.4</ele>
        <time>2025-10-05T09:32:14Z</time>
      </trkpt>
      <trkpt lat="43.33487" lon="5.78808">
        <ele>1080.7</ele>
        <time>2025-10-05T09:32:15Z</time>
      </trkpt>
      <trkpt lat="43.33487" lon="5.78808">
        <ele>1080.9</ele>
        <time>2025-10-05T09:32:16Z</time>
      </trkpt>
      <trkpt lat="43.33487" lon="5.78808">
        <ele>1081.1</ele>
        <time>2025-10-05T09:32:17Z</time>
      </trkpt>
      <trkpt lat="43.33487" lon="5.78808">
        <ele>1081.2</ele>
        <time>2025-10-05T09:32:18Z</time>
      </trkpt>
      <trkpt lat="43.33487" lon="5.78808">
        <ele>1081.5</ele>
        <time>2025-10-05T09:32:19Z</time>
      </trkpt>
      <trkpt lat="43.33486" lon="5.78808">
        <ele>1081.7</ele>
        <time>2025-10-05T09:32:20Z</time>
      </trkpt>
      <trkpt lat="43.33486" lon="5.78808">
        <ele>1082.1</ele>
        <time>2025-10-05T09:32:21Z</time>
      </trkpt>
      <trkpt lat="43.33486" lon="5.78808">
        <ele>1082.4</ele>
        <time>2025-10-05T09:32:22Z</time>
      </trkpt>
      <trkpt lat="43.33486" lon="5.78808">
        <ele>1082.6</ele>
        <time>2025-10-05T09:32:23Z</time>
      </trkpt>
      <trkpt lat="43.33486" lon="5.78809">
        <ele>1082.8</ele>
        <time>2025-10-05T09:32:24Z</time>
      </trkpt>
      <trkpt lat="43.33486" lon="5.78809">
        <ele>1082.9</ele>
        <time>2025-10-05T09:32:25Z</time>
      </trkpt>
      <trkpt lat="43.33486" lon="5.78809">
        <ele>1082.8</ele>
        <time>2025-10-05T09:32:26Z</time>
      </trkpt>
      <trkpt lat="43.33486" lon="5.78809">
        <ele>1082.9</ele>
        <time>2025-10-05T09:32:27Z</time>
      </trkpt>
      <trkpt lat="43.33486" lon="5.78809">
        <ele>1082.6</ele>
        <time>2025-10-05T09:32:28Z</time>
      </trkpt>
      <trkpt lat="43.33486" lon="5.78809">
        <ele>1082.1</ele>
        <time>2025-10-05T09:32:29Z</time>
      </trkpt>
      <trkpt lat="43.33486" lon="5.78809">
        <ele>1081.7</ele>
        <time>2025-10-05T09:32:30Z</time>
      </trkpt>
      <trkpt lat="43.33486" lon="5.78809">
        <ele>1081.8</ele>
        <time>2025-10-05T09:32:31Z</time>
      </trkpt>
      <trkpt lat="43.33486" lon="5.7881">
        <ele>1081.7</ele>
        <time>2025-10-05T09:32:32Z</time>
      </trkpt>
      <trkpt lat="43.33486" lon="5.7881">
        <ele>1081.7</ele>
        <time>2025-10-05T09:32:33Z</time>
      </trkpt>
      <trkpt lat="43.33486" lon="5.78809">
        <ele>1081.7</ele>
        <time>2025-10-05T09:32:34Z</time>
      </trkpt>
      <trkpt lat="43.33485" lon="5.78809">
        <ele>1081.4</ele>
        <time>2025-10-05T09:32:35Z</time>
      </trkpt>
      <trkpt lat="43.33485" lon="5.78809">
        <ele>1081</ele>
        <time>2025-10-05T09:32:36Z</time>
      </trkpt>
      <trkpt lat="43.33486" lon="5.78809">
        <ele>1081</ele>
        <time>2025-10-05T09:32:37Z</time>
      </trkpt>
      <trkpt lat="43.33486" lon="5.78809">
        <ele>1080.9</ele>
        <time>2025-10-05T09:32:38Z</time>
      </trkpt>
      <trkpt lat="43.33486" lon="5.78809">
        <ele>1080.7</ele>
        <time>2025-10-05T09:32:39Z</time>
      </trkpt>
      <trkpt lat="43.33486" lon="5.78809">
        <ele>1080.6</ele>
        <time>2025-10-05T09:32:40Z</time>
      </trkpt>
      <trkpt lat="43.33486" lon="5.78809">
        <ele>1080.8</ele>
        <time>2025-10-05T09:32:41Z</time>
      </trkpt>
      <trkpt lat="43.33485" lon="5.78809">
        <ele>1080.9</ele>
        <time>2025-10-05T09:32:42Z</time>
      </trkpt>
      <trkpt lat="43.33485" lon="5.7881">
        <ele>1081.3</ele>
        <time>2025-10-05T09:32:43Z</time>
      </trkpt>
      <trkpt lat="43.33485" lon="5.78809">
        <ele>1081.4</ele>
        <time>2025-10-05T09:32:44Z</time>
      </trkpt>
      <trkpt lat="43.33485" lon="5.78809">
        <ele>1081.5</ele>
        <time>2025-10-05T09:32:45Z</time>
      </trkpt>
      <trkpt lat="43.33485" lon="5.78809">
        <ele>1081.6</ele>
        <time>2025-10-05T09:32:46Z</time>
      </trkpt>
      <trkpt lat="43.33485" lon="5.78809">
        <ele>1081.6</ele>
        <time>2025-10-05T09:32:47Z</time>
      </trkpt>
      <trkpt lat="43.33485" lon="5.78809">
        <ele>1081.7</ele>
        <time>2025-10-05T09:32:48Z</time>
      </trkpt>
      <trkpt lat="43.33485" lon="5.78809">
        <ele>1081.8</ele>
        <time>2025-10-05T09:32:49Z</time>
      </trkpt>
      <trkpt lat="43.33485" lon="5.78809">
        <ele>1081.8</ele>
        <time>2025-10-05T09:32:50Z</time>
      </trkpt>
      <trkpt lat="43.33485" lon="5.7881">
        <ele>1081.9</ele>
        <time>2025-10-05T09:32:51Z</time>
      </trkpt>
      <trkpt lat="43.33484" lon="5.7881">
        <ele>1082.1</ele>
        <time>2025-10-05T09:32:52Z</time>
      </trkpt>
      <trkpt lat="43.33484" lon="5.7881">
        <ele>1082</ele>
        <time>2025-10-05T09:32:53Z</time>
      </trkpt>
      <trkpt lat="43.33483" lon="5.7881">
        <ele>1082</ele>
        <time>2025-10-05T09:32:54Z</time>
      </trkpt>
      <trkpt lat="43.33483" lon="5.7881">
        <ele>1081.9</ele>
        <time>2025-10-05T09:32:55Z</time>
      </trkpt>
      <trkpt lat="43.33482" lon="5.7881">
        <ele>1082.3</ele>
        <time>2025-10-05T09:32:56Z</time>
      </trkpt>
      <trkpt lat="43.33482" lon="5.78811">
        <ele>1082.7</ele>
        <time>2025-10-05T09:32:57Z</time>
      </trkpt>
      <trkpt lat="43.33482" lon="5.78811">
        <ele>1083.1</ele>
        <time>2025-10-05T09:32:58Z</time>
      </trkpt>
      <trkpt lat="43.33482" lon="5.7881">
        <ele>1083.3</ele>
        <time>2025-10-05T09:32:59Z</time>
      </trkpt>
      <trkpt lat="43.33482" lon="5.7881">
        <ele>1083.5</ele>
        <time>2025-10-05T09:33:00Z</time>
      </trkpt>
      <trkpt lat="43.33482" lon="5.7881">
        <ele>1083.9</ele>
        <time>2025-10-05T09:33:01Z</time>
      </trkpt>
      <trkpt lat="43.33482" lon="5.7881">
        <ele>1084</ele>
        <time>2025-10-05T09:33:02Z</time>
      </trkpt>
      <trkpt lat="43.33482" lon="5.7881">
        <ele>1084.2</ele>
        <time>2025-10-05T09:33:03Z</time>
      </trkpt>
      <trkpt lat="43.33482" lon="5.7881">
        <ele>1084.3</ele>
        <time>2025-10-05T09:33:04Z</time>
      </trkpt>
      <trkpt lat="43.33482" lon="5.7881">
        <ele>1084.5</ele>
        <time>2025-10-05T09:33:05Z</time>
      </trkpt>
      <trkpt lat="43.33482" lon="5.78811">
        <ele>1084.6</ele>
        <time>2025-10-05T09:33:06Z</time>
      </trkpt>
      <trkpt lat="43.33482" lon="5.78811">
        <ele>1084.9</ele>
        <time>2025-10-05T09:33:07Z</time>
      </trkpt>
      <trkpt lat="43.33482" lon="5.78812">
        <ele>1085.1</ele>
        <time>2025-10-05T09:33:08Z</time>
      </trkpt>
      <trkpt lat="43.33482" lon="5.78813">
        <ele>1085.4</ele>
        <time>2025-10-05T09:33:09Z</time>
      </trkpt>
      <trkpt lat="43.33482" lon="5.78813">
        <ele>1085.6</ele>
        <time>2025-10-05T09:33:10Z</time>
      </trkpt>
      <trkpt lat="43.33482" lon="5.78814">
        <ele>1085.9</ele>
        <time>2025-10-05T09:33:11Z</time>
      </trkpt>
      <trkpt lat="43.33481" lon="5.78814">
        <ele>1086.2</ele>
        <time>2025-10-05T09:33:12Z</time>
      </trkpt>
      <trkpt lat="43.33481" lon="5.78814">
        <ele>1086.5</ele>
        <time>2025-10-05T09:33:13Z</time>
      </trkpt>
      <trkpt lat="43.33481" lon="5.78814">
        <ele>1086.7</ele>
        <time>2025-10-05T09:33:14Z</time>
      </trkpt>
      <trkpt lat="43.33481" lon="5.78814">
        <ele>1087</ele>
        <time>2025-10-05T09:33:15Z</time>
      </trkpt>
      <trkpt lat="43.33481" lon="5.78814">
        <ele>1087.2</ele>
        <time>2025-10-05T09:33:16Z</time>
      </trkpt>
      <trkpt lat="43.33481" lon="5.78814">
        <ele>1087.3</ele>
        <time>2025-10-05T09:33:17Z</time>
      </trkpt>
      <trkpt lat="43.33481" lon="5.78815">
        <ele>1087.5</ele>
        <time>2025-10-05T09:33:18Z</time>
      </trkpt>
      <trkpt lat="43.33481" lon="5.78815">
        <ele>1087.8</ele>
        <time>2025-10-05T09:33:19Z</time>
      </trkpt>
      <trkpt lat="43.33481" lon="5.78815">
        <ele>1087.7</ele>
        <time>2025-10-05T09:33:20Z</time>
      </trkpt>
      <trkpt lat="43.33481" lon="5.78815">
        <ele>1087</ele>
        <time>2025-10-05T09:33:21Z</time>
      </trkpt>
      <trkpt lat="43.33482" lon="5.78815">
        <ele>1086.5</ele>
        <time>2025-10-05T09:33:22Z</time>
      </trkpt>
      <trkpt lat="43.33482" lon="5.78815">
        <ele>1086</ele>
        <time>2025-10-05T09:33:23Z</time>
      </trkpt>
      <trkpt lat="43.33482" lon="5.78815">
        <ele>1085.5</ele>
        <time>2025-10-05T09:33:24Z</time>
      </trkpt>
      <trkpt lat="43.33482" lon="5.78815">
        <ele>1085.1</ele>
        <time>2025-10-05T09:33:25Z</time>
      </trkpt>
      <trkpt lat="43.33481" lon="5.78815">
        <ele>1084.6</ele>
        <time>2025-10-05T09:33:26Z</time>
      </trkpt>
      <trkpt lat="43.33481" lon="5.78815">
        <ele>1084.9</ele>
        <time>2025-10-05T09:33:27Z</time>
      </trkpt>
      <trkpt lat="43.3348" lon="5.78815">
        <ele>1084.7</ele>
        <time>2025-10-05T09:33:28Z</time>
      </trkpt>
      <trkpt lat="43.33479" lon="5.78814">
        <ele>1084.8</ele>
        <time>2025-10-05T09:33:29Z</time>
      </trkpt>
      <trkpt lat="43.33479" lon="5.78814">
        <ele>1085.2</ele>
        <time>2025-10-05T09:33:30Z</time>
      </trkpt>
      <trkpt lat="43.33478" lon="5.78814">
        <ele>1085.6</ele>
        <time>2025-10-05T09:33:31Z</time>
      </trkpt>
      <trkpt lat="43.33478" lon="5.78814">
        <ele>1086.2</ele>
        <time>2025-10-05T09:33:32Z</time>
      </trkpt>
      <trkpt lat="43.33477" lon="5.78814">
        <ele>1086.4</ele>
        <time>2025-10-05T09:33:33Z</time>
      </trkpt>
      <trkpt lat="43.33477" lon="5.78814">
        <ele>1086.5</ele>
        <time>2025-10-05T09:33:34Z</time>
      </trkpt>
      <trkpt lat="43.33476" lon="5.78813">
        <ele>1086.7</ele>
        <time>2025-10-05T09:33:35Z</time>
      </trkpt>
      <trkpt lat="43.33476" lon="5.78813">
        <ele>1087</ele>
        <time>2025-10-05T09:33:36Z</time>
      </trkpt>
      <trkpt lat="43.33476" lon="5.78814">
        <ele>1087.4</ele>
        <time>2025-10-05T09:33:37Z</time>
      </trkpt>
      <trkpt lat="43.33476" lon="5.78814">
        <ele>1087.8</ele>
        <time>2025-10-05T09:33:38Z</time>
      </trkpt>
      <trkpt lat="43.33476" lon="5.78814">
        <ele>1088</ele>
        <time>2025-10-05T09:33:39Z</time>
      </trkpt>
      <trkpt lat="43.33476" lon="5.78814">
        <ele>1088.2</ele>
        <time>2025-10-05T09:33:40Z</time>
      </trkpt>
      <trkpt lat="43.33477" lon="5.78814">
        <ele>1088.5</ele>
        <time>2025-10-05T09:33:41Z</time>
      </trkpt>
      <trkpt lat="43.33477" lon="5.78814">
        <ele>1088.8</ele>
        <time>2025-10-05T09:33:42Z</time>
      </trkpt>
      <trkpt lat="43.33477" lon="5.78814">
        <ele>1089</ele>
        <time>2025-10-05T09:33:43Z</time>
      </trkpt>
      <trkpt lat="43.33477" lon="5.78813">
        <ele>1089.4</ele>
        <time>2025-10-05T09:33:44Z</time>
      </trkpt>
      <trkpt lat="43.33477" lon="5.78813">
        <ele>1089.7</ele>
        <time>2025-10-05T09:33:45Z</time>
      </trkpt>
      <trkpt lat="43.33477" lon="5.78813">
        <ele>1090</ele>
        <time>2025-10-05T09:33:46Z</time>
      </trkpt>
      <trkpt lat="43.33476" lon="5.78814">
        <ele>1090.4</ele>
        <time>2025-10-05T09:33:47Z</time>
      </trkpt>
      <trkpt lat="43.33476" lon="5.78814">
        <ele>1090.7</ele>
        <time>2025-10-05T09:33:48Z</time>
      </trkpt>
      <trkpt lat="43.33476" lon="5.78814">
        <ele>1090.9</ele>
        <time>2025-10-05T09:33:49Z</time>
      </trkpt>
      <trkpt lat="43.33476" lon="5.78814">
        <ele>1091.2</ele>
        <time>2025-10-05T09:33:50Z</time>
      </trkpt>
      <trkpt lat="43.33476" lon="5.78814">
        <ele>1091.6</ele>
        <time>2025-10-05T09:33:51Z</time>
      </trkpt>
      <trkpt lat="43.33476" lon="5.78814">
        <ele>1091.9</ele>
        <time>2025-10-05T09:33:52Z</time>
      </trkpt>
      <trkpt lat="43.33476" lon="5.78814">
        <ele>1092.2</ele>
        <time>2025-10-05T09:33:53Z</time>
      </trkpt>
      <trkpt lat="43.33476" lon="5.78814">
        <ele>1092.3</ele>
        <time>2025-10-05T09:33:54Z</time>
      </trkpt>
      <trkpt lat="43.33476" lon="5.78814">
        <ele>1092.8</ele>
        <time>2025-10-05T09:33:55Z</time>
      </trkpt>
      <trkpt lat="43.33476" lon="5.78814">
        <ele>1092.9</ele>
        <time>2025-10-05T09:33:56Z</time>
      </trkpt>
      <trkpt lat="43.33475" lon="5.78814">
        <ele>1093.5</ele>
        <time>2025-10-05T09:33:57Z</time>
      </trkpt>
      <trkpt lat="43.33476" lon="5.78815">
        <ele>1093.6</ele>
        <time>2025-10-05T09:33:58Z</time>
      </trkpt>
      <trkpt lat="43.33476" lon="5.78815">
        <ele>1093.8</ele>
        <time>2025-10-05T09:33:59Z</time>
      </trkpt>
      <trkpt lat="43.33475" lon="5.78815">
        <ele>1093.9</ele>
        <time>2025-10-05T09:34:00Z</time>
      </trkpt>
      <trkpt lat="43.33475" lon="5.78815">
        <ele>1094</ele>
        <time>2025-10-05T09:34:01Z</time>
      </trkpt>
      <trkpt lat="43.33475" lon="5.78816">
        <ele>1093.9</ele>
        <time>2025-10-05T09:34:02Z</time>
      </trkpt>
      <trkpt lat="43.33475" lon="5.78816">
        <ele>1094.1</ele>
        <time>2025-10-05T09:34:03Z</time>
      </trkpt>
      <trkpt lat="43.33475" lon="5.78816">
        <ele>1094.3</ele>
        <time>2025-10-05T09:34:04Z</time>
      </trkpt>
      <trkpt lat="43.33474" lon="5.78816">
        <ele>1094.9</ele>
        <time>2025-10-05T09:34:05Z</time>
      </trkpt>
      <trkpt lat="43.33475" lon="5.78816">
        <ele>1095.3</ele>
        <time>2025-10-05T09:34:06Z</time>
      </trkpt>
      <trkpt lat="43.33475" lon="5.78816">
        <ele>1095.2</ele>
        <time>2025-10-05T09:34:07Z</time>
      </trkpt>
      <trkpt lat="43.33475" lon="5.78817">
        <ele>1094.6</ele>
        <time>2025-10-05T09:34:08Z</time>
      </trkpt>
      <trkpt lat="43.33475" lon="5.78816">
        <ele>1095.4</ele>
        <time>2025-10-05T09:34:09Z</time>
      </trkpt>
      <trkpt lat="43.33475" lon="5.78816">
        <ele>1095.6</ele>
        <time>2025-10-05T09:34:10Z</time>
      </trkpt>
      <trkpt lat="43.33475" lon="5.78816">
        <ele>1095.4</ele>
        <time>2025-10-05T09:34:11Z</time>
      </trkpt>
      <trkpt lat="43.33474" lon="5.78816">
        <ele>1095.6</ele>
        <time>2025-10-05T09:34:12Z</time>
      </trkpt>
      <trkpt lat="43.33474" lon="5.78816">
        <ele>1095.8</ele>
        <time>2025-10-05T09:34:13Z</time>
      </trkpt>
      <trkpt lat="43.33473" lon="5.78816">
        <ele>1097.1</ele>
        <time>2025-10-05T09:34:14Z</time>
      </trkpt>
      <trkpt lat="43.33473" lon="5.78816">
        <ele>1097.7</ele>
        <time>2025-10-05T09:34:15Z</time>
      </trkpt>
      <trkpt lat="43.33473" lon="5.78815">
        <ele>1098.1</ele>
        <time>2025-10-05T09:34:16Z</time>
      </trkpt>
      <trkpt lat="43.33473" lon="5.78814">
        <ele>1099</ele>
        <time>2025-10-05T09:34:17Z</time>
      </trkpt>
      <trkpt lat="43.33474" lon="5.78813">
        <ele>1100</ele>
        <time>2025-10-05T09:34:18Z</time>
      </trkpt>
      <trkpt lat="43.33474" lon="5.78814">
        <ele>1100.7</ele>
        <time>2025-10-05T09:34:19Z</time>
      </trkpt>
      <trkpt lat="43.33474" lon="5.78814">
        <ele>1100.7</ele>
        <time>2025-10-05T09:34:20Z</time>
      </trkpt>
      <trkpt lat="43.33474" lon="5.78814">
        <ele>1100.6</ele>
        <time>2025-10-05T09:34:21Z</time>
      </trkpt>
      <trkpt lat="43.33474" lon="5.78813">
        <ele>1100.6</ele>
        <time>2025-10-05T09:34:22Z</time>
      </trkpt>
      <trkpt lat="43.33474" lon="5.78813">
        <ele>1100.7</ele>
        <time>2025-10-05T09:34:23Z</time>
      </trkpt>
      <trkpt lat="43.33475" lon="5.78814">
        <ele>1100.9</ele>
        <time>2025-10-05T09:34:24Z</time>
      </trkpt>
      <trkpt lat="43.33475" lon="5.78814">
        <ele>1101.3</ele>
        <time>2025-10-05T09:34:25Z</time>
      </trkpt>
      <trkpt lat="43.33475" lon="5.78814">
        <ele>1100.7</ele>
        <time>2025-10-05T09:34:26Z</time>
      </trkpt>
      <trkpt lat="43.33475" lon="5.78814">
        <ele>1100.4</ele>
        <time>2025-10-05T09:34:27Z</time>
      </trkpt>
      <trkpt lat="43.33475" lon="5.78815">
        <ele>1100.3</ele>
        <time>2025-10-05T09:34:28Z</time>
      </trkpt>
      <trkpt lat="43.33475" lon="5.78816">
        <ele>1100.3</ele>
        <time>2025-10-05T09:34:29Z</time>
      </trkpt>
      <trkpt lat="43.33475" lon="5.78816">
        <ele>1100.6</ele>
        <time>2025-10-05T09:34:30Z</time>
      </trkpt>
      <trkpt lat="43.33475" lon="5.78816">
        <ele>1100.6</ele>
        <time>2025-10-05T09:34:31Z</time>
      </trkpt>
      <trkpt lat="43.33474" lon="5.78816">
        <ele>1100.8</ele>
        <time>2025-10-05T09:34:32Z</time>
      </trkpt>
      <trkpt lat="43.33474" lon="5.78816">
        <ele>1100.9</ele>
        <time>2025-10-05T09:34:33Z</time>
      </trkpt>
      <trkpt lat="43.33475" lon="5.78816">
        <ele>1101</ele>
        <time>2025-10-05T09:34:34Z</time>
      </trkpt>
      <trkpt lat="43.33475" lon="5.78816">
        <ele>1101.1</ele>
        <time>2025-10-05T09:34:35Z</time>
      </trkpt>
      <trkpt lat="43.33475" lon="5.78816">
        <ele>1101.3</ele>
        <time>2025-10-05T09:34:36Z</time>
      </trkpt>
      <trkpt lat="43.33475" lon="5.78815">
        <ele>1101.7</ele>
        <time>2025-10-05T09:34:37Z</time>
      </trkpt>
      <trkpt lat="43.33475" lon="5.78815">
        <ele>1101.8</ele>
        <time>2025-10-05T09:34:38Z</time>
      </trkpt>
      <trkpt lat="43.33475" lon="5.78815">
        <ele>1102</ele>
        <time>2025-10-05T09:34:39Z</time>
      </trkpt>
      <trkpt lat="43.33475" lon="5.78815">
        <ele>1102.1</ele>
        <time>2025-10-05T09:34:40Z</time>
      </trkpt>
      <trkpt lat="43.33475" lon="5.78816">
        <ele>1102.3</ele>
        <time>2025-10-05T09:34:41Z</time>
      </trkpt>
      <trkpt lat="43.33475" lon="5.78817">
        <ele>1102.4</ele>
        <time>2025-10-05T09:34:42Z</time>
      </trkpt>
      <trkpt lat="43.33475" lon="5.78817">
        <ele>1102.3</ele>
        <time>2025-10-05T09:34:43Z</time>
      </trkpt>
      <trkpt lat="43.33474" lon="5.78817">
        <ele>1103</ele>
        <time>2025-10-05T09:34:44Z</time>
      </trkpt>
      <trkpt lat="43.33474" lon="5.78818">
        <ele>1103.5</ele>
        <time>2025-10-05T09:34:45Z</time>
      </trkpt>
      <trkpt lat="43.33474" lon="5.78818">
        <ele>1103.8</ele>
        <time>2025-10-05T09:34:46Z</time>
      </trkpt>
      <trkpt lat="43.33474" lon="5.78818">
        <ele>1104.4</ele>
        <time>2025-10-05T09:34:47Z</time>
      </trkpt>
      <trkpt lat="43.33474" lon="5.78818">
        <ele>1104.3</ele>
        <time>2025-10-05T09:34:48Z</time>
      </trkpt>
      <trkpt lat="43.33474" lon="5.78818">
        <ele>1104.4</ele>
        <time>2025-10-05T09:34:49Z</time>
      </trkpt>
      <trkpt lat="43.33473" lon="5.78817">
        <ele>1104.8</ele>
        <time>2025-10-05T09:34:50Z</time>
      </trkpt>
      <trkpt lat="43.33473" lon="5.78817">
        <ele>1104.3</ele>
        <time>2025-10-05T09:34:51Z</time>
      </trkpt>
      <trkpt lat="43.33472" lon="5.78817">
        <ele>1103.7</ele>
        <time>2025-10-05T09:34:52Z</time>
      </trkpt>
      <trkpt lat="43.33472" lon="5.78817">
        <ele>1103.2</ele>
        <time>2025-10-05T09:34:53Z</time>
      </trkpt>
      <trkpt lat="43.33472" lon="5.78817">
        <ele>1102.8</ele>
        <time>2025-10-05T09:34:54Z</time>
      </trkpt>
      <trkpt lat="43.33473" lon="5.78817">
        <ele>1102.5</ele>
        <time>2025-10-05T09:34:55Z</time>
      </trkpt>
      <trkpt lat="43.33472" lon="5.78816">
        <ele>1102.3</ele>
        <time>2025-10-05T09:34:56Z</time>
      </trkpt>
      <trkpt lat="43.33473" lon="5.78816">
        <ele>1101.9</ele>
        <time>2025-10-05T09:34:57Z</time>
      </trkpt>
      <trkpt lat="43.33472" lon="5.78817">
        <ele>1101.6</ele>
        <time>2025-10-05T09:34:58Z</time>
      </trkpt>
      <trkpt lat="43.33472" lon="5.78817">
        <ele>1101.3</ele>
        <time>2025-10-05T09:34:59Z</time>
      </trkpt>
      <trkpt lat="43.33472" lon="5.78816">
        <ele>1101.1</ele>
        <time>2025-10-05T09:35:00Z</time>
      </trkpt>
      <trkpt lat="43.33472" lon="5.78816">
        <ele>1101</ele>
        <time>2025-10-05T09:35:01Z</time>
      </trkpt>
      <trkpt lat="43.33472" lon="5.78816">
        <ele>1100.9</ele>
        <time>2025-10-05T09:35:02Z</time>
      </trkpt>
      <trkpt lat="43.33472" lon="5.78816">
        <ele>1101</ele>
        <time>2025-10-05T09:35:03Z</time>
      </trkpt>
      <trkpt lat="43.33472" lon="5.78816">
        <ele>1101.6</ele>
        <time>2025-10-05T09:35:04Z</time>
      </trkpt>
      <trkpt lat="43.33472" lon="5.78816">
        <ele>1102.4</ele>
        <time>2025-10-05T09:35:05Z</time>
      </trkpt>
      <trkpt lat="43.33472" lon="5.78815">
        <ele>1103.3</ele>
        <time>2025-10-05T09:35:06Z</time>
      </trkpt>
      <trkpt lat="43.33472" lon="5.78815">
        <ele>1103.9</ele>
        <time>2025-10-05T09:35:07Z</time>
      </trkpt>
      <trkpt lat="43.33472" lon="5.78815">
        <ele>1104.2</ele>
        <time>2025-10-05T09:35:08Z</time>
      </trkpt>
      <trkpt lat="43.33472" lon="5.78815">
        <ele>1104</ele>
        <time>2025-10-05T09:35:09Z</time>
      </trkpt>
      <trkpt lat="43.33472" lon="5.78815">
        <ele>1103.8</ele>
        <time>2025-10-05T09:35:10Z</time>
      </trkpt>
      <trkpt lat="43.33472" lon="5.78815">
        <ele>1103.8</ele>
        <time>2025-10-05T09:35:11Z</time>
      </trkpt>
      <trkpt lat="43.33473" lon="5.78815">
        <ele>1104.3</ele>
        <time>2025-10-05T09:35:12Z</time>
      </trkpt>
      <trkpt lat="43.33472" lon="5.78815">
        <ele>1104.7</ele>
        <time>2025-10-05T09:35:13Z</time>
      </trkpt>
      <trkpt lat="43.33473" lon="5.78815">
        <ele>1104.7</ele>
        <time>2025-10-05T09:35:14Z</time>
      </trkpt>
      <trkpt lat="43.33473" lon="5.78815">
        <ele>1104.7</ele>
        <time>2025-10-05T09:35:15Z</time>
      </trkpt>
      <trkpt lat="43.33473" lon="5.78815">
        <ele>1105</ele>
        <time>2025-10-05T09:35:16Z</time>
      </trkpt>
      <trkpt lat="43.33473" lon="5.78815">
        <ele>1105.5</ele>
        <time>2025-10-05T09:35:17Z</time>
      </trkpt>
      <trkpt lat="43.33472" lon="5.78815">
        <ele>1105.4</ele>
        <time>2025-10-05T09:35:18Z</time>
      </trkpt>
      <trkpt lat="43.33472" lon="5.78815">
        <ele>1105.7</ele>
        <time>2025-10-05T09:35:19Z</time>
      </trkpt>
      <trkpt lat="43.33472" lon="5.78815">
        <ele>1105.9</ele>
        <time>2025-10-05T09:35:20Z</time>
      </trkpt>
      <trkpt lat="43.33472" lon="5.78815">
        <ele>1106.1</ele>
        <time>2025-10-05T09:35:21Z</time>
      </trkpt>
      <trkpt lat="43.33472" lon="5.78815">
        <ele>1106.7</ele>
        <time>2025-10-05T09:35:22Z</time>
      </trkpt>
      <trkpt lat="43.33472" lon="5.78814">
        <ele>1107</ele>
        <time>2025-10-05T09:35:23Z</time>
      </trkpt>
      <trkpt lat="43.33471" lon="5.78814">
        <ele>1107.2</ele>
        <time>2025-10-05T09:35:24Z</time>
      </trkpt>
      <trkpt lat="43.33472" lon="5.78814">
        <ele>1107.2</ele>
        <time>2025-10-05T09:35:25Z</time>
      </trkpt>
      <trkpt lat="43.33472" lon="5.78814">
        <ele>1106.5</ele>
        <time>2025-10-05T09:35:26Z</time>
      </trkpt>
      <trkpt lat="43.33472" lon="5.78813">
        <ele>1105.9</ele>
        <time>2025-10-05T09:35:27Z</time>
      </trkpt>
      <trkpt lat="43.33472" lon="5.78813">
        <ele>1105.4</ele>
        <time>2025-10-05T09:35:28Z</time>
      </trkpt>
      <trkpt lat="43.33471" lon="5.78813">
        <ele>1104.9</ele>
        <time>2025-10-05T09:35:29Z</time>
      </trkpt>
      <trkpt lat="43.33471" lon="5.78814">
        <ele>1104.3</ele>
        <time>2025-10-05T09:35:30Z</time>
      </trkpt>
      <trkpt lat="43.33471" lon="5.78814">
        <ele>1103.7</ele>
        <time>2025-10-05T09:35:31Z</time>
      </trkpt>
      <trkpt lat="43.33471" lon="5.78814">
        <ele>1103.4</ele>
        <time>2025-10-05T09:35:32Z</time>
      </trkpt>
      <trkpt lat="43.33471" lon="5.78814">
        <ele>1103.1</ele>
        <time>2025-10-05T09:35:33Z</time>
      </trkpt>
      <trkpt lat="43.33471" lon="5.78813">
        <ele>1103</ele>
        <time>2025-10-05T09:35:34Z</time>
      </trkpt>
      <trkpt lat="43.33471" lon="5.78814">
        <ele>1102.7</ele>
        <time>2025-10-05T09:35:35Z</time>
      </trkpt>
      <trkpt lat="43.33471" lon="5.78814">
        <ele>1102.5</ele>
        <time>2025-10-05T09:35:36Z</time>
      </trkpt>
      <trkpt lat="43.33471" lon="5.78815">
        <ele>1102.3</ele>
        <time>2025-10-05T09:35:37Z</time>
      </trkpt>
      <trkpt lat="43.33471" lon="5.78814">
        <ele>1102</ele>
        <time>2025-10-05T09:35:38Z</time>
      </trkpt>
      <trkpt lat="43.33471" lon="5.78814">
        <ele>1101.7</ele>
        <time>2025-10-05T09:35:39Z</time>
      </trkpt>
      <trkpt lat="43.33471" lon="5.78815">
        <ele>1101.7</ele>
        <time>2025-10-05T09:35:40Z</time>
      </trkpt>
      <trkpt lat="43.33472" lon="5.78815">
        <ele>1101.3</ele>
        <time>2025-10-05T09:35:41Z</time>
      </trkpt>
      <trkpt lat="43.33472" lon="5.78815">
        <ele>1100.8</ele>
        <time>2025-10-05T09:35:42Z</time>
      </trkpt>
      <trkpt lat="43.33472" lon="5.78816">
        <ele>1100.6</ele>
        <time>2025-10-05T09:35:43Z</time>
      </trkpt>
      <trkpt lat="43.33472" lon="5.78815">
        <ele>1100.5</ele>
        <time>2025-10-05T09:35:44Z</time>
      </trkpt>
      <trkpt lat="43.33472" lon="5.78816">
        <ele>1100.4</ele>
        <time>2025-10-05T09:35:45Z</time>
      </trkpt>
      <trkpt lat="43.33472" lon="5.78816">
        <ele>1100.9</ele>
        <time>2025-10-05T09:35:46Z</time>
      </trkpt>
      <trkpt lat="43.33472" lon="5.78816">
        <ele>1101.5</ele>
        <time>2025-10-05T09:35:47Z</time>
      </trkpt>
      <trkpt lat="43.33472" lon="5.78816">
        <ele>1102</ele>
        <time>2025-10-05T09:35:48Z</time>
      </trkpt>
      <trkpt lat="43.33471" lon="5.78816">
        <ele>1102</ele>
        <time>2025-10-05T09:35:49Z</time>
      </trkpt>
      <trkpt lat="43.33472" lon="5.78815">
        <ele>1102</ele>
        <time>2025-10-05T09:35:50Z</time>
      </trkpt>
      <trkpt lat="43.33472" lon="5.78815">
        <ele>1102.4</ele>
        <time>2025-10-05T09:35:51Z</time>
      </trkpt>
      <trkpt lat="43.33473" lon="5.78815">
        <ele>1102.6</ele>
        <time>2025-10-05T09:35:52Z</time>
      </trkpt>
      <trkpt lat="43.33473" lon="5.78815">
        <ele>1102.5</ele>
        <time>2025-10-05T09:35:53Z</time>
      </trkpt>
      <trkpt lat="43.33473" lon="5.78815">
        <ele>1102.6</ele>
        <time>2025-10-05T09:35:54Z</time>
      </trkpt>
      <trkpt lat="43.33473" lon="5.78815">
        <ele>1102.5</ele>
        <time>2025-10-05T09:35:55Z</time>
      </trkpt>
      <trkpt lat="43.33474" lon="5.78815">
        <ele>1102.1</ele>
        <time>2025-10-05T09:35:56Z</time>
      </trkpt>
      <trkpt lat="43.33474" lon="5.78815">
        <ele>1102.2</ele>
        <time>2025-10-05T09:35:57Z</time>
      </trkpt>
      <trkpt lat="43.33474" lon="5.78815">
        <ele>1101.7</ele>
        <time>2025-10-05T09:35:58Z</time>
      </trkpt>
      <trkpt lat="43.33474" lon="5.78814">
        <ele>1101.4</ele>
        <time>2025-10-05T09:35:59Z</time>
      </trkpt>
      <trkpt lat="43.33474" lon="5.78814">
        <ele>1101.3</ele>
        <time>2025-10-05T09:36:00Z</time>
      </trkpt>
      <trkpt lat="43.33475" lon="5.78813">
        <ele>1101.3</ele>
        <time>2025-10-05T09:36:01Z</time>
      </trkpt>
      <trkpt lat="43.33475" lon="5.78813">
        <ele>1101.4</ele>
        <time>2025-10-05T09:36:02Z</time>
      </trkpt>
      <trkpt lat="43.33475" lon="5.78813">
        <ele>1101.5</ele>
        <time>2025-10-05T09:36:03Z</time>
      </trkpt>
      <trkpt lat="43.33476" lon="5.78813">
        <ele>1101.6</ele>
        <time>2025-10-05T09:36:04Z</time>
      </trkpt>
      <trkpt lat="43.33476" lon="5.78813">
        <ele>1101.6</ele>
        <time>2025-10-05T09:36:05Z</time>
      </trkpt>
      <trkpt lat="43.33476" lon="5.78813">
        <ele>1102</ele>
        <time>2025-10-05T09:36:06Z</time>
      </trkpt>
      <trkpt lat="43.33476" lon="5.78813">
        <ele>1102.1</ele>
        <time>2025-10-05T09:36:07Z</time>
      </trkpt>
      <trkpt lat="43.33476" lon="5.78813">
        <ele>1102</ele>
        <time>2025-10-05T09:36:08Z</time>
      </trkpt>
      <trkpt lat="43.33477" lon="5.78813">
        <ele>1101.9</ele>
        <time>2025-10-05T09:36:09Z</time>
      </trkpt>
      <trkpt lat="43.33475" lon="5.78813">
        <ele>1102</ele>
        <time>2025-10-05T09:36:10Z</time>
      </trkpt>
      <trkpt lat="43.33475" lon="5.78813">
        <ele>1101.9</ele>
        <time>2025-10-05T09:36:11Z</time>
      </trkpt>
      <trkpt lat="43.33476" lon="5.78814">
        <ele>1101.9</ele>
        <time>2025-10-05T09:36:12Z</time>
      </trkpt>
      <trkpt lat="43.33475" lon="5.78814">
        <ele>1101.8</ele>
        <time>2025-10-05T09:36:13Z</time>
      </trkpt>
      <trkpt lat="43.33475" lon="5.78815">
        <ele>1102</ele>
        <time>2025-10-05T09:36:14Z</time>
      </trkpt>
      <trkpt lat="43.33475" lon="5.78816">
        <ele>1101.9</ele>
        <time>2025-10-05T09:36:15Z</time>
      </trkpt>
      <trkpt lat="43.33475" lon="5.78815">
        <ele>1101.9</ele>
        <time>2025-10-05T09:36:16Z</time>
      </trkpt>
      <trkpt lat="43.33475" lon="5.78815">
        <ele>1101.7</ele>
        <time>2025-10-05T09:36:17Z</time>
      </trkpt>
      <trkpt lat="43.33475" lon="5.78815">
        <ele>1101.9</ele>
        <time>2025-10-05T09:36:18Z</time>
      </trkpt>
      <trkpt lat="43.33475" lon="5.78815">
        <ele>1102</ele>
        <time>2025-10-05T09:36:19Z</time>
      </trkpt>
      <trkpt lat="43.33476" lon="5.78815">
        <ele>1102.1</ele>
        <time>2025-10-05T09:36:20Z</time>
      </trkpt>
      <trkpt lat="43.33475" lon="5.78815">
        <ele>1102.8</ele>
        <time>2025-10-05T09:36:21Z</time>
      </trkpt>
      <trkpt lat="43.33475" lon="5.78815">
        <ele>1102.4</ele>
        <time>2025-10-05T09:36:22Z</time>
      </trkpt>
      <trkpt lat="43.33475" lon="5.78815">
        <ele>1102.5</ele>
        <time>2025-10-05T09:36:23Z</time>
      </trkpt>
      <trkpt lat="43.33475" lon="5.78815">
        <ele>1102.9</ele>
        <time>2025-10-05T09:36:24Z</time>
      </trkpt>
      <trkpt lat="43.33475" lon="5.78814">
        <ele>1103.4</ele>
        <time>2025-10-05T09:36:25Z</time>
      </trkpt>
      <trkpt lat="43.33474" lon="5.78814">
        <ele>1103.5</ele>
        <time>2025-10-05T09:36:26Z</time>
      </trkpt>
      <trkpt lat="43.33474" lon="5.78814">
        <ele>1103.4</ele>
        <time>2025-10-05T09:36:27Z</time>
      </trkpt>
      <trkpt lat="43.33474" lon="5.78814">
        <ele>1103.2</ele>
        <time>2025-10-05T09:36:28Z</time>
      </trkpt>
      <trkpt lat="43.33473" lon="5.78814">
        <ele>1103</ele>
        <time>2025-10-05T09:36:29Z</time>
      </trkpt>
      <trkpt lat="43.33473" lon="5.78814">
        <ele>1103.3</ele>
        <time>2025-10-05T09:36:30Z</time>
      </trkpt>
      <trkpt lat="43.33472" lon="5.78814">
        <ele>1103.2</ele>
        <time>2025-10-05T09:36:31Z</time>
      </trkpt>
      <trkpt lat="43.33472" lon="5.78814">
        <ele>1103.3</ele>
        <time>2025-10-05T09:36:32Z</time>
      </trkpt>
      <trkpt lat="43.33472" lon="5.78815">
        <ele>1103</ele>
        <time>2025-10-05T09:36:33Z</time>
      </trkpt>
      <trkpt lat="43.33472" lon="5.78814">
        <ele>1102.8</ele>
        <time>2025-10-05T09:36:34Z</time>
      </trkpt>
      <trkpt lat="43.33472" lon="5.78814">
        <ele>1102.6</ele>
        <time>2025-10-05T09:36:35Z</time>
      </trkpt>
      <trkpt lat="43.33472" lon="5.78813">
        <ele>1102.6</ele>
        <time>2025-10-05T09:36:36Z</time>
      </trkpt>
      <trkpt lat="43.33473" lon="5.78813">
        <ele>1102.5</ele>
        <time>2025-10-05T09:36:37Z</time>
      </trkpt>
      <trkpt lat="43.33473" lon="5.78812">
        <ele>1102.9</ele>
        <time>2025-10-05T09:36:38Z</time>
      </trkpt>
      <trkpt lat="43.33473" lon="5.78812">
        <ele>1103.3</ele>
        <time>2025-10-05T09:36:39Z</time>
      </trkpt>
      <trkpt lat="43.33473" lon="5.78812">
        <ele>1102.9</ele>
        <time>2025-10-05T09:36:40Z</time>
      </trkpt>
      <trkpt lat="43.33473" lon="5.78812">
        <ele>1102.4</ele>
        <time>2025-10-05T09:36:41Z</time>
      </trkpt>
      <trkpt lat="43.33473" lon="5.78812">
        <ele>1102.1</ele>
        <time>2025-10-05T09:36:42Z</time>
      </trkpt>
      <trkpt lat="43.33473" lon="5.78812">
        <ele>1102</ele>
        <time>2025-10-05T09:36:43Z</time>
      </trkpt>
      <trkpt lat="43.33473" lon="5.78812">
        <ele>1101.8</ele>
        <time>2025-10-05T09:36:44Z</time>
      </trkpt>
      <trkpt lat="43.33474" lon="5.78812">
        <ele>1101.6</ele>
        <time>2025-10-05T09:36:45Z</time>
      </trkpt>
      <trkpt lat="43.33474" lon="5.78813">
        <ele>1101.8</ele>
        <time>2025-10-05T09:36:46Z</time>
      </trkpt>
      <trkpt lat="43.33473" lon="5.78813">
        <ele>1101.9</ele>
        <time>2025-10-05T09:36:47Z</time>
      </trkpt>
      <trkpt lat="43.33474" lon="5.78813">
        <ele>1101.8</ele>
        <time>2025-10-05T09:36:48Z</time>
      </trkpt>
      <trkpt lat="43.33474" lon="5.78813">
        <ele>1102.1</ele>
        <time>2025-10-05T09:36:49Z</time>
      </trkpt>
      <trkpt lat="43.33473" lon="5.78813">
        <ele>1101.7</ele>
        <time>2025-10-05T09:36:50Z</time>
      </trkpt>
      <trkpt lat="43.33474" lon="5.78813">
        <ele>1102</ele>
        <time>2025-10-05T09:36:51Z</time>
      </trkpt>
      <trkpt lat="43.33474" lon="5.78812">
        <ele>1102.1</ele>
        <time>2025-10-05T09:36:52Z</time>
      </trkpt>
      <trkpt lat="43.33474" lon="5.78813">
        <ele>1102.1</ele>
        <time>2025-10-05T09:36:53Z</time>
      </trkpt>
      <trkpt lat="43.33475" lon="5.78813">
        <ele>1102.4</ele>
        <time>2025-10-05T09:36:54Z</time>
      </trkpt>
      <trkpt lat="43.33474" lon="5.78813">
        <ele>1102.4</ele>
        <time>2025-10-05T09:36:55Z</time>
      </trkpt>
      <trkpt lat="43.33475" lon="5.78812">
        <ele>1102.1</ele>
        <time>2025-10-05T09:36:56Z</time>
      </trkpt>
      <trkpt lat="43.33475" lon="5.78813">
        <ele>1102.8</ele>
        <time>2025-10-05T09:36:57Z</time>
      </trkpt>
      <trkpt lat="43.33475" lon="5.78813">
        <ele>1103</ele>
        <time>2025-10-05T09:36:58Z</time>
      </trkpt>
      <trkpt lat="43.33476" lon="5.78813">
        <ele>1103.5</ele>
        <time>2025-10-05T09:36:59Z</time>
      </trkpt>
      <trkpt lat="43.33475" lon="5.78812">
        <ele>1103.6</ele>
        <time>2025-10-05T09:37:00Z</time>
      </trkpt>
      <trkpt lat="43.33475" lon="5.78812">
        <ele>1103.5</ele>
        <time>2025-10-05T09:37:01Z</time>
      </trkpt>
      <trkpt lat="43.33475" lon="5.78812">
        <ele>1103.6</ele>
        <time>2025-10-05T09:37:02Z</time>
      </trkpt>
      <trkpt lat="43.33475" lon="5.78812">
        <ele>1103.4</ele>
        <time>2025-10-05T09:37:03Z</time>
      </trkpt>
      <trkpt lat="43.33474" lon="5.78812">
        <ele>1102.8</ele>
        <time>2025-10-05T09:37:04Z</time>
      </trkpt>
      <trkpt lat="43.33474" lon="5.78812">
        <ele>1102.3</ele>
        <time>2025-10-05T09:37:05Z</time>
      </trkpt>
      <trkpt lat="43.33473" lon="5.78812">
        <ele>1103.2</ele>
        <time>2025-10-05T09:37:06Z</time>
      </trkpt>
      <trkpt lat="43.33472" lon="5.78812">
        <ele>1103.4</ele>
        <time>2025-10-05T09:37:07Z</time>
      </trkpt>
      <trkpt lat="43.33472" lon="5.78812">
        <ele>1103.2</ele>
        <time>2025-10-05T09:37:08Z</time>
      </trkpt>
      <trkpt lat="43.33472" lon="5.78812">
        <ele>1103.4</ele>
        <time>2025-10-05T09:37:09Z</time>
      </trkpt>
      <trkpt lat="43.33472" lon="5.78812">
        <ele>1103.9</ele>
        <time>2025-10-05T09:37:10Z</time>
      </trkpt>
      <trkpt lat="43.33472" lon="5.78812">
        <ele>1103.8</ele>
        <time>2025-10-05T09:37:11Z</time>
      </trkpt>
      <trkpt lat="43.33472" lon="5.78812">
        <ele>1104.1</ele>
        <time>2025-10-05T09:37:12Z</time>
      </trkpt>
      <trkpt lat="43.33472" lon="5.78812">
        <ele>1104.3</ele>
        <time>2025-10-05T09:37:13Z</time>
      </trkpt>
      <trkpt lat="43.33472" lon="5.78812">
        <ele>1104.5</ele>
        <time>2025-10-05T09:37:14Z</time>
      </trkpt>
      <trkpt lat="43.33472" lon="5.78812">
        <ele>1104.8</ele>
        <time>2025-10-05T09:37:15Z</time>
      </trkpt>
      <trkpt lat="43.33472" lon="5.78812">
        <ele>1105.1</ele>
        <time>2025-10-05T09:37:16Z</time>
      </trkpt>
      <trkpt lat="43.33471" lon="5.78811">
        <ele>1105.4</ele>
        <time>2025-10-05T09:37:17Z</time>
      </trkpt>
      <trkpt lat="43.33471" lon="5.78811">
        <ele>1105.9</ele>
        <time>2025-10-05T09:37:18Z</time>
      </trkpt>
      <trkpt lat="43.33471" lon="5.78811">
        <ele>1105.7</ele>
        <time>2025-10-05T09:37:19Z</time>
      </trkpt>
      <trkpt lat="43.33471" lon="5.78812">
        <ele>1106.2</ele>
        <time>2025-10-05T09:37:20Z</time>
      </trkpt>
      <trkpt lat="43.33471" lon="5.78812">
        <ele>1106.2</ele>
        <time>2025-10-05T09:37:21Z</time>
      </trkpt>
      <trkpt lat="43.33471" lon="5.78812">
        <ele>1106.1</ele>
        <time>2025-10-05T09:37:22Z</time>
      </trkpt>
      <trkpt lat="43.33471" lon="5.78812">
        <ele>1106.3</ele>
        <time>2025-10-05T09:37:23Z</time>
      </trkpt>
      <trkpt lat="43.33471" lon="5.78813">
        <ele>1105.8</ele>
        <time>2025-10-05T09:37:24Z</time>
      </trkpt>
      <trkpt lat="43.33471" lon="5.78813">
        <ele>1106.7</ele>
        <time>2025-10-05T09:37:25Z</time>
      </trkpt>
      <trkpt lat="43.33471" lon="5.78813">
        <ele>1106.9</ele>
        <time>2025-10-05T09:37:26Z</time>
      </trkpt>
      <trkpt lat="43.33471" lon="5.78813">
        <ele>1106.7</ele>
        <time>2025-10-05T09:37:27Z</time>
      </trkpt>
      <trkpt lat="43.33471" lon="5.78813">
        <ele>1105.9</ele>
        <time>2025-10-05T09:37:28Z</time>
      </trkpt>
      <trkpt lat="43.33471" lon="5.78813">
        <ele>1105.8</ele>
        <time>2025-10-05T09:37:29Z</time>
      </trkpt>
      <trkpt lat="43.33471" lon="5.78813">
        <ele>1105.6</ele>
        <time>2025-10-05T09:37:30Z</time>
      </trkpt>
      <trkpt lat="43.33471" lon="5.78813">
        <ele>1104.7</ele>
        <time>2025-10-05T09:37:31Z</time>
      </trkpt>
      <trkpt lat="43.33471" lon="5.78812">
        <ele>1104.5</ele>
        <time>2025-10-05T09:37:32Z</time>
      </trkpt>
      <trkpt lat="43.33471" lon="5.78813">
        <ele>1104.7</ele>
        <time>2025-10-05T09:37:33Z</time>
      </trkpt>
      <trkpt lat="43.3347" lon="5.78813">
        <ele>1104.7</ele>
        <time>2025-10-05T09:37:34Z</time>
      </trkpt>
      <trkpt lat="43.33471" lon="5.78813">
        <ele>1104.9</ele>
        <time>2025-10-05T09:37:35Z</time>
      </trkpt>
      <trkpt lat="43.33471" lon="5.78813">
        <ele>1104.9</ele>
        <time>2025-10-05T09:37:36Z</time>
      </trkpt>
      <trkpt lat="43.33471" lon="5.78813">
        <ele>1104.8</ele>
        <time>2025-10-05T09:37:37Z</time>
      </trkpt>
      <trkpt lat="43.33471" lon="5.78814">
        <ele>1104.8</ele>
        <time>2025-10-05T09:37:38Z</time>
      </trkpt>
      <trkpt lat="43.33471" lon="5.78814">
        <ele>1104.7</ele>
        <time>2025-10-05T09:37:39Z</time>
      </trkpt>
      <trkpt lat="43.33471" lon="5.78814">
        <ele>1104.7</ele>
        <time>2025-10-05T09:37:40Z</time>
      </trkpt>
      <trkpt lat="43.33471" lon="5.78814">
        <ele>1104.8</ele>
        <time>2025-10-05T09:37:41Z</time>
      </trkpt>
      <trkpt lat="43.33471" lon="5.78814">
        <ele>1104.8</ele>
        <time>2025-10-05T09:37:42Z</time>
      </trkpt>
      <trkpt lat="43.33471" lon="5.78814">
        <ele>1104.9</ele>
        <time>2025-10-05T09:37:43Z</time>
      </trkpt>
      <trkpt lat="43.3347" lon="5.78814">
        <ele>1104.5</ele>
        <time>2025-10-05T09:37:44Z</time>
      </trkpt>
      <trkpt lat="43.3347" lon="5.78814">
        <ele>1104.6</ele>
        <time>2025-10-05T09:37:45Z</time>
      </trkpt>
      <trkpt lat="43.3347" lon="5.78814">
        <ele>1104.8</ele>
        <time>2025-10-05T09:37:46Z</time>
      </trkpt>
      <trkpt lat="43.3347" lon="5.78814">
        <ele>1105.2</ele>
        <time>2025-10-05T09:37:47Z</time>
      </trkpt>
      <trkpt lat="43.3347" lon="5.78814">
        <ele>1105</ele>
        <time>2025-10-05T09:37:48Z</time>
      </trkpt>
      <trkpt lat="43.3347" lon="5.78814">
        <ele>1104.9</ele>
        <time>2025-10-05T09:37:49Z</time>
      </trkpt>
      <trkpt lat="43.3347" lon="5.78813">
        <ele>1104.8</ele>
        <time>2025-10-05T09:37:50Z</time>
      </trkpt>
      <trkpt lat="43.3347" lon="5.78813">
        <ele>1104.7</ele>
        <time>2025-10-05T09:37:51Z</time>
      </trkpt>
      <trkpt lat="43.3347" lon="5.78813">
        <ele>1104.8</ele>
        <time>2025-10-05T09:37:52Z</time>
      </trkpt>
      <trkpt lat="43.3347" lon="5.78814">
        <ele>1104.6</ele>
        <time>2025-10-05T09:37:53Z</time>
      </trkpt>
      <trkpt lat="43.3347" lon="5.78814">
        <ele>1104.5</ele>
        <time>2025-10-05T09:37:54Z</time>
      </trkpt>
      <trkpt lat="43.3347" lon="5.78814">
        <ele>1104.5</ele>
        <time>2025-10-05T09:37:55Z</time>
      </trkpt>
      <trkpt lat="43.3347" lon="5.78814">
        <ele>1104.6</ele>
        <time>2025-10-05T09:37:56Z</time>
      </trkpt>
      <trkpt lat="43.3347" lon="5.78814">
        <ele>1104.9</ele>
        <time>2025-10-05T09:37:57Z</time>
      </trkpt>
      <trkpt lat="43.3347" lon="5.78814">
        <ele>1104.8</ele>
        <time>2025-10-05T09:37:58Z</time>
      </trkpt>
      <trkpt lat="43.3347" lon="5.78814">
        <ele>1104.9</ele>
        <time>2025-10-05T09:37:59Z</time>
      </trkpt>
      <trkpt lat="43.3347" lon="5.78814">
        <ele>1104.8</ele>
        <time>2025-10-05T09:38:00Z</time>
      </trkpt>
      <trkpt lat="43.3347" lon="5.78815">
        <ele>1104.5</ele>
        <time>2025-10-05T09:38:01Z</time>
      </trkpt>
      <trkpt lat="43.3347" lon="5.78815">
        <ele>1104.3</ele>
        <time>2025-10-05T09:38:02Z</time>
      </trkpt>
      <trkpt lat="43.3347" lon="5.78815">
        <ele>1104.1</ele>
        <time>2025-10-05T09:38:03Z</time>
      </trkpt>
      <trkpt lat="43.3347" lon="5.78815">
        <ele>1104.4</ele>
        <time>2025-10-05T09:38:04Z</time>
      </trkpt>
      <trkpt lat="43.3347" lon="5.78815">
        <ele>1104.5</ele>
        <time>2025-10-05T09:38:05Z</time>
      </trkpt>
      <trkpt lat="43.33469" lon="5.78814">
        <ele>1104.3</ele>
        <time>2025-10-05T09:38:06Z</time>
      </trkpt>
      <trkpt lat="43.33469" lon="5.78814">
        <ele>1104.4</ele>
        <time>2025-10-05T09:38:07Z</time>
      </trkpt>
      <trkpt lat="43.33469" lon="5.78814">
        <ele>1104.5</ele>
        <time>2025-10-05T09:38:08Z</time>
      </trkpt>
      <trkpt lat="43.33469" lon="5.78814">
        <ele>1104.3</ele>
        <time>2025-10-05T09:38:09Z</time>
      </trkpt>
      <trkpt lat="43.3347" lon="5.78814">
        <ele>1104.2</ele>
        <time>2025-10-05T09:38:10Z</time>
      </trkpt>
      <trkpt lat="43.3347" lon="5.78814">
        <ele>1104.1</ele>
        <time>2025-10-05T09:38:11Z</time>
      </trkpt>
      <trkpt lat="43.3347" lon="5.78814">
        <ele>1104.4</ele>
        <time>2025-10-05T09:38:12Z</time>
      </trkpt>
      <trkpt lat="43.3347" lon="5.78815">
        <ele>1104.2</ele>
        <time>2025-10-05T09:38:13Z</time>
      </trkpt>
      <trkpt lat="43.3347" lon="5.78815">
        <ele>1104.4</ele>
        <time>2025-10-05T09:38:14Z</time>
      </trkpt>
      <trkpt lat="43.3347" lon="5.78815">
        <ele>1104.9</ele>
        <time>2025-10-05T09:38:15Z</time>
      </trkpt>
      <trkpt lat="43.3347" lon="5.78815">
        <ele>1105</ele>
        <time>2025-10-05T09:38:16Z</time>
      </trkpt>
      <trkpt lat="43.3347" lon="5.78815">
        <ele>1105.7</ele>
        <time>2025-10-05T09:38:17Z</time>
      </trkpt>
      <trkpt lat="43.3347" lon="5.78815">
        <ele>1105.8</ele>
        <time>2025-10-05T09:38:18Z</time>
      </trkpt>
      <trkpt lat="43.33469" lon="5.78815">
        <ele>1106</ele>
        <time>2025-10-05T09:38:19Z</time>
      </trkpt>
      <trkpt lat="43.33469" lon="5.78815">
        <ele>1106</ele>
        <time>2025-10-05T09:38:20Z</time>
      </trkpt>
      <trkpt lat="43.33469" lon="5.78815">
        <ele>1106.2</ele>
        <time>2025-10-05T09:38:21Z</time>
      </trkpt>
      <trkpt lat="43.33469" lon="5.78815">
        <ele>1106.8</ele>
        <time>2025-10-05T09:38:22Z</time>
      </trkpt>
      <trkpt lat="43.33469" lon="5.78815">
        <ele>1107</ele>
        <time>2025-10-05T09:38:23Z</time>
      </trkpt>
      <trkpt lat="43.33469" lon="5.78815">
        <ele>1106.8</ele>
        <time>2025-10-05T09:38:24Z</time>
      </trkpt>
      <trkpt lat="43.33469" lon="5.78816">
        <ele>1107.1</ele>
        <time>2025-10-05T09:38:25Z</time>
      </trkpt>
      <trkpt lat="43.33469" lon="5.78816">
        <ele>1107</ele>
        <time>2025-10-05T09:38:26Z</time>
      </trkpt>
      <trkpt lat="43.33469" lon="5.78816">
        <ele>1106.9</ele>
        <time>2025-10-05T09:38:27Z</time>
      </trkpt>
      <trkpt lat="43.33469" lon="5.78816">
        <ele>1106.7</ele>
        <time>2025-10-05T09:38:28Z</time>
      </trkpt>
      <trkpt lat="43.33469" lon="5.78815">
        <ele>1106.3</ele>
        <time>2025-10-05T09:38:29Z</time>
      </trkpt>
      <trkpt lat="43.33469" lon="5.78815">
        <ele>1106.1</ele>
        <time>2025-10-05T09:38:30Z</time>
      </trkpt>
      <trkpt lat="43.33469" lon="5.78815">
        <ele>1105.9</ele>
        <time>2025-10-05T09:38:31Z</time>
      </trkpt>
      <trkpt lat="43.33469" lon="5.78815">
        <ele>1105.9</ele>
        <time>2025-10-05T09:38:32Z</time>
      </trkpt>
      <trkpt lat="43.33468" lon="5.78815">
        <ele>1105.9</ele>
        <time>2025-10-05T09:38:33Z</time>
      </trkpt>
      <trkpt lat="43.33468" lon="5.78815">
        <ele>1105.9</ele>
        <time>2025-10-05T09:38:34Z</time>
      </trkpt>
      <trkpt lat="43.33468" lon="5.78815">
        <ele>1105.8</ele>
        <time>2025-10-05T09:38:35Z</time>
      </trkpt>
      <trkpt lat="43.33468" lon="5.78816">
        <ele>1106</ele>
        <time>2025-10-05T09:38:36Z</time>
      </trkpt>
      <trkpt lat="43.33468" lon="5.78816">
        <ele>1106.7</ele>
        <time>2025-10-05T09:38:37Z</time>
      </trkpt>
      <trkpt lat="43.33468" lon="5.78816">
        <ele>1106.8</ele>
        <time>2025-10-05T09:38:38Z</time>
      </trkpt>
      <trkpt lat="43.33468" lon="5.78816">
        <ele>1106.6</ele>
        <time>2025-10-05T09:38:39Z</time>
      </trkpt>
      <trkpt lat="43.33467" lon="5.78816">
        <ele>1106.9</ele>
        <time>2025-10-05T09:38:40Z</time>
      </trkpt>
      <trkpt lat="43.33467" lon="5.78816">
        <ele>1106.9</ele>
        <time>2025-10-05T09:38:41Z</time>
      </trkpt>
      <trkpt lat="43.33467" lon="5.78815">
        <ele>1106.9</ele>
        <time>2025-10-05T09:38:42Z</time>
      </trkpt>
      <trkpt lat="43.33467" lon="5.78815">
        <ele>1106.9</ele>
        <time>2025-10-05T09:38:43Z</time>
      </trkpt>
      <trkpt lat="43.33467" lon="5.78815">
        <ele>1106.4</ele>
        <time>2025-10-05T09:38:44Z</time>
      </trkpt>
      <trkpt lat="43.33467" lon="5.78815">
        <ele>1106.6</ele>
        <time>2025-10-05T09:38:45Z</time>
      </trkpt>
      <trkpt lat="43.33467" lon="5.78815">
        <ele>1106.4</ele>
        <time>2025-10-05T09:38:46Z</time>
      </trkpt>
      <trkpt lat="43.33467" lon="5.78815">
        <ele>1106.3</ele>
        <time>2025-10-05T09:38:47Z</time>
      </trkpt>
      <trkpt lat="43.33467" lon="5.78815">
        <ele>1106</ele>
        <time>2025-10-05T09:38:48Z</time>
      </trkpt>
      <trkpt lat="43.33467" lon="5.78815">
        <ele>1106</ele>
        <time>2025-10-05T09:38:49Z</time>
      </trkpt>
      <trkpt lat="43.33467" lon="5.78815">
        <ele>1106</ele>
        <time>2025-10-05T09:38:50Z</time>
      </trkpt>
      <trkpt lat="43.33466" lon="5.78815">
        <ele>1106.1</ele>
        <time>2025-10-05T09:38:51Z</time>
      </trkpt>
      <trkpt lat="43.33466" lon="5.78815">
        <ele>1106</ele>
        <time>2025-10-05T09:38:52Z</time>
      </trkpt>
      <trkpt lat="43.33466" lon="5.78815">
        <ele>1105.9</ele>
        <time>2025-10-05T09:38:53Z</time>
      </trkpt>
      <trkpt lat="43.33466" lon="5.78815">
        <ele>1105.8</ele>
        <time>2025-10-05T09:38:54Z</time>
      </trkpt>
      <trkpt lat="43.33466" lon="5.78815">
        <ele>1105.8</ele>
        <time>2025-10-05T09:38:55Z</time>
      </trkpt>
      <trkpt lat="43.33466" lon="5.78815">
        <ele>1105.9</ele>
        <time>2025-10-05T09:38:56Z</time>
      </trkpt>
      <trkpt lat="43.33466" lon="5.78815">
        <ele>1106</ele>
        <time>2025-10-05T09:38:57Z</time>
      </trkpt>
      <trkpt lat="43.33466" lon="5.78816">
        <ele>1106.1</ele>
        <time>2025-10-05T09:38:58Z</time>
      </trkpt>
      <trkpt lat="43.33466" lon="5.78816">
        <ele>1106.1</ele>
        <time>2025-10-05T09:38:59Z</time>
      </trkpt>
      <trkpt lat="43.33466" lon="5.78816">
        <ele>1106.1</ele>
        <time>2025-10-05T09:39:00Z</time>
      </trkpt>
      <trkpt lat="43.33466" lon="5.78816">
        <ele>1106.1</ele>
        <time>2025-10-05T09:39:01Z</time>
      </trkpt>
      <trkpt lat="43.33466" lon="5.78816">
        <ele>1106.1</ele>
        <time>2025-10-05T09:39:02Z</time>
      </trkpt>
      <trkpt lat="43.33466" lon="5.78816">
        <ele>1106.2</ele>
        <time>2025-10-05T09:39:03Z</time>
      </trkpt>
      <trkpt lat="43.33466" lon="5.78816">
        <ele>1105.8</ele>
        <time>2025-10-05T09:39:04Z</time>
      </trkpt>
      <trkpt lat="43.33466" lon="5.78816">
        <ele>1105.8</ele>
        <time>2025-10-05T09:39:05Z</time>
      </trkpt>
      <trkpt lat="43.33466" lon="5.78816">
        <ele>1105.5</ele>
        <time>2025-10-05T09:39:06Z</time>
      </trkpt>
      <trkpt lat="43.33466" lon="5.78816">
        <ele>1105.3</ele>
        <time>2025-10-05T09:39:07Z</time>
      </trkpt>
      <trkpt lat="43.33466" lon="5.78816">
        <ele>1105.1</ele>
        <time>2025-10-05T09:39:08Z</time>
      </trkpt>
      <trkpt lat="43.33466" lon="5.78816">
        <ele>1104.8</ele>
        <time>2025-10-05T09:39:09Z</time>
      </trkpt>
      <trkpt lat="43.33466" lon="5.78817">
        <ele>1104.9</ele>
        <time>2025-10-05T09:39:10Z</time>
      </trkpt>
      <trkpt lat="43.33466" lon="5.78817">
        <ele>1104.8</ele>
        <time>2025-10-05T09:39:11Z</time>
      </trkpt>
      <trkpt lat="43.33466" lon="5.78817">
        <ele>1104.6</ele>
        <time>2025-10-05T09:39:12Z</time>
      </trkpt>
      <trkpt lat="43.33467" lon="5.78817">
        <ele>1104.4</ele>
        <time>2025-10-05T09:39:13Z</time>
      </trkpt>
      <trkpt lat="43.33467" lon="5.78817">
        <ele>1104.3</ele>
        <time>2025-10-05T09:39:14Z</time>
      </trkpt>
      <trkpt lat="43.33467" lon="5.78817">
        <ele>1104.1</ele>
        <time>2025-10-05T09:39:15Z</time>
      </trkpt>
      <trkpt lat="43.33466" lon="5.78817">
        <ele>1104.1</ele>
        <time>2025-10-05T09:39:16Z</time>
      </trkpt>
      <trkpt lat="43.33467" lon="5.78817">
        <ele>1104</ele>
        <time>2025-10-05T09:39:17Z</time>
      </trkpt>
      <trkpt lat="43.33467" lon="5.78817">
        <ele>1104.2</ele>
        <time>2025-10-05T09:39:18Z</time>
      </trkpt>
      <trkpt lat="43.33467" lon="5.78817">
        <ele>1104.4</ele>
        <time>2025-10-05T09:39:19Z</time>
      </trkpt>
      <trkpt lat="43.33467" lon="5.78817">
        <ele>1104.1</ele>
        <time>2025-10-05T09:39:20Z</time>
      </trkpt>
      <trkpt lat="43.33467" lon="5.78817">
        <ele>1104</ele>
        <time>2025-10-05T09:39:21Z</time>
      </trkpt>
      <trkpt lat="43.33467" lon="5.78818">
        <ele>1103.8</ele>
        <time>2025-10-05T09:39:22Z</time>
      </trkpt>
      <trkpt lat="43.33466" lon="5.78817">
        <ele>1103.9</ele>
        <time>2025-10-05T09:39:23Z</time>
      </trkpt>
      <trkpt lat="43.33466" lon="5.78818">
        <ele>1103.9</ele>
        <time>2025-10-05T09:39:24Z</time>
      </trkpt>
      <trkpt lat="43.33466" lon="5.78818">
        <ele>1104.1</ele>
        <time>2025-10-05T09:39:25Z</time>
      </trkpt>
      <trkpt lat="43.33467" lon="5.78818">
        <ele>1103.9</ele>
        <time>2025-10-05T09:39:26Z</time>
      </trkpt>
      <trkpt lat="43.33467" lon="5.78818">
        <ele>1103.9</ele>
        <time>2025-10-05T09:39:27Z</time>
      </trkpt>
      <trkpt lat="43.33467" lon="5.78818">
        <ele>1104.4</ele>
        <time>2025-10-05T09:39:28Z</time>
      </trkpt>
      <trkpt lat="43.33467" lon="5.78818">
        <ele>1104.2</ele>
        <time>2025-10-05T09:39:29Z</time>
      </trkpt>
      <trkpt lat="43.33467" lon="5.78818">
        <ele>1104</ele>
        <time>2025-10-05T09:39:30Z</time>
      </trkpt>
      <trkpt lat="43.33467" lon="5.78818">
        <ele>1104.3</ele>
        <time>2025-10-05T09:39:31Z</time>
      </trkpt>
      <trkpt lat="43.33467" lon="5.78818">
        <ele>1104.3</ele>
        <time>2025-10-05T09:39:32Z</time>
      </trkpt>
      <trkpt lat="43.33467" lon="5.78819">
        <ele>1104.4</ele>
        <time>2025-10-05T09:39:33Z</time>
      </trkpt>
      <trkpt lat="43.33467" lon="5.78819">
        <ele>1104.5</ele>
        <time>2025-10-05T09:39:34Z</time>
      </trkpt>
      <trkpt lat="43.33467" lon="5.78819">
        <ele>1104.5</ele>
        <time>2025-10-05T09:39:35Z</time>
      </trkpt>
      <trkpt lat="43.33467" lon="5.78819">
        <ele>1104.5</ele>
        <time>2025-10-05T09:39:36Z</time>
      </trkpt>
      <trkpt lat="43.33467" lon="5.78819">
        <ele>1104.4</ele>
        <time>2025-10-05T09:39:37Z</time>
      </trkpt>
      <trkpt lat="43.33467" lon="5.78819">
        <ele>1104.3</ele>
        <time>2025-10-05T09:39:38Z</time>
      </trkpt>
      <trkpt lat="43.33467" lon="5.78819">
        <ele>1104.3</ele>
        <time>2025-10-05T09:39:39Z</time>
      </trkpt>
      <trkpt lat="43.33467" lon="5.78819">
        <ele>1104.3</ele>
        <time>2025-10-05T09:39:40Z</time>
      </trkpt>
      <trkpt lat="43.33467" lon="5.78819">
        <ele>1104.2</ele>
        <time>2025-10-05T09:39:41Z</time>
      </trkpt>
      <trkpt lat="43.33467" lon="5.78819">
        <ele>1104</ele>
        <time>2025-10-05T09:39:42Z</time>
      </trkpt>
      <trkpt lat="43.33467" lon="5.78819">
        <ele>1103.5</ele>
        <time>2025-10-05T09:39:43Z</time>
      </trkpt>
      <trkpt lat="43.33467" lon="5.78819">
        <ele>1103.9</ele>
        <time>2025-10-05T09:39:44Z</time>
      </trkpt>
      <trkpt lat="43.33467" lon="5.78819">
        <ele>1104.2</ele>
        <time>2025-10-05T09:39:45Z</time>
      </trkpt>
      <trkpt lat="43.33467" lon="5.78819">
        <ele>1104.3</ele>
        <time>2025-10-05T09:39:46Z</time>
      </trkpt>
      <trkpt lat="43.33467" lon="5.78819">
        <ele>1104.5</ele>
        <time>2025-10-05T09:39:47Z</time>
      </trkpt>
      <trkpt lat="43.33467" lon="5.78819">
        <ele>1104.7</ele>
        <time>2025-10-05T09:39:48Z</time>
      </trkpt>
      <trkpt lat="43.33467" lon="5.78819">
        <ele>1104.5</ele>
        <time>2025-10-05T09:39:49Z</time>
      </trkpt>
      <trkpt lat="43.33467" lon="5.78819">
        <ele>1104.5</ele>
        <time>2025-10-05T09:39:50Z</time>
      </trkpt>
      <trkpt lat="43.33467" lon="5.78819">
        <ele>1104.4</ele>
        <time>2025-10-05T09:39:51Z</time>
      </trkpt>
      <trkpt lat="43.33467" lon="5.78819">
        <ele>1104.4</ele>
        <time>2025-10-05T09:39:52Z</time>
      </trkpt>
      <trkpt lat="43.33467" lon="5.78819">
        <ele>1104.5</ele>
        <time>2025-10-05T09:39:53Z</time>
      </trkpt>
      <trkpt lat="43.33467" lon="5.78819">
        <ele>1104.5</ele>
        <time>2025-10-05T09:39:54Z</time>
      </trkpt>
      <trkpt lat="43.33467" lon="5.78819">
        <ele>1104.2</ele>
        <time>2025-10-05T09:39:55Z</time>
      </trkpt>
      <trkpt lat="43.33466" lon="5.78819">
        <ele>1104.2</ele>
        <time>2025-10-05T09:39:56Z</time>
      </trkpt>
      <trkpt lat="43.33467" lon="5.78819">
        <ele>1104</ele>
        <time>2025-10-05T09:39:57Z</time>
      </trkpt>
      <trkpt lat="43.33467" lon="5.78819">
        <ele>1103.6</ele>
        <time>2025-10-05T09:39:58Z</time>
      </trkpt>
      <trkpt lat="43.33466" lon="5.78819">
        <ele>1103.6</ele>
        <time>2025-10-05T09:39:59Z</time>
      </trkpt>
      <trkpt lat="43.33466" lon="5.78819">
        <ele>1103.3</ele>
        <time>2025-10-05T09:40:00Z</time>
      </trkpt>
      <trkpt lat="43.33466" lon="5.78819">
        <ele>1103.1</ele>
        <time>2025-10-05T09:40:01Z</time>
      </trkpt>
      <trkpt lat="43.33466" lon="5.78818">
        <ele>1103.1</ele>
        <time>2025-10-05T09:40:02Z</time>
      </trkpt>
      <trkpt lat="43.33466" lon="5.78817">
        <ele>1103.3</ele>
        <time>2025-10-05T09:40:03Z</time>
      </trkpt>
      <trkpt lat="43.33465" lon="5.78816">
        <ele>1103.4</ele>
        <time>2025-10-05T09:40:04Z</time>
      </trkpt>
      <trkpt lat="43.33465" lon="5.78816">
        <ele>1103.6</ele>
        <time>2025-10-05T09:40:05Z</time>
      </trkpt>
      <trkpt lat="43.33466" lon="5.78815">
        <ele>1103.4</ele>
        <time>2025-10-05T09:40:06Z</time>
      </trkpt>
      <trkpt lat="43.33466" lon="5.78816">
        <ele>1103.6</ele>
        <time>2025-10-05T09:40:07Z</time>
      </trkpt>
      <trkpt lat="43.33466" lon="5.78816">
        <ele>1104</ele>
        <time>2025-10-05T09:40:08Z</time>
      </trkpt>
      <trkpt lat="43.33466" lon="5.78816">
        <ele>1104.2</ele>
        <time>2025-10-05T09:40:09Z</time>
      </trkpt>
      <trkpt lat="43.33465" lon="5.78816">
        <ele>1104.4</ele>
        <time>2025-10-05T09:40:10Z</time>
      </trkpt>
      <trkpt lat="43.33466" lon="5.78815">
        <ele>1104.7</ele>
        <time>2025-10-05T09:40:11Z</time>
      </trkpt>
      <trkpt lat="43.33466" lon="5.78815">
        <ele>1104.4</ele>
        <time>2025-10-05T09:40:12Z</time>
      </trkpt>
      <trkpt lat="43.33465" lon="5.78815">
        <ele>1104.5</ele>
        <time>2025-10-05T09:40:13Z</time>
      </trkpt>
      <trkpt lat="43.33465" lon="5.78815">
        <ele>1104.5</ele>
        <time>2025-10-05T09:40:14Z</time>
      </trkpt>
      <trkpt lat="43.33465" lon="5.78814">
        <ele>1105.1</ele>
        <time>2025-10-05T09:40:15Z</time>
      </trkpt>
      <trkpt lat="43.33465" lon="5.78814">
        <ele>1105.1</ele>
        <time>2025-10-05T09:40:16Z</time>
      </trkpt>
      <trkpt lat="43.33465" lon="5.78813">
        <ele>1105.2</ele>
        <time>2025-10-05T09:40:17Z</time>
      </trkpt>
      <trkpt lat="43.33465" lon="5.78812">
        <ele>1105.5</ele>
        <time>2025-10-05T09:40:18Z</time>
      </trkpt>
      <trkpt lat="43.33465" lon="5.78812">
        <ele>1106.1</ele>
        <time>2025-10-05T09:40:19Z</time>
      </trkpt>
      <trkpt lat="43.33464" lon="5.78811">
        <ele>1106.1</ele>
        <time>2025-10-05T09:40:20Z</time>
      </trkpt>
      <trkpt lat="43.33464" lon="5.7881">
        <ele>1106</ele>
        <time>2025-10-05T09:40:21Z</time>
      </trkpt>
      <trkpt lat="43.33464" lon="5.78808">
        <ele>1106.1</ele>
        <time>2025-10-05T09:40:22Z</time>
      </trkpt>
      <trkpt lat="43.33463" lon="5.78807">
        <ele>1105.9</ele>
        <time>2025-10-05T09:40:23Z</time>
      </trkpt>
      <trkpt lat="43.33463" lon="5.78806">
        <ele>1106</ele>
        <time>2025-10-05T09:40:24Z</time>
      </trkpt>
      <trkpt lat="43.33463" lon="5.78805">
        <ele>1105.6</ele>
        <time>2025-10-05T09:40:25Z</time>
      </trkpt>
      <trkpt lat="43.33462" lon="5.78803">
        <ele>1105.6</ele>
        <time>2025-10-05T09:40:26Z</time>
      </trkpt>
      <trkpt lat="43.33462" lon="5.78802">
        <ele>1105.7</ele>
        <time>2025-10-05T09:40:27Z</time>
      </trkpt>
      <trkpt lat="43.33461" lon="5.78801">
        <ele>1105.8</ele>
        <time>2025-10-05T09:40:28Z</time>
      </trkpt>
      <trkpt lat="43.33461" lon="5.78799">
        <ele>1105.8</ele>
        <time>2025-10-05T09:40:29Z</time>
      </trkpt>
      <trkpt lat="43.3346" lon="5.78798">
        <ele>1106</ele>
        <time>2025-10-05T09:40:30Z</time>
      </trkpt>
      <trkpt lat="43.3346" lon="5.78796">
        <ele>1105.9</ele>
        <time>2025-10-05T09:40:31Z</time>
      </trkpt>
      <trkpt lat="43.3346" lon="5.78795">
        <ele>1106.1</ele>
        <time>2025-10-05T09:40:32Z</time>
      </trkpt>
      <trkpt lat="43.3346" lon="5.78794">
        <ele>1106.2</ele>
        <time>2025-10-05T09:40:33Z</time>
      </trkpt>
      <trkpt lat="43.3346" lon="5.78793">
        <ele>1106.4</ele>
        <time>2025-10-05T09:40:34Z</time>
      </trkpt>
      <trkpt lat="43.33459" lon="5.78792">
        <ele>1106.7</ele>
        <time>2025-10-05T09:40:35Z</time>
      </trkpt>
      <trkpt lat="43.33459" lon="5.7879">
        <ele>1106.9</ele>
        <time>2025-10-05T09:40:36Z</time>
      </trkpt>
      <trkpt lat="43.33459" lon="5.78789">
        <ele>1107.1</ele>
        <time>2025-10-05T09:40:37Z</time>
      </trkpt>
      <trkpt lat="43.33459" lon="5.78788">
        <ele>1107.2</ele>
        <time>2025-10-05T09:40:38Z</time>
      </trkpt>
      <trkpt lat="43.33459" lon="5.78787">
        <ele>1107.1</ele>
        <time>2025-10-05T09:40:39Z</time>
      </trkpt>
      <trkpt lat="43.33459" lon="5.78786">
        <ele>1107.5</ele>
        <time>2025-10-05T09:40:40Z</time>
      </trkpt>
      <trkpt lat="43.33459" lon="5.78784">
        <ele>1107.6</ele>
        <time>2025-10-05T09:40:41Z</time>
      </trkpt>
      <trkpt lat="43.33458" lon="5.78783">
        <ele>1107.6</ele>
        <time>2025-10-05T09:40:42Z</time>
      </trkpt>
      <trkpt lat="43.33458" lon="5.78783">
        <ele>1107.8</ele>
        <time>2025-10-05T09:40:43Z</time>
      </trkpt>
      <trkpt lat="43.33458" lon="5.78782">
        <ele>1108</ele>
        <time>2025-10-05T09:40:44Z</time>
      </trkpt>
      <trkpt lat="43.33458" lon="5.78781">
        <ele>1108.3</ele>
        <time>2025-10-05T09:40:45Z</time>
      </trkpt>
      <trkpt lat="43.33458" lon="5.7878">
        <ele>1108.4</ele>
        <time>2025-10-05T09:40:46Z</time>
      </trkpt>
      <trkpt lat="43.33458" lon="5.78779">
        <ele>1108.8</ele>
        <time>2025-10-05T09:40:47Z</time>
      </trkpt>
      <trkpt lat="43.33458" lon="5.78778">
        <ele>1109</ele>
        <time>2025-10-05T09:40:48Z</time>
      </trkpt>
      <trkpt lat="43.33458" lon="5.78777">
        <ele>1108.8</ele>
        <time>2025-10-05T09:40:49Z</time>
      </trkpt>
      <trkpt lat="43.33457" lon="5.78776">
        <ele>1108.6</ele>
        <time>2025-10-05T09:40:50Z</time>
      </trkpt>
      <trkpt lat="43.33457" lon="5.78776">
        <ele>1108.6</ele>
        <time>2025-10-05T09:40:51Z</time>
      </trkpt>
      <trkpt lat="43.33457" lon="5.78775">
        <ele>1108.6</ele>
        <time>2025-10-05T09:40:52Z</time>
      </trkpt>
      <trkpt lat="43.33457" lon="5.78774">
        <ele>1108.6</ele>
        <time>2025-10-05T09:40:53Z</time>
      </trkpt>
      <trkpt lat="43.33456" lon="5.78774">
        <ele>1108.6</ele>
        <time>2025-10-05T09:40:54Z</time>
      </trkpt>
      <trkpt lat="43.33456" lon="5.78773">
        <ele>1108.6</ele>
        <time>2025-10-05T09:40:55Z</time>
      </trkpt>
      <trkpt lat="43.33455" lon="5.78772">
        <ele>1109</ele>
        <time>2025-10-05T09:40:56Z</time>
      </trkpt>
      <trkpt lat="43.33455" lon="5.78772">
        <ele>1109.1</ele>
        <time>2025-10-05T09:40:57Z</time>
      </trkpt>
      <trkpt lat="43.33455" lon="5.78771">
        <ele>1109.1</ele>
        <time>2025-10-05T09:40:58Z</time>
      </trkpt>
      <trkpt lat="43.33454" lon="5.7877">
        <ele>1109.1</ele>
        <time>2025-10-05T09:40:59Z</time>
      </trkpt>
      <trkpt lat="43.33454" lon="5.7877">
        <ele>1109.3</ele>
        <time>2025-10-05T09:41:00Z</time>
      </trkpt>
      <trkpt lat="43.33454" lon="5.78769">
        <ele>1109.5</ele>
        <time>2025-10-05T09:41:01Z</time>
      </trkpt>
      <trkpt lat="43.33453" lon="5.78768">
        <ele>1109.3</ele>
        <time>2025-10-05T09:41:02Z</time>
      </trkpt>
      <trkpt lat="43.33453" lon="5.78768">
        <ele>1109.5</ele>
        <time>2025-10-05T09:41:03Z</time>
      </trkpt>
      <trkpt lat="43.33452" lon="5.78767">
        <ele>1110</ele>
        <time>2025-10-05T09:41:04Z</time>
      </trkpt>
      <trkpt lat="43.33452" lon="5.78767">
        <ele>1110.1</ele>
        <time>2025-10-05T09:41:05Z</time>
      </trkpt>
      <trkpt lat="43.33451" lon="5.78766">
        <ele>1110.1</ele>
        <time>2025-10-05T09:41:06Z</time>
      </trkpt>
      <trkpt lat="43.33451" lon="5.78766">
        <ele>1110.2</ele>
        <time>2025-10-05T09:41:07Z</time>
      </trkpt>
      <trkpt lat="43.33451" lon="5.78766">
        <ele>1110.4</ele>
        <time>2025-10-05T09:41:08Z</time>
      </trkpt>
      <trkpt lat="43.3345" lon="5.78766">
        <ele>1110.5</ele>
        <time>2025-10-05T09:41:09Z</time>
      </trkpt>
      <trkpt lat="43.3345" lon="5.78766">
        <ele>1110.4</ele>
        <time>2025-10-05T09:41:10Z</time>
      </trkpt>
      <trkpt lat="43.3345" lon="5.78766">
        <ele>1110.4</ele>
        <time>2025-10-05T09:41:11Z</time>
      </trkpt>
      <trkpt lat="43.3345" lon="5.78766">
        <ele>1110.7</ele>
        <time>2025-10-05T09:41:12Z</time>
      </trkpt>
      <trkpt lat="43.33451" lon="5.78765">
        <ele>1110.7</ele>
        <time>2025-10-05T09:41:13Z</time>
      </trkpt>
      <trkpt lat="43.33451" lon="5.78765">
        <ele>1110.9</ele>
        <time>2025-10-05T09:41:14Z</time>
      </trkpt>
      <trkpt lat="43.33451" lon="5.78765">
        <ele>1110.8</ele>
        <time>2025-10-05T09:41:15Z</time>
      </trkpt>
      <trkpt lat="43.33451" lon="5.78765">
        <ele>1110.7</ele>
        <time>2025-10-05T09:41:16Z</time>
      </trkpt>
      <trkpt lat="43.33451" lon="5.78765">
        <ele>1110.6</ele>
        <time>2025-10-05T09:41:17Z</time>
      </trkpt>
      <trkpt lat="43.33451" lon="5.78765">
        <ele>1110.5</ele>
        <time>2025-10-05T09:41:18Z</time>
      </trkpt>
      <trkpt lat="43.33451" lon="5.78765">
        <ele>1110.5</ele>
        <time>2025-10-05T09:41:19Z</time>
      </trkpt>
      <trkpt lat="43.33452" lon="5.78765">
        <ele>1110.2</ele>
        <time>2025-10-05T09:41:20Z</time>
      </trkpt>
      <trkpt lat="43.33451" lon="5.78765">
        <ele>1110.1</ele>
        <time>2025-10-05T09:41:21Z</time>
      </trkpt>
      <trkpt lat="43.3345" lon="5.78766">
        <ele>1110</ele>
        <time>2025-10-05T09:41:22Z</time>
      </trkpt>
      <trkpt lat="43.3345" lon="5.78766">
        <ele>1109.9</ele>
        <time>2025-10-05T09:41:23Z</time>
      </trkpt>
      <trkpt lat="43.33449" lon="5.78766">
        <ele>1109.7</ele>
        <time>2025-10-05T09:41:24Z</time>
      </trkpt>
      <trkpt lat="43.33449" lon="5.78766">
        <ele>1109.7</ele>
        <time>2025-10-05T09:41:25Z</time>
      </trkpt>
      <trkpt lat="43.33448" lon="5.78767">
        <ele>1109.6</ele>
        <time>2025-10-05T09:41:26Z</time>
      </trkpt>
      <trkpt lat="43.33448" lon="5.78766">
        <ele>1109.5</ele>
        <time>2025-10-05T09:41:27Z</time>
      </trkpt>
      <trkpt lat="43.33447" lon="5.78766">
        <ele>1109.8</ele>
        <time>2025-10-05T09:41:28Z</time>
      </trkpt>
      <trkpt lat="43.33447" lon="5.78766">
        <ele>1110.1</ele>
        <time>2025-10-05T09:41:29Z</time>
      </trkpt>
      <trkpt lat="43.33446" lon="5.78767">
        <ele>1110.4</ele>
        <time>2025-10-05T09:41:30Z</time>
      </trkpt>
      <trkpt lat="43.33446" lon="5.78767">
        <ele>1110.6</ele>
        <time>2025-10-05T09:41:31Z</time>
      </trkpt>
      <trkpt lat="43.33445" lon="5.78767">
        <ele>1110.6</ele>
        <time>2025-10-05T09:41:32Z</time>
      </trkpt>
      <trkpt lat="43.33445" lon="5.78767">
        <ele>1110.9</ele>
        <time>2025-10-05T09:41:33Z</time>
      </trkpt>
      <trkpt lat="43.33444" lon="5.78767">
        <ele>1110.9</ele>
        <time>2025-10-05T09:41:34Z</time>
      </trkpt>
      <trkpt lat="43.33443" lon="5.78768">
        <ele>1110.9</ele>
        <time>2025-10-05T09:41:35Z</time>
      </trkpt>
      <trkpt lat="43.33443" lon="5.78768">
        <ele>1110.8</ele>
        <time>2025-10-05T09:41:36Z</time>
      </trkpt>
      <trkpt lat="43.33442" lon="5.78769">
        <ele>1110.7</ele>
        <time>2025-10-05T09:41:37Z</time>
      </trkpt>
      <trkpt lat="43.33442" lon="5.78769">
        <ele>1111</ele>
        <time>2025-10-05T09:41:38Z</time>
      </trkpt>
      <trkpt lat="43.33441" lon="5.78769">
        <ele>1111.2</ele>
        <time>2025-10-05T09:41:39Z</time>
      </trkpt>
      <trkpt lat="43.33441" lon="5.78769">
        <ele>1111.4</ele>
        <time>2025-10-05T09:41:40Z</time>
      </trkpt>
      <trkpt lat="43.3344" lon="5.78769">
        <ele>1111.3</ele>
        <time>2025-10-05T09:41:41Z</time>
      </trkpt>
      <trkpt lat="43.33439" lon="5.7877">
        <ele>1111.5</ele>
        <time>2025-10-05T09:41:42Z</time>
      </trkpt>
      <trkpt lat="43.33439" lon="5.7877">
        <ele>1111.7</ele>
        <time>2025-10-05T09:41:43Z</time>
      </trkpt>
      <trkpt lat="43.33439" lon="5.7877">
        <ele>1111.9</ele>
        <time>2025-10-05T09:41:44Z</time>
      </trkpt>
      <trkpt lat="43.33438" lon="5.78771">
        <ele>1112.1</ele>
        <time>2025-10-05T09:41:45Z</time>
      </trkpt>
      <trkpt lat="43.33438" lon="5.78771">
        <ele>1112.1</ele>
        <time>2025-10-05T09:41:46Z</time>
      </trkpt>
      <trkpt lat="43.33437" lon="5.78772">
        <ele>1112.1</ele>
        <time>2025-10-05T09:41:47Z</time>
      </trkpt>
      <trkpt lat="43.33436" lon="5.78772">
        <ele>1112.3</ele>
        <time>2025-10-05T09:41:48Z</time>
      </trkpt>
      <trkpt lat="43.33436" lon="5.78773">
        <ele>1112.4</ele>
        <time>2025-10-05T09:41:49Z</time>
      </trkpt>
      <trkpt lat="43.33435" lon="5.78774">
        <ele>1112.6</ele>
        <time>2025-10-05T09:41:50Z</time>
      </trkpt>
      <trkpt lat="43.33435" lon="5.78775">
        <ele>1112.7</ele>
        <time>2025-10-05T09:41:51Z</time>
      </trkpt>
      <trkpt lat="43.33434" lon="5.78776">
        <ele>1112.8</ele>
        <time>2025-10-05T09:41:52Z</time>
      </trkpt>
      <trkpt lat="43.33434" lon="5.78776">
        <ele>1112.9</ele>
        <time>2025-10-05T09:41:53Z</time>
      </trkpt>
      <trkpt lat="43.33433" lon="5.78777">
        <ele>1113</ele>
        <time>2025-10-05T09:41:54Z</time>
      </trkpt>
      <trkpt lat="43.33433" lon="5.78777">
        <ele>1113.2</ele>
        <time>2025-10-05T09:41:55Z</time>
      </trkpt>
      <trkpt lat="43.33432" lon="5.78778">
        <ele>1113.3</ele>
        <time>2025-10-05T09:41:56Z</time>
      </trkpt>
      <trkpt lat="43.33432" lon="5.78778">
        <ele>1113.4</ele>
        <time>2025-10-05T09:41:57Z</time>
      </trkpt>
      <trkpt lat="43.33431" lon="5.78779">
        <ele>1113.8</ele>
        <time>2025-10-05T09:41:58Z</time>
      </trkpt>
      <trkpt lat="43.33431" lon="5.78779">
        <ele>1114.2</ele>
        <time>2025-10-05T09:41:59Z</time>
      </trkpt>
      <trkpt lat="43.33431" lon="5.7878">
        <ele>1114.4</ele>
        <time>2025-10-05T09:42:00Z</time>
      </trkpt>
      <trkpt lat="43.33431" lon="5.78781">
        <ele>1114.6</ele>
        <time>2025-10-05T09:42:01Z</time>
      </trkpt>
      <trkpt lat="43.33431" lon="5.78781">
        <ele>1114.8</ele>
        <time>2025-10-05T09:42:02Z</time>
      </trkpt>
      <trkpt lat="43.33431" lon="5.78782">
        <ele>1114.9</ele>
        <time>2025-10-05T09:42:03Z</time>
      </trkpt>
      <trkpt lat="43.33431" lon="5.78782">
        <ele>1115</ele>
        <time>2025-10-05T09:42:04Z</time>
      </trkpt>
      <trkpt lat="43.33431" lon="5.78783">
        <ele>1115</ele>
        <time>2025-10-05T09:42:05Z</time>
      </trkpt>
      <trkpt lat="43.33431" lon="5.78783">
        <ele>1115.2</ele>
        <time>2025-10-05T09:42:06Z</time>
      </trkpt>
      <trkpt lat="43.33431" lon="5.78784">
        <ele>1115</ele>
        <time>2025-10-05T09:42:07Z</time>
      </trkpt>
      <trkpt lat="43.33431" lon="5.78784">
        <ele>1115.1</ele>
        <time>2025-10-05T09:42:08Z</time>
      </trkpt>
      <trkpt lat="43.3343" lon="5.78784">
        <ele>1115.5</ele>
        <time>2025-10-05T09:42:09Z</time>
      </trkpt>
      <trkpt lat="43.3343" lon="5.78784">
        <ele>1115.9</ele>
        <time>2025-10-05T09:42:10Z</time>
      </trkpt>
      <trkpt lat="43.3343" lon="5.78784">
        <ele>1116.2</ele>
        <time>2025-10-05T09:42:11Z</time>
      </trkpt>
      <trkpt lat="43.3343" lon="5.78784">
        <ele>1116.5</ele>
        <time>2025-10-05T09:42:12Z</time>
      </trkpt>
      <trkpt lat="43.33429" lon="5.78784">
        <ele>1116.7</ele>
        <time>2025-10-05T09:42:13Z</time>
      </trkpt>
      <trkpt lat="43.33429" lon="5.78784">
        <ele>1116.8</ele>
        <time>2025-10-05T09:42:14Z</time>
      </trkpt>
      <trkpt lat="43.33429" lon="5.78784">
        <ele>1116.9</ele>
        <time>2025-10-05T09:42:15Z</time>
      </trkpt>
      <trkpt lat="43.33429" lon="5.78784">
        <ele>1116.9</ele>
        <time>2025-10-05T09:42:16Z</time>
      </trkpt>
      <trkpt lat="43.33429" lon="5.78784">
        <ele>1116.7</ele>
        <time>2025-10-05T09:42:17Z</time>
      </trkpt>
      <trkpt lat="43.33428" lon="5.78784">
        <ele>1116.9</ele>
        <time>2025-10-05T09:42:18Z</time>
      </trkpt>
      <trkpt lat="43.33428" lon="5.78784">
        <ele>1117</ele>
        <time>2025-10-05T09:42:19Z</time>
      </trkpt>
      <trkpt lat="43.33428" lon="5.78784">
        <ele>1117</ele>
        <time>2025-10-05T09:42:20Z</time>
      </trkpt>
      <trkpt lat="43.33428" lon="5.78784">
        <ele>1117</ele>
        <time>2025-10-05T09:42:21Z</time>
      </trkpt>
      <trkpt lat="43.33428" lon="5.78784">
        <ele>1117</ele>
        <time>2025-10-05T09:42:22Z</time>
      </trkpt>
      <trkpt lat="43.33428" lon="5.78784">
        <ele>1117.1</ele>
        <time>2025-10-05T09:42:23Z</time>
      </trkpt>
      <trkpt lat="43.33428" lon="5.78784">
        <ele>1117</ele>
        <time>2025-10-05T09:42:24Z</time>
      </trkpt>
      <trkpt lat="43.33428" lon="5.78785">
        <ele>1117.1</ele>
        <time>2025-10-05T09:42:25Z</time>
      </trkpt>
      <trkpt lat="43.33428" lon="5.78785">
        <ele>1116.6</ele>
        <time>2025-10-05T09:42:26Z</time>
      </trkpt>
      <trkpt lat="43.33428" lon="5.78785">
        <ele>1116.9</ele>
        <time>2025-10-05T09:42:27Z</time>
      </trkpt>
      <trkpt lat="43.33427" lon="5.78785">
        <ele>1116.9</ele>
        <time>2025-10-05T09:42:28Z</time>
      </trkpt>
      <trkpt lat="43.33427" lon="5.78785">
        <ele>1117.1</ele>
        <time>2025-10-05T09:42:29Z</time>
      </trkpt>
      <trkpt lat="43.33428" lon="5.78785">
        <ele>1117.4</ele>
        <time>2025-10-05T09:42:30Z</time>
      </trkpt>
      <trkpt lat="43.33428" lon="5.78785">
        <ele>1117.5</ele>
        <time>2025-10-05T09:42:31Z</time>
      </trkpt>
      <trkpt lat="43.33428" lon="5.78785">
        <ele>1116.5</ele>
        <time>2025-10-05T09:42:32Z</time>
      </trkpt>
      <trkpt lat="43.33428" lon="5.78785">
        <ele>1116.9</ele>
        <time>2025-10-05T09:42:33Z</time>
      </trkpt>
      <trkpt lat="43.33428" lon="5.78785">
        <ele>1117</ele>
        <time>2025-10-05T09:42:34Z</time>
      </trkpt>
      <trkpt lat="43.33428" lon="5.78785">
        <ele>1117.2</ele>
        <time>2025-10-05T09:42:35Z</time>
      </trkpt>
      <trkpt lat="43.33428" lon="5.78786">
        <ele>1117.3</ele>
        <time>2025-10-05T09:42:36Z</time>
      </trkpt>
      <trkpt lat="43.33428" lon="5.78786">
        <ele>1117.6</ele>
        <time>2025-10-05T09:42:37Z</time>
      </trkpt>
      <trkpt lat="43.33428" lon="5.78786">
        <ele>1118</ele>
        <time>2025-10-05T09:42:38Z</time>
      </trkpt>
      <trkpt lat="43.33428" lon="5.78786">
        <ele>1118.1</ele>
        <time>2025-10-05T09:42:39Z</time>
      </trkpt>
      <trkpt lat="43.33428" lon="5.78786">
        <ele>1118.2</ele>
        <time>2025-10-05T09:42:40Z</time>
      </trkpt>
      <trkpt lat="43.33428" lon="5.78785">
        <ele>1118.3</ele>
        <time>2025-10-05T09:42:41Z</time>
      </trkpt>
      <trkpt lat="43.33428" lon="5.78785">
        <ele>1119</ele>
        <time>2025-10-05T09:42:42Z</time>
      </trkpt>
      <trkpt lat="43.33427" lon="5.78785">
        <ele>1119.5</ele>
        <time>2025-10-05T09:42:43Z</time>
      </trkpt>
      <trkpt lat="43.33427" lon="5.78785">
        <ele>1120.2</ele>
        <time>2025-10-05T09:42:44Z</time>
      </trkpt>
      <trkpt lat="43.33427" lon="5.78785">
        <ele>1120.7</ele>
        <time>2025-10-05T09:42:45Z</time>
      </trkpt>
      <trkpt lat="43.33427" lon="5.78785">
        <ele>1121.2</ele>
        <time>2025-10-05T09:42:46Z</time>
      </trkpt>
      <trkpt lat="43.33428" lon="5.78785">
        <ele>1121.8</ele>
        <time>2025-10-05T09:42:47Z</time>
      </trkpt>
      <trkpt lat="43.33428" lon="5.78785">
        <ele>1122.2</ele>
        <time>2025-10-05T09:42:48Z</time>
      </trkpt>
      <trkpt lat="43.33428" lon="5.78785">
        <ele>1122.1</ele>
        <time>2025-10-05T09:42:49Z</time>
      </trkpt>
      <trkpt lat="43.33427" lon="5.78785">
        <ele>1121.6</ele>
        <time>2025-10-05T09:42:50Z</time>
      </trkpt>
      <trkpt lat="43.33427" lon="5.78785">
        <ele>1122.2</ele>
        <time>2025-10-05T09:42:51Z</time>
      </trkpt>
      <trkpt lat="43.33428" lon="5.78785">
        <ele>1121.5</ele>
        <time>2025-10-05T09:42:52Z</time>
      </trkpt>
      <trkpt lat="43.33428" lon="5.78785">
        <ele>1121.6</ele>
        <time>2025-10-05T09:42:53Z</time>
      </trkpt>
      <trkpt lat="43.33428" lon="5.78785">
        <ele>1121.4</ele>
        <time>2025-10-05T09:42:54Z</time>
      </trkpt>
      <trkpt lat="43.33428" lon="5.78785">
        <ele>1121.4</ele>
        <time>2025-10-05T09:42:55Z</time>
      </trkpt>
      <trkpt lat="43.33428" lon="5.78785">
        <ele>1121.3</ele>
        <time>2025-10-05T09:42:56Z</time>
      </trkpt>
      <trkpt lat="43.33428" lon="5.78785">
        <ele>1121.2</ele>
        <time>2025-10-05T09:42:57Z</time>
      </trkpt>
      <trkpt lat="43.33428" lon="5.78785">
        <ele>1121.3</ele>
        <time>2025-10-05T09:42:58Z</time>
      </trkpt>
      <trkpt lat="43.33428" lon="5.78784">
        <ele>1121.3</ele>
        <time>2025-10-05T09:42:59Z</time>
      </trkpt>
      <trkpt lat="43.33428" lon="5.78784">
        <ele>1120.8</ele>
        <time>2025-10-05T09:43:00Z</time>
      </trkpt>
      <trkpt lat="43.33427" lon="5.78784">
        <ele>1120.5</ele>
        <time>2025-10-05T09:43:01Z</time>
      </trkpt>
      <trkpt lat="43.33427" lon="5.78784">
        <ele>1121.5</ele>
        <time>2025-10-05T09:43:02Z</time>
      </trkpt>
      <trkpt lat="43.33427" lon="5.78783">
        <ele>1121.2</ele>
        <time>2025-10-05T09:43:03Z</time>
      </trkpt>
      <trkpt lat="43.33426" lon="5.78783">
        <ele>1121.1</ele>
        <time>2025-10-05T09:43:04Z</time>
      </trkpt>
      <trkpt lat="43.33426" lon="5.78783">
        <ele>1121.5</ele>
        <time>2025-10-05T09:43:05Z</time>
      </trkpt>
      <trkpt lat="43.33426" lon="5.78783">
        <ele>1122.3</ele>
        <time>2025-10-05T09:43:06Z</time>
      </trkpt>
      <trkpt lat="43.33426" lon="5.78783">
        <ele>1122.5</ele>
        <time>2025-10-05T09:43:07Z</time>
      </trkpt>
      <trkpt lat="43.33426" lon="5.78783">
        <ele>1122.7</ele>
        <time>2025-10-05T09:43:08Z</time>
      </trkpt>
      <trkpt lat="43.33426" lon="5.78782">
        <ele>1123</ele>
        <time>2025-10-05T09:43:09Z</time>
      </trkpt>
      <trkpt lat="43.33426" lon="5.78782">
        <ele>1123.3</ele>
        <time>2025-10-05T09:43:10Z</time>
      </trkpt>
      <trkpt lat="43.33426" lon="5.78781">
        <ele>1123.6</ele>
        <time>2025-10-05T09:43:11Z</time>
      </trkpt>
      <trkpt lat="43.33425" lon="5.78781">
        <ele>1123.8</ele>
        <time>2025-10-05T09:43:12Z</time>
      </trkpt>
      <trkpt lat="43.33425" lon="5.78781">
        <ele>1123.7</ele>
        <time>2025-10-05T09:43:13Z</time>
      </trkpt>
      <trkpt lat="43.33425" lon="5.78781">
        <ele>1123.6</ele>
        <time>2025-10-05T09:43:14Z</time>
      </trkpt>
      <trkpt lat="43.33424" lon="5.78781">
        <ele>1123.4</ele>
        <time>2025-10-05T09:43:15Z</time>
      </trkpt>
      <trkpt lat="43.33424" lon="5.78781">
        <ele>1123.8</ele>
        <time>2025-10-05T09:43:16Z</time>
      </trkpt>
      <trkpt lat="43.33424" lon="5.78781">
        <ele>1124.2</ele>
        <time>2025-10-05T09:43:17Z</time>
      </trkpt>
      <trkpt lat="43.33424" lon="5.78781">
        <ele>1124.3</ele>
        <time>2025-10-05T09:43:18Z</time>
      </trkpt>
      <trkpt lat="43.33424" lon="5.78781">
        <ele>1124.7</ele>
        <time>2025-10-05T09:43:19Z</time>
      </trkpt>
      <trkpt lat="43.33424" lon="5.78781">
        <ele>1125.3</ele>
        <time>2025-10-05T09:43:20Z</time>
      </trkpt>
      <trkpt lat="43.33423" lon="5.78781">
        <ele>1125.5</ele>
        <time>2025-10-05T09:43:21Z</time>
      </trkpt>
      <trkpt lat="43.33423" lon="5.78781">
        <ele>1125.6</ele>
        <time>2025-10-05T09:43:22Z</time>
      </trkpt>
      <trkpt lat="43.33423" lon="5.78781">
        <ele>1125.7</ele>
        <time>2025-10-05T09:43:23Z</time>
      </trkpt>
      <trkpt lat="43.33423" lon="5.78781">
        <ele>1125.8</ele>
        <time>2025-10-05T09:43:24Z</time>
      </trkpt>
      <trkpt lat="43.33423" lon="5.78781">
        <ele>1125.9</ele>
        <time>2025-10-05T09:43:25Z</time>
      </trkpt>
      <trkpt lat="43.33423" lon="5.78781">
        <ele>1125.9</ele>
        <time>2025-10-05T09:43:26Z</time>
      </trkpt>
      <trkpt lat="43.33423" lon="5.78781">
        <ele>1125.9</ele>
        <time>2025-10-05T09:43:27Z</time>
      </trkpt>
      <trkpt lat="43.33423" lon="5.78781">
        <ele>1125.9</ele>
        <time>2025-10-05T09:43:28Z</time>
      </trkpt>
      <trkpt lat="43.33423" lon="5.78781">
        <ele>1126.1</ele>
        <time>2025-10-05T09:43:29Z</time>
      </trkpt>
      <trkpt lat="43.33422" lon="5.78781">
        <ele>1126.2</ele>
        <time>2025-10-05T09:43:30Z</time>
      </trkpt>
      <trkpt lat="43.33422" lon="5.78781">
        <ele>1126.2</ele>
        <time>2025-10-05T09:43:31Z</time>
      </trkpt>
      <trkpt lat="43.33422" lon="5.78781">
        <ele>1126.5</ele>
        <time>2025-10-05T09:43:32Z</time>
      </trkpt>
      <trkpt lat="43.33422" lon="5.78781">
        <ele>1126.6</ele>
        <time>2025-10-05T09:43:33Z</time>
      </trkpt>
      <trkpt lat="43.33422" lon="5.78781">
        <ele>1126.7</ele>
        <time>2025-10-05T09:43:34Z</time>
      </trkpt>
      <trkpt lat="43.33422" lon="5.78781">
        <ele>1126.9</ele>
        <time>2025-10-05T09:43:35Z</time>
      </trkpt>
      <trkpt lat="43.33422" lon="5.78781">
        <ele>1126.8</ele>
        <time>2025-10-05T09:43:36Z</time>
      </trkpt>
      <trkpt lat="43.33422" lon="5.78781">
        <ele>1126.7</ele>
        <time>2025-10-05T09:43:37Z</time>
      </trkpt>
      <trkpt lat="43.33422" lon="5.78781">
        <ele>1126.7</ele>
        <time>2025-10-05T09:43:38Z</time>
      </trkpt>
      <trkpt lat="43.33422" lon="5.78781">
        <ele>1126.6</ele>
        <time>2025-10-05T09:43:39Z</time>
      </trkpt>
      <trkpt lat="43.33422" lon="5.78781">
        <ele>1126.7</ele>
        <time>2025-10-05T09:43:40Z</time>
      </trkpt>
      <trkpt lat="43.33421" lon="5.78782">
        <ele>1126.7</ele>
        <time>2025-10-05T09:43:41Z</time>
      </trkpt>
      <trkpt lat="43.33421" lon="5.78782">
        <ele>1126.9</ele>
        <time>2025-10-05T09:43:42Z</time>
      </trkpt>
      <trkpt lat="43.33421" lon="5.78782">
        <ele>1126.9</ele>
        <time>2025-10-05T09:43:43Z</time>
      </trkpt>
      <trkpt lat="43.33421" lon="5.78782">
        <ele>1126.9</ele>
        <time>2025-10-05T09:43:44Z</time>
      </trkpt>
      <trkpt lat="43.33421" lon="5.78782">
        <ele>1126.9</ele>
        <time>2025-10-05T09:43:45Z</time>
      </trkpt>
      <trkpt lat="43.33421" lon="5.78782">
        <ele>1126.9</ele>
        <time>2025-10-05T09:43:46Z</time>
      </trkpt>
      <trkpt lat="43.33421" lon="5.78782">
        <ele>1126.9</ele>
        <time>2025-10-05T09:43:47Z</time>
      </trkpt>
      <trkpt lat="43.33421" lon="5.78782">
        <ele>1127</ele>
        <time>2025-10-05T09:43:48Z</time>
      </trkpt>
      <trkpt lat="43.33421" lon="5.78782">
        <ele>1127.1</ele>
        <time>2025-10-05T09:43:49Z</time>
      </trkpt>
      <trkpt lat="43.33422" lon="5.78782">
        <ele>1127.1</ele>
        <time>2025-10-05T09:43:50Z</time>
      </trkpt>
      <trkpt lat="43.33422" lon="5.78782">
        <ele>1127</ele>
        <time>2025-10-05T09:43:51Z</time>
      </trkpt>
      <trkpt lat="43.33422" lon="5.78782">
        <ele>1127.1</ele>
        <time>2025-10-05T09:43:52Z</time>
      </trkpt>
      <trkpt lat="43.33422" lon="5.78781">
        <ele>1126.9</ele>
        <time>2025-10-05T09:43:53Z</time>
      </trkpt>
      <trkpt lat="43.33422" lon="5.78781">
        <ele>1127</ele>
        <time>2025-10-05T09:43:54Z</time>
      </trkpt>
      <trkpt lat="43.33422" lon="5.78781">
        <ele>1127.1</ele>
        <time>2025-10-05T09:43:55Z</time>
      </trkpt>
      <trkpt lat="43.33422" lon="5.78782">
        <ele>1127.2</ele>
        <time>2025-10-05T09:43:56Z</time>
      </trkpt>
      <trkpt lat="43.33422" lon="5.78782">
        <ele>1127.2</ele>
        <time>2025-10-05T09:43:57Z</time>
      </trkpt>
      <trkpt lat="43.33422" lon="5.78782">
        <ele>1127.2</ele>
        <time>2025-10-05T09:43:58Z</time>
      </trkpt>
      <trkpt lat="43.33422" lon="5.78782">
        <ele>1127.3</ele>
        <time>2025-10-05T09:43:59Z</time>
      </trkpt>
      <trkpt lat="43.33422" lon="5.78782">
        <ele>1127.4</ele>
        <time>2025-10-05T09:44:00Z</time>
      </trkpt>
      <trkpt lat="43.33422" lon="5.78782">
        <ele>1127.4</ele>
        <time>2025-10-05T09:44:01Z</time>
      </trkpt>
      <trkpt lat="43.33422" lon="5.78782">
        <ele>1127.5</ele>
        <time>2025-10-05T09:44:02Z</time>
      </trkpt>
      <trkpt lat="43.33422" lon="5.78782">
        <ele>1127.6</ele>
        <time>2025-10-05T09:44:03Z</time>
      </trkpt>
      <trkpt lat="43.33423" lon="5.78781">
        <ele>1128</ele>
        <time>2025-10-05T09:44:04Z</time>
      </trkpt>
      <trkpt lat="43.33423" lon="5.78781">
        <ele>1128.2</ele>
        <time>2025-10-05T09:44:05Z</time>
      </trkpt>
      <trkpt lat="43.33423" lon="5.78781">
        <ele>1128.2</ele>
        <time>2025-10-05T09:44:06Z</time>
      </trkpt>
      <trkpt lat="43.33422" lon="5.78782">
        <ele>1128.3</ele>
        <time>2025-10-05T09:44:07Z</time>
      </trkpt>
      <trkpt lat="43.33423" lon="5.78781">
        <ele>1128.3</ele>
        <time>2025-10-05T09:44:08Z</time>
      </trkpt>
      <trkpt lat="43.33423" lon="5.78782">
        <ele>1128.3</ele>
        <time>2025-10-05T09:44:09Z</time>
      </trkpt>
      <trkpt lat="43.33423" lon="5.78782">
        <ele>1128.3</ele>
        <time>2025-10-05T09:44:10Z</time>
      </trkpt>
      <trkpt lat="43.33423" lon="5.78782">
        <ele>1128.3</ele>
        <time>2025-10-05T09:44:11Z</time>
      </trkpt>
      <trkpt lat="43.33423" lon="5.78782">
        <ele>1128.8</ele>
        <time>2025-10-05T09:44:12Z</time>
      </trkpt>
      <trkpt lat="43.33423" lon="5.78782">
        <ele>1129.4</ele>
        <time>2025-10-05T09:44:13Z</time>
      </trkpt>
      <trkpt lat="43.33423" lon="5.78782">
        <ele>1129.9</ele>
        <time>2025-10-05T09:44:14Z</time>
      </trkpt>
      <trkpt lat="43.33423" lon="5.78782">
        <ele>1130.2</ele>
        <time>2025-10-05T09:44:15Z</time>
      </trkpt>
      <trkpt lat="43.33423" lon="5.78783">
        <ele>1130.1</ele>
        <time>2025-10-05T09:44:16Z</time>
      </trkpt>
      <trkpt lat="43.33423" lon="5.78783">
        <ele>1130.6</ele>
        <time>2025-10-05T09:44:17Z</time>
      </trkpt>
      <trkpt lat="43.33423" lon="5.78783">
        <ele>1130.5</ele>
        <time>2025-10-05T09:44:18Z</time>
      </trkpt>
      <trkpt lat="43.33423" lon="5.78784">
        <ele>1131.4</ele>
        <time>2025-10-05T09:44:19Z</time>
      </trkpt>
      <trkpt lat="43.33423" lon="5.78785">
        <ele>1132.7</ele>
        <time>2025-10-05T09:44:20Z</time>
      </trkpt>
      <trkpt lat="43.33422" lon="5.78786">
        <ele>1132.7</ele>
        <time>2025-10-05T09:44:21Z</time>
      </trkpt>
      <trkpt lat="43.33421" lon="5.78786">
        <ele>1133</ele>
        <time>2025-10-05T09:44:22Z</time>
      </trkpt>
      <trkpt lat="43.33422" lon="5.78787">
        <ele>1133</ele>
        <time>2025-10-05T09:44:23Z</time>
      </trkpt>
      <trkpt lat="43.33422" lon="5.78787">
        <ele>1133.1</ele>
        <time>2025-10-05T09:44:24Z</time>
      </trkpt>
      <trkpt lat="43.33422" lon="5.78788">
        <ele>1133.5</ele>
        <time>2025-10-05T09:44:25Z</time>
      </trkpt>
      <trkpt lat="43.33422" lon="5.78788">
        <ele>1133.7</ele>
        <time>2025-10-05T09:44:26Z</time>
      </trkpt>
      <trkpt lat="43.33422" lon="5.78788">
        <ele>1133.5</ele>
        <time>2025-10-05T09:44:27Z</time>
      </trkpt>
      <trkpt lat="43.33422" lon="5.78788">
        <ele>1133.5</ele>
        <time>2025-10-05T09:44:28Z</time>
      </trkpt>
      <trkpt lat="43.33422" lon="5.78788">
        <ele>1133.8</ele>
        <time>2025-10-05T09:44:29Z</time>
      </trkpt>
      <trkpt lat="43.33421" lon="5.78788">
        <ele>1134.3</ele>
        <time>2025-10-05T09:44:30Z</time>
      </trkpt>
      <trkpt lat="43.33421" lon="5.78788">
        <ele>1134.4</ele>
        <time>2025-10-05T09:44:31Z</time>
      </trkpt>
      <trkpt lat="43.33421" lon="5.78789">
        <ele>1134.4</ele>
        <time>2025-10-05T09:44:32Z</time>
      </trkpt>
      <trkpt lat="43.33421" lon="5.78789">
        <ele>1133.9</ele>
        <time>2025-10-05T09:44:33Z</time>
      </trkpt>
      <trkpt lat="43.33421" lon="5.78789">
        <ele>1134</ele>
        <time>2025-10-05T09:44:34Z</time>
      </trkpt>
      <trkpt lat="43.33421" lon="5.78789">
        <ele>1134.5</ele>
        <time>2025-10-05T09:44:35Z</time>
      </trkpt>
      <trkpt lat="43.33421" lon="5.78789">
        <ele>1134.5</ele>
        <time>2025-10-05T09:44:36Z</time>
      </trkpt>
      <trkpt lat="43.33421" lon="5.78789">
        <ele>1135.3</ele>
        <time>2025-10-05T09:44:37Z</time>
      </trkpt>
      <trkpt lat="43.33421" lon="5.78789">
        <ele>1135.7</ele>
        <time>2025-10-05T09:44:38Z</time>
      </trkpt>
      <trkpt lat="43.33421" lon="5.78789">
        <ele>1134.8</ele>
        <time>2025-10-05T09:44:39Z</time>
      </trkpt>
      <trkpt lat="43.33421" lon="5.78789">
        <ele>1134.7</ele>
        <time>2025-10-05T09:44:40Z</time>
      </trkpt>
      <trkpt lat="43.33421" lon="5.78789">
        <ele>1134.6</ele>
        <time>2025-10-05T09:44:41Z</time>
      </trkpt>
      <trkpt lat="43.33421" lon="5.78789">
        <ele>1134.5</ele>
        <time>2025-10-05T09:44:42Z</time>
      </trkpt>
      <trkpt lat="43.33421" lon="5.78789">
        <ele>1133.9</ele>
        <time>2025-10-05T09:44:43Z</time>
      </trkpt>
      <trkpt lat="43.33421" lon="5.7879">
        <ele>1134.3</ele>
        <time>2025-10-05T09:44:44Z</time>
      </trkpt>
      <trkpt lat="43.33421" lon="5.7879">
        <ele>1134.6</ele>
        <time>2025-10-05T09:44:45Z</time>
      </trkpt>
      <trkpt lat="43.33421" lon="5.7879">
        <ele>1135</ele>
        <time>2025-10-05T09:44:46Z</time>
      </trkpt>
      <trkpt lat="43.3342" lon="5.7879">
        <ele>1134.9</ele>
        <time>2025-10-05T09:44:47Z</time>
      </trkpt>
      <trkpt lat="43.3342" lon="5.7879">
        <ele>1135.1</ele>
        <time>2025-10-05T09:44:48Z</time>
      </trkpt>
      <trkpt lat="43.3342" lon="5.7879">
        <ele>1135.4</ele>
        <time>2025-10-05T09:44:49Z</time>
      </trkpt>
      <trkpt lat="43.3342" lon="5.7879">
        <ele>1135</ele>
        <time>2025-10-05T09:44:50Z</time>
      </trkpt>
      <trkpt lat="43.3342" lon="5.7879">
        <ele>1136</ele>
        <time>2025-10-05T09:44:51Z</time>
      </trkpt>
      <trkpt lat="43.3342" lon="5.7879">
        <ele>1136.1</ele>
        <time>2025-10-05T09:44:52Z</time>
      </trkpt>
      <trkpt lat="43.3342" lon="5.7879">
        <ele>1135.6</ele>
        <time>2025-10-05T09:44:53Z</time>
      </trkpt>
      <trkpt lat="43.3342" lon="5.7879">
        <ele>1135.4</ele>
        <time>2025-10-05T09:44:54Z</time>
      </trkpt>
      <trkpt lat="43.3342" lon="5.7879">
        <ele>1134.8</ele>
        <time>2025-10-05T09:44:55Z</time>
      </trkpt>
      <trkpt lat="43.3342" lon="5.7879">
        <ele>1134.5</ele>
        <time>2025-10-05T09:44:56Z</time>
      </trkpt>
      <trkpt lat="43.3342" lon="5.78791">
        <ele>1134.2</ele>
        <time>2025-10-05T09:44:57Z</time>
      </trkpt>
      <trkpt lat="43.3342" lon="5.78791">
        <ele>1134.3</ele>
        <time>2025-10-05T09:44:58Z</time>
      </trkpt>
      <trkpt lat="43.3342" lon="5.78791">
        <ele>1134.3</ele>
        <time>2025-10-05T09:44:59Z</time>
      </trkpt>
      <trkpt lat="43.3342" lon="5.78791">
        <ele>1134.3</ele>
        <time>2025-10-05T09:45:00Z</time>
      </trkpt>
      <trkpt lat="43.3342" lon="5.78791">
        <ele>1134.5</ele>
        <time>2025-10-05T09:45:01Z</time>
      </trkpt>
      <trkpt lat="43.33421" lon="5.78791">
        <ele>1134.9</ele>
        <time>2025-10-05T09:45:02Z</time>
      </trkpt>
      <trkpt lat="43.33421" lon="5.78791">
        <ele>1135.4</ele>
        <time>2025-10-05T09:45:03Z</time>
      </trkpt>
      <trkpt lat="43.33421" lon="5.78791">
        <ele>1135.8</ele>
        <time>2025-10-05T09:45:04Z</time>
      </trkpt>
      <trkpt lat="43.33421" lon="5.78791">
        <ele>1135.9</ele>
        <time>2025-10-05T09:45:05Z</time>
      </trkpt>
      <trkpt lat="43.33421" lon="5.78791">
        <ele>1136.1</ele>
        <time>2025-10-05T09:45:06Z</time>
      </trkpt>
      <trkpt lat="43.33421" lon="5.78792">
        <ele>1135.9</ele>
        <time>2025-10-05T09:45:07Z</time>
      </trkpt>
      <trkpt lat="43.33421" lon="5.78792">
        <ele>1135.9</ele>
        <time>2025-10-05T09:45:08Z</time>
      </trkpt>
      <trkpt lat="43.33421" lon="5.78792">
        <ele>1135.8</ele>
        <time>2025-10-05T09:45:09Z</time>
      </trkpt>
      <trkpt lat="43.33421" lon="5.78792">
        <ele>1135.7</ele>
        <time>2025-10-05T09:45:10Z</time>
      </trkpt>
      <trkpt lat="43.33421" lon="5.78792">
        <ele>1135.4</ele>
        <time>2025-10-05T09:45:11Z</time>
      </trkpt>
      <trkpt lat="43.33421" lon="5.78792">
        <ele>1135.9</ele>
        <time>2025-10-05T09:45:12Z</time>
      </trkpt>
      <trkpt lat="43.33421" lon="5.78792">
        <ele>1135.9</ele>
        <time>2025-10-05T09:45:13Z</time>
      </trkpt>
      <trkpt lat="43.33421" lon="5.78793">
        <ele>1135.8</ele>
        <time>2025-10-05T09:45:14Z</time>
      </trkpt>
      <trkpt lat="43.33421" lon="5.78793">
        <ele>1135.4</ele>
        <time>2025-10-05T09:45:15Z</time>
      </trkpt>
      <trkpt lat="43.33421" lon="5.78793">
        <ele>1135.1</ele>
        <time>2025-10-05T09:45:16Z</time>
      </trkpt>
      <trkpt lat="43.33421" lon="5.78793">
        <ele>1134.3</ele>
        <time>2025-10-05T09:45:17Z</time>
      </trkpt>
      <trkpt lat="43.33421" lon="5.78793">
        <ele>1135</ele>
        <time>2025-10-05T09:45:18Z</time>
      </trkpt>
      <trkpt lat="43.33421" lon="5.78793">
        <ele>1134.3</ele>
        <time>2025-10-05T09:45:19Z</time>
      </trkpt>
      <trkpt lat="43.33421" lon="5.78793">
        <ele>1134.6</ele>
        <time>2025-10-05T09:45:20Z</time>
      </trkpt>
      <trkpt lat="43.33421" lon="5.78793">
        <ele>1134.6</ele>
        <time>2025-10-05T09:45:21Z</time>
      </trkpt>
      <trkpt lat="43.33422" lon="5.78793">
        <ele>1135.3</ele>
        <time>2025-10-05T09:45:22Z</time>
      </trkpt>
      <trkpt lat="43.33422" lon="5.78793">
        <ele>1135.9</ele>
        <time>2025-10-05T09:45:23Z</time>
      </trkpt>
      <trkpt lat="43.33422" lon="5.78793">
        <ele>1136.4</ele>
        <time>2025-10-05T09:45:24Z</time>
      </trkpt>
      <trkpt lat="43.33422" lon="5.78793">
        <ele>1136.8</ele>
        <time>2025-10-05T09:45:25Z</time>
      </trkpt>
      <trkpt lat="43.33422" lon="5.78793">
        <ele>1137.4</ele>
        <time>2025-10-05T09:45:26Z</time>
      </trkpt>
      <trkpt lat="43.33422" lon="5.78793">
        <ele>1137.2</ele>
        <time>2025-10-05T09:45:27Z</time>
      </trkpt>
      <trkpt lat="43.33422" lon="5.78793">
        <ele>1137.4</ele>
        <time>2025-10-05T09:45:28Z</time>
      </trkpt>
      <trkpt lat="43.33422" lon="5.78793">
        <ele>1137.1</ele>
        <time>2025-10-05T09:45:29Z</time>
      </trkpt>
      <trkpt lat="43.33422" lon="5.78793">
        <ele>1137.6</ele>
        <time>2025-10-05T09:45:30Z</time>
      </trkpt>
      <trkpt lat="43.33422" lon="5.78793">
        <ele>1138.1</ele>
        <time>2025-10-05T09:45:31Z</time>
      </trkpt>
      <trkpt lat="43.33422" lon="5.78793">
        <ele>1138.2</ele>
        <time>2025-10-05T09:45:32Z</time>
      </trkpt>
      <trkpt lat="43.33422" lon="5.78793">
        <ele>1138.1</ele>
        <time>2025-10-05T09:45:33Z</time>
      </trkpt>
      <trkpt lat="43.33422" lon="5.78793">
        <ele>1137.9</ele>
        <time>2025-10-05T09:45:34Z</time>
      </trkpt>
      <trkpt lat="43.33422" lon="5.78793">
        <ele>1137.3</ele>
        <time>2025-10-05T09:45:35Z</time>
      </trkpt>
      <trkpt lat="43.33422" lon="5.78793">
        <ele>1136.5</ele>
        <time>2025-10-05T09:45:36Z</time>
      </trkpt>
      <trkpt lat="43.33422" lon="5.78793">
        <ele>1136</ele>
        <time>2025-10-05T09:45:37Z</time>
      </trkpt>
      <trkpt lat="43.33422" lon="5.78793">
        <ele>1135.5</ele>
        <time>2025-10-05T09:45:38Z</time>
      </trkpt>
      <trkpt lat="43.33422" lon="5.78793">
        <ele>1135.1</ele>
        <time>2025-10-05T09:45:39Z</time>
      </trkpt>
      <trkpt lat="43.33422" lon="5.78793">
        <ele>1135.3</ele>
        <time>2025-10-05T09:45:40Z</time>
      </trkpt>
      <trkpt lat="43.33422" lon="5.78793">
        <ele>1134.9</ele>
        <time>2025-10-05T09:45:41Z</time>
      </trkpt>
      <trkpt lat="43.33422" lon="5.78793">
        <ele>1134.7</ele>
        <time>2025-10-05T09:45:42Z</time>
      </trkpt>
      <trkpt lat="43.33422" lon="5.78793">
        <ele>1134.6</ele>
        <time>2025-10-05T09:45:43Z</time>
      </trkpt>
      <trkpt lat="43.33422" lon="5.78793">
        <ele>1134.7</ele>
        <time>2025-10-05T09:45:44Z</time>
      </trkpt>
      <trkpt lat="43.33422" lon="5.78793">
        <ele>1135.5</ele>
        <time>2025-10-05T09:45:45Z</time>
      </trkpt>
      <trkpt lat="43.33422" lon="5.78792">
        <ele>1135.9</ele>
        <time>2025-10-05T09:45:46Z</time>
      </trkpt>
      <trkpt lat="43.33422" lon="5.78792">
        <ele>1135</ele>
        <time>2025-10-05T09:45:47Z</time>
      </trkpt>
      <trkpt lat="43.33422" lon="5.78791">
        <ele>1134.3</ele>
        <time>2025-10-05T09:45:48Z</time>
      </trkpt>
      <trkpt lat="43.33421" lon="5.7879">
        <ele>1134.1</ele>
        <time>2025-10-05T09:45:49Z</time>
      </trkpt>
      <trkpt lat="43.3342" lon="5.7879">
        <ele>1134.2</ele>
        <time>2025-10-05T09:45:50Z</time>
      </trkpt>
      <trkpt lat="43.3342" lon="5.7879">
        <ele>1134</ele>
        <time>2025-10-05T09:45:51Z</time>
      </trkpt>
      <trkpt lat="43.33419" lon="5.78789">
        <ele>1133.9</ele>
        <time>2025-10-05T09:45:52Z</time>
      </trkpt>
      <trkpt lat="43.33419" lon="5.78789">
        <ele>1134.3</ele>
        <time>2025-10-05T09:45:53Z</time>
      </trkpt>
      <trkpt lat="43.33419" lon="5.78789">
        <ele>1134.2</ele>
        <time>2025-10-05T09:45:54Z</time>
      </trkpt>
      <trkpt lat="43.33418" lon="5.78789">
        <ele>1134.4</ele>
        <time>2025-10-05T09:45:55Z</time>
      </trkpt>
      <trkpt lat="43.33417" lon="5.78788">
        <ele>1135</ele>
        <time>2025-10-05T09:45:56Z</time>
      </trkpt>
      <trkpt lat="43.33417" lon="5.78788">
        <ele>1135.1</ele>
        <time>2025-10-05T09:45:57Z</time>
      </trkpt>
      <trkpt lat="43.33416" lon="5.78788">
        <ele>1134.7</ele>
        <time>2025-10-05T09:45:58Z</time>
      </trkpt>
      <trkpt lat="43.33416" lon="5.78787">
        <ele>1134.3</ele>
        <time>2025-10-05T09:45:59Z</time>
      </trkpt>
      <trkpt lat="43.33415" lon="5.78787">
        <ele>1134.4</ele>
        <time>2025-10-05T09:46:00Z</time>
      </trkpt>
      <trkpt lat="43.33415" lon="5.78787">
        <ele>1134.5</ele>
        <time>2025-10-05T09:46:01Z</time>
      </trkpt>
      <trkpt lat="43.33414" lon="5.78787">
        <ele>1134.5</ele>
        <time>2025-10-05T09:46:02Z</time>
      </trkpt>
      <trkpt lat="43.33414" lon="5.78786">
        <ele>1134.5</ele>
        <time>2025-10-05T09:46:03Z</time>
      </trkpt>
      <trkpt lat="43.33413" lon="5.78786">
        <ele>1134.2</ele>
        <time>2025-10-05T09:46:04Z</time>
      </trkpt>
      <trkpt lat="43.33414" lon="5.78785">
        <ele>1134</ele>
        <time>2025-10-05T09:46:05Z</time>
      </trkpt>
      <trkpt lat="43.33414" lon="5.78784">
        <ele>1134.4</ele>
        <time>2025-10-05T09:46:06Z</time>
      </trkpt>
      <trkpt lat="43.33414" lon="5.78784">
        <ele>1134.6</ele>
        <time>2025-10-05T09:46:07Z</time>
      </trkpt>
      <trkpt lat="43.33414" lon="5.78783">
        <ele>1134.5</ele>
        <time>2025-10-05T09:46:08Z</time>
      </trkpt>
      <trkpt lat="43.33414" lon="5.78783">
        <ele>1134.3</ele>
        <time>2025-10-05T09:46:09Z</time>
      </trkpt>
      <trkpt lat="43.33414" lon="5.78783">
        <ele>1134.2</ele>
        <time>2025-10-05T09:46:10Z</time>
      </trkpt>
      <trkpt lat="43.33414" lon="5.78783">
        <ele>1134.3</ele>
        <time>2025-10-05T09:46:11Z</time>
      </trkpt>
      <trkpt lat="43.33414" lon="5.78783">
        <ele>1134.6</ele>
        <time>2025-10-05T09:46:12Z</time>
      </trkpt>
      <trkpt lat="43.33414" lon="5.78783">
        <ele>1134.8</ele>
        <time>2025-10-05T09:46:13Z</time>
      </trkpt>
      <trkpt lat="43.33414" lon="5.78783">
        <ele>1135.1</ele>
        <time>2025-10-05T09:46:14Z</time>
      </trkpt>
      <trkpt lat="43.33414" lon="5.78783">
        <ele>1135</ele>
        <time>2025-10-05T09:46:15Z</time>
      </trkpt>
      <trkpt lat="43.33414" lon="5.78783">
        <ele>1135</ele>
        <time>2025-10-05T09:46:16Z</time>
      </trkpt>
      <trkpt lat="43.33414" lon="5.78783">
        <ele>1134.9</ele>
        <time>2025-10-05T09:46:17Z</time>
      </trkpt>
      <trkpt lat="43.33414" lon="5.78783">
        <ele>1134.7</ele>
        <time>2025-10-05T09:46:18Z</time>
      </trkpt>
      <trkpt lat="43.33414" lon="5.78783">
        <ele>1134.8</ele>
        <time>2025-10-05T09:46:19Z</time>
      </trkpt>
      <trkpt lat="43.33414" lon="5.78783">
        <ele>1135.1</ele>
        <time>2025-10-05T09:46:20Z</time>
      </trkpt>
      <trkpt lat="43.33414" lon="5.78783">
        <ele>1135.1</ele>
        <time>2025-10-05T09:46:21Z</time>
      </trkpt>
      <trkpt lat="43.33414" lon="5.78782">
        <ele>1135.2</ele>
        <time>2025-10-05T09:46:22Z</time>
      </trkpt>
      <trkpt lat="43.33414" lon="5.78782">
        <ele>1135.1</ele>
        <time>2025-10-05T09:46:23Z</time>
      </trkpt>
      <trkpt lat="43.33414" lon="5.78782">
        <ele>1135.1</ele>
        <time>2025-10-05T09:46:24Z</time>
      </trkpt>
      <trkpt lat="43.33414" lon="5.78782">
        <ele>1134.8</ele>
        <time>2025-10-05T09:46:25Z</time>
      </trkpt>
      <trkpt lat="43.33414" lon="5.78782">
        <ele>1134.6</ele>
        <time>2025-10-05T09:46:26Z</time>
      </trkpt>
      <trkpt lat="43.33414" lon="5.78782">
        <ele>1134.4</ele>
        <time>2025-10-05T09:46:27Z</time>
      </trkpt>
      <trkpt lat="43.33414" lon="5.78782">
        <ele>1134.2</ele>
        <time>2025-10-05T09:46:28Z</time>
      </trkpt>
      <trkpt lat="43.33414" lon="5.78782">
        <ele>1134.1</ele>
        <time>2025-10-05T09:46:29Z</time>
      </trkpt>
      <trkpt lat="43.33414" lon="5.78782">
        <ele>1133.9</ele>
        <time>2025-10-05T09:46:30Z</time>
      </trkpt>
      <trkpt lat="43.33414" lon="5.78782">
        <ele>1133.5</ele>
        <time>2025-10-05T09:46:31Z</time>
      </trkpt>
      <trkpt lat="43.33414" lon="5.78782">
        <ele>1133.2</ele>
        <time>2025-10-05T09:46:32Z</time>
      </trkpt>
      <trkpt lat="43.33414" lon="5.78782">
        <ele>1133</ele>
        <time>2025-10-05T09:46:33Z</time>
      </trkpt>
      <trkpt lat="43.33414" lon="5.78782">
        <ele>1133.1</ele>
        <time>2025-10-05T09:46:34Z</time>
      </trkpt>
      <trkpt lat="43.33414" lon="5.78782">
        <ele>1133.2</ele>
        <time>2025-10-05T09:46:35Z</time>
      </trkpt>
      <trkpt lat="43.33414" lon="5.78782">
        <ele>1133.3</ele>
        <time>2025-10-05T09:46:36Z</time>
      </trkpt>
      <trkpt lat="43.33414" lon="5.78782">
        <ele>1133.3</ele>
        <time>2025-10-05T09:46:37Z</time>
      </trkpt>
      <trkpt lat="43.33414" lon="5.78782">
        <ele>1133.6</ele>
        <time>2025-10-05T09:46:38Z</time>
      </trkpt>
      <trkpt lat="43.33414" lon="5.78782">
        <ele>1133.8</ele>
        <time>2025-10-05T09:46:39Z</time>
      </trkpt>
      <trkpt lat="43.33414" lon="5.78782">
        <ele>1133.7</ele>
        <time>2025-10-05T09:46:40Z</time>
      </trkpt>
      <trkpt lat="43.33414" lon="5.78782">
        <ele>1134</ele>
        <time>2025-10-05T09:46:41Z</time>
      </trkpt>
      <trkpt lat="43.33414" lon="5.78782">
        <ele>1134.1</ele>
        <time>2025-10-05T09:46:42Z</time>
      </trkpt>
      <trkpt lat="43.33414" lon="5.78782">
        <ele>1134.1</ele>
        <time>2025-10-05T09:46:43Z</time>
      </trkpt>
      <trkpt lat="43.33414" lon="5.78782">
        <ele>1134.3</ele>
        <time>2025-10-05T09:46:44Z</time>
      </trkpt>
      <trkpt lat="43.33414" lon="5.78782">
        <ele>1134.3</ele>
        <time>2025-10-05T09:46:45Z</time>
      </trkpt>
      <trkpt lat="43.33414" lon="5.78782">
        <ele>1134.2</ele>
        <time>2025-10-05T09:46:46Z</time>
      </trkpt>
      <trkpt lat="43.33414" lon="5.78782">
        <ele>1134.2</ele>
        <time>2025-10-05T09:46:47Z</time>
      </trkpt>
      <trkpt lat="43.33414" lon="5.78782">
        <ele>1134.5</ele>
        <time>2025-10-05T09:46:48Z</time>
      </trkpt>
      <trkpt lat="43.33414" lon="5.78782">
        <ele>1134.7</ele>
        <time>2025-10-05T09:46:49Z</time>
      </trkpt>
      <trkpt lat="43.33414" lon="5.78782">
        <ele>1134.4</ele>
        <time>2025-10-05T09:46:50Z</time>
      </trkpt>
      <trkpt lat="43.33414" lon="5.78782">
        <ele>1133.9</ele>
        <time>2025-10-05T09:46:51Z</time>
      </trkpt>
      <trkpt lat="43.33414" lon="5.78782">
        <ele>1133.5</ele>
        <time>2025-10-05T09:46:52Z</time>
      </trkpt>
      <trkpt lat="43.33414" lon="5.78782">
        <ele>1133.2</ele>
        <time>2025-10-05T09:46:53Z</time>
      </trkpt>
      <trkpt lat="43.33414" lon="5.78782">
        <ele>1133</ele>
        <time>2025-10-05T09:46:54Z</time>
      </trkpt>
      <trkpt lat="43.33414" lon="5.78782">
        <ele>1132.9</ele>
        <time>2025-10-05T09:46:55Z</time>
      </trkpt>
      <trkpt lat="43.33414" lon="5.78782">
        <ele>1132.8</ele>
        <time>2025-10-05T09:46:56Z</time>
      </trkpt>
      <trkpt lat="43.33414" lon="5.78782">
        <ele>1132.7</ele>
        <time>2025-10-05T09:46:57Z</time>
      </trkpt>
      <trkpt lat="43.33414" lon="5.78782">
        <ele>1132.6</ele>
        <time>2025-10-05T09:46:58Z</time>
      </trkpt>
      <trkpt lat="43.33414" lon="5.78781">
        <ele>1132.5</ele>
        <time>2025-10-05T09:46:59Z</time>
      </trkpt>
      <trkpt lat="43.33414" lon="5.78782">
        <ele>1132.6</ele>
        <time>2025-10-05T09:47:00Z</time>
      </trkpt>
      <trkpt lat="43.33414" lon="5.78782">
        <ele>1132.7</ele>
        <time>2025-10-05T09:47:01Z</time>
      </trkpt>
      <trkpt lat="43.33414" lon="5.78782">
        <ele>1132.8</ele>
        <time>2025-10-05T09:47:02Z</time>
      </trkpt>
      <trkpt lat="43.33414" lon="5.78782">
        <ele>1132.8</ele>
        <time>2025-10-05T09:47:03Z</time>
      </trkpt>
      <trkpt lat="43.33414" lon="5.78782">
        <ele>1132.7</ele>
        <time>2025-10-05T09:47:04Z</time>
      </trkpt>
      <trkpt lat="43.33414" lon="5.78781">
        <ele>1132.6</ele>
        <time>2025-10-05T09:47:05Z</time>
      </trkpt>
      <trkpt lat="43.33414" lon="5.78781">
        <ele>1132.6</ele>
        <time>2025-10-05T09:47:06Z</time>
      </trkpt>
      <trkpt lat="43.33414" lon="5.78781">
        <ele>1132.5</ele>
        <time>2025-10-05T09:47:07Z</time>
      </trkpt>
      <trkpt lat="43.33414" lon="5.78781">
        <ele>1132.5</ele>
        <time>2025-10-05T09:47:08Z</time>
      </trkpt>
      <trkpt lat="43.33414" lon="5.78781">
        <ele>1132.5</ele>
        <time>2025-10-05T09:47:09Z</time>
      </trkpt>
      <trkpt lat="43.33414" lon="5.78781">
        <ele>1132.4</ele>
        <time>2025-10-05T09:47:10Z</time>
      </trkpt>
      <trkpt lat="43.33414" lon="5.78781">
        <ele>1132.4</ele>
        <time>2025-10-05T09:47:11Z</time>
      </trkpt>
      <trkpt lat="43.33414" lon="5.78781">
        <ele>1132.4</ele>
        <time>2025-10-05T09:47:12Z</time>
      </trkpt>
      <trkpt lat="43.33414" lon="5.78781">
        <ele>1132.3</ele>
        <time>2025-10-05T09:47:13Z</time>
      </trkpt>
      <trkpt lat="43.33414" lon="5.78781">
        <ele>1132.3</ele>
        <time>2025-10-05T09:47:14Z</time>
      </trkpt>
      <trkpt lat="43.33414" lon="5.78781">
        <ele>1132.3</ele>
        <time>2025-10-05T09:47:15Z</time>
      </trkpt>
      <trkpt lat="43.33414" lon="5.78781">
        <ele>1132.3</ele>
        <time>2025-10-05T09:47:16Z</time>
      </trkpt>
      <trkpt lat="43.33414" lon="5.78781">
        <ele>1132.3</ele>
        <time>2025-10-05T09:47:17Z</time>
      </trkpt>
      <trkpt lat="43.33414" lon="5.78781">
        <ele>1132.4</ele>
        <time>2025-10-05T09:47:18Z</time>
      </trkpt>
      <trkpt lat="43.33414" lon="5.78781">
        <ele>1132.4</ele>
        <time>2025-10-05T09:47:19Z</time>
      </trkpt>
      <trkpt lat="43.33414" lon="5.78781">
        <ele>1132.4</ele>
        <time>2025-10-05T09:47:20Z</time>
      </trkpt>
      <trkpt lat="43.33414" lon="5.78781">
        <ele>1132.8</ele>
        <time>2025-10-05T09:47:21Z</time>
      </trkpt>
      <trkpt lat="43.33414" lon="5.78781">
        <ele>1132.8</ele>
        <time>2025-10-05T09:47:22Z</time>
      </trkpt>
      <trkpt lat="43.33414" lon="5.78781">
        <ele>1132.8</ele>
        <time>2025-10-05T09:47:23Z</time>
      </trkpt>
      <trkpt lat="43.33414" lon="5.78781">
        <ele>1132.9</ele>
        <time>2025-10-05T09:47:24Z</time>
      </trkpt>
      <trkpt lat="43.33414" lon="5.78781">
        <ele>1133</ele>
        <time>2025-10-05T09:47:25Z</time>
      </trkpt>
      <trkpt lat="43.33414" lon="5.78781">
        <ele>1133</ele>
        <time>2025-10-05T09:47:26Z</time>
      </trkpt>
      <trkpt lat="43.33414" lon="5.78781">
        <ele>1133</ele>
        <time>2025-10-05T09:47:27Z</time>
      </trkpt>
      <trkpt lat="43.33414" lon="5.78781">
        <ele>1133</ele>
        <time>2025-10-05T09:47:28Z</time>
      </trkpt>
      <trkpt lat="43.33414" lon="5.78781">
        <ele>1133</ele>
        <time>2025-10-05T09:47:29Z</time>
      </trkpt>
      <trkpt lat="43.33414" lon="5.78781">
        <ele>1133.1</ele>
        <time>2025-10-05T09:47:30Z</time>
      </trkpt>
      <trkpt lat="43.33414" lon="5.78781">
        <ele>1133.1</ele>
        <time>2025-10-05T09:47:31Z</time>
      </trkpt>
      <trkpt lat="43.33414" lon="5.78781">
        <ele>1133.1</ele>
        <time>2025-10-05T09:47:32Z</time>
      </trkpt>
      <trkpt lat="43.33414" lon="5.78781">
        <ele>1133.1</ele>
        <time>2025-10-05T09:47:33Z</time>
      </trkpt>
      <trkpt lat="43.33414" lon="5.78781">
        <ele>1133.1</ele>
        <time>2025-10-05T09:47:34Z</time>
      </trkpt>
      <trkpt lat="43.33414" lon="5.78781">
        <ele>1133.1</ele>
        <time>2025-10-05T09:47:35Z</time>
      </trkpt>
      <trkpt lat="43.33414" lon="5.78781">
        <ele>1133.2</ele>
        <time>2025-10-05T09:47:36Z</time>
      </trkpt>
      <trkpt lat="43.33414" lon="5.78781">
        <ele>1132.8</ele>
        <time>2025-10-05T09:47:37Z</time>
      </trkpt>
      <trkpt lat="43.33414" lon="5.78781">
        <ele>1133.1</ele>
        <time>2025-10-05T09:47:38Z</time>
      </trkpt>
      <trkpt lat="43.33414" lon="5.78781">
        <ele>1133.1</ele>
        <time>2025-10-05T09:47:39Z</time>
      </trkpt>
      <trkpt lat="43.33414" lon="5.78781">
        <ele>1133.2</ele>
        <time>2025-10-05T09:47:40Z</time>
      </trkpt>
      <trkpt lat="43.33414" lon="5.78781">
        <ele>1133.2</ele>
        <time>2025-10-05T09:47:41Z</time>
      </trkpt>
      <trkpt lat="43.33414" lon="5.78781">
        <ele>1133.3</ele>
        <time>2025-10-05T09:47:42Z</time>
      </trkpt>
      <trkpt lat="43.33414" lon="5.78781">
        <ele>1133.4</ele>
        <time>2025-10-05T09:47:43Z</time>
      </trkpt>
      <trkpt lat="43.33414" lon="5.78781">
        <ele>1133.5</ele>
        <time>2025-10-05T09:47:44Z</time>
      </trkpt>
      <trkpt lat="43.33414" lon="5.78781">
        <ele>1133.7</ele>
        <time>2025-10-05T09:47:45Z</time>
      </trkpt>
      <trkpt lat="43.33414" lon="5.7878">
        <ele>1133.9</ele>
        <time>2025-10-05T09:47:46Z</time>
      </trkpt>
      <trkpt lat="43.33414" lon="5.7878">
        <ele>1134.1</ele>
        <time>2025-10-05T09:47:47Z</time>
      </trkpt>
      <trkpt lat="43.33414" lon="5.7878">
        <ele>1134.3</ele>
        <time>2025-10-05T09:47:48Z</time>
      </trkpt>
      <trkpt lat="43.33414" lon="5.7878">
        <ele>1134.6</ele>
        <time>2025-10-05T09:47:49Z</time>
      </trkpt>
      <trkpt lat="43.33414" lon="5.7878">
        <ele>1134.8</ele>
        <time>2025-10-05T09:47:50Z</time>
      </trkpt>
      <trkpt lat="43.33414" lon="5.7878">
        <ele>1135.1</ele>
        <time>2025-10-05T09:47:51Z</time>
      </trkpt>
      <trkpt lat="43.33414" lon="5.7878">
        <ele>1135.2</ele>
        <time>2025-10-05T09:47:52Z</time>
      </trkpt>
      <trkpt lat="43.33414" lon="5.7878">
        <ele>1135.4</ele>
        <time>2025-10-05T09:47:53Z</time>
      </trkpt>
      <trkpt lat="43.33414" lon="5.7878">
        <ele>1135.7</ele>
        <time>2025-10-05T09:47:54Z</time>
      </trkpt>
      <trkpt lat="43.33414" lon="5.7878">
        <ele>1136</ele>
        <time>2025-10-05T09:47:55Z</time>
      </trkpt>
      <trkpt lat="43.33414" lon="5.7878">
        <ele>1136</ele>
        <time>2025-10-05T09:47:56Z</time>
      </trkpt>
      <trkpt lat="43.33414" lon="5.7878">
        <ele>1135.8</ele>
        <time>2025-10-05T09:47:57Z</time>
      </trkpt>
      <trkpt lat="43.33414" lon="5.7878">
        <ele>1135.6</ele>
        <time>2025-10-05T09:47:58Z</time>
      </trkpt>
      <trkpt lat="43.33414" lon="5.7878">
        <ele>1135.5</ele>
        <time>2025-10-05T09:47:59Z</time>
      </trkpt>
      <trkpt lat="43.33414" lon="5.7878">
        <ele>1135.5</ele>
        <time>2025-10-05T09:48:00Z</time>
      </trkpt>
      <trkpt lat="43.33414" lon="5.7878">
        <ele>1135.6</ele>
        <time>2025-10-05T09:48:01Z</time>
      </trkpt>
      <trkpt lat="43.33414" lon="5.7878">
        <ele>1135.6</ele>
        <time>2025-10-05T09:48:02Z</time>
      </trkpt>
      <trkpt lat="43.33414" lon="5.7878">
        <ele>1135.7</ele>
        <time>2025-10-05T09:48:03Z</time>
      </trkpt>
      <trkpt lat="43.33414" lon="5.7878">
        <ele>1135.8</ele>
        <time>2025-10-05T09:48:04Z</time>
      </trkpt>
      <trkpt lat="43.33414" lon="5.7878">
        <ele>1135.7</ele>
        <time>2025-10-05T09:48:05Z</time>
      </trkpt>
      <trkpt lat="43.33414" lon="5.7878">
        <ele>1135.6</ele>
        <time>2025-10-05T09:48:06Z</time>
      </trkpt>
      <trkpt lat="43.33414" lon="5.7878">
        <ele>1135.5</ele>
        <time>2025-10-05T09:48:07Z</time>
      </trkpt>
      <trkpt lat="43.33414" lon="5.7878">
        <ele>1135.4</ele>
        <time>2025-10-05T09:48:08Z</time>
      </trkpt>
      <trkpt lat="43.33414" lon="5.7878">
        <ele>1135.2</ele>
        <time>2025-10-05T09:48:09Z</time>
      </trkpt>
      <trkpt lat="43.33414" lon="5.7878">
        <ele>1135.1</ele>
        <time>2025-10-05T09:48:10Z</time>
      </trkpt>
      <trkpt lat="43.33414" lon="5.78779">
        <ele>1134.7</ele>
        <time>2025-10-05T09:48:11Z</time>
      </trkpt>
      <trkpt lat="43.33414" lon="5.78779">
        <ele>1134.6</ele>
        <time>2025-10-05T09:48:12Z</time>
      </trkpt>
      <trkpt lat="43.33414" lon="5.78779">
        <ele>1134.4</ele>
        <time>2025-10-05T09:48:13Z</time>
      </trkpt>
      <trkpt lat="43.33414" lon="5.78779">
        <ele>1134.2</ele>
        <time>2025-10-05T09:48:14Z</time>
      </trkpt>
      <trkpt lat="43.33414" lon="5.78779">
        <ele>1133.9</ele>
        <time>2025-10-05T09:48:15Z</time>
      </trkpt>
      <trkpt lat="43.33414" lon="5.78779">
        <ele>1133.7</ele>
        <time>2025-10-05T09:48:16Z</time>
      </trkpt>
      <trkpt lat="43.33414" lon="5.78779">
        <ele>1133.5</ele>
        <time>2025-10-05T09:48:17Z</time>
      </trkpt>
      <trkpt lat="43.33414" lon="5.78779">
        <ele>1133.4</ele>
        <time>2025-10-05T09:48:18Z</time>
      </trkpt>
      <trkpt lat="43.33414" lon="5.78779">
        <ele>1133.2</ele>
        <time>2025-10-05T09:48:19Z</time>
      </trkpt>
      <trkpt lat="43.33414" lon="5.78779">
        <ele>1133</ele>
        <time>2025-10-05T09:48:20Z</time>
      </trkpt>
      <trkpt lat="43.33414" lon="5.78779">
        <ele>1132.8</ele>
        <time>2025-10-05T09:48:21Z</time>
      </trkpt>
      <trkpt lat="43.33414" lon="5.78779">
        <ele>1132.6</ele>
        <time>2025-10-05T09:48:22Z</time>
      </trkpt>
      <trkpt lat="43.33414" lon="5.78779">
        <ele>1132.4</ele>
        <time>2025-10-05T09:48:23Z</time>
      </trkpt>
      <trkpt lat="43.33414" lon="5.78779">
        <ele>1132.4</ele>
        <time>2025-10-05T09:48:24Z</time>
      </trkpt>
      <trkpt lat="43.33414" lon="5.78779">
        <ele>1132.5</ele>
        <time>2025-10-05T09:48:25Z</time>
      </trkpt>
      <trkpt lat="43.33414" lon="5.78779">
        <ele>1132.6</ele>
        <time>2025-10-05T09:48:26Z</time>
      </trkpt>
      <trkpt lat="43.33414" lon="5.78779">
        <ele>1132.5</ele>
        <time>2025-10-05T09:48:27Z</time>
      </trkpt>
      <trkpt lat="43.33414" lon="5.78779">
        <ele>1132.4</ele>
        <time>2025-10-05T09:48:28Z</time>
      </trkpt>
      <trkpt lat="43.33414" lon="5.78779">
        <ele>1132.3</ele>
        <time>2025-10-05T09:48:29Z</time>
      </trkpt>
      <trkpt lat="43.33414" lon="5.78778">
        <ele>1132.3</ele>
        <time>2025-10-05T09:48:30Z</time>
      </trkpt>
      <trkpt lat="43.33414" lon="5.78778">
        <ele>1132.3</ele>
        <time>2025-10-05T09:48:31Z</time>
      </trkpt>
      <trkpt lat="43.33414" lon="5.78778">
        <ele>1132.3</ele>
        <time>2025-10-05T09:48:32Z</time>
      </trkpt>
      <trkpt lat="43.33414" lon="5.78778">
        <ele>1132.5</ele>
        <time>2025-10-05T09:48:33Z</time>
      </trkpt>
      <trkpt lat="43.33414" lon="5.78778">
        <ele>1132.6</ele>
        <time>2025-10-05T09:48:34Z</time>
      </trkpt>
      <trkpt lat="43.33414" lon="5.78778">
        <ele>1132.7</ele>
        <time>2025-10-05T09:48:35Z</time>
      </trkpt>
      <trkpt lat="43.33414" lon="5.78778">
        <ele>1132.7</ele>
        <time>2025-10-05T09:48:36Z</time>
      </trkpt>
      <trkpt lat="43.33414" lon="5.78778">
        <ele>1132.7</ele>
        <time>2025-10-05T09:48:37Z</time>
      </trkpt>
      <trkpt lat="43.33414" lon="5.78778">
        <ele>1132.7</ele>
        <time>2025-10-05T09:48:38Z</time>
      </trkpt>
      <trkpt lat="43.33414" lon="5.78779">
        <ele>1132.7</ele>
        <time>2025-10-05T09:48:39Z</time>
      </trkpt>
      <trkpt lat="43.33414" lon="5.78779">
        <ele>1132.7</ele>
        <time>2025-10-05T09:48:40Z</time>
      </trkpt>
      <trkpt lat="43.33414" lon="5.78779">
        <ele>1132.7</ele>
        <time>2025-10-05T09:48:41Z</time>
      </trkpt>
      <trkpt lat="43.33414" lon="5.78779">
        <ele>1132.8</ele>
        <time>2025-10-05T09:48:42Z</time>
      </trkpt>
      <trkpt lat="43.33414" lon="5.78779">
        <ele>1132.9</ele>
        <time>2025-10-05T09:48:43Z</time>
      </trkpt>
      <trkpt lat="43.33414" lon="5.78779">
        <ele>1133.1</ele>
        <time>2025-10-05T09:48:44Z</time>
      </trkpt>
      <trkpt lat="43.33414" lon="5.78779">
        <ele>1133.2</ele>
        <time>2025-10-05T09:48:45Z</time>
      </trkpt>
      <trkpt lat="43.33414" lon="5.78779">
        <ele>1133.5</ele>
        <time>2025-10-05T09:48:46Z</time>
      </trkpt>
      <trkpt lat="43.33414" lon="5.78779">
        <ele>1133.7</ele>
        <time>2025-10-05T09:48:47Z</time>
      </trkpt>
      <trkpt lat="43.33414" lon="5.78779">
        <ele>1133.8</ele>
        <time>2025-10-05T09:48:48Z</time>
      </trkpt>
      <trkpt lat="43.33414" lon="5.78779">
        <ele>1133.9</ele>
        <time>2025-10-05T09:48:49Z</time>
      </trkpt>
      <trkpt lat="43.33414" lon="5.78779">
        <ele>1134</ele>
        <time>2025-10-05T09:48:50Z</time>
      </trkpt>
      <trkpt lat="43.33414" lon="5.78779">
        <ele>1134.2</ele>
        <time>2025-10-05T09:48:51Z</time>
      </trkpt>
      <trkpt lat="43.33414" lon="5.78779">
        <ele>1134.3</ele>
        <time>2025-10-05T09:48:52Z</time>
      </trkpt>
      <trkpt lat="43.33414" lon="5.78779">
        <ele>1134.4</ele>
        <time>2025-10-05T09:48:53Z</time>
      </trkpt>
      <trkpt lat="43.33414" lon="5.78779">
        <ele>1134.6</ele>
        <time>2025-10-05T09:48:54Z</time>
      </trkpt>
      <trkpt lat="43.33414" lon="5.78779">
        <ele>1135</ele>
        <time>2025-10-05T09:48:55Z</time>
      </trkpt>
      <trkpt lat="43.33414" lon="5.78779">
        <ele>1135.3</ele>
        <time>2025-10-05T09:48:56Z</time>
      </trkpt>
      <trkpt lat="43.33414" lon="5.78779">
        <ele>1135.4</ele>
        <time>2025-10-05T09:48:57Z</time>
      </trkpt>
      <trkpt lat="43.33414" lon="5.78779">
        <ele>1135.4</ele>
        <time>2025-10-05T09:48:58Z</time>
      </trkpt>
      <trkpt lat="43.33414" lon="5.78779">
        <ele>1135.6</ele>
        <time>2025-10-05T09:48:59Z</time>
      </trkpt>
      <trkpt lat="43.33414" lon="5.78779">
        <ele>1135.8</ele>
        <time>2025-10-05T09:49:00Z</time>
      </trkpt>
      <trkpt lat="43.33414" lon="5.78779">
        <ele>1136</ele>
        <time>2025-10-05T09:49:01Z</time>
      </trkpt>
      <trkpt lat="43.33414" lon="5.78779">
        <ele>1136.1</ele>
        <time>2025-10-05T09:49:02Z</time>
      </trkpt>
      <trkpt lat="43.33414" lon="5.78779">
        <ele>1136.2</ele>
        <time>2025-10-05T09:49:03Z</time>
      </trkpt>
      <trkpt lat="43.33414" lon="5.7878">
        <ele>1136.2</ele>
        <time>2025-10-05T09:49:04Z</time>
      </trkpt>
      <trkpt lat="43.33414" lon="5.7878">
        <ele>1136.1</ele>
        <time>2025-10-05T09:49:05Z</time>
      </trkpt>
      <trkpt lat="43.33414" lon="5.7878">
        <ele>1136</ele>
        <time>2025-10-05T09:49:06Z</time>
      </trkpt>
      <trkpt lat="43.33414" lon="5.7878">
        <ele>1136</ele>
        <time>2025-10-05T09:49:07Z</time>
      </trkpt>
      <trkpt lat="43.33414" lon="5.7878">
        <ele>1136.1</ele>
        <time>2025-10-05T09:49:08Z</time>
      </trkpt>
      <trkpt lat="43.33414" lon="5.7878">
        <ele>1136.5</ele>
        <time>2025-10-05T09:49:09Z</time>
      </trkpt>
      <trkpt lat="43.33414" lon="5.7878">
        <ele>1136.8</ele>
        <time>2025-10-05T09:49:10Z</time>
      </trkpt>
      <trkpt lat="43.33414" lon="5.7878">
        <ele>1136.9</ele>
        <time>2025-10-05T09:49:11Z</time>
      </trkpt>
      <trkpt lat="43.33414" lon="5.7878">
        <ele>1136.9</ele>
        <time>2025-10-05T09:49:12Z</time>
      </trkpt>
      <trkpt lat="43.33414" lon="5.7878">
        <ele>1137</ele>
        <time>2025-10-05T09:49:13Z</time>
      </trkpt>
      <trkpt lat="43.33414" lon="5.7878">
        <ele>1137.1</ele>
        <time>2025-10-05T09:49:14Z</time>
      </trkpt>
      <trkpt lat="43.33414" lon="5.7878">
        <ele>1137.4</ele>
        <time>2025-10-05T09:49:15Z</time>
      </trkpt>
      <trkpt lat="43.33414" lon="5.7878">
        <ele>1137.3</ele>
        <time>2025-10-05T09:49:16Z</time>
      </trkpt>
      <trkpt lat="43.33414" lon="5.7878">
        <ele>1137.4</ele>
        <time>2025-10-05T09:49:17Z</time>
      </trkpt>
      <trkpt lat="43.33414" lon="5.7878">
        <ele>1137.3</ele>
        <time>2025-10-05T09:49:18Z</time>
      </trkpt>
      <trkpt lat="43.33414" lon="5.7878">
        <ele>1137.4</ele>
        <time>2025-10-05T09:49:19Z</time>
      </trkpt>
      <trkpt lat="43.33414" lon="5.7878">
        <ele>1137.4</ele>
        <time>2025-10-05T09:49:20Z</time>
      </trkpt>
      <trkpt lat="43.33414" lon="5.7878">
        <ele>1137.3</ele>
        <time>2025-10-05T09:49:21Z</time>
      </trkpt>
      <trkpt lat="43.33414" lon="5.7878">
        <ele>1137.3</ele>
        <time>2025-10-05T09:49:22Z</time>
      </trkpt>
      <trkpt lat="43.33414" lon="5.7878">
        <ele>1137.2</ele>
        <time>2025-10-05T09:49:23Z</time>
      </trkpt>
      <trkpt lat="43.33414" lon="5.7878">
        <ele>1137.1</ele>
        <time>2025-10-05T09:49:24Z</time>
      </trkpt>
      <trkpt lat="43.33414" lon="5.7878">
        <ele>1137</ele>
        <time>2025-10-05T09:49:25Z</time>
      </trkpt>
      <trkpt lat="43.33414" lon="5.7878">
        <ele>1136.8</ele>
        <time>2025-10-05T09:49:26Z</time>
      </trkpt>
      <trkpt lat="43.33414" lon="5.7878">
        <ele>1136.6</ele>
        <time>2025-10-05T09:49:27Z</time>
      </trkpt>
      <trkpt lat="43.33414" lon="5.78779">
        <ele>1136.5</ele>
        <time>2025-10-05T09:49:28Z</time>
      </trkpt>
      <trkpt lat="43.33414" lon="5.7878">
        <ele>1136.6</ele>
        <time>2025-10-05T09:49:29Z</time>
      </trkpt>
      <trkpt lat="43.33414" lon="5.7878">
        <ele>1136.5</ele>
        <time>2025-10-05T09:49:30Z</time>
      </trkpt>
      <trkpt lat="43.33414" lon="5.78779">
        <ele>1136.6</ele>
        <time>2025-10-05T09:49:31Z</time>
      </trkpt>
      <trkpt lat="43.33414" lon="5.7878">
        <ele>1136.3</ele>
        <time>2025-10-05T09:49:32Z</time>
      </trkpt>
      <trkpt lat="43.33414" lon="5.7878">
        <ele>1136.1</ele>
        <time>2025-10-05T09:49:33Z</time>
      </trkpt>
      <trkpt lat="43.33414" lon="5.7878">
        <ele>1135.9</ele>
        <time>2025-10-05T09:49:34Z</time>
      </trkpt>
      <trkpt lat="43.33414" lon="5.7878">
        <ele>1135.4</ele>
        <time>2025-10-05T09:49:35Z</time>
      </trkpt>
      <trkpt lat="43.33414" lon="5.7878">
        <ele>1135.1</ele>
        <time>2025-10-05T09:49:36Z</time>
      </trkpt>
      <trkpt lat="43.33414" lon="5.7878">
        <ele>1134.9</ele>
        <time>2025-10-05T09:49:37Z</time>
      </trkpt>
      <trkpt lat="43.33414" lon="5.7878">
        <ele>1135</ele>
        <time>2025-10-05T09:49:38Z</time>
      </trkpt>
      <trkpt lat="43.33414" lon="5.7878">
        <ele>1134.9</ele>
        <time>2025-10-05T09:49:39Z</time>
      </trkpt>
      <trkpt lat="43.33414" lon="5.7878">
        <ele>1134.9</ele>
        <time>2025-10-05T09:49:40Z</time>
      </trkpt>
      <trkpt lat="43.33414" lon="5.7878">
        <ele>1134.9</ele>
        <time>2025-10-05T09:49:41Z</time>
      </trkpt>
      <trkpt lat="43.33414" lon="5.7878">
        <ele>1135</ele>
        <time>2025-10-05T09:49:42Z</time>
      </trkpt>
      <trkpt lat="43.33414" lon="5.7878">
        <ele>1135</ele>
        <time>2025-10-05T09:49:43Z</time>
      </trkpt>
      <trkpt lat="43.33414" lon="5.7878">
        <ele>1135.1</ele>
        <time>2025-10-05T09:49:44Z</time>
      </trkpt>
      <trkpt lat="43.33414" lon="5.7878">
        <ele>1135</ele>
        <time>2025-10-05T09:49:45Z</time>
      </trkpt>
      <trkpt lat="43.33414" lon="5.7878">
        <ele>1134.9</ele>
        <time>2025-10-05T09:49:46Z</time>
      </trkpt>
      <trkpt lat="43.33414" lon="5.7878">
        <ele>1134.9</ele>
        <time>2025-10-05T09:49:47Z</time>
      </trkpt>
      <trkpt lat="43.33414" lon="5.7878">
        <ele>1134.7</ele>
        <time>2025-10-05T09:49:48Z</time>
      </trkpt>
      <trkpt lat="43.33414" lon="5.7878">
        <ele>1134.6</ele>
        <time>2025-10-05T09:49:49Z</time>
      </trkpt>
      <trkpt lat="43.33414" lon="5.7878">
        <ele>1134.4</ele>
        <time>2025-10-05T09:49:50Z</time>
      </trkpt>
      <trkpt lat="43.33414" lon="5.7878">
        <ele>1134.3</ele>
        <time>2025-10-05T09:49:51Z</time>
      </trkpt>
      <trkpt lat="43.33414" lon="5.7878">
        <ele>1134.3</ele>
        <time>2025-10-05T09:49:52Z</time>
      </trkpt>
      <trkpt lat="43.33414" lon="5.7878">
        <ele>1134.2</ele>
        <time>2025-10-05T09:49:53Z</time>
      </trkpt>
      <trkpt lat="43.33414" lon="5.78779">
        <ele>1134.1</ele>
        <time>2025-10-05T09:49:54Z</time>
      </trkpt>
      <trkpt lat="43.33414" lon="5.78779">
        <ele>1134</ele>
        <time>2025-10-05T09:49:55Z</time>
      </trkpt>
      <trkpt lat="43.33414" lon="5.78779">
        <ele>1134</ele>
        <time>2025-10-05T09:49:56Z</time>
      </trkpt>
      <trkpt lat="43.33414" lon="5.78779">
        <ele>1133.9</ele>
        <time>2025-10-05T09:49:57Z</time>
      </trkpt>
      <trkpt lat="43.33414" lon="5.78779">
        <ele>1133.8</ele>
        <time>2025-10-05T09:49:58Z</time>
      </trkpt>
      <trkpt lat="43.33414" lon="5.78779">
        <ele>1133.7</ele>
        <time>2025-10-05T09:49:59Z</time>
      </trkpt>
      <trkpt lat="43.33414" lon="5.78779">
        <ele>1133.7</ele>
        <time>2025-10-05T09:50:00Z</time>
      </trkpt>
      <trkpt lat="43.33414" lon="5.78779">
        <ele>1133.6</ele>
        <time>2025-10-05T09:50:01Z</time>
      </trkpt>
      <trkpt lat="43.33414" lon="5.78779">
        <ele>1133.7</ele>
        <time>2025-10-05T09:50:02Z</time>
      </trkpt>
      <trkpt lat="43.33414" lon="5.78779">
        <ele>1133.6</ele>
        <time>2025-10-05T09:50:03Z</time>
      </trkpt>
      <trkpt lat="43.33413" lon="5.78779">
        <ele>1133.5</ele>
        <time>2025-10-05T09:50:04Z</time>
      </trkpt>
      <trkpt lat="43.33413" lon="5.78779">
        <ele>1133.5</ele>
        <time>2025-10-05T09:50:05Z</time>
      </trkpt>
      <trkpt lat="43.33413" lon="5.78779">
        <ele>1133.4</ele>
        <time>2025-10-05T09:50:06Z</time>
      </trkpt>
      <trkpt lat="43.33413" lon="5.78779">
        <ele>1133.5</ele>
        <time>2025-10-05T09:50:07Z</time>
      </trkpt>
      <trkpt lat="43.33413" lon="5.78779">
        <ele>1133.4</ele>
        <time>2025-10-05T09:50:08Z</time>
      </trkpt>
      <trkpt lat="43.33413" lon="5.78779">
        <ele>1133.2</ele>
        <time>2025-10-05T09:50:09Z</time>
      </trkpt>
      <trkpt lat="43.33413" lon="5.78779">
        <ele>1133.1</ele>
        <time>2025-10-05T09:50:10Z</time>
      </trkpt>
      <trkpt lat="43.33413" lon="5.78779">
        <ele>1132.9</ele>
        <time>2025-10-05T09:50:11Z</time>
      </trkpt>
      <trkpt lat="43.33413" lon="5.78779">
        <ele>1132.7</ele>
        <time>2025-10-05T09:50:12Z</time>
      </trkpt>
      <trkpt lat="43.33413" lon="5.78779">
        <ele>1132.6</ele>
        <time>2025-10-05T09:50:13Z</time>
      </trkpt>
      <trkpt lat="43.33413" lon="5.78779">
        <ele>1132.5</ele>
        <time>2025-10-05T09:50:14Z</time>
      </trkpt>
      <trkpt lat="43.33413" lon="5.78779">
        <ele>1132.3</ele>
        <time>2025-10-05T09:50:15Z</time>
      </trkpt>
      <trkpt lat="43.33413" lon="5.78779">
        <ele>1132.1</ele>
        <time>2025-10-05T09:50:16Z</time>
      </trkpt>
      <trkpt lat="43.33413" lon="5.78779">
        <ele>1131.9</ele>
        <time>2025-10-05T09:50:17Z</time>
      </trkpt>
      <trkpt lat="43.33413" lon="5.78779">
        <ele>1131.7</ele>
        <time>2025-10-05T09:50:18Z</time>
      </trkpt>
      <trkpt lat="43.33413" lon="5.78779">
        <ele>1131.6</ele>
        <time>2025-10-05T09:50:19Z</time>
      </trkpt>
      <trkpt lat="43.33413" lon="5.78779">
        <ele>1131.6</ele>
        <time>2025-10-05T09:50:20Z</time>
      </trkpt>
      <trkpt lat="43.33413" lon="5.78779">
        <ele>1131.6</ele>
        <time>2025-10-05T09:50:21Z</time>
      </trkpt>
      <trkpt lat="43.33413" lon="5.78779">
        <ele>1131.5</ele>
        <time>2025-10-05T09:50:22Z</time>
      </trkpt>
      <trkpt lat="43.33413" lon="5.78779">
        <ele>1131.4</ele>
        <time>2025-10-05T09:50:23Z</time>
      </trkpt>
      <trkpt lat="43.33413" lon="5.78779">
        <ele>1131.3</ele>
        <time>2025-10-05T09:50:24Z</time>
      </trkpt>
      <trkpt lat="43.33413" lon="5.78779">
        <ele>1131.1</ele>
        <time>2025-10-05T09:50:25Z</time>
      </trkpt>
      <trkpt lat="43.33413" lon="5.78779">
        <ele>1131</ele>
        <time>2025-10-05T09:50:26Z</time>
      </trkpt>
      <trkpt lat="43.33413" lon="5.78779">
        <ele>1130.8</ele>
        <time>2025-10-05T09:50:27Z</time>
      </trkpt>
      <trkpt lat="43.33413" lon="5.78779">
        <ele>1130.7</ele>
        <time>2025-10-05T09:50:28Z</time>
      </trkpt>
      <trkpt lat="43.33413" lon="5.78779">
        <ele>1130.6</ele>
        <time>2025-10-05T09:50:29Z</time>
      </trkpt>
      <trkpt lat="43.33413" lon="5.78779">
        <ele>1130.6</ele>
        <time>2025-10-05T09:50:30Z</time>
      </trkpt>
      <trkpt lat="43.33413" lon="5.78779">
        <ele>1130.8</ele>
        <time>2025-10-05T09:50:31Z</time>
      </trkpt>
      <trkpt lat="43.33413" lon="5.78779">
        <ele>1131</ele>
        <time>2025-10-05T09:50:32Z</time>
      </trkpt>
      <trkpt lat="43.33413" lon="5.78779">
        <ele>1131.2</ele>
        <time>2025-10-05T09:50:33Z</time>
      </trkpt>
      <trkpt lat="43.33413" lon="5.78779">
        <ele>1131.3</ele>
        <time>2025-10-05T09:50:34Z</time>
      </trkpt>
      <trkpt lat="43.33413" lon="5.78779">
        <ele>1131.3</ele>
        <time>2025-10-05T09:50:35Z</time>
      </trkpt>
      <trkpt lat="43.33413" lon="5.78779">
        <ele>1131.3</ele>
        <time>2025-10-05T09:50:36Z</time>
      </trkpt>
      <trkpt lat="43.33413" lon="5.78779">
        <ele>1131.4</ele>
        <time>2025-10-05T09:50:37Z</time>
      </trkpt>
      <trkpt lat="43.33413" lon="5.78779">
        <ele>1131.4</ele>
        <time>2025-10-05T09:50:38Z</time>
      </trkpt>
      <trkpt lat="43.33413" lon="5.78779">
        <ele>1131.5</ele>
        <time>2025-10-05T09:50:39Z</time>
      </trkpt>
      <trkpt lat="43.33413" lon="5.7878">
        <ele>1131.5</ele>
        <time>2025-10-05T09:50:40Z</time>
      </trkpt>
      <trkpt lat="43.33413" lon="5.7878">
        <ele>1131.9</ele>
        <time>2025-10-05T09:50:41Z</time>
      </trkpt>
      <trkpt lat="43.33413" lon="5.7878">
        <ele>1132.3</ele>
        <time>2025-10-05T09:50:42Z</time>
      </trkpt>
      <trkpt lat="43.33413" lon="5.7878">
        <ele>1132.6</ele>
        <time>2025-10-05T09:50:43Z</time>
      </trkpt>
      <trkpt lat="43.33413" lon="5.7878">
        <ele>1132.8</ele>
        <time>2025-10-05T09:50:44Z</time>
      </trkpt>
      <trkpt lat="43.33413" lon="5.7878">
        <ele>1133.1</ele>
        <time>2025-10-05T09:50:45Z</time>
      </trkpt>
      <trkpt lat="43.33413" lon="5.7878">
        <ele>1133.3</ele>
        <time>2025-10-05T09:50:46Z</time>
      </trkpt>
      <trkpt lat="43.33413" lon="5.7878">
        <ele>1133.3</ele>
        <time>2025-10-05T09:50:47Z</time>
      </trkpt>
      <trkpt lat="43.33413" lon="5.7878">
        <ele>1133.3</ele>
        <time>2025-10-05T09:50:48Z</time>
      </trkpt>
      <trkpt lat="43.33413" lon="5.7878">
        <ele>1133.1</ele>
        <time>2025-10-05T09:50:49Z</time>
      </trkpt>
      <trkpt lat="43.33413" lon="5.7878">
        <ele>1133</ele>
        <time>2025-10-05T09:50:50Z</time>
      </trkpt>
      <trkpt lat="43.33413" lon="5.7878">
        <ele>1133.1</ele>
        <time>2025-10-05T09:50:51Z</time>
      </trkpt>
      <trkpt lat="43.33413" lon="5.7878">
        <ele>1133.2</ele>
        <time>2025-10-05T09:50:52Z</time>
      </trkpt>
      <trkpt lat="43.33413" lon="5.7878">
        <ele>1133.3</ele>
        <time>2025-10-05T09:50:53Z</time>
      </trkpt>
      <trkpt lat="43.33413" lon="5.7878">
        <ele>1133.5</ele>
        <time>2025-10-05T09:50:54Z</time>
      </trkpt>
      <trkpt lat="43.33413" lon="5.7878">
        <ele>1133.6</ele>
        <time>2025-10-05T09:50:55Z</time>
      </trkpt>
      <trkpt lat="43.33413" lon="5.7878">
        <ele>1133.5</ele>
        <time>2025-10-05T09:50:56Z</time>
      </trkpt>
      <trkpt lat="43.33413" lon="5.7878">
        <ele>1133.4</ele>
        <time>2025-10-05T09:50:57Z</time>
      </trkpt>
      <trkpt lat="43.33413" lon="5.7878">
        <ele>1133.5</ele>
        <time>2025-10-05T09:50:58Z</time>
      </trkpt>
      <trkpt lat="43.33413" lon="5.7878">
        <ele>1133.6</ele>
        <time>2025-10-05T09:50:59Z</time>
      </trkpt>
      <trkpt lat="43.33413" lon="5.7878">
        <ele>1133.6</ele>
        <time>2025-10-05T09:51:00Z</time>
      </trkpt>
      <trkpt lat="43.33413" lon="5.7878">
        <ele>1133.6</ele>
        <time>2025-10-05T09:51:01Z</time>
      </trkpt>
      <trkpt lat="43.33413" lon="5.7878">
        <ele>1133.6</ele>
        <time>2025-10-05T09:51:02Z</time>
      </trkpt>
      <trkpt lat="43.33413" lon="5.7878">
        <ele>1133.7</ele>
        <time>2025-10-05T09:51:03Z</time>
      </trkpt>
      <trkpt lat="43.33413" lon="5.7878">
        <ele>1133.7</ele>
        <time>2025-10-05T09:51:04Z</time>
      </trkpt>
      <trkpt lat="43.33413" lon="5.7878">
        <ele>1133.5</ele>
        <time>2025-10-05T09:51:05Z</time>
      </trkpt>
      <trkpt lat="43.33413" lon="5.7878">
        <ele>1133.5</ele>
        <time>2025-10-05T09:51:06Z</time>
      </trkpt>
      <trkpt lat="43.33413" lon="5.7878">
        <ele>1133.4</ele>
        <time>2025-10-05T09:51:07Z</time>
      </trkpt>
      <trkpt lat="43.33413" lon="5.7878">
        <ele>1133.4</ele>
        <time>2025-10-05T09:51:08Z</time>
      </trkpt>
      <trkpt lat="43.33413" lon="5.7878">
        <ele>1133.3</ele>
        <time>2025-10-05T09:51:09Z</time>
      </trkpt>
      <trkpt lat="43.33413" lon="5.7878">
        <ele>1133.2</ele>
        <time>2025-10-05T09:51:10Z</time>
      </trkpt>
      <trkpt lat="43.33413" lon="5.7878">
        <ele>1133</ele>
        <time>2025-10-05T09:51:11Z</time>
      </trkpt>
      <trkpt lat="43.33413" lon="5.7878">
        <ele>1132.9</ele>
        <time>2025-10-05T09:51:12Z</time>
      </trkpt>
      <trkpt lat="43.33413" lon="5.7878">
        <ele>1133</ele>
        <time>2025-10-05T09:51:13Z</time>
      </trkpt>
      <trkpt lat="43.33413" lon="5.78779">
        <ele>1133.1</ele>
        <time>2025-10-05T09:51:14Z</time>
      </trkpt>
      <trkpt lat="43.33413" lon="5.78779">
        <ele>1133</ele>
        <time>2025-10-05T09:51:15Z</time>
      </trkpt>
      <trkpt lat="43.33413" lon="5.78779">
        <ele>1133</ele>
        <time>2025-10-05T09:51:16Z</time>
      </trkpt>
      <trkpt lat="43.33413" lon="5.78779">
        <ele>1132.8</ele>
        <time>2025-10-05T09:51:17Z</time>
      </trkpt>
      <trkpt lat="43.33413" lon="5.78779">
        <ele>1132.7</ele>
        <time>2025-10-05T09:51:18Z</time>
      </trkpt>
      <trkpt lat="43.33413" lon="5.78779">
        <ele>1132.4</ele>
        <time>2025-10-05T09:51:19Z</time>
      </trkpt>
      <trkpt lat="43.33413" lon="5.78779">
        <ele>1132.4</ele>
        <time>2025-10-05T09:51:20Z</time>
      </trkpt>
      <trkpt lat="43.33413" lon="5.7878">
        <ele>1132.4</ele>
        <time>2025-10-05T09:51:21Z</time>
      </trkpt>
      <trkpt lat="43.33413" lon="5.7878">
        <ele>1132.4</ele>
        <time>2025-10-05T09:51:22Z</time>
      </trkpt>
      <trkpt lat="43.33413" lon="5.7878">
        <ele>1132.4</ele>
        <time>2025-10-05T09:51:23Z</time>
      </trkpt>
      <trkpt lat="43.33413" lon="5.7878">
        <ele>1132.3</ele>
        <time>2025-10-05T09:51:24Z</time>
      </trkpt>
      <trkpt lat="43.33413" lon="5.7878">
        <ele>1132.3</ele>
        <time>2025-10-05T09:51:25Z</time>
      </trkpt>
      <trkpt lat="43.33413" lon="5.7878">
        <ele>1132.4</ele>
        <time>2025-10-05T09:51:26Z</time>
      </trkpt>
      <trkpt lat="43.33413" lon="5.7878">
        <ele>1132.5</ele>
        <time>2025-10-05T09:51:27Z</time>
      </trkpt>
      <trkpt lat="43.33413" lon="5.7878">
        <ele>1132.3</ele>
        <time>2025-10-05T09:51:28Z</time>
      </trkpt>
      <trkpt lat="43.33413" lon="5.7878">
        <ele>1132.3</ele>
        <time>2025-10-05T09:51:29Z</time>
      </trkpt>
      <trkpt lat="43.33413" lon="5.7878">
        <ele>1132.2</ele>
        <time>2025-10-05T09:51:30Z</time>
      </trkpt>
      <trkpt lat="43.33413" lon="5.7878">
        <ele>1132.2</ele>
        <time>2025-10-05T09:51:31Z</time>
      </trkpt>
      <trkpt lat="43.33413" lon="5.7878">
        <ele>1132.2</ele>
        <time>2025-10-05T09:51:32Z</time>
      </trkpt>
      <trkpt lat="43.33413" lon="5.7878">
        <ele>1132.3</ele>
        <time>2025-10-05T09:51:33Z</time>
      </trkpt>
      <trkpt lat="43.33413" lon="5.7878">
        <ele>1132.2</ele>
        <time>2025-10-05T09:51:34Z</time>
      </trkpt>
      <trkpt lat="43.33413" lon="5.7878">
        <ele>1132.1</ele>
        <time>2025-10-05T09:51:35Z</time>
      </trkpt>
      <trkpt lat="43.33413" lon="5.7878">
        <ele>1131.8</ele>
        <time>2025-10-05T09:51:36Z</time>
      </trkpt>
      <trkpt lat="43.33413" lon="5.7878">
        <ele>1131.7</ele>
        <time>2025-10-05T09:51:37Z</time>
      </trkpt>
      <trkpt lat="43.33413" lon="5.7878">
        <ele>1131.6</ele>
        <time>2025-10-05T09:51:38Z</time>
      </trkpt>
      <trkpt lat="43.33413" lon="5.7878">
        <ele>1131.5</ele>
        <time>2025-10-05T09:51:39Z</time>
      </trkpt>
      <trkpt lat="43.33413" lon="5.7878">
        <ele>1131.6</ele>
        <time>2025-10-05T09:51:40Z</time>
      </trkpt>
      <trkpt lat="43.33413" lon="5.7878">
        <ele>1131.7</ele>
        <time>2025-10-05T09:51:41Z</time>
      </trkpt>
      <trkpt lat="43.33413" lon="5.7878">
        <ele>1131.8</ele>
        <time>2025-10-05T09:51:42Z</time>
      </trkpt>
      <trkpt lat="43.33413" lon="5.7878">
        <ele>1131.8</ele>
        <time>2025-10-05T09:51:43Z</time>
      </trkpt>
      <trkpt lat="43.33413" lon="5.7878">
        <ele>1131.7</ele>
        <time>2025-10-05T09:51:44Z</time>
      </trkpt>
      <trkpt lat="43.33413" lon="5.7878">
        <ele>1131.7</ele>
        <time>2025-10-05T09:51:45Z</time>
      </trkpt>
      <trkpt lat="43.33413" lon="5.7878">
        <ele>1131.6</ele>
        <time>2025-10-05T09:51:46Z</time>
      </trkpt>
      <trkpt lat="43.33413" lon="5.7878">
        <ele>1131.6</ele>
        <time>2025-10-05T09:51:47Z</time>
      </trkpt>
      <trkpt lat="43.33413" lon="5.7878">
        <ele>1131.5</ele>
        <time>2025-10-05T09:51:48Z</time>
      </trkpt>
      <trkpt lat="43.33413" lon="5.7878">
        <ele>1131.4</ele>
        <time>2025-10-05T09:51:49Z</time>
      </trkpt>
      <trkpt lat="43.33413" lon="5.7878">
        <ele>1131.3</ele>
        <time>2025-10-05T09:51:50Z</time>
      </trkpt>
      <trkpt lat="43.33413" lon="5.7878">
        <ele>1131.2</ele>
        <time>2025-10-05T09:51:51Z</time>
      </trkpt>
      <trkpt lat="43.33413" lon="5.7878">
        <ele>1131.2</ele>
        <time>2025-10-05T09:51:52Z</time>
      </trkpt>
      <trkpt lat="43.33413" lon="5.7878">
        <ele>1131.3</ele>
        <time>2025-10-05T09:51:53Z</time>
      </trkpt>
      <trkpt lat="43.33413" lon="5.7878">
        <ele>1131.3</ele>
        <time>2025-10-05T09:51:54Z</time>
      </trkpt>
      <trkpt lat="43.33413" lon="5.7878">
        <ele>1131.3</ele>
        <time>2025-10-05T09:51:55Z</time>
      </trkpt>
      <trkpt lat="43.33413" lon="5.7878">
        <ele>1131.1</ele>
        <time>2025-10-05T09:51:56Z</time>
      </trkpt>
      <trkpt lat="43.33413" lon="5.7878">
        <ele>1131</ele>
        <time>2025-10-05T09:51:57Z</time>
      </trkpt>
      <trkpt lat="43.33413" lon="5.7878">
        <ele>1131.1</ele>
        <time>2025-10-05T09:51:58Z</time>
      </trkpt>
      <trkpt lat="43.33413" lon="5.7878">
        <ele>1130.9</ele>
        <time>2025-10-05T09:51:59Z</time>
      </trkpt>
      <trkpt lat="43.33413" lon="5.7878">
        <ele>1130.9</ele>
        <time>2025-10-05T09:52:00Z</time>
      </trkpt>
      <trkpt lat="43.33413" lon="5.7878">
        <ele>1130.9</ele>
        <time>2025-10-05T09:52:01Z</time>
      </trkpt>
      <trkpt lat="43.33413" lon="5.7878">
        <ele>1130.9</ele>
        <time>2025-10-05T09:52:02Z</time>
      </trkpt>
      <trkpt lat="43.33413" lon="5.7878">
        <ele>1130.9</ele>
        <time>2025-10-05T09:52:03Z</time>
      </trkpt>
      <trkpt lat="43.33413" lon="5.7878">
        <ele>1130.9</ele>
        <time>2025-10-05T09:52:04Z</time>
      </trkpt>
      <trkpt lat="43.33413" lon="5.7878">
        <ele>1130.8</ele>
        <time>2025-10-05T09:52:05Z</time>
      </trkpt>
      <trkpt lat="43.33413" lon="5.7878">
        <ele>1130.8</ele>
        <time>2025-10-05T09:52:06Z</time>
      </trkpt>
      <trkpt lat="43.33413" lon="5.7878">
        <ele>1130.8</ele>
        <time>2025-10-05T09:52:07Z</time>
      </trkpt>
      <trkpt lat="43.33413" lon="5.7878">
        <ele>1131</ele>
        <time>2025-10-05T09:52:08Z</time>
      </trkpt>
      <trkpt lat="43.33413" lon="5.7878">
        <ele>1131.1</ele>
        <time>2025-10-05T09:52:09Z</time>
      </trkpt>
      <trkpt lat="43.33413" lon="5.7878">
        <ele>1131.1</ele>
        <time>2025-10-05T09:52:10Z</time>
      </trkpt>
      <trkpt lat="43.33413" lon="5.7878">
        <ele>1131.2</ele>
        <time>2025-10-05T09:52:11Z</time>
      </trkpt>
      <trkpt lat="43.33413" lon="5.7878">
        <ele>1131.2</ele>
        <time>2025-10-05T09:52:12Z</time>
      </trkpt>
      <trkpt lat="43.33413" lon="5.7878">
        <ele>1131.2</ele>
        <time>2025-10-05T09:52:13Z</time>
      </trkpt>
      <trkpt lat="43.33413" lon="5.7878">
        <ele>1131.3</ele>
        <time>2025-10-05T09:52:14Z</time>
      </trkpt>
      <trkpt lat="43.33413" lon="5.7878">
        <ele>1131.3</ele>
        <time>2025-10-05T09:52:15Z</time>
      </trkpt>
      <trkpt lat="43.33413" lon="5.7878">
        <ele>1131.3</ele>
        <time>2025-10-05T09:52:16Z</time>
      </trkpt>
      <trkpt lat="43.33413" lon="5.7878">
        <ele>1131.2</ele>
        <time>2025-10-05T09:52:17Z</time>
      </trkpt>
      <trkpt lat="43.33413" lon="5.7878">
        <ele>1131.2</ele>
        <time>2025-10-05T09:52:18Z</time>
      </trkpt>
      <trkpt lat="43.33413" lon="5.7878">
        <ele>1131.2</ele>
        <time>2025-10-05T09:52:19Z</time>
      </trkpt>
      <trkpt lat="43.33413" lon="5.7878">
        <ele>1131.2</ele>
        <time>2025-10-05T09:52:20Z</time>
      </trkpt>
      <trkpt lat="43.33413" lon="5.7878">
        <ele>1131.2</ele>
        <time>2025-10-05T09:52:21Z</time>
      </trkpt>
      <trkpt lat="43.33413" lon="5.7878">
        <ele>1131.2</ele>
        <time>2025-10-05T09:52:22Z</time>
      </trkpt>
      <trkpt lat="43.33413" lon="5.78781">
        <ele>1131.3</ele>
        <time>2025-10-05T09:52:23Z</time>
      </trkpt>
      <trkpt lat="43.33413" lon="5.7878">
        <ele>1131.4</ele>
        <time>2025-10-05T09:52:24Z</time>
      </trkpt>
      <trkpt lat="43.33413" lon="5.7878">
        <ele>1131.4</ele>
        <time>2025-10-05T09:52:25Z</time>
      </trkpt>
      <trkpt lat="43.33413" lon="5.78781">
        <ele>1131.5</ele>
        <time>2025-10-05T09:52:26Z</time>
      </trkpt>
      <trkpt lat="43.33413" lon="5.78781">
        <ele>1131.6</ele>
        <time>2025-10-05T09:52:27Z</time>
      </trkpt>
      <trkpt lat="43.33413" lon="5.78781">
        <ele>1131.6</ele>
        <time>2025-10-05T09:52:28Z</time>
      </trkpt>
      <trkpt lat="43.33413" lon="5.78781">
        <ele>1131.5</ele>
        <time>2025-10-05T09:52:29Z</time>
      </trkpt>
      <trkpt lat="43.33413" lon="5.78781">
        <ele>1131.4</ele>
        <time>2025-10-05T09:52:30Z</time>
      </trkpt>
      <trkpt lat="43.33413" lon="5.78781">
        <ele>1131.3</ele>
        <time>2025-10-05T09:52:31Z</time>
      </trkpt>
      <trkpt lat="43.33413" lon="5.78781">
        <ele>1131.2</ele>
        <time>2025-10-05T09:52:32Z</time>
      </trkpt>
      <trkpt lat="43.33413" lon="5.78781">
        <ele>1131.2</ele>
        <time>2025-10-05T09:52:33Z</time>
      </trkpt>
      <trkpt lat="43.33413" lon="5.78781">
        <ele>1131.1</ele>
        <time>2025-10-05T09:52:34Z</time>
      </trkpt>
      <trkpt lat="43.33413" lon="5.78781">
        <ele>1131.1</ele>
        <time>2025-10-05T09:52:35Z</time>
      </trkpt>
      <trkpt lat="43.33413" lon="5.78781">
        <ele>1131</ele>
        <time>2025-10-05T09:52:36Z</time>
      </trkpt>
      <trkpt lat="43.33413" lon="5.78781">
        <ele>1131</ele>
        <time>2025-10-05T09:52:37Z</time>
      </trkpt>
      <trkpt lat="43.33413" lon="5.78781">
        <ele>1130.8</ele>
        <time>2025-10-05T09:52:38Z</time>
      </trkpt>
      <trkpt lat="43.33413" lon="5.78781">
        <ele>1130.8</ele>
        <time>2025-10-05T09:52:39Z</time>
      </trkpt>
      <trkpt lat="43.33413" lon="5.78781">
        <ele>1130.8</ele>
        <time>2025-10-05T09:52:40Z</time>
      </trkpt>
      <trkpt lat="43.33413" lon="5.78781">
        <ele>1130.9</ele>
        <time>2025-10-05T09:52:41Z</time>
      </trkpt>
      <trkpt lat="43.33413" lon="5.78781">
        <ele>1131</ele>
        <time>2025-10-05T09:52:42Z</time>
      </trkpt>
      <trkpt lat="43.33413" lon="5.78781">
        <ele>1131.1</ele>
        <time>2025-10-05T09:52:43Z</time>
      </trkpt>
      <trkpt lat="43.33413" lon="5.78781">
        <ele>1131.3</ele>
        <time>2025-10-05T09:52:44Z</time>
      </trkpt>
      <trkpt lat="43.33413" lon="5.78781">
        <ele>1131.4</ele>
        <time>2025-10-05T09:52:45Z</time>
      </trkpt>
      <trkpt lat="43.33413" lon="5.78781">
        <ele>1131.6</ele>
        <time>2025-10-05T09:52:46Z</time>
      </trkpt>
      <trkpt lat="43.33413" lon="5.78781">
        <ele>1131.8</ele>
        <time>2025-10-05T09:52:47Z</time>
      </trkpt>
      <trkpt lat="43.33413" lon="5.78781">
        <ele>1131.9</ele>
        <time>2025-10-05T09:52:48Z</time>
      </trkpt>
      <trkpt lat="43.33413" lon="5.78781">
        <ele>1132</ele>
        <time>2025-10-05T09:52:49Z</time>
      </trkpt>
      <trkpt lat="43.33413" lon="5.78781">
        <ele>1132.1</ele>
        <time>2025-10-05T09:52:50Z</time>
      </trkpt>
      <trkpt lat="43.33413" lon="5.7878">
        <ele>1132</ele>
        <time>2025-10-05T09:52:51Z</time>
      </trkpt>
      <trkpt lat="43.33413" lon="5.78781">
        <ele>1132</ele>
        <time>2025-10-05T09:52:52Z</time>
      </trkpt>
      <trkpt lat="43.33413" lon="5.78781">
        <ele>1132.1</ele>
        <time>2025-10-05T09:52:53Z</time>
      </trkpt>
      <trkpt lat="43.33413" lon="5.78781">
        <ele>1132</ele>
        <time>2025-10-05T09:52:54Z</time>
      </trkpt>
      <trkpt lat="43.33413" lon="5.78781">
        <ele>1132</ele>
        <time>2025-10-05T09:52:55Z</time>
      </trkpt>
      <trkpt lat="43.33413" lon="5.78781">
        <ele>1132.1</ele>
        <time>2025-10-05T09:52:56Z</time>
      </trkpt>
      <trkpt lat="43.33413" lon="5.78781">
        <ele>1132.1</ele>
        <time>2025-10-05T09:52:57Z</time>
      </trkpt>
      <trkpt lat="43.33413" lon="5.78781">
        <ele>1132.1</ele>
        <time>2025-10-05T09:52:58Z</time>
      </trkpt>
      <trkpt lat="43.33413" lon="5.78781">
        <ele>1132.2</ele>
        <time>2025-10-05T09:52:59Z</time>
      </trkpt>
      <trkpt lat="43.33413" lon="5.78781">
        <ele>1132.2</ele>
        <time>2025-10-05T09:53:00Z</time>
      </trkpt>
      <trkpt lat="43.33413" lon="5.78781">
        <ele>1132.3</ele>
        <time>2025-10-05T09:53:01Z</time>
      </trkpt>
      <trkpt lat="43.33414" lon="5.78781">
        <ele>1132.4</ele>
        <time>2025-10-05T09:53:02Z</time>
      </trkpt>
      <trkpt lat="43.33414" lon="5.78781">
        <ele>1132.4</ele>
        <time>2025-10-05T09:53:03Z</time>
      </trkpt>
      <trkpt lat="43.33414" lon="5.78781">
        <ele>1132.4</ele>
        <time>2025-10-05T09:53:04Z</time>
      </trkpt>
      <trkpt lat="43.33414" lon="5.78781">
        <ele>1132.3</ele>
        <time>2025-10-05T09:53:05Z</time>
      </trkpt>
      <trkpt lat="43.33414" lon="5.7878">
        <ele>1132.2</ele>
        <time>2025-10-05T09:53:06Z</time>
      </trkpt>
      <trkpt lat="43.33414" lon="5.7878">
        <ele>1132.4</ele>
        <time>2025-10-05T09:53:07Z</time>
      </trkpt>
      <trkpt lat="43.33414" lon="5.7878">
        <ele>1132.5</ele>
        <time>2025-10-05T09:53:08Z</time>
      </trkpt>
      <trkpt lat="43.33414" lon="5.7878">
        <ele>1132.5</ele>
        <time>2025-10-05T09:53:09Z</time>
      </trkpt>
      <trkpt lat="43.33414" lon="5.7878">
        <ele>1132.6</ele>
        <time>2025-10-05T09:53:10Z</time>
      </trkpt>
      <trkpt lat="43.33414" lon="5.7878">
        <ele>1132.9</ele>
        <time>2025-10-05T09:53:11Z</time>
      </trkpt>
      <trkpt lat="43.33414" lon="5.7878">
        <ele>1133.1</ele>
        <time>2025-10-05T09:53:12Z</time>
      </trkpt>
      <trkpt lat="43.33414" lon="5.7878">
        <ele>1133.3</ele>
        <time>2025-10-05T09:53:13Z</time>
      </trkpt>
      <trkpt lat="43.33414" lon="5.7878">
        <ele>1133.5</ele>
        <time>2025-10-05T09:53:14Z</time>
      </trkpt>
      <trkpt lat="43.33414" lon="5.7878">
        <ele>1133.4</ele>
        <time>2025-10-05T09:53:15Z</time>
      </trkpt>
      <trkpt lat="43.33414" lon="5.7878">
        <ele>1133.6</ele>
        <time>2025-10-05T09:53:16Z</time>
      </trkpt>
      <trkpt lat="43.33414" lon="5.7878">
        <ele>1134</ele>
        <time>2025-10-05T09:53:17Z</time>
      </trkpt>
      <trkpt lat="43.33414" lon="5.7878">
        <ele>1134.1</ele>
        <time>2025-10-05T09:53:18Z</time>
      </trkpt>
      <trkpt lat="43.33414" lon="5.7878">
        <ele>1134</ele>
        <time>2025-10-05T09:53:19Z</time>
      </trkpt>
      <trkpt lat="43.33414" lon="5.7878">
        <ele>1133.9</ele>
        <time>2025-10-05T09:53:20Z</time>
      </trkpt>
      <trkpt lat="43.33414" lon="5.7878">
        <ele>1133.8</ele>
        <time>2025-10-05T09:53:21Z</time>
      </trkpt>
      <trkpt lat="43.33414" lon="5.7878">
        <ele>1133.8</ele>
        <time>2025-10-05T09:53:22Z</time>
      </trkpt>
      <trkpt lat="43.33414" lon="5.7878">
        <ele>1133.8</ele>
        <time>2025-10-05T09:53:23Z</time>
      </trkpt>
      <trkpt lat="43.33414" lon="5.7878">
        <ele>1133.9</ele>
        <time>2025-10-05T09:53:24Z</time>
      </trkpt>
      <trkpt lat="43.33414" lon="5.7878">
        <ele>1133.8</ele>
        <time>2025-10-05T09:53:25Z</time>
      </trkpt>
      <trkpt lat="43.33413" lon="5.7878">
        <ele>1133.9</ele>
        <time>2025-10-05T09:53:26Z</time>
      </trkpt>
      <trkpt lat="43.33414" lon="5.7878">
        <ele>1133.9</ele>
        <time>2025-10-05T09:53:27Z</time>
      </trkpt>
      <trkpt lat="43.33414" lon="5.7878">
        <ele>1133.9</ele>
        <time>2025-10-05T09:53:28Z</time>
      </trkpt>
      <trkpt lat="43.33414" lon="5.7878">
        <ele>1133.7</ele>
        <time>2025-10-05T09:53:29Z</time>
      </trkpt>
      <trkpt lat="43.33414" lon="5.7878">
        <ele>1133.7</ele>
        <time>2025-10-05T09:53:30Z</time>
      </trkpt>
      <trkpt lat="43.33414" lon="5.7878">
        <ele>1133.8</ele>
        <time>2025-10-05T09:53:31Z</time>
      </trkpt>
      <trkpt lat="43.33414" lon="5.7878">
        <ele>1134.1</ele>
        <time>2025-10-05T09:53:32Z</time>
      </trkpt>
      <trkpt lat="43.33414" lon="5.7878">
        <ele>1134.3</ele>
        <time>2025-10-05T09:53:33Z</time>
      </trkpt>
      <trkpt lat="43.33414" lon="5.7878">
        <ele>1134.7</ele>
        <time>2025-10-05T09:53:34Z</time>
      </trkpt>
      <trkpt lat="43.33414" lon="5.7878">
        <ele>1134.9</ele>
        <time>2025-10-05T09:53:35Z</time>
      </trkpt>
      <trkpt lat="43.33414" lon="5.7878">
        <ele>1134.9</ele>
        <time>2025-10-05T09:53:36Z</time>
      </trkpt>
      <trkpt lat="43.33414" lon="5.7878">
        <ele>1135</ele>
        <time>2025-10-05T09:53:37Z</time>
      </trkpt>
      <trkpt lat="43.33414" lon="5.7878">
        <ele>1135.5</ele>
        <time>2025-10-05T09:53:38Z</time>
      </trkpt>
      <trkpt lat="43.33414" lon="5.7878">
        <ele>1135.6</ele>
        <time>2025-10-05T09:53:39Z</time>
      </trkpt>
      <trkpt lat="43.33414" lon="5.7878">
        <ele>1135.8</ele>
        <time>2025-10-05T09:53:40Z</time>
      </trkpt>
      <trkpt lat="43.33414" lon="5.7878">
        <ele>1136</ele>
        <time>2025-10-05T09:53:41Z</time>
      </trkpt>
      <trkpt lat="43.33414" lon="5.7878">
        <ele>1135.9</ele>
        <time>2025-10-05T09:53:42Z</time>
      </trkpt>
      <trkpt lat="43.33414" lon="5.7878">
        <ele>1135.8</ele>
        <time>2025-10-05T09:53:43Z</time>
      </trkpt>
      <trkpt lat="43.33414" lon="5.7878">
        <ele>1135.5</ele>
        <time>2025-10-05T09:53:44Z</time>
      </trkpt>
      <trkpt lat="43.33414" lon="5.7878">
        <ele>1135.1</ele>
        <time>2025-10-05T09:53:45Z</time>
      </trkpt>
      <trkpt lat="43.33414" lon="5.7878">
        <ele>1135</ele>
        <time>2025-10-05T09:53:46Z</time>
      </trkpt>
      <trkpt lat="43.33414" lon="5.7878">
        <ele>1134.9</ele>
        <time>2025-10-05T09:53:47Z</time>
      </trkpt>
      <trkpt lat="43.33414" lon="5.7878">
        <ele>1135.1</ele>
        <time>2025-10-05T09:53:48Z</time>
      </trkpt>
      <trkpt lat="43.33414" lon="5.7878">
        <ele>1135.7</ele>
        <time>2025-10-05T09:53:49Z</time>
      </trkpt>
      <trkpt lat="43.33414" lon="5.7878">
        <ele>1135.4</ele>
        <time>2025-10-05T09:53:50Z</time>
      </trkpt>
      <trkpt lat="43.33414" lon="5.7878">
        <ele>1135.9</ele>
        <time>2025-10-05T09:53:51Z</time>
      </trkpt>
      <trkpt lat="43.33414" lon="5.7878">
        <ele>1136</ele>
        <time>2025-10-05T09:53:52Z</time>
      </trkpt>
      <trkpt lat="43.33414" lon="5.7878">
        <ele>1136.3</ele>
        <time>2025-10-05T09:53:53Z</time>
      </trkpt>
      <trkpt lat="43.33414" lon="5.7878">
        <ele>1136.3</ele>
        <time>2025-10-05T09:53:54Z</time>
      </trkpt>
      <trkpt lat="43.33414" lon="5.7878">
        <ele>1136.4</ele>
        <time>2025-10-05T09:53:55Z</time>
      </trkpt>
      <trkpt lat="43.33414" lon="5.7878">
        <ele>1136.9</ele>
        <time>2025-10-05T09:53:56Z</time>
      </trkpt>
      <trkpt lat="43.33414" lon="5.7878">
        <ele>1137.4</ele>
        <time>2025-10-05T09:53:57Z</time>
      </trkpt>
      <trkpt lat="43.33414" lon="5.7878">
        <ele>1137.3</ele>
        <time>2025-10-05T09:53:58Z</time>
      </trkpt>
      <trkpt lat="43.33414" lon="5.7878">
        <ele>1137.7</ele>
        <time>2025-10-05T09:53:59Z</time>
      </trkpt>
      <trkpt lat="43.33414" lon="5.7878">
        <ele>1137.5</ele>
        <time>2025-10-05T09:54:00Z</time>
      </trkpt>
      <trkpt lat="43.33414" lon="5.7878">
        <ele>1137.5</ele>
        <time>2025-10-05T09:54:01Z</time>
      </trkpt>
      <trkpt lat="43.33414" lon="5.7878">
        <ele>1137.6</ele>
        <time>2025-10-05T09:54:02Z</time>
      </trkpt>
      <trkpt lat="43.33414" lon="5.7878">
        <ele>1137.7</ele>
        <time>2025-10-05T09:54:03Z</time>
      </trkpt>
      <trkpt lat="43.33414" lon="5.7878">
        <ele>1137.9</ele>
        <time>2025-10-05T09:54:04Z</time>
      </trkpt>
      <trkpt lat="43.33414" lon="5.7878">
        <ele>1138</ele>
        <time>2025-10-05T09:54:05Z</time>
      </trkpt>
      <trkpt lat="43.33414" lon="5.7878">
        <ele>1138.2</ele>
        <time>2025-10-05T09:54:06Z</time>
      </trkpt>
      <trkpt lat="43.33414" lon="5.7878">
        <ele>1138.8</ele>
        <time>2025-10-05T09:54:07Z</time>
      </trkpt>
      <trkpt lat="43.33414" lon="5.7878">
        <ele>1138.8</ele>
        <time>2025-10-05T09:54:08Z</time>
      </trkpt>
      <trkpt lat="43.33414" lon="5.7878">
        <ele>1139</ele>
        <time>2025-10-05T09:54:09Z</time>
      </trkpt>
      <trkpt lat="43.33414" lon="5.7878">
        <ele>1139.1</ele>
        <time>2025-10-05T09:54:10Z</time>
      </trkpt>
      <trkpt lat="43.33414" lon="5.7878">
        <ele>1139.1</ele>
        <time>2025-10-05T09:54:11Z</time>
      </trkpt>
      <trkpt lat="43.33414" lon="5.7878">
        <ele>1139.1</ele>
        <time>2025-10-05T09:54:12Z</time>
      </trkpt>
      <trkpt lat="43.33414" lon="5.7878">
        <ele>1138.9</ele>
        <time>2025-10-05T09:54:13Z</time>
      </trkpt>
      <trkpt lat="43.33414" lon="5.7878">
        <ele>1138.3</ele>
        <time>2025-10-05T09:54:14Z</time>
      </trkpt>
      <trkpt lat="43.33414" lon="5.7878">
        <ele>1138.2</ele>
        <time>2025-10-05T09:54:15Z</time>
      </trkpt>
      <trkpt lat="43.33413" lon="5.78779">
        <ele>1137.8</ele>
        <time>2025-10-05T09:54:16Z</time>
      </trkpt>
      <trkpt lat="43.33413" lon="5.78779">
        <ele>1137.2</ele>
        <time>2025-10-05T09:54:17Z</time>
      </trkpt>
      <trkpt lat="43.33413" lon="5.78779">
        <ele>1136.9</ele>
        <time>2025-10-05T09:54:18Z</time>
      </trkpt>
      <trkpt lat="43.33413" lon="5.78779">
        <ele>1136.7</ele>
        <time>2025-10-05T09:54:19Z</time>
      </trkpt>
      <trkpt lat="43.33413" lon="5.78779">
        <ele>1136.4</ele>
        <time>2025-10-05T09:54:20Z</time>
      </trkpt>
      <trkpt lat="43.33413" lon="5.78779">
        <ele>1136.4</ele>
        <time>2025-10-05T09:54:21Z</time>
      </trkpt>
      <trkpt lat="43.33413" lon="5.78779">
        <ele>1135.9</ele>
        <time>2025-10-05T09:54:22Z</time>
      </trkpt>
      <trkpt lat="43.33414" lon="5.78779">
        <ele>1135.6</ele>
        <time>2025-10-05T09:54:23Z</time>
      </trkpt>
      <trkpt lat="43.33414" lon="5.78779">
        <ele>1135.5</ele>
        <time>2025-10-05T09:54:24Z</time>
      </trkpt>
      <trkpt lat="43.33414" lon="5.78779">
        <ele>1135.6</ele>
        <time>2025-10-05T09:54:25Z</time>
      </trkpt>
      <trkpt lat="43.33414" lon="5.78779">
        <ele>1135.2</ele>
        <time>2025-10-05T09:54:26Z</time>
      </trkpt>
      <trkpt lat="43.33414" lon="5.78779">
        <ele>1134.8</ele>
        <time>2025-10-05T09:54:27Z</time>
      </trkpt>
      <trkpt lat="43.33414" lon="5.78779">
        <ele>1134.5</ele>
        <time>2025-10-05T09:54:28Z</time>
      </trkpt>
      <trkpt lat="43.33414" lon="5.78779">
        <ele>1134.3</ele>
        <time>2025-10-05T09:54:29Z</time>
      </trkpt>
      <trkpt lat="43.33414" lon="5.78779">
        <ele>1134</ele>
        <time>2025-10-05T09:54:30Z</time>
      </trkpt>
      <trkpt lat="43.33414" lon="5.78779">
        <ele>1133.9</ele>
        <time>2025-10-05T09:54:31Z</time>
      </trkpt>
      <trkpt lat="43.33414" lon="5.78778">
        <ele>1134.1</ele>
        <time>2025-10-05T09:54:32Z</time>
      </trkpt>
      <trkpt lat="43.33414" lon="5.78778">
        <ele>1134.2</ele>
        <time>2025-10-05T09:54:33Z</time>
      </trkpt>
      <trkpt lat="43.33414" lon="5.78778">
        <ele>1134</ele>
        <time>2025-10-05T09:54:34Z</time>
      </trkpt>
      <trkpt lat="43.33414" lon="5.78778">
        <ele>1133.9</ele>
        <time>2025-10-05T09:54:35Z</time>
      </trkpt>
      <trkpt lat="43.33414" lon="5.78778">
        <ele>1133.8</ele>
        <time>2025-10-05T09:54:36Z</time>
      </trkpt>
      <trkpt lat="43.33414" lon="5.78778">
        <ele>1133.8</ele>
        <time>2025-10-05T09:54:37Z</time>
      </trkpt>
      <trkpt lat="43.33414" lon="5.78778">
        <ele>1133.7</ele>
        <time>2025-10-05T09:54:38Z</time>
      </trkpt>
      <trkpt lat="43.33414" lon="5.78778">
        <ele>1133.7</ele>
        <time>2025-10-05T09:54:39Z</time>
      </trkpt>
      <trkpt lat="43.33414" lon="5.78778">
        <ele>1133.6</ele>
        <time>2025-10-05T09:54:40Z</time>
      </trkpt>
      <trkpt lat="43.33414" lon="5.78778">
        <ele>1133.3</ele>
        <time>2025-10-05T09:54:41Z</time>
      </trkpt>
      <trkpt lat="43.33414" lon="5.78778">
        <ele>1133.4</ele>
        <time>2025-10-05T09:54:42Z</time>
      </trkpt>
      <trkpt lat="43.33414" lon="5.78778">
        <ele>1133.4</ele>
        <time>2025-10-05T09:54:43Z</time>
      </trkpt>
      <trkpt lat="43.33414" lon="5.78778">
        <ele>1133.2</ele>
        <time>2025-10-05T09:54:44Z</time>
      </trkpt>
      <trkpt lat="43.33414" lon="5.78778">
        <ele>1133.1</ele>
        <time>2025-10-05T09:54:45Z</time>
      </trkpt>
      <trkpt lat="43.33414" lon="5.78778">
        <ele>1133.1</ele>
        <time>2025-10-05T09:54:46Z</time>
      </trkpt>
      <trkpt lat="43.33414" lon="5.78778">
        <ele>1133.3</ele>
        <time>2025-10-05T09:54:47Z</time>
      </trkpt>
      <trkpt lat="43.33414" lon="5.78778">
        <ele>1133.4</ele>
        <time>2025-10-05T09:54:48Z</time>
      </trkpt>
      <trkpt lat="43.33414" lon="5.78778">
        <ele>1133.4</ele>
        <time>2025-10-05T09:54:49Z</time>
      </trkpt>
      <trkpt lat="43.33414" lon="5.78778">
        <ele>1133.3</ele>
        <time>2025-10-05T09:54:50Z</time>
      </trkpt>
      <trkpt lat="43.33414" lon="5.78778">
        <ele>1133.3</ele>
        <time>2025-10-05T09:54:51Z</time>
      </trkpt>
      <trkpt lat="43.33414" lon="5.78778">
        <ele>1133.2</ele>
        <time>2025-10-05T09:54:52Z</time>
      </trkpt>
      <trkpt lat="43.33414" lon="5.78778">
        <ele>1133</ele>
        <time>2025-10-05T09:54:53Z</time>
      </trkpt>
      <trkpt lat="43.33414" lon="5.78778">
        <ele>1132.9</ele>
        <time>2025-10-05T09:54:54Z</time>
      </trkpt>
      <trkpt lat="43.33414" lon="5.78778">
        <ele>1132.8</ele>
        <time>2025-10-05T09:54:55Z</time>
      </trkpt>
      <trkpt lat="43.33414" lon="5.78778">
        <ele>1132.7</ele>
        <time>2025-10-05T09:54:56Z</time>
      </trkpt>
      <trkpt lat="43.33414" lon="5.78778">
        <ele>1132.6</ele>
        <time>2025-10-05T09:54:57Z</time>
      </trkpt>
      <trkpt lat="43.33414" lon="5.78778">
        <ele>1132.6</ele>
        <time>2025-10-05T09:54:58Z</time>
      </trkpt>
      <trkpt lat="43.33414" lon="5.78778">
        <ele>1132.5</ele>
        <time>2025-10-05T09:54:59Z</time>
      </trkpt>
      <trkpt lat="43.33414" lon="5.78778">
        <ele>1132.7</ele>
        <time>2025-10-05T09:55:00Z</time>
      </trkpt>
      <trkpt lat="43.33414" lon="5.78777">
        <ele>1132.7</ele>
        <time>2025-10-05T09:55:01Z</time>
      </trkpt>
      <trkpt lat="43.33414" lon="5.78778">
        <ele>1132.8</ele>
        <time>2025-10-05T09:55:02Z</time>
      </trkpt>
      <trkpt lat="43.33413" lon="5.78777">
        <ele>1132.8</ele>
        <time>2025-10-05T09:55:03Z</time>
      </trkpt>
      <trkpt lat="43.33413" lon="5.78777">
        <ele>1132.9</ele>
        <time>2025-10-05T09:55:04Z</time>
      </trkpt>
      <trkpt lat="43.33413" lon="5.78777">
        <ele>1133</ele>
        <time>2025-10-05T09:55:05Z</time>
      </trkpt>
      <trkpt lat="43.33413" lon="5.78777">
        <ele>1132.9</ele>
        <time>2025-10-05T09:55:06Z</time>
      </trkpt>
      <trkpt lat="43.33413" lon="5.78777">
        <ele>1133</ele>
        <time>2025-10-05T09:55:07Z</time>
      </trkpt>
      <trkpt lat="43.33413" lon="5.78777">
        <ele>1133.1</ele>
        <time>2025-10-05T09:55:08Z</time>
      </trkpt>
      <trkpt lat="43.33413" lon="5.78777">
        <ele>1133.5</ele>
        <time>2025-10-05T09:55:09Z</time>
      </trkpt>
      <trkpt lat="43.33413" lon="5.78777">
        <ele>1133.4</ele>
        <time>2025-10-05T09:55:10Z</time>
      </trkpt>
      <trkpt lat="43.33413" lon="5.78777">
        <ele>1133.4</ele>
        <time>2025-10-05T09:55:11Z</time>
      </trkpt>
      <trkpt lat="43.33413" lon="5.78777">
        <ele>1133.8</ele>
        <time>2025-10-05T09:55:12Z</time>
      </trkpt>
      <trkpt lat="43.33413" lon="5.78777">
        <ele>1133.9</ele>
        <time>2025-10-05T09:55:13Z</time>
      </trkpt>
      <trkpt lat="43.33413" lon="5.78777">
        <ele>1133.9</ele>
        <time>2025-10-05T09:55:14Z</time>
      </trkpt>
      <trkpt lat="43.33413" lon="5.78777">
        <ele>1133.8</ele>
        <time>2025-10-05T09:55:15Z</time>
      </trkpt>
      <trkpt lat="43.33413" lon="5.78777">
        <ele>1133.7</ele>
        <time>2025-10-05T09:55:16Z</time>
      </trkpt>
      <trkpt lat="43.33413" lon="5.78777">
        <ele>1133.7</ele>
        <time>2025-10-05T09:55:17Z</time>
      </trkpt>
      <trkpt lat="43.33413" lon="5.78777">
        <ele>1133.8</ele>
        <time>2025-10-05T09:55:18Z</time>
      </trkpt>
      <trkpt lat="43.33413" lon="5.78777">
        <ele>1133.8</ele>
        <time>2025-10-05T09:55:19Z</time>
      </trkpt>
      <trkpt lat="43.33413" lon="5.78777">
        <ele>1133.6</ele>
        <time>2025-10-05T09:55:20Z</time>
      </trkpt>
      <trkpt lat="43.33413" lon="5.78777">
        <ele>1133.5</ele>
        <time>2025-10-05T09:55:21Z</time>
      </trkpt>
      <trkpt lat="43.33413" lon="5.78777">
        <ele>1133.5</ele>
        <time>2025-10-05T09:55:22Z</time>
      </trkpt>
      <trkpt lat="43.33413" lon="5.78777">
        <ele>1133.6</ele>
        <time>2025-10-05T09:55:23Z</time>
      </trkpt>
      <trkpt lat="43.33413" lon="5.78777">
        <ele>1133.6</ele>
        <time>2025-10-05T09:55:24Z</time>
      </trkpt>
      <trkpt lat="43.33413" lon="5.78777">
        <ele>1133.6</ele>
        <time>2025-10-05T09:55:25Z</time>
      </trkpt>
      <trkpt lat="43.33413" lon="5.78778">
        <ele>1133.7</ele>
        <time>2025-10-05T09:55:26Z</time>
      </trkpt>
      <trkpt lat="43.33413" lon="5.78778">
        <ele>1133.5</ele>
        <time>2025-10-05T09:55:27Z</time>
      </trkpt>
      <trkpt lat="43.33413" lon="5.78778">
        <ele>1133.3</ele>
        <time>2025-10-05T09:55:28Z</time>
      </trkpt>
      <trkpt lat="43.33413" lon="5.78778">
        <ele>1133.3</ele>
        <time>2025-10-05T09:55:29Z</time>
      </trkpt>
      <trkpt lat="43.33413" lon="5.78778">
        <ele>1133.2</ele>
        <time>2025-10-05T09:55:30Z</time>
      </trkpt>
      <trkpt lat="43.33413" lon="5.78778">
        <ele>1133</ele>
        <time>2025-10-05T09:55:31Z</time>
      </trkpt>
      <trkpt lat="43.33413" lon="5.78778">
        <ele>1133.1</ele>
        <time>2025-10-05T09:55:32Z</time>
      </trkpt>
      <trkpt lat="43.33413" lon="5.78778">
        <ele>1133.1</ele>
        <time>2025-10-05T09:55:33Z</time>
      </trkpt>
      <trkpt lat="43.33413" lon="5.78778">
        <ele>1133.1</ele>
        <time>2025-10-05T09:55:34Z</time>
      </trkpt>
      <trkpt lat="43.33413" lon="5.78778">
        <ele>1133.3</ele>
        <time>2025-10-05T09:55:35Z</time>
      </trkpt>
      <trkpt lat="43.33413" lon="5.78778">
        <ele>1133.4</ele>
        <time>2025-10-05T09:55:36Z</time>
      </trkpt>
      <trkpt lat="43.33413" lon="5.78778">
        <ele>1133.5</ele>
        <time>2025-10-05T09:55:37Z</time>
      </trkpt>
      <trkpt lat="43.33413" lon="5.78778">
        <ele>1133.5</ele>
        <time>2025-10-05T09:55:38Z</time>
      </trkpt>
      <trkpt lat="43.33413" lon="5.78778">
        <ele>1133.5</ele>
        <time>2025-10-05T09:55:39Z</time>
      </trkpt>
      <trkpt lat="43.33413" lon="5.78778">
        <ele>1133.5</ele>
        <time>2025-10-05T09:55:40Z</time>
      </trkpt>
      <trkpt lat="43.33413" lon="5.78778">
        <ele>1133.5</ele>
        <time>2025-10-05T09:55:41Z</time>
      </trkpt>
      <trkpt lat="43.33413" lon="5.78778">
        <ele>1133.5</ele>
        <time>2025-10-05T09:55:42Z</time>
      </trkpt>
      <trkpt lat="43.33413" lon="5.78778">
        <ele>1133.4</ele>
        <time>2025-10-05T09:55:43Z</time>
      </trkpt>
      <trkpt lat="43.33413" lon="5.78778">
        <ele>1133.6</ele>
        <time>2025-10-05T09:55:44Z</time>
      </trkpt>
      <trkpt lat="43.33413" lon="5.78778">
        <ele>1133.7</ele>
        <time>2025-10-05T09:55:45Z</time>
      </trkpt>
      <trkpt lat="43.33413" lon="5.78778">
        <ele>1133.8</ele>
        <time>2025-10-05T09:55:46Z</time>
      </trkpt>
      <trkpt lat="43.33413" lon="5.78778">
        <ele>1133.6</ele>
        <time>2025-10-05T09:55:47Z</time>
      </trkpt>
      <trkpt lat="43.33413" lon="5.78778">
        <ele>1133.6</ele>
        <time>2025-10-05T09:55:48Z</time>
      </trkpt>
      <trkpt lat="43.33413" lon="5.78778">
        <ele>1133.4</ele>
        <time>2025-10-05T09:55:49Z</time>
      </trkpt>
      <trkpt lat="43.33413" lon="5.78778">
        <ele>1133.4</ele>
        <time>2025-10-05T09:55:50Z</time>
      </trkpt>
      <trkpt lat="43.33413" lon="5.78778">
        <ele>1133.3</ele>
        <time>2025-10-05T09:55:51Z</time>
      </trkpt>
      <trkpt lat="43.33413" lon="5.78778">
        <ele>1133.2</ele>
        <time>2025-10-05T09:55:52Z</time>
      </trkpt>
      <trkpt lat="43.33413" lon="5.78778">
        <ele>1133.3</ele>
        <time>2025-10-05T09:55:53Z</time>
      </trkpt>
      <trkpt lat="43.33413" lon="5.78778">
        <ele>1133.6</ele>
        <time>2025-10-05T09:55:54Z</time>
      </trkpt>
      <trkpt lat="43.33413" lon="5.78778">
        <ele>1133.7</ele>
        <time>2025-10-05T09:55:55Z</time>
      </trkpt>
      <trkpt lat="43.33413" lon="5.78778">
        <ele>1133.7</ele>
        <time>2025-10-05T09:55:56Z</time>
      </trkpt>
      <trkpt lat="43.33413" lon="5.78778">
        <ele>1133.9</ele>
        <time>2025-10-05T09:55:57Z</time>
      </trkpt>
      <trkpt lat="43.33413" lon="5.78778">
        <ele>1134.1</ele>
        <time>2025-10-05T09:55:58Z</time>
      </trkpt>
      <trkpt lat="43.33413" lon="5.78778">
        <ele>1134.2</ele>
        <time>2025-10-05T09:55:59Z</time>
      </trkpt>
      <trkpt lat="43.33413" lon="5.78778">
        <ele>1134.3</ele>
        <time>2025-10-05T09:56:00Z</time>
      </trkpt>
      <trkpt lat="43.33413" lon="5.78778">
        <ele>1134.4</ele>
        <time>2025-10-05T09:56:01Z</time>
      </trkpt>
      <trkpt lat="43.33413" lon="5.78778">
        <ele>1134.5</ele>
        <time>2025-10-05T09:56:02Z</time>
      </trkpt>
      <trkpt lat="43.33413" lon="5.78778">
        <ele>1134.5</ele>
        <time>2025-10-05T09:56:03Z</time>
      </trkpt>
      <trkpt lat="43.33413" lon="5.78778">
        <ele>1134.3</ele>
        <time>2025-10-05T09:56:04Z</time>
      </trkpt>
      <trkpt lat="43.33413" lon="5.78778">
        <ele>1134.5</ele>
        <time>2025-10-05T09:56:05Z</time>
      </trkpt>
      <trkpt lat="43.33413" lon="5.78778">
        <ele>1134.6</ele>
        <time>2025-10-05T09:56:06Z</time>
      </trkpt>
      <trkpt lat="43.33413" lon="5.78778">
        <ele>1134.7</ele>
        <time>2025-10-05T09:56:07Z</time>
      </trkpt>
      <trkpt lat="43.33413" lon="5.78778">
        <ele>1134.9</ele>
        <time>2025-10-05T09:56:08Z</time>
      </trkpt>
      <trkpt lat="43.33413" lon="5.78778">
        <ele>1135</ele>
        <time>2025-10-05T09:56:09Z</time>
      </trkpt>
      <trkpt lat="43.33413" lon="5.78778">
        <ele>1135</ele>
        <time>2025-10-05T09:56:10Z</time>
      </trkpt>
      <trkpt lat="43.33413" lon="5.78778">
        <ele>1134.8</ele>
        <time>2025-10-05T09:56:11Z</time>
      </trkpt>
      <trkpt lat="43.33413" lon="5.78778">
        <ele>1134.7</ele>
        <time>2025-10-05T09:56:12Z</time>
      </trkpt>
      <trkpt lat="43.33413" lon="5.78778">
        <ele>1134.6</ele>
        <time>2025-10-05T09:56:13Z</time>
      </trkpt>
      <trkpt lat="43.33413" lon="5.78778">
        <ele>1134.5</ele>
        <time>2025-10-05T09:56:14Z</time>
      </trkpt>
      <trkpt lat="43.33413" lon="5.78778">
        <ele>1134.6</ele>
        <time>2025-10-05T09:56:15Z</time>
      </trkpt>
      <trkpt lat="43.33413" lon="5.78778">
        <ele>1134.9</ele>
        <time>2025-10-05T09:56:16Z</time>
      </trkpt>
      <trkpt lat="43.33413" lon="5.78778">
        <ele>1135.5</ele>
        <time>2025-10-05T09:56:17Z</time>
      </trkpt>
      <trkpt lat="43.33413" lon="5.78778">
        <ele>1135.9</ele>
        <time>2025-10-05T09:56:18Z</time>
      </trkpt>
      <trkpt lat="43.33413" lon="5.78778">
        <ele>1135.7</ele>
        <time>2025-10-05T09:56:19Z</time>
      </trkpt>
      <trkpt lat="43.33413" lon="5.78778">
        <ele>1135.6</ele>
        <time>2025-10-05T09:56:20Z</time>
      </trkpt>
      <trkpt lat="43.33413" lon="5.78778">
        <ele>1135.5</ele>
        <time>2025-10-05T09:56:21Z</time>
      </trkpt>
      <trkpt lat="43.33413" lon="5.78777">
        <ele>1135.4</ele>
        <time>2025-10-05T09:56:22Z</time>
      </trkpt>
      <trkpt lat="43.33413" lon="5.78777">
        <ele>1135.4</ele>
        <time>2025-10-05T09:56:23Z</time>
      </trkpt>
      <trkpt lat="43.33413" lon="5.78777">
        <ele>1135.5</ele>
        <time>2025-10-05T09:56:24Z</time>
      </trkpt>
      <trkpt lat="43.33413" lon="5.78777">
        <ele>1135.5</ele>
        <time>2025-10-05T09:56:25Z</time>
      </trkpt>
      <trkpt lat="43.33413" lon="5.78777">
        <ele>1135.2</ele>
        <time>2025-10-05T09:56:26Z</time>
      </trkpt>
      <trkpt lat="43.33413" lon="5.78777">
        <ele>1135.2</ele>
        <time>2025-10-05T09:56:27Z</time>
      </trkpt>
      <trkpt lat="43.33413" lon="5.78777">
        <ele>1135.5</ele>
        <time>2025-10-05T09:56:28Z</time>
      </trkpt>
      <trkpt lat="43.33413" lon="5.78777">
        <ele>1136</ele>
        <time>2025-10-05T09:56:29Z</time>
      </trkpt>
      <trkpt lat="43.33413" lon="5.78777">
        <ele>1136.3</ele>
        <time>2025-10-05T09:56:30Z</time>
      </trkpt>
      <trkpt lat="43.33413" lon="5.78777">
        <ele>1136.5</ele>
        <time>2025-10-05T09:56:31Z</time>
      </trkpt>
      <trkpt lat="43.33413" lon="5.78777">
        <ele>1136.6</ele>
        <time>2025-10-05T09:56:32Z</time>
      </trkpt>
      <trkpt lat="43.33413" lon="5.78778">
        <ele>1136.4</ele>
        <time>2025-10-05T09:56:33Z</time>
      </trkpt>
      <trkpt lat="43.33413" lon="5.78778">
        <ele>1136.5</ele>
        <time>2025-10-05T09:56:34Z</time>
      </trkpt>
      <trkpt lat="43.33413" lon="5.78777">
        <ele>1136.5</ele>
        <time>2025-10-05T09:56:35Z</time>
      </trkpt>
      <trkpt lat="43.33413" lon="5.78777">
        <ele>1136.4</ele>
        <time>2025-10-05T09:56:36Z</time>
      </trkpt>
      <trkpt lat="43.33413" lon="5.78777">
        <ele>1136</ele>
        <time>2025-10-05T09:56:37Z</time>
      </trkpt>
      <trkpt lat="43.33413" lon="5.78777">
        <ele>1136.1</ele>
        <time>2025-10-05T09:56:38Z</time>
      </trkpt>
      <trkpt lat="43.33413" lon="5.78777">
        <ele>1136</ele>
        <time>2025-10-05T09:56:39Z</time>
      </trkpt>
      <trkpt lat="43.33413" lon="5.78777">
        <ele>1135.7</ele>
        <time>2025-10-05T09:56:40Z</time>
      </trkpt>
      <trkpt lat="43.33413" lon="5.78777">
        <ele>1135.6</ele>
        <time>2025-10-05T09:56:41Z</time>
      </trkpt>
      <trkpt lat="43.33413" lon="5.78777">
        <ele>1135.4</ele>
        <time>2025-10-05T09:56:42Z</time>
      </trkpt>
      <trkpt lat="43.33413" lon="5.78777">
        <ele>1135.2</ele>
        <time>2025-10-05T09:56:43Z</time>
      </trkpt>
      <trkpt lat="43.33413" lon="5.78777">
        <ele>1135</ele>
        <time>2025-10-05T09:56:44Z</time>
      </trkpt>
      <trkpt lat="43.33413" lon="5.78777">
        <ele>1135.2</ele>
        <time>2025-10-05T09:56:45Z</time>
      </trkpt>
      <trkpt lat="43.33413" lon="5.78777">
        <ele>1134.8</ele>
        <time>2025-10-05T09:56:46Z</time>
      </trkpt>
      <trkpt lat="43.33413" lon="5.78777">
        <ele>1134.8</ele>
        <time>2025-10-05T09:56:47Z</time>
      </trkpt>
      <trkpt lat="43.33413" lon="5.78777">
        <ele>1134.7</ele>
        <time>2025-10-05T09:56:48Z</time>
      </trkpt>
      <trkpt lat="43.33413" lon="5.78777">
        <ele>1134.6</ele>
        <time>2025-10-05T09:56:49Z</time>
      </trkpt>
      <trkpt lat="43.33413" lon="5.78777">
        <ele>1134.2</ele>
        <time>2025-10-05T09:56:50Z</time>
      </trkpt>
      <trkpt lat="43.33413" lon="5.78777">
        <ele>1134</ele>
        <time>2025-10-05T09:56:51Z</time>
      </trkpt>
      <trkpt lat="43.33413" lon="5.78777">
        <ele>1133.8</ele>
        <time>2025-10-05T09:56:52Z</time>
      </trkpt>
      <trkpt lat="43.33413" lon="5.78777">
        <ele>1133.7</ele>
        <time>2025-10-05T09:56:53Z</time>
      </trkpt>
      <trkpt lat="43.33413" lon="5.78777">
        <ele>1133.5</ele>
        <time>2025-10-05T09:56:54Z</time>
      </trkpt>
      <trkpt lat="43.33413" lon="5.78777">
        <ele>1133.4</ele>
        <time>2025-10-05T09:56:55Z</time>
      </trkpt>
      <trkpt lat="43.33413" lon="5.78777">
        <ele>1133.3</ele>
        <time>2025-10-05T09:56:56Z</time>
      </trkpt>
      <trkpt lat="43.33413" lon="5.78777">
        <ele>1133.2</ele>
        <time>2025-10-05T09:56:57Z</time>
      </trkpt>
      <trkpt lat="43.33413" lon="5.78778">
        <ele>1133</ele>
        <time>2025-10-05T09:56:58Z</time>
      </trkpt>
      <trkpt lat="43.33413" lon="5.78778">
        <ele>1132.9</ele>
        <time>2025-10-05T09:56:59Z</time>
      </trkpt>
      <trkpt lat="43.33413" lon="5.78778">
        <ele>1132.7</ele>
        <time>2025-10-05T09:57:00Z</time>
      </trkpt>
      <trkpt lat="43.33413" lon="5.78778">
        <ele>1132.8</ele>
        <time>2025-10-05T09:57:01Z</time>
      </trkpt>
      <trkpt lat="43.33413" lon="5.78778">
        <ele>1132.4</ele>
        <time>2025-10-05T09:57:02Z</time>
      </trkpt>
      <trkpt lat="43.33413" lon="5.78778">
        <ele>1132.5</ele>
        <time>2025-10-05T09:57:03Z</time>
      </trkpt>
      <trkpt lat="43.33413" lon="5.78778">
        <ele>1132.4</ele>
        <time>2025-10-05T09:57:04Z</time>
      </trkpt>
      <trkpt lat="43.33413" lon="5.78778">
        <ele>1132.2</ele>
        <time>2025-10-05T09:57:05Z</time>
      </trkpt>
      <trkpt lat="43.33413" lon="5.78779">
        <ele>1132.2</ele>
        <time>2025-10-05T09:57:06Z</time>
      </trkpt>
      <trkpt lat="43.33413" lon="5.78779">
        <ele>1132.3</ele>
        <time>2025-10-05T09:57:07Z</time>
      </trkpt>
      <trkpt lat="43.33413" lon="5.7878">
        <ele>1132.3</ele>
        <time>2025-10-05T09:57:08Z</time>
      </trkpt>
      <trkpt lat="43.33413" lon="5.7878">
        <ele>1132.3</ele>
        <time>2025-10-05T09:57:09Z</time>
      </trkpt>
      <trkpt lat="43.33413" lon="5.78779">
        <ele>1132.3</ele>
        <time>2025-10-05T09:57:10Z</time>
      </trkpt>
      <trkpt lat="43.33413" lon="5.7878">
        <ele>1132.4</ele>
        <time>2025-10-05T09:57:11Z</time>
      </trkpt>
      <trkpt lat="43.33413" lon="5.7878">
        <ele>1132.5</ele>
        <time>2025-10-05T09:57:12Z</time>
      </trkpt>
      <trkpt lat="43.33413" lon="5.7878">
        <ele>1132.5</ele>
        <time>2025-10-05T09:57:13Z</time>
      </trkpt>
      <trkpt lat="43.33413" lon="5.7878">
        <ele>1132.6</ele>
        <time>2025-10-05T09:57:14Z</time>
      </trkpt>
      <trkpt lat="43.33413" lon="5.7878">
        <ele>1133</ele>
        <time>2025-10-05T09:57:15Z</time>
      </trkpt>
      <trkpt lat="43.33413" lon="5.7878">
        <ele>1133</ele>
        <time>2025-10-05T09:57:16Z</time>
      </trkpt>
      <trkpt lat="43.33413" lon="5.7878">
        <ele>1132.9</ele>
        <time>2025-10-05T09:57:17Z</time>
      </trkpt>
      <trkpt lat="43.33413" lon="5.7878">
        <ele>1133.1</ele>
        <time>2025-10-05T09:57:18Z</time>
      </trkpt>
      <trkpt lat="43.33413" lon="5.7878">
        <ele>1133.2</ele>
        <time>2025-10-05T09:57:19Z</time>
      </trkpt>
      <trkpt lat="43.33413" lon="5.7878">
        <ele>1133.3</ele>
        <time>2025-10-05T09:57:20Z</time>
      </trkpt>
      <trkpt lat="43.33413" lon="5.7878">
        <ele>1133.4</ele>
        <time>2025-10-05T09:57:21Z</time>
      </trkpt>
      <trkpt lat="43.33413" lon="5.7878">
        <ele>1133.5</ele>
        <time>2025-10-05T09:57:22Z</time>
      </trkpt>
      <trkpt lat="43.33413" lon="5.7878">
        <ele>1133.9</ele>
        <time>2025-10-05T09:57:23Z</time>
      </trkpt>
      <trkpt lat="43.33413" lon="5.7878">
        <ele>1133.6</ele>
        <time>2025-10-05T09:57:24Z</time>
      </trkpt>
      <trkpt lat="43.33413" lon="5.78781">
        <ele>1133.5</ele>
        <time>2025-10-05T09:57:25Z</time>
      </trkpt>
      <trkpt lat="43.33412" lon="5.78781">
        <ele>1133.7</ele>
        <time>2025-10-05T09:57:26Z</time>
      </trkpt>
      <trkpt lat="43.33413" lon="5.78782">
        <ele>1133.9</ele>
        <time>2025-10-05T09:57:27Z</time>
      </trkpt>
      <trkpt lat="43.33413" lon="5.78781">
        <ele>1134.1</ele>
        <time>2025-10-05T09:57:28Z</time>
      </trkpt>
      <trkpt lat="43.33413" lon="5.78781">
        <ele>1134</ele>
        <time>2025-10-05T09:57:29Z</time>
      </trkpt>
      <trkpt lat="43.33413" lon="5.78781">
        <ele>1134</ele>
        <time>2025-10-05T09:57:30Z</time>
      </trkpt>
      <trkpt lat="43.33413" lon="5.78781">
        <ele>1133.9</ele>
        <time>2025-10-05T09:57:31Z</time>
      </trkpt>
      <trkpt lat="43.33413" lon="5.78781">
        <ele>1133.9</ele>
        <time>2025-10-05T09:57:32Z</time>
      </trkpt>
      <trkpt lat="43.33413" lon="5.78781">
        <ele>1133.6</ele>
        <time>2025-10-05T09:57:33Z</time>
      </trkpt>
      <trkpt lat="43.33413" lon="5.78781">
        <ele>1133.5</ele>
        <time>2025-10-05T09:57:34Z</time>
      </trkpt>
      <trkpt lat="43.33413" lon="5.78781">
        <ele>1133.6</ele>
        <time>2025-10-05T09:57:35Z</time>
      </trkpt>
      <trkpt lat="43.33413" lon="5.78781">
        <ele>1133.7</ele>
        <time>2025-10-05T09:57:36Z</time>
      </trkpt>
      <trkpt lat="43.33413" lon="5.78781">
        <ele>1134</ele>
        <time>2025-10-05T09:57:37Z</time>
      </trkpt>
      <trkpt lat="43.33413" lon="5.78781">
        <ele>1133.8</ele>
        <time>2025-10-05T09:57:38Z</time>
      </trkpt>
      <trkpt lat="43.33413" lon="5.78781">
        <ele>1133.6</ele>
        <time>2025-10-05T09:57:39Z</time>
      </trkpt>
      <trkpt lat="43.33413" lon="5.78781">
        <ele>1133.6</ele>
        <time>2025-10-05T09:57:40Z</time>
      </trkpt>
      <trkpt lat="43.33413" lon="5.78781">
        <ele>1133.4</ele>
        <time>2025-10-05T09:57:41Z</time>
      </trkpt>
      <trkpt lat="43.33413" lon="5.78781">
        <ele>1133.1</ele>
        <time>2025-10-05T09:57:42Z</time>
      </trkpt>
      <trkpt lat="43.33414" lon="5.78781">
        <ele>1133.2</ele>
        <time>2025-10-05T09:57:43Z</time>
      </trkpt>
      <trkpt lat="43.33413" lon="5.78781">
        <ele>1133</ele>
        <time>2025-10-05T09:57:44Z</time>
      </trkpt>
      <trkpt lat="43.33413" lon="5.78781">
        <ele>1133.1</ele>
        <time>2025-10-05T09:57:45Z</time>
      </trkpt>
      <trkpt lat="43.33413" lon="5.78782">
        <ele>1133</ele>
        <time>2025-10-05T09:57:46Z</time>
      </trkpt>
      <trkpt lat="43.33413" lon="5.78782">
        <ele>1132.9</ele>
        <time>2025-10-05T09:57:47Z</time>
      </trkpt>
      <trkpt lat="43.33413" lon="5.78783">
        <ele>1132.9</ele>
        <time>2025-10-05T09:57:48Z</time>
      </trkpt>
      <trkpt lat="43.33413" lon="5.78783">
        <ele>1133.1</ele>
        <time>2025-10-05T09:57:49Z</time>
      </trkpt>
      <trkpt lat="43.33413" lon="5.78783">
        <ele>1133.2</ele>
        <time>2025-10-05T09:57:50Z</time>
      </trkpt>
      <trkpt lat="43.33413" lon="5.78783">
        <ele>1133.3</ele>
        <time>2025-10-05T09:57:51Z</time>
      </trkpt>
      <trkpt lat="43.33413" lon="5.78783">
        <ele>1133.5</ele>
        <time>2025-10-05T09:57:52Z</time>
      </trkpt>
      <trkpt lat="43.33413" lon="5.78783">
        <ele>1133.5</ele>
        <time>2025-10-05T09:57:53Z</time>
      </trkpt>
      <trkpt lat="43.33413" lon="5.78783">
        <ele>1133.6</ele>
        <time>2025-10-05T09:57:54Z</time>
      </trkpt>
      <trkpt lat="43.33413" lon="5.78783">
        <ele>1133.6</ele>
        <time>2025-10-05T09:57:55Z</time>
      </trkpt>
      <trkpt lat="43.33413" lon="5.78783">
        <ele>1133.5</ele>
        <time>2025-10-05T09:57:56Z</time>
      </trkpt>
      <trkpt lat="43.33413" lon="5.78784">
        <ele>1133.4</ele>
        <time>2025-10-05T09:57:57Z</time>
      </trkpt>
      <trkpt lat="43.33413" lon="5.78784">
        <ele>1133.3</ele>
        <time>2025-10-05T09:57:58Z</time>
      </trkpt>
      <trkpt lat="43.33413" lon="5.78783">
        <ele>1133.2</ele>
        <time>2025-10-05T09:57:59Z</time>
      </trkpt>
      <trkpt lat="43.33413" lon="5.78783">
        <ele>1133.3</ele>
        <time>2025-10-05T09:58:00Z</time>
      </trkpt>
      <trkpt lat="43.33413" lon="5.78782">
        <ele>1133.5</ele>
        <time>2025-10-05T09:58:01Z</time>
      </trkpt>
      <trkpt lat="43.33413" lon="5.78783">
        <ele>1133.6</ele>
        <time>2025-10-05T09:58:02Z</time>
      </trkpt>
      <trkpt lat="43.33413" lon="5.78782">
        <ele>1133.4</ele>
        <time>2025-10-05T09:58:03Z</time>
      </trkpt>
      <trkpt lat="43.33414" lon="5.78782">
        <ele>1133.4</ele>
        <time>2025-10-05T09:58:04Z</time>
      </trkpt>
      <trkpt lat="43.33414" lon="5.78782">
        <ele>1133.4</ele>
        <time>2025-10-05T09:58:05Z</time>
      </trkpt>
      <trkpt lat="43.33413" lon="5.78782">
        <ele>1133.3</ele>
        <time>2025-10-05T09:58:06Z</time>
      </trkpt>
      <trkpt lat="43.33414" lon="5.78781">
        <ele>1133.3</ele>
        <time>2025-10-05T09:58:07Z</time>
      </trkpt>
      <trkpt lat="43.33414" lon="5.78781">
        <ele>1133.7</ele>
        <time>2025-10-05T09:58:08Z</time>
      </trkpt>
      <trkpt lat="43.33413" lon="5.78782">
        <ele>1134.2</ele>
        <time>2025-10-05T09:58:09Z</time>
      </trkpt>
      <trkpt lat="43.33413" lon="5.78783">
        <ele>1134.2</ele>
        <time>2025-10-05T09:58:10Z</time>
      </trkpt>
      <trkpt lat="43.33413" lon="5.78783">
        <ele>1134.6</ele>
        <time>2025-10-05T09:58:11Z</time>
      </trkpt>
      <trkpt lat="43.33413" lon="5.78782">
        <ele>1134.9</ele>
        <time>2025-10-05T09:58:12Z</time>
      </trkpt>
      <trkpt lat="43.33413" lon="5.78782">
        <ele>1135</ele>
        <time>2025-10-05T09:58:13Z</time>
      </trkpt>
      <trkpt lat="43.33413" lon="5.78783">
        <ele>1135.1</ele>
        <time>2025-10-05T09:58:14Z</time>
      </trkpt>
      <trkpt lat="43.33413" lon="5.78783">
        <ele>1135.7</ele>
        <time>2025-10-05T09:58:15Z</time>
      </trkpt>
      <trkpt lat="43.33413" lon="5.78783">
        <ele>1135.2</ele>
        <time>2025-10-05T09:58:16Z</time>
      </trkpt>
      <trkpt lat="43.33413" lon="5.78784">
        <ele>1135.4</ele>
        <time>2025-10-05T09:58:17Z</time>
      </trkpt>
      <trkpt lat="43.33413" lon="5.78784">
        <ele>1135.5</ele>
        <time>2025-10-05T09:58:18Z</time>
      </trkpt>
      <trkpt lat="43.33413" lon="5.78784">
        <ele>1135.4</ele>
        <time>2025-10-05T09:58:19Z</time>
      </trkpt>
      <trkpt lat="43.33413" lon="5.78783">
        <ele>1135.4</ele>
        <time>2025-10-05T09:58:20Z</time>
      </trkpt>
      <trkpt lat="43.33413" lon="5.78783">
        <ele>1135.3</ele>
        <time>2025-10-05T09:58:21Z</time>
      </trkpt>
      <trkpt lat="43.33414" lon="5.78782">
        <ele>1135.3</ele>
        <time>2025-10-05T09:58:22Z</time>
      </trkpt>
      <trkpt lat="43.33413" lon="5.78783">
        <ele>1134.8</ele>
        <time>2025-10-05T09:58:23Z</time>
      </trkpt>
      <trkpt lat="43.33413" lon="5.78783">
        <ele>1134.6</ele>
        <time>2025-10-05T09:58:24Z</time>
      </trkpt>
      <trkpt lat="43.33413" lon="5.78783">
        <ele>1134.3</ele>
        <time>2025-10-05T09:58:25Z</time>
      </trkpt>
      <trkpt lat="43.33413" lon="5.78783">
        <ele>1134.1</ele>
        <time>2025-10-05T09:58:26Z</time>
      </trkpt>
      <trkpt lat="43.33413" lon="5.78784">
        <ele>1134</ele>
        <time>2025-10-05T09:58:27Z</time>
      </trkpt>
      <trkpt lat="43.33413" lon="5.78784">
        <ele>1133.6</ele>
        <time>2025-10-05T09:58:28Z</time>
      </trkpt>
      <trkpt lat="43.33413" lon="5.78783">
        <ele>1133.3</ele>
        <time>2025-10-05T09:58:29Z</time>
      </trkpt>
      <trkpt lat="43.33413" lon="5.78783">
        <ele>1133.4</ele>
        <time>2025-10-05T09:58:30Z</time>
      </trkpt>
      <trkpt lat="43.33413" lon="5.78783">
        <ele>1133.4</ele>
        <time>2025-10-05T09:58:31Z</time>
      </trkpt>
      <trkpt lat="43.33413" lon="5.78784">
        <ele>1133.7</ele>
        <time>2025-10-05T09:58:32Z</time>
      </trkpt>
      <trkpt lat="43.33413" lon="5.78783">
        <ele>1133.7</ele>
        <time>2025-10-05T09:58:33Z</time>
      </trkpt>
      <trkpt lat="43.33413" lon="5.78783">
        <ele>1133.5</ele>
        <time>2025-10-05T09:58:34Z</time>
      </trkpt>
      <trkpt lat="43.33413" lon="5.78784">
        <ele>1133.3</ele>
        <time>2025-10-05T09:58:35Z</time>
      </trkpt>
      <trkpt lat="43.33413" lon="5.78784">
        <ele>1133.6</ele>
        <time>2025-10-05T09:58:36Z</time>
      </trkpt>
      <trkpt lat="43.33413" lon="5.78784">
        <ele>1133.6</ele>
        <time>2025-10-05T09:58:37Z</time>
      </trkpt>
      <trkpt lat="43.33413" lon="5.78784">
        <ele>1133.9</ele>
        <time>2025-10-05T09:58:38Z</time>
      </trkpt>
      <trkpt lat="43.33413" lon="5.78784">
        <ele>1133.7</ele>
        <time>2025-10-05T09:58:39Z</time>
      </trkpt>
      <trkpt lat="43.33413" lon="5.78784">
        <ele>1133.9</ele>
        <time>2025-10-05T09:58:40Z</time>
      </trkpt>
      <trkpt lat="43.33413" lon="5.78784">
        <ele>1134</ele>
        <time>2025-10-05T09:58:41Z</time>
      </trkpt>
      <trkpt lat="43.33413" lon="5.78784">
        <ele>1134</ele>
        <time>2025-10-05T09:58:42Z</time>
      </trkpt>
      <trkpt lat="43.33413" lon="5.78784">
        <ele>1134.1</ele>
        <time>2025-10-05T09:58:43Z</time>
      </trkpt>
      <trkpt lat="43.33413" lon="5.78784">
        <ele>1134.1</ele>
        <time>2025-10-05T09:58:44Z</time>
      </trkpt>
      <trkpt lat="43.33413" lon="5.78784">
        <ele>1134</ele>
        <time>2025-10-05T09:58:45Z</time>
      </trkpt>
      <trkpt lat="43.33413" lon="5.78784">
        <ele>1133.9</ele>
        <time>2025-10-05T09:58:46Z</time>
      </trkpt>
      <trkpt lat="43.33413" lon="5.78784">
        <ele>1133.9</ele>
        <time>2025-10-05T09:58:47Z</time>
      </trkpt>
      <trkpt lat="43.33413" lon="5.78784">
        <ele>1133.8</ele>
        <time>2025-10-05T09:58:48Z</time>
      </trkpt>
      <trkpt lat="43.33414" lon="5.78784">
        <ele>1134</ele>
        <time>2025-10-05T09:58:49Z</time>
      </trkpt>
      <trkpt lat="43.33414" lon="5.78784">
        <ele>1134.3</ele>
        <time>2025-10-05T09:58:50Z</time>
      </trkpt>
      <trkpt lat="43.33414" lon="5.78784">
        <ele>1134.3</ele>
        <time>2025-10-05T09:58:51Z</time>
      </trkpt>
      <trkpt lat="43.33414" lon="5.78784">
        <ele>1134.1</ele>
        <time>2025-10-05T09:58:52Z</time>
      </trkpt>
      <trkpt lat="43.33414" lon="5.78784">
        <ele>1134</ele>
        <time>2025-10-05T09:58:53Z</time>
      </trkpt>
      <trkpt lat="43.33415" lon="5.78784">
        <ele>1133.9</ele>
        <time>2025-10-05T09:58:54Z</time>
      </trkpt>
      <trkpt lat="43.33415" lon="5.78784">
        <ele>1133.8</ele>
        <time>2025-10-05T09:58:55Z</time>
      </trkpt>
      <trkpt lat="43.33414" lon="5.78784">
        <ele>1133.5</ele>
        <time>2025-10-05T09:58:56Z</time>
      </trkpt>
      <trkpt lat="43.33414" lon="5.78784">
        <ele>1133.2</ele>
        <time>2025-10-05T09:58:57Z</time>
      </trkpt>
      <trkpt lat="43.33414" lon="5.78784">
        <ele>1133.2</ele>
        <time>2025-10-05T09:58:58Z</time>
      </trkpt>
      <trkpt lat="43.33414" lon="5.78784">
        <ele>1133.2</ele>
        <time>2025-10-05T09:58:59Z</time>
      </trkpt>
      <trkpt lat="43.33414" lon="5.78784">
        <ele>1133</ele>
        <time>2025-10-05T09:59:00Z</time>
      </trkpt>
      <trkpt lat="43.33414" lon="5.78784">
        <ele>1132.8</ele>
        <time>2025-10-05T09:59:01Z</time>
      </trkpt>
      <trkpt lat="43.33414" lon="5.78785">
        <ele>1132.7</ele>
        <time>2025-10-05T09:59:02Z</time>
      </trkpt>
      <trkpt lat="43.33414" lon="5.78785">
        <ele>1132.5</ele>
        <time>2025-10-05T09:59:03Z</time>
      </trkpt>
      <trkpt lat="43.33414" lon="5.78785">
        <ele>1132.5</ele>
        <time>2025-10-05T09:59:04Z</time>
      </trkpt>
      <trkpt lat="43.33414" lon="5.78785">
        <ele>1132.6</ele>
        <time>2025-10-05T09:59:05Z</time>
      </trkpt>
      <trkpt lat="43.33414" lon="5.78785">
        <ele>1132.4</ele>
        <time>2025-10-05T09:59:06Z</time>
      </trkpt>
      <trkpt lat="43.33414" lon="5.78785">
        <ele>1132.5</ele>
        <time>2025-10-05T09:59:07Z</time>
      </trkpt>
      <trkpt lat="43.33414" lon="5.78784">
        <ele>1132.4</ele>
        <time>2025-10-05T09:59:08Z</time>
      </trkpt>
      <trkpt lat="43.33414" lon="5.78784">
        <ele>1132.4</ele>
        <time>2025-10-05T09:59:09Z</time>
      </trkpt>
      <trkpt lat="43.33414" lon="5.78784">
        <ele>1132.6</ele>
        <time>2025-10-05T09:59:10Z</time>
      </trkpt>
      <trkpt lat="43.33414" lon="5.78784">
        <ele>1132.8</ele>
        <time>2025-10-05T09:59:11Z</time>
      </trkpt>
      <trkpt lat="43.33414" lon="5.78784">
        <ele>1132.9</ele>
        <time>2025-10-05T09:59:12Z</time>
      </trkpt>
      <trkpt lat="43.33415" lon="5.78783">
        <ele>1133</ele>
        <time>2025-10-05T09:59:13Z</time>
      </trkpt>
      <trkpt lat="43.33415" lon="5.78783">
        <ele>1133.1</ele>
        <time>2025-10-05T09:59:14Z</time>
      </trkpt>
      <trkpt lat="43.33415" lon="5.78783">
        <ele>1133.3</ele>
        <time>2025-10-05T09:59:15Z</time>
      </trkpt>
      <trkpt lat="43.33414" lon="5.78783">
        <ele>1133.2</ele>
        <time>2025-10-05T09:59:16Z</time>
      </trkpt>
      <trkpt lat="43.33414" lon="5.78783">
        <ele>1133.1</ele>
        <time>2025-10-05T09:59:17Z</time>
      </trkpt>
      <trkpt lat="43.33414" lon="5.78782">
        <ele>1133</ele>
        <time>2025-10-05T09:59:18Z</time>
      </trkpt>
      <trkpt lat="43.33414" lon="5.78782">
        <ele>1133</ele>
        <time>2025-10-05T09:59:19Z</time>
      </trkpt>
      <trkpt lat="43.33414" lon="5.78782">
        <ele>1132.8</ele>
        <time>2025-10-05T09:59:20Z</time>
      </trkpt>
      <trkpt lat="43.33414" lon="5.78782">
        <ele>1132.8</ele>
        <time>2025-10-05T09:59:21Z</time>
      </trkpt>
      <trkpt lat="43.33414" lon="5.78781">
        <ele>1132.9</ele>
        <time>2025-10-05T09:59:22Z</time>
      </trkpt>
      <trkpt lat="43.33413" lon="5.78782">
        <ele>1133</ele>
        <time>2025-10-05T09:59:23Z</time>
      </trkpt>
      <trkpt lat="43.33413" lon="5.78781">
        <ele>1133</ele>
        <time>2025-10-05T09:59:24Z</time>
      </trkpt>
      <trkpt lat="43.33413" lon="5.78781">
        <ele>1132.7</ele>
        <time>2025-10-05T09:59:25Z</time>
      </trkpt>
      <trkpt lat="43.33413" lon="5.78781">
        <ele>1132.9</ele>
        <time>2025-10-05T09:59:26Z</time>
      </trkpt>
      <trkpt lat="43.33413" lon="5.7878">
        <ele>1133.1</ele>
        <time>2025-10-05T09:59:27Z</time>
      </trkpt>
      <trkpt lat="43.33413" lon="5.78781">
        <ele>1133.2</ele>
        <time>2025-10-05T09:59:28Z</time>
      </trkpt>
      <trkpt lat="43.33413" lon="5.78781">
        <ele>1133.3</ele>
        <time>2025-10-05T09:59:29Z</time>
      </trkpt>
      <trkpt lat="43.33413" lon="5.78781">
        <ele>1133.3</ele>
        <time>2025-10-05T09:59:30Z</time>
      </trkpt>
      <trkpt lat="43.33413" lon="5.78781">
        <ele>1133.4</ele>
        <time>2025-10-05T09:59:31Z</time>
      </trkpt>
      <trkpt lat="43.33413" lon="5.78781">
        <ele>1133.4</ele>
        <time>2025-10-05T09:59:32Z</time>
      </trkpt>
      <trkpt lat="43.33413" lon="5.7878">
        <ele>1133.4</ele>
        <time>2025-10-05T09:59:33Z</time>
      </trkpt>
      <trkpt lat="43.33413" lon="5.7878">
        <ele>1133.4</ele>
        <time>2025-10-05T09:59:34Z</time>
      </trkpt>
      <trkpt lat="43.33413" lon="5.7878">
        <ele>1133.3</ele>
        <time>2025-10-05T09:59:35Z</time>
      </trkpt>
      <trkpt lat="43.33413" lon="5.7878">
        <ele>1133.2</ele>
        <time>2025-10-05T09:59:36Z</time>
      </trkpt>
      <trkpt lat="43.33413" lon="5.7878">
        <ele>1133</ele>
        <time>2025-10-05T09:59:37Z</time>
      </trkpt>
      <trkpt lat="43.33413" lon="5.78779">
        <ele>1132.8</ele>
        <time>2025-10-05T09:59:38Z</time>
      </trkpt>
      <trkpt lat="43.33413" lon="5.78779">
        <ele>1132.7</ele>
        <time>2025-10-05T09:59:39Z</time>
      </trkpt>
      <trkpt lat="43.33413" lon="5.78779">
        <ele>1132.5</ele>
        <time>2025-10-05T09:59:40Z</time>
      </trkpt>
      <trkpt lat="43.33413" lon="5.78779">
        <ele>1132.4</ele>
        <time>2025-10-05T09:59:41Z</time>
      </trkpt>
      <trkpt lat="43.33413" lon="5.78779">
        <ele>1132.2</ele>
        <time>2025-10-05T09:59:42Z</time>
      </trkpt>
      <trkpt lat="43.33413" lon="5.78779">
        <ele>1132</ele>
        <time>2025-10-05T09:59:43Z</time>
      </trkpt>
      <trkpt lat="43.33413" lon="5.78779">
        <ele>1131.9</ele>
        <time>2025-10-05T09:59:44Z</time>
      </trkpt>
      <trkpt lat="43.33413" lon="5.78779">
        <ele>1131.8</ele>
        <time>2025-10-05T09:59:45Z</time>
      </trkpt>
      <trkpt lat="43.33413" lon="5.78779">
        <ele>1131.6</ele>
        <time>2025-10-05T09:59:46Z</time>
      </trkpt>
      <trkpt lat="43.33413" lon="5.78779">
        <ele>1131.6</ele>
        <time>2025-10-05T09:59:47Z</time>
      </trkpt>
      <trkpt lat="43.33413" lon="5.78779">
        <ele>1131.6</ele>
        <time>2025-10-05T09:59:48Z</time>
      </trkpt>
      <trkpt lat="43.33413" lon="5.78779">
        <ele>1131.6</ele>
        <time>2025-10-05T09:59:49Z</time>
      </trkpt>
      <trkpt lat="43.33413" lon="5.78779">
        <ele>1131.5</ele>
        <time>2025-10-05T09:59:50Z</time>
      </trkpt>
      <trkpt lat="43.33413" lon="5.78779">
        <ele>1131.5</ele>
        <time>2025-10-05T09:59:51Z</time>
      </trkpt>
      <trkpt lat="43.33413" lon="5.78779">
        <ele>1131.5</ele>
        <time>2025-10-05T09:59:52Z</time>
      </trkpt>
      <trkpt lat="43.33413" lon="5.78779">
        <ele>1131.5</ele>
        <time>2025-10-05T09:59:53Z</time>
      </trkpt>
      <trkpt lat="43.33413" lon="5.78779">
        <ele>1131.5</ele>
        <time>2025-10-05T09:59:54Z</time>
      </trkpt>
      <trkpt lat="43.33413" lon="5.78779">
        <ele>1131.5</ele>
        <time>2025-10-05T09:59:55Z</time>
      </trkpt>
      <trkpt lat="43.33413" lon="5.78779">
        <ele>1131.4</ele>
        <time>2025-10-05T09:59:56Z</time>
      </trkpt>
      <trkpt lat="43.33413" lon="5.78779">
        <ele>1131.4</ele>
        <time>2025-10-05T09:59:57Z</time>
      </trkpt>
      <trkpt lat="43.33413" lon="5.78779">
        <ele>1131.4</ele>
        <time>2025-10-05T09:59:58Z</time>
      </trkpt>
      <trkpt lat="43.33413" lon="5.78779">
        <ele>1131.3</ele>
        <time>2025-10-05T09:59:59Z</time>
      </trkpt>
      <trkpt lat="43.33413" lon="5.78779">
        <ele>1131.3</ele>
        <time>2025-10-05T10:00:00Z</time>
      </trkpt>
      <trkpt lat="43.33413" lon="5.78779">
        <ele>1131.5</ele>
        <time>2025-10-05T10:00:01Z</time>
      </trkpt>
      <trkpt lat="43.33413" lon="5.78779">
        <ele>1131.6</ele>
        <time>2025-10-05T10:00:02Z</time>
      </trkpt>
      <trkpt lat="43.33413" lon="5.7878">
        <ele>1131.8</ele>
        <time>2025-10-05T10:00:03Z</time>
      </trkpt>
      <trkpt lat="43.33413" lon="5.7878">
        <ele>1131.9</ele>
        <time>2025-10-05T10:00:04Z</time>
      </trkpt>
      <trkpt lat="43.33413" lon="5.7878">
        <ele>1132.1</ele>
        <time>2025-10-05T10:00:05Z</time>
      </trkpt>
      <trkpt lat="43.33413" lon="5.7878">
        <ele>1132.2</ele>
        <time>2025-10-05T10:00:06Z</time>
      </trkpt>
      <trkpt lat="43.33413" lon="5.7878">
        <ele>1132.2</ele>
        <time>2025-10-05T10:00:07Z</time>
      </trkpt>
      <trkpt lat="43.33413" lon="5.7878">
        <ele>1132.4</ele>
        <time>2025-10-05T10:00:08Z</time>
      </trkpt>
      <trkpt lat="43.33413" lon="5.7878">
        <ele>1132.5</ele>
        <time>2025-10-05T10:00:09Z</time>
      </trkpt>
      <trkpt lat="43.33413" lon="5.7878">
        <ele>1132.7</ele>
        <time>2025-10-05T10:00:10Z</time>
      </trkpt>
      <trkpt lat="43.33413" lon="5.7878">
        <ele>1132.8</ele>
        <time>2025-10-05T10:00:11Z</time>
      </trkpt>
      <trkpt lat="43.33413" lon="5.7878">
        <ele>1132.8</ele>
        <time>2025-10-05T10:00:12Z</time>
      </trkpt>
      <trkpt lat="43.33413" lon="5.7878">
        <ele>1132.9</ele>
        <time>2025-10-05T10:00:13Z</time>
      </trkpt>
      <trkpt lat="43.33413" lon="5.7878">
        <ele>1132.9</ele>
        <time>2025-10-05T10:00:14Z</time>
      </trkpt>
      <trkpt lat="43.33413" lon="5.7878">
        <ele>1132.7</ele>
        <time>2025-10-05T10:00:15Z</time>
      </trkpt>
      <trkpt lat="43.33413" lon="5.7878">
        <ele>1132.6</ele>
        <time>2025-10-05T10:00:16Z</time>
      </trkpt>
      <trkpt lat="43.33413" lon="5.7878">
        <ele>1132.6</ele>
        <time>2025-10-05T10:00:17Z</time>
      </trkpt>
      <trkpt lat="43.33413" lon="5.7878">
        <ele>1132.3</ele>
        <time>2025-10-05T10:00:18Z</time>
      </trkpt>
      <trkpt lat="43.33413" lon="5.7878">
        <ele>1132.2</ele>
        <time>2025-10-05T10:00:19Z</time>
      </trkpt>
      <trkpt lat="43.33413" lon="5.7878">
        <ele>1132.1</ele>
        <time>2025-10-05T10:00:20Z</time>
      </trkpt>
      <trkpt lat="43.33413" lon="5.7878">
        <ele>1132</ele>
        <time>2025-10-05T10:00:21Z</time>
      </trkpt>
      <trkpt lat="43.33413" lon="5.7878">
        <ele>1132.1</ele>
        <time>2025-10-05T10:00:22Z</time>
      </trkpt>
      <trkpt lat="43.33413" lon="5.7878">
        <ele>1132.2</ele>
        <time>2025-10-05T10:00:23Z</time>
      </trkpt>
      <trkpt lat="43.33413" lon="5.7878">
        <ele>1132.1</ele>
        <time>2025-10-05T10:00:24Z</time>
      </trkpt>
      <trkpt lat="43.33413" lon="5.7878">
        <ele>1132</ele>
        <time>2025-10-05T10:00:25Z</time>
      </trkpt>
      <trkpt lat="43.33413" lon="5.7878">
        <ele>1131.8</ele>
        <time>2025-10-05T10:00:26Z</time>
      </trkpt>
      <trkpt lat="43.33413" lon="5.7878">
        <ele>1131.8</ele>
        <time>2025-10-05T10:00:27Z</time>
      </trkpt>
      <trkpt lat="43.33413" lon="5.7878">
        <ele>1131.7</ele>
        <time>2025-10-05T10:00:28Z</time>
      </trkpt>
      <trkpt lat="43.33413" lon="5.7878">
        <ele>1131.6</ele>
        <time>2025-10-05T10:00:29Z</time>
      </trkpt>
      <trkpt lat="43.33413" lon="5.7878">
        <ele>1131.5</ele>
        <time>2025-10-05T10:00:30Z</time>
      </trkpt>
      <trkpt lat="43.33414" lon="5.7878">
        <ele>1131.5</ele>
        <time>2025-10-05T10:00:31Z</time>
      </trkpt>
      <trkpt lat="43.33414" lon="5.7878">
        <ele>1131.5</ele>
        <time>2025-10-05T10:00:32Z</time>
      </trkpt>
      <trkpt lat="43.33414" lon="5.7878">
        <ele>1131.5</ele>
        <time>2025-10-05T10:00:33Z</time>
      </trkpt>
      <trkpt lat="43.33414" lon="5.7878">
        <ele>1131.5</ele>
        <time>2025-10-05T10:00:34Z</time>
      </trkpt>
      <trkpt lat="43.33414" lon="5.7878">
        <ele>1131.5</ele>
        <time>2025-10-05T10:00:35Z</time>
      </trkpt>
      <trkpt lat="43.33414" lon="5.7878">
        <ele>1131.4</ele>
        <time>2025-10-05T10:00:36Z</time>
      </trkpt>
      <trkpt lat="43.33414" lon="5.7878">
        <ele>1131.3</ele>
        <time>2025-10-05T10:00:37Z</time>
      </trkpt>
      <trkpt lat="43.33414" lon="5.7878">
        <ele>1131.3</ele>
        <time>2025-10-05T10:00:38Z</time>
      </trkpt>
      <trkpt lat="43.33414" lon="5.7878">
        <ele>1131.2</ele>
        <time>2025-10-05T10:00:39Z</time>
      </trkpt>
      <trkpt lat="43.33414" lon="5.7878">
        <ele>1131</ele>
        <time>2025-10-05T10:00:40Z</time>
      </trkpt>
      <trkpt lat="43.33414" lon="5.7878">
        <ele>1130.9</ele>
        <time>2025-10-05T10:00:41Z</time>
      </trkpt>
      <trkpt lat="43.33414" lon="5.7878">
        <ele>1130.8</ele>
        <time>2025-10-05T10:00:42Z</time>
      </trkpt>
      <trkpt lat="43.33414" lon="5.7878">
        <ele>1130.7</ele>
        <time>2025-10-05T10:00:43Z</time>
      </trkpt>
      <trkpt lat="43.33414" lon="5.7878">
        <ele>1130.6</ele>
        <time>2025-10-05T10:00:44Z</time>
      </trkpt>
      <trkpt lat="43.33414" lon="5.7878">
        <ele>1130.5</ele>
        <time>2025-10-05T10:00:45Z</time>
      </trkpt>
      <trkpt lat="43.33414" lon="5.7878">
        <ele>1130.4</ele>
        <time>2025-10-05T10:00:46Z</time>
      </trkpt>
      <trkpt lat="43.33414" lon="5.7878">
        <ele>1130.3</ele>
        <time>2025-10-05T10:00:47Z</time>
      </trkpt>
      <trkpt lat="43.33414" lon="5.7878">
        <ele>1130.3</ele>
        <time>2025-10-05T10:00:48Z</time>
      </trkpt>
      <trkpt lat="43.33414" lon="5.7878">
        <ele>1130.3</ele>
        <time>2025-10-05T10:00:49Z</time>
      </trkpt>
      <trkpt lat="43.33414" lon="5.7878">
        <ele>1130.2</ele>
        <time>2025-10-05T10:00:50Z</time>
      </trkpt>
      <trkpt lat="43.33414" lon="5.7878">
        <ele>1130</ele>
        <time>2025-10-05T10:00:51Z</time>
      </trkpt>
      <trkpt lat="43.33414" lon="5.7878">
        <ele>1130</ele>
        <time>2025-10-05T10:00:52Z</time>
      </trkpt>
      <trkpt lat="43.33414" lon="5.7878">
        <ele>1130</ele>
        <time>2025-10-05T10:00:53Z</time>
      </trkpt>
      <trkpt lat="43.33414" lon="5.7878">
        <ele>1130</ele>
        <time>2025-10-05T10:00:54Z</time>
      </trkpt>
      <trkpt lat="43.33414" lon="5.7878">
        <ele>1130</ele>
        <time>2025-10-05T10:00:55Z</time>
      </trkpt>
      <trkpt lat="43.33414" lon="5.7878">
        <ele>1129.9</ele>
        <time>2025-10-05T10:00:56Z</time>
      </trkpt>
      <trkpt lat="43.33414" lon="5.7878">
        <ele>1129.8</ele>
        <time>2025-10-05T10:00:57Z</time>
      </trkpt>
      <trkpt lat="43.33414" lon="5.7878">
        <ele>1129.8</ele>
        <time>2025-10-05T10:00:58Z</time>
      </trkpt>
      <trkpt lat="43.33414" lon="5.7878">
        <ele>1129.8</ele>
        <time>2025-10-05T10:00:59Z</time>
      </trkpt>
      <trkpt lat="43.33414" lon="5.7878">
        <ele>1129.8</ele>
        <time>2025-10-05T10:01:00Z</time>
      </trkpt>
      <trkpt lat="43.33414" lon="5.7878">
        <ele>1129.8</ele>
        <time>2025-10-05T10:01:01Z</time>
      </trkpt>
      <trkpt lat="43.33414" lon="5.7878">
        <ele>1129.8</ele>
        <time>2025-10-05T10:01:02Z</time>
      </trkpt>
      <trkpt lat="43.33414" lon="5.7878">
        <ele>1129.7</ele>
        <time>2025-10-05T10:01:03Z</time>
      </trkpt>
      <trkpt lat="43.33414" lon="5.7878">
        <ele>1129.6</ele>
        <time>2025-10-05T10:01:04Z</time>
      </trkpt>
      <trkpt lat="43.33414" lon="5.7878">
        <ele>1129.6</ele>
        <time>2025-10-05T10:01:05Z</time>
      </trkpt>
      <trkpt lat="43.33414" lon="5.7878">
        <ele>1129.6</ele>
        <time>2025-10-05T10:01:06Z</time>
      </trkpt>
      <trkpt lat="43.33414" lon="5.7878">
        <ele>1129.5</ele>
        <time>2025-10-05T10:01:07Z</time>
      </trkpt>
      <trkpt lat="43.33414" lon="5.7878">
        <ele>1129.5</ele>
        <time>2025-10-05T10:01:08Z</time>
      </trkpt>
      <trkpt lat="43.33414" lon="5.7878">
        <ele>1129.6</ele>
        <time>2025-10-05T10:01:09Z</time>
      </trkpt>
      <trkpt lat="43.33414" lon="5.7878">
        <ele>1129.6</ele>
        <time>2025-10-05T10:01:10Z</time>
      </trkpt>
      <trkpt lat="43.33414" lon="5.7878">
        <ele>1129.5</ele>
        <time>2025-10-05T10:01:11Z</time>
      </trkpt>
      <trkpt lat="43.33414" lon="5.7878">
        <ele>1129.6</ele>
        <time>2025-10-05T10:01:12Z</time>
      </trkpt>
      <trkpt lat="43.33414" lon="5.7878">
        <ele>1129.7</ele>
        <time>2025-10-05T10:01:13Z</time>
      </trkpt>
      <trkpt lat="43.33414" lon="5.7878">
        <ele>1129.7</ele>
        <time>2025-10-05T10:01:14Z</time>
      </trkpt>
      <trkpt lat="43.33414" lon="5.7878">
        <ele>1129.7</ele>
        <time>2025-10-05T10:01:15Z</time>
      </trkpt>
      <trkpt lat="43.33414" lon="5.7878">
        <ele>1129.6</ele>
        <time>2025-10-05T10:01:16Z</time>
      </trkpt>
      <trkpt lat="43.33414" lon="5.7878">
        <ele>1129.6</ele>
        <time>2025-10-05T10:01:17Z</time>
      </trkpt>
      <trkpt lat="43.33414" lon="5.7878">
        <ele>1129.6</ele>
        <time>2025-10-05T10:01:18Z</time>
      </trkpt>
      <trkpt lat="43.33414" lon="5.78779">
        <ele>1129.5</ele>
        <time>2025-10-05T10:01:19Z</time>
      </trkpt>
      <trkpt lat="43.33414" lon="5.78779">
        <ele>1129.4</ele>
        <time>2025-10-05T10:01:20Z</time>
      </trkpt>
      <trkpt lat="43.33414" lon="5.78779">
        <ele>1129.4</ele>
        <time>2025-10-05T10:01:21Z</time>
      </trkpt>
      <trkpt lat="43.33414" lon="5.78779">
        <ele>1129.4</ele>
        <time>2025-10-05T10:01:22Z</time>
      </trkpt>
      <trkpt lat="43.33414" lon="5.78779">
        <ele>1129.4</ele>
        <time>2025-10-05T10:01:23Z</time>
      </trkpt>
      <trkpt lat="43.33414" lon="5.78779">
        <ele>1129.4</ele>
        <time>2025-10-05T10:01:24Z</time>
      </trkpt>
      <trkpt lat="43.33414" lon="5.78779">
        <ele>1129.4</ele>
        <time>2025-10-05T10:01:25Z</time>
      </trkpt>
      <trkpt lat="43.33414" lon="5.78779">
        <ele>1129.4</ele>
        <time>2025-10-05T10:01:26Z</time>
      </trkpt>
      <trkpt lat="43.33414" lon="5.78779">
        <ele>1129.6</ele>
        <time>2025-10-05T10:01:27Z</time>
      </trkpt>
      <trkpt lat="43.33414" lon="5.78779">
        <ele>1129.9</ele>
        <time>2025-10-05T10:01:28Z</time>
      </trkpt>
      <trkpt lat="43.33414" lon="5.78779">
        <ele>1130</ele>
        <time>2025-10-05T10:01:29Z</time>
      </trkpt>
      <trkpt lat="43.33414" lon="5.78779">
        <ele>1130.1</ele>
        <time>2025-10-05T10:01:30Z</time>
      </trkpt>
      <trkpt lat="43.33414" lon="5.78779">
        <ele>1130.1</ele>
        <time>2025-10-05T10:01:31Z</time>
      </trkpt>
      <trkpt lat="43.33414" lon="5.78779">
        <ele>1130.2</ele>
        <time>2025-10-05T10:01:32Z</time>
      </trkpt>
      <trkpt lat="43.33414" lon="5.78779">
        <ele>1130.3</ele>
        <time>2025-10-05T10:01:33Z</time>
      </trkpt>
      <trkpt lat="43.33414" lon="5.78779">
        <ele>1130.3</ele>
        <time>2025-10-05T10:01:34Z</time>
      </trkpt>
      <trkpt lat="43.33414" lon="5.78779">
        <ele>1130.4</ele>
        <time>2025-10-05T10:01:35Z</time>
      </trkpt>
      <trkpt lat="43.33414" lon="5.78779">
        <ele>1130.5</ele>
        <time>2025-10-05T10:01:36Z</time>
      </trkpt>
      <trkpt lat="43.33414" lon="5.78779">
        <ele>1130.6</ele>
        <time>2025-10-05T10:01:37Z</time>
      </trkpt>
      <trkpt lat="43.33414" lon="5.78779">
        <ele>1130.7</ele>
        <time>2025-10-05T10:01:38Z</time>
      </trkpt>
      <trkpt lat="43.33414" lon="5.78778">
        <ele>1130.8</ele>
        <time>2025-10-05T10:01:39Z</time>
      </trkpt>
      <trkpt lat="43.33414" lon="5.78778">
        <ele>1130.8</ele>
        <time>2025-10-05T10:01:40Z</time>
      </trkpt>
      <trkpt lat="43.33414" lon="5.78778">
        <ele>1131</ele>
        <time>2025-10-05T10:01:41Z</time>
      </trkpt>
      <trkpt lat="43.33414" lon="5.78778">
        <ele>1131.3</ele>
        <time>2025-10-05T10:01:42Z</time>
      </trkpt>
      <trkpt lat="43.33414" lon="5.78778">
        <ele>1131.3</ele>
        <time>2025-10-05T10:01:43Z</time>
      </trkpt>
      <trkpt lat="43.33414" lon="5.78778">
        <ele>1131.3</ele>
        <time>2025-10-05T10:01:44Z</time>
      </trkpt>
      <trkpt lat="43.33414" lon="5.78778">
        <ele>1131.3</ele>
        <time>2025-10-05T10:01:45Z</time>
      </trkpt>
      <trkpt lat="43.33414" lon="5.78778">
        <ele>1131.2</ele>
        <time>2025-10-05T10:01:46Z</time>
      </trkpt>
      <trkpt lat="43.33414" lon="5.78778">
        <ele>1131</ele>
        <time>2025-10-05T10:01:47Z</time>
      </trkpt>
      <trkpt lat="43.33414" lon="5.78778">
        <ele>1130.9</ele>
        <time>2025-10-05T10:01:48Z</time>
      </trkpt>
      <trkpt lat="43.33414" lon="5.78778">
        <ele>1130.9</ele>
        <time>2025-10-05T10:01:49Z</time>
      </trkpt>
      <trkpt lat="43.33414" lon="5.78778">
        <ele>1130.8</ele>
        <time>2025-10-05T10:01:50Z</time>
      </trkpt>
      <trkpt lat="43.33414" lon="5.78778">
        <ele>1130.7</ele>
        <time>2025-10-05T10:01:51Z</time>
      </trkpt>
      <trkpt lat="43.33414" lon="5.78778">
        <ele>1130.6</ele>
        <time>2025-10-05T10:01:52Z</time>
      </trkpt>
      <trkpt lat="43.33414" lon="5.78778">
        <ele>1130.5</ele>
        <time>2025-10-05T10:01:53Z</time>
      </trkpt>
      <trkpt lat="43.33414" lon="5.78778">
        <ele>1130.4</ele>
        <time>2025-10-05T10:01:54Z</time>
      </trkpt>
      <trkpt lat="43.33414" lon="5.78778">
        <ele>1130.4</ele>
        <time>2025-10-05T10:01:55Z</time>
      </trkpt>
      <trkpt lat="43.33414" lon="5.78778">
        <ele>1130.2</ele>
        <time>2025-10-05T10:01:56Z</time>
      </trkpt>
      <trkpt lat="43.33415" lon="5.78778">
        <ele>1130.3</ele>
        <time>2025-10-05T10:01:57Z</time>
      </trkpt>
      <trkpt lat="43.33415" lon="5.78778">
        <ele>1130.3</ele>
        <time>2025-10-05T10:01:58Z</time>
      </trkpt>
      <trkpt lat="43.33415" lon="5.78778">
        <ele>1130.2</ele>
        <time>2025-10-05T10:01:59Z</time>
      </trkpt>
      <trkpt lat="43.33414" lon="5.78778">
        <ele>1130.2</ele>
        <time>2025-10-05T10:02:00Z</time>
      </trkpt>
      <trkpt lat="43.33414" lon="5.78778">
        <ele>1130.1</ele>
        <time>2025-10-05T10:02:01Z</time>
      </trkpt>
      <trkpt lat="43.33414" lon="5.78778">
        <ele>1130.1</ele>
        <time>2025-10-05T10:02:02Z</time>
      </trkpt>
      <trkpt lat="43.33414" lon="5.78778">
        <ele>1130.1</ele>
        <time>2025-10-05T10:02:03Z</time>
      </trkpt>
      <trkpt lat="43.33414" lon="5.78778">
        <ele>1130.2</ele>
        <time>2025-10-05T10:02:04Z</time>
      </trkpt>
      <trkpt lat="43.33414" lon="5.78778">
        <ele>1130.3</ele>
        <time>2025-10-05T10:02:05Z</time>
      </trkpt>
      <trkpt lat="43.33414" lon="5.78779">
        <ele>1130.4</ele>
        <time>2025-10-05T10:02:06Z</time>
      </trkpt>
      <trkpt lat="43.33414" lon="5.78779">
        <ele>1130.6</ele>
        <time>2025-10-05T10:02:07Z</time>
      </trkpt>
      <trkpt lat="43.33414" lon="5.78779">
        <ele>1130.8</ele>
        <time>2025-10-05T10:02:08Z</time>
      </trkpt>
      <trkpt lat="43.33414" lon="5.78779">
        <ele>1130.9</ele>
        <time>2025-10-05T10:02:09Z</time>
      </trkpt>
      <trkpt lat="43.33414" lon="5.78779">
        <ele>1130.9</ele>
        <time>2025-10-05T10:02:10Z</time>
      </trkpt>
      <trkpt lat="43.33414" lon="5.78779">
        <ele>1131</ele>
        <time>2025-10-05T10:02:11Z</time>
      </trkpt>
      <trkpt lat="43.33414" lon="5.78779">
        <ele>1131.1</ele>
        <time>2025-10-05T10:02:12Z</time>
      </trkpt>
      <trkpt lat="43.33414" lon="5.78779">
        <ele>1131.1</ele>
        <time>2025-10-05T10:02:13Z</time>
      </trkpt>
      <trkpt lat="43.33414" lon="5.78779">
        <ele>1131.1</ele>
        <time>2025-10-05T10:02:14Z</time>
      </trkpt>
      <trkpt lat="43.33414" lon="5.78779">
        <ele>1131</ele>
        <time>2025-10-05T10:02:15Z</time>
      </trkpt>
      <trkpt lat="43.33414" lon="5.78779">
        <ele>1130.8</ele>
        <time>2025-10-05T10:02:16Z</time>
      </trkpt>
      <trkpt lat="43.33414" lon="5.78779">
        <ele>1130.6</ele>
        <time>2025-10-05T10:02:17Z</time>
      </trkpt>
      <trkpt lat="43.33414" lon="5.78779">
        <ele>1130.6</ele>
        <time>2025-10-05T10:02:18Z</time>
      </trkpt>
      <trkpt lat="43.33414" lon="5.78779">
        <ele>1130.7</ele>
        <time>2025-10-05T10:02:19Z</time>
      </trkpt>
      <trkpt lat="43.33414" lon="5.78779">
        <ele>1130.8</ele>
        <time>2025-10-05T10:02:20Z</time>
      </trkpt>
      <trkpt lat="43.33414" lon="5.78779">
        <ele>1130.7</ele>
        <time>2025-10-05T10:02:21Z</time>
      </trkpt>
      <trkpt lat="43.33414" lon="5.78779">
        <ele>1130.7</ele>
        <time>2025-10-05T10:02:22Z</time>
      </trkpt>
      <trkpt lat="43.33414" lon="5.78779">
        <ele>1130.6</ele>
        <time>2025-10-05T10:02:23Z</time>
      </trkpt>
      <trkpt lat="43.33414" lon="5.78779">
        <ele>1130.6</ele>
        <time>2025-10-05T10:02:24Z</time>
      </trkpt>
      <trkpt lat="43.33414" lon="5.78779">
        <ele>1130.3</ele>
        <time>2025-10-05T10:02:25Z</time>
      </trkpt>
      <trkpt lat="43.33414" lon="5.78779">
        <ele>1130.3</ele>
        <time>2025-10-05T10:02:26Z</time>
      </trkpt>
      <trkpt lat="43.33414" lon="5.78779">
        <ele>1130.2</ele>
        <time>2025-10-05T10:02:27Z</time>
      </trkpt>
      <trkpt lat="43.33414" lon="5.78779">
        <ele>1130.3</ele>
        <time>2025-10-05T10:02:28Z</time>
      </trkpt>
      <trkpt lat="43.33414" lon="5.78779">
        <ele>1130.2</ele>
        <time>2025-10-05T10:02:29Z</time>
      </trkpt>
      <trkpt lat="43.33414" lon="5.78779">
        <ele>1130.1</ele>
        <time>2025-10-05T10:02:30Z</time>
      </trkpt>
      <trkpt lat="43.33414" lon="5.78779">
        <ele>1130.1</ele>
        <time>2025-10-05T10:02:31Z</time>
      </trkpt>
      <trkpt lat="43.33414" lon="5.78779">
        <ele>1130.1</ele>
        <time>2025-10-05T10:02:32Z</time>
      </trkpt>
      <trkpt lat="43.33414" lon="5.78779">
        <ele>1130</ele>
        <time>2025-10-05T10:02:33Z</time>
      </trkpt>
      <trkpt lat="43.33414" lon="5.78779">
        <ele>1130</ele>
        <time>2025-10-05T10:02:34Z</time>
      </trkpt>
      <trkpt lat="43.33414" lon="5.78779">
        <ele>1129.8</ele>
        <time>2025-10-05T10:02:35Z</time>
      </trkpt>
      <trkpt lat="43.33414" lon="5.78779">
        <ele>1129.6</ele>
        <time>2025-10-05T10:02:36Z</time>
      </trkpt>
      <trkpt lat="43.33414" lon="5.78779">
        <ele>1129.6</ele>
        <time>2025-10-05T10:02:37Z</time>
      </trkpt>
      <trkpt lat="43.33414" lon="5.78779">
        <ele>1129.6</ele>
        <time>2025-10-05T10:02:38Z</time>
      </trkpt>
      <trkpt lat="43.33414" lon="5.78779">
        <ele>1129.7</ele>
        <time>2025-10-05T10:02:39Z</time>
      </trkpt>
      <trkpt lat="43.33414" lon="5.78779">
        <ele>1129.7</ele>
        <time>2025-10-05T10:02:40Z</time>
      </trkpt>
      <trkpt lat="43.33414" lon="5.78779">
        <ele>1129.7</ele>
        <time>2025-10-05T10:02:41Z</time>
      </trkpt>
      <trkpt lat="43.33414" lon="5.78779">
        <ele>1129.6</ele>
        <time>2025-10-05T10:02:42Z</time>
      </trkpt>
      <trkpt lat="43.33414" lon="5.78779">
        <ele>1129.5</ele>
        <time>2025-10-05T10:02:43Z</time>
      </trkpt>
      <trkpt lat="43.33414" lon="5.78779">
        <ele>1129.5</ele>
        <time>2025-10-05T10:02:44Z</time>
      </trkpt>
      <trkpt lat="43.33414" lon="5.78779">
        <ele>1129.5</ele>
        <time>2025-10-05T10:02:45Z</time>
      </trkpt>
      <trkpt lat="43.33414" lon="5.78779">
        <ele>1129.5</ele>
        <time>2025-10-05T10:02:46Z</time>
      </trkpt>
      <trkpt lat="43.33414" lon="5.78779">
        <ele>1129.5</ele>
        <time>2025-10-05T10:02:47Z</time>
      </trkpt>
      <trkpt lat="43.33414" lon="5.78779">
        <ele>1129.6</ele>
        <time>2025-10-05T10:02:48Z</time>
      </trkpt>
      <trkpt lat="43.33414" lon="5.78779">
        <ele>1129.6</ele>
        <time>2025-10-05T10:02:49Z</time>
      </trkpt>
      <trkpt lat="43.33414" lon="5.78779">
        <ele>1129.8</ele>
        <time>2025-10-05T10:02:50Z</time>
      </trkpt>
      <trkpt lat="43.33414" lon="5.78779">
        <ele>1129.9</ele>
        <time>2025-10-05T10:02:51Z</time>
      </trkpt>
      <trkpt lat="43.33414" lon="5.78779">
        <ele>1129.9</ele>
        <time>2025-10-05T10:02:52Z</time>
      </trkpt>
      <trkpt lat="43.33414" lon="5.78779">
        <ele>1130</ele>
        <time>2025-10-05T10:02:53Z</time>
      </trkpt>
      <trkpt lat="43.33414" lon="5.78779">
        <ele>1130</ele>
        <time>2025-10-05T10:02:54Z</time>
      </trkpt>
      <trkpt lat="43.33414" lon="5.78779">
        <ele>1130</ele>
        <time>2025-10-05T10:02:55Z</time>
      </trkpt>
      <trkpt lat="43.33414" lon="5.78779">
        <ele>1130</ele>
        <time>2025-10-05T10:02:56Z</time>
      </trkpt>
      <trkpt lat="43.33414" lon="5.78779">
        <ele>1130</ele>
        <time>2025-10-05T10:02:57Z</time>
      </trkpt>
      <trkpt lat="43.33414" lon="5.78779">
        <ele>1130.1</ele>
        <time>2025-10-05T10:02:58Z</time>
      </trkpt>
      <trkpt lat="43.33414" lon="5.78779">
        <ele>1130.2</ele>
        <time>2025-10-05T10:02:59Z</time>
      </trkpt>
      <trkpt lat="43.33414" lon="5.78779">
        <ele>1130.2</ele>
        <time>2025-10-05T10:03:00Z</time>
      </trkpt>
      <trkpt lat="43.33414" lon="5.78779">
        <ele>1130.2</ele>
        <time>2025-10-05T10:03:01Z</time>
      </trkpt>
      <trkpt lat="43.33414" lon="5.78779">
        <ele>1130.1</ele>
        <time>2025-10-05T10:03:02Z</time>
      </trkpt>
      <trkpt lat="43.33414" lon="5.78779">
        <ele>1130</ele>
        <time>2025-10-05T10:03:03Z</time>
      </trkpt>
      <trkpt lat="43.33414" lon="5.78779">
        <ele>1130</ele>
        <time>2025-10-05T10:03:04Z</time>
      </trkpt>
      <trkpt lat="43.33414" lon="5.78779">
        <ele>1130</ele>
        <time>2025-10-05T10:03:05Z</time>
      </trkpt>
      <trkpt lat="43.33414" lon="5.78779">
        <ele>1130</ele>
        <time>2025-10-05T10:03:06Z</time>
      </trkpt>
      <trkpt lat="43.33414" lon="5.78779">
        <ele>1129.9</ele>
        <time>2025-10-05T10:03:07Z</time>
      </trkpt>
      <trkpt lat="43.33414" lon="5.78779">
        <ele>1129.8</ele>
        <time>2025-10-05T10:03:08Z</time>
      </trkpt>
      <trkpt lat="43.33414" lon="5.78779">
        <ele>1129.8</ele>
        <time>2025-10-05T10:03:09Z</time>
      </trkpt>
      <trkpt lat="43.33414" lon="5.78779">
        <ele>1129.8</ele>
        <time>2025-10-05T10:03:10Z</time>
      </trkpt>
      <trkpt lat="43.33414" lon="5.78779">
        <ele>1129.7</ele>
        <time>2025-10-05T10:03:11Z</time>
      </trkpt>
      <trkpt lat="43.33414" lon="5.78779">
        <ele>1129.6</ele>
        <time>2025-10-05T10:03:12Z</time>
      </trkpt>
      <trkpt lat="43.33414" lon="5.78779">
        <ele>1129.6</ele>
        <time>2025-10-05T10:03:13Z</time>
      </trkpt>
      <trkpt lat="43.33414" lon="5.78779">
        <ele>1129.6</ele>
        <time>2025-10-05T10:03:14Z</time>
      </trkpt>
      <trkpt lat="43.33414" lon="5.78779">
        <ele>1129.5</ele>
        <time>2025-10-05T10:03:15Z</time>
      </trkpt>
      <trkpt lat="43.33414" lon="5.78779">
        <ele>1129.5</ele>
        <time>2025-10-05T10:03:16Z</time>
      </trkpt>
      <trkpt lat="43.33414" lon="5.78779">
        <ele>1129.5</ele>
        <time>2025-10-05T10:03:17Z</time>
      </trkpt>
      <trkpt lat="43.33414" lon="5.78779">
        <ele>1129.5</ele>
        <time>2025-10-05T10:03:18Z</time>
      </trkpt>
      <trkpt lat="43.33414" lon="5.78779">
        <ele>1129.5</ele>
        <time>2025-10-05T10:03:19Z</time>
      </trkpt>
      <trkpt lat="43.33413" lon="5.78779">
        <ele>1129.7</ele>
        <time>2025-10-05T10:03:20Z</time>
      </trkpt>
      <trkpt lat="43.33413" lon="5.78779">
        <ele>1129.6</ele>
        <time>2025-10-05T10:03:21Z</time>
      </trkpt>
      <trkpt lat="43.33414" lon="5.78779">
        <ele>1129.6</ele>
        <time>2025-10-05T10:03:22Z</time>
      </trkpt>
      <trkpt lat="43.33414" lon="5.78779">
        <ele>1129.8</ele>
        <time>2025-10-05T10:03:23Z</time>
      </trkpt>
      <trkpt lat="43.33414" lon="5.78779">
        <ele>1129.9</ele>
        <time>2025-10-05T10:03:24Z</time>
      </trkpt>
      <trkpt lat="43.33414" lon="5.78779">
        <ele>1130.1</ele>
        <time>2025-10-05T10:03:25Z</time>
      </trkpt>
      <trkpt lat="43.33414" lon="5.78779">
        <ele>1129.9</ele>
        <time>2025-10-05T10:03:26Z</time>
      </trkpt>
      <trkpt lat="43.33414" lon="5.78779">
        <ele>1129.9</ele>
        <time>2025-10-05T10:03:27Z</time>
      </trkpt>
      <trkpt lat="43.33413" lon="5.78779">
        <ele>1130</ele>
        <time>2025-10-05T10:03:28Z</time>
      </trkpt>
      <trkpt lat="43.33414" lon="5.78778">
        <ele>1130</ele>
        <time>2025-10-05T10:03:29Z</time>
      </trkpt>
      <trkpt lat="43.33414" lon="5.78779">
        <ele>1129.9</ele>
        <time>2025-10-05T10:03:30Z</time>
      </trkpt>
      <trkpt lat="43.33414" lon="5.78779">
        <ele>1130</ele>
        <time>2025-10-05T10:03:31Z</time>
      </trkpt>
      <trkpt lat="43.33414" lon="5.78778">
        <ele>1130</ele>
        <time>2025-10-05T10:03:32Z</time>
      </trkpt>
      <trkpt lat="43.33414" lon="5.78778">
        <ele>1129.9</ele>
        <time>2025-10-05T10:03:33Z</time>
      </trkpt>
      <trkpt lat="43.33414" lon="5.78778">
        <ele>1129.9</ele>
        <time>2025-10-05T10:03:34Z</time>
      </trkpt>
      <trkpt lat="43.33414" lon="5.78778">
        <ele>1130</ele>
        <time>2025-10-05T10:03:35Z</time>
      </trkpt>
      <trkpt lat="43.33414" lon="5.78778">
        <ele>1130</ele>
        <time>2025-10-05T10:03:36Z</time>
      </trkpt>
      <trkpt lat="43.33414" lon="5.78778">
        <ele>1130</ele>
        <time>2025-10-05T10:03:37Z</time>
      </trkpt>
      <trkpt lat="43.33414" lon="5.78778">
        <ele>1130.1</ele>
        <time>2025-10-05T10:03:38Z</time>
      </trkpt>
      <trkpt lat="43.33414" lon="5.78778">
        <ele>1130.3</ele>
        <time>2025-10-05T10:03:39Z</time>
      </trkpt>
      <trkpt lat="43.33414" lon="5.78778">
        <ele>1130.5</ele>
        <time>2025-10-05T10:03:40Z</time>
      </trkpt>
      <trkpt lat="43.33414" lon="5.78779">
        <ele>1130.5</ele>
        <time>2025-10-05T10:03:41Z</time>
      </trkpt>
      <trkpt lat="43.33414" lon="5.78779">
        <ele>1130.7</ele>
        <time>2025-10-05T10:03:42Z</time>
      </trkpt>
      <trkpt lat="43.33414" lon="5.78779">
        <ele>1130.8</ele>
        <time>2025-10-05T10:03:43Z</time>
      </trkpt>
      <trkpt lat="43.33414" lon="5.78779">
        <ele>1131</ele>
        <time>2025-10-05T10:03:44Z</time>
      </trkpt>
      <trkpt lat="43.33414" lon="5.78779">
        <ele>1131.3</ele>
        <time>2025-10-05T10:03:45Z</time>
      </trkpt>
      <trkpt lat="43.33414" lon="5.78779">
        <ele>1131.6</ele>
        <time>2025-10-05T10:03:46Z</time>
      </trkpt>
      <trkpt lat="43.33414" lon="5.78779">
        <ele>1132</ele>
        <time>2025-10-05T10:03:47Z</time>
      </trkpt>
      <trkpt lat="43.33414" lon="5.78779">
        <ele>1132.6</ele>
        <time>2025-10-05T10:03:48Z</time>
      </trkpt>
      <trkpt lat="43.33413" lon="5.78779">
        <ele>1133</ele>
        <time>2025-10-05T10:03:49Z</time>
      </trkpt>
      <trkpt lat="43.33413" lon="5.78779">
        <ele>1133.4</ele>
        <time>2025-10-05T10:03:50Z</time>
      </trkpt>
      <trkpt lat="43.33413" lon="5.78779">
        <ele>1133.6</ele>
        <time>2025-10-05T10:03:51Z</time>
      </trkpt>
      <trkpt lat="43.33413" lon="5.78779">
        <ele>1133.8</ele>
        <time>2025-10-05T10:03:52Z</time>
      </trkpt>
      <trkpt lat="43.33413" lon="5.78779">
        <ele>1134</ele>
        <time>2025-10-05T10:03:53Z</time>
      </trkpt>
      <trkpt lat="43.33413" lon="5.78779">
        <ele>1134.3</ele>
        <time>2025-10-05T10:03:54Z</time>
      </trkpt>
      <trkpt lat="43.33413" lon="5.78779">
        <ele>1134.6</ele>
        <time>2025-10-05T10:03:55Z</time>
      </trkpt>
      <trkpt lat="43.33413" lon="5.78779">
        <ele>1135</ele>
        <time>2025-10-05T10:03:56Z</time>
      </trkpt>
      <trkpt lat="43.33413" lon="5.78779">
        <ele>1134.7</ele>
        <time>2025-10-05T10:03:57Z</time>
      </trkpt>
      <trkpt lat="43.33413" lon="5.78779">
        <ele>1134.9</ele>
        <time>2025-10-05T10:03:58Z</time>
      </trkpt>
      <trkpt lat="43.33413" lon="5.78779">
        <ele>1134.7</ele>
        <time>2025-10-05T10:03:59Z</time>
      </trkpt>
      <trkpt lat="43.33413" lon="5.78779">
        <ele>1134.6</ele>
        <time>2025-10-05T10:04:00Z</time>
      </trkpt>
      <trkpt lat="43.33413" lon="5.78779">
        <ele>1134.6</ele>
        <time>2025-10-05T10:04:01Z</time>
      </trkpt>
      <trkpt lat="43.33413" lon="5.78779">
        <ele>1134.8</ele>
        <time>2025-10-05T10:04:02Z</time>
      </trkpt>
      <trkpt lat="43.33413" lon="5.78779">
        <ele>1134.8</ele>
        <time>2025-10-05T10:04:03Z</time>
      </trkpt>
      <trkpt lat="43.33413" lon="5.78779">
        <ele>1135.2</ele>
        <time>2025-10-05T10:04:04Z</time>
      </trkpt>
      <trkpt lat="43.33413" lon="5.78778">
        <ele>1135</ele>
        <time>2025-10-05T10:04:05Z</time>
      </trkpt>
      <trkpt lat="43.33413" lon="5.78778">
        <ele>1134.8</ele>
        <time>2025-10-05T10:04:06Z</time>
      </trkpt>
      <trkpt lat="43.33413" lon="5.78778">
        <ele>1135.1</ele>
        <time>2025-10-05T10:04:07Z</time>
      </trkpt>
      <trkpt lat="43.33413" lon="5.78778">
        <ele>1135.2</ele>
        <time>2025-10-05T10:04:08Z</time>
      </trkpt>
      <trkpt lat="43.33413" lon="5.78778">
        <ele>1135.1</ele>
        <time>2025-10-05T10:04:09Z</time>
      </trkpt>
      <trkpt lat="43.33413" lon="5.78778">
        <ele>1135.1</ele>
        <time>2025-10-05T10:04:10Z</time>
      </trkpt>
      <trkpt lat="43.33413" lon="5.78778">
        <ele>1135.2</ele>
        <time>2025-10-05T10:04:11Z</time>
      </trkpt>
      <trkpt lat="43.33413" lon="5.78778">
        <ele>1135.1</ele>
        <time>2025-10-05T10:04:12Z</time>
      </trkpt>
      <trkpt lat="43.33413" lon="5.78778">
        <ele>1135</ele>
        <time>2025-10-05T10:04:13Z</time>
      </trkpt>
      <trkpt lat="43.33413" lon="5.78778">
        <ele>1135</ele>
        <time>2025-10-05T10:04:14Z</time>
      </trkpt>
      <trkpt lat="43.33413" lon="5.78778">
        <ele>1135</ele>
        <time>2025-10-05T10:04:15Z</time>
      </trkpt>
      <trkpt lat="43.33413" lon="5.78778">
        <ele>1134.7</ele>
        <time>2025-10-05T10:04:16Z</time>
      </trkpt>
      <trkpt lat="43.33413" lon="5.78779">
        <ele>1134.5</ele>
        <time>2025-10-05T10:04:17Z</time>
      </trkpt>
      <trkpt lat="43.33413" lon="5.78779">
        <ele>1134.2</ele>
        <time>2025-10-05T10:04:18Z</time>
      </trkpt>
      <trkpt lat="43.33413" lon="5.78779">
        <ele>1134</ele>
        <time>2025-10-05T10:04:19Z</time>
      </trkpt>
      <trkpt lat="43.33413" lon="5.78778">
        <ele>1133.9</ele>
        <time>2025-10-05T10:04:20Z</time>
      </trkpt>
      <trkpt lat="43.33414" lon="5.78778">
        <ele>1133.9</ele>
        <time>2025-10-05T10:04:21Z</time>
      </trkpt>
      <trkpt lat="43.33414" lon="5.78778">
        <ele>1133.9</ele>
        <time>2025-10-05T10:04:22Z</time>
      </trkpt>
      <trkpt lat="43.33414" lon="5.78778">
        <ele>1134.1</ele>
        <time>2025-10-05T10:04:23Z</time>
      </trkpt>
      <trkpt lat="43.33413" lon="5.78779">
        <ele>1134.2</ele>
        <time>2025-10-05T10:04:24Z</time>
      </trkpt>
      <trkpt lat="43.33413" lon="5.78779">
        <ele>1134</ele>
        <time>2025-10-05T10:04:25Z</time>
      </trkpt>
      <trkpt lat="43.33413" lon="5.78778">
        <ele>1134.3</ele>
        <time>2025-10-05T10:04:26Z</time>
      </trkpt>
      <trkpt lat="43.33413" lon="5.78778">
        <ele>1134.3</ele>
        <time>2025-10-05T10:04:27Z</time>
      </trkpt>
      <trkpt lat="43.33413" lon="5.78778">
        <ele>1134.6</ele>
        <time>2025-10-05T10:04:28Z</time>
      </trkpt>
      <trkpt lat="43.33413" lon="5.78778">
        <ele>1134.7</ele>
        <time>2025-10-05T10:04:29Z</time>
      </trkpt>
      <trkpt lat="43.33413" lon="5.78778">
        <ele>1134.8</ele>
        <time>2025-10-05T10:04:30Z</time>
      </trkpt>
      <trkpt lat="43.33413" lon="5.78778">
        <ele>1134.5</ele>
        <time>2025-10-05T10:04:31Z</time>
      </trkpt>
      <trkpt lat="43.33413" lon="5.78778">
        <ele>1134.3</ele>
        <time>2025-10-05T10:04:32Z</time>
      </trkpt>
      <trkpt lat="43.33413" lon="5.78778">
        <ele>1133.9</ele>
        <time>2025-10-05T10:04:33Z</time>
      </trkpt>
      <trkpt lat="43.33413" lon="5.78778">
        <ele>1133.7</ele>
        <time>2025-10-05T10:04:34Z</time>
      </trkpt>
      <trkpt lat="43.33413" lon="5.78778">
        <ele>1133.4</ele>
        <time>2025-10-05T10:04:35Z</time>
      </trkpt>
      <trkpt lat="43.33413" lon="5.78778">
        <ele>1133.2</ele>
        <time>2025-10-05T10:04:36Z</time>
      </trkpt>
      <trkpt lat="43.33413" lon="5.78778">
        <ele>1133</ele>
        <time>2025-10-05T10:04:37Z</time>
      </trkpt>
      <trkpt lat="43.33413" lon="5.78778">
        <ele>1132.8</ele>
        <time>2025-10-05T10:04:38Z</time>
      </trkpt>
      <trkpt lat="43.33413" lon="5.78778">
        <ele>1132.5</ele>
        <time>2025-10-05T10:04:39Z</time>
      </trkpt>
      <trkpt lat="43.33413" lon="5.78778">
        <ele>1132.3</ele>
        <time>2025-10-05T10:04:40Z</time>
      </trkpt>
      <trkpt lat="43.33413" lon="5.78778">
        <ele>1132.2</ele>
        <time>2025-10-05T10:04:41Z</time>
      </trkpt>
      <trkpt lat="43.33413" lon="5.78778">
        <ele>1132.1</ele>
        <time>2025-10-05T10:04:42Z</time>
      </trkpt>
      <trkpt lat="43.33413" lon="5.78779">
        <ele>1132.1</ele>
        <time>2025-10-05T10:04:43Z</time>
      </trkpt>
      <trkpt lat="43.33413" lon="5.78779">
        <ele>1132.1</ele>
        <time>2025-10-05T10:04:44Z</time>
      </trkpt>
      <trkpt lat="43.33413" lon="5.78779">
        <ele>1131.9</ele>
        <time>2025-10-05T10:04:45Z</time>
      </trkpt>
      <trkpt lat="43.33413" lon="5.78779">
        <ele>1132</ele>
        <time>2025-10-05T10:04:46Z</time>
      </trkpt>
      <trkpt lat="43.33413" lon="5.78779">
        <ele>1132.1</ele>
        <time>2025-10-05T10:04:47Z</time>
      </trkpt>
      <trkpt lat="43.33413" lon="5.78779">
        <ele>1132.1</ele>
        <time>2025-10-05T10:04:48Z</time>
      </trkpt>
      <trkpt lat="43.33413" lon="5.78779">
        <ele>1132.1</ele>
        <time>2025-10-05T10:04:49Z</time>
      </trkpt>
      <trkpt lat="43.33413" lon="5.78779">
        <ele>1132.1</ele>
        <time>2025-10-05T10:04:50Z</time>
      </trkpt>
      <trkpt lat="43.33413" lon="5.78779">
        <ele>1132.1</ele>
        <time>2025-10-05T10:04:51Z</time>
      </trkpt>
      <trkpt lat="43.33413" lon="5.78779">
        <ele>1132.1</ele>
        <time>2025-10-05T10:04:52Z</time>
      </trkpt>
      <trkpt lat="43.33413" lon="5.78778">
        <ele>1132.2</ele>
        <time>2025-10-05T10:04:53Z</time>
      </trkpt>
      <trkpt lat="43.33413" lon="5.78779">
        <ele>1132.5</ele>
        <time>2025-10-05T10:04:54Z</time>
      </trkpt>
      <trkpt lat="43.33413" lon="5.78779">
        <ele>1132.5</ele>
        <time>2025-10-05T10:04:55Z</time>
      </trkpt>
      <trkpt lat="43.33413" lon="5.78779">
        <ele>1132.5</ele>
        <time>2025-10-05T10:04:56Z</time>
      </trkpt>
      <trkpt lat="43.33413" lon="5.78779">
        <ele>1132.6</ele>
        <time>2025-10-05T10:04:57Z</time>
      </trkpt>
      <trkpt lat="43.33413" lon="5.78779">
        <ele>1132.7</ele>
        <time>2025-10-05T10:04:58Z</time>
      </trkpt>
      <trkpt lat="43.33413" lon="5.78779">
        <ele>1132.8</ele>
        <time>2025-10-05T10:04:59Z</time>
      </trkpt>
      <trkpt lat="43.33413" lon="5.78779">
        <ele>1133.1</ele>
        <time>2025-10-05T10:05:00Z</time>
      </trkpt>
      <trkpt lat="43.33413" lon="5.78779">
        <ele>1133.1</ele>
        <time>2025-10-05T10:05:01Z</time>
      </trkpt>
      <trkpt lat="43.33413" lon="5.78779">
        <ele>1133.4</ele>
        <time>2025-10-05T10:05:02Z</time>
      </trkpt>
      <trkpt lat="43.33413" lon="5.78779">
        <ele>1133.8</ele>
        <time>2025-10-05T10:05:03Z</time>
      </trkpt>
      <trkpt lat="43.33413" lon="5.78779">
        <ele>1133.8</ele>
        <time>2025-10-05T10:05:04Z</time>
      </trkpt>
      <trkpt lat="43.33413" lon="5.78779">
        <ele>1134.1</ele>
        <time>2025-10-05T10:05:05Z</time>
      </trkpt>
      <trkpt lat="43.33413" lon="5.78779">
        <ele>1134.1</ele>
        <time>2025-10-05T10:05:06Z</time>
      </trkpt>
      <trkpt lat="43.33413" lon="5.78779">
        <ele>1134.4</ele>
        <time>2025-10-05T10:05:07Z</time>
      </trkpt>
      <trkpt lat="43.33413" lon="5.78779">
        <ele>1134.9</ele>
        <time>2025-10-05T10:05:08Z</time>
      </trkpt>
      <trkpt lat="43.33413" lon="5.78779">
        <ele>1134.8</ele>
        <time>2025-10-05T10:05:09Z</time>
      </trkpt>
      <trkpt lat="43.33413" lon="5.78779">
        <ele>1135</ele>
        <time>2025-10-05T10:05:10Z</time>
      </trkpt>
      <trkpt lat="43.33413" lon="5.78779">
        <ele>1135.1</ele>
        <time>2025-10-05T10:05:11Z</time>
      </trkpt>
      <trkpt lat="43.33413" lon="5.78779">
        <ele>1135</ele>
        <time>2025-10-05T10:05:12Z</time>
      </trkpt>
      <trkpt lat="43.33413" lon="5.78779">
        <ele>1134.7</ele>
        <time>2025-10-05T10:05:13Z</time>
      </trkpt>
      <trkpt lat="43.33413" lon="5.78779">
        <ele>1134.6</ele>
        <time>2025-10-05T10:05:14Z</time>
      </trkpt>
      <trkpt lat="43.33413" lon="5.78779">
        <ele>1134.4</ele>
        <time>2025-10-05T10:05:15Z</time>
      </trkpt>
      <trkpt lat="43.33413" lon="5.78779">
        <ele>1134.2</ele>
        <time>2025-10-05T10:05:16Z</time>
      </trkpt>
      <trkpt lat="43.33413" lon="5.78779">
        <ele>1134.3</ele>
        <time>2025-10-05T10:05:17Z</time>
      </trkpt>
      <trkpt lat="43.33413" lon="5.78779">
        <ele>1134.2</ele>
        <time>2025-10-05T10:05:18Z</time>
      </trkpt>
      <trkpt lat="43.33413" lon="5.78779">
        <ele>1134.2</ele>
        <time>2025-10-05T10:05:19Z</time>
      </trkpt>
      <trkpt lat="43.33413" lon="5.78779">
        <ele>1134</ele>
        <time>2025-10-05T10:05:20Z</time>
      </trkpt>
      <trkpt lat="43.33413" lon="5.78779">
        <ele>1134</ele>
        <time>2025-10-05T10:05:21Z</time>
      </trkpt>
      <trkpt lat="43.33413" lon="5.78779">
        <ele>1134.2</ele>
        <time>2025-10-05T10:05:22Z</time>
      </trkpt>
      <trkpt lat="43.33413" lon="5.78779">
        <ele>1134.4</ele>
        <time>2025-10-05T10:05:23Z</time>
      </trkpt>
      <trkpt lat="43.33413" lon="5.78779">
        <ele>1134.2</ele>
        <time>2025-10-05T10:05:24Z</time>
      </trkpt>
      <trkpt lat="43.33413" lon="5.78779">
        <ele>1134.1</ele>
        <time>2025-10-05T10:05:25Z</time>
      </trkpt>
      <trkpt lat="43.33413" lon="5.78779">
        <ele>1133.9</ele>
        <time>2025-10-05T10:05:26Z</time>
      </trkpt>
      <trkpt lat="43.33413" lon="5.78779">
        <ele>1133.7</ele>
        <time>2025-10-05T10:05:27Z</time>
      </trkpt>
      <trkpt lat="43.33413" lon="5.78779">
        <ele>1133.3</ele>
        <time>2025-10-05T10:05:28Z</time>
      </trkpt>
      <trkpt lat="43.33413" lon="5.78779">
        <ele>1133</ele>
        <time>2025-10-05T10:05:29Z</time>
      </trkpt>
      <trkpt lat="43.33413" lon="5.78779">
        <ele>1132.5</ele>
        <time>2025-10-05T10:05:30Z</time>
      </trkpt>
      <trkpt lat="43.33413" lon="5.78779">
        <ele>1132.2</ele>
        <time>2025-10-05T10:05:31Z</time>
      </trkpt>
      <trkpt lat="43.33413" lon="5.78779">
        <ele>1131.9</ele>
        <time>2025-10-05T10:05:32Z</time>
      </trkpt>
      <trkpt lat="43.33413" lon="5.78779">
        <ele>1131.7</ele>
        <time>2025-10-05T10:05:33Z</time>
      </trkpt>
      <trkpt lat="43.33413" lon="5.78779">
        <ele>1131.7</ele>
        <time>2025-10-05T10:05:34Z</time>
      </trkpt>
      <trkpt lat="43.33413" lon="5.78779">
        <ele>1131.5</ele>
        <time>2025-10-05T10:05:35Z</time>
      </trkpt>
      <trkpt lat="43.33413" lon="5.78779">
        <ele>1131.4</ele>
        <time>2025-10-05T10:05:36Z</time>
      </trkpt>
      <trkpt lat="43.33413" lon="5.78779">
        <ele>1131.2</ele>
        <time>2025-10-05T10:05:37Z</time>
      </trkpt>
      <trkpt lat="43.33413" lon="5.78779">
        <ele>1131</ele>
        <time>2025-10-05T10:05:38Z</time>
      </trkpt>
      <trkpt lat="43.33413" lon="5.7878">
        <ele>1130.8</ele>
        <time>2025-10-05T10:05:39Z</time>
      </trkpt>
      <trkpt lat="43.33413" lon="5.7878">
        <ele>1130.6</ele>
        <time>2025-10-05T10:05:40Z</time>
      </trkpt>
      <trkpt lat="43.33413" lon="5.78779">
        <ele>1130.3</ele>
        <time>2025-10-05T10:05:41Z</time>
      </trkpt>
      <trkpt lat="43.33413" lon="5.78779">
        <ele>1130.1</ele>
        <time>2025-10-05T10:05:42Z</time>
      </trkpt>
      <trkpt lat="43.33413" lon="5.78779">
        <ele>1130.2</ele>
        <time>2025-10-05T10:05:43Z</time>
      </trkpt>
      <trkpt lat="43.33413" lon="5.7878">
        <ele>1130</ele>
        <time>2025-10-05T10:05:44Z</time>
      </trkpt>
      <trkpt lat="43.33413" lon="5.7878">
        <ele>1129.8</ele>
        <time>2025-10-05T10:05:45Z</time>
      </trkpt>
      <trkpt lat="43.33413" lon="5.7878">
        <ele>1130.1</ele>
        <time>2025-10-05T10:05:46Z</time>
      </trkpt>
      <trkpt lat="43.33413" lon="5.7878">
        <ele>1130.2</ele>
        <time>2025-10-05T10:05:47Z</time>
      </trkpt>
      <trkpt lat="43.33413" lon="5.7878">
        <ele>1130.3</ele>
        <time>2025-10-05T10:05:48Z</time>
      </trkpt>
      <trkpt lat="43.33413" lon="5.7878">
        <ele>1130.3</ele>
        <time>2025-10-05T10:05:49Z</time>
      </trkpt>
      <trkpt lat="43.33413" lon="5.7878">
        <ele>1130.3</ele>
        <time>2025-10-05T10:05:50Z</time>
      </trkpt>
      <trkpt lat="43.33413" lon="5.7878">
        <ele>1130.2</ele>
        <time>2025-10-05T10:05:51Z</time>
      </trkpt>
      <trkpt lat="43.33413" lon="5.78779">
        <ele>1130.3</ele>
        <time>2025-10-05T10:05:52Z</time>
      </trkpt>
      <trkpt lat="43.33413" lon="5.78779">
        <ele>1130.3</ele>
        <time>2025-10-05T10:05:53Z</time>
      </trkpt>
      <trkpt lat="43.33413" lon="5.78779">
        <ele>1130.1</ele>
        <time>2025-10-05T10:05:54Z</time>
      </trkpt>
      <trkpt lat="43.33413" lon="5.78779">
        <ele>1130.1</ele>
        <time>2025-10-05T10:05:55Z</time>
      </trkpt>
      <trkpt lat="43.33413" lon="5.78779">
        <ele>1129.9</ele>
        <time>2025-10-05T10:05:56Z</time>
      </trkpt>
      <trkpt lat="43.33413" lon="5.78779">
        <ele>1129.8</ele>
        <time>2025-10-05T10:05:57Z</time>
      </trkpt>
      <trkpt lat="43.33413" lon="5.78779">
        <ele>1129.8</ele>
        <time>2025-10-05T10:05:58Z</time>
      </trkpt>
      <trkpt lat="43.33413" lon="5.78779">
        <ele>1129.7</ele>
        <time>2025-10-05T10:05:59Z</time>
      </trkpt>
      <trkpt lat="43.33413" lon="5.7878">
        <ele>1129.6</ele>
        <time>2025-10-05T10:06:00Z</time>
      </trkpt>
      <trkpt lat="43.33413" lon="5.7878">
        <ele>1129.6</ele>
        <time>2025-10-05T10:06:01Z</time>
      </trkpt>
      <trkpt lat="43.33413" lon="5.7878">
        <ele>1129.6</ele>
        <time>2025-10-05T10:06:02Z</time>
      </trkpt>
      <trkpt lat="43.33413" lon="5.7878">
        <ele>1129.6</ele>
        <time>2025-10-05T10:06:03Z</time>
      </trkpt>
      <trkpt lat="43.33413" lon="5.7878">
        <ele>1129.8</ele>
        <time>2025-10-05T10:06:04Z</time>
      </trkpt>
      <trkpt lat="43.33413" lon="5.7878">
        <ele>1129.8</ele>
        <time>2025-10-05T10:06:05Z</time>
      </trkpt>
      <trkpt lat="43.33413" lon="5.7878">
        <ele>1129.9</ele>
        <time>2025-10-05T10:06:06Z</time>
      </trkpt>
      <trkpt lat="43.33413" lon="5.7878">
        <ele>1130</ele>
        <time>2025-10-05T10:06:07Z</time>
      </trkpt>
      <trkpt lat="43.33413" lon="5.7878">
        <ele>1130.2</ele>
        <time>2025-10-05T10:06:08Z</time>
      </trkpt>
      <trkpt lat="43.33413" lon="5.7878">
        <ele>1130.3</ele>
        <time>2025-10-05T10:06:09Z</time>
      </trkpt>
      <trkpt lat="43.33413" lon="5.7878">
        <ele>1130.3</ele>
        <time>2025-10-05T10:06:10Z</time>
      </trkpt>
      <trkpt lat="43.33413" lon="5.7878">
        <ele>1130.3</ele>
        <time>2025-10-05T10:06:11Z</time>
      </trkpt>
      <trkpt lat="43.33413" lon="5.7878">
        <ele>1130.3</ele>
        <time>2025-10-05T10:06:12Z</time>
      </trkpt>
      <trkpt lat="43.33413" lon="5.7878">
        <ele>1130.3</ele>
        <time>2025-10-05T10:06:13Z</time>
      </trkpt>
      <trkpt lat="43.33413" lon="5.7878">
        <ele>1130.3</ele>
        <time>2025-10-05T10:06:14Z</time>
      </trkpt>
      <trkpt lat="43.33413" lon="5.78781">
        <ele>1130.5</ele>
        <time>2025-10-05T10:06:15Z</time>
      </trkpt>
      <trkpt lat="43.33413" lon="5.78781">
        <ele>1130.7</ele>
        <time>2025-10-05T10:06:16Z</time>
      </trkpt>
      <trkpt lat="43.33413" lon="5.78781">
        <ele>1130.9</ele>
        <time>2025-10-05T10:06:17Z</time>
      </trkpt>
      <trkpt lat="43.33413" lon="5.78781">
        <ele>1131.3</ele>
        <time>2025-10-05T10:06:18Z</time>
      </trkpt>
      <trkpt lat="43.33413" lon="5.78781">
        <ele>1131.3</ele>
        <time>2025-10-05T10:06:19Z</time>
      </trkpt>
      <trkpt lat="43.33413" lon="5.78781">
        <ele>1131.4</ele>
        <time>2025-10-05T10:06:20Z</time>
      </trkpt>
      <trkpt lat="43.33413" lon="5.78781">
        <ele>1131.4</ele>
        <time>2025-10-05T10:06:21Z</time>
      </trkpt>
      <trkpt lat="43.33413" lon="5.78781">
        <ele>1131.5</ele>
        <time>2025-10-05T10:06:22Z</time>
      </trkpt>
      <trkpt lat="43.33413" lon="5.78781">
        <ele>1131.8</ele>
        <time>2025-10-05T10:06:23Z</time>
      </trkpt>
      <trkpt lat="43.33413" lon="5.78781">
        <ele>1132</ele>
        <time>2025-10-05T10:06:24Z</time>
      </trkpt>
      <trkpt lat="43.33413" lon="5.78781">
        <ele>1132.2</ele>
        <time>2025-10-05T10:06:25Z</time>
      </trkpt>
      <trkpt lat="43.33413" lon="5.78781">
        <ele>1132.5</ele>
        <time>2025-10-05T10:06:26Z</time>
      </trkpt>
      <trkpt lat="43.33413" lon="5.78781">
        <ele>1132.7</ele>
        <time>2025-10-05T10:06:27Z</time>
      </trkpt>
      <trkpt lat="43.33413" lon="5.78781">
        <ele>1133.3</ele>
        <time>2025-10-05T10:06:28Z</time>
      </trkpt>
      <trkpt lat="43.33413" lon="5.78781">
        <ele>1133.7</ele>
        <time>2025-10-05T10:06:29Z</time>
      </trkpt>
      <trkpt lat="43.33413" lon="5.78781">
        <ele>1134.2</ele>
        <time>2025-10-05T10:06:30Z</time>
      </trkpt>
      <trkpt lat="43.33412" lon="5.78781">
        <ele>1134.1</ele>
        <time>2025-10-05T10:06:31Z</time>
      </trkpt>
      <trkpt lat="43.33412" lon="5.78781">
        <ele>1133.9</ele>
        <time>2025-10-05T10:06:32Z</time>
      </trkpt>
      <trkpt lat="43.33412" lon="5.78781">
        <ele>1134.2</ele>
        <time>2025-10-05T10:06:33Z</time>
      </trkpt>
      <trkpt lat="43.33412" lon="5.78781">
        <ele>1134.5</ele>
        <time>2025-10-05T10:06:34Z</time>
      </trkpt>
      <trkpt lat="43.33412" lon="5.78781">
        <ele>1135.3</ele>
        <time>2025-10-05T10:06:35Z</time>
      </trkpt>
      <trkpt lat="43.33412" lon="5.78781">
        <ele>1135.3</ele>
        <time>2025-10-05T10:06:36Z</time>
      </trkpt>
      <trkpt lat="43.33412" lon="5.78781">
        <ele>1135</ele>
        <time>2025-10-05T10:06:37Z</time>
      </trkpt>
      <trkpt lat="43.33412" lon="5.78781">
        <ele>1134.8</ele>
        <time>2025-10-05T10:06:38Z</time>
      </trkpt>
      <trkpt lat="43.33412" lon="5.78781">
        <ele>1134.7</ele>
        <time>2025-10-05T10:06:39Z</time>
      </trkpt>
      <trkpt lat="43.33412" lon="5.78781">
        <ele>1134.6</ele>
        <time>2025-10-05T10:06:40Z</time>
      </trkpt>
      <trkpt lat="43.33412" lon="5.78781">
        <ele>1134.8</ele>
        <time>2025-10-05T10:06:41Z</time>
      </trkpt>
      <trkpt lat="43.33412" lon="5.78781">
        <ele>1134.9</ele>
        <time>2025-10-05T10:06:42Z</time>
      </trkpt>
      <trkpt lat="43.33412" lon="5.78781">
        <ele>1135</ele>
        <time>2025-10-05T10:06:43Z</time>
      </trkpt>
      <trkpt lat="43.33412" lon="5.78781">
        <ele>1134.7</ele>
        <time>2025-10-05T10:06:44Z</time>
      </trkpt>
      <trkpt lat="43.33412" lon="5.78781">
        <ele>1134.6</ele>
        <time>2025-10-05T10:06:45Z</time>
      </trkpt>
      <trkpt lat="43.33412" lon="5.78781">
        <ele>1134.4</ele>
        <time>2025-10-05T10:06:46Z</time>
      </trkpt>
      <trkpt lat="43.33412" lon="5.78781">
        <ele>1134.2</ele>
        <time>2025-10-05T10:06:47Z</time>
      </trkpt>
      <trkpt lat="43.33412" lon="5.78781">
        <ele>1134.1</ele>
        <time>2025-10-05T10:06:48Z</time>
      </trkpt>
      <trkpt lat="43.33412" lon="5.78781">
        <ele>1134.2</ele>
        <time>2025-10-05T10:06:49Z</time>
      </trkpt>
      <trkpt lat="43.33412" lon="5.78781">
        <ele>1134.2</ele>
        <time>2025-10-05T10:06:50Z</time>
      </trkpt>
      <trkpt lat="43.33412" lon="5.78781">
        <ele>1134.2</ele>
        <time>2025-10-05T10:06:51Z</time>
      </trkpt>
      <trkpt lat="43.33412" lon="5.78781">
        <ele>1134.4</ele>
        <time>2025-10-05T10:06:52Z</time>
      </trkpt>
      <trkpt lat="43.33413" lon="5.78781">
        <ele>1134.3</ele>
        <time>2025-10-05T10:06:53Z</time>
      </trkpt>
      <trkpt lat="43.33413" lon="5.78781">
        <ele>1134.3</ele>
        <time>2025-10-05T10:06:54Z</time>
      </trkpt>
      <trkpt lat="43.33413" lon="5.78781">
        <ele>1134.3</ele>
        <time>2025-10-05T10:06:55Z</time>
      </trkpt>
      <trkpt lat="43.33413" lon="5.78781">
        <ele>1134.1</ele>
        <time>2025-10-05T10:06:56Z</time>
      </trkpt>
      <trkpt lat="43.33413" lon="5.78781">
        <ele>1133.9</ele>
        <time>2025-10-05T10:06:57Z</time>
      </trkpt>
      <trkpt lat="43.33413" lon="5.7878">
        <ele>1133.9</ele>
        <time>2025-10-05T10:06:58Z</time>
      </trkpt>
      <trkpt lat="43.33413" lon="5.7878">
        <ele>1133.7</ele>
        <time>2025-10-05T10:06:59Z</time>
      </trkpt>
      <trkpt lat="43.33413" lon="5.7878">
        <ele>1133.7</ele>
        <time>2025-10-05T10:07:00Z</time>
      </trkpt>
      <trkpt lat="43.33413" lon="5.7878">
        <ele>1133.7</ele>
        <time>2025-10-05T10:07:01Z</time>
      </trkpt>
      <trkpt lat="43.33413" lon="5.7878">
        <ele>1133.9</ele>
        <time>2025-10-05T10:07:02Z</time>
      </trkpt>
      <trkpt lat="43.33413" lon="5.7878">
        <ele>1133.7</ele>
        <time>2025-10-05T10:07:03Z</time>
      </trkpt>
      <trkpt lat="43.33413" lon="5.7878">
        <ele>1133.6</ele>
        <time>2025-10-05T10:07:04Z</time>
      </trkpt>
      <trkpt lat="43.33412" lon="5.7878">
        <ele>1133.4</ele>
        <time>2025-10-05T10:07:05Z</time>
      </trkpt>
      <trkpt lat="43.33412" lon="5.7878">
        <ele>1133.3</ele>
        <time>2025-10-05T10:07:06Z</time>
      </trkpt>
      <trkpt lat="43.33412" lon="5.7878">
        <ele>1133</ele>
        <time>2025-10-05T10:07:07Z</time>
      </trkpt>
      <trkpt lat="43.33412" lon="5.7878">
        <ele>1132.8</ele>
        <time>2025-10-05T10:07:08Z</time>
      </trkpt>
      <trkpt lat="43.33412" lon="5.7878">
        <ele>1132.7</ele>
        <time>2025-10-05T10:07:09Z</time>
      </trkpt>
      <trkpt lat="43.33412" lon="5.7878">
        <ele>1132.6</ele>
        <time>2025-10-05T10:07:10Z</time>
      </trkpt>
      <trkpt lat="43.33412" lon="5.78781">
        <ele>1132.7</ele>
        <time>2025-10-05T10:07:11Z</time>
      </trkpt>
      <trkpt lat="43.33412" lon="5.78781">
        <ele>1132.5</ele>
        <time>2025-10-05T10:07:12Z</time>
      </trkpt>
      <trkpt lat="43.33412" lon="5.78781">
        <ele>1132.5</ele>
        <time>2025-10-05T10:07:13Z</time>
      </trkpt>
      <trkpt lat="43.33412" lon="5.78781">
        <ele>1132.6</ele>
        <time>2025-10-05T10:07:14Z</time>
      </trkpt>
      <trkpt lat="43.33412" lon="5.78781">
        <ele>1132.6</ele>
        <time>2025-10-05T10:07:15Z</time>
      </trkpt>
      <trkpt lat="43.33412" lon="5.78781">
        <ele>1132.3</ele>
        <time>2025-10-05T10:07:16Z</time>
      </trkpt>
      <trkpt lat="43.33412" lon="5.78781">
        <ele>1132.2</ele>
        <time>2025-10-05T10:07:17Z</time>
      </trkpt>
      <trkpt lat="43.33412" lon="5.78781">
        <ele>1132.3</ele>
        <time>2025-10-05T10:07:18Z</time>
      </trkpt>
      <trkpt lat="43.33412" lon="5.78781">
        <ele>1132</ele>
        <time>2025-10-05T10:07:19Z</time>
      </trkpt>
      <trkpt lat="43.33412" lon="5.78781">
        <ele>1131.6</ele>
        <time>2025-10-05T10:07:20Z</time>
      </trkpt>
      <trkpt lat="43.33412" lon="5.78781">
        <ele>1131.5</ele>
        <time>2025-10-05T10:07:21Z</time>
      </trkpt>
      <trkpt lat="43.33412" lon="5.78781">
        <ele>1131.3</ele>
        <time>2025-10-05T10:07:22Z</time>
      </trkpt>
      <trkpt lat="43.33412" lon="5.78781">
        <ele>1131.2</ele>
        <time>2025-10-05T10:07:23Z</time>
      </trkpt>
      <trkpt lat="43.33412" lon="5.78781">
        <ele>1131.2</ele>
        <time>2025-10-05T10:07:24Z</time>
      </trkpt>
      <trkpt lat="43.33412" lon="5.7878">
        <ele>1131.2</ele>
        <time>2025-10-05T10:07:25Z</time>
      </trkpt>
      <trkpt lat="43.33412" lon="5.7878">
        <ele>1131.1</ele>
        <time>2025-10-05T10:07:26Z</time>
      </trkpt>
      <trkpt lat="43.33412" lon="5.7878">
        <ele>1131.1</ele>
        <time>2025-10-05T10:07:27Z</time>
      </trkpt>
      <trkpt lat="43.33412" lon="5.7878">
        <ele>1131.1</ele>
        <time>2025-10-05T10:07:28Z</time>
      </trkpt>
      <trkpt lat="43.33412" lon="5.78781">
        <ele>1130.9</ele>
        <time>2025-10-05T10:07:29Z</time>
      </trkpt>
      <trkpt lat="43.33412" lon="5.78781">
        <ele>1130.8</ele>
        <time>2025-10-05T10:07:30Z</time>
      </trkpt>
      <trkpt lat="43.33412" lon="5.78781">
        <ele>1130.8</ele>
        <time>2025-10-05T10:07:31Z</time>
      </trkpt>
      <trkpt lat="43.33412" lon="5.78781">
        <ele>1130.9</ele>
        <time>2025-10-05T10:07:32Z</time>
      </trkpt>
      <trkpt lat="43.33412" lon="5.78781">
        <ele>1130.8</ele>
        <time>2025-10-05T10:07:33Z</time>
      </trkpt>
      <trkpt lat="43.33412" lon="5.78781">
        <ele>1130.7</ele>
        <time>2025-10-05T10:07:34Z</time>
      </trkpt>
      <trkpt lat="43.33412" lon="5.78781">
        <ele>1130.5</ele>
        <time>2025-10-05T10:07:35Z</time>
      </trkpt>
      <trkpt lat="43.33412" lon="5.78781">
        <ele>1130.3</ele>
        <time>2025-10-05T10:07:36Z</time>
      </trkpt>
      <trkpt lat="43.33412" lon="5.78781">
        <ele>1130.2</ele>
        <time>2025-10-05T10:07:37Z</time>
      </trkpt>
      <trkpt lat="43.33412" lon="5.78781">
        <ele>1130.2</ele>
        <time>2025-10-05T10:07:38Z</time>
      </trkpt>
      <trkpt lat="43.33412" lon="5.78781">
        <ele>1130.1</ele>
        <time>2025-10-05T10:07:39Z</time>
      </trkpt>
      <trkpt lat="43.33412" lon="5.78781">
        <ele>1130</ele>
        <time>2025-10-05T10:07:40Z</time>
      </trkpt>
      <trkpt lat="43.33412" lon="5.78781">
        <ele>1130</ele>
        <time>2025-10-05T10:07:41Z</time>
      </trkpt>
      <trkpt lat="43.33412" lon="5.78781">
        <ele>1130.2</ele>
        <time>2025-10-05T10:07:42Z</time>
      </trkpt>
      <trkpt lat="43.33412" lon="5.78781">
        <ele>1130</ele>
        <time>2025-10-05T10:07:43Z</time>
      </trkpt>
      <trkpt lat="43.33412" lon="5.78781">
        <ele>1130</ele>
        <time>2025-10-05T10:07:44Z</time>
      </trkpt>
      <trkpt lat="43.33412" lon="5.78781">
        <ele>1129.9</ele>
        <time>2025-10-05T10:07:45Z</time>
      </trkpt>
      <trkpt lat="43.33412" lon="5.78782">
        <ele>1130</ele>
        <time>2025-10-05T10:07:46Z</time>
      </trkpt>
      <trkpt lat="43.33412" lon="5.78782">
        <ele>1130</ele>
        <time>2025-10-05T10:07:47Z</time>
      </trkpt>
      <trkpt lat="43.33412" lon="5.78782">
        <ele>1130.1</ele>
        <time>2025-10-05T10:07:48Z</time>
      </trkpt>
      <trkpt lat="43.33412" lon="5.78782">
        <ele>1130.3</ele>
        <time>2025-10-05T10:07:49Z</time>
      </trkpt>
      <trkpt lat="43.33412" lon="5.78782">
        <ele>1130.3</ele>
        <time>2025-10-05T10:07:50Z</time>
      </trkpt>
      <trkpt lat="43.33412" lon="5.78782">
        <ele>1130.2</ele>
        <time>2025-10-05T10:07:51Z</time>
      </trkpt>
      <trkpt lat="43.33412" lon="5.78782">
        <ele>1130.3</ele>
        <time>2025-10-05T10:07:52Z</time>
      </trkpt>
      <trkpt lat="43.33412" lon="5.78782">
        <ele>1130.4</ele>
        <time>2025-10-05T10:07:53Z</time>
      </trkpt>
      <trkpt lat="43.33412" lon="5.78782">
        <ele>1130.5</ele>
        <time>2025-10-05T10:07:54Z</time>
      </trkpt>
      <trkpt lat="43.33412" lon="5.78782">
        <ele>1130.5</ele>
        <time>2025-10-05T10:07:55Z</time>
      </trkpt>
      <trkpt lat="43.33412" lon="5.78782">
        <ele>1130.5</ele>
        <time>2025-10-05T10:07:56Z</time>
      </trkpt>
      <trkpt lat="43.33412" lon="5.78782">
        <ele>1130.4</ele>
        <time>2025-10-05T10:07:57Z</time>
      </trkpt>
      <trkpt lat="43.33412" lon="5.78782">
        <ele>1130.3</ele>
        <time>2025-10-05T10:07:58Z</time>
      </trkpt>
      <trkpt lat="43.33412" lon="5.78782">
        <ele>1130.3</ele>
        <time>2025-10-05T10:07:59Z</time>
      </trkpt>
      <trkpt lat="43.33412" lon="5.78782">
        <ele>1130.6</ele>
        <time>2025-10-05T10:08:00Z</time>
      </trkpt>
      <trkpt lat="43.33412" lon="5.78782">
        <ele>1130.8</ele>
        <time>2025-10-05T10:08:01Z</time>
      </trkpt>
      <trkpt lat="43.33413" lon="5.78782">
        <ele>1130.9</ele>
        <time>2025-10-05T10:08:02Z</time>
      </trkpt>
      <trkpt lat="43.33413" lon="5.78782">
        <ele>1130.9</ele>
        <time>2025-10-05T10:08:03Z</time>
      </trkpt>
      <trkpt lat="43.33413" lon="5.78782">
        <ele>1130.8</ele>
        <time>2025-10-05T10:08:04Z</time>
      </trkpt>
      <trkpt lat="43.33413" lon="5.78782">
        <ele>1130.8</ele>
        <time>2025-10-05T10:08:05Z</time>
      </trkpt>
      <trkpt lat="43.33413" lon="5.78782">
        <ele>1130.7</ele>
        <time>2025-10-05T10:08:06Z</time>
      </trkpt>
      <trkpt lat="43.33413" lon="5.78782">
        <ele>1130.4</ele>
        <time>2025-10-05T10:08:07Z</time>
      </trkpt>
      <trkpt lat="43.33413" lon="5.78782">
        <ele>1130.1</ele>
        <time>2025-10-05T10:08:08Z</time>
      </trkpt>
      <trkpt lat="43.33413" lon="5.78782">
        <ele>1130.1</ele>
        <time>2025-10-05T10:08:09Z</time>
      </trkpt>
      <trkpt lat="43.33413" lon="5.78782">
        <ele>1130</ele>
        <time>2025-10-05T10:08:10Z</time>
      </trkpt>
      <trkpt lat="43.33413" lon="5.78782">
        <ele>1129.8</ele>
        <time>2025-10-05T10:08:11Z</time>
      </trkpt>
      <trkpt lat="43.33413" lon="5.78782">
        <ele>1129.8</ele>
        <time>2025-10-05T10:08:12Z</time>
      </trkpt>
      <trkpt lat="43.33413" lon="5.78782">
        <ele>1129.9</ele>
        <time>2025-10-05T10:08:13Z</time>
      </trkpt>
      <trkpt lat="43.33413" lon="5.78782">
        <ele>1129.9</ele>
        <time>2025-10-05T10:08:14Z</time>
      </trkpt>
      <trkpt lat="43.33413" lon="5.78782">
        <ele>1129.7</ele>
        <time>2025-10-05T10:08:15Z</time>
      </trkpt>
      <trkpt lat="43.33412" lon="5.78782">
        <ele>1129.8</ele>
        <time>2025-10-05T10:08:16Z</time>
      </trkpt>
      <trkpt lat="43.33413" lon="5.78782">
        <ele>1129.9</ele>
        <time>2025-10-05T10:08:17Z</time>
      </trkpt>
      <trkpt lat="43.33413" lon="5.78782">
        <ele>1129.9</ele>
        <time>2025-10-05T10:08:18Z</time>
      </trkpt>
      <trkpt lat="43.33413" lon="5.78782">
        <ele>1130</ele>
        <time>2025-10-05T10:08:19Z</time>
      </trkpt>
      <trkpt lat="43.33413" lon="5.78782">
        <ele>1130.2</ele>
        <time>2025-10-05T10:08:20Z</time>
      </trkpt>
      <trkpt lat="43.33413" lon="5.78782">
        <ele>1130.2</ele>
        <time>2025-10-05T10:08:21Z</time>
      </trkpt>
      <trkpt lat="43.33413" lon="5.78782">
        <ele>1130.3</ele>
        <time>2025-10-05T10:08:22Z</time>
      </trkpt>
      <trkpt lat="43.33413" lon="5.78782">
        <ele>1130.4</ele>
        <time>2025-10-05T10:08:23Z</time>
      </trkpt>
      <trkpt lat="43.33413" lon="5.78782">
        <ele>1130.2</ele>
        <time>2025-10-05T10:08:24Z</time>
      </trkpt>
      <trkpt lat="43.33413" lon="5.78782">
        <ele>1130.1</ele>
        <time>2025-10-05T10:08:25Z</time>
      </trkpt>
      <trkpt lat="43.33413" lon="5.78782">
        <ele>1130.1</ele>
        <time>2025-10-05T10:08:26Z</time>
      </trkpt>
      <trkpt lat="43.33413" lon="5.78782">
        <ele>1130.3</ele>
        <time>2025-10-05T10:08:27Z</time>
      </trkpt>
      <trkpt lat="43.33413" lon="5.78782">
        <ele>1130.4</ele>
        <time>2025-10-05T10:08:28Z</time>
      </trkpt>
      <trkpt lat="43.33413" lon="5.78782">
        <ele>1130.5</ele>
        <time>2025-10-05T10:08:29Z</time>
      </trkpt>
      <trkpt lat="43.33413" lon="5.78782">
        <ele>1130.3</ele>
        <time>2025-10-05T10:08:30Z</time>
      </trkpt>
      <trkpt lat="43.33413" lon="5.78782">
        <ele>1130.3</ele>
        <time>2025-10-05T10:08:31Z</time>
      </trkpt>
      <trkpt lat="43.33413" lon="5.78782">
        <ele>1130.3</ele>
        <time>2025-10-05T10:08:32Z</time>
      </trkpt>
      <trkpt lat="43.33413" lon="5.78783">
        <ele>1130.4</ele>
        <time>2025-10-05T10:08:33Z</time>
      </trkpt>
      <trkpt lat="43.33413" lon="5.78783">
        <ele>1130.6</ele>
        <time>2025-10-05T10:08:34Z</time>
      </trkpt>
      <trkpt lat="43.33413" lon="5.78783">
        <ele>1130.9</ele>
        <time>2025-10-05T10:08:35Z</time>
      </trkpt>
      <trkpt lat="43.33413" lon="5.78783">
        <ele>1131.1</ele>
        <time>2025-10-05T10:08:36Z</time>
      </trkpt>
      <trkpt lat="43.33413" lon="5.78783">
        <ele>1131.1</ele>
        <time>2025-10-05T10:08:37Z</time>
      </trkpt>
      <trkpt lat="43.33413" lon="5.78783">
        <ele>1131.2</ele>
        <time>2025-10-05T10:08:38Z</time>
      </trkpt>
      <trkpt lat="43.33413" lon="5.78783">
        <ele>1131.4</ele>
        <time>2025-10-05T10:08:39Z</time>
      </trkpt>
      <trkpt lat="43.33413" lon="5.78782">
        <ele>1131.4</ele>
        <time>2025-10-05T10:08:40Z</time>
      </trkpt>
      <trkpt lat="43.33413" lon="5.78782">
        <ele>1131.6</ele>
        <time>2025-10-05T10:08:41Z</time>
      </trkpt>
      <trkpt lat="43.33413" lon="5.78782">
        <ele>1131.7</ele>
        <time>2025-10-05T10:08:42Z</time>
      </trkpt>
      <trkpt lat="43.33413" lon="5.78782">
        <ele>1131.9</ele>
        <time>2025-10-05T10:08:43Z</time>
      </trkpt>
      <trkpt lat="43.33413" lon="5.78782">
        <ele>1132</ele>
        <time>2025-10-05T10:08:44Z</time>
      </trkpt>
      <trkpt lat="43.33413" lon="5.78782">
        <ele>1131.9</ele>
        <time>2025-10-05T10:08:45Z</time>
      </trkpt>
      <trkpt lat="43.33413" lon="5.78782">
        <ele>1131.9</ele>
        <time>2025-10-05T10:08:46Z</time>
      </trkpt>
      <trkpt lat="43.33413" lon="5.78782">
        <ele>1131.8</ele>
        <time>2025-10-05T10:08:47Z</time>
      </trkpt>
      <trkpt lat="43.33413" lon="5.78782">
        <ele>1131.7</ele>
        <time>2025-10-05T10:08:48Z</time>
      </trkpt>
      <trkpt lat="43.33413" lon="5.78781">
        <ele>1131.6</ele>
        <time>2025-10-05T10:08:49Z</time>
      </trkpt>
      <trkpt lat="43.33413" lon="5.78781">
        <ele>1131.6</ele>
        <time>2025-10-05T10:08:50Z</time>
      </trkpt>
      <trkpt lat="43.33413" lon="5.78781">
        <ele>1131.8</ele>
        <time>2025-10-05T10:08:51Z</time>
      </trkpt>
      <trkpt lat="43.33414" lon="5.78781">
        <ele>1132.2</ele>
        <time>2025-10-05T10:08:52Z</time>
      </trkpt>
      <trkpt lat="43.33413" lon="5.78781">
        <ele>1132.6</ele>
        <time>2025-10-05T10:08:53Z</time>
      </trkpt>
      <trkpt lat="43.33414" lon="5.78781">
        <ele>1133.1</ele>
        <time>2025-10-05T10:08:54Z</time>
      </trkpt>
      <trkpt lat="43.33414" lon="5.78781">
        <ele>1133.3</ele>
        <time>2025-10-05T10:08:55Z</time>
      </trkpt>
      <trkpt lat="43.33414" lon="5.78781">
        <ele>1133.2</ele>
        <time>2025-10-05T10:08:56Z</time>
      </trkpt>
      <trkpt lat="43.33414" lon="5.78781">
        <ele>1133</ele>
        <time>2025-10-05T10:08:57Z</time>
      </trkpt>
      <trkpt lat="43.33414" lon="5.78781">
        <ele>1133.1</ele>
        <time>2025-10-05T10:08:58Z</time>
      </trkpt>
      <trkpt lat="43.33414" lon="5.7878">
        <ele>1133.6</ele>
        <time>2025-10-05T10:08:59Z</time>
      </trkpt>
      <trkpt lat="43.33414" lon="5.78781">
        <ele>1134</ele>
        <time>2025-10-05T10:09:00Z</time>
      </trkpt>
      <trkpt lat="43.33414" lon="5.7878">
        <ele>1134</ele>
        <time>2025-10-05T10:09:01Z</time>
      </trkpt>
      <trkpt lat="43.33414" lon="5.7878">
        <ele>1134.1</ele>
        <time>2025-10-05T10:09:02Z</time>
      </trkpt>
      <trkpt lat="43.33414" lon="5.7878">
        <ele>1134.4</ele>
        <time>2025-10-05T10:09:03Z</time>
      </trkpt>
      <trkpt lat="43.33414" lon="5.7878">
        <ele>1134.9</ele>
        <time>2025-10-05T10:09:04Z</time>
      </trkpt>
      <trkpt lat="43.33414" lon="5.7878">
        <ele>1135.3</ele>
        <time>2025-10-05T10:09:05Z</time>
      </trkpt>
      <trkpt lat="43.33414" lon="5.7878">
        <ele>1135.6</ele>
        <time>2025-10-05T10:09:06Z</time>
      </trkpt>
      <trkpt lat="43.33414" lon="5.7878">
        <ele>1135.9</ele>
        <time>2025-10-05T10:09:07Z</time>
      </trkpt>
      <trkpt lat="43.33414" lon="5.7878">
        <ele>1136</ele>
        <time>2025-10-05T10:09:08Z</time>
      </trkpt>
      <trkpt lat="43.33414" lon="5.7878">
        <ele>1136</ele>
        <time>2025-10-05T10:09:09Z</time>
      </trkpt>
      <trkpt lat="43.33414" lon="5.7878">
        <ele>1135.8</ele>
        <time>2025-10-05T10:09:10Z</time>
      </trkpt>
      <trkpt lat="43.33414" lon="5.7878">
        <ele>1135.7</ele>
        <time>2025-10-05T10:09:11Z</time>
      </trkpt>
      <trkpt lat="43.33414" lon="5.7878">
        <ele>1135.6</ele>
        <time>2025-10-05T10:09:12Z</time>
      </trkpt>
      <trkpt lat="43.33414" lon="5.7878">
        <ele>1135.6</ele>
        <time>2025-10-05T10:09:13Z</time>
      </trkpt>
      <trkpt lat="43.33414" lon="5.7878">
        <ele>1135.4</ele>
        <time>2025-10-05T10:09:14Z</time>
      </trkpt>
      <trkpt lat="43.33414" lon="5.7878">
        <ele>1135.3</ele>
        <time>2025-10-05T10:09:15Z</time>
      </trkpt>
      <trkpt lat="43.33414" lon="5.7878">
        <ele>1135.2</ele>
        <time>2025-10-05T10:09:16Z</time>
      </trkpt>
      <trkpt lat="43.33414" lon="5.7878">
        <ele>1134.8</ele>
        <time>2025-10-05T10:09:17Z</time>
      </trkpt>
      <trkpt lat="43.33414" lon="5.78779">
        <ele>1134.4</ele>
        <time>2025-10-05T10:09:18Z</time>
      </trkpt>
      <trkpt lat="43.33414" lon="5.78779">
        <ele>1134.1</ele>
        <time>2025-10-05T10:09:19Z</time>
      </trkpt>
      <trkpt lat="43.33414" lon="5.78779">
        <ele>1134</ele>
        <time>2025-10-05T10:09:20Z</time>
      </trkpt>
      <trkpt lat="43.33414" lon="5.78779">
        <ele>1134</ele>
        <time>2025-10-05T10:09:21Z</time>
      </trkpt>
      <trkpt lat="43.33414" lon="5.78779">
        <ele>1134.1</ele>
        <time>2025-10-05T10:09:22Z</time>
      </trkpt>
      <trkpt lat="43.33414" lon="5.78779">
        <ele>1133.7</ele>
        <time>2025-10-05T10:09:23Z</time>
      </trkpt>
      <trkpt lat="43.33414" lon="5.78779">
        <ele>1133.7</ele>
        <time>2025-10-05T10:09:24Z</time>
      </trkpt>
      <trkpt lat="43.33414" lon="5.78779">
        <ele>1133.3</ele>
        <time>2025-10-05T10:09:25Z</time>
      </trkpt>
      <trkpt lat="43.33414" lon="5.78779">
        <ele>1132.9</ele>
        <time>2025-10-05T10:09:26Z</time>
      </trkpt>
      <trkpt lat="43.33414" lon="5.78779">
        <ele>1132.5</ele>
        <time>2025-10-05T10:09:27Z</time>
      </trkpt>
      <trkpt lat="43.33414" lon="5.78779">
        <ele>1132.2</ele>
        <time>2025-10-05T10:09:28Z</time>
      </trkpt>
      <trkpt lat="43.33414" lon="5.78779">
        <ele>1132.2</ele>
        <time>2025-10-05T10:09:29Z</time>
      </trkpt>
      <trkpt lat="43.33414" lon="5.78779">
        <ele>1132.2</ele>
        <time>2025-10-05T10:09:30Z</time>
      </trkpt>
      <trkpt lat="43.33414" lon="5.78779">
        <ele>1132.1</ele>
        <time>2025-10-05T10:09:31Z</time>
      </trkpt>
      <trkpt lat="43.33414" lon="5.78779">
        <ele>1131.7</ele>
        <time>2025-10-05T10:09:32Z</time>
      </trkpt>
      <trkpt lat="43.33414" lon="5.78779">
        <ele>1131.1</ele>
        <time>2025-10-05T10:09:33Z</time>
      </trkpt>
      <trkpt lat="43.33414" lon="5.78779">
        <ele>1130.7</ele>
        <time>2025-10-05T10:09:34Z</time>
      </trkpt>
      <trkpt lat="43.33414" lon="5.78779">
        <ele>1130.3</ele>
        <time>2025-10-05T10:09:35Z</time>
      </trkpt>
      <trkpt lat="43.33414" lon="5.78779">
        <ele>1130</ele>
        <time>2025-10-05T10:09:36Z</time>
      </trkpt>
      <trkpt lat="43.33414" lon="5.78779">
        <ele>1129.7</ele>
        <time>2025-10-05T10:09:37Z</time>
      </trkpt>
      <trkpt lat="43.33414" lon="5.78779">
        <ele>1129.4</ele>
        <time>2025-10-05T10:09:38Z</time>
      </trkpt>
      <trkpt lat="43.33414" lon="5.78779">
        <ele>1129.3</ele>
        <time>2025-10-05T10:09:39Z</time>
      </trkpt>
      <trkpt lat="43.33414" lon="5.78779">
        <ele>1129.2</ele>
        <time>2025-10-05T10:09:40Z</time>
      </trkpt>
      <trkpt lat="43.33414" lon="5.78779">
        <ele>1129</ele>
        <time>2025-10-05T10:09:41Z</time>
      </trkpt>
      <trkpt lat="43.33414" lon="5.78779">
        <ele>1128.9</ele>
        <time>2025-10-05T10:09:42Z</time>
      </trkpt>
      <trkpt lat="43.33414" lon="5.78779">
        <ele>1128.8</ele>
        <time>2025-10-05T10:09:43Z</time>
      </trkpt>
      <trkpt lat="43.33414" lon="5.78779">
        <ele>1128.7</ele>
        <time>2025-10-05T10:09:44Z</time>
      </trkpt>
      <trkpt lat="43.33414" lon="5.78779">
        <ele>1128.5</ele>
        <time>2025-10-05T10:09:45Z</time>
      </trkpt>
      <trkpt lat="43.33414" lon="5.78779">
        <ele>1128.3</ele>
        <time>2025-10-05T10:09:46Z</time>
      </trkpt>
      <trkpt lat="43.33414" lon="5.78779">
        <ele>1128.2</ele>
        <time>2025-10-05T10:09:47Z</time>
      </trkpt>
      <trkpt lat="43.33414" lon="5.78779">
        <ele>1128.3</ele>
        <time>2025-10-05T10:09:48Z</time>
      </trkpt>
      <trkpt lat="43.33414" lon="5.78779">
        <ele>1128.3</ele>
        <time>2025-10-05T10:09:49Z</time>
      </trkpt>
      <trkpt lat="43.33414" lon="5.78779">
        <ele>1128.3</ele>
        <time>2025-10-05T10:09:50Z</time>
      </trkpt>
      <trkpt lat="43.33414" lon="5.78779">
        <ele>1128.3</ele>
        <time>2025-10-05T10:09:51Z</time>
      </trkpt>
      <trkpt lat="43.33414" lon="5.78779">
        <ele>1128.4</ele>
        <time>2025-10-05T10:09:52Z</time>
      </trkpt>
      <trkpt lat="43.33414" lon="5.78779">
        <ele>1128.4</ele>
        <time>2025-10-05T10:09:53Z</time>
      </trkpt>
      <trkpt lat="43.33414" lon="5.78779">
        <ele>1128.4</ele>
        <time>2025-10-05T10:09:54Z</time>
      </trkpt>
      <trkpt lat="43.33414" lon="5.78779">
        <ele>1128.3</ele>
        <time>2025-10-05T10:09:55Z</time>
      </trkpt>
      <trkpt lat="43.33414" lon="5.78779">
        <ele>1128.2</ele>
        <time>2025-10-05T10:09:56Z</time>
      </trkpt>
      <trkpt lat="43.33414" lon="5.78779">
        <ele>1128.2</ele>
        <time>2025-10-05T10:09:57Z</time>
      </trkpt>
      <trkpt lat="43.33414" lon="5.7878">
        <ele>1128.2</ele>
        <time>2025-10-05T10:09:58Z</time>
      </trkpt>
      <trkpt lat="43.33414" lon="5.7878">
        <ele>1128.2</ele>
        <time>2025-10-05T10:09:59Z</time>
      </trkpt>
      <trkpt lat="43.33414" lon="5.7878">
        <ele>1128.2</ele>
        <time>2025-10-05T10:10:00Z</time>
      </trkpt>
      <trkpt lat="43.33414" lon="5.7878">
        <ele>1128.3</ele>
        <time>2025-10-05T10:10:01Z</time>
      </trkpt>
      <trkpt lat="43.33414" lon="5.7878">
        <ele>1128.3</ele>
        <time>2025-10-05T10:10:02Z</time>
      </trkpt>
      <trkpt lat="43.33414" lon="5.7878">
        <ele>1128.4</ele>
        <time>2025-10-05T10:10:03Z</time>
      </trkpt>
      <trkpt lat="43.33414" lon="5.7878">
        <ele>1128.4</ele>
        <time>2025-10-05T10:10:04Z</time>
      </trkpt>
      <trkpt lat="43.33414" lon="5.7878">
        <ele>1128.5</ele>
        <time>2025-10-05T10:10:05Z</time>
      </trkpt>
      <trkpt lat="43.33414" lon="5.7878">
        <ele>1128.7</ele>
        <time>2025-10-05T10:10:06Z</time>
      </trkpt>
      <trkpt lat="43.33414" lon="5.7878">
        <ele>1128.9</ele>
        <time>2025-10-05T10:10:07Z</time>
      </trkpt>
      <trkpt lat="43.33414" lon="5.7878">
        <ele>1128.9</ele>
        <time>2025-10-05T10:10:08Z</time>
      </trkpt>
      <trkpt lat="43.33414" lon="5.7878">
        <ele>1128.9</ele>
        <time>2025-10-05T10:10:09Z</time>
      </trkpt>
      <trkpt lat="43.33414" lon="5.7878">
        <ele>1129.1</ele>
        <time>2025-10-05T10:10:10Z</time>
      </trkpt>
      <trkpt lat="43.33414" lon="5.7878">
        <ele>1129.1</ele>
        <time>2025-10-05T10:10:11Z</time>
      </trkpt>
      <trkpt lat="43.33414" lon="5.7878">
        <ele>1129.2</ele>
        <time>2025-10-05T10:10:12Z</time>
      </trkpt>
      <trkpt lat="43.33414" lon="5.7878">
        <ele>1129.2</ele>
        <time>2025-10-05T10:10:13Z</time>
      </trkpt>
      <trkpt lat="43.33414" lon="5.7878">
        <ele>1129.2</ele>
        <time>2025-10-05T10:10:14Z</time>
      </trkpt>
      <trkpt lat="43.33414" lon="5.7878">
        <ele>1129.1</ele>
        <time>2025-10-05T10:10:15Z</time>
      </trkpt>
      <trkpt lat="43.33414" lon="5.7878">
        <ele>1129.2</ele>
        <time>2025-10-05T10:10:16Z</time>
      </trkpt>
      <trkpt lat="43.33414" lon="5.78781">
        <ele>1129.3</ele>
        <time>2025-10-05T10:10:17Z</time>
      </trkpt>
      <trkpt lat="43.33414" lon="5.78781">
        <ele>1129.4</ele>
        <time>2025-10-05T10:10:18Z</time>
      </trkpt>
      <trkpt lat="43.33414" lon="5.78781">
        <ele>1129.6</ele>
        <time>2025-10-05T10:10:19Z</time>
      </trkpt>
      <trkpt lat="43.33414" lon="5.78781">
        <ele>1129.7</ele>
        <time>2025-10-05T10:10:20Z</time>
      </trkpt>
      <trkpt lat="43.33414" lon="5.78781">
        <ele>1129.7</ele>
        <time>2025-10-05T10:10:21Z</time>
      </trkpt>
      <trkpt lat="43.33414" lon="5.78781">
        <ele>1129.8</ele>
        <time>2025-10-05T10:10:22Z</time>
      </trkpt>
      <trkpt lat="43.33414" lon="5.78781">
        <ele>1129.9</ele>
        <time>2025-10-05T10:10:23Z</time>
      </trkpt>
      <trkpt lat="43.33414" lon="5.78781">
        <ele>1130</ele>
        <time>2025-10-05T10:10:24Z</time>
      </trkpt>
      <trkpt lat="43.33414" lon="5.78781">
        <ele>1130.1</ele>
        <time>2025-10-05T10:10:25Z</time>
      </trkpt>
      <trkpt lat="43.33414" lon="5.78781">
        <ele>1130.3</ele>
        <time>2025-10-05T10:10:26Z</time>
      </trkpt>
      <trkpt lat="43.33414" lon="5.78781">
        <ele>1130.4</ele>
        <time>2025-10-05T10:10:27Z</time>
      </trkpt>
      <trkpt lat="43.33414" lon="5.78781">
        <ele>1130.7</ele>
        <time>2025-10-05T10:10:28Z</time>
      </trkpt>
      <trkpt lat="43.33414" lon="5.78781">
        <ele>1130.9</ele>
        <time>2025-10-05T10:10:29Z</time>
      </trkpt>
      <trkpt lat="43.33414" lon="5.78781">
        <ele>1130.9</ele>
        <time>2025-10-05T10:10:30Z</time>
      </trkpt>
      <trkpt lat="43.33414" lon="5.78781">
        <ele>1131.1</ele>
        <time>2025-10-05T10:10:31Z</time>
      </trkpt>
      <trkpt lat="43.33414" lon="5.78781">
        <ele>1131.3</ele>
        <time>2025-10-05T10:10:32Z</time>
      </trkpt>
      <trkpt lat="43.33413" lon="5.78781">
        <ele>1131.5</ele>
        <time>2025-10-05T10:10:33Z</time>
      </trkpt>
      <trkpt lat="43.33413" lon="5.78781">
        <ele>1131.6</ele>
        <time>2025-10-05T10:10:34Z</time>
      </trkpt>
      <trkpt lat="43.33413" lon="5.78781">
        <ele>1131.7</ele>
        <time>2025-10-05T10:10:35Z</time>
      </trkpt>
      <trkpt lat="43.33413" lon="5.78781">
        <ele>1131.9</ele>
        <time>2025-10-05T10:10:36Z</time>
      </trkpt>
      <trkpt lat="43.33413" lon="5.78781">
        <ele>1131.9</ele>
        <time>2025-10-05T10:10:37Z</time>
      </trkpt>
      <trkpt lat="43.33413" lon="5.78781">
        <ele>1131.9</ele>
        <time>2025-10-05T10:10:38Z</time>
      </trkpt>
      <trkpt lat="43.33413" lon="5.78781">
        <ele>1131.8</ele>
        <time>2025-10-05T10:10:39Z</time>
      </trkpt>
      <trkpt lat="43.33413" lon="5.78781">
        <ele>1131.7</ele>
        <time>2025-10-05T10:10:40Z</time>
      </trkpt>
      <trkpt lat="43.33413" lon="5.78781">
        <ele>1131.7</ele>
        <time>2025-10-05T10:10:41Z</time>
      </trkpt>
      <trkpt lat="43.33413" lon="5.78781">
        <ele>1131.6</ele>
        <time>2025-10-05T10:10:42Z</time>
      </trkpt>
      <trkpt lat="43.33413" lon="5.78781">
        <ele>1131.8</ele>
        <time>2025-10-05T10:10:43Z</time>
      </trkpt>
      <trkpt lat="43.33413" lon="5.78781">
        <ele>1131.6</ele>
        <time>2025-10-05T10:10:44Z</time>
      </trkpt>
      <trkpt lat="43.33413" lon="5.78781">
        <ele>1131.5</ele>
        <time>2025-10-05T10:10:45Z</time>
      </trkpt>
      <trkpt lat="43.33413" lon="5.78781">
        <ele>1131.4</ele>
        <time>2025-10-05T10:10:46Z</time>
      </trkpt>
      <trkpt lat="43.33413" lon="5.78781">
        <ele>1131.2</ele>
        <time>2025-10-05T10:10:47Z</time>
      </trkpt>
      <trkpt lat="43.33413" lon="5.78781">
        <ele>1130.9</ele>
        <time>2025-10-05T10:10:48Z</time>
      </trkpt>
      <trkpt lat="43.33413" lon="5.78781">
        <ele>1130.8</ele>
        <time>2025-10-05T10:10:49Z</time>
      </trkpt>
      <trkpt lat="43.33413" lon="5.78781">
        <ele>1130.5</ele>
        <time>2025-10-05T10:10:50Z</time>
      </trkpt>
      <trkpt lat="43.33413" lon="5.78781">
        <ele>1130.3</ele>
        <time>2025-10-05T10:10:51Z</time>
      </trkpt>
      <trkpt lat="43.33413" lon="5.78781">
        <ele>1130.2</ele>
        <time>2025-10-05T10:10:52Z</time>
      </trkpt>
      <trkpt lat="43.33413" lon="5.78782">
        <ele>1130</ele>
        <time>2025-10-05T10:10:53Z</time>
      </trkpt>
      <trkpt lat="43.33413" lon="5.78782">
        <ele>1130.1</ele>
        <time>2025-10-05T10:10:54Z</time>
      </trkpt>
      <trkpt lat="43.33413" lon="5.78781">
        <ele>1130.1</ele>
        <time>2025-10-05T10:10:55Z</time>
      </trkpt>
      <trkpt lat="43.33413" lon="5.78782">
        <ele>1130.2</ele>
        <time>2025-10-05T10:10:56Z</time>
      </trkpt>
      <trkpt lat="43.33413" lon="5.78782">
        <ele>1130.2</ele>
        <time>2025-10-05T10:10:57Z</time>
      </trkpt>
      <trkpt lat="43.33413" lon="5.78782">
        <ele>1130.1</ele>
        <time>2025-10-05T10:10:58Z</time>
      </trkpt>
      <trkpt lat="43.33413" lon="5.78782">
        <ele>1130</ele>
        <time>2025-10-05T10:10:59Z</time>
      </trkpt>
      <trkpt lat="43.33413" lon="5.78782">
        <ele>1130.1</ele>
        <time>2025-10-05T10:11:00Z</time>
      </trkpt>
      <trkpt lat="43.33413" lon="5.78782">
        <ele>1130.3</ele>
        <time>2025-10-05T10:11:01Z</time>
      </trkpt>
      <trkpt lat="43.33413" lon="5.78782">
        <ele>1130.3</ele>
        <time>2025-10-05T10:11:02Z</time>
      </trkpt>
      <trkpt lat="43.33413" lon="5.78782">
        <ele>1130.4</ele>
        <time>2025-10-05T10:11:03Z</time>
      </trkpt>
      <trkpt lat="43.33413" lon="5.78782">
        <ele>1130.4</ele>
        <time>2025-10-05T10:11:04Z</time>
      </trkpt>
      <trkpt lat="43.33413" lon="5.78782">
        <ele>1130.5</ele>
        <time>2025-10-05T10:11:05Z</time>
      </trkpt>
      <trkpt lat="43.33413" lon="5.78782">
        <ele>1130.6</ele>
        <time>2025-10-05T10:11:06Z</time>
      </trkpt>
      <trkpt lat="43.33413" lon="5.78782">
        <ele>1130.7</ele>
        <time>2025-10-05T10:11:07Z</time>
      </trkpt>
      <trkpt lat="43.33413" lon="5.78782">
        <ele>1131.1</ele>
        <time>2025-10-05T10:11:08Z</time>
      </trkpt>
      <trkpt lat="43.33413" lon="5.78782">
        <ele>1131.3</ele>
        <time>2025-10-05T10:11:09Z</time>
      </trkpt>
      <trkpt lat="43.33413" lon="5.78782">
        <ele>1131.3</ele>
        <time>2025-10-05T10:11:10Z</time>
      </trkpt>
      <trkpt lat="43.33413" lon="5.78782">
        <ele>1131.3</ele>
        <time>2025-10-05T10:11:11Z</time>
      </trkpt>
      <trkpt lat="43.33413" lon="5.78781">
        <ele>1131.3</ele>
        <time>2025-10-05T10:11:12Z</time>
      </trkpt>
      <trkpt lat="43.33413" lon="5.78781">
        <ele>1131.5</ele>
        <time>2025-10-05T10:11:13Z</time>
      </trkpt>
      <trkpt lat="43.33413" lon="5.78781">
        <ele>1131.5</ele>
        <time>2025-10-05T10:11:14Z</time>
      </trkpt>
      <trkpt lat="43.33413" lon="5.78781">
        <ele>1131.6</ele>
        <time>2025-10-05T10:11:15Z</time>
      </trkpt>
      <trkpt lat="43.33413" lon="5.78781">
        <ele>1131.7</ele>
        <time>2025-10-05T10:11:16Z</time>
      </trkpt>
      <trkpt lat="43.33413" lon="5.78781">
        <ele>1131.8</ele>
        <time>2025-10-05T10:11:17Z</time>
      </trkpt>
      <trkpt lat="43.33414" lon="5.78781">
        <ele>1131.8</ele>
        <time>2025-10-05T10:11:18Z</time>
      </trkpt>
      <trkpt lat="43.33414" lon="5.78781">
        <ele>1131.7</ele>
        <time>2025-10-05T10:11:19Z</time>
      </trkpt>
      <trkpt lat="43.33414" lon="5.78781">
        <ele>1131.8</ele>
        <time>2025-10-05T10:11:20Z</time>
      </trkpt>
      <trkpt lat="43.33414" lon="5.78781">
        <ele>1131.8</ele>
        <time>2025-10-05T10:11:21Z</time>
      </trkpt>
      <trkpt lat="43.33414" lon="5.78781">
        <ele>1131.4</ele>
        <time>2025-10-05T10:11:22Z</time>
      </trkpt>
      <trkpt lat="43.33414" lon="5.78781">
        <ele>1131.3</ele>
        <time>2025-10-05T10:11:23Z</time>
      </trkpt>
      <trkpt lat="43.33414" lon="5.78781">
        <ele>1131.1</ele>
        <time>2025-10-05T10:11:24Z</time>
      </trkpt>
      <trkpt lat="43.33414" lon="5.78781">
        <ele>1130.8</ele>
        <time>2025-10-05T10:11:25Z</time>
      </trkpt>
      <trkpt lat="43.33414" lon="5.78781">
        <ele>1130.6</ele>
        <time>2025-10-05T10:11:26Z</time>
      </trkpt>
      <trkpt lat="43.33414" lon="5.78781">
        <ele>1130.4</ele>
        <time>2025-10-05T10:11:27Z</time>
      </trkpt>
      <trkpt lat="43.33414" lon="5.78781">
        <ele>1130.3</ele>
        <time>2025-10-05T10:11:28Z</time>
      </trkpt>
      <trkpt lat="43.33413" lon="5.78781">
        <ele>1130.1</ele>
        <time>2025-10-05T10:11:29Z</time>
      </trkpt>
      <trkpt lat="43.33413" lon="5.78781">
        <ele>1129.9</ele>
        <time>2025-10-05T10:11:30Z</time>
      </trkpt>
      <trkpt lat="43.33413" lon="5.78781">
        <ele>1129.9</ele>
        <time>2025-10-05T10:11:31Z</time>
      </trkpt>
      <trkpt lat="43.33413" lon="5.78781">
        <ele>1129.8</ele>
        <time>2025-10-05T10:11:32Z</time>
      </trkpt>
      <trkpt lat="43.33413" lon="5.78782">
        <ele>1129.9</ele>
        <time>2025-10-05T10:11:33Z</time>
      </trkpt>
      <trkpt lat="43.33413" lon="5.78782">
        <ele>1130</ele>
        <time>2025-10-05T10:11:34Z</time>
      </trkpt>
      <trkpt lat="43.33413" lon="5.78782">
        <ele>1129.9</ele>
        <time>2025-10-05T10:11:35Z</time>
      </trkpt>
      <trkpt lat="43.33413" lon="5.78782">
        <ele>1129.9</ele>
        <time>2025-10-05T10:11:36Z</time>
      </trkpt>
      <trkpt lat="43.33413" lon="5.78782">
        <ele>1129.7</ele>
        <time>2025-10-05T10:11:37Z</time>
      </trkpt>
      <trkpt lat="43.33413" lon="5.78782">
        <ele>1129.7</ele>
        <time>2025-10-05T10:11:38Z</time>
      </trkpt>
      <trkpt lat="43.33413" lon="5.78782">
        <ele>1129.7</ele>
        <time>2025-10-05T10:11:39Z</time>
      </trkpt>
      <trkpt lat="43.33413" lon="5.78782">
        <ele>1129.6</ele>
        <time>2025-10-05T10:11:40Z</time>
      </trkpt>
      <trkpt lat="43.33413" lon="5.78782">
        <ele>1129.6</ele>
        <time>2025-10-05T10:11:41Z</time>
      </trkpt>
      <trkpt lat="43.33413" lon="5.78782">
        <ele>1129.6</ele>
        <time>2025-10-05T10:11:42Z</time>
      </trkpt>
      <trkpt lat="43.33413" lon="5.78782">
        <ele>1129.9</ele>
        <time>2025-10-05T10:11:43Z</time>
      </trkpt>
      <trkpt lat="43.33413" lon="5.78782">
        <ele>1130.1</ele>
        <time>2025-10-05T10:11:44Z</time>
      </trkpt>
      <trkpt lat="43.33413" lon="5.78782">
        <ele>1130.3</ele>
        <time>2025-10-05T10:11:45Z</time>
      </trkpt>
      <trkpt lat="43.33413" lon="5.78782">
        <ele>1130.5</ele>
        <time>2025-10-05T10:11:46Z</time>
      </trkpt>
      <trkpt lat="43.33413" lon="5.78782">
        <ele>1130.7</ele>
        <time>2025-10-05T10:11:47Z</time>
      </trkpt>
      <trkpt lat="43.33413" lon="5.78782">
        <ele>1130.9</ele>
        <time>2025-10-05T10:11:48Z</time>
      </trkpt>
      <trkpt lat="43.33413" lon="5.78782">
        <ele>1131</ele>
        <time>2025-10-05T10:11:49Z</time>
      </trkpt>
      <trkpt lat="43.33413" lon="5.78782">
        <ele>1131.1</ele>
        <time>2025-10-05T10:11:50Z</time>
      </trkpt>
      <trkpt lat="43.33413" lon="5.78782">
        <ele>1131.3</ele>
        <time>2025-10-05T10:11:51Z</time>
      </trkpt>
      <trkpt lat="43.33413" lon="5.78782">
        <ele>1131.2</ele>
        <time>2025-10-05T10:11:52Z</time>
      </trkpt>
      <trkpt lat="43.33413" lon="5.78782">
        <ele>1131.3</ele>
        <time>2025-10-05T10:11:53Z</time>
      </trkpt>
      <trkpt lat="43.33413" lon="5.78782">
        <ele>1131.9</ele>
        <time>2025-10-05T10:11:54Z</time>
      </trkpt>
      <trkpt lat="43.33413" lon="5.78782">
        <ele>1132</ele>
        <time>2025-10-05T10:11:55Z</time>
      </trkpt>
      <trkpt lat="43.33413" lon="5.78782">
        <ele>1131.9</ele>
        <time>2025-10-05T10:11:56Z</time>
      </trkpt>
      <trkpt lat="43.33413" lon="5.78782">
        <ele>1131.8</ele>
        <time>2025-10-05T10:11:57Z</time>
      </trkpt>
      <trkpt lat="43.33413" lon="5.78782">
        <ele>1131.9</ele>
        <time>2025-10-05T10:11:58Z</time>
      </trkpt>
      <trkpt lat="43.33413" lon="5.78782">
        <ele>1132.2</ele>
        <time>2025-10-05T10:11:59Z</time>
      </trkpt>
      <trkpt lat="43.33413" lon="5.78783">
        <ele>1132.3</ele>
        <time>2025-10-05T10:12:00Z</time>
      </trkpt>
      <trkpt lat="43.33413" lon="5.78783">
        <ele>1132.6</ele>
        <time>2025-10-05T10:12:01Z</time>
      </trkpt>
      <trkpt lat="43.33413" lon="5.78783">
        <ele>1132.5</ele>
        <time>2025-10-05T10:12:02Z</time>
      </trkpt>
      <trkpt lat="43.33413" lon="5.78783">
        <ele>1132.5</ele>
        <time>2025-10-05T10:12:03Z</time>
      </trkpt>
      <trkpt lat="43.33413" lon="5.78783">
        <ele>1132.4</ele>
        <time>2025-10-05T10:12:04Z</time>
      </trkpt>
      <trkpt lat="43.33413" lon="5.78783">
        <ele>1132.4</ele>
        <time>2025-10-05T10:12:05Z</time>
      </trkpt>
      <trkpt lat="43.33413" lon="5.78783">
        <ele>1132.6</ele>
        <time>2025-10-05T10:12:06Z</time>
      </trkpt>
      <trkpt lat="43.33413" lon="5.78783">
        <ele>1132.7</ele>
        <time>2025-10-05T10:12:07Z</time>
      </trkpt>
      <trkpt lat="43.33413" lon="5.78783">
        <ele>1132.9</ele>
        <time>2025-10-05T10:12:08Z</time>
      </trkpt>
      <trkpt lat="43.33413" lon="5.78783">
        <ele>1133.1</ele>
        <time>2025-10-05T10:12:09Z</time>
      </trkpt>
      <trkpt lat="43.33413" lon="5.78783">
        <ele>1133.5</ele>
        <time>2025-10-05T10:12:10Z</time>
      </trkpt>
      <trkpt lat="43.33413" lon="5.78783">
        <ele>1133.7</ele>
        <time>2025-10-05T10:12:11Z</time>
      </trkpt>
      <trkpt lat="43.33413" lon="5.78783">
        <ele>1133.8</ele>
        <time>2025-10-05T10:12:12Z</time>
      </trkpt>
      <trkpt lat="43.33413" lon="5.78783">
        <ele>1134</ele>
        <time>2025-10-05T10:12:13Z</time>
      </trkpt>
      <trkpt lat="43.33413" lon="5.78783">
        <ele>1134.2</ele>
        <time>2025-10-05T10:12:14Z</time>
      </trkpt>
      <trkpt lat="43.33413" lon="5.78783">
        <ele>1134.5</ele>
        <time>2025-10-05T10:12:15Z</time>
      </trkpt>
      <trkpt lat="43.33413" lon="5.78783">
        <ele>1134.8</ele>
        <time>2025-10-05T10:12:16Z</time>
      </trkpt>
      <trkpt lat="43.33413" lon="5.78783">
        <ele>1134.7</ele>
        <time>2025-10-05T10:12:17Z</time>
      </trkpt>
      <trkpt lat="43.33413" lon="5.78783">
        <ele>1134.5</ele>
        <time>2025-10-05T10:12:18Z</time>
      </trkpt>
      <trkpt lat="43.33413" lon="5.78783">
        <ele>1134.4</ele>
        <time>2025-10-05T10:12:19Z</time>
      </trkpt>
      <trkpt lat="43.33414" lon="5.78783">
        <ele>1134.2</ele>
        <time>2025-10-05T10:12:20Z</time>
      </trkpt>
      <trkpt lat="43.33414" lon="5.78783">
        <ele>1133.8</ele>
        <time>2025-10-05T10:12:21Z</time>
      </trkpt>
      <trkpt lat="43.33414" lon="5.78784">
        <ele>1133.7</ele>
        <time>2025-10-05T10:12:22Z</time>
      </trkpt>
      <trkpt lat="43.33414" lon="5.78784">
        <ele>1133.6</ele>
        <time>2025-10-05T10:12:23Z</time>
      </trkpt>
      <trkpt lat="43.33414" lon="5.78784">
        <ele>1133.3</ele>
        <time>2025-10-05T10:12:24Z</time>
      </trkpt>
      <trkpt lat="43.33414" lon="5.78784">
        <ele>1133.4</ele>
        <time>2025-10-05T10:12:25Z</time>
      </trkpt>
      <trkpt lat="43.33414" lon="5.78784">
        <ele>1133.9</ele>
        <time>2025-10-05T10:12:26Z</time>
      </trkpt>
      <trkpt lat="43.33414" lon="5.78784">
        <ele>1133.9</ele>
        <time>2025-10-05T10:12:27Z</time>
      </trkpt>
      <trkpt lat="43.33414" lon="5.78784">
        <ele>1133.9</ele>
        <time>2025-10-05T10:12:28Z</time>
      </trkpt>
      <trkpt lat="43.33414" lon="5.78784">
        <ele>1133.7</ele>
        <time>2025-10-05T10:12:29Z</time>
      </trkpt>
      <trkpt lat="43.33414" lon="5.78784">
        <ele>1133.9</ele>
        <time>2025-10-05T10:12:30Z</time>
      </trkpt>
      <trkpt lat="43.33414" lon="5.78784">
        <ele>1134.2</ele>
        <time>2025-10-05T10:12:31Z</time>
      </trkpt>
      <trkpt lat="43.33414" lon="5.78784">
        <ele>1134.2</ele>
        <time>2025-10-05T10:12:32Z</time>
      </trkpt>
      <trkpt lat="43.33414" lon="5.78784">
        <ele>1134.1</ele>
        <time>2025-10-05T10:12:33Z</time>
      </trkpt>
      <trkpt lat="43.33414" lon="5.78784">
        <ele>1133.9</ele>
        <time>2025-10-05T10:12:34Z</time>
      </trkpt>
      <trkpt lat="43.33414" lon="5.78784">
        <ele>1133.7</ele>
        <time>2025-10-05T10:12:35Z</time>
      </trkpt>
      <trkpt lat="43.33414" lon="5.78784">
        <ele>1133.5</ele>
        <time>2025-10-05T10:12:36Z</time>
      </trkpt>
      <trkpt lat="43.33414" lon="5.78784">
        <ele>1133.3</ele>
        <time>2025-10-05T10:12:37Z</time>
      </trkpt>
      <trkpt lat="43.33414" lon="5.78784">
        <ele>1133.2</ele>
        <time>2025-10-05T10:12:38Z</time>
      </trkpt>
      <trkpt lat="43.33414" lon="5.78784">
        <ele>1132.8</ele>
        <time>2025-10-05T10:12:39Z</time>
      </trkpt>
      <trkpt lat="43.33414" lon="5.78784">
        <ele>1133</ele>
        <time>2025-10-05T10:12:40Z</time>
      </trkpt>
      <trkpt lat="43.33414" lon="5.78784">
        <ele>1133</ele>
        <time>2025-10-05T10:12:41Z</time>
      </trkpt>
      <trkpt lat="43.33414" lon="5.78784">
        <ele>1133.1</ele>
        <time>2025-10-05T10:12:42Z</time>
      </trkpt>
      <trkpt lat="43.33414" lon="5.78784">
        <ele>1133</ele>
        <time>2025-10-05T10:12:43Z</time>
      </trkpt>
      <trkpt lat="43.33414" lon="5.78784">
        <ele>1133</ele>
        <time>2025-10-05T10:12:44Z</time>
      </trkpt>
      <trkpt lat="43.33414" lon="5.78784">
        <ele>1132.7</ele>
        <time>2025-10-05T10:12:45Z</time>
      </trkpt>
      <trkpt lat="43.33414" lon="5.78784">
        <ele>1132.7</ele>
        <time>2025-10-05T10:12:46Z</time>
      </trkpt>
      <trkpt lat="43.33414" lon="5.78784">
        <ele>1132.5</ele>
        <time>2025-10-05T10:12:47Z</time>
      </trkpt>
      <trkpt lat="43.33414" lon="5.78784">
        <ele>1132.3</ele>
        <time>2025-10-05T10:12:48Z</time>
      </trkpt>
      <trkpt lat="43.33414" lon="5.78784">
        <ele>1132.5</ele>
        <time>2025-10-05T10:12:49Z</time>
      </trkpt>
      <trkpt lat="43.33414" lon="5.78784">
        <ele>1132.7</ele>
        <time>2025-10-05T10:12:50Z</time>
      </trkpt>
      <trkpt lat="43.33414" lon="5.78784">
        <ele>1132.6</ele>
        <time>2025-10-05T10:12:51Z</time>
      </trkpt>
      <trkpt lat="43.33415" lon="5.78784">
        <ele>1132.5</ele>
        <time>2025-10-05T10:12:52Z</time>
      </trkpt>
      <trkpt lat="43.33415" lon="5.78784">
        <ele>1132.3</ele>
        <time>2025-10-05T10:12:53Z</time>
      </trkpt>
      <trkpt lat="43.33414" lon="5.78784">
        <ele>1132</ele>
        <time>2025-10-05T10:12:54Z</time>
      </trkpt>
      <trkpt lat="43.33414" lon="5.78784">
        <ele>1131.7</ele>
        <time>2025-10-05T10:12:55Z</time>
      </trkpt>
      <trkpt lat="43.33414" lon="5.78784">
        <ele>1131.8</ele>
        <time>2025-10-05T10:12:56Z</time>
      </trkpt>
      <trkpt lat="43.33414" lon="5.78784">
        <ele>1132</ele>
        <time>2025-10-05T10:12:57Z</time>
      </trkpt>
      <trkpt lat="43.33414" lon="5.78784">
        <ele>1132.1</ele>
        <time>2025-10-05T10:12:58Z</time>
      </trkpt>
      <trkpt lat="43.33414" lon="5.78784">
        <ele>1132.1</ele>
        <time>2025-10-05T10:12:59Z</time>
      </trkpt>
      <trkpt lat="43.33414" lon="5.78784">
        <ele>1132.2</ele>
        <time>2025-10-05T10:13:00Z</time>
      </trkpt>
      <trkpt lat="43.33414" lon="5.78784">
        <ele>1132.1</ele>
        <time>2025-10-05T10:13:01Z</time>
      </trkpt>
      <trkpt lat="43.33414" lon="5.78784">
        <ele>1132.1</ele>
        <time>2025-10-05T10:13:02Z</time>
      </trkpt>
      <trkpt lat="43.33414" lon="5.78784">
        <ele>1132.2</ele>
        <time>2025-10-05T10:13:03Z</time>
      </trkpt>
      <trkpt lat="43.33414" lon="5.78783">
        <ele>1132.2</ele>
        <time>2025-10-05T10:13:04Z</time>
      </trkpt>
      <trkpt lat="43.33414" lon="5.78783">
        <ele>1132</ele>
        <time>2025-10-05T10:13:05Z</time>
      </trkpt>
      <trkpt lat="43.33414" lon="5.78783">
        <ele>1132.2</ele>
        <time>2025-10-05T10:13:06Z</time>
      </trkpt>
      <trkpt lat="43.33414" lon="5.78783">
        <ele>1132.6</ele>
        <time>2025-10-05T10:13:07Z</time>
      </trkpt>
      <trkpt lat="43.33414" lon="5.78783">
        <ele>1132.7</ele>
        <time>2025-10-05T10:13:08Z</time>
      </trkpt>
      <trkpt lat="43.33414" lon="5.78783">
        <ele>1132.9</ele>
        <time>2025-10-05T10:13:09Z</time>
      </trkpt>
      <trkpt lat="43.33414" lon="5.78783">
        <ele>1133</ele>
        <time>2025-10-05T10:13:10Z</time>
      </trkpt>
      <trkpt lat="43.33414" lon="5.78783">
        <ele>1133.3</ele>
        <time>2025-10-05T10:13:11Z</time>
      </trkpt>
      <trkpt lat="43.33414" lon="5.78783">
        <ele>1133.5</ele>
        <time>2025-10-05T10:13:12Z</time>
      </trkpt>
      <trkpt lat="43.33414" lon="5.78783">
        <ele>1133.6</ele>
        <time>2025-10-05T10:13:13Z</time>
      </trkpt>
      <trkpt lat="43.33414" lon="5.78783">
        <ele>1133.7</ele>
        <time>2025-10-05T10:13:14Z</time>
      </trkpt>
      <trkpt lat="43.33414" lon="5.78783">
        <ele>1133.7</ele>
        <time>2025-10-05T10:13:15Z</time>
      </trkpt>
      <trkpt lat="43.33414" lon="5.78783">
        <ele>1133.6</ele>
        <time>2025-10-05T10:13:16Z</time>
      </trkpt>
      <trkpt lat="43.33414" lon="5.78783">
        <ele>1133.4</ele>
        <time>2025-10-05T10:13:17Z</time>
      </trkpt>
      <trkpt lat="43.33414" lon="5.78783">
        <ele>1133</ele>
        <time>2025-10-05T10:13:18Z</time>
      </trkpt>
      <trkpt lat="43.33414" lon="5.78783">
        <ele>1132.6</ele>
        <time>2025-10-05T10:13:19Z</time>
      </trkpt>
      <trkpt lat="43.33414" lon="5.78783">
        <ele>1132.3</ele>
        <time>2025-10-05T10:13:20Z</time>
      </trkpt>
      <trkpt lat="43.33414" lon="5.78783">
        <ele>1132.1</ele>
        <time>2025-10-05T10:13:21Z</time>
      </trkpt>
      <trkpt lat="43.33414" lon="5.78783">
        <ele>1131.9</ele>
        <time>2025-10-05T10:13:22Z</time>
      </trkpt>
      <trkpt lat="43.33414" lon="5.78783">
        <ele>1131.9</ele>
        <time>2025-10-05T10:13:23Z</time>
      </trkpt>
      <trkpt lat="43.33414" lon="5.78783">
        <ele>1131.8</ele>
        <time>2025-10-05T10:13:24Z</time>
      </trkpt>
      <trkpt lat="43.33414" lon="5.78783">
        <ele>1131.8</ele>
        <time>2025-10-05T10:13:25Z</time>
      </trkpt>
      <trkpt lat="43.33414" lon="5.78783">
        <ele>1131.9</ele>
        <time>2025-10-05T10:13:26Z</time>
      </trkpt>
      <trkpt lat="43.33414" lon="5.78783">
        <ele>1131.7</ele>
        <time>2025-10-05T10:13:27Z</time>
      </trkpt>
      <trkpt lat="43.33414" lon="5.78783">
        <ele>1131.5</ele>
        <time>2025-10-05T10:13:28Z</time>
      </trkpt>
      <trkpt lat="43.33414" lon="5.78783">
        <ele>1131.5</ele>
        <time>2025-10-05T10:13:29Z</time>
      </trkpt>
      <trkpt lat="43.33414" lon="5.78783">
        <ele>1131.6</ele>
        <time>2025-10-05T10:13:30Z</time>
      </trkpt>
      <trkpt lat="43.33414" lon="5.78783">
        <ele>1131.8</ele>
        <time>2025-10-05T10:13:31Z</time>
      </trkpt>
      <trkpt lat="43.33414" lon="5.78783">
        <ele>1131.8</ele>
        <time>2025-10-05T10:13:32Z</time>
      </trkpt>
      <trkpt lat="43.33414" lon="5.78783">
        <ele>1131.7</ele>
        <time>2025-10-05T10:13:33Z</time>
      </trkpt>
      <trkpt lat="43.33414" lon="5.78783">
        <ele>1131.6</ele>
        <time>2025-10-05T10:13:34Z</time>
      </trkpt>
      <trkpt lat="43.33414" lon="5.78783">
        <ele>1131.5</ele>
        <time>2025-10-05T10:13:35Z</time>
      </trkpt>
      <trkpt lat="43.33413" lon="5.78783">
        <ele>1131.4</ele>
        <time>2025-10-05T10:13:36Z</time>
      </trkpt>
      <trkpt lat="43.33414" lon="5.78783">
        <ele>1131.2</ele>
        <time>2025-10-05T10:13:37Z</time>
      </trkpt>
      <trkpt lat="43.33414" lon="5.78783">
        <ele>1130.9</ele>
        <time>2025-10-05T10:13:38Z</time>
      </trkpt>
      <trkpt lat="43.33414" lon="5.78783">
        <ele>1130.7</ele>
        <time>2025-10-05T10:13:39Z</time>
      </trkpt>
      <trkpt lat="43.33414" lon="5.78783">
        <ele>1130.6</ele>
        <time>2025-10-05T10:13:40Z</time>
      </trkpt>
      <trkpt lat="43.33414" lon="5.78783">
        <ele>1130.5</ele>
        <time>2025-10-05T10:13:41Z</time>
      </trkpt>
      <trkpt lat="43.33414" lon="5.78783">
        <ele>1130.4</ele>
        <time>2025-10-05T10:13:42Z</time>
      </trkpt>
      <trkpt lat="43.33414" lon="5.78783">
        <ele>1130.3</ele>
        <time>2025-10-05T10:13:43Z</time>
      </trkpt>
      <trkpt lat="43.33414" lon="5.78783">
        <ele>1130.3</ele>
        <time>2025-10-05T10:13:44Z</time>
      </trkpt>
      <trkpt lat="43.33414" lon="5.78783">
        <ele>1130.2</ele>
        <time>2025-10-05T10:13:45Z</time>
      </trkpt>
      <trkpt lat="43.33414" lon="5.78783">
        <ele>1130.4</ele>
        <time>2025-10-05T10:13:46Z</time>
      </trkpt>
      <trkpt lat="43.33414" lon="5.78783">
        <ele>1130.5</ele>
        <time>2025-10-05T10:13:47Z</time>
      </trkpt>
      <trkpt lat="43.33414" lon="5.78783">
        <ele>1130.4</ele>
        <time>2025-10-05T10:13:48Z</time>
      </trkpt>
      <trkpt lat="43.33414" lon="5.78783">
        <ele>1130.3</ele>
        <time>2025-10-05T10:13:49Z</time>
      </trkpt>
      <trkpt lat="43.33414" lon="5.78783">
        <ele>1130.1</ele>
        <time>2025-10-05T10:13:50Z</time>
      </trkpt>
      <trkpt lat="43.33414" lon="5.78783">
        <ele>1130</ele>
        <time>2025-10-05T10:13:51Z</time>
      </trkpt>
      <trkpt lat="43.33414" lon="5.78783">
        <ele>1129.9</ele>
        <time>2025-10-05T10:13:52Z</time>
      </trkpt>
      <trkpt lat="43.33414" lon="5.78783">
        <ele>1129.9</ele>
        <time>2025-10-05T10:13:53Z</time>
      </trkpt>
      <trkpt lat="43.33414" lon="5.78783">
        <ele>1129.8</ele>
        <time>2025-10-05T10:13:54Z</time>
      </trkpt>
      <trkpt lat="43.33414" lon="5.78783">
        <ele>1129.8</ele>
        <time>2025-10-05T10:13:55Z</time>
      </trkpt>
      <trkpt lat="43.33414" lon="5.78783">
        <ele>1129.9</ele>
        <time>2025-10-05T10:13:56Z</time>
      </trkpt>
      <trkpt lat="43.33414" lon="5.78783">
        <ele>1129.9</ele>
        <time>2025-10-05T10:13:57Z</time>
      </trkpt>
      <trkpt lat="43.33414" lon="5.78783">
        <ele>1129.9</ele>
        <time>2025-10-05T10:13:58Z</time>
      </trkpt>
      <trkpt lat="43.33414" lon="5.78783">
        <ele>1129.9</ele>
        <time>2025-10-05T10:13:59Z</time>
      </trkpt>
      <trkpt lat="43.33414" lon="5.78783">
        <ele>1130</ele>
        <time>2025-10-05T10:14:00Z</time>
      </trkpt>
      <trkpt lat="43.33414" lon="5.78783">
        <ele>1130</ele>
        <time>2025-10-05T10:14:01Z</time>
      </trkpt>
      <trkpt lat="43.33414" lon="5.78783">
        <ele>1130</ele>
        <time>2025-10-05T10:14:02Z</time>
      </trkpt>
      <trkpt lat="43.33414" lon="5.78783">
        <ele>1130</ele>
        <time>2025-10-05T10:14:03Z</time>
      </trkpt>
      <trkpt lat="43.33414" lon="5.78783">
        <ele>1129.8</ele>
        <time>2025-10-05T10:14:04Z</time>
      </trkpt>
      <trkpt lat="43.33414" lon="5.78783">
        <ele>1129.7</ele>
        <time>2025-10-05T10:14:05Z</time>
      </trkpt>
      <trkpt lat="43.33414" lon="5.78783">
        <ele>1129.6</ele>
        <time>2025-10-05T10:14:06Z</time>
      </trkpt>
      <trkpt lat="43.33414" lon="5.78783">
        <ele>1129.6</ele>
        <time>2025-10-05T10:14:07Z</time>
      </trkpt>
      <trkpt lat="43.33414" lon="5.78783">
        <ele>1129.5</ele>
        <time>2025-10-05T10:14:08Z</time>
      </trkpt>
      <trkpt lat="43.33414" lon="5.78783">
        <ele>1129.5</ele>
        <time>2025-10-05T10:14:09Z</time>
      </trkpt>
      <trkpt lat="43.33414" lon="5.78783">
        <ele>1129.6</ele>
        <time>2025-10-05T10:14:10Z</time>
      </trkpt>
      <trkpt lat="43.33414" lon="5.78783">
        <ele>1129.7</ele>
        <time>2025-10-05T10:14:11Z</time>
      </trkpt>
      <trkpt lat="43.33414" lon="5.78783">
        <ele>1129.6</ele>
        <time>2025-10-05T10:14:12Z</time>
      </trkpt>
      <trkpt lat="43.33414" lon="5.78783">
        <ele>1129.6</ele>
        <time>2025-10-05T10:14:13Z</time>
      </trkpt>
      <trkpt lat="43.33414" lon="5.78783">
        <ele>1129.6</ele>
        <time>2025-10-05T10:14:14Z</time>
      </trkpt>
      <trkpt lat="43.33414" lon="5.78783">
        <ele>1129.7</ele>
        <time>2025-10-05T10:14:15Z</time>
      </trkpt>
      <trkpt lat="43.33414" lon="5.78783">
        <ele>1129.8</ele>
        <time>2025-10-05T10:14:16Z</time>
      </trkpt>
      <trkpt lat="43.33414" lon="5.78783">
        <ele>1130</ele>
        <time>2025-10-05T10:14:17Z</time>
      </trkpt>
      <trkpt lat="43.33414" lon="5.78783">
        <ele>1130.1</ele>
        <time>2025-10-05T10:14:18Z</time>
      </trkpt>
      <trkpt lat="43.33414" lon="5.78783">
        <ele>1130.2</ele>
        <time>2025-10-05T10:14:19Z</time>
      </trkpt>
      <trkpt lat="43.33414" lon="5.78783">
        <ele>1130.3</ele>
        <time>2025-10-05T10:14:20Z</time>
      </trkpt>
      <trkpt lat="43.33414" lon="5.78783">
        <ele>1130.2</ele>
        <time>2025-10-05T10:14:21Z</time>
      </trkpt>
      <trkpt lat="43.33414" lon="5.78783">
        <ele>1130.1</ele>
        <time>2025-10-05T10:14:22Z</time>
      </trkpt>
      <trkpt lat="43.33414" lon="5.78783">
        <ele>1130</ele>
        <time>2025-10-05T10:14:23Z</time>
      </trkpt>
      <trkpt lat="43.33414" lon="5.78783">
        <ele>1129.9</ele>
        <time>2025-10-05T10:14:24Z</time>
      </trkpt>
      <trkpt lat="43.33414" lon="5.78783">
        <ele>1129.7</ele>
        <time>2025-10-05T10:14:25Z</time>
      </trkpt>
      <trkpt lat="43.33414" lon="5.78783">
        <ele>1129.8</ele>
        <time>2025-10-05T10:14:26Z</time>
      </trkpt>
      <trkpt lat="43.33414" lon="5.78783">
        <ele>1129.9</ele>
        <time>2025-10-05T10:14:27Z</time>
      </trkpt>
      <trkpt lat="43.33414" lon="5.78783">
        <ele>1129.9</ele>
        <time>2025-10-05T10:14:28Z</time>
      </trkpt>
      <trkpt lat="43.33414" lon="5.78783">
        <ele>1129.9</ele>
        <time>2025-10-05T10:14:29Z</time>
      </trkpt>
      <trkpt lat="43.33414" lon="5.78783">
        <ele>1130</ele>
        <time>2025-10-05T10:14:30Z</time>
      </trkpt>
      <trkpt lat="43.33414" lon="5.78783">
        <ele>1130</ele>
        <time>2025-10-05T10:14:31Z</time>
      </trkpt>
      <trkpt lat="43.33414" lon="5.78783">
        <ele>1130.1</ele>
        <time>2025-10-05T10:14:32Z</time>
      </trkpt>
      <trkpt lat="43.33414" lon="5.78783">
        <ele>1130.1</ele>
        <time>2025-10-05T10:14:33Z</time>
      </trkpt>
      <trkpt lat="43.33414" lon="5.78783">
        <ele>1130</ele>
        <time>2025-10-05T10:14:34Z</time>
      </trkpt>
      <trkpt lat="43.33414" lon="5.78783">
        <ele>1130.1</ele>
        <time>2025-10-05T10:14:35Z</time>
      </trkpt>
      <trkpt lat="43.33414" lon="5.78783">
        <ele>1130.2</ele>
        <time>2025-10-05T10:14:36Z</time>
      </trkpt>
      <trkpt lat="43.33414" lon="5.78783">
        <ele>1130.1</ele>
        <time>2025-10-05T10:14:37Z</time>
      </trkpt>
      <trkpt lat="43.33414" lon="5.78783">
        <ele>1130.1</ele>
        <time>2025-10-05T10:14:38Z</time>
      </trkpt>
      <trkpt lat="43.33414" lon="5.78783">
        <ele>1130.1</ele>
        <time>2025-10-05T10:14:39Z</time>
      </trkpt>
      <trkpt lat="43.33414" lon="5.78783">
        <ele>1130.1</ele>
        <time>2025-10-05T10:14:40Z</time>
      </trkpt>
      <trkpt lat="43.33414" lon="5.78783">
        <ele>1130.3</ele>
        <time>2025-10-05T10:14:41Z</time>
      </trkpt>
      <trkpt lat="43.33414" lon="5.78783">
        <ele>1130.4</ele>
        <time>2025-10-05T10:14:42Z</time>
      </trkpt>
      <trkpt lat="43.33414" lon="5.78783">
        <ele>1130.5</ele>
        <time>2025-10-05T10:14:43Z</time>
      </trkpt>
      <trkpt lat="43.33414" lon="5.78783">
        <ele>1130.9</ele>
        <time>2025-10-05T10:14:44Z</time>
      </trkpt>
      <trkpt lat="43.33414" lon="5.78783">
        <ele>1131</ele>
        <time>2025-10-05T10:14:45Z</time>
      </trkpt>
      <trkpt lat="43.33414" lon="5.78783">
        <ele>1131</ele>
        <time>2025-10-05T10:14:46Z</time>
      </trkpt>
      <trkpt lat="43.33414" lon="5.78783">
        <ele>1131.2</ele>
        <time>2025-10-05T10:14:47Z</time>
      </trkpt>
      <trkpt lat="43.33414" lon="5.78783">
        <ele>1131.3</ele>
        <time>2025-10-05T10:14:48Z</time>
      </trkpt>
      <trkpt lat="43.33414" lon="5.78783">
        <ele>1131.6</ele>
        <time>2025-10-05T10:14:49Z</time>
      </trkpt>
      <trkpt lat="43.33414" lon="5.78783">
        <ele>1131.8</ele>
        <time>2025-10-05T10:14:50Z</time>
      </trkpt>
      <trkpt lat="43.33414" lon="5.78783">
        <ele>1132</ele>
        <time>2025-10-05T10:14:51Z</time>
      </trkpt>
      <trkpt lat="43.33414" lon="5.78783">
        <ele>1132</ele>
        <time>2025-10-05T10:14:52Z</time>
      </trkpt>
      <trkpt lat="43.33414" lon="5.78783">
        <ele>1131.8</ele>
        <time>2025-10-05T10:14:53Z</time>
      </trkpt>
      <trkpt lat="43.33414" lon="5.78783">
        <ele>1131.6</ele>
        <time>2025-10-05T10:14:54Z</time>
      </trkpt>
      <trkpt lat="43.33414" lon="5.78783">
        <ele>1131.5</ele>
        <time>2025-10-05T10:14:55Z</time>
      </trkpt>
      <trkpt lat="43.33414" lon="5.78783">
        <ele>1131.5</ele>
        <time>2025-10-05T10:14:56Z</time>
      </trkpt>
      <trkpt lat="43.33414" lon="5.78783">
        <ele>1131.3</ele>
        <time>2025-10-05T10:14:57Z</time>
      </trkpt>
      <trkpt lat="43.33414" lon="5.78782">
        <ele>1131.4</ele>
        <time>2025-10-05T10:14:58Z</time>
      </trkpt>
      <trkpt lat="43.33414" lon="5.78782">
        <ele>1131.4</ele>
        <time>2025-10-05T10:14:59Z</time>
      </trkpt>
      <trkpt lat="43.33414" lon="5.78782">
        <ele>1131.6</ele>
        <time>2025-10-05T10:15:00Z</time>
      </trkpt>
      <trkpt lat="43.33414" lon="5.78782">
        <ele>1131.8</ele>
        <time>2025-10-05T10:15:01Z</time>
      </trkpt>
      <trkpt lat="43.33414" lon="5.78782">
        <ele>1131.8</ele>
        <time>2025-10-05T10:15:02Z</time>
      </trkpt>
      <trkpt lat="43.33414" lon="5.78782">
        <ele>1132.1</ele>
        <time>2025-10-05T10:15:03Z</time>
      </trkpt>
      <trkpt lat="43.33414" lon="5.78782">
        <ele>1132.3</ele>
        <time>2025-10-05T10:15:04Z</time>
      </trkpt>
      <trkpt lat="43.33414" lon="5.78782">
        <ele>1132.2</ele>
        <time>2025-10-05T10:15:05Z</time>
      </trkpt>
      <trkpt lat="43.33414" lon="5.78782">
        <ele>1131.9</ele>
        <time>2025-10-05T10:15:06Z</time>
      </trkpt>
      <trkpt lat="43.33414" lon="5.78782">
        <ele>1131.8</ele>
        <time>2025-10-05T10:15:07Z</time>
      </trkpt>
      <trkpt lat="43.33414" lon="5.78782">
        <ele>1131.6</ele>
        <time>2025-10-05T10:15:08Z</time>
      </trkpt>
      <trkpt lat="43.33414" lon="5.78782">
        <ele>1131.2</ele>
        <time>2025-10-05T10:15:09Z</time>
      </trkpt>
      <trkpt lat="43.33414" lon="5.78782">
        <ele>1131.2</ele>
        <time>2025-10-05T10:15:10Z</time>
      </trkpt>
      <trkpt lat="43.33414" lon="5.78782">
        <ele>1131</ele>
        <time>2025-10-05T10:15:11Z</time>
      </trkpt>
      <trkpt lat="43.33414" lon="5.78782">
        <ele>1130.9</ele>
        <time>2025-10-05T10:15:12Z</time>
      </trkpt>
      <trkpt lat="43.33414" lon="5.78782">
        <ele>1130.6</ele>
        <time>2025-10-05T10:15:13Z</time>
      </trkpt>
      <trkpt lat="43.33414" lon="5.78782">
        <ele>1130.4</ele>
        <time>2025-10-05T10:15:14Z</time>
      </trkpt>
      <trkpt lat="43.33414" lon="5.78782">
        <ele>1130.3</ele>
        <time>2025-10-05T10:15:15Z</time>
      </trkpt>
      <trkpt lat="43.33414" lon="5.78782">
        <ele>1130.2</ele>
        <time>2025-10-05T10:15:16Z</time>
      </trkpt>
      <trkpt lat="43.33414" lon="5.78782">
        <ele>1130.1</ele>
        <time>2025-10-05T10:15:17Z</time>
      </trkpt>
      <trkpt lat="43.33414" lon="5.78782">
        <ele>1130</ele>
        <time>2025-10-05T10:15:18Z</time>
      </trkpt>
      <trkpt lat="43.33414" lon="5.78782">
        <ele>1129.9</ele>
        <time>2025-10-05T10:15:19Z</time>
      </trkpt>
      <trkpt lat="43.33414" lon="5.78782">
        <ele>1129.7</ele>
        <time>2025-10-05T10:15:20Z</time>
      </trkpt>
      <trkpt lat="43.33414" lon="5.78782">
        <ele>1129.5</ele>
        <time>2025-10-05T10:15:21Z</time>
      </trkpt>
      <trkpt lat="43.33414" lon="5.78782">
        <ele>1129.4</ele>
        <time>2025-10-05T10:15:22Z</time>
      </trkpt>
      <trkpt lat="43.33414" lon="5.78782">
        <ele>1129.6</ele>
        <time>2025-10-05T10:15:23Z</time>
      </trkpt>
      <trkpt lat="43.33414" lon="5.78782">
        <ele>1129.7</ele>
        <time>2025-10-05T10:15:24Z</time>
      </trkpt>
      <trkpt lat="43.33414" lon="5.78782">
        <ele>1129.7</ele>
        <time>2025-10-05T10:15:25Z</time>
      </trkpt>
      <trkpt lat="43.33414" lon="5.78782">
        <ele>1129.8</ele>
        <time>2025-10-05T10:15:26Z</time>
      </trkpt>
      <trkpt lat="43.33414" lon="5.78782">
        <ele>1129.8</ele>
        <time>2025-10-05T10:15:27Z</time>
      </trkpt>
      <trkpt lat="43.33414" lon="5.78782">
        <ele>1129.8</ele>
        <time>2025-10-05T10:15:28Z</time>
      </trkpt>
      <trkpt lat="43.33414" lon="5.78782">
        <ele>1129.9</ele>
        <time>2025-10-05T10:15:29Z</time>
      </trkpt>
      <trkpt lat="43.33414" lon="5.78782">
        <ele>1129.7</ele>
        <time>2025-10-05T10:15:30Z</time>
      </trkpt>
      <trkpt lat="43.33414" lon="5.78782">
        <ele>1129.6</ele>
        <time>2025-10-05T10:15:31Z</time>
      </trkpt>
      <trkpt lat="43.33414" lon="5.78782">
        <ele>1129.5</ele>
        <time>2025-10-05T10:15:32Z</time>
      </trkpt>
      <trkpt lat="43.33414" lon="5.78782">
        <ele>1129.5</ele>
        <time>2025-10-05T10:15:33Z</time>
      </trkpt>
      <trkpt lat="43.33414" lon="5.78782">
        <ele>1129.7</ele>
        <time>2025-10-05T10:15:34Z</time>
      </trkpt>
      <trkpt lat="43.33414" lon="5.78782">
        <ele>1129.7</ele>
        <time>2025-10-05T10:15:35Z</time>
      </trkpt>
      <trkpt lat="43.33414" lon="5.78782">
        <ele>1129.7</ele>
        <time>2025-10-05T10:15:36Z</time>
      </trkpt>
      <trkpt lat="43.33414" lon="5.78782">
        <ele>1129.7</ele>
        <time>2025-10-05T10:15:37Z</time>
      </trkpt>
      <trkpt lat="43.33414" lon="5.78782">
        <ele>1129.9</ele>
        <time>2025-10-05T10:15:38Z</time>
      </trkpt>
      <trkpt lat="43.33414" lon="5.78782">
        <ele>1129.9</ele>
        <time>2025-10-05T10:15:39Z</time>
      </trkpt>
      <trkpt lat="43.33414" lon="5.78782">
        <ele>1129.7</ele>
        <time>2025-10-05T10:15:40Z</time>
      </trkpt>
      <trkpt lat="43.33414" lon="5.78781">
        <ele>1129.5</ele>
        <time>2025-10-05T10:15:41Z</time>
      </trkpt>
      <trkpt lat="43.33414" lon="5.78781">
        <ele>1129.3</ele>
        <time>2025-10-05T10:15:42Z</time>
      </trkpt>
      <trkpt lat="43.33414" lon="5.78781">
        <ele>1129.4</ele>
        <time>2025-10-05T10:15:43Z</time>
      </trkpt>
      <trkpt lat="43.33414" lon="5.78781">
        <ele>1129.5</ele>
        <time>2025-10-05T10:15:44Z</time>
      </trkpt>
      <trkpt lat="43.33414" lon="5.78781">
        <ele>1129.6</ele>
        <time>2025-10-05T10:15:45Z</time>
      </trkpt>
      <trkpt lat="43.33414" lon="5.78781">
        <ele>1129.6</ele>
        <time>2025-10-05T10:15:46Z</time>
      </trkpt>
      <trkpt lat="43.33414" lon="5.78781">
        <ele>1129.6</ele>
        <time>2025-10-05T10:15:47Z</time>
      </trkpt>
      <trkpt lat="43.33414" lon="5.78781">
        <ele>1129.6</ele>
        <time>2025-10-05T10:15:48Z</time>
      </trkpt>
      <trkpt lat="43.33414" lon="5.78781">
        <ele>1129.6</ele>
        <time>2025-10-05T10:15:49Z</time>
      </trkpt>
      <trkpt lat="43.33414" lon="5.78781">
        <ele>1129.4</ele>
        <time>2025-10-05T10:15:50Z</time>
      </trkpt>
      <trkpt lat="43.33414" lon="5.78781">
        <ele>1129.2</ele>
        <time>2025-10-05T10:15:51Z</time>
      </trkpt>
      <trkpt lat="43.33414" lon="5.78781">
        <ele>1129.2</ele>
        <time>2025-10-05T10:15:52Z</time>
      </trkpt>
      <trkpt lat="43.33414" lon="5.78781">
        <ele>1129.3</ele>
        <time>2025-10-05T10:15:53Z</time>
      </trkpt>
      <trkpt lat="43.33414" lon="5.78781">
        <ele>1129.5</ele>
        <time>2025-10-05T10:15:54Z</time>
      </trkpt>
      <trkpt lat="43.33414" lon="5.78781">
        <ele>1129.7</ele>
        <time>2025-10-05T10:15:55Z</time>
      </trkpt>
      <trkpt lat="43.33414" lon="5.78781">
        <ele>1129.6</ele>
        <time>2025-10-05T10:15:56Z</time>
      </trkpt>
      <trkpt lat="43.33414" lon="5.78781">
        <ele>1129.5</ele>
        <time>2025-10-05T10:15:57Z</time>
      </trkpt>
      <trkpt lat="43.33414" lon="5.78781">
        <ele>1129.3</ele>
        <time>2025-10-05T10:15:58Z</time>
      </trkpt>
      <trkpt lat="43.33414" lon="5.78781">
        <ele>1129.4</ele>
        <time>2025-10-05T10:15:59Z</time>
      </trkpt>
      <trkpt lat="43.33414" lon="5.78781">
        <ele>1129.6</ele>
        <time>2025-10-05T10:16:00Z</time>
      </trkpt>
      <trkpt lat="43.33414" lon="5.78781">
        <ele>1129.8</ele>
        <time>2025-10-05T10:16:01Z</time>
      </trkpt>
      <trkpt lat="43.33414" lon="5.78781">
        <ele>1129.8</ele>
        <time>2025-10-05T10:16:02Z</time>
      </trkpt>
      <trkpt lat="43.33414" lon="5.78781">
        <ele>1129.8</ele>
        <time>2025-10-05T10:16:03Z</time>
      </trkpt>
      <trkpt lat="43.33414" lon="5.78781">
        <ele>1129.8</ele>
        <time>2025-10-05T10:16:04Z</time>
      </trkpt>
      <trkpt lat="43.33414" lon="5.78781">
        <ele>1129.7</ele>
        <time>2025-10-05T10:16:05Z</time>
      </trkpt>
      <trkpt lat="43.33414" lon="5.78781">
        <ele>1129.8</ele>
        <time>2025-10-05T10:16:06Z</time>
      </trkpt>
      <trkpt lat="43.33414" lon="5.78781">
        <ele>1129.9</ele>
        <time>2025-10-05T10:16:07Z</time>
      </trkpt>
      <trkpt lat="43.33414" lon="5.78781">
        <ele>1130</ele>
        <time>2025-10-05T10:16:08Z</time>
      </trkpt>
      <trkpt lat="43.33414" lon="5.78781">
        <ele>1130.1</ele>
        <time>2025-10-05T10:16:09Z</time>
      </trkpt>
      <trkpt lat="43.33414" lon="5.78781">
        <ele>1130.2</ele>
        <time>2025-10-05T10:16:10Z</time>
      </trkpt>
      <trkpt lat="43.33414" lon="5.78781">
        <ele>1130.3</ele>
        <time>2025-10-05T10:16:11Z</time>
      </trkpt>
      <trkpt lat="43.33414" lon="5.78781">
        <ele>1130.3</ele>
        <time>2025-10-05T10:16:12Z</time>
      </trkpt>
      <trkpt lat="43.33414" lon="5.78781">
        <ele>1130.2</ele>
        <time>2025-10-05T10:16:13Z</time>
      </trkpt>
      <trkpt lat="43.33414" lon="5.78781">
        <ele>1130.1</ele>
        <time>2025-10-05T10:16:14Z</time>
      </trkpt>
      <trkpt lat="43.33414" lon="5.78781">
        <ele>1130.1</ele>
        <time>2025-10-05T10:16:15Z</time>
      </trkpt>
      <trkpt lat="43.33414" lon="5.78782">
        <ele>1129.8</ele>
        <time>2025-10-05T10:16:16Z</time>
      </trkpt>
      <trkpt lat="43.33414" lon="5.78782">
        <ele>1129.7</ele>
        <time>2025-10-05T10:16:17Z</time>
      </trkpt>
      <trkpt lat="43.33414" lon="5.78782">
        <ele>1129.7</ele>
        <time>2025-10-05T10:16:18Z</time>
      </trkpt>
      <trkpt lat="43.33414" lon="5.78782">
        <ele>1129.8</ele>
        <time>2025-10-05T10:16:19Z</time>
      </trkpt>
      <trkpt lat="43.33415" lon="5.78781">
        <ele>1129.8</ele>
        <time>2025-10-05T10:16:20Z</time>
      </trkpt>
      <trkpt lat="43.33415" lon="5.78781">
        <ele>1129.8</ele>
        <time>2025-10-05T10:16:21Z</time>
      </trkpt>
      <trkpt lat="43.33415" lon="5.78781">
        <ele>1130.1</ele>
        <time>2025-10-05T10:16:22Z</time>
      </trkpt>
      <trkpt lat="43.33415" lon="5.7878">
        <ele>1130.1</ele>
        <time>2025-10-05T10:16:23Z</time>
      </trkpt>
      <trkpt lat="43.33415" lon="5.78781">
        <ele>1130.2</ele>
        <time>2025-10-05T10:16:24Z</time>
      </trkpt>
      <trkpt lat="43.33415" lon="5.78781">
        <ele>1130.2</ele>
        <time>2025-10-05T10:16:25Z</time>
      </trkpt>
      <trkpt lat="43.33415" lon="5.78781">
        <ele>1130.3</ele>
        <time>2025-10-05T10:16:26Z</time>
      </trkpt>
      <trkpt lat="43.33414" lon="5.78781">
        <ele>1130.4</ele>
        <time>2025-10-05T10:16:27Z</time>
      </trkpt>
      <trkpt lat="43.33414" lon="5.7878">
        <ele>1130.3</ele>
        <time>2025-10-05T10:16:28Z</time>
      </trkpt>
      <trkpt lat="43.33414" lon="5.7878">
        <ele>1130.4</ele>
        <time>2025-10-05T10:16:29Z</time>
      </trkpt>
      <trkpt lat="43.33414" lon="5.7878">
        <ele>1130.5</ele>
        <time>2025-10-05T10:16:30Z</time>
      </trkpt>
      <trkpt lat="43.33414" lon="5.7878">
        <ele>1130.4</ele>
        <time>2025-10-05T10:16:31Z</time>
      </trkpt>
      <trkpt lat="43.33414" lon="5.78781">
        <ele>1130.4</ele>
        <time>2025-10-05T10:16:32Z</time>
      </trkpt>
      <trkpt lat="43.33414" lon="5.7878">
        <ele>1130.2</ele>
        <time>2025-10-05T10:16:33Z</time>
      </trkpt>
      <trkpt lat="43.33415" lon="5.78781">
        <ele>1130.1</ele>
        <time>2025-10-05T10:16:34Z</time>
      </trkpt>
      <trkpt lat="43.33415" lon="5.78781">
        <ele>1130</ele>
        <time>2025-10-05T10:16:35Z</time>
      </trkpt>
      <trkpt lat="43.33415" lon="5.78781">
        <ele>1130</ele>
        <time>2025-10-05T10:16:36Z</time>
      </trkpt>
      <trkpt lat="43.33415" lon="5.78781">
        <ele>1130.3</ele>
        <time>2025-10-05T10:16:37Z</time>
      </trkpt>
      <trkpt lat="43.33415" lon="5.78781">
        <ele>1130.3</ele>
        <time>2025-10-05T10:16:38Z</time>
      </trkpt>
      <trkpt lat="43.33415" lon="5.78781">
        <ele>1130.2</ele>
        <time>2025-10-05T10:16:39Z</time>
      </trkpt>
      <trkpt lat="43.33415" lon="5.78781">
        <ele>1130.3</ele>
        <time>2025-10-05T10:16:40Z</time>
      </trkpt>
      <trkpt lat="43.33415" lon="5.78781">
        <ele>1130.6</ele>
        <time>2025-10-05T10:16:41Z</time>
      </trkpt>
      <trkpt lat="43.33415" lon="5.78781">
        <ele>1130.7</ele>
        <time>2025-10-05T10:16:42Z</time>
      </trkpt>
      <trkpt lat="43.33415" lon="5.78781">
        <ele>1130.9</ele>
        <time>2025-10-05T10:16:43Z</time>
      </trkpt>
      <trkpt lat="43.33415" lon="5.78781">
        <ele>1131.1</ele>
        <time>2025-10-05T10:16:44Z</time>
      </trkpt>
      <trkpt lat="43.33415" lon="5.78781">
        <ele>1131.1</ele>
        <time>2025-10-05T10:16:45Z</time>
      </trkpt>
      <trkpt lat="43.33415" lon="5.78781">
        <ele>1130.9</ele>
        <time>2025-10-05T10:16:46Z</time>
      </trkpt>
      <trkpt lat="43.33415" lon="5.78781">
        <ele>1130.8</ele>
        <time>2025-10-05T10:16:47Z</time>
      </trkpt>
      <trkpt lat="43.33415" lon="5.7878">
        <ele>1131</ele>
        <time>2025-10-05T10:16:48Z</time>
      </trkpt>
      <trkpt lat="43.33414" lon="5.7878">
        <ele>1131</ele>
        <time>2025-10-05T10:16:49Z</time>
      </trkpt>
      <trkpt lat="43.33414" lon="5.7878">
        <ele>1131</ele>
        <time>2025-10-05T10:16:50Z</time>
      </trkpt>
      <trkpt lat="43.33414" lon="5.7878">
        <ele>1131</ele>
        <time>2025-10-05T10:16:51Z</time>
      </trkpt>
      <trkpt lat="43.33414" lon="5.7878">
        <ele>1130.9</ele>
        <time>2025-10-05T10:16:52Z</time>
      </trkpt>
      <trkpt lat="43.33414" lon="5.7878">
        <ele>1130.7</ele>
        <time>2025-10-05T10:16:53Z</time>
      </trkpt>
      <trkpt lat="43.33414" lon="5.7878">
        <ele>1130.4</ele>
        <time>2025-10-05T10:16:54Z</time>
      </trkpt>
      <trkpt lat="43.33414" lon="5.7878">
        <ele>1130.3</ele>
        <time>2025-10-05T10:16:55Z</time>
      </trkpt>
      <trkpt lat="43.33414" lon="5.7878">
        <ele>1130.2</ele>
        <time>2025-10-05T10:16:56Z</time>
      </trkpt>
      <trkpt lat="43.33414" lon="5.7878">
        <ele>1130.3</ele>
        <time>2025-10-05T10:16:57Z</time>
      </trkpt>
      <trkpt lat="43.33414" lon="5.78779">
        <ele>1130.5</ele>
        <time>2025-10-05T10:16:58Z</time>
      </trkpt>
      <trkpt lat="43.33414" lon="5.78779">
        <ele>1130.8</ele>
        <time>2025-10-05T10:16:59Z</time>
      </trkpt>
      <trkpt lat="43.33414" lon="5.7878">
        <ele>1131.1</ele>
        <time>2025-10-05T10:17:00Z</time>
      </trkpt>
      <trkpt lat="43.33415" lon="5.7878">
        <ele>1131.4</ele>
        <time>2025-10-05T10:17:01Z</time>
      </trkpt>
      <trkpt lat="43.33415" lon="5.78779">
        <ele>1131.2</ele>
        <time>2025-10-05T10:17:02Z</time>
      </trkpt>
      <trkpt lat="43.33415" lon="5.78779">
        <ele>1131.5</ele>
        <time>2025-10-05T10:17:03Z</time>
      </trkpt>
      <trkpt lat="43.33415" lon="5.78778">
        <ele>1131.8</ele>
        <time>2025-10-05T10:17:04Z</time>
      </trkpt>
      <trkpt lat="43.33414" lon="5.78777">
        <ele>1132.1</ele>
        <time>2025-10-05T10:17:05Z</time>
      </trkpt>
      <trkpt lat="43.33414" lon="5.78777">
        <ele>1132</ele>
        <time>2025-10-05T10:17:06Z</time>
      </trkpt>
      <trkpt lat="43.33414" lon="5.78776">
        <ele>1131.9</ele>
        <time>2025-10-05T10:17:07Z</time>
      </trkpt>
      <trkpt lat="43.33414" lon="5.78775">
        <ele>1131.9</ele>
        <time>2025-10-05T10:17:08Z</time>
      </trkpt>
      <trkpt lat="43.33414" lon="5.78772">
        <ele>1132.1</ele>
        <time>2025-10-05T10:17:09Z</time>
      </trkpt>
      <trkpt lat="43.33414" lon="5.7877">
        <ele>1132.5</ele>
        <time>2025-10-05T10:17:10Z</time>
      </trkpt>
      <trkpt lat="43.33414" lon="5.78769">
        <ele>1132.8</ele>
        <time>2025-10-05T10:17:11Z</time>
      </trkpt>
      <trkpt lat="43.33413" lon="5.78768">
        <ele>1133.3</ele>
        <time>2025-10-05T10:17:12Z</time>
      </trkpt>
      <trkpt lat="43.33413" lon="5.78767">
        <ele>1133.4</ele>
        <time>2025-10-05T10:17:13Z</time>
      </trkpt>
      <trkpt lat="43.33413" lon="5.78765">
        <ele>1133.6</ele>
        <time>2025-10-05T10:17:14Z</time>
      </trkpt>
      <trkpt lat="43.33413" lon="5.78764">
        <ele>1134.2</ele>
        <time>2025-10-05T10:17:15Z</time>
      </trkpt>
      <trkpt lat="43.33412" lon="5.78762">
        <ele>1134.1</ele>
        <time>2025-10-05T10:17:16Z</time>
      </trkpt>
      <trkpt lat="43.33412" lon="5.78761">
        <ele>1134</ele>
        <time>2025-10-05T10:17:17Z</time>
      </trkpt>
      <trkpt lat="43.33412" lon="5.7876">
        <ele>1133.9</ele>
        <time>2025-10-05T10:17:18Z</time>
      </trkpt>
      <trkpt lat="43.33412" lon="5.7876">
        <ele>1133.8</ele>
        <time>2025-10-05T10:17:19Z</time>
      </trkpt>
      <trkpt lat="43.33411" lon="5.78759">
        <ele>1133.9</ele>
        <time>2025-10-05T10:17:20Z</time>
      </trkpt>
      <trkpt lat="43.33411" lon="5.78758">
        <ele>1133.8</ele>
        <time>2025-10-05T10:17:21Z</time>
      </trkpt>
      <trkpt lat="43.3341" lon="5.78756">
        <ele>1133.6</ele>
        <time>2025-10-05T10:17:22Z</time>
      </trkpt>
      <trkpt lat="43.33409" lon="5.78755">
        <ele>1133.5</ele>
        <time>2025-10-05T10:17:23Z</time>
      </trkpt>
      <trkpt lat="43.33409" lon="5.78754">
        <ele>1133.6</ele>
        <time>2025-10-05T10:17:24Z</time>
      </trkpt>
      <trkpt lat="43.33408" lon="5.78753">
        <ele>1135</ele>
        <time>2025-10-05T10:17:25Z</time>
      </trkpt>
      <trkpt lat="43.33408" lon="5.78753">
        <ele>1135.6</ele>
        <time>2025-10-05T10:17:26Z</time>
      </trkpt>
      <trkpt lat="43.33407" lon="5.78752">
        <ele>1135.6</ele>
        <time>2025-10-05T10:17:27Z</time>
      </trkpt>
      <trkpt lat="43.33407" lon="5.78751">
        <ele>1135.5</ele>
        <time>2025-10-05T10:17:28Z</time>
      </trkpt>
      <trkpt lat="43.33407" lon="5.78751">
        <ele>1135.8</ele>
        <time>2025-10-05T10:17:29Z</time>
      </trkpt>
      <trkpt lat="43.33406" lon="5.7875">
        <ele>1136.1</ele>
        <time>2025-10-05T10:17:30Z</time>
      </trkpt>
      <trkpt lat="43.33406" lon="5.78749">
        <ele>1136.1</ele>
        <time>2025-10-05T10:17:31Z</time>
      </trkpt>
      <trkpt lat="43.33406" lon="5.78748">
        <ele>1135.9</ele>
        <time>2025-10-05T10:17:32Z</time>
      </trkpt>
      <trkpt lat="43.33405" lon="5.78747">
        <ele>1135.7</ele>
        <time>2025-10-05T10:17:33Z</time>
      </trkpt>
      <trkpt lat="43.33405" lon="5.78746">
        <ele>1135.4</ele>
        <time>2025-10-05T10:17:34Z</time>
      </trkpt>
      <trkpt lat="43.33404" lon="5.78746">
        <ele>1135.5</ele>
        <time>2025-10-05T10:17:35Z</time>
      </trkpt>
      <trkpt lat="43.33404" lon="5.78745">
        <ele>1135.5</ele>
        <time>2025-10-05T10:17:36Z</time>
      </trkpt>
      <trkpt lat="43.33403" lon="5.78744">
        <ele>1135.8</ele>
        <time>2025-10-05T10:17:37Z</time>
      </trkpt>
      <trkpt lat="43.33403" lon="5.78743">
        <ele>1136</ele>
        <time>2025-10-05T10:17:38Z</time>
      </trkpt>
      <trkpt lat="43.33402" lon="5.78743">
        <ele>1136.2</ele>
        <time>2025-10-05T10:17:39Z</time>
      </trkpt>
      <trkpt lat="43.33402" lon="5.78742">
        <ele>1136.4</ele>
        <time>2025-10-05T10:17:40Z</time>
      </trkpt>
      <trkpt lat="43.33402" lon="5.78741">
        <ele>1136.6</ele>
        <time>2025-10-05T10:17:41Z</time>
      </trkpt>
      <trkpt lat="43.33401" lon="5.7874">
        <ele>1136.8</ele>
        <time>2025-10-05T10:17:42Z</time>
      </trkpt>
      <trkpt lat="43.334" lon="5.78739">
        <ele>1136.8</ele>
        <time>2025-10-05T10:17:43Z</time>
      </trkpt>
      <trkpt lat="43.334" lon="5.78739">
        <ele>1136.8</ele>
        <time>2025-10-05T10:17:44Z</time>
      </trkpt>
      <trkpt lat="43.334" lon="5.78738">
        <ele>1137</ele>
        <time>2025-10-05T10:17:45Z</time>
      </trkpt>
      <trkpt lat="43.33399" lon="5.78737">
        <ele>1137.2</ele>
        <time>2025-10-05T10:17:46Z</time>
      </trkpt>
      <trkpt lat="43.33399" lon="5.78737">
        <ele>1137.5</ele>
        <time>2025-10-05T10:17:47Z</time>
      </trkpt>
      <trkpt lat="43.33398" lon="5.78737">
        <ele>1137.7</ele>
        <time>2025-10-05T10:17:48Z</time>
      </trkpt>
      <trkpt lat="43.33398" lon="5.78736">
        <ele>1137.9</ele>
        <time>2025-10-05T10:17:49Z</time>
      </trkpt>
      <trkpt lat="43.33398" lon="5.78735">
        <ele>1138.3</ele>
        <time>2025-10-05T10:17:50Z</time>
      </trkpt>
      <trkpt lat="43.33397" lon="5.78735">
        <ele>1138.5</ele>
        <time>2025-10-05T10:17:51Z</time>
      </trkpt>
      <trkpt lat="43.33397" lon="5.78734">
        <ele>1138.7</ele>
        <time>2025-10-05T10:17:52Z</time>
      </trkpt>
      <trkpt lat="43.33397" lon="5.78733">
        <ele>1138.9</ele>
        <time>2025-10-05T10:17:53Z</time>
      </trkpt>
      <trkpt lat="43.33397" lon="5.78732">
        <ele>1139.3</ele>
        <time>2025-10-05T10:17:54Z</time>
      </trkpt>
      <trkpt lat="43.33397" lon="5.78731">
        <ele>1139.5</ele>
        <time>2025-10-05T10:17:55Z</time>
      </trkpt>
      <trkpt lat="43.33396" lon="5.78731">
        <ele>1139.7</ele>
        <time>2025-10-05T10:17:56Z</time>
      </trkpt>
      <trkpt lat="43.33396" lon="5.7873">
        <ele>1139.9</ele>
        <time>2025-10-05T10:17:57Z</time>
      </trkpt>
      <trkpt lat="43.33396" lon="5.78729">
        <ele>1140.2</ele>
        <time>2025-10-05T10:17:58Z</time>
      </trkpt>
      <trkpt lat="43.33396" lon="5.78728">
        <ele>1140.4</ele>
        <time>2025-10-05T10:17:59Z</time>
      </trkpt>
      <trkpt lat="43.33396" lon="5.78727">
        <ele>1140.6</ele>
        <time>2025-10-05T10:18:00Z</time>
      </trkpt>
      <trkpt lat="43.33395" lon="5.78726">
        <ele>1140.8</ele>
        <time>2025-10-05T10:18:01Z</time>
      </trkpt>
      <trkpt lat="43.33395" lon="5.78725">
        <ele>1141.2</ele>
        <time>2025-10-05T10:18:02Z</time>
      </trkpt>
      <trkpt lat="43.33395" lon="5.78724">
        <ele>1141.4</ele>
        <time>2025-10-05T10:18:03Z</time>
      </trkpt>
      <trkpt lat="43.33395" lon="5.78724">
        <ele>1141.5</ele>
        <time>2025-10-05T10:18:04Z</time>
      </trkpt>
      <trkpt lat="43.33395" lon="5.78723">
        <ele>1141.7</ele>
        <time>2025-10-05T10:18:05Z</time>
      </trkpt>
      <trkpt lat="43.33394" lon="5.78722">
        <ele>1141.6</ele>
        <time>2025-10-05T10:18:06Z</time>
      </trkpt>
      <trkpt lat="43.33394" lon="5.78721">
        <ele>1141.8</ele>
        <time>2025-10-05T10:18:07Z</time>
      </trkpt>
      <trkpt lat="43.33394" lon="5.78719">
        <ele>1142</ele>
        <time>2025-10-05T10:18:08Z</time>
      </trkpt>
      <trkpt lat="43.33393" lon="5.78719">
        <ele>1142.1</ele>
        <time>2025-10-05T10:18:09Z</time>
      </trkpt>
      <trkpt lat="43.33393" lon="5.78718">
        <ele>1142.3</ele>
        <time>2025-10-05T10:18:10Z</time>
      </trkpt>
      <trkpt lat="43.33393" lon="5.78717">
        <ele>1142.4</ele>
        <time>2025-10-05T10:18:11Z</time>
      </trkpt>
      <trkpt lat="43.33393" lon="5.78716">
        <ele>1142.4</ele>
        <time>2025-10-05T10:18:12Z</time>
      </trkpt>
      <trkpt lat="43.33393" lon="5.78716">
        <ele>1142.7</ele>
        <time>2025-10-05T10:18:13Z</time>
      </trkpt>
      <trkpt lat="43.33392" lon="5.78715">
        <ele>1143.1</ele>
        <time>2025-10-05T10:18:14Z</time>
      </trkpt>
      <trkpt lat="43.33392" lon="5.78714">
        <ele>1143.2</ele>
        <time>2025-10-05T10:18:15Z</time>
      </trkpt>
      <trkpt lat="43.33392" lon="5.78713">
        <ele>1143.2</ele>
        <time>2025-10-05T10:18:16Z</time>
      </trkpt>
      <trkpt lat="43.33391" lon="5.78712">
        <ele>1143.3</ele>
        <time>2025-10-05T10:18:17Z</time>
      </trkpt>
      <trkpt lat="43.33391" lon="5.78711">
        <ele>1143.4</ele>
        <time>2025-10-05T10:18:18Z</time>
      </trkpt>
      <trkpt lat="43.3339" lon="5.7871">
        <ele>1143.3</ele>
        <time>2025-10-05T10:18:19Z</time>
      </trkpt>
      <trkpt lat="43.33389" lon="5.78709">
        <ele>1143.2</ele>
        <time>2025-10-05T10:18:20Z</time>
      </trkpt>
      <trkpt lat="43.33388" lon="5.78708">
        <ele>1143.3</ele>
        <time>2025-10-05T10:18:21Z</time>
      </trkpt>
      <trkpt lat="43.33388" lon="5.78708">
        <ele>1143.2</ele>
        <time>2025-10-05T10:18:22Z</time>
      </trkpt>
      <trkpt lat="43.33388" lon="5.78708">
        <ele>1143.1</ele>
        <time>2025-10-05T10:18:23Z</time>
      </trkpt>
      <trkpt lat="43.33388" lon="5.78708">
        <ele>1143.1</ele>
        <time>2025-10-05T10:18:24Z</time>
      </trkpt>
      <trkpt lat="43.33387" lon="5.78708">
        <ele>1143.1</ele>
        <time>2025-10-05T10:18:25Z</time>
      </trkpt>
      <trkpt lat="43.33387" lon="5.78707">
        <ele>1143</ele>
        <time>2025-10-05T10:18:26Z</time>
      </trkpt>
      <trkpt lat="43.33387" lon="5.78707">
        <ele>1143</ele>
        <time>2025-10-05T10:18:27Z</time>
      </trkpt>
      <trkpt lat="43.33387" lon="5.78707">
        <ele>1142.9</ele>
        <time>2025-10-05T10:18:28Z</time>
      </trkpt>
      <trkpt lat="43.33387" lon="5.78707">
        <ele>1142.8</ele>
        <time>2025-10-05T10:18:29Z</time>
      </trkpt>
      <trkpt lat="43.33387" lon="5.78707">
        <ele>1142.7</ele>
        <time>2025-10-05T10:18:30Z</time>
      </trkpt>
      <trkpt lat="43.33387" lon="5.78707">
        <ele>1142.6</ele>
        <time>2025-10-05T10:18:31Z</time>
      </trkpt>
      <trkpt lat="43.33386" lon="5.78707">
        <ele>1142.5</ele>
        <time>2025-10-05T10:18:32Z</time>
      </trkpt>
      <trkpt lat="43.33386" lon="5.78707">
        <ele>1142.6</ele>
        <time>2025-10-05T10:18:33Z</time>
      </trkpt>
      <trkpt lat="43.33386" lon="5.78707">
        <ele>1142.6</ele>
        <time>2025-10-05T10:18:34Z</time>
      </trkpt>
      <trkpt lat="43.33386" lon="5.78707">
        <ele>1142.5</ele>
        <time>2025-10-05T10:18:35Z</time>
      </trkpt>
      <trkpt lat="43.33386" lon="5.78706">
        <ele>1142.4</ele>
        <time>2025-10-05T10:18:36Z</time>
      </trkpt>
      <trkpt lat="43.33386" lon="5.78706">
        <ele>1142.5</ele>
        <time>2025-10-05T10:18:37Z</time>
      </trkpt>
      <trkpt lat="43.33386" lon="5.78706">
        <ele>1142.6</ele>
        <time>2025-10-05T10:18:38Z</time>
      </trkpt>
      <trkpt lat="43.33386" lon="5.78706">
        <ele>1142.6</ele>
        <time>2025-10-05T10:18:39Z</time>
      </trkpt>
      <trkpt lat="43.33386" lon="5.78706">
        <ele>1142.4</ele>
        <time>2025-10-05T10:18:40Z</time>
      </trkpt>
      <trkpt lat="43.33386" lon="5.78706">
        <ele>1142.5</ele>
        <time>2025-10-05T10:18:41Z</time>
      </trkpt>
      <trkpt lat="43.33386" lon="5.78706">
        <ele>1142.5</ele>
        <time>2025-10-05T10:18:42Z</time>
      </trkpt>
      <trkpt lat="43.33386" lon="5.78705">
        <ele>1142.4</ele>
        <time>2025-10-05T10:18:43Z</time>
      </trkpt>
      <trkpt lat="43.33386" lon="5.78705">
        <ele>1142.4</ele>
        <time>2025-10-05T10:18:44Z</time>
      </trkpt>
      <trkpt lat="43.33386" lon="5.78705">
        <ele>1142.4</ele>
        <time>2025-10-05T10:18:45Z</time>
      </trkpt>
      <trkpt lat="43.33386" lon="5.78705">
        <ele>1142.4</ele>
        <time>2025-10-05T10:18:46Z</time>
      </trkpt>
      <trkpt lat="43.33386" lon="5.78705">
        <ele>1142.3</ele>
        <time>2025-10-05T10:18:47Z</time>
      </trkpt>
      <trkpt lat="43.33386" lon="5.78704">
        <ele>1142.4</ele>
        <time>2025-10-05T10:18:48Z</time>
      </trkpt>
      <trkpt lat="43.33386" lon="5.78704">
        <ele>1142.5</ele>
        <time>2025-10-05T10:18:49Z</time>
      </trkpt>
      <trkpt lat="43.33386" lon="5.78704">
        <ele>1142.6</ele>
        <time>2025-10-05T10:18:50Z</time>
      </trkpt>
      <trkpt lat="43.33386" lon="5.78704">
        <ele>1142.7</ele>
        <time>2025-10-05T10:18:51Z</time>
      </trkpt>
      <trkpt lat="43.33386" lon="5.78704">
        <ele>1142.7</ele>
        <time>2025-10-05T10:18:52Z</time>
      </trkpt>
      <trkpt lat="43.33386" lon="5.78704">
        <ele>1142.8</ele>
        <time>2025-10-05T10:18:53Z</time>
      </trkpt>
      <trkpt lat="43.33386" lon="5.78704">
        <ele>1142.9</ele>
        <time>2025-10-05T10:18:54Z</time>
      </trkpt>
      <trkpt lat="43.33386" lon="5.78704">
        <ele>1143</ele>
        <time>2025-10-05T10:18:55Z</time>
      </trkpt>
      <trkpt lat="43.33386" lon="5.78704">
        <ele>1143</ele>
        <time>2025-10-05T10:18:56Z</time>
      </trkpt>
      <trkpt lat="43.33386" lon="5.78704">
        <ele>1143.1</ele>
        <time>2025-10-05T10:18:57Z</time>
      </trkpt>
      <trkpt lat="43.33386" lon="5.78704">
        <ele>1143.2</ele>
        <time>2025-10-05T10:18:58Z</time>
      </trkpt>
      <trkpt lat="43.33386" lon="5.78703">
        <ele>1143.3</ele>
        <time>2025-10-05T10:18:59Z</time>
      </trkpt>
      <trkpt lat="43.33386" lon="5.78703">
        <ele>1143.4</ele>
        <time>2025-10-05T10:19:00Z</time>
      </trkpt>
      <trkpt lat="43.33386" lon="5.78703">
        <ele>1143.5</ele>
        <time>2025-10-05T10:19:01Z</time>
      </trkpt>
      <trkpt lat="43.33387" lon="5.78703">
        <ele>1143.5</ele>
        <time>2025-10-05T10:19:02Z</time>
      </trkpt>
      <trkpt lat="43.33387" lon="5.78703">
        <ele>1143.5</ele>
        <time>2025-10-05T10:19:03Z</time>
      </trkpt>
      <trkpt lat="43.33387" lon="5.78703">
        <ele>1143.5</ele>
        <time>2025-10-05T10:19:04Z</time>
      </trkpt>
      <trkpt lat="43.33386" lon="5.78703">
        <ele>1143.6</ele>
        <time>2025-10-05T10:19:05Z</time>
      </trkpt>
      <trkpt lat="43.33387" lon="5.78703">
        <ele>1143.6</ele>
        <time>2025-10-05T10:19:06Z</time>
      </trkpt>
      <trkpt lat="43.33387" lon="5.78703">
        <ele>1143.7</ele>
        <time>2025-10-05T10:19:07Z</time>
      </trkpt>
      <trkpt lat="43.33387" lon="5.78702">
        <ele>1143.7</ele>
        <time>2025-10-05T10:19:08Z</time>
      </trkpt>
      <trkpt lat="43.33386" lon="5.78701">
        <ele>1143.7</ele>
        <time>2025-10-05T10:19:09Z</time>
      </trkpt>
      <trkpt lat="43.33387" lon="5.78701">
        <ele>1143.9</ele>
        <time>2025-10-05T10:19:10Z</time>
      </trkpt>
      <trkpt lat="43.33386" lon="5.787">
        <ele>1144.1</ele>
        <time>2025-10-05T10:19:11Z</time>
      </trkpt>
      <trkpt lat="43.33386" lon="5.78699">
        <ele>1144.3</ele>
        <time>2025-10-05T10:19:12Z</time>
      </trkpt>
      <trkpt lat="43.33386" lon="5.78698">
        <ele>1144.6</ele>
        <time>2025-10-05T10:19:13Z</time>
      </trkpt>
      <trkpt lat="43.33386" lon="5.78697">
        <ele>1144.8</ele>
        <time>2025-10-05T10:19:14Z</time>
      </trkpt>
      <trkpt lat="43.33386" lon="5.78696">
        <ele>1145.3</ele>
        <time>2025-10-05T10:19:15Z</time>
      </trkpt>
      <trkpt lat="43.33386" lon="5.78696">
        <ele>1146</ele>
        <time>2025-10-05T10:19:16Z</time>
      </trkpt>
      <trkpt lat="43.33386" lon="5.78695">
        <ele>1146.5</ele>
        <time>2025-10-05T10:19:17Z</time>
      </trkpt>
      <trkpt lat="43.33386" lon="5.78693">
        <ele>1146.9</ele>
        <time>2025-10-05T10:19:18Z</time>
      </trkpt>
      <trkpt lat="43.33385" lon="5.78692">
        <ele>1147.3</ele>
        <time>2025-10-05T10:19:19Z</time>
      </trkpt>
      <trkpt lat="43.33385" lon="5.7869">
        <ele>1147.6</ele>
        <time>2025-10-05T10:19:20Z</time>
      </trkpt>
      <trkpt lat="43.33384" lon="5.78689">
        <ele>1148.1</ele>
        <time>2025-10-05T10:19:21Z</time>
      </trkpt>
      <trkpt lat="43.33384" lon="5.78688">
        <ele>1148.2</ele>
        <time>2025-10-05T10:19:22Z</time>
      </trkpt>
      <trkpt lat="43.33384" lon="5.78687">
        <ele>1148.3</ele>
        <time>2025-10-05T10:19:23Z</time>
      </trkpt>
      <trkpt lat="43.33383" lon="5.78687">
        <ele>1147.9</ele>
        <time>2025-10-05T10:19:24Z</time>
      </trkpt>
      <trkpt lat="43.33383" lon="5.78687">
        <ele>1148</ele>
        <time>2025-10-05T10:19:25Z</time>
      </trkpt>
      <trkpt lat="43.33383" lon="5.78687">
        <ele>1147.9</ele>
        <time>2025-10-05T10:19:26Z</time>
      </trkpt>
      <trkpt lat="43.33383" lon="5.78687">
        <ele>1147.8</ele>
        <time>2025-10-05T10:19:27Z</time>
      </trkpt>
      <trkpt lat="43.33383" lon="5.78688">
        <ele>1147.8</ele>
        <time>2025-10-05T10:19:28Z</time>
      </trkpt>
      <trkpt lat="43.33383" lon="5.78687">
        <ele>1147.8</ele>
        <time>2025-10-05T10:19:29Z</time>
      </trkpt>
      <trkpt lat="43.33383" lon="5.78688">
        <ele>1147.9</ele>
        <time>2025-10-05T10:19:30Z</time>
      </trkpt>
      <trkpt lat="43.33383" lon="5.78688">
        <ele>1147.9</ele>
        <time>2025-10-05T10:19:31Z</time>
      </trkpt>
      <trkpt lat="43.33383" lon="5.78688">
        <ele>1147.8</ele>
        <time>2025-10-05T10:19:32Z</time>
      </trkpt>
      <trkpt lat="43.33382" lon="5.78687">
        <ele>1147.8</ele>
        <time>2025-10-05T10:19:33Z</time>
      </trkpt>
      <trkpt lat="43.33382" lon="5.78687">
        <ele>1147.8</ele>
        <time>2025-10-05T10:19:34Z</time>
      </trkpt>
      <trkpt lat="43.33382" lon="5.78687">
        <ele>1147.7</ele>
        <time>2025-10-05T10:19:35Z</time>
      </trkpt>
      <trkpt lat="43.33382" lon="5.78687">
        <ele>1147.5</ele>
        <time>2025-10-05T10:19:36Z</time>
      </trkpt>
      <trkpt lat="43.33382" lon="5.78687">
        <ele>1147.6</ele>
        <time>2025-10-05T10:19:37Z</time>
      </trkpt>
      <trkpt lat="43.33382" lon="5.78687">
        <ele>1147.6</ele>
        <time>2025-10-05T10:19:38Z</time>
      </trkpt>
      <trkpt lat="43.33382" lon="5.78687">
        <ele>1147.7</ele>
        <time>2025-10-05T10:19:39Z</time>
      </trkpt>
      <trkpt lat="43.33382" lon="5.78687">
        <ele>1147.6</ele>
        <time>2025-10-05T10:19:40Z</time>
      </trkpt>
      <trkpt lat="43.33382" lon="5.78687">
        <ele>1147.5</ele>
        <time>2025-10-05T10:19:41Z</time>
      </trkpt>
      <trkpt lat="43.33382" lon="5.78687">
        <ele>1147.6</ele>
        <time>2025-10-05T10:19:42Z</time>
      </trkpt>
      <trkpt lat="43.33382" lon="5.78687">
        <ele>1147.7</ele>
        <time>2025-10-05T10:19:43Z</time>
      </trkpt>
      <trkpt lat="43.33382" lon="5.78688">
        <ele>1147.6</ele>
        <time>2025-10-05T10:19:44Z</time>
      </trkpt>
      <trkpt lat="43.33382" lon="5.78688">
        <ele>1147.6</ele>
        <time>2025-10-05T10:19:45Z</time>
      </trkpt>
      <trkpt lat="43.33382" lon="5.78687">
        <ele>1147.6</ele>
        <time>2025-10-05T10:19:46Z</time>
      </trkpt>
      <trkpt lat="43.33382" lon="5.78687">
        <ele>1147.6</ele>
        <time>2025-10-05T10:19:47Z</time>
      </trkpt>
      <trkpt lat="43.33382" lon="5.78687">
        <ele>1147.5</ele>
        <time>2025-10-05T10:19:48Z</time>
      </trkpt>
      <trkpt lat="43.33382" lon="5.78687">
        <ele>1147.5</ele>
        <time>2025-10-05T10:19:49Z</time>
      </trkpt>
      <trkpt lat="43.33382" lon="5.78687">
        <ele>1147.5</ele>
        <time>2025-10-05T10:19:50Z</time>
      </trkpt>
      <trkpt lat="43.33382" lon="5.78687">
        <ele>1147.5</ele>
        <time>2025-10-05T10:19:51Z</time>
      </trkpt>
      <trkpt lat="43.33382" lon="5.78687">
        <ele>1147.4</ele>
        <time>2025-10-05T10:19:52Z</time>
      </trkpt>
      <trkpt lat="43.33382" lon="5.78687">
        <ele>1147.3</ele>
        <time>2025-10-05T10:19:53Z</time>
      </trkpt>
      <trkpt lat="43.33382" lon="5.78687">
        <ele>1147.4</ele>
        <time>2025-10-05T10:19:54Z</time>
      </trkpt>
      <trkpt lat="43.33382" lon="5.78687">
        <ele>1147.4</ele>
        <time>2025-10-05T10:19:55Z</time>
      </trkpt>
      <trkpt lat="43.33382" lon="5.78687">
        <ele>1147.3</ele>
        <time>2025-10-05T10:19:56Z</time>
      </trkpt>
      <trkpt lat="43.33382" lon="5.78687">
        <ele>1147.4</ele>
        <time>2025-10-05T10:19:57Z</time>
      </trkpt>
      <trkpt lat="43.33382" lon="5.78687">
        <ele>1147.3</ele>
        <time>2025-10-05T10:19:58Z</time>
      </trkpt>
      <trkpt lat="43.33383" lon="5.78687">
        <ele>1147.3</ele>
        <time>2025-10-05T10:19:59Z</time>
      </trkpt>
      <trkpt lat="43.33383" lon="5.78687">
        <ele>1147.2</ele>
        <time>2025-10-05T10:20:00Z</time>
      </trkpt>
      <trkpt lat="43.33383" lon="5.78687">
        <ele>1147.2</ele>
        <time>2025-10-05T10:20:01Z</time>
      </trkpt>
      <trkpt lat="43.33383" lon="5.78687">
        <ele>1147.1</ele>
        <time>2025-10-05T10:20:02Z</time>
      </trkpt>
      <trkpt lat="43.33383" lon="5.78687">
        <ele>1147.2</ele>
        <time>2025-10-05T10:20:03Z</time>
      </trkpt>
      <trkpt lat="43.33383" lon="5.78687">
        <ele>1147.3</ele>
        <time>2025-10-05T10:20:04Z</time>
      </trkpt>
      <trkpt lat="43.33383" lon="5.78687">
        <ele>1147.4</ele>
        <time>2025-10-05T10:20:05Z</time>
      </trkpt>
      <trkpt lat="43.33383" lon="5.78687">
        <ele>1147.4</ele>
        <time>2025-10-05T10:20:06Z</time>
      </trkpt>
      <trkpt lat="43.33383" lon="5.78687">
        <ele>1147.4</ele>
        <time>2025-10-05T10:20:07Z</time>
      </trkpt>
      <trkpt lat="43.33383" lon="5.78687">
        <ele>1147.4</ele>
        <time>2025-10-05T10:20:08Z</time>
      </trkpt>
      <trkpt lat="43.33383" lon="5.78687">
        <ele>1147.4</ele>
        <time>2025-10-05T10:20:09Z</time>
      </trkpt>
      <trkpt lat="43.33383" lon="5.78687">
        <ele>1147.4</ele>
        <time>2025-10-05T10:20:10Z</time>
      </trkpt>
      <trkpt lat="43.33383" lon="5.78687">
        <ele>1147.3</ele>
        <time>2025-10-05T10:20:11Z</time>
      </trkpt>
      <trkpt lat="43.33383" lon="5.78687">
        <ele>1147.3</ele>
        <time>2025-10-05T10:20:12Z</time>
      </trkpt>
      <trkpt lat="43.33383" lon="5.78686">
        <ele>1147.2</ele>
        <time>2025-10-05T10:20:13Z</time>
      </trkpt>
      <trkpt lat="43.33383" lon="5.78686">
        <ele>1147.2</ele>
        <time>2025-10-05T10:20:14Z</time>
      </trkpt>
      <trkpt lat="43.33383" lon="5.78686">
        <ele>1147.3</ele>
        <time>2025-10-05T10:20:15Z</time>
      </trkpt>
      <trkpt lat="43.33383" lon="5.78686">
        <ele>1147.2</ele>
        <time>2025-10-05T10:20:16Z</time>
      </trkpt>
      <trkpt lat="43.33383" lon="5.78686">
        <ele>1147.2</ele>
        <time>2025-10-05T10:20:17Z</time>
      </trkpt>
      <trkpt lat="43.33383" lon="5.78686">
        <ele>1147</ele>
        <time>2025-10-05T10:20:18Z</time>
      </trkpt>
      <trkpt lat="43.33383" lon="5.78686">
        <ele>1146.8</ele>
        <time>2025-10-05T10:20:19Z</time>
      </trkpt>
      <trkpt lat="43.33383" lon="5.78686">
        <ele>1146.7</ele>
        <time>2025-10-05T10:20:20Z</time>
      </trkpt>
      <trkpt lat="43.33383" lon="5.78686">
        <ele>1146.7</ele>
        <time>2025-10-05T10:20:21Z</time>
      </trkpt>
      <trkpt lat="43.33383" lon="5.78686">
        <ele>1146.5</ele>
        <time>2025-10-05T10:20:22Z</time>
      </trkpt>
      <trkpt lat="43.33383" lon="5.78686">
        <ele>1146.4</ele>
        <time>2025-10-05T10:20:23Z</time>
      </trkpt>
      <trkpt lat="43.33383" lon="5.78686">
        <ele>1146.4</ele>
        <time>2025-10-05T10:20:24Z</time>
      </trkpt>
      <trkpt lat="43.33383" lon="5.78686">
        <ele>1146.4</ele>
        <time>2025-10-05T10:20:25Z</time>
      </trkpt>
      <trkpt lat="43.33383" lon="5.78687">
        <ele>1146.4</ele>
        <time>2025-10-05T10:20:26Z</time>
      </trkpt>
      <trkpt lat="43.33383" lon="5.78687">
        <ele>1146.5</ele>
        <time>2025-10-05T10:20:27Z</time>
      </trkpt>
      <trkpt lat="43.33383" lon="5.78687">
        <ele>1146.4</ele>
        <time>2025-10-05T10:20:28Z</time>
      </trkpt>
      <trkpt lat="43.33383" lon="5.78687">
        <ele>1146.4</ele>
        <time>2025-10-05T10:20:29Z</time>
      </trkpt>
      <trkpt lat="43.33383" lon="5.78687">
        <ele>1146.4</ele>
        <time>2025-10-05T10:20:30Z</time>
      </trkpt>
      <trkpt lat="43.33383" lon="5.78688">
        <ele>1146.5</ele>
        <time>2025-10-05T10:20:31Z</time>
      </trkpt>
      <trkpt lat="43.33383" lon="5.78688">
        <ele>1146.5</ele>
        <time>2025-10-05T10:20:32Z</time>
      </trkpt>
      <trkpt lat="43.33383" lon="5.78688">
        <ele>1146.4</ele>
        <time>2025-10-05T10:20:33Z</time>
      </trkpt>
      <trkpt lat="43.33383" lon="5.78688">
        <ele>1146.4</ele>
        <time>2025-10-05T10:20:34Z</time>
      </trkpt>
      <trkpt lat="43.33383" lon="5.78688">
        <ele>1146.5</ele>
        <time>2025-10-05T10:20:35Z</time>
      </trkpt>
      <trkpt lat="43.33384" lon="5.78687">
        <ele>1147.7</ele>
        <time>2025-10-05T10:20:36Z</time>
      </trkpt>
      <trkpt lat="43.33384" lon="5.78687">
        <ele>1148.6</ele>
        <time>2025-10-05T10:20:37Z</time>
      </trkpt>
      <trkpt lat="43.33384" lon="5.78686">
        <ele>1148.7</ele>
        <time>2025-10-05T10:20:38Z</time>
      </trkpt>
      <trkpt lat="43.33384" lon="5.78686">
        <ele>1147.9</ele>
        <time>2025-10-05T10:20:39Z</time>
      </trkpt>
      <trkpt lat="43.33383" lon="5.78687">
        <ele>1147.6</ele>
        <time>2025-10-05T10:20:40Z</time>
      </trkpt>
      <trkpt lat="43.33383" lon="5.78687">
        <ele>1146.8</ele>
        <time>2025-10-05T10:20:41Z</time>
      </trkpt>
      <trkpt lat="43.33383" lon="5.78687">
        <ele>1146.5</ele>
        <time>2025-10-05T10:20:42Z</time>
      </trkpt>
      <trkpt lat="43.33383" lon="5.78687">
        <ele>1146.4</ele>
        <time>2025-10-05T10:20:43Z</time>
      </trkpt>
      <trkpt lat="43.33383" lon="5.78687">
        <ele>1146.4</ele>
        <time>2025-10-05T10:20:44Z</time>
      </trkpt>
      <trkpt lat="43.33383" lon="5.78687">
        <ele>1146.7</ele>
        <time>2025-10-05T10:20:45Z</time>
      </trkpt>
      <trkpt lat="43.33383" lon="5.78687">
        <ele>1146.8</ele>
        <time>2025-10-05T10:20:46Z</time>
      </trkpt>
      <trkpt lat="43.33383" lon="5.78687">
        <ele>1146.6</ele>
        <time>2025-10-05T10:20:47Z</time>
      </trkpt>
      <trkpt lat="43.33383" lon="5.78687">
        <ele>1146.5</ele>
        <time>2025-10-05T10:20:48Z</time>
      </trkpt>
      <trkpt lat="43.33383" lon="5.78687">
        <ele>1146.5</ele>
        <time>2025-10-05T10:20:49Z</time>
      </trkpt>
      <trkpt lat="43.33383" lon="5.78687">
        <ele>1146.4</ele>
        <time>2025-10-05T10:20:50Z</time>
      </trkpt>
      <trkpt lat="43.33383" lon="5.78687">
        <ele>1146.4</ele>
        <time>2025-10-05T10:20:51Z</time>
      </trkpt>
      <trkpt lat="43.33383" lon="5.78687">
        <ele>1146.3</ele>
        <time>2025-10-05T10:20:52Z</time>
      </trkpt>
      <trkpt lat="43.33382" lon="5.78687">
        <ele>1146.4</ele>
        <time>2025-10-05T10:20:53Z</time>
      </trkpt>
      <trkpt lat="43.33382" lon="5.78687">
        <ele>1146.5</ele>
        <time>2025-10-05T10:20:54Z</time>
      </trkpt>
      <trkpt lat="43.33382" lon="5.78687">
        <ele>1146.5</ele>
        <time>2025-10-05T10:20:55Z</time>
      </trkpt>
      <trkpt lat="43.33382" lon="5.78688">
        <ele>1146.5</ele>
        <time>2025-10-05T10:20:56Z</time>
      </trkpt>
      <trkpt lat="43.33382" lon="5.78688">
        <ele>1146.5</ele>
        <time>2025-10-05T10:20:57Z</time>
      </trkpt>
      <trkpt lat="43.33382" lon="5.78688">
        <ele>1146.5</ele>
        <time>2025-10-05T10:20:58Z</time>
      </trkpt>
      <trkpt lat="43.33382" lon="5.78688">
        <ele>1146.5</ele>
        <time>2025-10-05T10:20:59Z</time>
      </trkpt>
      <trkpt lat="43.33382" lon="5.78688">
        <ele>1146.6</ele>
        <time>2025-10-05T10:21:00Z</time>
      </trkpt>
      <trkpt lat="43.33382" lon="5.78688">
        <ele>1146.6</ele>
        <time>2025-10-05T10:21:01Z</time>
      </trkpt>
      <trkpt lat="43.33382" lon="5.78688">
        <ele>1146.6</ele>
        <time>2025-10-05T10:21:02Z</time>
      </trkpt>
      <trkpt lat="43.33382" lon="5.78688">
        <ele>1146.3</ele>
        <time>2025-10-05T10:21:03Z</time>
      </trkpt>
      <trkpt lat="43.33382" lon="5.78688">
        <ele>1146.3</ele>
        <time>2025-10-05T10:21:04Z</time>
      </trkpt>
      <trkpt lat="43.33382" lon="5.78687">
        <ele>1146.2</ele>
        <time>2025-10-05T10:21:05Z</time>
      </trkpt>
      <trkpt lat="43.33382" lon="5.78687">
        <ele>1146.1</ele>
        <time>2025-10-05T10:21:06Z</time>
      </trkpt>
      <trkpt lat="43.33382" lon="5.78687">
        <ele>1146.2</ele>
        <time>2025-10-05T10:21:07Z</time>
      </trkpt>
      <trkpt lat="43.33382" lon="5.78687">
        <ele>1146.2</ele>
        <time>2025-10-05T10:21:08Z</time>
      </trkpt>
      <trkpt lat="43.33382" lon="5.78687">
        <ele>1146.3</ele>
        <time>2025-10-05T10:21:09Z</time>
      </trkpt>
      <trkpt lat="43.33382" lon="5.78687">
        <ele>1146.3</ele>
        <time>2025-10-05T10:21:10Z</time>
      </trkpt>
      <trkpt lat="43.33382" lon="5.78687">
        <ele>1146.4</ele>
        <time>2025-10-05T10:21:11Z</time>
      </trkpt>
      <trkpt lat="43.33382" lon="5.78687">
        <ele>1146.5</ele>
        <time>2025-10-05T10:21:12Z</time>
      </trkpt>
      <trkpt lat="43.33382" lon="5.78687">
        <ele>1146.5</ele>
        <time>2025-10-05T10:21:13Z</time>
      </trkpt>
      <trkpt lat="43.33382" lon="5.78687">
        <ele>1146.7</ele>
        <time>2025-10-05T10:21:14Z</time>
      </trkpt>
      <trkpt lat="43.33382" lon="5.78687">
        <ele>1146.7</ele>
        <time>2025-10-05T10:21:15Z</time>
      </trkpt>
      <trkpt lat="43.33382" lon="5.78687">
        <ele>1146.7</ele>
        <time>2025-10-05T10:21:16Z</time>
      </trkpt>
      <trkpt lat="43.33382" lon="5.78687">
        <ele>1146.6</ele>
        <time>2025-10-05T10:21:17Z</time>
      </trkpt>
      <trkpt lat="43.33382" lon="5.78687">
        <ele>1146.7</ele>
        <time>2025-10-05T10:21:18Z</time>
      </trkpt>
      <trkpt lat="43.33382" lon="5.78687">
        <ele>1146.5</ele>
        <time>2025-10-05T10:21:19Z</time>
      </trkpt>
      <trkpt lat="43.33382" lon="5.78687">
        <ele>1146.5</ele>
        <time>2025-10-05T10:21:20Z</time>
      </trkpt>
      <trkpt lat="43.33382" lon="5.78687">
        <ele>1146.4</ele>
        <time>2025-10-05T10:21:21Z</time>
      </trkpt>
      <trkpt lat="43.33382" lon="5.78687">
        <ele>1146.6</ele>
        <time>2025-10-05T10:21:22Z</time>
      </trkpt>
      <trkpt lat="43.33382" lon="5.78686">
        <ele>1146.3</ele>
        <time>2025-10-05T10:21:23Z</time>
      </trkpt>
      <trkpt lat="43.33382" lon="5.78686">
        <ele>1146.4</ele>
        <time>2025-10-05T10:21:24Z</time>
      </trkpt>
      <trkpt lat="43.33383" lon="5.78686">
        <ele>1146.3</ele>
        <time>2025-10-05T10:21:25Z</time>
      </trkpt>
      <trkpt lat="43.33383" lon="5.78686">
        <ele>1146.7</ele>
        <time>2025-10-05T10:21:26Z</time>
      </trkpt>
      <trkpt lat="43.33383" lon="5.78685">
        <ele>1147.1</ele>
        <time>2025-10-05T10:21:27Z</time>
      </trkpt>
      <trkpt lat="43.33384" lon="5.78684">
        <ele>1148.2</ele>
        <time>2025-10-05T10:21:28Z</time>
      </trkpt>
      <trkpt lat="43.33384" lon="5.78684">
        <ele>1149.2</ele>
        <time>2025-10-05T10:21:29Z</time>
      </trkpt>
      <trkpt lat="43.33384" lon="5.78683">
        <ele>1149.1</ele>
        <time>2025-10-05T10:21:30Z</time>
      </trkpt>
      <trkpt lat="43.33383" lon="5.78683">
        <ele>1148.5</ele>
        <time>2025-10-05T10:21:31Z</time>
      </trkpt>
      <trkpt lat="43.33383" lon="5.78682">
        <ele>1147.7</ele>
        <time>2025-10-05T10:21:32Z</time>
      </trkpt>
      <trkpt lat="43.33383" lon="5.78682">
        <ele>1147.3</ele>
        <time>2025-10-05T10:21:33Z</time>
      </trkpt>
      <trkpt lat="43.33383" lon="5.78682">
        <ele>1147.2</ele>
        <time>2025-10-05T10:21:34Z</time>
      </trkpt>
      <trkpt lat="43.33383" lon="5.78682">
        <ele>1147.2</ele>
        <time>2025-10-05T10:21:35Z</time>
      </trkpt>
      <trkpt lat="43.33382" lon="5.78682">
        <ele>1147.2</ele>
        <time>2025-10-05T10:21:36Z</time>
      </trkpt>
      <trkpt lat="43.33382" lon="5.78681">
        <ele>1147.1</ele>
        <time>2025-10-05T10:21:37Z</time>
      </trkpt>
      <trkpt lat="43.33381" lon="5.7868">
        <ele>1146.9</ele>
        <time>2025-10-05T10:21:38Z</time>
      </trkpt>
      <trkpt lat="43.3338" lon="5.7868">
        <ele>1146.8</ele>
        <time>2025-10-05T10:21:39Z</time>
      </trkpt>
      <trkpt lat="43.33379" lon="5.7868">
        <ele>1146.6</ele>
        <time>2025-10-05T10:21:40Z</time>
      </trkpt>
      <trkpt lat="43.33379" lon="5.78681">
        <ele>1146.3</ele>
        <time>2025-10-05T10:21:41Z</time>
      </trkpt>
      <trkpt lat="43.33378" lon="5.78682">
        <ele>1146.1</ele>
        <time>2025-10-05T10:21:42Z</time>
      </trkpt>
      <trkpt lat="43.33378" lon="5.78683">
        <ele>1146</ele>
        <time>2025-10-05T10:21:43Z</time>
      </trkpt>
      <trkpt lat="43.33378" lon="5.78684">
        <ele>1145.8</ele>
        <time>2025-10-05T10:21:44Z</time>
      </trkpt>
      <trkpt lat="43.33378" lon="5.78685">
        <ele>1145.5</ele>
        <time>2025-10-05T10:21:45Z</time>
      </trkpt>
      <trkpt lat="43.33378" lon="5.78686">
        <ele>1145.1</ele>
        <time>2025-10-05T10:21:46Z</time>
      </trkpt>
      <trkpt lat="43.33378" lon="5.78686">
        <ele>1144.9</ele>
        <time>2025-10-05T10:21:47Z</time>
      </trkpt>
      <trkpt lat="43.33378" lon="5.78686">
        <ele>1144.7</ele>
        <time>2025-10-05T10:21:48Z</time>
      </trkpt>
      <trkpt lat="43.33378" lon="5.78687">
        <ele>1144.5</ele>
        <time>2025-10-05T10:21:49Z</time>
      </trkpt>
      <trkpt lat="43.33378" lon="5.78687">
        <ele>1144.5</ele>
        <time>2025-10-05T10:21:50Z</time>
      </trkpt>
      <trkpt lat="43.33378" lon="5.78687">
        <ele>1144.4</ele>
        <time>2025-10-05T10:21:51Z</time>
      </trkpt>
      <trkpt lat="43.33378" lon="5.78687">
        <ele>1144.3</ele>
        <time>2025-10-05T10:21:52Z</time>
      </trkpt>
      <trkpt lat="43.33378" lon="5.78688">
        <ele>1144.2</ele>
        <time>2025-10-05T10:21:53Z</time>
      </trkpt>
      <trkpt lat="43.33378" lon="5.78687">
        <ele>1144.3</ele>
        <time>2025-10-05T10:21:54Z</time>
      </trkpt>
      <trkpt lat="43.33378" lon="5.78687">
        <ele>1144.3</ele>
        <time>2025-10-05T10:21:55Z</time>
      </trkpt>
      <trkpt lat="43.33378" lon="5.78687">
        <ele>1144.4</ele>
        <time>2025-10-05T10:21:56Z</time>
      </trkpt>
      <trkpt lat="43.33378" lon="5.78687">
        <ele>1144.4</ele>
        <time>2025-10-05T10:21:57Z</time>
      </trkpt>
      <trkpt lat="43.33378" lon="5.78687">
        <ele>1144.4</ele>
        <time>2025-10-05T10:21:58Z</time>
      </trkpt>
      <trkpt lat="43.33377" lon="5.78687">
        <ele>1144.3</ele>
        <time>2025-10-05T10:21:59Z</time>
      </trkpt>
      <trkpt lat="43.33377" lon="5.78688">
        <ele>1144.2</ele>
        <time>2025-10-05T10:22:00Z</time>
      </trkpt>
      <trkpt lat="43.33378" lon="5.78688">
        <ele>1144.2</ele>
        <time>2025-10-05T10:22:01Z</time>
      </trkpt>
      <trkpt lat="43.33378" lon="5.78688">
        <ele>1144.3</ele>
        <time>2025-10-05T10:22:02Z</time>
      </trkpt>
      <trkpt lat="43.33378" lon="5.78688">
        <ele>1144.2</ele>
        <time>2025-10-05T10:22:03Z</time>
      </trkpt>
      <trkpt lat="43.33379" lon="5.78688">
        <ele>1144.3</ele>
        <time>2025-10-05T10:22:04Z</time>
      </trkpt>
      <trkpt lat="43.33379" lon="5.78688">
        <ele>1144.4</ele>
        <time>2025-10-05T10:22:05Z</time>
      </trkpt>
      <trkpt lat="43.33379" lon="5.78688">
        <ele>1144.4</ele>
        <time>2025-10-05T10:22:06Z</time>
      </trkpt>
      <trkpt lat="43.33379" lon="5.78688">
        <ele>1144.4</ele>
        <time>2025-10-05T10:22:07Z</time>
      </trkpt>
      <trkpt lat="43.33379" lon="5.78688">
        <ele>1144.4</ele>
        <time>2025-10-05T10:22:08Z</time>
      </trkpt>
      <trkpt lat="43.33378" lon="5.78688">
        <ele>1144.3</ele>
        <time>2025-10-05T10:22:09Z</time>
      </trkpt>
      <trkpt lat="43.33378" lon="5.78688">
        <ele>1144.4</ele>
        <time>2025-10-05T10:22:10Z</time>
      </trkpt>
      <trkpt lat="43.33378" lon="5.78689">
        <ele>1144.4</ele>
        <time>2025-10-05T10:22:11Z</time>
      </trkpt>
      <trkpt lat="43.33378" lon="5.78689">
        <ele>1144.4</ele>
        <time>2025-10-05T10:22:12Z</time>
      </trkpt>
      <trkpt lat="43.33378" lon="5.78689">
        <ele>1144.5</ele>
        <time>2025-10-05T10:22:13Z</time>
      </trkpt>
      <trkpt lat="43.33378" lon="5.78689">
        <ele>1144.6</ele>
        <time>2025-10-05T10:22:14Z</time>
      </trkpt>
      <trkpt lat="43.33378" lon="5.78689">
        <ele>1144.6</ele>
        <time>2025-10-05T10:22:15Z</time>
      </trkpt>
      <trkpt lat="43.33378" lon="5.78689">
        <ele>1144.7</ele>
        <time>2025-10-05T10:22:16Z</time>
      </trkpt>
      <trkpt lat="43.33378" lon="5.78689">
        <ele>1144.7</ele>
        <time>2025-10-05T10:22:17Z</time>
      </trkpt>
      <trkpt lat="43.33378" lon="5.78689">
        <ele>1144.7</ele>
        <time>2025-10-05T10:22:18Z</time>
      </trkpt>
      <trkpt lat="43.33378" lon="5.78689">
        <ele>1144.7</ele>
        <time>2025-10-05T10:22:19Z</time>
      </trkpt>
      <trkpt lat="43.33378" lon="5.78689">
        <ele>1144.8</ele>
        <time>2025-10-05T10:22:20Z</time>
      </trkpt>
      <trkpt lat="43.33378" lon="5.78689">
        <ele>1144.9</ele>
        <time>2025-10-05T10:22:21Z</time>
      </trkpt>
      <trkpt lat="43.33378" lon="5.78689">
        <ele>1145</ele>
        <time>2025-10-05T10:22:22Z</time>
      </trkpt>
      <trkpt lat="43.33377" lon="5.78689">
        <ele>1145</ele>
        <time>2025-10-05T10:22:23Z</time>
      </trkpt>
      <trkpt lat="43.33377" lon="5.78689">
        <ele>1145.1</ele>
        <time>2025-10-05T10:22:24Z</time>
      </trkpt>
      <trkpt lat="43.33378" lon="5.78689">
        <ele>1145.1</ele>
        <time>2025-10-05T10:22:25Z</time>
      </trkpt>
      <trkpt lat="43.33378" lon="5.78688">
        <ele>1145.2</ele>
        <time>2025-10-05T10:22:26Z</time>
      </trkpt>
      <trkpt lat="43.33378" lon="5.78689">
        <ele>1145.3</ele>
        <time>2025-10-05T10:22:27Z</time>
      </trkpt>
      <trkpt lat="43.33378" lon="5.78689">
        <ele>1145.4</ele>
        <time>2025-10-05T10:22:28Z</time>
      </trkpt>
      <trkpt lat="43.33378" lon="5.78689">
        <ele>1145.4</ele>
        <time>2025-10-05T10:22:29Z</time>
      </trkpt>
      <trkpt lat="43.33378" lon="5.78689">
        <ele>1145.3</ele>
        <time>2025-10-05T10:22:30Z</time>
      </trkpt>
      <trkpt lat="43.33378" lon="5.78689">
        <ele>1145.3</ele>
        <time>2025-10-05T10:22:31Z</time>
      </trkpt>
      <trkpt lat="43.33378" lon="5.78688">
        <ele>1145.3</ele>
        <time>2025-10-05T10:22:32Z</time>
      </trkpt>
      <trkpt lat="43.33378" lon="5.78688">
        <ele>1145.3</ele>
        <time>2025-10-05T10:22:33Z</time>
      </trkpt>
      <trkpt lat="43.33378" lon="5.78688">
        <ele>1145.3</ele>
        <time>2025-10-05T10:22:34Z</time>
      </trkpt>
      <trkpt lat="43.33378" lon="5.78688">
        <ele>1145.3</ele>
        <time>2025-10-05T10:22:35Z</time>
      </trkpt>
      <trkpt lat="43.33379" lon="5.78688">
        <ele>1145.2</ele>
        <time>2025-10-05T10:22:36Z</time>
      </trkpt>
      <trkpt lat="43.33378" lon="5.78688">
        <ele>1145.2</ele>
        <time>2025-10-05T10:22:37Z</time>
      </trkpt>
      <trkpt lat="43.33378" lon="5.78688">
        <ele>1145.2</ele>
        <time>2025-10-05T10:22:38Z</time>
      </trkpt>
      <trkpt lat="43.33378" lon="5.78688">
        <ele>1145.2</ele>
        <time>2025-10-05T10:22:39Z</time>
      </trkpt>
      <trkpt lat="43.33378" lon="5.78688">
        <ele>1145.1</ele>
        <time>2025-10-05T10:22:40Z</time>
      </trkpt>
      <trkpt lat="43.33378" lon="5.78689">
        <ele>1145.1</ele>
        <time>2025-10-05T10:22:41Z</time>
      </trkpt>
      <trkpt lat="43.33378" lon="5.78688">
        <ele>1145</ele>
        <time>2025-10-05T10:22:42Z</time>
      </trkpt>
      <trkpt lat="43.33378" lon="5.78688">
        <ele>1144.8</ele>
        <time>2025-10-05T10:22:43Z</time>
      </trkpt>
      <trkpt lat="43.33378" lon="5.78688">
        <ele>1144.6</ele>
        <time>2025-10-05T10:22:44Z</time>
      </trkpt>
      <trkpt lat="43.33378" lon="5.78688">
        <ele>1144.5</ele>
        <time>2025-10-05T10:22:45Z</time>
      </trkpt>
      <trkpt lat="43.33378" lon="5.78687">
        <ele>1144.4</ele>
        <time>2025-10-05T10:22:46Z</time>
      </trkpt>
      <trkpt lat="43.33378" lon="5.78687">
        <ele>1144.2</ele>
        <time>2025-10-05T10:22:47Z</time>
      </trkpt>
      <trkpt lat="43.33378" lon="5.78687">
        <ele>1144.2</ele>
        <time>2025-10-05T10:22:48Z</time>
      </trkpt>
      <trkpt lat="43.33378" lon="5.78687">
        <ele>1144.1</ele>
        <time>2025-10-05T10:22:49Z</time>
      </trkpt>
      <trkpt lat="43.33378" lon="5.78687">
        <ele>1144.1</ele>
        <time>2025-10-05T10:22:50Z</time>
      </trkpt>
      <trkpt lat="43.33378" lon="5.78687">
        <ele>1144</ele>
        <time>2025-10-05T10:22:51Z</time>
      </trkpt>
      <trkpt lat="43.33379" lon="5.78687">
        <ele>1144.1</ele>
        <time>2025-10-05T10:22:52Z</time>
      </trkpt>
      <trkpt lat="43.33379" lon="5.78687">
        <ele>1144.1</ele>
        <time>2025-10-05T10:22:53Z</time>
      </trkpt>
      <trkpt lat="43.33379" lon="5.78687">
        <ele>1144.1</ele>
        <time>2025-10-05T10:22:54Z</time>
      </trkpt>
      <trkpt lat="43.33378" lon="5.78687">
        <ele>1144.2</ele>
        <time>2025-10-05T10:22:55Z</time>
      </trkpt>
      <trkpt lat="43.33378" lon="5.78687">
        <ele>1144.3</ele>
        <time>2025-10-05T10:22:56Z</time>
      </trkpt>
      <trkpt lat="43.33378" lon="5.78687">
        <ele>1144.3</ele>
        <time>2025-10-05T10:22:57Z</time>
      </trkpt>
      <trkpt lat="43.33378" lon="5.78687">
        <ele>1144.3</ele>
        <time>2025-10-05T10:22:58Z</time>
      </trkpt>
      <trkpt lat="43.33378" lon="5.78687">
        <ele>1144.2</ele>
        <time>2025-10-05T10:22:59Z</time>
      </trkpt>
      <trkpt lat="43.33378" lon="5.78687">
        <ele>1144.1</ele>
        <time>2025-10-05T10:23:00Z</time>
      </trkpt>
      <trkpt lat="43.33379" lon="5.78687">
        <ele>1144</ele>
        <time>2025-10-05T10:23:01Z</time>
      </trkpt>
      <trkpt lat="43.33378" lon="5.78687">
        <ele>1143.9</ele>
        <time>2025-10-05T10:23:02Z</time>
      </trkpt>
      <trkpt lat="43.33378" lon="5.78687">
        <ele>1143.9</ele>
        <time>2025-10-05T10:23:03Z</time>
      </trkpt>
      <trkpt lat="43.33378" lon="5.78687">
        <ele>1143.8</ele>
        <time>2025-10-05T10:23:04Z</time>
      </trkpt>
      <trkpt lat="43.33378" lon="5.78687">
        <ele>1143.6</ele>
        <time>2025-10-05T10:23:05Z</time>
      </trkpt>
      <trkpt lat="43.33378" lon="5.78687">
        <ele>1143.4</ele>
        <time>2025-10-05T10:23:06Z</time>
      </trkpt>
      <trkpt lat="43.33378" lon="5.78687">
        <ele>1143.3</ele>
        <time>2025-10-05T10:23:07Z</time>
      </trkpt>
      <trkpt lat="43.33378" lon="5.78686">
        <ele>1143.2</ele>
        <time>2025-10-05T10:23:08Z</time>
      </trkpt>
      <trkpt lat="43.33378" lon="5.78686">
        <ele>1143.2</ele>
        <time>2025-10-05T10:23:09Z</time>
      </trkpt>
      <trkpt lat="43.33378" lon="5.78686">
        <ele>1143.2</ele>
        <time>2025-10-05T10:23:10Z</time>
      </trkpt>
      <trkpt lat="43.33378" lon="5.78687">
        <ele>1143.3</ele>
        <time>2025-10-05T10:23:11Z</time>
      </trkpt>
      <trkpt lat="43.33378" lon="5.78687">
        <ele>1143.1</ele>
        <time>2025-10-05T10:23:12Z</time>
      </trkpt>
      <trkpt lat="43.33378" lon="5.78687">
        <ele>1143.2</ele>
        <time>2025-10-05T10:23:13Z</time>
      </trkpt>
      <trkpt lat="43.33378" lon="5.78687">
        <ele>1143.2</ele>
        <time>2025-10-05T10:23:14Z</time>
      </trkpt>
      <trkpt lat="43.33378" lon="5.78687">
        <ele>1143.2</ele>
        <time>2025-10-05T10:23:15Z</time>
      </trkpt>
      <trkpt lat="43.33378" lon="5.78687">
        <ele>1143.3</ele>
        <time>2025-10-05T10:23:16Z</time>
      </trkpt>
      <trkpt lat="43.33378" lon="5.78687">
        <ele>1143.3</ele>
        <time>2025-10-05T10:23:17Z</time>
      </trkpt>
      <trkpt lat="43.33378" lon="5.78687">
        <ele>1143.5</ele>
        <time>2025-10-05T10:23:18Z</time>
      </trkpt>
      <trkpt lat="43.33378" lon="5.78687">
        <ele>1143.5</ele>
        <time>2025-10-05T10:23:19Z</time>
      </trkpt>
      <trkpt lat="43.33378" lon="5.78687">
        <ele>1143.5</ele>
        <time>2025-10-05T10:23:20Z</time>
      </trkpt>
      <trkpt lat="43.33378" lon="5.78687">
        <ele>1143.6</ele>
        <time>2025-10-05T10:23:21Z</time>
      </trkpt>
      <trkpt lat="43.33378" lon="5.78687">
        <ele>1143.6</ele>
        <time>2025-10-05T10:23:22Z</time>
      </trkpt>
      <trkpt lat="43.33378" lon="5.78687">
        <ele>1143.8</ele>
        <time>2025-10-05T10:23:23Z</time>
      </trkpt>
      <trkpt lat="43.33378" lon="5.78687">
        <ele>1143.9</ele>
        <time>2025-10-05T10:23:24Z</time>
      </trkpt>
      <trkpt lat="43.33378" lon="5.78687">
        <ele>1143.9</ele>
        <time>2025-10-05T10:23:25Z</time>
      </trkpt>
      <trkpt lat="43.33377" lon="5.78687">
        <ele>1144</ele>
        <time>2025-10-05T10:23:26Z</time>
      </trkpt>
      <trkpt lat="43.33377" lon="5.78687">
        <ele>1144</ele>
        <time>2025-10-05T10:23:27Z</time>
      </trkpt>
      <trkpt lat="43.33377" lon="5.78687">
        <ele>1144.1</ele>
        <time>2025-10-05T10:23:28Z</time>
      </trkpt>
      <trkpt lat="43.33377" lon="5.78687">
        <ele>1144.1</ele>
        <time>2025-10-05T10:23:29Z</time>
      </trkpt>
      <trkpt lat="43.33377" lon="5.78687">
        <ele>1144.1</ele>
        <time>2025-10-05T10:23:30Z</time>
      </trkpt>
      <trkpt lat="43.33377" lon="5.78687">
        <ele>1144.1</ele>
        <time>2025-10-05T10:23:31Z</time>
      </trkpt>
      <trkpt lat="43.33377" lon="5.78687">
        <ele>1144.1</ele>
        <time>2025-10-05T10:23:32Z</time>
      </trkpt>
      <trkpt lat="43.33377" lon="5.78687">
        <ele>1144</ele>
        <time>2025-10-05T10:23:33Z</time>
      </trkpt>
      <trkpt lat="43.33377" lon="5.78687">
        <ele>1143.9</ele>
        <time>2025-10-05T10:23:34Z</time>
      </trkpt>
      <trkpt lat="43.33377" lon="5.78687">
        <ele>1143.9</ele>
        <time>2025-10-05T10:23:35Z</time>
      </trkpt>
      <trkpt lat="43.33377" lon="5.78687">
        <ele>1143.9</ele>
        <time>2025-10-05T10:23:36Z</time>
      </trkpt>
      <trkpt lat="43.33377" lon="5.78687">
        <ele>1143.9</ele>
        <time>2025-10-05T10:23:37Z</time>
      </trkpt>
      <trkpt lat="43.33377" lon="5.78687">
        <ele>1144.1</ele>
        <time>2025-10-05T10:23:38Z</time>
      </trkpt>
      <trkpt lat="43.33377" lon="5.78687">
        <ele>1144</ele>
        <time>2025-10-05T10:23:39Z</time>
      </trkpt>
      <trkpt lat="43.33377" lon="5.78687">
        <ele>1143.9</ele>
        <time>2025-10-05T10:23:40Z</time>
      </trkpt>
      <trkpt lat="43.33377" lon="5.78687">
        <ele>1143.8</ele>
        <time>2025-10-05T10:23:41Z</time>
      </trkpt>
      <trkpt lat="43.33377" lon="5.78687">
        <ele>1143.8</ele>
        <time>2025-10-05T10:23:42Z</time>
      </trkpt>
      <trkpt lat="43.33377" lon="5.78687">
        <ele>1143.7</ele>
        <time>2025-10-05T10:23:43Z</time>
      </trkpt>
      <trkpt lat="43.33377" lon="5.78688">
        <ele>1143.7</ele>
        <time>2025-10-05T10:23:44Z</time>
      </trkpt>
      <trkpt lat="43.33377" lon="5.78688">
        <ele>1143.8</ele>
        <time>2025-10-05T10:23:45Z</time>
      </trkpt>
      <trkpt lat="43.33377" lon="5.78688">
        <ele>1143.9</ele>
        <time>2025-10-05T10:23:46Z</time>
      </trkpt>
      <trkpt lat="43.33377" lon="5.78687">
        <ele>1143.9</ele>
        <time>2025-10-05T10:23:47Z</time>
      </trkpt>
      <trkpt lat="43.33377" lon="5.78688">
        <ele>1143.9</ele>
        <time>2025-10-05T10:23:48Z</time>
      </trkpt>
      <trkpt lat="43.33377" lon="5.78688">
        <ele>1143.9</ele>
        <time>2025-10-05T10:23:49Z</time>
      </trkpt>
      <trkpt lat="43.33377" lon="5.78688">
        <ele>1143.9</ele>
        <time>2025-10-05T10:23:50Z</time>
      </trkpt>
      <trkpt lat="43.33377" lon="5.78688">
        <ele>1143.9</ele>
        <time>2025-10-05T10:23:51Z</time>
      </trkpt>
      <trkpt lat="43.33377" lon="5.78688">
        <ele>1144</ele>
        <time>2025-10-05T10:23:52Z</time>
      </trkpt>
      <trkpt lat="43.33377" lon="5.78688">
        <ele>1144</ele>
        <time>2025-10-05T10:23:53Z</time>
      </trkpt>
      <trkpt lat="43.33377" lon="5.78688">
        <ele>1144</ele>
        <time>2025-10-05T10:23:54Z</time>
      </trkpt>
      <trkpt lat="43.33377" lon="5.78688">
        <ele>1144</ele>
        <time>2025-10-05T10:23:55Z</time>
      </trkpt>
      <trkpt lat="43.33377" lon="5.78688">
        <ele>1144</ele>
        <time>2025-10-05T10:23:56Z</time>
      </trkpt>
      <trkpt lat="43.33377" lon="5.78688">
        <ele>1144.1</ele>
        <time>2025-10-05T10:23:57Z</time>
      </trkpt>
      <trkpt lat="43.33377" lon="5.78688">
        <ele>1144.1</ele>
        <time>2025-10-05T10:23:58Z</time>
      </trkpt>
      <trkpt lat="43.33377" lon="5.78688">
        <ele>1144.2</ele>
        <time>2025-10-05T10:23:59Z</time>
      </trkpt>
      <trkpt lat="43.33377" lon="5.78688">
        <ele>1144.2</ele>
        <time>2025-10-05T10:24:00Z</time>
      </trkpt>
      <trkpt lat="43.33377" lon="5.78688">
        <ele>1144.3</ele>
        <time>2025-10-05T10:24:01Z</time>
      </trkpt>
      <trkpt lat="43.33377" lon="5.78688">
        <ele>1144.3</ele>
        <time>2025-10-05T10:24:02Z</time>
      </trkpt>
      <trkpt lat="43.33377" lon="5.78688">
        <ele>1144.3</ele>
        <time>2025-10-05T10:24:03Z</time>
      </trkpt>
      <trkpt lat="43.33377" lon="5.78688">
        <ele>1144.4</ele>
        <time>2025-10-05T10:24:04Z</time>
      </trkpt>
      <trkpt lat="43.33377" lon="5.78688">
        <ele>1144.5</ele>
        <time>2025-10-05T10:24:05Z</time>
      </trkpt>
      <trkpt lat="43.33377" lon="5.78688">
        <ele>1144.6</ele>
        <time>2025-10-05T10:24:06Z</time>
      </trkpt>
      <trkpt lat="43.33377" lon="5.78688">
        <ele>1144.6</ele>
        <time>2025-10-05T10:24:07Z</time>
      </trkpt>
      <trkpt lat="43.33377" lon="5.78688">
        <ele>1144.6</ele>
        <time>2025-10-05T10:24:08Z</time>
      </trkpt>
      <trkpt lat="43.33377" lon="5.78688">
        <ele>1144.7</ele>
        <time>2025-10-05T10:24:09Z</time>
      </trkpt>
      <trkpt lat="43.33377" lon="5.78688">
        <ele>1144.7</ele>
        <time>2025-10-05T10:24:10Z</time>
      </trkpt>
      <trkpt lat="43.33377" lon="5.78688">
        <ele>1144.6</ele>
        <time>2025-10-05T10:24:11Z</time>
      </trkpt>
      <trkpt lat="43.33377" lon="5.78688">
        <ele>1144.6</ele>
        <time>2025-10-05T10:24:12Z</time>
      </trkpt>
      <trkpt lat="43.33377" lon="5.78688">
        <ele>1144.6</ele>
        <time>2025-10-05T10:24:13Z</time>
      </trkpt>
      <trkpt lat="43.33377" lon="5.78688">
        <ele>1144.5</ele>
        <time>2025-10-05T10:24:14Z</time>
      </trkpt>
      <trkpt lat="43.33377" lon="5.78689">
        <ele>1144.5</ele>
        <time>2025-10-05T10:24:15Z</time>
      </trkpt>
      <trkpt lat="43.33377" lon="5.78689">
        <ele>1144.3</ele>
        <time>2025-10-05T10:24:16Z</time>
      </trkpt>
      <trkpt lat="43.33377" lon="5.78689">
        <ele>1144.5</ele>
        <time>2025-10-05T10:24:17Z</time>
      </trkpt>
      <trkpt lat="43.33377" lon="5.78689">
        <ele>1144.7</ele>
        <time>2025-10-05T10:24:18Z</time>
      </trkpt>
      <trkpt lat="43.33377" lon="5.78689">
        <ele>1144.8</ele>
        <time>2025-10-05T10:24:19Z</time>
      </trkpt>
      <trkpt lat="43.33377" lon="5.78689">
        <ele>1144.9</ele>
        <time>2025-10-05T10:24:20Z</time>
      </trkpt>
      <trkpt lat="43.33377" lon="5.78689">
        <ele>1144.8</ele>
        <time>2025-10-05T10:24:21Z</time>
      </trkpt>
      <trkpt lat="43.33377" lon="5.78688">
        <ele>1144.8</ele>
        <time>2025-10-05T10:24:22Z</time>
      </trkpt>
      <trkpt lat="43.33377" lon="5.78689">
        <ele>1144.7</ele>
        <time>2025-10-05T10:24:23Z</time>
      </trkpt>
      <trkpt lat="43.33377" lon="5.78689">
        <ele>1144.7</ele>
        <time>2025-10-05T10:24:24Z</time>
      </trkpt>
      <trkpt lat="43.33377" lon="5.78689">
        <ele>1144.8</ele>
        <time>2025-10-05T10:24:25Z</time>
      </trkpt>
      <trkpt lat="43.33377" lon="5.78689">
        <ele>1144.7</ele>
        <time>2025-10-05T10:24:26Z</time>
      </trkpt>
      <trkpt lat="43.33377" lon="5.78688">
        <ele>1144.5</ele>
        <time>2025-10-05T10:24:27Z</time>
      </trkpt>
      <trkpt lat="43.33377" lon="5.78688">
        <ele>1144.5</ele>
        <time>2025-10-05T10:24:28Z</time>
      </trkpt>
      <trkpt lat="43.33376" lon="5.78688">
        <ele>1144.5</ele>
        <time>2025-10-05T10:24:29Z</time>
      </trkpt>
      <trkpt lat="43.33376" lon="5.78689">
        <ele>1144.6</ele>
        <time>2025-10-05T10:24:30Z</time>
      </trkpt>
      <trkpt lat="43.33376" lon="5.78688">
        <ele>1144.7</ele>
        <time>2025-10-05T10:24:31Z</time>
      </trkpt>
      <trkpt lat="43.33376" lon="5.78688">
        <ele>1144.8</ele>
        <time>2025-10-05T10:24:32Z</time>
      </trkpt>
      <trkpt lat="43.33376" lon="5.78688">
        <ele>1144.8</ele>
        <time>2025-10-05T10:24:33Z</time>
      </trkpt>
      <trkpt lat="43.33376" lon="5.78688">
        <ele>1144.8</ele>
        <time>2025-10-05T10:24:34Z</time>
      </trkpt>
      <trkpt lat="43.33376" lon="5.78688">
        <ele>1144.8</ele>
        <time>2025-10-05T10:24:35Z</time>
      </trkpt>
      <trkpt lat="43.33376" lon="5.78688">
        <ele>1144.8</ele>
        <time>2025-10-05T10:24:36Z</time>
      </trkpt>
      <trkpt lat="43.33376" lon="5.78688">
        <ele>1144.9</ele>
        <time>2025-10-05T10:24:37Z</time>
      </trkpt>
      <trkpt lat="43.33376" lon="5.78688">
        <ele>1144.9</ele>
        <time>2025-10-05T10:24:38Z</time>
      </trkpt>
      <trkpt lat="43.33376" lon="5.78688">
        <ele>1144.9</ele>
        <time>2025-10-05T10:24:39Z</time>
      </trkpt>
      <trkpt lat="43.33376" lon="5.78688">
        <ele>1145</ele>
        <time>2025-10-05T10:24:40Z</time>
      </trkpt>
      <trkpt lat="43.33376" lon="5.78688">
        <ele>1145</ele>
        <time>2025-10-05T10:24:41Z</time>
      </trkpt>
      <trkpt lat="43.33376" lon="5.78688">
        <ele>1145</ele>
        <time>2025-10-05T10:24:42Z</time>
      </trkpt>
      <trkpt lat="43.33376" lon="5.78688">
        <ele>1145</ele>
        <time>2025-10-05T10:24:43Z</time>
      </trkpt>
      <trkpt lat="43.33376" lon="5.78688">
        <ele>1145</ele>
        <time>2025-10-05T10:24:44Z</time>
      </trkpt>
      <trkpt lat="43.33376" lon="5.78688">
        <ele>1145</ele>
        <time>2025-10-05T10:24:45Z</time>
      </trkpt>
      <trkpt lat="43.33376" lon="5.78688">
        <ele>1144.9</ele>
        <time>2025-10-05T10:24:46Z</time>
      </trkpt>
      <trkpt lat="43.33377" lon="5.78688">
        <ele>1144.8</ele>
        <time>2025-10-05T10:24:47Z</time>
      </trkpt>
      <trkpt lat="43.33377" lon="5.78688">
        <ele>1144.7</ele>
        <time>2025-10-05T10:24:48Z</time>
      </trkpt>
      <trkpt lat="43.33377" lon="5.78688">
        <ele>1144.6</ele>
        <time>2025-10-05T10:24:49Z</time>
      </trkpt>
      <trkpt lat="43.33377" lon="5.78688">
        <ele>1144.6</ele>
        <time>2025-10-05T10:24:50Z</time>
      </trkpt>
      <trkpt lat="43.33377" lon="5.78688">
        <ele>1144.5</ele>
        <time>2025-10-05T10:24:51Z</time>
      </trkpt>
      <trkpt lat="43.33377" lon="5.78688">
        <ele>1144.4</ele>
        <time>2025-10-05T10:24:52Z</time>
      </trkpt>
      <trkpt lat="43.33377" lon="5.78688">
        <ele>1144.4</ele>
        <time>2025-10-05T10:24:53Z</time>
      </trkpt>
      <trkpt lat="43.33377" lon="5.78688">
        <ele>1144.4</ele>
        <time>2025-10-05T10:24:54Z</time>
      </trkpt>
      <trkpt lat="43.33377" lon="5.78688">
        <ele>1144.4</ele>
        <time>2025-10-05T10:24:55Z</time>
      </trkpt>
      <trkpt lat="43.33377" lon="5.78688">
        <ele>1144.5</ele>
        <time>2025-10-05T10:24:56Z</time>
      </trkpt>
      <trkpt lat="43.33377" lon="5.78688">
        <ele>1144.6</ele>
        <time>2025-10-05T10:24:57Z</time>
      </trkpt>
      <trkpt lat="43.33377" lon="5.78688">
        <ele>1144.7</ele>
        <time>2025-10-05T10:24:58Z</time>
      </trkpt>
      <trkpt lat="43.33377" lon="5.78688">
        <ele>1144.7</ele>
        <time>2025-10-05T10:24:59Z</time>
      </trkpt>
      <trkpt lat="43.33377" lon="5.78688">
        <ele>1144.7</ele>
        <time>2025-10-05T10:25:00Z</time>
      </trkpt>
      <trkpt lat="43.33377" lon="5.78688">
        <ele>1144.7</ele>
        <time>2025-10-05T10:25:01Z</time>
      </trkpt>
      <trkpt lat="43.33378" lon="5.78688">
        <ele>1144.7</ele>
        <time>2025-10-05T10:25:02Z</time>
      </trkpt>
      <trkpt lat="43.33378" lon="5.78688">
        <ele>1144.5</ele>
        <time>2025-10-05T10:25:03Z</time>
      </trkpt>
      <trkpt lat="43.33378" lon="5.78688">
        <ele>1144.4</ele>
        <time>2025-10-05T10:25:04Z</time>
      </trkpt>
      <trkpt lat="43.33378" lon="5.78688">
        <ele>1144.5</ele>
        <time>2025-10-05T10:25:05Z</time>
      </trkpt>
      <trkpt lat="43.33377" lon="5.78688">
        <ele>1144.4</ele>
        <time>2025-10-05T10:25:06Z</time>
      </trkpt>
      <trkpt lat="43.33377" lon="5.78688">
        <ele>1144.3</ele>
        <time>2025-10-05T10:25:07Z</time>
      </trkpt>
      <trkpt lat="43.33377" lon="5.78688">
        <ele>1144.2</ele>
        <time>2025-10-05T10:25:08Z</time>
      </trkpt>
      <trkpt lat="43.33377" lon="5.78688">
        <ele>1144.1</ele>
        <time>2025-10-05T10:25:09Z</time>
      </trkpt>
      <trkpt lat="43.33377" lon="5.78688">
        <ele>1144.2</ele>
        <time>2025-10-05T10:25:10Z</time>
      </trkpt>
      <trkpt lat="43.33377" lon="5.78688">
        <ele>1144.3</ele>
        <time>2025-10-05T10:25:11Z</time>
      </trkpt>
      <trkpt lat="43.33377" lon="5.78688">
        <ele>1144.4</ele>
        <time>2025-10-05T10:25:12Z</time>
      </trkpt>
      <trkpt lat="43.33378" lon="5.78688">
        <ele>1144.5</ele>
        <time>2025-10-05T10:25:13Z</time>
      </trkpt>
      <trkpt lat="43.33377" lon="5.78688">
        <ele>1144.6</ele>
        <time>2025-10-05T10:25:14Z</time>
      </trkpt>
      <trkpt lat="43.33378" lon="5.78688">
        <ele>1144.6</ele>
        <time>2025-10-05T10:25:15Z</time>
      </trkpt>
      <trkpt lat="43.33378" lon="5.78688">
        <ele>1144.7</ele>
        <time>2025-10-05T10:25:16Z</time>
      </trkpt>
      <trkpt lat="43.33378" lon="5.78688">
        <ele>1144.7</ele>
        <time>2025-10-05T10:25:17Z</time>
      </trkpt>
      <trkpt lat="43.33378" lon="5.78688">
        <ele>1144.8</ele>
        <time>2025-10-05T10:25:18Z</time>
      </trkpt>
      <trkpt lat="43.33377" lon="5.78688">
        <ele>1144.9</ele>
        <time>2025-10-05T10:25:19Z</time>
      </trkpt>
      <trkpt lat="43.33377" lon="5.78688">
        <ele>1144.9</ele>
        <time>2025-10-05T10:25:20Z</time>
      </trkpt>
      <trkpt lat="43.33377" lon="5.78688">
        <ele>1144.8</ele>
        <time>2025-10-05T10:25:21Z</time>
      </trkpt>
      <trkpt lat="43.33377" lon="5.78688">
        <ele>1144.8</ele>
        <time>2025-10-05T10:25:22Z</time>
      </trkpt>
      <trkpt lat="43.33377" lon="5.78687">
        <ele>1144.8</ele>
        <time>2025-10-05T10:25:23Z</time>
      </trkpt>
      <trkpt lat="43.33377" lon="5.78687">
        <ele>1144.8</ele>
        <time>2025-10-05T10:25:24Z</time>
      </trkpt>
      <trkpt lat="43.33377" lon="5.78687">
        <ele>1144.9</ele>
        <time>2025-10-05T10:25:25Z</time>
      </trkpt>
      <trkpt lat="43.33377" lon="5.78687">
        <ele>1145</ele>
        <time>2025-10-05T10:25:26Z</time>
      </trkpt>
      <trkpt lat="43.33377" lon="5.78687">
        <ele>1145</ele>
        <time>2025-10-05T10:25:27Z</time>
      </trkpt>
      <trkpt lat="43.33377" lon="5.78687">
        <ele>1145.1</ele>
        <time>2025-10-05T10:25:28Z</time>
      </trkpt>
      <trkpt lat="43.33377" lon="5.78687">
        <ele>1145.1</ele>
        <time>2025-10-05T10:25:29Z</time>
      </trkpt>
      <trkpt lat="43.33377" lon="5.78687">
        <ele>1145.2</ele>
        <time>2025-10-05T10:25:30Z</time>
      </trkpt>
      <trkpt lat="43.33377" lon="5.78687">
        <ele>1145.3</ele>
        <time>2025-10-05T10:25:31Z</time>
      </trkpt>
      <trkpt lat="43.33377" lon="5.78687">
        <ele>1145.5</ele>
        <time>2025-10-05T10:25:32Z</time>
      </trkpt>
      <trkpt lat="43.33377" lon="5.78687">
        <ele>1145.6</ele>
        <time>2025-10-05T10:25:33Z</time>
      </trkpt>
      <trkpt lat="43.33377" lon="5.78687">
        <ele>1145.8</ele>
        <time>2025-10-05T10:25:34Z</time>
      </trkpt>
      <trkpt lat="43.33377" lon="5.78686">
        <ele>1145.8</ele>
        <time>2025-10-05T10:25:35Z</time>
      </trkpt>
      <trkpt lat="43.33377" lon="5.78686">
        <ele>1145.8</ele>
        <time>2025-10-05T10:25:36Z</time>
      </trkpt>
      <trkpt lat="43.33377" lon="5.78686">
        <ele>1145.8</ele>
        <time>2025-10-05T10:25:37Z</time>
      </trkpt>
      <trkpt lat="43.33377" lon="5.78686">
        <ele>1145.8</ele>
        <time>2025-10-05T10:25:38Z</time>
      </trkpt>
      <trkpt lat="43.33377" lon="5.78686">
        <ele>1145.7</ele>
        <time>2025-10-05T10:25:39Z</time>
      </trkpt>
      <trkpt lat="43.33377" lon="5.78686">
        <ele>1145.7</ele>
        <time>2025-10-05T10:25:40Z</time>
      </trkpt>
      <trkpt lat="43.33377" lon="5.78685">
        <ele>1145.7</ele>
        <time>2025-10-05T10:25:41Z</time>
      </trkpt>
      <trkpt lat="43.33377" lon="5.78685">
        <ele>1145.7</ele>
        <time>2025-10-05T10:25:42Z</time>
      </trkpt>
      <trkpt lat="43.33377" lon="5.78685">
        <ele>1145.7</ele>
        <time>2025-10-05T10:25:43Z</time>
      </trkpt>
      <trkpt lat="43.33376" lon="5.78685">
        <ele>1145.6</ele>
        <time>2025-10-05T10:25:44Z</time>
      </trkpt>
      <trkpt lat="43.33376" lon="5.78685">
        <ele>1145.6</ele>
        <time>2025-10-05T10:25:45Z</time>
      </trkpt>
      <trkpt lat="43.33376" lon="5.78685">
        <ele>1145.5</ele>
        <time>2025-10-05T10:25:46Z</time>
      </trkpt>
      <trkpt lat="43.33376" lon="5.78685">
        <ele>1145.6</ele>
        <time>2025-10-05T10:25:47Z</time>
      </trkpt>
      <trkpt lat="43.33376" lon="5.78685">
        <ele>1145.5</ele>
        <time>2025-10-05T10:25:48Z</time>
      </trkpt>
      <trkpt lat="43.33376" lon="5.78685">
        <ele>1145.4</ele>
        <time>2025-10-05T10:25:49Z</time>
      </trkpt>
      <trkpt lat="43.33376" lon="5.78685">
        <ele>1145.3</ele>
        <time>2025-10-05T10:25:50Z</time>
      </trkpt>
      <trkpt lat="43.33376" lon="5.78685">
        <ele>1145.3</ele>
        <time>2025-10-05T10:25:51Z</time>
      </trkpt>
      <trkpt lat="43.33376" lon="5.78685">
        <ele>1145.5</ele>
        <time>2025-10-05T10:25:52Z</time>
      </trkpt>
      <trkpt lat="43.33376" lon="5.78685">
        <ele>1145.5</ele>
        <time>2025-10-05T10:25:53Z</time>
      </trkpt>
      <trkpt lat="43.33376" lon="5.78684">
        <ele>1145.5</ele>
        <time>2025-10-05T10:25:54Z</time>
      </trkpt>
      <trkpt lat="43.33376" lon="5.78684">
        <ele>1145.5</ele>
        <time>2025-10-05T10:25:55Z</time>
      </trkpt>
      <trkpt lat="43.33376" lon="5.78684">
        <ele>1145.4</ele>
        <time>2025-10-05T10:25:56Z</time>
      </trkpt>
      <trkpt lat="43.33376" lon="5.78684">
        <ele>1145.4</ele>
        <time>2025-10-05T10:25:57Z</time>
      </trkpt>
      <trkpt lat="43.33376" lon="5.78684">
        <ele>1145.3</ele>
        <time>2025-10-05T10:25:58Z</time>
      </trkpt>
      <trkpt lat="43.33376" lon="5.78684">
        <ele>1145.3</ele>
        <time>2025-10-05T10:25:59Z</time>
      </trkpt>
      <trkpt lat="43.33375" lon="5.78684">
        <ele>1145.2</ele>
        <time>2025-10-05T10:26:00Z</time>
      </trkpt>
      <trkpt lat="43.33375" lon="5.78685">
        <ele>1145.3</ele>
        <time>2025-10-05T10:26:01Z</time>
      </trkpt>
      <trkpt lat="43.33375" lon="5.78685">
        <ele>1145.2</ele>
        <time>2025-10-05T10:26:02Z</time>
      </trkpt>
      <trkpt lat="43.33375" lon="5.78685">
        <ele>1145.2</ele>
        <time>2025-10-05T10:26:03Z</time>
      </trkpt>
      <trkpt lat="43.33375" lon="5.78685">
        <ele>1145.2</ele>
        <time>2025-10-05T10:26:04Z</time>
      </trkpt>
      <trkpt lat="43.33375" lon="5.78685">
        <ele>1145.2</ele>
        <time>2025-10-05T10:26:05Z</time>
      </trkpt>
      <trkpt lat="43.33375" lon="5.78685">
        <ele>1145.2</ele>
        <time>2025-10-05T10:26:06Z</time>
      </trkpt>
      <trkpt lat="43.33375" lon="5.78685">
        <ele>1145.2</ele>
        <time>2025-10-05T10:26:07Z</time>
      </trkpt>
      <trkpt lat="43.33375" lon="5.78685">
        <ele>1145.1</ele>
        <time>2025-10-05T10:26:08Z</time>
      </trkpt>
      <trkpt lat="43.33375" lon="5.78685">
        <ele>1145.1</ele>
        <time>2025-10-05T10:26:09Z</time>
      </trkpt>
      <trkpt lat="43.33375" lon="5.78685">
        <ele>1145.2</ele>
        <time>2025-10-05T10:26:10Z</time>
      </trkpt>
      <trkpt lat="43.33375" lon="5.78685">
        <ele>1145.2</ele>
        <time>2025-10-05T10:26:11Z</time>
      </trkpt>
      <trkpt lat="43.33375" lon="5.78685">
        <ele>1145.3</ele>
        <time>2025-10-05T10:26:12Z</time>
      </trkpt>
      <trkpt lat="43.33375" lon="5.78685">
        <ele>1145.2</ele>
        <time>2025-10-05T10:26:13Z</time>
      </trkpt>
      <trkpt lat="43.33375" lon="5.78685">
        <ele>1145.2</ele>
        <time>2025-10-05T10:26:14Z</time>
      </trkpt>
      <trkpt lat="43.33375" lon="5.78685">
        <ele>1145.1</ele>
        <time>2025-10-05T10:26:15Z</time>
      </trkpt>
      <trkpt lat="43.33375" lon="5.78685">
        <ele>1144.9</ele>
        <time>2025-10-05T10:26:16Z</time>
      </trkpt>
      <trkpt lat="43.33374" lon="5.78685">
        <ele>1144.9</ele>
        <time>2025-10-05T10:26:17Z</time>
      </trkpt>
      <trkpt lat="43.33374" lon="5.78685">
        <ele>1144.9</ele>
        <time>2025-10-05T10:26:18Z</time>
      </trkpt>
      <trkpt lat="43.33374" lon="5.78685">
        <ele>1144.9</ele>
        <time>2025-10-05T10:26:19Z</time>
      </trkpt>
      <trkpt lat="43.33374" lon="5.78685">
        <ele>1144.8</ele>
        <time>2025-10-05T10:26:20Z</time>
      </trkpt>
      <trkpt lat="43.33374" lon="5.78685">
        <ele>1144.8</ele>
        <time>2025-10-05T10:26:21Z</time>
      </trkpt>
      <trkpt lat="43.33374" lon="5.78685">
        <ele>1144.8</ele>
        <time>2025-10-05T10:26:22Z</time>
      </trkpt>
      <trkpt lat="43.33374" lon="5.78685">
        <ele>1144.7</ele>
        <time>2025-10-05T10:26:23Z</time>
      </trkpt>
      <trkpt lat="43.33374" lon="5.78685">
        <ele>1144.6</ele>
        <time>2025-10-05T10:26:24Z</time>
      </trkpt>
      <trkpt lat="43.33374" lon="5.78685">
        <ele>1144.6</ele>
        <time>2025-10-05T10:26:25Z</time>
      </trkpt>
      <trkpt lat="43.33374" lon="5.78685">
        <ele>1144.5</ele>
        <time>2025-10-05T10:26:26Z</time>
      </trkpt>
      <trkpt lat="43.33374" lon="5.78685">
        <ele>1144.4</ele>
        <time>2025-10-05T10:26:27Z</time>
      </trkpt>
      <trkpt lat="43.33374" lon="5.78685">
        <ele>1144.4</ele>
        <time>2025-10-05T10:26:28Z</time>
      </trkpt>
      <trkpt lat="43.33374" lon="5.78685">
        <ele>1144.4</ele>
        <time>2025-10-05T10:26:29Z</time>
      </trkpt>
      <trkpt lat="43.33374" lon="5.78685">
        <ele>1144.4</ele>
        <time>2025-10-05T10:26:30Z</time>
      </trkpt>
      <trkpt lat="43.33374" lon="5.78685">
        <ele>1144.4</ele>
        <time>2025-10-05T10:26:31Z</time>
      </trkpt>
      <trkpt lat="43.33374" lon="5.78685">
        <ele>1144.5</ele>
        <time>2025-10-05T10:26:32Z</time>
      </trkpt>
      <trkpt lat="43.33374" lon="5.78685">
        <ele>1144.6</ele>
        <time>2025-10-05T10:26:33Z</time>
      </trkpt>
      <trkpt lat="43.33374" lon="5.78686">
        <ele>1144.6</ele>
        <time>2025-10-05T10:26:34Z</time>
      </trkpt>
      <trkpt lat="43.33374" lon="5.78686">
        <ele>1144.5</ele>
        <time>2025-10-05T10:26:35Z</time>
      </trkpt>
      <trkpt lat="43.33374" lon="5.78686">
        <ele>1144.5</ele>
        <time>2025-10-05T10:26:36Z</time>
      </trkpt>
      <trkpt lat="43.33374" lon="5.78686">
        <ele>1144.5</ele>
        <time>2025-10-05T10:26:37Z</time>
      </trkpt>
      <trkpt lat="43.33374" lon="5.78686">
        <ele>1144.4</ele>
        <time>2025-10-05T10:26:38Z</time>
      </trkpt>
      <trkpt lat="43.33374" lon="5.78686">
        <ele>1144.5</ele>
        <time>2025-10-05T10:26:39Z</time>
      </trkpt>
      <trkpt lat="43.33374" lon="5.78686">
        <ele>1144.5</ele>
        <time>2025-10-05T10:26:40Z</time>
      </trkpt>
      <trkpt lat="43.33374" lon="5.78686">
        <ele>1144.4</ele>
        <time>2025-10-05T10:26:41Z</time>
      </trkpt>
      <trkpt lat="43.33374" lon="5.78686">
        <ele>1144.3</ele>
        <time>2025-10-05T10:26:42Z</time>
      </trkpt>
      <trkpt lat="43.33374" lon="5.78686">
        <ele>1144.2</ele>
        <time>2025-10-05T10:26:43Z</time>
      </trkpt>
      <trkpt lat="43.33374" lon="5.78686">
        <ele>1144.2</ele>
        <time>2025-10-05T10:26:44Z</time>
      </trkpt>
      <trkpt lat="43.33374" lon="5.78686">
        <ele>1144.2</ele>
        <time>2025-10-05T10:26:45Z</time>
      </trkpt>
      <trkpt lat="43.33374" lon="5.78686">
        <ele>1144.3</ele>
        <time>2025-10-05T10:26:46Z</time>
      </trkpt>
      <trkpt lat="43.33374" lon="5.78686">
        <ele>1144.3</ele>
        <time>2025-10-05T10:26:47Z</time>
      </trkpt>
      <trkpt lat="43.33374" lon="5.78686">
        <ele>1144.3</ele>
        <time>2025-10-05T10:26:48Z</time>
      </trkpt>
      <trkpt lat="43.33373" lon="5.78686">
        <ele>1144.4</ele>
        <time>2025-10-05T10:26:49Z</time>
      </trkpt>
      <trkpt lat="43.33374" lon="5.78686">
        <ele>1144.4</ele>
        <time>2025-10-05T10:26:50Z</time>
      </trkpt>
      <trkpt lat="43.33374" lon="5.78686">
        <ele>1144.3</ele>
        <time>2025-10-05T10:26:51Z</time>
      </trkpt>
      <trkpt lat="43.33373" lon="5.78687">
        <ele>1144.2</ele>
        <time>2025-10-05T10:26:52Z</time>
      </trkpt>
      <trkpt lat="43.33373" lon="5.78687">
        <ele>1144.1</ele>
        <time>2025-10-05T10:26:53Z</time>
      </trkpt>
      <trkpt lat="43.33373" lon="5.78687">
        <ele>1144.2</ele>
        <time>2025-10-05T10:26:54Z</time>
      </trkpt>
      <trkpt lat="43.33373" lon="5.78687">
        <ele>1144.2</ele>
        <time>2025-10-05T10:26:55Z</time>
      </trkpt>
      <trkpt lat="43.33373" lon="5.78687">
        <ele>1144.3</ele>
        <time>2025-10-05T10:26:56Z</time>
      </trkpt>
      <trkpt lat="43.33373" lon="5.78687">
        <ele>1144.4</ele>
        <time>2025-10-05T10:26:57Z</time>
      </trkpt>
      <trkpt lat="43.33373" lon="5.78687">
        <ele>1144.5</ele>
        <time>2025-10-05T10:26:58Z</time>
      </trkpt>
      <trkpt lat="43.33373" lon="5.78687">
        <ele>1144.5</ele>
        <time>2025-10-05T10:26:59Z</time>
      </trkpt>
      <trkpt lat="43.33373" lon="5.78687">
        <ele>1144.5</ele>
        <time>2025-10-05T10:27:00Z</time>
      </trkpt>
      <trkpt lat="43.33373" lon="5.78688">
        <ele>1144.5</ele>
        <time>2025-10-05T10:27:01Z</time>
      </trkpt>
      <trkpt lat="43.33372" lon="5.78688">
        <ele>1144.4</ele>
        <time>2025-10-05T10:27:02Z</time>
      </trkpt>
      <trkpt lat="43.33372" lon="5.78688">
        <ele>1144.3</ele>
        <time>2025-10-05T10:27:03Z</time>
      </trkpt>
      <trkpt lat="43.33372" lon="5.78688">
        <ele>1144.2</ele>
        <time>2025-10-05T10:27:04Z</time>
      </trkpt>
      <trkpt lat="43.33372" lon="5.78688">
        <ele>1144.2</ele>
        <time>2025-10-05T10:27:05Z</time>
      </trkpt>
      <trkpt lat="43.33372" lon="5.78688">
        <ele>1144.4</ele>
        <time>2025-10-05T10:27:06Z</time>
      </trkpt>
      <trkpt lat="43.33372" lon="5.78688">
        <ele>1144.4</ele>
        <time>2025-10-05T10:27:07Z</time>
      </trkpt>
      <trkpt lat="43.33372" lon="5.78688">
        <ele>1144.3</ele>
        <time>2025-10-05T10:27:08Z</time>
      </trkpt>
      <trkpt lat="43.33372" lon="5.78688">
        <ele>1144.3</ele>
        <time>2025-10-05T10:27:09Z</time>
      </trkpt>
      <trkpt lat="43.33372" lon="5.78688">
        <ele>1144.2</ele>
        <time>2025-10-05T10:27:10Z</time>
      </trkpt>
      <trkpt lat="43.33372" lon="5.78688">
        <ele>1144.1</ele>
        <time>2025-10-05T10:27:11Z</time>
      </trkpt>
      <trkpt lat="43.33372" lon="5.78688">
        <ele>1144</ele>
        <time>2025-10-05T10:27:12Z</time>
      </trkpt>
      <trkpt lat="43.33372" lon="5.78688">
        <ele>1144.1</ele>
        <time>2025-10-05T10:27:13Z</time>
      </trkpt>
      <trkpt lat="43.33372" lon="5.78688">
        <ele>1144.1</ele>
        <time>2025-10-05T10:27:14Z</time>
      </trkpt>
      <trkpt lat="43.33372" lon="5.78688">
        <ele>1144.1</ele>
        <time>2025-10-05T10:27:15Z</time>
      </trkpt>
      <trkpt lat="43.33372" lon="5.78688">
        <ele>1144.1</ele>
        <time>2025-10-05T10:27:16Z</time>
      </trkpt>
      <trkpt lat="43.33372" lon="5.78688">
        <ele>1144.1</ele>
        <time>2025-10-05T10:27:17Z</time>
      </trkpt>
      <trkpt lat="43.33372" lon="5.78688">
        <ele>1144.2</ele>
        <time>2025-10-05T10:27:18Z</time>
      </trkpt>
      <trkpt lat="43.33372" lon="5.78688">
        <ele>1144.1</ele>
        <time>2025-10-05T10:27:19Z</time>
      </trkpt>
      <trkpt lat="43.33372" lon="5.78688">
        <ele>1144</ele>
        <time>2025-10-05T10:27:20Z</time>
      </trkpt>
      <trkpt lat="43.33372" lon="5.78688">
        <ele>1144</ele>
        <time>2025-10-05T10:27:21Z</time>
      </trkpt>
      <trkpt lat="43.33372" lon="5.78688">
        <ele>1144</ele>
        <time>2025-10-05T10:27:22Z</time>
      </trkpt>
      <trkpt lat="43.33372" lon="5.78688">
        <ele>1144</ele>
        <time>2025-10-05T10:27:23Z</time>
      </trkpt>
      <trkpt lat="43.33372" lon="5.78688">
        <ele>1143.8</ele>
        <time>2025-10-05T10:27:24Z</time>
      </trkpt>
      <trkpt lat="43.33372" lon="5.78689">
        <ele>1143.8</ele>
        <time>2025-10-05T10:27:25Z</time>
      </trkpt>
      <trkpt lat="43.33372" lon="5.78689">
        <ele>1143.7</ele>
        <time>2025-10-05T10:27:26Z</time>
      </trkpt>
      <trkpt lat="43.33372" lon="5.78689">
        <ele>1143.6</ele>
        <time>2025-10-05T10:27:27Z</time>
      </trkpt>
      <trkpt lat="43.33372" lon="5.78688">
        <ele>1143.5</ele>
        <time>2025-10-05T10:27:28Z</time>
      </trkpt>
      <trkpt lat="43.33372" lon="5.78688">
        <ele>1143.5</ele>
        <time>2025-10-05T10:27:29Z</time>
      </trkpt>
      <trkpt lat="43.33372" lon="5.78688">
        <ele>1143.5</ele>
        <time>2025-10-05T10:27:30Z</time>
      </trkpt>
      <trkpt lat="43.33372" lon="5.78688">
        <ele>1143.6</ele>
        <time>2025-10-05T10:27:31Z</time>
      </trkpt>
      <trkpt lat="43.33372" lon="5.78688">
        <ele>1143.7</ele>
        <time>2025-10-05T10:27:32Z</time>
      </trkpt>
      <trkpt lat="43.33372" lon="5.78688">
        <ele>1143.8</ele>
        <time>2025-10-05T10:27:33Z</time>
      </trkpt>
      <trkpt lat="43.33372" lon="5.78688">
        <ele>1143.7</ele>
        <time>2025-10-05T10:27:34Z</time>
      </trkpt>
      <trkpt lat="43.33372" lon="5.78688">
        <ele>1143.6</ele>
        <time>2025-10-05T10:27:35Z</time>
      </trkpt>
      <trkpt lat="43.33372" lon="5.78687">
        <ele>1143.6</ele>
        <time>2025-10-05T10:27:36Z</time>
      </trkpt>
      <trkpt lat="43.33373" lon="5.78687">
        <ele>1143.6</ele>
        <time>2025-10-05T10:27:37Z</time>
      </trkpt>
      <trkpt lat="43.33373" lon="5.78687">
        <ele>1143.6</ele>
        <time>2025-10-05T10:27:38Z</time>
      </trkpt>
      <trkpt lat="43.33373" lon="5.78687">
        <ele>1143.6</ele>
        <time>2025-10-05T10:27:39Z</time>
      </trkpt>
      <trkpt lat="43.33373" lon="5.78687">
        <ele>1143.6</ele>
        <time>2025-10-05T10:27:40Z</time>
      </trkpt>
      <trkpt lat="43.33373" lon="5.78687">
        <ele>1143.6</ele>
        <time>2025-10-05T10:27:41Z</time>
      </trkpt>
      <trkpt lat="43.33373" lon="5.78687">
        <ele>1143.6</ele>
        <time>2025-10-05T10:27:42Z</time>
      </trkpt>
      <trkpt lat="43.33373" lon="5.78687">
        <ele>1143.6</ele>
        <time>2025-10-05T10:27:43Z</time>
      </trkpt>
      <trkpt lat="43.33373" lon="5.78687">
        <ele>1143.6</ele>
        <time>2025-10-05T10:27:44Z</time>
      </trkpt>
      <trkpt lat="43.33373" lon="5.78687">
        <ele>1143.5</ele>
        <time>2025-10-05T10:27:45Z</time>
      </trkpt>
      <trkpt lat="43.33373" lon="5.78687">
        <ele>1143.5</ele>
        <time>2025-10-05T10:27:46Z</time>
      </trkpt>
      <trkpt lat="43.33373" lon="5.78687">
        <ele>1143.5</ele>
        <time>2025-10-05T10:27:47Z</time>
      </trkpt>
      <trkpt lat="43.33373" lon="5.78687">
        <ele>1143.5</ele>
        <time>2025-10-05T10:27:48Z</time>
      </trkpt>
      <trkpt lat="43.33373" lon="5.78687">
        <ele>1143.5</ele>
        <time>2025-10-05T10:27:49Z</time>
      </trkpt>
      <trkpt lat="43.33373" lon="5.78687">
        <ele>1143.4</ele>
        <time>2025-10-05T10:27:50Z</time>
      </trkpt>
      <trkpt lat="43.33373" lon="5.78687">
        <ele>1143.5</ele>
        <time>2025-10-05T10:27:51Z</time>
      </trkpt>
      <trkpt lat="43.33373" lon="5.78687">
        <ele>1143.5</ele>
        <time>2025-10-05T10:27:52Z</time>
      </trkpt>
      <trkpt lat="43.33372" lon="5.78687">
        <ele>1143.6</ele>
        <time>2025-10-05T10:27:53Z</time>
      </trkpt>
      <trkpt lat="43.33372" lon="5.78688">
        <ele>1143.6</ele>
        <time>2025-10-05T10:27:54Z</time>
      </trkpt>
      <trkpt lat="43.33372" lon="5.78688">
        <ele>1143.6</ele>
        <time>2025-10-05T10:27:55Z</time>
      </trkpt>
      <trkpt lat="43.33372" lon="5.78688">
        <ele>1143.7</ele>
        <time>2025-10-05T10:27:56Z</time>
      </trkpt>
      <trkpt lat="43.33372" lon="5.78688">
        <ele>1143.8</ele>
        <time>2025-10-05T10:27:57Z</time>
      </trkpt>
      <trkpt lat="43.33372" lon="5.78688">
        <ele>1143.8</ele>
        <time>2025-10-05T10:27:58Z</time>
      </trkpt>
      <trkpt lat="43.33372" lon="5.78688">
        <ele>1143.8</ele>
        <time>2025-10-05T10:27:59Z</time>
      </trkpt>
      <trkpt lat="43.33372" lon="5.78688">
        <ele>1143.8</ele>
        <time>2025-10-05T10:28:00Z</time>
      </trkpt>
      <trkpt lat="43.33372" lon="5.78688">
        <ele>1143.8</ele>
        <time>2025-10-05T10:28:01Z</time>
      </trkpt>
      <trkpt lat="43.33372" lon="5.78689">
        <ele>1143.8</ele>
        <time>2025-10-05T10:28:02Z</time>
      </trkpt>
      <trkpt lat="43.33372" lon="5.78689">
        <ele>1143.8</ele>
        <time>2025-10-05T10:28:03Z</time>
      </trkpt>
      <trkpt lat="43.33372" lon="5.78689">
        <ele>1143.8</ele>
        <time>2025-10-05T10:28:04Z</time>
      </trkpt>
      <trkpt lat="43.33372" lon="5.78689">
        <ele>1143.8</ele>
        <time>2025-10-05T10:28:05Z</time>
      </trkpt>
      <trkpt lat="43.33371" lon="5.78689">
        <ele>1143.8</ele>
        <time>2025-10-05T10:28:06Z</time>
      </trkpt>
      <trkpt lat="43.33371" lon="5.78689">
        <ele>1143.8</ele>
        <time>2025-10-05T10:28:07Z</time>
      </trkpt>
      <trkpt lat="43.33372" lon="5.78689">
        <ele>1143.9</ele>
        <time>2025-10-05T10:28:08Z</time>
      </trkpt>
      <trkpt lat="43.33372" lon="5.78689">
        <ele>1144</ele>
        <time>2025-10-05T10:28:09Z</time>
      </trkpt>
      <trkpt lat="43.33371" lon="5.78689">
        <ele>1144.1</ele>
        <time>2025-10-05T10:28:10Z</time>
      </trkpt>
      <trkpt lat="43.33371" lon="5.78689">
        <ele>1144</ele>
        <time>2025-10-05T10:28:11Z</time>
      </trkpt>
      <trkpt lat="43.33371" lon="5.78689">
        <ele>1143.9</ele>
        <time>2025-10-05T10:28:12Z</time>
      </trkpt>
      <trkpt lat="43.33371" lon="5.78689">
        <ele>1143.8</ele>
        <time>2025-10-05T10:28:13Z</time>
      </trkpt>
      <trkpt lat="43.33371" lon="5.78689">
        <ele>1143.7</ele>
        <time>2025-10-05T10:28:14Z</time>
      </trkpt>
      <trkpt lat="43.33371" lon="5.78689">
        <ele>1143.6</ele>
        <time>2025-10-05T10:28:15Z</time>
      </trkpt>
      <trkpt lat="43.33371" lon="5.78689">
        <ele>1143.5</ele>
        <time>2025-10-05T10:28:16Z</time>
      </trkpt>
      <trkpt lat="43.3337" lon="5.78689">
        <ele>1143.5</ele>
        <time>2025-10-05T10:28:17Z</time>
      </trkpt>
      <trkpt lat="43.3337" lon="5.78689">
        <ele>1143.5</ele>
        <time>2025-10-05T10:28:18Z</time>
      </trkpt>
      <trkpt lat="43.3337" lon="5.7869">
        <ele>1143.5</ele>
        <time>2025-10-05T10:28:19Z</time>
      </trkpt>
      <trkpt lat="43.33371" lon="5.7869">
        <ele>1143.5</ele>
        <time>2025-10-05T10:28:20Z</time>
      </trkpt>
      <trkpt lat="43.3337" lon="5.7869">
        <ele>1143.5</ele>
        <time>2025-10-05T10:28:21Z</time>
      </trkpt>
      <trkpt lat="43.3337" lon="5.7869">
        <ele>1143.5</ele>
        <time>2025-10-05T10:28:22Z</time>
      </trkpt>
      <trkpt lat="43.33371" lon="5.7869">
        <ele>1143.6</ele>
        <time>2025-10-05T10:28:23Z</time>
      </trkpt>
      <trkpt lat="43.33371" lon="5.7869">
        <ele>1143.6</ele>
        <time>2025-10-05T10:28:24Z</time>
      </trkpt>
      <trkpt lat="43.33371" lon="5.7869">
        <ele>1143.5</ele>
        <time>2025-10-05T10:28:25Z</time>
      </trkpt>
      <trkpt lat="43.33371" lon="5.7869">
        <ele>1143.5</ele>
        <time>2025-10-05T10:28:26Z</time>
      </trkpt>
      <trkpt lat="43.33371" lon="5.7869">
        <ele>1143.4</ele>
        <time>2025-10-05T10:28:27Z</time>
      </trkpt>
      <trkpt lat="43.33371" lon="5.7869">
        <ele>1143.4</ele>
        <time>2025-10-05T10:28:28Z</time>
      </trkpt>
      <trkpt lat="43.33371" lon="5.7869">
        <ele>1143.4</ele>
        <time>2025-10-05T10:28:29Z</time>
      </trkpt>
      <trkpt lat="43.33371" lon="5.7869">
        <ele>1143.4</ele>
        <time>2025-10-05T10:28:30Z</time>
      </trkpt>
      <trkpt lat="43.33371" lon="5.7869">
        <ele>1143.3</ele>
        <time>2025-10-05T10:28:31Z</time>
      </trkpt>
      <trkpt lat="43.33371" lon="5.7869">
        <ele>1143.3</ele>
        <time>2025-10-05T10:28:32Z</time>
      </trkpt>
      <trkpt lat="43.33371" lon="5.7869">
        <ele>1143.2</ele>
        <time>2025-10-05T10:28:33Z</time>
      </trkpt>
      <trkpt lat="43.33371" lon="5.7869">
        <ele>1143.2</ele>
        <time>2025-10-05T10:28:34Z</time>
      </trkpt>
      <trkpt lat="43.33371" lon="5.7869">
        <ele>1143.2</ele>
        <time>2025-10-05T10:28:35Z</time>
      </trkpt>
      <trkpt lat="43.33371" lon="5.7869">
        <ele>1143.3</ele>
        <time>2025-10-05T10:28:36Z</time>
      </trkpt>
      <trkpt lat="43.33371" lon="5.7869">
        <ele>1143.3</ele>
        <time>2025-10-05T10:28:37Z</time>
      </trkpt>
      <trkpt lat="43.33371" lon="5.7869">
        <ele>1143.3</ele>
        <time>2025-10-05T10:28:38Z</time>
      </trkpt>
      <trkpt lat="43.33371" lon="5.7869">
        <ele>1143.3</ele>
        <time>2025-10-05T10:28:39Z</time>
      </trkpt>
      <trkpt lat="43.33371" lon="5.7869">
        <ele>1143.3</ele>
        <time>2025-10-05T10:28:40Z</time>
      </trkpt>
      <trkpt lat="43.33372" lon="5.78691">
        <ele>1143.4</ele>
        <time>2025-10-05T10:28:41Z</time>
      </trkpt>
      <trkpt lat="43.33371" lon="5.78691">
        <ele>1143.4</ele>
        <time>2025-10-05T10:28:42Z</time>
      </trkpt>
      <trkpt lat="43.33371" lon="5.78691">
        <ele>1143.5</ele>
        <time>2025-10-05T10:28:43Z</time>
      </trkpt>
      <trkpt lat="43.33372" lon="5.78691">
        <ele>1143.6</ele>
        <time>2025-10-05T10:28:44Z</time>
      </trkpt>
      <trkpt lat="43.33372" lon="5.78691">
        <ele>1143.6</ele>
        <time>2025-10-05T10:28:45Z</time>
      </trkpt>
      <trkpt lat="43.33372" lon="5.7869">
        <ele>1143.6</ele>
        <time>2025-10-05T10:28:46Z</time>
      </trkpt>
      <trkpt lat="43.33372" lon="5.7869">
        <ele>1143.6</ele>
        <time>2025-10-05T10:28:47Z</time>
      </trkpt>
      <trkpt lat="43.33372" lon="5.78691">
        <ele>1143.6</ele>
        <time>2025-10-05T10:28:48Z</time>
      </trkpt>
      <trkpt lat="43.33372" lon="5.7869">
        <ele>1143.7</ele>
        <time>2025-10-05T10:28:49Z</time>
      </trkpt>
      <trkpt lat="43.33372" lon="5.7869">
        <ele>1143.7</ele>
        <time>2025-10-05T10:28:50Z</time>
      </trkpt>
      <trkpt lat="43.33372" lon="5.7869">
        <ele>1143.8</ele>
        <time>2025-10-05T10:28:51Z</time>
      </trkpt>
      <trkpt lat="43.33372" lon="5.7869">
        <ele>1143.8</ele>
        <time>2025-10-05T10:28:52Z</time>
      </trkpt>
      <trkpt lat="43.33372" lon="5.7869">
        <ele>1143.9</ele>
        <time>2025-10-05T10:28:53Z</time>
      </trkpt>
      <trkpt lat="43.33372" lon="5.7869">
        <ele>1143.9</ele>
        <time>2025-10-05T10:28:54Z</time>
      </trkpt>
      <trkpt lat="43.33372" lon="5.7869">
        <ele>1143.8</ele>
        <time>2025-10-05T10:28:55Z</time>
      </trkpt>
      <trkpt lat="43.33372" lon="5.7869">
        <ele>1143.8</ele>
        <time>2025-10-05T10:28:56Z</time>
      </trkpt>
      <trkpt lat="43.33373" lon="5.7869">
        <ele>1143.8</ele>
        <time>2025-10-05T10:28:57Z</time>
      </trkpt>
      <trkpt lat="43.33373" lon="5.7869">
        <ele>1143.9</ele>
        <time>2025-10-05T10:28:58Z</time>
      </trkpt>
      <trkpt lat="43.33373" lon="5.7869">
        <ele>1143.9</ele>
        <time>2025-10-05T10:28:59Z</time>
      </trkpt>
      <trkpt lat="43.33373" lon="5.7869">
        <ele>1144.1</ele>
        <time>2025-10-05T10:29:00Z</time>
      </trkpt>
      <trkpt lat="43.33373" lon="5.78689">
        <ele>1144.2</ele>
        <time>2025-10-05T10:29:01Z</time>
      </trkpt>
      <trkpt lat="43.33374" lon="5.78689">
        <ele>1144.3</ele>
        <time>2025-10-05T10:29:02Z</time>
      </trkpt>
      <trkpt lat="43.33374" lon="5.78689">
        <ele>1144.4</ele>
        <time>2025-10-05T10:29:03Z</time>
      </trkpt>
      <trkpt lat="43.33374" lon="5.78689">
        <ele>1144.5</ele>
        <time>2025-10-05T10:29:04Z</time>
      </trkpt>
      <trkpt lat="43.33373" lon="5.78689">
        <ele>1144.5</ele>
        <time>2025-10-05T10:29:05Z</time>
      </trkpt>
      <trkpt lat="43.33373" lon="5.78689">
        <ele>1144.6</ele>
        <time>2025-10-05T10:29:06Z</time>
      </trkpt>
      <trkpt lat="43.33374" lon="5.78689">
        <ele>1144.7</ele>
        <time>2025-10-05T10:29:07Z</time>
      </trkpt>
      <trkpt lat="43.33374" lon="5.78689">
        <ele>1144.7</ele>
        <time>2025-10-05T10:29:08Z</time>
      </trkpt>
      <trkpt lat="43.33374" lon="5.78689">
        <ele>1144.7</ele>
        <time>2025-10-05T10:29:09Z</time>
      </trkpt>
      <trkpt lat="43.33374" lon="5.78689">
        <ele>1144.8</ele>
        <time>2025-10-05T10:29:10Z</time>
      </trkpt>
      <trkpt lat="43.33374" lon="5.78689">
        <ele>1144.6</ele>
        <time>2025-10-05T10:29:11Z</time>
      </trkpt>
      <trkpt lat="43.33374" lon="5.78689">
        <ele>1144.6</ele>
        <time>2025-10-05T10:29:12Z</time>
      </trkpt>
      <trkpt lat="43.33374" lon="5.78689">
        <ele>1144.5</ele>
        <time>2025-10-05T10:29:13Z</time>
      </trkpt>
      <trkpt lat="43.33374" lon="5.78689">
        <ele>1144.5</ele>
        <time>2025-10-05T10:29:14Z</time>
      </trkpt>
      <trkpt lat="43.33374" lon="5.78689">
        <ele>1144.5</ele>
        <time>2025-10-05T10:29:15Z</time>
      </trkpt>
      <trkpt lat="43.33374" lon="5.78689">
        <ele>1144.5</ele>
        <time>2025-10-05T10:29:16Z</time>
      </trkpt>
      <trkpt lat="43.33374" lon="5.78689">
        <ele>1144.6</ele>
        <time>2025-10-05T10:29:17Z</time>
      </trkpt>
      <trkpt lat="43.33374" lon="5.78689">
        <ele>1144.8</ele>
        <time>2025-10-05T10:29:18Z</time>
      </trkpt>
      <trkpt lat="43.33374" lon="5.78689">
        <ele>1144.8</ele>
        <time>2025-10-05T10:29:19Z</time>
      </trkpt>
      <trkpt lat="43.33374" lon="5.78689">
        <ele>1144.8</ele>
        <time>2025-10-05T10:29:20Z</time>
      </trkpt>
      <trkpt lat="43.33373" lon="5.78689">
        <ele>1144.8</ele>
        <time>2025-10-05T10:29:21Z</time>
      </trkpt>
      <trkpt lat="43.33373" lon="5.78689">
        <ele>1144.8</ele>
        <time>2025-10-05T10:29:22Z</time>
      </trkpt>
      <trkpt lat="43.33373" lon="5.78689">
        <ele>1144.9</ele>
        <time>2025-10-05T10:29:23Z</time>
      </trkpt>
      <trkpt lat="43.33373" lon="5.78689">
        <ele>1144.8</ele>
        <time>2025-10-05T10:29:24Z</time>
      </trkpt>
      <trkpt lat="43.33374" lon="5.78689">
        <ele>1144.9</ele>
        <time>2025-10-05T10:29:25Z</time>
      </trkpt>
      <trkpt lat="43.33374" lon="5.78689">
        <ele>1144.9</ele>
        <time>2025-10-05T10:29:26Z</time>
      </trkpt>
      <trkpt lat="43.33374" lon="5.78689">
        <ele>1145</ele>
        <time>2025-10-05T10:29:27Z</time>
      </trkpt>
      <trkpt lat="43.33374" lon="5.78689">
        <ele>1144.9</ele>
        <time>2025-10-05T10:29:28Z</time>
      </trkpt>
      <trkpt lat="43.33374" lon="5.78689">
        <ele>1144.8</ele>
        <time>2025-10-05T10:29:29Z</time>
      </trkpt>
      <trkpt lat="43.33374" lon="5.78689">
        <ele>1144.6</ele>
        <time>2025-10-05T10:29:30Z</time>
      </trkpt>
      <trkpt lat="43.33374" lon="5.78689">
        <ele>1144.4</ele>
        <time>2025-10-05T10:29:31Z</time>
      </trkpt>
      <trkpt lat="43.33374" lon="5.78689">
        <ele>1144.2</ele>
        <time>2025-10-05T10:29:32Z</time>
      </trkpt>
      <trkpt lat="43.33374" lon="5.78689">
        <ele>1144.2</ele>
        <time>2025-10-05T10:29:33Z</time>
      </trkpt>
      <trkpt lat="43.33374" lon="5.78689">
        <ele>1144.1</ele>
        <time>2025-10-05T10:29:34Z</time>
      </trkpt>
      <trkpt lat="43.33374" lon="5.78689">
        <ele>1144</ele>
        <time>2025-10-05T10:29:35Z</time>
      </trkpt>
      <trkpt lat="43.33374" lon="5.78689">
        <ele>1143.9</ele>
        <time>2025-10-05T10:29:36Z</time>
      </trkpt>
      <trkpt lat="43.33374" lon="5.78689">
        <ele>1143.8</ele>
        <time>2025-10-05T10:29:37Z</time>
      </trkpt>
      <trkpt lat="43.33374" lon="5.78689">
        <ele>1143.7</ele>
        <time>2025-10-05T10:29:38Z</time>
      </trkpt>
      <trkpt lat="43.33374" lon="5.78689">
        <ele>1143.8</ele>
        <time>2025-10-05T10:29:39Z</time>
      </trkpt>
      <trkpt lat="43.33375" lon="5.78689">
        <ele>1143.8</ele>
        <time>2025-10-05T10:29:40Z</time>
      </trkpt>
      <trkpt lat="43.33375" lon="5.78689">
        <ele>1143.9</ele>
        <time>2025-10-05T10:29:41Z</time>
      </trkpt>
      <trkpt lat="43.33375" lon="5.78689">
        <ele>1144</ele>
        <time>2025-10-05T10:29:42Z</time>
      </trkpt>
      <trkpt lat="43.33375" lon="5.78689">
        <ele>1144.1</ele>
        <time>2025-10-05T10:29:43Z</time>
      </trkpt>
      <trkpt lat="43.33375" lon="5.78689">
        <ele>1144.1</ele>
        <time>2025-10-05T10:29:44Z</time>
      </trkpt>
      <trkpt lat="43.33375" lon="5.78689">
        <ele>1144.2</ele>
        <time>2025-10-05T10:29:45Z</time>
      </trkpt>
      <trkpt lat="43.33375" lon="5.78688">
        <ele>1144.2</ele>
        <time>2025-10-05T10:29:46Z</time>
      </trkpt>
      <trkpt lat="43.33375" lon="5.78688">
        <ele>1144.1</ele>
        <time>2025-10-05T10:29:47Z</time>
      </trkpt>
      <trkpt lat="43.33375" lon="5.78688">
        <ele>1144.1</ele>
        <time>2025-10-05T10:29:48Z</time>
      </trkpt>
      <trkpt lat="43.33375" lon="5.78688">
        <ele>1144.1</ele>
        <time>2025-10-05T10:29:49Z</time>
      </trkpt>
      <trkpt lat="43.33375" lon="5.78689">
        <ele>1144</ele>
        <time>2025-10-05T10:29:50Z</time>
      </trkpt>
      <trkpt lat="43.33375" lon="5.78689">
        <ele>1144.1</ele>
        <time>2025-10-05T10:29:51Z</time>
      </trkpt>
      <trkpt lat="43.33375" lon="5.78688">
        <ele>1144.1</ele>
        <time>2025-10-05T10:29:52Z</time>
      </trkpt>
      <trkpt lat="43.33376" lon="5.78688">
        <ele>1144.1</ele>
        <time>2025-10-05T10:29:53Z</time>
      </trkpt>
      <trkpt lat="43.33376" lon="5.78688">
        <ele>1144.2</ele>
        <time>2025-10-05T10:29:54Z</time>
      </trkpt>
      <trkpt lat="43.33376" lon="5.78688">
        <ele>1144.2</ele>
        <time>2025-10-05T10:29:55Z</time>
      </trkpt>
      <trkpt lat="43.33376" lon="5.78688">
        <ele>1144.1</ele>
        <time>2025-10-05T10:29:56Z</time>
      </trkpt>
      <trkpt lat="43.33376" lon="5.78688">
        <ele>1144</ele>
        <time>2025-10-05T10:29:57Z</time>
      </trkpt>
      <trkpt lat="43.33376" lon="5.78688">
        <ele>1144</ele>
        <time>2025-10-05T10:29:58Z</time>
      </trkpt>
      <trkpt lat="43.33376" lon="5.78688">
        <ele>1144</ele>
        <time>2025-10-05T10:29:59Z</time>
      </trkpt>
      <trkpt lat="43.33376" lon="5.78688">
        <ele>1143.9</ele>
        <time>2025-10-05T10:30:00Z</time>
      </trkpt>
      <trkpt lat="43.33376" lon="5.78688">
        <ele>1143.9</ele>
        <time>2025-10-05T10:30:01Z</time>
      </trkpt>
      <trkpt lat="43.33377" lon="5.78688">
        <ele>1143.9</ele>
        <time>2025-10-05T10:30:02Z</time>
      </trkpt>
      <trkpt lat="43.33377" lon="5.78688">
        <ele>1143.9</ele>
        <time>2025-10-05T10:30:03Z</time>
      </trkpt>
      <trkpt lat="43.33377" lon="5.78688">
        <ele>1144</ele>
        <time>2025-10-05T10:30:04Z</time>
      </trkpt>
      <trkpt lat="43.33377" lon="5.78687">
        <ele>1144</ele>
        <time>2025-10-05T10:30:05Z</time>
      </trkpt>
      <trkpt lat="43.33377" lon="5.78687">
        <ele>1144</ele>
        <time>2025-10-05T10:30:06Z</time>
      </trkpt>
      <trkpt lat="43.33377" lon="5.78687">
        <ele>1144</ele>
        <time>2025-10-05T10:30:07Z</time>
      </trkpt>
      <trkpt lat="43.33378" lon="5.78687">
        <ele>1144</ele>
        <time>2025-10-05T10:30:08Z</time>
      </trkpt>
      <trkpt lat="43.33378" lon="5.78687">
        <ele>1144</ele>
        <time>2025-10-05T10:30:09Z</time>
      </trkpt>
      <trkpt lat="43.33378" lon="5.78686">
        <ele>1144</ele>
        <time>2025-10-05T10:30:10Z</time>
      </trkpt>
      <trkpt lat="43.33378" lon="5.78686">
        <ele>1143.9</ele>
        <time>2025-10-05T10:30:11Z</time>
      </trkpt>
      <trkpt lat="43.33378" lon="5.78686">
        <ele>1144</ele>
        <time>2025-10-05T10:30:12Z</time>
      </trkpt>
      <trkpt lat="43.33378" lon="5.78686">
        <ele>1143.9</ele>
        <time>2025-10-05T10:30:13Z</time>
      </trkpt>
      <trkpt lat="43.33378" lon="5.78686">
        <ele>1143.9</ele>
        <time>2025-10-05T10:30:14Z</time>
      </trkpt>
      <trkpt lat="43.33378" lon="5.78686">
        <ele>1143.9</ele>
        <time>2025-10-05T10:30:15Z</time>
      </trkpt>
      <trkpt lat="43.33379" lon="5.78686">
        <ele>1143.8</ele>
        <time>2025-10-05T10:30:16Z</time>
      </trkpt>
      <trkpt lat="43.33379" lon="5.78686">
        <ele>1143.7</ele>
        <time>2025-10-05T10:30:17Z</time>
      </trkpt>
      <trkpt lat="43.33379" lon="5.78686">
        <ele>1143.7</ele>
        <time>2025-10-05T10:30:18Z</time>
      </trkpt>
      <trkpt lat="43.33379" lon="5.78686">
        <ele>1143.6</ele>
        <time>2025-10-05T10:30:19Z</time>
      </trkpt>
      <trkpt lat="43.33379" lon="5.78686">
        <ele>1143.6</ele>
        <time>2025-10-05T10:30:20Z</time>
      </trkpt>
      <trkpt lat="43.33379" lon="5.78686">
        <ele>1143.5</ele>
        <time>2025-10-05T10:30:21Z</time>
      </trkpt>
      <trkpt lat="43.3338" lon="5.78686">
        <ele>1143.5</ele>
        <time>2025-10-05T10:30:22Z</time>
      </trkpt>
      <trkpt lat="43.3338" lon="5.78686">
        <ele>1143.5</ele>
        <time>2025-10-05T10:30:23Z</time>
      </trkpt>
      <trkpt lat="43.3338" lon="5.78686">
        <ele>1143.5</ele>
        <time>2025-10-05T10:30:24Z</time>
      </trkpt>
      <trkpt lat="43.3338" lon="5.78686">
        <ele>1143.5</ele>
        <time>2025-10-05T10:30:25Z</time>
      </trkpt>
      <trkpt lat="43.3338" lon="5.78686">
        <ele>1143.5</ele>
        <time>2025-10-05T10:30:26Z</time>
      </trkpt>
      <trkpt lat="43.33381" lon="5.78686">
        <ele>1143.5</ele>
        <time>2025-10-05T10:30:27Z</time>
      </trkpt>
      <trkpt lat="43.33381" lon="5.78685">
        <ele>1143.6</ele>
        <time>2025-10-05T10:30:28Z</time>
      </trkpt>
      <trkpt lat="43.33381" lon="5.78685">
        <ele>1143.7</ele>
        <time>2025-10-05T10:30:29Z</time>
      </trkpt>
      <trkpt lat="43.33381" lon="5.78685">
        <ele>1143.7</ele>
        <time>2025-10-05T10:30:30Z</time>
      </trkpt>
      <trkpt lat="43.33381" lon="5.78685">
        <ele>1143.8</ele>
        <time>2025-10-05T10:30:31Z</time>
      </trkpt>
      <trkpt lat="43.33381" lon="5.78685">
        <ele>1143.9</ele>
        <time>2025-10-05T10:30:32Z</time>
      </trkpt>
      <trkpt lat="43.33381" lon="5.78685">
        <ele>1143.9</ele>
        <time>2025-10-05T10:30:33Z</time>
      </trkpt>
      <trkpt lat="43.33381" lon="5.78685">
        <ele>1143.9</ele>
        <time>2025-10-05T10:30:34Z</time>
      </trkpt>
      <trkpt lat="43.33381" lon="5.78685">
        <ele>1143.9</ele>
        <time>2025-10-05T10:30:35Z</time>
      </trkpt>
      <trkpt lat="43.33382" lon="5.78685">
        <ele>1143.9</ele>
        <time>2025-10-05T10:30:36Z</time>
      </trkpt>
      <trkpt lat="43.33382" lon="5.78685">
        <ele>1144</ele>
        <time>2025-10-05T10:30:37Z</time>
      </trkpt>
      <trkpt lat="43.33382" lon="5.78685">
        <ele>1144</ele>
        <time>2025-10-05T10:30:38Z</time>
      </trkpt>
      <trkpt lat="43.33382" lon="5.78685">
        <ele>1144.1</ele>
        <time>2025-10-05T10:30:39Z</time>
      </trkpt>
      <trkpt lat="43.33382" lon="5.78686">
        <ele>1144.1</ele>
        <time>2025-10-05T10:30:40Z</time>
      </trkpt>
      <trkpt lat="43.33382" lon="5.78686">
        <ele>1144.2</ele>
        <time>2025-10-05T10:30:41Z</time>
      </trkpt>
      <trkpt lat="43.33382" lon="5.78686">
        <ele>1144.3</ele>
        <time>2025-10-05T10:30:42Z</time>
      </trkpt>
      <trkpt lat="43.33382" lon="5.78686">
        <ele>1144.3</ele>
        <time>2025-10-05T10:30:43Z</time>
      </trkpt>
      <trkpt lat="43.33383" lon="5.78686">
        <ele>1144.4</ele>
        <time>2025-10-05T10:30:44Z</time>
      </trkpt>
      <trkpt lat="43.33383" lon="5.78686">
        <ele>1144.4</ele>
        <time>2025-10-05T10:30:45Z</time>
      </trkpt>
      <trkpt lat="43.33383" lon="5.78686">
        <ele>1144.4</ele>
        <time>2025-10-05T10:30:46Z</time>
      </trkpt>
      <trkpt lat="43.33383" lon="5.78686">
        <ele>1144.4</ele>
        <time>2025-10-05T10:30:47Z</time>
      </trkpt>
      <trkpt lat="43.33383" lon="5.78686">
        <ele>1144.4</ele>
        <time>2025-10-05T10:30:48Z</time>
      </trkpt>
      <trkpt lat="43.33383" lon="5.78686">
        <ele>1144.4</ele>
        <time>2025-10-05T10:30:49Z</time>
      </trkpt>
      <trkpt lat="43.33383" lon="5.78686">
        <ele>1144.5</ele>
        <time>2025-10-05T10:30:50Z</time>
      </trkpt>
      <trkpt lat="43.33383" lon="5.78686">
        <ele>1144.5</ele>
        <time>2025-10-05T10:30:51Z</time>
      </trkpt>
      <trkpt lat="43.33383" lon="5.78686">
        <ele>1144.5</ele>
        <time>2025-10-05T10:30:52Z</time>
      </trkpt>
      <trkpt lat="43.33384" lon="5.78686">
        <ele>1144.5</ele>
        <time>2025-10-05T10:30:53Z</time>
      </trkpt>
      <trkpt lat="43.33384" lon="5.78686">
        <ele>1144.5</ele>
        <time>2025-10-05T10:30:54Z</time>
      </trkpt>
      <trkpt lat="43.33384" lon="5.78686">
        <ele>1144.5</ele>
        <time>2025-10-05T10:30:55Z</time>
      </trkpt>
      <trkpt lat="43.33384" lon="5.78686">
        <ele>1144.5</ele>
        <time>2025-10-05T10:30:56Z</time>
      </trkpt>
      <trkpt lat="43.33384" lon="5.78686">
        <ele>1144.6</ele>
        <time>2025-10-05T10:30:57Z</time>
      </trkpt>
      <trkpt lat="43.33384" lon="5.78686">
        <ele>1144.7</ele>
        <time>2025-10-05T10:30:58Z</time>
      </trkpt>
      <trkpt lat="43.33383" lon="5.78686">
        <ele>1144.7</ele>
        <time>2025-10-05T10:30:59Z</time>
      </trkpt>
      <trkpt lat="43.33383" lon="5.78686">
        <ele>1144.6</ele>
        <time>2025-10-05T10:31:00Z</time>
      </trkpt>
      <trkpt lat="43.33383" lon="5.78686">
        <ele>1144.6</ele>
        <time>2025-10-05T10:31:01Z</time>
      </trkpt>
      <trkpt lat="43.33383" lon="5.78687">
        <ele>1144.5</ele>
        <time>2025-10-05T10:31:02Z</time>
      </trkpt>
      <trkpt lat="43.33383" lon="5.78687">
        <ele>1144.5</ele>
        <time>2025-10-05T10:31:03Z</time>
      </trkpt>
      <trkpt lat="43.33383" lon="5.78687">
        <ele>1144.5</ele>
        <time>2025-10-05T10:31:04Z</time>
      </trkpt>
      <trkpt lat="43.33383" lon="5.78687">
        <ele>1144.5</ele>
        <time>2025-10-05T10:31:05Z</time>
      </trkpt>
      <trkpt lat="43.33383" lon="5.78687">
        <ele>1144.5</ele>
        <time>2025-10-05T10:31:06Z</time>
      </trkpt>
      <trkpt lat="43.33383" lon="5.78688">
        <ele>1144.5</ele>
        <time>2025-10-05T10:31:07Z</time>
      </trkpt>
      <trkpt lat="43.33383" lon="5.78688">
        <ele>1144.5</ele>
        <time>2025-10-05T10:31:08Z</time>
      </trkpt>
      <trkpt lat="43.33383" lon="5.78688">
        <ele>1144.4</ele>
        <time>2025-10-05T10:31:09Z</time>
      </trkpt>
      <trkpt lat="43.33383" lon="5.78688">
        <ele>1144.5</ele>
        <time>2025-10-05T10:31:10Z</time>
      </trkpt>
      <trkpt lat="43.33383" lon="5.78688">
        <ele>1144.5</ele>
        <time>2025-10-05T10:31:11Z</time>
      </trkpt>
      <trkpt lat="43.33383" lon="5.78688">
        <ele>1144.5</ele>
        <time>2025-10-05T10:31:12Z</time>
      </trkpt>
      <trkpt lat="43.33383" lon="5.78688">
        <ele>1144.5</ele>
        <time>2025-10-05T10:31:13Z</time>
      </trkpt>
      <trkpt lat="43.33382" lon="5.78688">
        <ele>1144.7</ele>
        <time>2025-10-05T10:31:14Z</time>
      </trkpt>
      <trkpt lat="43.33382" lon="5.78688">
        <ele>1144.8</ele>
        <time>2025-10-05T10:31:15Z</time>
      </trkpt>
      <trkpt lat="43.33382" lon="5.78688">
        <ele>1144.8</ele>
        <time>2025-10-05T10:31:16Z</time>
      </trkpt>
      <trkpt lat="43.33382" lon="5.78688">
        <ele>1144.8</ele>
        <time>2025-10-05T10:31:17Z</time>
      </trkpt>
      <trkpt lat="43.33382" lon="5.78688">
        <ele>1144.6</ele>
        <time>2025-10-05T10:31:18Z</time>
      </trkpt>
      <trkpt lat="43.33382" lon="5.78688">
        <ele>1144.6</ele>
        <time>2025-10-05T10:31:19Z</time>
      </trkpt>
      <trkpt lat="43.33382" lon="5.78688">
        <ele>1144.5</ele>
        <time>2025-10-05T10:31:20Z</time>
      </trkpt>
      <trkpt lat="43.33382" lon="5.78688">
        <ele>1144.6</ele>
        <time>2025-10-05T10:31:21Z</time>
      </trkpt>
      <trkpt lat="43.33382" lon="5.78688">
        <ele>1144.5</ele>
        <time>2025-10-05T10:31:22Z</time>
      </trkpt>
      <trkpt lat="43.33382" lon="5.78688">
        <ele>1144.4</ele>
        <time>2025-10-05T10:31:23Z</time>
      </trkpt>
      <trkpt lat="43.33382" lon="5.78688">
        <ele>1144.5</ele>
        <time>2025-10-05T10:31:24Z</time>
      </trkpt>
      <trkpt lat="43.33382" lon="5.78688">
        <ele>1144.5</ele>
        <time>2025-10-05T10:31:25Z</time>
      </trkpt>
      <trkpt lat="43.33382" lon="5.78688">
        <ele>1144.6</ele>
        <time>2025-10-05T10:31:26Z</time>
      </trkpt>
      <trkpt lat="43.33382" lon="5.78688">
        <ele>1144.5</ele>
        <time>2025-10-05T10:31:27Z</time>
      </trkpt>
      <trkpt lat="43.33382" lon="5.78688">
        <ele>1144.6</ele>
        <time>2025-10-05T10:31:28Z</time>
      </trkpt>
      <trkpt lat="43.33382" lon="5.78688">
        <ele>1144.5</ele>
        <time>2025-10-05T10:31:29Z</time>
      </trkpt>
      <trkpt lat="43.33382" lon="5.78688">
        <ele>1144.5</ele>
        <time>2025-10-05T10:31:30Z</time>
      </trkpt>
      <trkpt lat="43.33382" lon="5.78688">
        <ele>1144.5</ele>
        <time>2025-10-05T10:31:31Z</time>
      </trkpt>
      <trkpt lat="43.33382" lon="5.78688">
        <ele>1144.6</ele>
        <time>2025-10-05T10:31:32Z</time>
      </trkpt>
      <trkpt lat="43.33382" lon="5.78688">
        <ele>1144.4</ele>
        <time>2025-10-05T10:31:33Z</time>
      </trkpt>
      <trkpt lat="43.33382" lon="5.78688">
        <ele>1144.4</ele>
        <time>2025-10-05T10:31:34Z</time>
      </trkpt>
      <trkpt lat="43.33382" lon="5.78689">
        <ele>1144.4</ele>
        <time>2025-10-05T10:31:35Z</time>
      </trkpt>
      <trkpt lat="43.33382" lon="5.78689">
        <ele>1144.4</ele>
        <time>2025-10-05T10:31:36Z</time>
      </trkpt>
      <trkpt lat="43.33382" lon="5.78689">
        <ele>1144.4</ele>
        <time>2025-10-05T10:31:37Z</time>
      </trkpt>
      <trkpt lat="43.33382" lon="5.78689">
        <ele>1144.3</ele>
        <time>2025-10-05T10:31:38Z</time>
      </trkpt>
      <trkpt lat="43.33382" lon="5.78689">
        <ele>1144.2</ele>
        <time>2025-10-05T10:31:39Z</time>
      </trkpt>
      <trkpt lat="43.33381" lon="5.78689">
        <ele>1144.1</ele>
        <time>2025-10-05T10:31:40Z</time>
      </trkpt>
      <trkpt lat="43.33381" lon="5.78689">
        <ele>1144.2</ele>
        <time>2025-10-05T10:31:41Z</time>
      </trkpt>
      <trkpt lat="43.33381" lon="5.78689">
        <ele>1144.2</ele>
        <time>2025-10-05T10:31:42Z</time>
      </trkpt>
      <trkpt lat="43.33381" lon="5.78689">
        <ele>1144.1</ele>
        <time>2025-10-05T10:31:43Z</time>
      </trkpt>
      <trkpt lat="43.33381" lon="5.78689">
        <ele>1144.1</ele>
        <time>2025-10-05T10:31:44Z</time>
      </trkpt>
      <trkpt lat="43.33381" lon="5.78689">
        <ele>1144.1</ele>
        <time>2025-10-05T10:31:45Z</time>
      </trkpt>
      <trkpt lat="43.33381" lon="5.78689">
        <ele>1144.1</ele>
        <time>2025-10-05T10:31:46Z</time>
      </trkpt>
      <trkpt lat="43.33381" lon="5.78689">
        <ele>1144.2</ele>
        <time>2025-10-05T10:31:47Z</time>
      </trkpt>
      <trkpt lat="43.33381" lon="5.78689">
        <ele>1144.1</ele>
        <time>2025-10-05T10:31:48Z</time>
      </trkpt>
      <trkpt lat="43.33381" lon="5.78689">
        <ele>1144</ele>
        <time>2025-10-05T10:31:49Z</time>
      </trkpt>
      <trkpt lat="43.33381" lon="5.78689">
        <ele>1144.1</ele>
        <time>2025-10-05T10:31:50Z</time>
      </trkpt>
      <trkpt lat="43.33381" lon="5.78689">
        <ele>1144.2</ele>
        <time>2025-10-05T10:31:51Z</time>
      </trkpt>
      <trkpt lat="43.33381" lon="5.78689">
        <ele>1144.1</ele>
        <time>2025-10-05T10:31:52Z</time>
      </trkpt>
      <trkpt lat="43.33381" lon="5.78689">
        <ele>1144.1</ele>
        <time>2025-10-05T10:31:53Z</time>
      </trkpt>
      <trkpt lat="43.33381" lon="5.78689">
        <ele>1144</ele>
        <time>2025-10-05T10:31:54Z</time>
      </trkpt>
      <trkpt lat="43.33381" lon="5.7869">
        <ele>1144</ele>
        <time>2025-10-05T10:31:55Z</time>
      </trkpt>
      <trkpt lat="43.33381" lon="5.78689">
        <ele>1144</ele>
        <time>2025-10-05T10:31:56Z</time>
      </trkpt>
      <trkpt lat="43.33381" lon="5.78689">
        <ele>1144.1</ele>
        <time>2025-10-05T10:31:57Z</time>
      </trkpt>
      <trkpt lat="43.33381" lon="5.78689">
        <ele>1144.1</ele>
        <time>2025-10-05T10:31:58Z</time>
      </trkpt>
      <trkpt lat="43.33381" lon="5.78689">
        <ele>1144</ele>
        <time>2025-10-05T10:31:59Z</time>
      </trkpt>
      <trkpt lat="43.3338" lon="5.7869">
        <ele>1144</ele>
        <time>2025-10-05T10:32:00Z</time>
      </trkpt>
      <trkpt lat="43.3338" lon="5.7869">
        <ele>1143.9</ele>
        <time>2025-10-05T10:32:01Z</time>
      </trkpt>
      <trkpt lat="43.3338" lon="5.7869">
        <ele>1143.9</ele>
        <time>2025-10-05T10:32:02Z</time>
      </trkpt>
      <trkpt lat="43.3338" lon="5.7869">
        <ele>1143.9</ele>
        <time>2025-10-05T10:32:03Z</time>
      </trkpt>
      <trkpt lat="43.3338" lon="5.7869">
        <ele>1143.9</ele>
        <time>2025-10-05T10:32:04Z</time>
      </trkpt>
      <trkpt lat="43.3338" lon="5.7869">
        <ele>1143.9</ele>
        <time>2025-10-05T10:32:05Z</time>
      </trkpt>
      <trkpt lat="43.3338" lon="5.7869">
        <ele>1143.9</ele>
        <time>2025-10-05T10:32:06Z</time>
      </trkpt>
      <trkpt lat="43.3338" lon="5.7869">
        <ele>1143.9</ele>
        <time>2025-10-05T10:32:07Z</time>
      </trkpt>
      <trkpt lat="43.3338" lon="5.7869">
        <ele>1143.8</ele>
        <time>2025-10-05T10:32:08Z</time>
      </trkpt>
      <trkpt lat="43.3338" lon="5.78689">
        <ele>1143.9</ele>
        <time>2025-10-05T10:32:09Z</time>
      </trkpt>
      <trkpt lat="43.3338" lon="5.78689">
        <ele>1144</ele>
        <time>2025-10-05T10:32:10Z</time>
      </trkpt>
      <trkpt lat="43.3338" lon="5.7869">
        <ele>1144</ele>
        <time>2025-10-05T10:32:11Z</time>
      </trkpt>
      <trkpt lat="43.3338" lon="5.7869">
        <ele>1143.9</ele>
        <time>2025-10-05T10:32:12Z</time>
      </trkpt>
      <trkpt lat="43.3338" lon="5.7869">
        <ele>1143.9</ele>
        <time>2025-10-05T10:32:13Z</time>
      </trkpt>
      <trkpt lat="43.3338" lon="5.7869">
        <ele>1143.8</ele>
        <time>2025-10-05T10:32:14Z</time>
      </trkpt>
      <trkpt lat="43.3338" lon="5.78689">
        <ele>1143.8</ele>
        <time>2025-10-05T10:32:15Z</time>
      </trkpt>
      <trkpt lat="43.3338" lon="5.78689">
        <ele>1143.9</ele>
        <time>2025-10-05T10:32:16Z</time>
      </trkpt>
      <trkpt lat="43.3338" lon="5.7869">
        <ele>1143.9</ele>
        <time>2025-10-05T10:32:17Z</time>
      </trkpt>
      <trkpt lat="43.3338" lon="5.7869">
        <ele>1143.9</ele>
        <time>2025-10-05T10:32:18Z</time>
      </trkpt>
      <trkpt lat="43.3338" lon="5.7869">
        <ele>1143.9</ele>
        <time>2025-10-05T10:32:19Z</time>
      </trkpt>
      <trkpt lat="43.3338" lon="5.7869">
        <ele>1143.9</ele>
        <time>2025-10-05T10:32:20Z</time>
      </trkpt>
      <trkpt lat="43.3338" lon="5.7869">
        <ele>1144</ele>
        <time>2025-10-05T10:32:21Z</time>
      </trkpt>
      <trkpt lat="43.33379" lon="5.7869">
        <ele>1144</ele>
        <time>2025-10-05T10:32:22Z</time>
      </trkpt>
      <trkpt lat="43.33379" lon="5.7869">
        <ele>1144</ele>
        <time>2025-10-05T10:32:23Z</time>
      </trkpt>
      <trkpt lat="43.33379" lon="5.7869">
        <ele>1144.1</ele>
        <time>2025-10-05T10:32:24Z</time>
      </trkpt>
      <trkpt lat="43.33379" lon="5.7869">
        <ele>1144.2</ele>
        <time>2025-10-05T10:32:25Z</time>
      </trkpt>
      <trkpt lat="43.33379" lon="5.7869">
        <ele>1144.2</ele>
        <time>2025-10-05T10:32:26Z</time>
      </trkpt>
      <trkpt lat="43.33379" lon="5.7869">
        <ele>1144.3</ele>
        <time>2025-10-05T10:32:27Z</time>
      </trkpt>
      <trkpt lat="43.33379" lon="5.7869">
        <ele>1144.3</ele>
        <time>2025-10-05T10:32:28Z</time>
      </trkpt>
      <trkpt lat="43.33379" lon="5.7869">
        <ele>1144.3</ele>
        <time>2025-10-05T10:32:29Z</time>
      </trkpt>
      <trkpt lat="43.33379" lon="5.7869">
        <ele>1144.4</ele>
        <time>2025-10-05T10:32:30Z</time>
      </trkpt>
      <trkpt lat="43.33379" lon="5.7869">
        <ele>1144.4</ele>
        <time>2025-10-05T10:32:31Z</time>
      </trkpt>
      <trkpt lat="43.33379" lon="5.7869">
        <ele>1144.4</ele>
        <time>2025-10-05T10:32:32Z</time>
      </trkpt>
      <trkpt lat="43.33379" lon="5.78689">
        <ele>1144.4</ele>
        <time>2025-10-05T10:32:33Z</time>
      </trkpt>
      <trkpt lat="43.3338" lon="5.78689">
        <ele>1144.4</ele>
        <time>2025-10-05T10:32:34Z</time>
      </trkpt>
      <trkpt lat="43.3338" lon="5.78689">
        <ele>1144.4</ele>
        <time>2025-10-05T10:32:35Z</time>
      </trkpt>
      <trkpt lat="43.3338" lon="5.78689">
        <ele>1144.5</ele>
        <time>2025-10-05T10:32:36Z</time>
      </trkpt>
      <trkpt lat="43.3338" lon="5.78689">
        <ele>1144.5</ele>
        <time>2025-10-05T10:32:37Z</time>
      </trkpt>
      <trkpt lat="43.3338" lon="5.78689">
        <ele>1144.6</ele>
        <time>2025-10-05T10:32:38Z</time>
      </trkpt>
      <trkpt lat="43.3338" lon="5.78689">
        <ele>1144.6</ele>
        <time>2025-10-05T10:32:39Z</time>
      </trkpt>
      <trkpt lat="43.3338" lon="5.78688">
        <ele>1144.7</ele>
        <time>2025-10-05T10:32:40Z</time>
      </trkpt>
      <trkpt lat="43.3338" lon="5.78688">
        <ele>1144.7</ele>
        <time>2025-10-05T10:32:41Z</time>
      </trkpt>
      <trkpt lat="43.3338" lon="5.78688">
        <ele>1144.7</ele>
        <time>2025-10-05T10:32:42Z</time>
      </trkpt>
      <trkpt lat="43.3338" lon="5.78688">
        <ele>1144.6</ele>
        <time>2025-10-05T10:32:43Z</time>
      </trkpt>
      <trkpt lat="43.3338" lon="5.78688">
        <ele>1144.7</ele>
        <time>2025-10-05T10:32:44Z</time>
      </trkpt>
      <trkpt lat="43.3338" lon="5.78688">
        <ele>1144.7</ele>
        <time>2025-10-05T10:32:45Z</time>
      </trkpt>
      <trkpt lat="43.3338" lon="5.78688">
        <ele>1144.7</ele>
        <time>2025-10-05T10:32:46Z</time>
      </trkpt>
      <trkpt lat="43.3338" lon="5.78688">
        <ele>1144.9</ele>
        <time>2025-10-05T10:32:47Z</time>
      </trkpt>
      <trkpt lat="43.3338" lon="5.78688">
        <ele>1145</ele>
        <time>2025-10-05T10:32:48Z</time>
      </trkpt>
      <trkpt lat="43.3338" lon="5.78688">
        <ele>1145.1</ele>
        <time>2025-10-05T10:32:49Z</time>
      </trkpt>
      <trkpt lat="43.3338" lon="5.78688">
        <ele>1145.1</ele>
        <time>2025-10-05T10:32:50Z</time>
      </trkpt>
      <trkpt lat="43.3338" lon="5.78688">
        <ele>1145.1</ele>
        <time>2025-10-05T10:32:51Z</time>
      </trkpt>
      <trkpt lat="43.33381" lon="5.78688">
        <ele>1145.1</ele>
        <time>2025-10-05T10:32:52Z</time>
      </trkpt>
      <trkpt lat="43.33381" lon="5.78688">
        <ele>1145.2</ele>
        <time>2025-10-05T10:32:53Z</time>
      </trkpt>
      <trkpt lat="43.33381" lon="5.78688">
        <ele>1145.2</ele>
        <time>2025-10-05T10:32:54Z</time>
      </trkpt>
      <trkpt lat="43.33381" lon="5.78688">
        <ele>1145.2</ele>
        <time>2025-10-05T10:32:55Z</time>
      </trkpt>
      <trkpt lat="43.33381" lon="5.78688">
        <ele>1145.2</ele>
        <time>2025-10-05T10:32:56Z</time>
      </trkpt>
      <trkpt lat="43.33381" lon="5.78688">
        <ele>1145.3</ele>
        <time>2025-10-05T10:32:57Z</time>
      </trkpt>
      <trkpt lat="43.33381" lon="5.78688">
        <ele>1145.2</ele>
        <time>2025-10-05T10:32:58Z</time>
      </trkpt>
      <trkpt lat="43.33382" lon="5.78688">
        <ele>1145.2</ele>
        <time>2025-10-05T10:32:59Z</time>
      </trkpt>
      <trkpt lat="43.33382" lon="5.78688">
        <ele>1145.2</ele>
        <time>2025-10-05T10:33:00Z</time>
      </trkpt>
      <trkpt lat="43.33382" lon="5.78688">
        <ele>1145.2</ele>
        <time>2025-10-05T10:33:01Z</time>
      </trkpt>
      <trkpt lat="43.33382" lon="5.78688">
        <ele>1145.2</ele>
        <time>2025-10-05T10:33:02Z</time>
      </trkpt>
      <trkpt lat="43.33382" lon="5.78689">
        <ele>1145.2</ele>
        <time>2025-10-05T10:33:03Z</time>
      </trkpt>
      <trkpt lat="43.33382" lon="5.78689">
        <ele>1145.3</ele>
        <time>2025-10-05T10:33:04Z</time>
      </trkpt>
      <trkpt lat="43.33382" lon="5.78689">
        <ele>1145.3</ele>
        <time>2025-10-05T10:33:05Z</time>
      </trkpt>
      <trkpt lat="43.33382" lon="5.78689">
        <ele>1145.2</ele>
        <time>2025-10-05T10:33:06Z</time>
      </trkpt>
      <trkpt lat="43.33382" lon="5.78689">
        <ele>1145.1</ele>
        <time>2025-10-05T10:33:07Z</time>
      </trkpt>
      <trkpt lat="43.33382" lon="5.78689">
        <ele>1145</ele>
        <time>2025-10-05T10:33:08Z</time>
      </trkpt>
      <trkpt lat="43.33382" lon="5.78689">
        <ele>1145</ele>
        <time>2025-10-05T10:33:09Z</time>
      </trkpt>
      <trkpt lat="43.33383" lon="5.78689">
        <ele>1145</ele>
        <time>2025-10-05T10:33:10Z</time>
      </trkpt>
      <trkpt lat="43.33383" lon="5.78689">
        <ele>1145.1</ele>
        <time>2025-10-05T10:33:11Z</time>
      </trkpt>
      <trkpt lat="43.33383" lon="5.78689">
        <ele>1145.1</ele>
        <time>2025-10-05T10:33:12Z</time>
      </trkpt>
      <trkpt lat="43.33383" lon="5.78689">
        <ele>1145.1</ele>
        <time>2025-10-05T10:33:13Z</time>
      </trkpt>
      <trkpt lat="43.33383" lon="5.78689">
        <ele>1145.2</ele>
        <time>2025-10-05T10:33:14Z</time>
      </trkpt>
      <trkpt lat="43.33384" lon="5.78689">
        <ele>1145.1</ele>
        <time>2025-10-05T10:33:15Z</time>
      </trkpt>
      <trkpt lat="43.33384" lon="5.78689">
        <ele>1145.1</ele>
        <time>2025-10-05T10:33:16Z</time>
      </trkpt>
      <trkpt lat="43.33384" lon="5.78689">
        <ele>1145.1</ele>
        <time>2025-10-05T10:33:17Z</time>
      </trkpt>
      <trkpt lat="43.33384" lon="5.78689">
        <ele>1145.1</ele>
        <time>2025-10-05T10:33:18Z</time>
      </trkpt>
      <trkpt lat="43.33384" lon="5.78689">
        <ele>1145.1</ele>
        <time>2025-10-05T10:33:19Z</time>
      </trkpt>
      <trkpt lat="43.33384" lon="5.78689">
        <ele>1145.2</ele>
        <time>2025-10-05T10:33:20Z</time>
      </trkpt>
      <trkpt lat="43.33384" lon="5.78689">
        <ele>1145.2</ele>
        <time>2025-10-05T10:33:21Z</time>
      </trkpt>
      <trkpt lat="43.33384" lon="5.78689">
        <ele>1145.2</ele>
        <time>2025-10-05T10:33:22Z</time>
      </trkpt>
      <trkpt lat="43.33384" lon="5.78689">
        <ele>1145.2</ele>
        <time>2025-10-05T10:33:23Z</time>
      </trkpt>
      <trkpt lat="43.33384" lon="5.78689">
        <ele>1145.2</ele>
        <time>2025-10-05T10:33:24Z</time>
      </trkpt>
      <trkpt lat="43.33384" lon="5.78689">
        <ele>1145.2</ele>
        <time>2025-10-05T10:33:25Z</time>
      </trkpt>
      <trkpt lat="43.33383" lon="5.78689">
        <ele>1145.1</ele>
        <time>2025-10-05T10:33:26Z</time>
      </trkpt>
      <trkpt lat="43.33383" lon="5.78689">
        <ele>1145.2</ele>
        <time>2025-10-05T10:33:27Z</time>
      </trkpt>
      <trkpt lat="43.33383" lon="5.78689">
        <ele>1145.2</ele>
        <time>2025-10-05T10:33:28Z</time>
      </trkpt>
      <trkpt lat="43.33383" lon="5.78689">
        <ele>1145.2</ele>
        <time>2025-10-05T10:33:29Z</time>
      </trkpt>
      <trkpt lat="43.33383" lon="5.78689">
        <ele>1145.2</ele>
        <time>2025-10-05T10:33:30Z</time>
      </trkpt>
      <trkpt lat="43.33383" lon="5.78689">
        <ele>1145.2</ele>
        <time>2025-10-05T10:33:31Z</time>
      </trkpt>
      <trkpt lat="43.33383" lon="5.78689">
        <ele>1145.1</ele>
        <time>2025-10-05T10:33:32Z</time>
      </trkpt>
      <trkpt lat="43.33383" lon="5.78689">
        <ele>1145.1</ele>
        <time>2025-10-05T10:33:33Z</time>
      </trkpt>
      <trkpt lat="43.33384" lon="5.78688">
        <ele>1145.2</ele>
        <time>2025-10-05T10:33:34Z</time>
      </trkpt>
      <trkpt lat="43.33383" lon="5.78689">
        <ele>1145.2</ele>
        <time>2025-10-05T10:33:35Z</time>
      </trkpt>
      <trkpt lat="43.33383" lon="5.78689">
        <ele>1145.4</ele>
        <time>2025-10-05T10:33:36Z</time>
      </trkpt>
      <trkpt lat="43.33383" lon="5.78689">
        <ele>1145.4</ele>
        <time>2025-10-05T10:33:37Z</time>
      </trkpt>
      <trkpt lat="43.33384" lon="5.78689">
        <ele>1145.5</ele>
        <time>2025-10-05T10:33:38Z</time>
      </trkpt>
      <trkpt lat="43.33384" lon="5.78689">
        <ele>1145.5</ele>
        <time>2025-10-05T10:33:39Z</time>
      </trkpt>
      <trkpt lat="43.33384" lon="5.78689">
        <ele>1145.5</ele>
        <time>2025-10-05T10:33:40Z</time>
      </trkpt>
      <trkpt lat="43.33384" lon="5.78688">
        <ele>1145.6</ele>
        <time>2025-10-05T10:33:41Z</time>
      </trkpt>
      <trkpt lat="43.33384" lon="5.78688">
        <ele>1145.7</ele>
        <time>2025-10-05T10:33:42Z</time>
      </trkpt>
      <trkpt lat="43.33384" lon="5.78688">
        <ele>1145.7</ele>
        <time>2025-10-05T10:33:43Z</time>
      </trkpt>
      <trkpt lat="43.33383" lon="5.78688">
        <ele>1145.8</ele>
        <time>2025-10-05T10:33:44Z</time>
      </trkpt>
      <trkpt lat="43.33384" lon="5.78688">
        <ele>1145.6</ele>
        <time>2025-10-05T10:33:45Z</time>
      </trkpt>
      <trkpt lat="43.33384" lon="5.78688">
        <ele>1145.6</ele>
        <time>2025-10-05T10:33:46Z</time>
      </trkpt>
      <trkpt lat="43.33384" lon="5.78688">
        <ele>1145.6</ele>
        <time>2025-10-05T10:33:47Z</time>
      </trkpt>
      <trkpt lat="43.33384" lon="5.78688">
        <ele>1145.6</ele>
        <time>2025-10-05T10:33:48Z</time>
      </trkpt>
      <trkpt lat="43.33384" lon="5.78688">
        <ele>1145.5</ele>
        <time>2025-10-05T10:33:49Z</time>
      </trkpt>
      <trkpt lat="43.33384" lon="5.78688">
        <ele>1145.4</ele>
        <time>2025-10-05T10:33:50Z</time>
      </trkpt>
      <trkpt lat="43.33383" lon="5.78688">
        <ele>1145.4</ele>
        <time>2025-10-05T10:33:51Z</time>
      </trkpt>
      <trkpt lat="43.33383" lon="5.78688">
        <ele>1145.4</ele>
        <time>2025-10-05T10:33:52Z</time>
      </trkpt>
      <trkpt lat="43.33383" lon="5.78688">
        <ele>1145.3</ele>
        <time>2025-10-05T10:33:53Z</time>
      </trkpt>
      <trkpt lat="43.33383" lon="5.78689">
        <ele>1145.2</ele>
        <time>2025-10-05T10:33:54Z</time>
      </trkpt>
      <trkpt lat="43.33383" lon="5.78689">
        <ele>1145.2</ele>
        <time>2025-10-05T10:33:55Z</time>
      </trkpt>
      <trkpt lat="43.33383" lon="5.78689">
        <ele>1145.1</ele>
        <time>2025-10-05T10:33:56Z</time>
      </trkpt>
      <trkpt lat="43.33383" lon="5.78689">
        <ele>1145.1</ele>
        <time>2025-10-05T10:33:57Z</time>
      </trkpt>
      <trkpt lat="43.33383" lon="5.78689">
        <ele>1145.1</ele>
        <time>2025-10-05T10:33:58Z</time>
      </trkpt>
      <trkpt lat="43.33383" lon="5.7869">
        <ele>1145.1</ele>
        <time>2025-10-05T10:33:59Z</time>
      </trkpt>
      <trkpt lat="43.33383" lon="5.7869">
        <ele>1145.1</ele>
        <time>2025-10-05T10:34:00Z</time>
      </trkpt>
      <trkpt lat="43.33383" lon="5.78689">
        <ele>1145.1</ele>
        <time>2025-10-05T10:34:01Z</time>
      </trkpt>
      <trkpt lat="43.33383" lon="5.78689">
        <ele>1145.1</ele>
        <time>2025-10-05T10:34:02Z</time>
      </trkpt>
      <trkpt lat="43.33383" lon="5.78689">
        <ele>1145.1</ele>
        <time>2025-10-05T10:34:03Z</time>
      </trkpt>
      <trkpt lat="43.33383" lon="5.78689">
        <ele>1145</ele>
        <time>2025-10-05T10:34:04Z</time>
      </trkpt>
      <trkpt lat="43.33383" lon="5.78689">
        <ele>1145</ele>
        <time>2025-10-05T10:34:05Z</time>
      </trkpt>
      <trkpt lat="43.33383" lon="5.7869">
        <ele>1144.9</ele>
        <time>2025-10-05T10:34:06Z</time>
      </trkpt>
      <trkpt lat="43.33383" lon="5.7869">
        <ele>1144.9</ele>
        <time>2025-10-05T10:34:07Z</time>
      </trkpt>
      <trkpt lat="43.33383" lon="5.7869">
        <ele>1144.8</ele>
        <time>2025-10-05T10:34:08Z</time>
      </trkpt>
      <trkpt lat="43.33383" lon="5.7869">
        <ele>1144.7</ele>
        <time>2025-10-05T10:34:09Z</time>
      </trkpt>
      <trkpt lat="43.33383" lon="5.7869">
        <ele>1144.7</ele>
        <time>2025-10-05T10:34:10Z</time>
      </trkpt>
      <trkpt lat="43.33383" lon="5.7869">
        <ele>1144.6</ele>
        <time>2025-10-05T10:34:11Z</time>
      </trkpt>
      <trkpt lat="43.33383" lon="5.7869">
        <ele>1144.6</ele>
        <time>2025-10-05T10:34:12Z</time>
      </trkpt>
      <trkpt lat="43.33383" lon="5.7869">
        <ele>1144.6</ele>
        <time>2025-10-05T10:34:13Z</time>
      </trkpt>
      <trkpt lat="43.33383" lon="5.7869">
        <ele>1144.6</ele>
        <time>2025-10-05T10:34:14Z</time>
      </trkpt>
      <trkpt lat="43.33383" lon="5.7869">
        <ele>1144.7</ele>
        <time>2025-10-05T10:34:15Z</time>
      </trkpt>
      <trkpt lat="43.33383" lon="5.7869">
        <ele>1144.7</ele>
        <time>2025-10-05T10:34:16Z</time>
      </trkpt>
      <trkpt lat="43.33383" lon="5.7869">
        <ele>1144.7</ele>
        <time>2025-10-05T10:34:17Z</time>
      </trkpt>
      <trkpt lat="43.33383" lon="5.7869">
        <ele>1144.7</ele>
        <time>2025-10-05T10:34:18Z</time>
      </trkpt>
      <trkpt lat="43.33383" lon="5.7869">
        <ele>1144.8</ele>
        <time>2025-10-05T10:34:19Z</time>
      </trkpt>
      <trkpt lat="43.33383" lon="5.7869">
        <ele>1144.8</ele>
        <time>2025-10-05T10:34:20Z</time>
      </trkpt>
      <trkpt lat="43.33383" lon="5.7869">
        <ele>1144.8</ele>
        <time>2025-10-05T10:34:21Z</time>
      </trkpt>
      <trkpt lat="43.33383" lon="5.7869">
        <ele>1144.7</ele>
        <time>2025-10-05T10:34:22Z</time>
      </trkpt>
      <trkpt lat="43.33383" lon="5.7869">
        <ele>1144.7</ele>
        <time>2025-10-05T10:34:23Z</time>
      </trkpt>
      <trkpt lat="43.33383" lon="5.7869">
        <ele>1144.7</ele>
        <time>2025-10-05T10:34:24Z</time>
      </trkpt>
      <trkpt lat="43.33383" lon="5.7869">
        <ele>1144.9</ele>
        <time>2025-10-05T10:34:25Z</time>
      </trkpt>
      <trkpt lat="43.33383" lon="5.7869">
        <ele>1145</ele>
        <time>2025-10-05T10:34:26Z</time>
      </trkpt>
      <trkpt lat="43.33383" lon="5.78689">
        <ele>1145</ele>
        <time>2025-10-05T10:34:27Z</time>
      </trkpt>
      <trkpt lat="43.33383" lon="5.78689">
        <ele>1145</ele>
        <time>2025-10-05T10:34:28Z</time>
      </trkpt>
      <trkpt lat="43.33383" lon="5.78689">
        <ele>1145.1</ele>
        <time>2025-10-05T10:34:29Z</time>
      </trkpt>
      <trkpt lat="43.33383" lon="5.78689">
        <ele>1145.1</ele>
        <time>2025-10-05T10:34:30Z</time>
      </trkpt>
      <trkpt lat="43.33383" lon="5.78689">
        <ele>1145.3</ele>
        <time>2025-10-05T10:34:31Z</time>
      </trkpt>
      <trkpt lat="43.33383" lon="5.78689">
        <ele>1145.4</ele>
        <time>2025-10-05T10:34:32Z</time>
      </trkpt>
      <trkpt lat="43.33383" lon="5.78689">
        <ele>1145.5</ele>
        <time>2025-10-05T10:34:33Z</time>
      </trkpt>
      <trkpt lat="43.33383" lon="5.78689">
        <ele>1145.6</ele>
        <time>2025-10-05T10:34:34Z</time>
      </trkpt>
      <trkpt lat="43.33383" lon="5.78689">
        <ele>1145.7</ele>
        <time>2025-10-05T10:34:35Z</time>
      </trkpt>
      <trkpt lat="43.33383" lon="5.78689">
        <ele>1145.6</ele>
        <time>2025-10-05T10:34:36Z</time>
      </trkpt>
      <trkpt lat="43.33383" lon="5.78689">
        <ele>1145.6</ele>
        <time>2025-10-05T10:34:37Z</time>
      </trkpt>
      <trkpt lat="43.33383" lon="5.78689">
        <ele>1145.7</ele>
        <time>2025-10-05T10:34:38Z</time>
      </trkpt>
      <trkpt lat="43.33383" lon="5.78689">
        <ele>1145.8</ele>
        <time>2025-10-05T10:34:39Z</time>
      </trkpt>
      <trkpt lat="43.33383" lon="5.78689">
        <ele>1145.9</ele>
        <time>2025-10-05T10:34:40Z</time>
      </trkpt>
      <trkpt lat="43.33383" lon="5.78689">
        <ele>1145.9</ele>
        <time>2025-10-05T10:34:41Z</time>
      </trkpt>
      <trkpt lat="43.33383" lon="5.78688">
        <ele>1145.8</ele>
        <time>2025-10-05T10:34:42Z</time>
      </trkpt>
      <trkpt lat="43.33383" lon="5.78688">
        <ele>1145.8</ele>
        <time>2025-10-05T10:34:43Z</time>
      </trkpt>
      <trkpt lat="43.33383" lon="5.78688">
        <ele>1145.7</ele>
        <time>2025-10-05T10:34:44Z</time>
      </trkpt>
      <trkpt lat="43.33383" lon="5.78688">
        <ele>1145.7</ele>
        <time>2025-10-05T10:34:45Z</time>
      </trkpt>
      <trkpt lat="43.33383" lon="5.78688">
        <ele>1145.7</ele>
        <time>2025-10-05T10:34:46Z</time>
      </trkpt>
      <trkpt lat="43.33383" lon="5.78688">
        <ele>1145.7</ele>
        <time>2025-10-05T10:34:47Z</time>
      </trkpt>
      <trkpt lat="43.33383" lon="5.78688">
        <ele>1145.7</ele>
        <time>2025-10-05T10:34:48Z</time>
      </trkpt>
      <trkpt lat="43.33383" lon="5.78688">
        <ele>1145.8</ele>
        <time>2025-10-05T10:34:49Z</time>
      </trkpt>
      <trkpt lat="43.33384" lon="5.78688">
        <ele>1145.9</ele>
        <time>2025-10-05T10:34:50Z</time>
      </trkpt>
      <trkpt lat="43.33384" lon="5.78688">
        <ele>1146</ele>
        <time>2025-10-05T10:34:51Z</time>
      </trkpt>
      <trkpt lat="43.33384" lon="5.78688">
        <ele>1146</ele>
        <time>2025-10-05T10:34:52Z</time>
      </trkpt>
      <trkpt lat="43.33384" lon="5.78688">
        <ele>1146</ele>
        <time>2025-10-05T10:34:53Z</time>
      </trkpt>
      <trkpt lat="43.33384" lon="5.78688">
        <ele>1145.9</ele>
        <time>2025-10-05T10:34:54Z</time>
      </trkpt>
      <trkpt lat="43.33384" lon="5.78688">
        <ele>1145.9</ele>
        <time>2025-10-05T10:34:55Z</time>
      </trkpt>
      <trkpt lat="43.33384" lon="5.78688">
        <ele>1145.8</ele>
        <time>2025-10-05T10:34:56Z</time>
      </trkpt>
      <trkpt lat="43.33384" lon="5.78688">
        <ele>1145.8</ele>
        <time>2025-10-05T10:34:57Z</time>
      </trkpt>
      <trkpt lat="43.33384" lon="5.78688">
        <ele>1145.8</ele>
        <time>2025-10-05T10:34:58Z</time>
      </trkpt>
      <trkpt lat="43.33384" lon="5.78688">
        <ele>1145.8</ele>
        <time>2025-10-05T10:34:59Z</time>
      </trkpt>
      <trkpt lat="43.33384" lon="5.78688">
        <ele>1145.8</ele>
        <time>2025-10-05T10:35:00Z</time>
      </trkpt>
      <trkpt lat="43.33384" lon="5.78688">
        <ele>1145.8</ele>
        <time>2025-10-05T10:35:01Z</time>
      </trkpt>
      <trkpt lat="43.33384" lon="5.78688">
        <ele>1145.7</ele>
        <time>2025-10-05T10:35:02Z</time>
      </trkpt>
      <trkpt lat="43.33384" lon="5.78688">
        <ele>1145.6</ele>
        <time>2025-10-05T10:35:03Z</time>
      </trkpt>
      <trkpt lat="43.33384" lon="5.78688">
        <ele>1145.6</ele>
        <time>2025-10-05T10:35:04Z</time>
      </trkpt>
      <trkpt lat="43.33384" lon="5.78688">
        <ele>1145.5</ele>
        <time>2025-10-05T10:35:05Z</time>
      </trkpt>
      <trkpt lat="43.33384" lon="5.78688">
        <ele>1145.6</ele>
        <time>2025-10-05T10:35:06Z</time>
      </trkpt>
      <trkpt lat="43.33384" lon="5.78688">
        <ele>1145.7</ele>
        <time>2025-10-05T10:35:07Z</time>
      </trkpt>
      <trkpt lat="43.33384" lon="5.78688">
        <ele>1145.6</ele>
        <time>2025-10-05T10:35:08Z</time>
      </trkpt>
      <trkpt lat="43.33384" lon="5.78688">
        <ele>1145.5</ele>
        <time>2025-10-05T10:35:09Z</time>
      </trkpt>
      <trkpt lat="43.33384" lon="5.78688">
        <ele>1145.4</ele>
        <time>2025-10-05T10:35:10Z</time>
      </trkpt>
      <trkpt lat="43.33384" lon="5.78688">
        <ele>1145.3</ele>
        <time>2025-10-05T10:35:11Z</time>
      </trkpt>
      <trkpt lat="43.33384" lon="5.78688">
        <ele>1145.2</ele>
        <time>2025-10-05T10:35:12Z</time>
      </trkpt>
      <trkpt lat="43.33384" lon="5.78688">
        <ele>1145.2</ele>
        <time>2025-10-05T10:35:13Z</time>
      </trkpt>
      <trkpt lat="43.33384" lon="5.78688">
        <ele>1145.3</ele>
        <time>2025-10-05T10:35:14Z</time>
      </trkpt>
      <trkpt lat="43.33384" lon="5.78688">
        <ele>1145.1</ele>
        <time>2025-10-05T10:35:15Z</time>
      </trkpt>
      <trkpt lat="43.33384" lon="5.78688">
        <ele>1145</ele>
        <time>2025-10-05T10:35:16Z</time>
      </trkpt>
      <trkpt lat="43.33384" lon="5.78688">
        <ele>1144.9</ele>
        <time>2025-10-05T10:35:17Z</time>
      </trkpt>
      <trkpt lat="43.33384" lon="5.78688">
        <ele>1144.9</ele>
        <time>2025-10-05T10:35:18Z</time>
      </trkpt>
      <trkpt lat="43.33384" lon="5.78688">
        <ele>1144.9</ele>
        <time>2025-10-05T10:35:19Z</time>
      </trkpt>
      <trkpt lat="43.33384" lon="5.78688">
        <ele>1144.9</ele>
        <time>2025-10-05T10:35:20Z</time>
      </trkpt>
      <trkpt lat="43.33384" lon="5.78688">
        <ele>1144.8</ele>
        <time>2025-10-05T10:35:21Z</time>
      </trkpt>
      <trkpt lat="43.33384" lon="5.78688">
        <ele>1144.7</ele>
        <time>2025-10-05T10:35:22Z</time>
      </trkpt>
      <trkpt lat="43.33384" lon="5.78688">
        <ele>1144.7</ele>
        <time>2025-10-05T10:35:23Z</time>
      </trkpt>
      <trkpt lat="43.33384" lon="5.78688">
        <ele>1144.6</ele>
        <time>2025-10-05T10:35:24Z</time>
      </trkpt>
      <trkpt lat="43.33384" lon="5.78688">
        <ele>1144.7</ele>
        <time>2025-10-05T10:35:25Z</time>
      </trkpt>
      <trkpt lat="43.33384" lon="5.78688">
        <ele>1144.7</ele>
        <time>2025-10-05T10:35:26Z</time>
      </trkpt>
      <trkpt lat="43.33384" lon="5.78687">
        <ele>1144.7</ele>
        <time>2025-10-05T10:35:27Z</time>
      </trkpt>
      <trkpt lat="43.33384" lon="5.78687">
        <ele>1144.7</ele>
        <time>2025-10-05T10:35:28Z</time>
      </trkpt>
      <trkpt lat="43.33384" lon="5.78687">
        <ele>1144.8</ele>
        <time>2025-10-05T10:35:29Z</time>
      </trkpt>
      <trkpt lat="43.33384" lon="5.78687">
        <ele>1144.9</ele>
        <time>2025-10-05T10:35:30Z</time>
      </trkpt>
      <trkpt lat="43.33383" lon="5.78687">
        <ele>1144.8</ele>
        <time>2025-10-05T10:35:31Z</time>
      </trkpt>
      <trkpt lat="43.33383" lon="5.78687">
        <ele>1144.8</ele>
        <time>2025-10-05T10:35:32Z</time>
      </trkpt>
      <trkpt lat="43.33383" lon="5.78687">
        <ele>1144.8</ele>
        <time>2025-10-05T10:35:33Z</time>
      </trkpt>
      <trkpt lat="43.33383" lon="5.78687">
        <ele>1144.8</ele>
        <time>2025-10-05T10:35:34Z</time>
      </trkpt>
      <trkpt lat="43.33383" lon="5.78687">
        <ele>1144.9</ele>
        <time>2025-10-05T10:35:35Z</time>
      </trkpt>
      <trkpt lat="43.33383" lon="5.78687">
        <ele>1144.9</ele>
        <time>2025-10-05T10:35:36Z</time>
      </trkpt>
      <trkpt lat="43.33383" lon="5.78687">
        <ele>1145</ele>
        <time>2025-10-05T10:35:37Z</time>
      </trkpt>
      <trkpt lat="43.33383" lon="5.78687">
        <ele>1145.1</ele>
        <time>2025-10-05T10:35:38Z</time>
      </trkpt>
      <trkpt lat="43.33383" lon="5.78687">
        <ele>1145.1</ele>
        <time>2025-10-05T10:35:39Z</time>
      </trkpt>
      <trkpt lat="43.33383" lon="5.78687">
        <ele>1145.2</ele>
        <time>2025-10-05T10:35:40Z</time>
      </trkpt>
      <trkpt lat="43.33383" lon="5.78687">
        <ele>1145.3</ele>
        <time>2025-10-05T10:35:41Z</time>
      </trkpt>
      <trkpt lat="43.33383" lon="5.78687">
        <ele>1145.4</ele>
        <time>2025-10-05T10:35:42Z</time>
      </trkpt>
      <trkpt lat="43.33383" lon="5.78687">
        <ele>1145.4</ele>
        <time>2025-10-05T10:35:43Z</time>
      </trkpt>
      <trkpt lat="43.33383" lon="5.78687">
        <ele>1145.3</ele>
        <time>2025-10-05T10:35:44Z</time>
      </trkpt>
      <trkpt lat="43.33383" lon="5.78687">
        <ele>1145.3</ele>
        <time>2025-10-05T10:35:45Z</time>
      </trkpt>
      <trkpt lat="43.33383" lon="5.78687">
        <ele>1145.3</ele>
        <time>2025-10-05T10:35:46Z</time>
      </trkpt>
      <trkpt lat="43.33383" lon="5.78687">
        <ele>1145.3</ele>
        <time>2025-10-05T10:35:47Z</time>
      </trkpt>
      <trkpt lat="43.33383" lon="5.78687">
        <ele>1145.3</ele>
        <time>2025-10-05T10:35:48Z</time>
      </trkpt>
      <trkpt lat="43.33383" lon="5.78687">
        <ele>1145.2</ele>
        <time>2025-10-05T10:35:49Z</time>
      </trkpt>
      <trkpt lat="43.33383" lon="5.78687">
        <ele>1145.2</ele>
        <time>2025-10-05T10:35:50Z</time>
      </trkpt>
      <trkpt lat="43.33383" lon="5.78687">
        <ele>1145.2</ele>
        <time>2025-10-05T10:35:51Z</time>
      </trkpt>
      <trkpt lat="43.33383" lon="5.78687">
        <ele>1145.2</ele>
        <time>2025-10-05T10:35:52Z</time>
      </trkpt>
      <trkpt lat="43.33383" lon="5.78687">
        <ele>1145.3</ele>
        <time>2025-10-05T10:35:53Z</time>
      </trkpt>
      <trkpt lat="43.33383" lon="5.78687">
        <ele>1145.4</ele>
        <time>2025-10-05T10:35:54Z</time>
      </trkpt>
      <trkpt lat="43.33383" lon="5.78687">
        <ele>1145.5</ele>
        <time>2025-10-05T10:35:55Z</time>
      </trkpt>
      <trkpt lat="43.33383" lon="5.78687">
        <ele>1145.7</ele>
        <time>2025-10-05T10:35:56Z</time>
      </trkpt>
      <trkpt lat="43.33383" lon="5.78687">
        <ele>1145.9</ele>
        <time>2025-10-05T10:35:57Z</time>
      </trkpt>
      <trkpt lat="43.33383" lon="5.78687">
        <ele>1145.9</ele>
        <time>2025-10-05T10:35:58Z</time>
      </trkpt>
      <trkpt lat="43.33383" lon="5.78687">
        <ele>1146</ele>
        <time>2025-10-05T10:35:59Z</time>
      </trkpt>
      <trkpt lat="43.33383" lon="5.78687">
        <ele>1146.1</ele>
        <time>2025-10-05T10:36:00Z</time>
      </trkpt>
      <trkpt lat="43.33383" lon="5.78687">
        <ele>1146.2</ele>
        <time>2025-10-05T10:36:01Z</time>
      </trkpt>
      <trkpt lat="43.33383" lon="5.78687">
        <ele>1146.3</ele>
        <time>2025-10-05T10:36:02Z</time>
      </trkpt>
      <trkpt lat="43.33383" lon="5.78687">
        <ele>1146.2</ele>
        <time>2025-10-05T10:36:03Z</time>
      </trkpt>
      <trkpt lat="43.33383" lon="5.78687">
        <ele>1146.3</ele>
        <time>2025-10-05T10:36:04Z</time>
      </trkpt>
      <trkpt lat="43.33383" lon="5.78686">
        <ele>1146.4</ele>
        <time>2025-10-05T10:36:05Z</time>
      </trkpt>
      <trkpt lat="43.33383" lon="5.78687">
        <ele>1146.4</ele>
        <time>2025-10-05T10:36:06Z</time>
      </trkpt>
      <trkpt lat="43.33383" lon="5.78687">
        <ele>1146.4</ele>
        <time>2025-10-05T10:36:07Z</time>
      </trkpt>
      <trkpt lat="43.33383" lon="5.78687">
        <ele>1146.5</ele>
        <time>2025-10-05T10:36:08Z</time>
      </trkpt>
      <trkpt lat="43.33383" lon="5.78687">
        <ele>1146.5</ele>
        <time>2025-10-05T10:36:09Z</time>
      </trkpt>
      <trkpt lat="43.33383" lon="5.78687">
        <ele>1146.5</ele>
        <time>2025-10-05T10:36:10Z</time>
      </trkpt>
      <trkpt lat="43.33383" lon="5.78687">
        <ele>1146.4</ele>
        <time>2025-10-05T10:36:11Z</time>
      </trkpt>
      <trkpt lat="43.33383" lon="5.78687">
        <ele>1146.4</ele>
        <time>2025-10-05T10:36:12Z</time>
      </trkpt>
      <trkpt lat="43.33383" lon="5.78687">
        <ele>1146.3</ele>
        <time>2025-10-05T10:36:13Z</time>
      </trkpt>
      <trkpt lat="43.33383" lon="5.78687">
        <ele>1146.2</ele>
        <time>2025-10-05T10:36:14Z</time>
      </trkpt>
      <trkpt lat="43.33383" lon="5.78687">
        <ele>1146.2</ele>
        <time>2025-10-05T10:36:15Z</time>
      </trkpt>
      <trkpt lat="43.33383" lon="5.78687">
        <ele>1146.1</ele>
        <time>2025-10-05T10:36:16Z</time>
      </trkpt>
      <trkpt lat="43.33383" lon="5.78687">
        <ele>1146.1</ele>
        <time>2025-10-05T10:36:17Z</time>
      </trkpt>
      <trkpt lat="43.33383" lon="5.78687">
        <ele>1146</ele>
        <time>2025-10-05T10:36:18Z</time>
      </trkpt>
      <trkpt lat="43.33383" lon="5.78687">
        <ele>1146</ele>
        <time>2025-10-05T10:36:19Z</time>
      </trkpt>
      <trkpt lat="43.33383" lon="5.78687">
        <ele>1145.9</ele>
        <time>2025-10-05T10:36:20Z</time>
      </trkpt>
      <trkpt lat="43.33383" lon="5.78687">
        <ele>1145.8</ele>
        <time>2025-10-05T10:36:21Z</time>
      </trkpt>
      <trkpt lat="43.33383" lon="5.78687">
        <ele>1145.7</ele>
        <time>2025-10-05T10:36:22Z</time>
      </trkpt>
      <trkpt lat="43.33383" lon="5.78687">
        <ele>1145.8</ele>
        <time>2025-10-05T10:36:23Z</time>
      </trkpt>
      <trkpt lat="43.33383" lon="5.78687">
        <ele>1145.8</ele>
        <time>2025-10-05T10:36:24Z</time>
      </trkpt>
      <trkpt lat="43.33383" lon="5.78687">
        <ele>1145.7</ele>
        <time>2025-10-05T10:36:25Z</time>
      </trkpt>
      <trkpt lat="43.33383" lon="5.78687">
        <ele>1145.5</ele>
        <time>2025-10-05T10:36:26Z</time>
      </trkpt>
      <trkpt lat="43.33383" lon="5.78687">
        <ele>1145.5</ele>
        <time>2025-10-05T10:36:27Z</time>
      </trkpt>
      <trkpt lat="43.33383" lon="5.78687">
        <ele>1145.5</ele>
        <time>2025-10-05T10:36:28Z</time>
      </trkpt>
      <trkpt lat="43.33383" lon="5.78687">
        <ele>1145.4</ele>
        <time>2025-10-05T10:36:29Z</time>
      </trkpt>
      <trkpt lat="43.33383" lon="5.78687">
        <ele>1145.4</ele>
        <time>2025-10-05T10:36:30Z</time>
      </trkpt>
      <trkpt lat="43.33383" lon="5.78687">
        <ele>1145.4</ele>
        <time>2025-10-05T10:36:31Z</time>
      </trkpt>
      <trkpt lat="43.33383" lon="5.78687">
        <ele>1145.4</ele>
        <time>2025-10-05T10:36:32Z</time>
      </trkpt>
      <trkpt lat="43.33383" lon="5.78687">
        <ele>1145.3</ele>
        <time>2025-10-05T10:36:33Z</time>
      </trkpt>
      <trkpt lat="43.33383" lon="5.78687">
        <ele>1145.2</ele>
        <time>2025-10-05T10:36:34Z</time>
      </trkpt>
      <trkpt lat="43.33383" lon="5.78687">
        <ele>1145.3</ele>
        <time>2025-10-05T10:36:35Z</time>
      </trkpt>
      <trkpt lat="43.33383" lon="5.78687">
        <ele>1145.4</ele>
        <time>2025-10-05T10:36:36Z</time>
      </trkpt>
      <trkpt lat="43.33383" lon="5.78687">
        <ele>1145.3</ele>
        <time>2025-10-05T10:36:37Z</time>
      </trkpt>
      <trkpt lat="43.33383" lon="5.78687">
        <ele>1145.3</ele>
        <time>2025-10-05T10:36:38Z</time>
      </trkpt>
      <trkpt lat="43.33383" lon="5.78687">
        <ele>1145.3</ele>
        <time>2025-10-05T10:36:39Z</time>
      </trkpt>
      <trkpt lat="43.33383" lon="5.78687">
        <ele>1145.4</ele>
        <time>2025-10-05T10:36:40Z</time>
      </trkpt>
      <trkpt lat="43.33383" lon="5.78687">
        <ele>1145.4</ele>
        <time>2025-10-05T10:36:41Z</time>
      </trkpt>
      <trkpt lat="43.33383" lon="5.78687">
        <ele>1145.3</ele>
        <time>2025-10-05T10:36:42Z</time>
      </trkpt>
      <trkpt lat="43.33383" lon="5.78687">
        <ele>1145.3</ele>
        <time>2025-10-05T10:36:43Z</time>
      </trkpt>
      <trkpt lat="43.33383" lon="5.78687">
        <ele>1145.2</ele>
        <time>2025-10-05T10:36:44Z</time>
      </trkpt>
      <trkpt lat="43.33383" lon="5.78687">
        <ele>1145.2</ele>
        <time>2025-10-05T10:36:45Z</time>
      </trkpt>
      <trkpt lat="43.33383" lon="5.78687">
        <ele>1145.2</ele>
        <time>2025-10-05T10:36:46Z</time>
      </trkpt>
      <trkpt lat="43.33383" lon="5.78687">
        <ele>1145.1</ele>
        <time>2025-10-05T10:36:47Z</time>
      </trkpt>
      <trkpt lat="43.33383" lon="5.78687">
        <ele>1144.9</ele>
        <time>2025-10-05T10:36:48Z</time>
      </trkpt>
      <trkpt lat="43.33383" lon="5.78687">
        <ele>1144.9</ele>
        <time>2025-10-05T10:36:49Z</time>
      </trkpt>
      <trkpt lat="43.33383" lon="5.78687">
        <ele>1144.8</ele>
        <time>2025-10-05T10:36:50Z</time>
      </trkpt>
      <trkpt lat="43.33383" lon="5.78687">
        <ele>1144.8</ele>
        <time>2025-10-05T10:36:51Z</time>
      </trkpt>
      <trkpt lat="43.33383" lon="5.78687">
        <ele>1144.7</ele>
        <time>2025-10-05T10:36:52Z</time>
      </trkpt>
      <trkpt lat="43.33383" lon="5.78687">
        <ele>1144.6</ele>
        <time>2025-10-05T10:36:53Z</time>
      </trkpt>
      <trkpt lat="43.33383" lon="5.78687">
        <ele>1144.6</ele>
        <time>2025-10-05T10:36:54Z</time>
      </trkpt>
      <trkpt lat="43.33383" lon="5.78687">
        <ele>1144.5</ele>
        <time>2025-10-05T10:36:55Z</time>
      </trkpt>
      <trkpt lat="43.33383" lon="5.78687">
        <ele>1144.7</ele>
        <time>2025-10-05T10:36:56Z</time>
      </trkpt>
      <trkpt lat="43.33383" lon="5.78687">
        <ele>1144.6</ele>
        <time>2025-10-05T10:36:57Z</time>
      </trkpt>
      <trkpt lat="43.33383" lon="5.78687">
        <ele>1144.7</ele>
        <time>2025-10-05T10:36:58Z</time>
      </trkpt>
      <trkpt lat="43.33383" lon="5.78687">
        <ele>1144.8</ele>
        <time>2025-10-05T10:36:59Z</time>
      </trkpt>
      <trkpt lat="43.33383" lon="5.78687">
        <ele>1144.9</ele>
        <time>2025-10-05T10:37:00Z</time>
      </trkpt>
      <trkpt lat="43.33383" lon="5.78687">
        <ele>1145.1</ele>
        <time>2025-10-05T10:37:01Z</time>
      </trkpt>
      <trkpt lat="43.33383" lon="5.78687">
        <ele>1145.1</ele>
        <time>2025-10-05T10:37:02Z</time>
      </trkpt>
      <trkpt lat="43.33383" lon="5.78687">
        <ele>1145.2</ele>
        <time>2025-10-05T10:37:03Z</time>
      </trkpt>
      <trkpt lat="43.33383" lon="5.78687">
        <ele>1145.3</ele>
        <time>2025-10-05T10:37:04Z</time>
      </trkpt>
      <trkpt lat="43.33383" lon="5.78687">
        <ele>1145.3</ele>
        <time>2025-10-05T10:37:05Z</time>
      </trkpt>
      <trkpt lat="43.33383" lon="5.78687">
        <ele>1145.4</ele>
        <time>2025-10-05T10:37:06Z</time>
      </trkpt>
      <trkpt lat="43.33383" lon="5.78687">
        <ele>1145.4</ele>
        <time>2025-10-05T10:37:07Z</time>
      </trkpt>
      <trkpt lat="43.33383" lon="5.78687">
        <ele>1145.5</ele>
        <time>2025-10-05T10:37:08Z</time>
      </trkpt>
      <trkpt lat="43.33383" lon="5.78687">
        <ele>1145.5</ele>
        <time>2025-10-05T10:37:09Z</time>
      </trkpt>
      <trkpt lat="43.33383" lon="5.78687">
        <ele>1145.5</ele>
        <time>2025-10-05T10:37:10Z</time>
      </trkpt>
      <trkpt lat="43.33383" lon="5.78687">
        <ele>1145.5</ele>
        <time>2025-10-05T10:37:11Z</time>
      </trkpt>
      <trkpt lat="43.33383" lon="5.78686">
        <ele>1145.5</ele>
        <time>2025-10-05T10:37:12Z</time>
      </trkpt>
      <trkpt lat="43.33383" lon="5.78686">
        <ele>1145.6</ele>
        <time>2025-10-05T10:37:13Z</time>
      </trkpt>
      <trkpt lat="43.33383" lon="5.78686">
        <ele>1145.7</ele>
        <time>2025-10-05T10:37:14Z</time>
      </trkpt>
      <trkpt lat="43.33383" lon="5.78686">
        <ele>1145.7</ele>
        <time>2025-10-05T10:37:15Z</time>
      </trkpt>
      <trkpt lat="43.33383" lon="5.78687">
        <ele>1145.6</ele>
        <time>2025-10-05T10:37:16Z</time>
      </trkpt>
      <trkpt lat="43.33383" lon="5.78687">
        <ele>1145.5</ele>
        <time>2025-10-05T10:37:17Z</time>
      </trkpt>
      <trkpt lat="43.33383" lon="5.78687">
        <ele>1145.5</ele>
        <time>2025-10-05T10:37:18Z</time>
      </trkpt>
      <trkpt lat="43.33383" lon="5.78687">
        <ele>1145.5</ele>
        <time>2025-10-05T10:37:19Z</time>
      </trkpt>
      <trkpt lat="43.33383" lon="5.78687">
        <ele>1145.5</ele>
        <time>2025-10-05T10:37:20Z</time>
      </trkpt>
      <trkpt lat="43.33383" lon="5.78687">
        <ele>1145.5</ele>
        <time>2025-10-05T10:37:21Z</time>
      </trkpt>
      <trkpt lat="43.33383" lon="5.78687">
        <ele>1145.5</ele>
        <time>2025-10-05T10:37:22Z</time>
      </trkpt>
      <trkpt lat="43.33383" lon="5.78687">
        <ele>1145.4</ele>
        <time>2025-10-05T10:37:23Z</time>
      </trkpt>
      <trkpt lat="43.33383" lon="5.78687">
        <ele>1145.4</ele>
        <time>2025-10-05T10:37:24Z</time>
      </trkpt>
      <trkpt lat="43.33383" lon="5.78687">
        <ele>1145.4</ele>
        <time>2025-10-05T10:37:25Z</time>
      </trkpt>
      <trkpt lat="43.33383" lon="5.78687">
        <ele>1145.4</ele>
        <time>2025-10-05T10:37:26Z</time>
      </trkpt>
      <trkpt lat="43.33383" lon="5.78687">
        <ele>1145.5</ele>
        <time>2025-10-05T10:37:27Z</time>
      </trkpt>
      <trkpt lat="43.33383" lon="5.78687">
        <ele>1145.5</ele>
        <time>2025-10-05T10:37:28Z</time>
      </trkpt>
      <trkpt lat="43.33383" lon="5.78687">
        <ele>1145.5</ele>
        <time>2025-10-05T10:37:29Z</time>
      </trkpt>
      <trkpt lat="43.33383" lon="5.78687">
        <ele>1145.5</ele>
        <time>2025-10-05T10:37:30Z</time>
      </trkpt>
      <trkpt lat="43.33383" lon="5.78687">
        <ele>1145.5</ele>
        <time>2025-10-05T10:37:31Z</time>
      </trkpt>
      <trkpt lat="43.33383" lon="5.78687">
        <ele>1145.5</ele>
        <time>2025-10-05T10:37:32Z</time>
      </trkpt>
      <trkpt lat="43.33383" lon="5.78687">
        <ele>1145.5</ele>
        <time>2025-10-05T10:37:33Z</time>
      </trkpt>
      <trkpt lat="43.33383" lon="5.78687">
        <ele>1145.5</ele>
        <time>2025-10-05T10:37:34Z</time>
      </trkpt>
      <trkpt lat="43.33383" lon="5.78687">
        <ele>1145.5</ele>
        <time>2025-10-05T10:37:35Z</time>
      </trkpt>
      <trkpt lat="43.33383" lon="5.78687">
        <ele>1145.5</ele>
        <time>2025-10-05T10:37:36Z</time>
      </trkpt>
      <trkpt lat="43.33383" lon="5.78687">
        <ele>1145.5</ele>
        <time>2025-10-05T10:37:37Z</time>
      </trkpt>
      <trkpt lat="43.33383" lon="5.78687">
        <ele>1145.5</ele>
        <time>2025-10-05T10:37:38Z</time>
      </trkpt>
      <trkpt lat="43.33383" lon="5.78686">
        <ele>1145.5</ele>
        <time>2025-10-05T10:37:39Z</time>
      </trkpt>
      <trkpt lat="43.33383" lon="5.78686">
        <ele>1145.5</ele>
        <time>2025-10-05T10:37:40Z</time>
      </trkpt>
      <trkpt lat="43.33383" lon="5.78686">
        <ele>1145.6</ele>
        <time>2025-10-05T10:37:41Z</time>
      </trkpt>
      <trkpt lat="43.33383" lon="5.78686">
        <ele>1145.6</ele>
        <time>2025-10-05T10:37:42Z</time>
      </trkpt>
      <trkpt lat="43.33383" lon="5.78686">
        <ele>1145.6</ele>
        <time>2025-10-05T10:37:43Z</time>
      </trkpt>
      <trkpt lat="43.33383" lon="5.78686">
        <ele>1145.6</ele>
        <time>2025-10-05T10:37:44Z</time>
      </trkpt>
      <trkpt lat="43.33383" lon="5.78686">
        <ele>1145.5</ele>
        <time>2025-10-05T10:37:45Z</time>
      </trkpt>
      <trkpt lat="43.33383" lon="5.78686">
        <ele>1145.5</ele>
        <time>2025-10-05T10:37:46Z</time>
      </trkpt>
      <trkpt lat="43.33383" lon="5.78686">
        <ele>1145.5</ele>
        <time>2025-10-05T10:37:47Z</time>
      </trkpt>
      <trkpt lat="43.33383" lon="5.78686">
        <ele>1145.5</ele>
        <time>2025-10-05T10:37:48Z</time>
      </trkpt>
      <trkpt lat="43.33382" lon="5.78686">
        <ele>1145.5</ele>
        <time>2025-10-05T10:37:49Z</time>
      </trkpt>
      <trkpt lat="43.33382" lon="5.78686">
        <ele>1145.4</ele>
        <time>2025-10-05T10:37:50Z</time>
      </trkpt>
      <trkpt lat="43.33382" lon="5.78687">
        <ele>1145.4</ele>
        <time>2025-10-05T10:37:51Z</time>
      </trkpt>
      <trkpt lat="43.33383" lon="5.78687">
        <ele>1145.4</ele>
        <time>2025-10-05T10:37:52Z</time>
      </trkpt>
      <trkpt lat="43.33383" lon="5.78686">
        <ele>1145.4</ele>
        <time>2025-10-05T10:37:53Z</time>
      </trkpt>
      <trkpt lat="43.33382" lon="5.78686">
        <ele>1145.3</ele>
        <time>2025-10-05T10:37:54Z</time>
      </trkpt>
      <trkpt lat="43.33382" lon="5.78686">
        <ele>1145.3</ele>
        <time>2025-10-05T10:37:55Z</time>
      </trkpt>
      <trkpt lat="43.33382" lon="5.78687">
        <ele>1145.4</ele>
        <time>2025-10-05T10:37:56Z</time>
      </trkpt>
      <trkpt lat="43.33382" lon="5.78686">
        <ele>1145.4</ele>
        <time>2025-10-05T10:37:57Z</time>
      </trkpt>
      <trkpt lat="43.33382" lon="5.78686">
        <ele>1145.4</ele>
        <time>2025-10-05T10:37:58Z</time>
      </trkpt>
      <trkpt lat="43.33382" lon="5.78686">
        <ele>1145.5</ele>
        <time>2025-10-05T10:37:59Z</time>
      </trkpt>
      <trkpt lat="43.33382" lon="5.78686">
        <ele>1145.5</ele>
        <time>2025-10-05T10:38:00Z</time>
      </trkpt>
      <trkpt lat="43.33382" lon="5.78686">
        <ele>1145.5</ele>
        <time>2025-10-05T10:38:01Z</time>
      </trkpt>
      <trkpt lat="43.33382" lon="5.78686">
        <ele>1145.6</ele>
        <time>2025-10-05T10:38:02Z</time>
      </trkpt>
      <trkpt lat="43.33382" lon="5.78686">
        <ele>1145.6</ele>
        <time>2025-10-05T10:38:03Z</time>
      </trkpt>
      <trkpt lat="43.33382" lon="5.78686">
        <ele>1145.4</ele>
        <time>2025-10-05T10:38:04Z</time>
      </trkpt>
      <trkpt lat="43.33382" lon="5.78686">
        <ele>1145.3</ele>
        <time>2025-10-05T10:38:05Z</time>
      </trkpt>
      <trkpt lat="43.33382" lon="5.78686">
        <ele>1145.3</ele>
        <time>2025-10-05T10:38:06Z</time>
      </trkpt>
      <trkpt lat="43.33382" lon="5.78686">
        <ele>1145.3</ele>
        <time>2025-10-05T10:38:07Z</time>
      </trkpt>
      <trkpt lat="43.33382" lon="5.78686">
        <ele>1145.2</ele>
        <time>2025-10-05T10:38:08Z</time>
      </trkpt>
      <trkpt lat="43.33382" lon="5.78686">
        <ele>1145.2</ele>
        <time>2025-10-05T10:38:09Z</time>
      </trkpt>
      <trkpt lat="43.33382" lon="5.78686">
        <ele>1145.2</ele>
        <time>2025-10-05T10:38:10Z</time>
      </trkpt>
      <trkpt lat="43.33382" lon="5.78686">
        <ele>1145</ele>
        <time>2025-10-05T10:38:11Z</time>
      </trkpt>
      <trkpt lat="43.33382" lon="5.78686">
        <ele>1145</ele>
        <time>2025-10-05T10:38:12Z</time>
      </trkpt>
      <trkpt lat="43.33382" lon="5.78686">
        <ele>1145</ele>
        <time>2025-10-05T10:38:13Z</time>
      </trkpt>
      <trkpt lat="43.33382" lon="5.78685">
        <ele>1145</ele>
        <time>2025-10-05T10:38:14Z</time>
      </trkpt>
      <trkpt lat="43.33382" lon="5.78685">
        <ele>1144.9</ele>
        <time>2025-10-05T10:38:15Z</time>
      </trkpt>
      <trkpt lat="43.33382" lon="5.78685">
        <ele>1144.9</ele>
        <time>2025-10-05T10:38:16Z</time>
      </trkpt>
      <trkpt lat="43.33382" lon="5.78686">
        <ele>1144.9</ele>
        <time>2025-10-05T10:38:17Z</time>
      </trkpt>
      <trkpt lat="43.33382" lon="5.78686">
        <ele>1144.7</ele>
        <time>2025-10-05T10:38:18Z</time>
      </trkpt>
      <trkpt lat="43.33382" lon="5.78686">
        <ele>1144.7</ele>
        <time>2025-10-05T10:38:19Z</time>
      </trkpt>
      <trkpt lat="43.33382" lon="5.78686">
        <ele>1144.5</ele>
        <time>2025-10-05T10:38:20Z</time>
      </trkpt>
      <trkpt lat="43.33382" lon="5.78686">
        <ele>1144.4</ele>
        <time>2025-10-05T10:38:21Z</time>
      </trkpt>
      <trkpt lat="43.33382" lon="5.78686">
        <ele>1144.4</ele>
        <time>2025-10-05T10:38:22Z</time>
      </trkpt>
      <trkpt lat="43.33382" lon="5.78686">
        <ele>1144.4</ele>
        <time>2025-10-05T10:38:23Z</time>
      </trkpt>
      <trkpt lat="43.33382" lon="5.78686">
        <ele>1144.4</ele>
        <time>2025-10-05T10:38:24Z</time>
      </trkpt>
      <trkpt lat="43.33382" lon="5.78686">
        <ele>1144.4</ele>
        <time>2025-10-05T10:38:25Z</time>
      </trkpt>
      <trkpt lat="43.33382" lon="5.78686">
        <ele>1144.4</ele>
        <time>2025-10-05T10:38:26Z</time>
      </trkpt>
      <trkpt lat="43.33382" lon="5.78686">
        <ele>1144.3</ele>
        <time>2025-10-05T10:38:27Z</time>
      </trkpt>
      <trkpt lat="43.33382" lon="5.78686">
        <ele>1144.3</ele>
        <time>2025-10-05T10:38:28Z</time>
      </trkpt>
      <trkpt lat="43.33382" lon="5.78686">
        <ele>1144.3</ele>
        <time>2025-10-05T10:38:29Z</time>
      </trkpt>
      <trkpt lat="43.33382" lon="5.78686">
        <ele>1144.2</ele>
        <time>2025-10-05T10:38:30Z</time>
      </trkpt>
      <trkpt lat="43.33382" lon="5.78686">
        <ele>1144.3</ele>
        <time>2025-10-05T10:38:31Z</time>
      </trkpt>
      <trkpt lat="43.33382" lon="5.78686">
        <ele>1144.3</ele>
        <time>2025-10-05T10:38:32Z</time>
      </trkpt>
      <trkpt lat="43.33382" lon="5.78686">
        <ele>1144.3</ele>
        <time>2025-10-05T10:38:33Z</time>
      </trkpt>
      <trkpt lat="43.33382" lon="5.78686">
        <ele>1144.5</ele>
        <time>2025-10-05T10:38:34Z</time>
      </trkpt>
      <trkpt lat="43.33382" lon="5.78686">
        <ele>1144.4</ele>
        <time>2025-10-05T10:38:35Z</time>
      </trkpt>
      <trkpt lat="43.33382" lon="5.78686">
        <ele>1144.5</ele>
        <time>2025-10-05T10:38:36Z</time>
      </trkpt>
      <trkpt lat="43.33382" lon="5.78686">
        <ele>1144.6</ele>
        <time>2025-10-05T10:38:37Z</time>
      </trkpt>
      <trkpt lat="43.33382" lon="5.78686">
        <ele>1144.6</ele>
        <time>2025-10-05T10:38:38Z</time>
      </trkpt>
      <trkpt lat="43.33381" lon="5.78686">
        <ele>1144.6</ele>
        <time>2025-10-05T10:38:39Z</time>
      </trkpt>
      <trkpt lat="43.33381" lon="5.78686">
        <ele>1144.6</ele>
        <time>2025-10-05T10:38:40Z</time>
      </trkpt>
      <trkpt lat="43.33381" lon="5.78686">
        <ele>1144.6</ele>
        <time>2025-10-05T10:38:41Z</time>
      </trkpt>
      <trkpt lat="43.33381" lon="5.78686">
        <ele>1144.6</ele>
        <time>2025-10-05T10:38:42Z</time>
      </trkpt>
      <trkpt lat="43.33381" lon="5.78686">
        <ele>1144.6</ele>
        <time>2025-10-05T10:38:43Z</time>
      </trkpt>
      <trkpt lat="43.33381" lon="5.78686">
        <ele>1144.6</ele>
        <time>2025-10-05T10:38:44Z</time>
      </trkpt>
      <trkpt lat="43.33381" lon="5.78686">
        <ele>1144.7</ele>
        <time>2025-10-05T10:38:45Z</time>
      </trkpt>
      <trkpt lat="43.33381" lon="5.78686">
        <ele>1144.8</ele>
        <time>2025-10-05T10:38:46Z</time>
      </trkpt>
      <trkpt lat="43.33381" lon="5.78686">
        <ele>1144.8</ele>
        <time>2025-10-05T10:38:47Z</time>
      </trkpt>
      <trkpt lat="43.33381" lon="5.78686">
        <ele>1144.8</ele>
        <time>2025-10-05T10:38:48Z</time>
      </trkpt>
      <trkpt lat="43.33381" lon="5.78687">
        <ele>1144.9</ele>
        <time>2025-10-05T10:38:49Z</time>
      </trkpt>
      <trkpt lat="43.33381" lon="5.78687">
        <ele>1145</ele>
        <time>2025-10-05T10:38:50Z</time>
      </trkpt>
      <trkpt lat="43.33381" lon="5.78687">
        <ele>1145.1</ele>
        <time>2025-10-05T10:38:51Z</time>
      </trkpt>
      <trkpt lat="43.33381" lon="5.78687">
        <ele>1145</ele>
        <time>2025-10-05T10:38:52Z</time>
      </trkpt>
      <trkpt lat="43.33381" lon="5.78687">
        <ele>1145</ele>
        <time>2025-10-05T10:38:53Z</time>
      </trkpt>
      <trkpt lat="43.33381" lon="5.78687">
        <ele>1145</ele>
        <time>2025-10-05T10:38:54Z</time>
      </trkpt>
      <trkpt lat="43.33381" lon="5.78687">
        <ele>1145</ele>
        <time>2025-10-05T10:38:55Z</time>
      </trkpt>
      <trkpt lat="43.33381" lon="5.78687">
        <ele>1145</ele>
        <time>2025-10-05T10:38:56Z</time>
      </trkpt>
      <trkpt lat="43.3338" lon="5.78688">
        <ele>1145</ele>
        <time>2025-10-05T10:38:57Z</time>
      </trkpt>
      <trkpt lat="43.33381" lon="5.78688">
        <ele>1145</ele>
        <time>2025-10-05T10:38:58Z</time>
      </trkpt>
      <trkpt lat="43.33381" lon="5.78688">
        <ele>1145</ele>
        <time>2025-10-05T10:38:59Z</time>
      </trkpt>
      <trkpt lat="43.33381" lon="5.78688">
        <ele>1145.1</ele>
        <time>2025-10-05T10:39:00Z</time>
      </trkpt>
      <trkpt lat="43.33381" lon="5.78688">
        <ele>1145.1</ele>
        <time>2025-10-05T10:39:01Z</time>
      </trkpt>
      <trkpt lat="43.33381" lon="5.78688">
        <ele>1145.1</ele>
        <time>2025-10-05T10:39:02Z</time>
      </trkpt>
      <trkpt lat="43.33381" lon="5.78688">
        <ele>1145.1</ele>
        <time>2025-10-05T10:39:03Z</time>
      </trkpt>
      <trkpt lat="43.33381" lon="5.78688">
        <ele>1145</ele>
        <time>2025-10-05T10:39:04Z</time>
      </trkpt>
      <trkpt lat="43.33381" lon="5.78688">
        <ele>1144.9</ele>
        <time>2025-10-05T10:39:05Z</time>
      </trkpt>
      <trkpt lat="43.33381" lon="5.78688">
        <ele>1144.8</ele>
        <time>2025-10-05T10:39:06Z</time>
      </trkpt>
      <trkpt lat="43.33381" lon="5.78688">
        <ele>1144.8</ele>
        <time>2025-10-05T10:39:07Z</time>
      </trkpt>
      <trkpt lat="43.33382" lon="5.78688">
        <ele>1144.7</ele>
        <time>2025-10-05T10:39:08Z</time>
      </trkpt>
      <trkpt lat="43.33382" lon="5.78688">
        <ele>1144.7</ele>
        <time>2025-10-05T10:39:09Z</time>
      </trkpt>
      <trkpt lat="43.33382" lon="5.78688">
        <ele>1144.7</ele>
        <time>2025-10-05T10:39:10Z</time>
      </trkpt>
      <trkpt lat="43.33382" lon="5.78688">
        <ele>1144.7</ele>
        <time>2025-10-05T10:39:11Z</time>
      </trkpt>
      <trkpt lat="43.33382" lon="5.78688">
        <ele>1144.7</ele>
        <time>2025-10-05T10:39:12Z</time>
      </trkpt>
      <trkpt lat="43.33382" lon="5.78688">
        <ele>1144.8</ele>
        <time>2025-10-05T10:39:13Z</time>
      </trkpt>
      <trkpt lat="43.33382" lon="5.78688">
        <ele>1144.8</ele>
        <time>2025-10-05T10:39:14Z</time>
      </trkpt>
      <trkpt lat="43.33382" lon="5.78688">
        <ele>1144.8</ele>
        <time>2025-10-05T10:39:15Z</time>
      </trkpt>
      <trkpt lat="43.33382" lon="5.78688">
        <ele>1144.8</ele>
        <time>2025-10-05T10:39:16Z</time>
      </trkpt>
      <trkpt lat="43.33382" lon="5.78688">
        <ele>1144.7</ele>
        <time>2025-10-05T10:39:17Z</time>
      </trkpt>
      <trkpt lat="43.33382" lon="5.78688">
        <ele>1144.7</ele>
        <time>2025-10-05T10:39:18Z</time>
      </trkpt>
      <trkpt lat="43.33383" lon="5.78687">
        <ele>1144.6</ele>
        <time>2025-10-05T10:39:19Z</time>
      </trkpt>
      <trkpt lat="43.33383" lon="5.78687">
        <ele>1144.6</ele>
        <time>2025-10-05T10:39:20Z</time>
      </trkpt>
      <trkpt lat="43.33383" lon="5.78687">
        <ele>1144.6</ele>
        <time>2025-10-05T10:39:21Z</time>
      </trkpt>
      <trkpt lat="43.33383" lon="5.78687">
        <ele>1144.7</ele>
        <time>2025-10-05T10:39:22Z</time>
      </trkpt>
      <trkpt lat="43.33383" lon="5.78687">
        <ele>1144.7</ele>
        <time>2025-10-05T10:39:23Z</time>
      </trkpt>
      <trkpt lat="43.33383" lon="5.78687">
        <ele>1144.8</ele>
        <time>2025-10-05T10:39:24Z</time>
      </trkpt>
      <trkpt lat="43.33383" lon="5.78686">
        <ele>1144.8</ele>
        <time>2025-10-05T10:39:25Z</time>
      </trkpt>
      <trkpt lat="43.33383" lon="5.78686">
        <ele>1144.9</ele>
        <time>2025-10-05T10:39:26Z</time>
      </trkpt>
      <trkpt lat="43.33383" lon="5.78686">
        <ele>1144.9</ele>
        <time>2025-10-05T10:39:27Z</time>
      </trkpt>
      <trkpt lat="43.33383" lon="5.78686">
        <ele>1144.9</ele>
        <time>2025-10-05T10:39:28Z</time>
      </trkpt>
      <trkpt lat="43.33383" lon="5.78686">
        <ele>1144.8</ele>
        <time>2025-10-05T10:39:29Z</time>
      </trkpt>
      <trkpt lat="43.33383" lon="5.78686">
        <ele>1144.8</ele>
        <time>2025-10-05T10:39:30Z</time>
      </trkpt>
      <trkpt lat="43.33383" lon="5.78686">
        <ele>1144.7</ele>
        <time>2025-10-05T10:39:31Z</time>
      </trkpt>
      <trkpt lat="43.33383" lon="5.78685">
        <ele>1144.8</ele>
        <time>2025-10-05T10:39:32Z</time>
      </trkpt>
      <trkpt lat="43.33383" lon="5.78685">
        <ele>1144.7</ele>
        <time>2025-10-05T10:39:33Z</time>
      </trkpt>
      <trkpt lat="43.33383" lon="5.78685">
        <ele>1144.7</ele>
        <time>2025-10-05T10:39:34Z</time>
      </trkpt>
      <trkpt lat="43.33383" lon="5.78685">
        <ele>1144.7</ele>
        <time>2025-10-05T10:39:35Z</time>
      </trkpt>
      <trkpt lat="43.33383" lon="5.78685">
        <ele>1144.8</ele>
        <time>2025-10-05T10:39:36Z</time>
      </trkpt>
      <trkpt lat="43.33383" lon="5.78685">
        <ele>1144.7</ele>
        <time>2025-10-05T10:39:37Z</time>
      </trkpt>
      <trkpt lat="43.33383" lon="5.78685">
        <ele>1144.6</ele>
        <time>2025-10-05T10:39:38Z</time>
      </trkpt>
      <trkpt lat="43.33383" lon="5.78685">
        <ele>1144.6</ele>
        <time>2025-10-05T10:39:39Z</time>
      </trkpt>
      <trkpt lat="43.33383" lon="5.78685">
        <ele>1144.7</ele>
        <time>2025-10-05T10:39:40Z</time>
      </trkpt>
      <trkpt lat="43.33383" lon="5.78685">
        <ele>1144.7</ele>
        <time>2025-10-05T10:39:41Z</time>
      </trkpt>
      <trkpt lat="43.33383" lon="5.78685">
        <ele>1144.7</ele>
        <time>2025-10-05T10:39:42Z</time>
      </trkpt>
      <trkpt lat="43.33383" lon="5.78685">
        <ele>1144.8</ele>
        <time>2025-10-05T10:39:43Z</time>
      </trkpt>
      <trkpt lat="43.33383" lon="5.78684">
        <ele>1144.9</ele>
        <time>2025-10-05T10:39:44Z</time>
      </trkpt>
      <trkpt lat="43.33383" lon="5.78684">
        <ele>1145</ele>
        <time>2025-10-05T10:39:45Z</time>
      </trkpt>
      <trkpt lat="43.33383" lon="5.78684">
        <ele>1145.1</ele>
        <time>2025-10-05T10:39:46Z</time>
      </trkpt>
      <trkpt lat="43.33383" lon="5.78684">
        <ele>1145.2</ele>
        <time>2025-10-05T10:39:47Z</time>
      </trkpt>
      <trkpt lat="43.33383" lon="5.78684">
        <ele>1145.2</ele>
        <time>2025-10-05T10:39:48Z</time>
      </trkpt>
      <trkpt lat="43.33383" lon="5.78684">
        <ele>1145.3</ele>
        <time>2025-10-05T10:39:49Z</time>
      </trkpt>
      <trkpt lat="43.33383" lon="5.78684">
        <ele>1145.4</ele>
        <time>2025-10-05T10:39:50Z</time>
      </trkpt>
      <trkpt lat="43.33383" lon="5.78684">
        <ele>1145.5</ele>
        <time>2025-10-05T10:39:51Z</time>
      </trkpt>
      <trkpt lat="43.33383" lon="5.78684">
        <ele>1145.5</ele>
        <time>2025-10-05T10:39:52Z</time>
      </trkpt>
      <trkpt lat="43.33383" lon="5.78684">
        <ele>1145.6</ele>
        <time>2025-10-05T10:39:53Z</time>
      </trkpt>
      <trkpt lat="43.33383" lon="5.78684">
        <ele>1145.5</ele>
        <time>2025-10-05T10:39:54Z</time>
      </trkpt>
      <trkpt lat="43.33383" lon="5.78684">
        <ele>1145.5</ele>
        <time>2025-10-05T10:39:55Z</time>
      </trkpt>
      <trkpt lat="43.33383" lon="5.78684">
        <ele>1145.5</ele>
        <time>2025-10-05T10:39:56Z</time>
      </trkpt>
      <trkpt lat="43.33383" lon="5.78684">
        <ele>1145.4</ele>
        <time>2025-10-05T10:39:57Z</time>
      </trkpt>
      <trkpt lat="43.33383" lon="5.78684">
        <ele>1145.4</ele>
        <time>2025-10-05T10:39:58Z</time>
      </trkpt>
      <trkpt lat="43.33383" lon="5.78684">
        <ele>1145.4</ele>
        <time>2025-10-05T10:39:59Z</time>
      </trkpt>
      <trkpt lat="43.33383" lon="5.78684">
        <ele>1145.4</ele>
        <time>2025-10-05T10:40:00Z</time>
      </trkpt>
      <trkpt lat="43.33383" lon="5.78684">
        <ele>1145.3</ele>
        <time>2025-10-05T10:40:01Z</time>
      </trkpt>
      <trkpt lat="43.33383" lon="5.78684">
        <ele>1145.3</ele>
        <time>2025-10-05T10:40:02Z</time>
      </trkpt>
      <trkpt lat="43.33383" lon="5.78683">
        <ele>1145.4</ele>
        <time>2025-10-05T10:40:03Z</time>
      </trkpt>
      <trkpt lat="43.33383" lon="5.78683">
        <ele>1145.3</ele>
        <time>2025-10-05T10:40:04Z</time>
      </trkpt>
      <trkpt lat="43.33383" lon="5.78683">
        <ele>1145.3</ele>
        <time>2025-10-05T10:40:05Z</time>
      </trkpt>
      <trkpt lat="43.33383" lon="5.78683">
        <ele>1145.3</ele>
        <time>2025-10-05T10:40:06Z</time>
      </trkpt>
      <trkpt lat="43.33383" lon="5.78683">
        <ele>1145.3</ele>
        <time>2025-10-05T10:40:07Z</time>
      </trkpt>
      <trkpt lat="43.33383" lon="5.78683">
        <ele>1145.3</ele>
        <time>2025-10-05T10:40:08Z</time>
      </trkpt>
      <trkpt lat="43.33383" lon="5.78683">
        <ele>1145.3</ele>
        <time>2025-10-05T10:40:09Z</time>
      </trkpt>
      <trkpt lat="43.33383" lon="5.78683">
        <ele>1145.2</ele>
        <time>2025-10-05T10:40:10Z</time>
      </trkpt>
      <trkpt lat="43.33383" lon="5.78684">
        <ele>1145.2</ele>
        <time>2025-10-05T10:40:11Z</time>
      </trkpt>
      <trkpt lat="43.33383" lon="5.78684">
        <ele>1145.1</ele>
        <time>2025-10-05T10:40:12Z</time>
      </trkpt>
      <trkpt lat="43.33383" lon="5.78684">
        <ele>1145.1</ele>
        <time>2025-10-05T10:40:13Z</time>
      </trkpt>
      <trkpt lat="43.33383" lon="5.78684">
        <ele>1145</ele>
        <time>2025-10-05T10:40:14Z</time>
      </trkpt>
      <trkpt lat="43.33383" lon="5.78684">
        <ele>1145</ele>
        <time>2025-10-05T10:40:15Z</time>
      </trkpt>
      <trkpt lat="43.33383" lon="5.78684">
        <ele>1144.8</ele>
        <time>2025-10-05T10:40:16Z</time>
      </trkpt>
      <trkpt lat="43.33383" lon="5.78684">
        <ele>1144.8</ele>
        <time>2025-10-05T10:40:17Z</time>
      </trkpt>
      <trkpt lat="43.33383" lon="5.78684">
        <ele>1144.7</ele>
        <time>2025-10-05T10:40:18Z</time>
      </trkpt>
      <trkpt lat="43.33383" lon="5.78684">
        <ele>1144.8</ele>
        <time>2025-10-05T10:40:19Z</time>
      </trkpt>
      <trkpt lat="43.33383" lon="5.78685">
        <ele>1144.7</ele>
        <time>2025-10-05T10:40:20Z</time>
      </trkpt>
      <trkpt lat="43.33383" lon="5.78685">
        <ele>1144.6</ele>
        <time>2025-10-05T10:40:21Z</time>
      </trkpt>
      <trkpt lat="43.33383" lon="5.78684">
        <ele>1144.6</ele>
        <time>2025-10-05T10:40:22Z</time>
      </trkpt>
      <trkpt lat="43.33383" lon="5.78684">
        <ele>1144.5</ele>
        <time>2025-10-05T10:40:23Z</time>
      </trkpt>
      <trkpt lat="43.33383" lon="5.78684">
        <ele>1144.5</ele>
        <time>2025-10-05T10:40:24Z</time>
      </trkpt>
      <trkpt lat="43.33383" lon="5.78684">
        <ele>1144.5</ele>
        <time>2025-10-05T10:40:25Z</time>
      </trkpt>
      <trkpt lat="43.33383" lon="5.78684">
        <ele>1144.6</ele>
        <time>2025-10-05T10:40:26Z</time>
      </trkpt>
      <trkpt lat="43.33383" lon="5.78684">
        <ele>1144.6</ele>
        <time>2025-10-05T10:40:27Z</time>
      </trkpt>
      <trkpt lat="43.33383" lon="5.78684">
        <ele>1144.7</ele>
        <time>2025-10-05T10:40:28Z</time>
      </trkpt>
      <trkpt lat="43.33383" lon="5.78684">
        <ele>1144.7</ele>
        <time>2025-10-05T10:40:29Z</time>
      </trkpt>
      <trkpt lat="43.33383" lon="5.78684">
        <ele>1144.9</ele>
        <time>2025-10-05T10:40:30Z</time>
      </trkpt>
      <trkpt lat="43.33384" lon="5.78684">
        <ele>1145</ele>
        <time>2025-10-05T10:40:31Z</time>
      </trkpt>
      <trkpt lat="43.33384" lon="5.78684">
        <ele>1145.1</ele>
        <time>2025-10-05T10:40:32Z</time>
      </trkpt>
      <trkpt lat="43.33384" lon="5.78684">
        <ele>1145.3</ele>
        <time>2025-10-05T10:40:33Z</time>
      </trkpt>
      <trkpt lat="43.33384" lon="5.78684">
        <ele>1145.3</ele>
        <time>2025-10-05T10:40:34Z</time>
      </trkpt>
      <trkpt lat="43.33384" lon="5.78684">
        <ele>1145.3</ele>
        <time>2025-10-05T10:40:35Z</time>
      </trkpt>
      <trkpt lat="43.33384" lon="5.78683">
        <ele>1145.2</ele>
        <time>2025-10-05T10:40:36Z</time>
      </trkpt>
      <trkpt lat="43.33384" lon="5.78683">
        <ele>1145.2</ele>
        <time>2025-10-05T10:40:37Z</time>
      </trkpt>
      <trkpt lat="43.33384" lon="5.78683">
        <ele>1145.3</ele>
        <time>2025-10-05T10:40:38Z</time>
      </trkpt>
      <trkpt lat="43.33384" lon="5.78684">
        <ele>1145.3</ele>
        <time>2025-10-05T10:40:39Z</time>
      </trkpt>
      <trkpt lat="43.33384" lon="5.78683">
        <ele>1145.4</ele>
        <time>2025-10-05T10:40:40Z</time>
      </trkpt>
      <trkpt lat="43.33384" lon="5.78684">
        <ele>1145.5</ele>
        <time>2025-10-05T10:40:41Z</time>
      </trkpt>
      <trkpt lat="43.33384" lon="5.78683">
        <ele>1145.5</ele>
        <time>2025-10-05T10:40:42Z</time>
      </trkpt>
      <trkpt lat="43.33384" lon="5.78683">
        <ele>1145.6</ele>
        <time>2025-10-05T10:40:43Z</time>
      </trkpt>
      <trkpt lat="43.33384" lon="5.78683">
        <ele>1145.6</ele>
        <time>2025-10-05T10:40:44Z</time>
      </trkpt>
      <trkpt lat="43.33384" lon="5.78683">
        <ele>1145.6</ele>
        <time>2025-10-05T10:40:45Z</time>
      </trkpt>
      <trkpt lat="43.33384" lon="5.78683">
        <ele>1145.6</ele>
        <time>2025-10-05T10:40:46Z</time>
      </trkpt>
      <trkpt lat="43.33384" lon="5.78683">
        <ele>1145.7</ele>
        <time>2025-10-05T10:40:47Z</time>
      </trkpt>
      <trkpt lat="43.33384" lon="5.78683">
        <ele>1145.7</ele>
        <time>2025-10-05T10:40:48Z</time>
      </trkpt>
      <trkpt lat="43.33384" lon="5.78683">
        <ele>1145.7</ele>
        <time>2025-10-05T10:40:49Z</time>
      </trkpt>
      <trkpt lat="43.33384" lon="5.78683">
        <ele>1145.7</ele>
        <time>2025-10-05T10:40:50Z</time>
      </trkpt>
      <trkpt lat="43.33384" lon="5.78683">
        <ele>1145.7</ele>
        <time>2025-10-05T10:40:51Z</time>
      </trkpt>
      <trkpt lat="43.33384" lon="5.78683">
        <ele>1145.9</ele>
        <time>2025-10-05T10:40:52Z</time>
      </trkpt>
      <trkpt lat="43.33384" lon="5.78683">
        <ele>1146</ele>
        <time>2025-10-05T10:40:53Z</time>
      </trkpt>
      <trkpt lat="43.33384" lon="5.78683">
        <ele>1145.9</ele>
        <time>2025-10-05T10:40:54Z</time>
      </trkpt>
      <trkpt lat="43.33384" lon="5.78683">
        <ele>1145.8</ele>
        <time>2025-10-05T10:40:55Z</time>
      </trkpt>
      <trkpt lat="43.33384" lon="5.78683">
        <ele>1145.9</ele>
        <time>2025-10-05T10:40:56Z</time>
      </trkpt>
      <trkpt lat="43.33384" lon="5.78683">
        <ele>1145.8</ele>
        <time>2025-10-05T10:40:57Z</time>
      </trkpt>
      <trkpt lat="43.33384" lon="5.78683">
        <ele>1145.9</ele>
        <time>2025-10-05T10:40:58Z</time>
      </trkpt>
      <trkpt lat="43.33384" lon="5.78683">
        <ele>1145.9</ele>
        <time>2025-10-05T10:40:59Z</time>
      </trkpt>
      <trkpt lat="43.33384" lon="5.78683">
        <ele>1146</ele>
        <time>2025-10-05T10:41:00Z</time>
      </trkpt>
      <trkpt lat="43.33384" lon="5.78683">
        <ele>1146.1</ele>
        <time>2025-10-05T10:41:01Z</time>
      </trkpt>
      <trkpt lat="43.33384" lon="5.78683">
        <ele>1146.3</ele>
        <time>2025-10-05T10:41:02Z</time>
      </trkpt>
      <trkpt lat="43.33384" lon="5.78683">
        <ele>1146.3</ele>
        <time>2025-10-05T10:41:03Z</time>
      </trkpt>
      <trkpt lat="43.33384" lon="5.78683">
        <ele>1146.4</ele>
        <time>2025-10-05T10:41:04Z</time>
      </trkpt>
      <trkpt lat="43.33384" lon="5.78683">
        <ele>1146.4</ele>
        <time>2025-10-05T10:41:05Z</time>
      </trkpt>
      <trkpt lat="43.33384" lon="5.78683">
        <ele>1146.5</ele>
        <time>2025-10-05T10:41:06Z</time>
      </trkpt>
      <trkpt lat="43.33384" lon="5.78683">
        <ele>1146.5</ele>
        <time>2025-10-05T10:41:07Z</time>
      </trkpt>
      <trkpt lat="43.33384" lon="5.78683">
        <ele>1146.5</ele>
        <time>2025-10-05T10:41:08Z</time>
      </trkpt>
      <trkpt lat="43.33384" lon="5.78683">
        <ele>1146.4</ele>
        <time>2025-10-05T10:41:09Z</time>
      </trkpt>
      <trkpt lat="43.33384" lon="5.78683">
        <ele>1146.3</ele>
        <time>2025-10-05T10:41:10Z</time>
      </trkpt>
      <trkpt lat="43.33384" lon="5.78683">
        <ele>1146.2</ele>
        <time>2025-10-05T10:41:11Z</time>
      </trkpt>
      <trkpt lat="43.33384" lon="5.78683">
        <ele>1146.3</ele>
        <time>2025-10-05T10:41:12Z</time>
      </trkpt>
      <trkpt lat="43.33384" lon="5.78683">
        <ele>1146.3</ele>
        <time>2025-10-05T10:41:13Z</time>
      </trkpt>
      <trkpt lat="43.33384" lon="5.78683">
        <ele>1146.4</ele>
        <time>2025-10-05T10:41:14Z</time>
      </trkpt>
      <trkpt lat="43.33384" lon="5.78683">
        <ele>1146.6</ele>
        <time>2025-10-05T10:41:15Z</time>
      </trkpt>
      <trkpt lat="43.33384" lon="5.78683">
        <ele>1146.8</ele>
        <time>2025-10-05T10:41:16Z</time>
      </trkpt>
      <trkpt lat="43.33384" lon="5.78683">
        <ele>1146.9</ele>
        <time>2025-10-05T10:41:17Z</time>
      </trkpt>
      <trkpt lat="43.33384" lon="5.78683">
        <ele>1146.9</ele>
        <time>2025-10-05T10:41:18Z</time>
      </trkpt>
      <trkpt lat="43.33384" lon="5.78683">
        <ele>1147</ele>
        <time>2025-10-05T10:41:19Z</time>
      </trkpt>
      <trkpt lat="43.33384" lon="5.78683">
        <ele>1147.1</ele>
        <time>2025-10-05T10:41:20Z</time>
      </trkpt>
      <trkpt lat="43.33384" lon="5.78683">
        <ele>1147.1</ele>
        <time>2025-10-05T10:41:21Z</time>
      </trkpt>
      <trkpt lat="43.33384" lon="5.78683">
        <ele>1147.1</ele>
        <time>2025-10-05T10:41:22Z</time>
      </trkpt>
      <trkpt lat="43.33384" lon="5.78683">
        <ele>1147.2</ele>
        <time>2025-10-05T10:41:23Z</time>
      </trkpt>
      <trkpt lat="43.33384" lon="5.78683">
        <ele>1147.2</ele>
        <time>2025-10-05T10:41:24Z</time>
      </trkpt>
      <trkpt lat="43.33385" lon="5.78683">
        <ele>1147.2</ele>
        <time>2025-10-05T10:41:25Z</time>
      </trkpt>
      <trkpt lat="43.33384" lon="5.78683">
        <ele>1147.2</ele>
        <time>2025-10-05T10:41:26Z</time>
      </trkpt>
      <trkpt lat="43.33384" lon="5.78684">
        <ele>1147.2</ele>
        <time>2025-10-05T10:41:27Z</time>
      </trkpt>
      <trkpt lat="43.33384" lon="5.78684">
        <ele>1147.3</ele>
        <time>2025-10-05T10:41:28Z</time>
      </trkpt>
      <trkpt lat="43.33384" lon="5.78684">
        <ele>1147.1</ele>
        <time>2025-10-05T10:41:29Z</time>
      </trkpt>
      <trkpt lat="43.33384" lon="5.78684">
        <ele>1147</ele>
        <time>2025-10-05T10:41:30Z</time>
      </trkpt>
      <trkpt lat="43.33384" lon="5.78684">
        <ele>1146.8</ele>
        <time>2025-10-05T10:41:31Z</time>
      </trkpt>
      <trkpt lat="43.33384" lon="5.78684">
        <ele>1146.7</ele>
        <time>2025-10-05T10:41:32Z</time>
      </trkpt>
      <trkpt lat="43.33384" lon="5.78684">
        <ele>1146.7</ele>
        <time>2025-10-05T10:41:33Z</time>
      </trkpt>
      <trkpt lat="43.33384" lon="5.78684">
        <ele>1146.7</ele>
        <time>2025-10-05T10:41:34Z</time>
      </trkpt>
      <trkpt lat="43.33384" lon="5.78684">
        <ele>1146.8</ele>
        <time>2025-10-05T10:41:35Z</time>
      </trkpt>
      <trkpt lat="43.33384" lon="5.78684">
        <ele>1146.8</ele>
        <time>2025-10-05T10:41:36Z</time>
      </trkpt>
      <trkpt lat="43.33384" lon="5.78684">
        <ele>1146.9</ele>
        <time>2025-10-05T10:41:37Z</time>
      </trkpt>
      <trkpt lat="43.33384" lon="5.78684">
        <ele>1146.7</ele>
        <time>2025-10-05T10:41:38Z</time>
      </trkpt>
      <trkpt lat="43.33384" lon="5.78684">
        <ele>1146.6</ele>
        <time>2025-10-05T10:41:39Z</time>
      </trkpt>
      <trkpt lat="43.33384" lon="5.78684">
        <ele>1146.6</ele>
        <time>2025-10-05T10:41:40Z</time>
      </trkpt>
      <trkpt lat="43.33384" lon="5.78684">
        <ele>1146.6</ele>
        <time>2025-10-05T10:41:41Z</time>
      </trkpt>
      <trkpt lat="43.33384" lon="5.78684">
        <ele>1146.6</ele>
        <time>2025-10-05T10:41:42Z</time>
      </trkpt>
      <trkpt lat="43.33384" lon="5.78684">
        <ele>1146.6</ele>
        <time>2025-10-05T10:41:43Z</time>
      </trkpt>
      <trkpt lat="43.33384" lon="5.78684">
        <ele>1146.6</ele>
        <time>2025-10-05T10:41:44Z</time>
      </trkpt>
      <trkpt lat="43.33384" lon="5.78684">
        <ele>1146.6</ele>
        <time>2025-10-05T10:41:45Z</time>
      </trkpt>
      <trkpt lat="43.33384" lon="5.78684">
        <ele>1146.5</ele>
        <time>2025-10-05T10:41:46Z</time>
      </trkpt>
      <trkpt lat="43.33384" lon="5.78684">
        <ele>1146.5</ele>
        <time>2025-10-05T10:41:47Z</time>
      </trkpt>
      <trkpt lat="43.33384" lon="5.78684">
        <ele>1146.4</ele>
        <time>2025-10-05T10:41:48Z</time>
      </trkpt>
      <trkpt lat="43.33384" lon="5.78684">
        <ele>1146.4</ele>
        <time>2025-10-05T10:41:49Z</time>
      </trkpt>
      <trkpt lat="43.33384" lon="5.78684">
        <ele>1146.3</ele>
        <time>2025-10-05T10:41:50Z</time>
      </trkpt>
      <trkpt lat="43.33384" lon="5.78684">
        <ele>1146.3</ele>
        <time>2025-10-05T10:41:51Z</time>
      </trkpt>
      <trkpt lat="43.33384" lon="5.78684">
        <ele>1146.2</ele>
        <time>2025-10-05T10:41:52Z</time>
      </trkpt>
      <trkpt lat="43.33384" lon="5.78685">
        <ele>1146</ele>
        <time>2025-10-05T10:41:53Z</time>
      </trkpt>
      <trkpt lat="43.33384" lon="5.78684">
        <ele>1146</ele>
        <time>2025-10-05T10:41:54Z</time>
      </trkpt>
      <trkpt lat="43.33384" lon="5.78684">
        <ele>1146</ele>
        <time>2025-10-05T10:41:55Z</time>
      </trkpt>
      <trkpt lat="43.33384" lon="5.78685">
        <ele>1145.9</ele>
        <time>2025-10-05T10:41:56Z</time>
      </trkpt>
      <trkpt lat="43.33384" lon="5.78685">
        <ele>1145.8</ele>
        <time>2025-10-05T10:41:57Z</time>
      </trkpt>
      <trkpt lat="43.33384" lon="5.78685">
        <ele>1145.8</ele>
        <time>2025-10-05T10:41:58Z</time>
      </trkpt>
      <trkpt lat="43.33384" lon="5.78685">
        <ele>1145.8</ele>
        <time>2025-10-05T10:41:59Z</time>
      </trkpt>
      <trkpt lat="43.33384" lon="5.78685">
        <ele>1145.8</ele>
        <time>2025-10-05T10:42:00Z</time>
      </trkpt>
      <trkpt lat="43.33384" lon="5.78685">
        <ele>1145.7</ele>
        <time>2025-10-05T10:42:01Z</time>
      </trkpt>
      <trkpt lat="43.33384" lon="5.78685">
        <ele>1145.7</ele>
        <time>2025-10-05T10:42:02Z</time>
      </trkpt>
      <trkpt lat="43.33384" lon="5.78685">
        <ele>1145.6</ele>
        <time>2025-10-05T10:42:03Z</time>
      </trkpt>
      <trkpt lat="43.33384" lon="5.78686">
        <ele>1145.6</ele>
        <time>2025-10-05T10:42:04Z</time>
      </trkpt>
      <trkpt lat="43.33384" lon="5.78686">
        <ele>1145.6</ele>
        <time>2025-10-05T10:42:05Z</time>
      </trkpt>
      <trkpt lat="43.33384" lon="5.78686">
        <ele>1145.6</ele>
        <time>2025-10-05T10:42:06Z</time>
      </trkpt>
      <trkpt lat="43.33384" lon="5.78686">
        <ele>1145.6</ele>
        <time>2025-10-05T10:42:07Z</time>
      </trkpt>
      <trkpt lat="43.33384" lon="5.78686">
        <ele>1145.6</ele>
        <time>2025-10-05T10:42:08Z</time>
      </trkpt>
      <trkpt lat="43.33384" lon="5.78686">
        <ele>1145.6</ele>
        <time>2025-10-05T10:42:09Z</time>
      </trkpt>
      <trkpt lat="43.33384" lon="5.78686">
        <ele>1145.5</ele>
        <time>2025-10-05T10:42:10Z</time>
      </trkpt>
      <trkpt lat="43.33384" lon="5.78686">
        <ele>1145.4</ele>
        <time>2025-10-05T10:42:11Z</time>
      </trkpt>
      <trkpt lat="43.33384" lon="5.78686">
        <ele>1145.3</ele>
        <time>2025-10-05T10:42:12Z</time>
      </trkpt>
      <trkpt lat="43.33384" lon="5.78686">
        <ele>1145.3</ele>
        <time>2025-10-05T10:42:13Z</time>
      </trkpt>
      <trkpt lat="43.33384" lon="5.78686">
        <ele>1145.2</ele>
        <time>2025-10-05T10:42:14Z</time>
      </trkpt>
      <trkpt lat="43.33384" lon="5.78686">
        <ele>1145.2</ele>
        <time>2025-10-05T10:42:15Z</time>
      </trkpt>
      <trkpt lat="43.33384" lon="5.78686">
        <ele>1145.2</ele>
        <time>2025-10-05T10:42:16Z</time>
      </trkpt>
      <trkpt lat="43.33384" lon="5.78686">
        <ele>1145.2</ele>
        <time>2025-10-05T10:42:17Z</time>
      </trkpt>
      <trkpt lat="43.33384" lon="5.78686">
        <ele>1145.2</ele>
        <time>2025-10-05T10:42:18Z</time>
      </trkpt>
      <trkpt lat="43.33384" lon="5.78686">
        <ele>1145.1</ele>
        <time>2025-10-05T10:42:19Z</time>
      </trkpt>
      <trkpt lat="43.33384" lon="5.78686">
        <ele>1145.2</ele>
        <time>2025-10-05T10:42:20Z</time>
      </trkpt>
      <trkpt lat="43.33383" lon="5.78686">
        <ele>1145</ele>
        <time>2025-10-05T10:42:21Z</time>
      </trkpt>
      <trkpt lat="43.33383" lon="5.78686">
        <ele>1145</ele>
        <time>2025-10-05T10:42:22Z</time>
      </trkpt>
      <trkpt lat="43.33383" lon="5.78686">
        <ele>1145</ele>
        <time>2025-10-05T10:42:23Z</time>
      </trkpt>
      <trkpt lat="43.33383" lon="5.78686">
        <ele>1145</ele>
        <time>2025-10-05T10:42:24Z</time>
      </trkpt>
      <trkpt lat="43.33383" lon="5.78686">
        <ele>1145.1</ele>
        <time>2025-10-05T10:42:25Z</time>
      </trkpt>
      <trkpt lat="43.33383" lon="5.78687">
        <ele>1145.1</ele>
        <time>2025-10-05T10:42:26Z</time>
      </trkpt>
      <trkpt lat="43.33383" lon="5.78686">
        <ele>1145.1</ele>
        <time>2025-10-05T10:42:27Z</time>
      </trkpt>
      <trkpt lat="43.33383" lon="5.78686">
        <ele>1145.2</ele>
        <time>2025-10-05T10:42:28Z</time>
      </trkpt>
      <trkpt lat="43.33383" lon="5.78686">
        <ele>1145.2</ele>
        <time>2025-10-05T10:42:29Z</time>
      </trkpt>
      <trkpt lat="43.33383" lon="5.78686">
        <ele>1145.2</ele>
        <time>2025-10-05T10:42:30Z</time>
      </trkpt>
      <trkpt lat="43.33383" lon="5.78686">
        <ele>1145.3</ele>
        <time>2025-10-05T10:42:31Z</time>
      </trkpt>
      <trkpt lat="43.33383" lon="5.78686">
        <ele>1145.3</ele>
        <time>2025-10-05T10:42:32Z</time>
      </trkpt>
      <trkpt lat="43.33383" lon="5.78686">
        <ele>1145.4</ele>
        <time>2025-10-05T10:42:33Z</time>
      </trkpt>
      <trkpt lat="43.33383" lon="5.78686">
        <ele>1145.4</ele>
        <time>2025-10-05T10:42:34Z</time>
      </trkpt>
      <trkpt lat="43.33383" lon="5.78686">
        <ele>1145.3</ele>
        <time>2025-10-05T10:42:35Z</time>
      </trkpt>
      <trkpt lat="43.33383" lon="5.78686">
        <ele>1145.3</ele>
        <time>2025-10-05T10:42:36Z</time>
      </trkpt>
      <trkpt lat="43.33383" lon="5.78686">
        <ele>1145.3</ele>
        <time>2025-10-05T10:42:37Z</time>
      </trkpt>
      <trkpt lat="43.33383" lon="5.78686">
        <ele>1145.3</ele>
        <time>2025-10-05T10:42:38Z</time>
      </trkpt>
      <trkpt lat="43.33382" lon="5.78686">
        <ele>1145.3</ele>
        <time>2025-10-05T10:42:39Z</time>
      </trkpt>
      <trkpt lat="43.33382" lon="5.78686">
        <ele>1145.3</ele>
        <time>2025-10-05T10:42:40Z</time>
      </trkpt>
      <trkpt lat="43.33382" lon="5.78686">
        <ele>1145.4</ele>
        <time>2025-10-05T10:42:41Z</time>
      </trkpt>
      <trkpt lat="43.33382" lon="5.78686">
        <ele>1145.5</ele>
        <time>2025-10-05T10:42:42Z</time>
      </trkpt>
      <trkpt lat="43.33382" lon="5.78686">
        <ele>1145.5</ele>
        <time>2025-10-05T10:42:43Z</time>
      </trkpt>
      <trkpt lat="43.33382" lon="5.78686">
        <ele>1145.6</ele>
        <time>2025-10-05T10:42:44Z</time>
      </trkpt>
      <trkpt lat="43.33382" lon="5.78685">
        <ele>1145.7</ele>
        <time>2025-10-05T10:42:45Z</time>
      </trkpt>
      <trkpt lat="43.33382" lon="5.78685">
        <ele>1145.8</ele>
        <time>2025-10-05T10:42:46Z</time>
      </trkpt>
      <trkpt lat="43.33382" lon="5.78685">
        <ele>1145.8</ele>
        <time>2025-10-05T10:42:47Z</time>
      </trkpt>
      <trkpt lat="43.33382" lon="5.78685">
        <ele>1145.9</ele>
        <time>2025-10-05T10:42:48Z</time>
      </trkpt>
      <trkpt lat="43.33382" lon="5.78685">
        <ele>1145.9</ele>
        <time>2025-10-05T10:42:49Z</time>
      </trkpt>
      <trkpt lat="43.33382" lon="5.78685">
        <ele>1146</ele>
        <time>2025-10-05T10:42:50Z</time>
      </trkpt>
      <trkpt lat="43.33382" lon="5.78685">
        <ele>1146</ele>
        <time>2025-10-05T10:42:51Z</time>
      </trkpt>
      <trkpt lat="43.33382" lon="5.78685">
        <ele>1146</ele>
        <time>2025-10-05T10:42:52Z</time>
      </trkpt>
      <trkpt lat="43.33382" lon="5.78685">
        <ele>1146.1</ele>
        <time>2025-10-05T10:42:53Z</time>
      </trkpt>
      <trkpt lat="43.33382" lon="5.78685">
        <ele>1146.1</ele>
        <time>2025-10-05T10:42:54Z</time>
      </trkpt>
      <trkpt lat="43.33382" lon="5.78685">
        <ele>1146.2</ele>
        <time>2025-10-05T10:42:55Z</time>
      </trkpt>
      <trkpt lat="43.33382" lon="5.78685">
        <ele>1146.3</ele>
        <time>2025-10-05T10:42:56Z</time>
      </trkpt>
      <trkpt lat="43.33381" lon="5.78685">
        <ele>1146.3</ele>
        <time>2025-10-05T10:42:57Z</time>
      </trkpt>
      <trkpt lat="43.33381" lon="5.78685">
        <ele>1146.3</ele>
        <time>2025-10-05T10:42:58Z</time>
      </trkpt>
      <trkpt lat="43.33381" lon="5.78684">
        <ele>1146.2</ele>
        <time>2025-10-05T10:42:59Z</time>
      </trkpt>
      <trkpt lat="43.33381" lon="5.78684">
        <ele>1146.2</ele>
        <time>2025-10-05T10:43:00Z</time>
      </trkpt>
      <trkpt lat="43.33381" lon="5.78684">
        <ele>1146.2</ele>
        <time>2025-10-05T10:43:01Z</time>
      </trkpt>
      <trkpt lat="43.33381" lon="5.78684">
        <ele>1146.2</ele>
        <time>2025-10-05T10:43:02Z</time>
      </trkpt>
      <trkpt lat="43.33381" lon="5.78684">
        <ele>1146.1</ele>
        <time>2025-10-05T10:43:03Z</time>
      </trkpt>
      <trkpt lat="43.33381" lon="5.78684">
        <ele>1146.1</ele>
        <time>2025-10-05T10:43:04Z</time>
      </trkpt>
      <trkpt lat="43.33381" lon="5.78685">
        <ele>1146</ele>
        <time>2025-10-05T10:43:05Z</time>
      </trkpt>
      <trkpt lat="43.3338" lon="5.78685">
        <ele>1146</ele>
        <time>2025-10-05T10:43:06Z</time>
      </trkpt>
      <trkpt lat="43.3338" lon="5.78685">
        <ele>1146</ele>
        <time>2025-10-05T10:43:07Z</time>
      </trkpt>
      <trkpt lat="43.3338" lon="5.78685">
        <ele>1146.1</ele>
        <time>2025-10-05T10:43:08Z</time>
      </trkpt>
      <trkpt lat="43.3338" lon="5.78685">
        <ele>1146.1</ele>
        <time>2025-10-05T10:43:09Z</time>
      </trkpt>
      <trkpt lat="43.3338" lon="5.78685">
        <ele>1146.1</ele>
        <time>2025-10-05T10:43:10Z</time>
      </trkpt>
      <trkpt lat="43.3338" lon="5.78685">
        <ele>1146.1</ele>
        <time>2025-10-05T10:43:11Z</time>
      </trkpt>
      <trkpt lat="43.3338" lon="5.78685">
        <ele>1146.1</ele>
        <time>2025-10-05T10:43:12Z</time>
      </trkpt>
      <trkpt lat="43.3338" lon="5.78685">
        <ele>1146.2</ele>
        <time>2025-10-05T10:43:13Z</time>
      </trkpt>
      <trkpt lat="43.3338" lon="5.78685">
        <ele>1146.2</ele>
        <time>2025-10-05T10:43:14Z</time>
      </trkpt>
      <trkpt lat="43.3338" lon="5.78685">
        <ele>1146.1</ele>
        <time>2025-10-05T10:43:15Z</time>
      </trkpt>
      <trkpt lat="43.3338" lon="5.78685">
        <ele>1146</ele>
        <time>2025-10-05T10:43:16Z</time>
      </trkpt>
      <trkpt lat="43.3338" lon="5.78684">
        <ele>1145.9</ele>
        <time>2025-10-05T10:43:17Z</time>
      </trkpt>
      <trkpt lat="43.3338" lon="5.78684">
        <ele>1145.7</ele>
        <time>2025-10-05T10:43:18Z</time>
      </trkpt>
      <trkpt lat="43.3338" lon="5.78684">
        <ele>1145.6</ele>
        <time>2025-10-05T10:43:19Z</time>
      </trkpt>
      <trkpt lat="43.3338" lon="5.78684">
        <ele>1145.6</ele>
        <time>2025-10-05T10:43:20Z</time>
      </trkpt>
      <trkpt lat="43.3338" lon="5.78684">
        <ele>1145.6</ele>
        <time>2025-10-05T10:43:21Z</time>
      </trkpt>
      <trkpt lat="43.3338" lon="5.78684">
        <ele>1145.7</ele>
        <time>2025-10-05T10:43:22Z</time>
      </trkpt>
      <trkpt lat="43.3338" lon="5.78684">
        <ele>1145.7</ele>
        <time>2025-10-05T10:43:23Z</time>
      </trkpt>
      <trkpt lat="43.3338" lon="5.78684">
        <ele>1145.8</ele>
        <time>2025-10-05T10:43:24Z</time>
      </trkpt>
      <trkpt lat="43.3338" lon="5.78684">
        <ele>1145.9</ele>
        <time>2025-10-05T10:43:25Z</time>
      </trkpt>
      <trkpt lat="43.3338" lon="5.78684">
        <ele>1145.9</ele>
        <time>2025-10-05T10:43:26Z</time>
      </trkpt>
      <trkpt lat="43.3338" lon="5.78684">
        <ele>1146</ele>
        <time>2025-10-05T10:43:27Z</time>
      </trkpt>
      <trkpt lat="43.3338" lon="5.78684">
        <ele>1145.9</ele>
        <time>2025-10-05T10:43:28Z</time>
      </trkpt>
      <trkpt lat="43.3338" lon="5.78684">
        <ele>1145.9</ele>
        <time>2025-10-05T10:43:29Z</time>
      </trkpt>
      <trkpt lat="43.3338" lon="5.78684">
        <ele>1146</ele>
        <time>2025-10-05T10:43:30Z</time>
      </trkpt>
      <trkpt lat="43.3338" lon="5.78684">
        <ele>1145.9</ele>
        <time>2025-10-05T10:43:31Z</time>
      </trkpt>
      <trkpt lat="43.3338" lon="5.78684">
        <ele>1145.8</ele>
        <time>2025-10-05T10:43:32Z</time>
      </trkpt>
      <trkpt lat="43.3338" lon="5.78684">
        <ele>1145.7</ele>
        <time>2025-10-05T10:43:33Z</time>
      </trkpt>
      <trkpt lat="43.3338" lon="5.78684">
        <ele>1145.7</ele>
        <time>2025-10-05T10:43:34Z</time>
      </trkpt>
      <trkpt lat="43.3338" lon="5.78684">
        <ele>1145.7</ele>
        <time>2025-10-05T10:43:35Z</time>
      </trkpt>
      <trkpt lat="43.3338" lon="5.78684">
        <ele>1145.7</ele>
        <time>2025-10-05T10:43:36Z</time>
      </trkpt>
      <trkpt lat="43.3338" lon="5.78685">
        <ele>1145.7</ele>
        <time>2025-10-05T10:43:37Z</time>
      </trkpt>
      <trkpt lat="43.3338" lon="5.78684">
        <ele>1145.7</ele>
        <time>2025-10-05T10:43:38Z</time>
      </trkpt>
      <trkpt lat="43.3338" lon="5.78684">
        <ele>1145.8</ele>
        <time>2025-10-05T10:43:39Z</time>
      </trkpt>
      <trkpt lat="43.3338" lon="5.78684">
        <ele>1145.8</ele>
        <time>2025-10-05T10:43:40Z</time>
      </trkpt>
      <trkpt lat="43.3338" lon="5.78684">
        <ele>1145.8</ele>
        <time>2025-10-05T10:43:41Z</time>
      </trkpt>
      <trkpt lat="43.3338" lon="5.78684">
        <ele>1145.7</ele>
        <time>2025-10-05T10:43:42Z</time>
      </trkpt>
      <trkpt lat="43.3338" lon="5.78684">
        <ele>1145.7</ele>
        <time>2025-10-05T10:43:43Z</time>
      </trkpt>
      <trkpt lat="43.3338" lon="5.78684">
        <ele>1145.5</ele>
        <time>2025-10-05T10:43:44Z</time>
      </trkpt>
      <trkpt lat="43.3338" lon="5.78684">
        <ele>1145.4</ele>
        <time>2025-10-05T10:43:45Z</time>
      </trkpt>
      <trkpt lat="43.3338" lon="5.78684">
        <ele>1145.3</ele>
        <time>2025-10-05T10:43:46Z</time>
      </trkpt>
      <trkpt lat="43.3338" lon="5.78683">
        <ele>1145.4</ele>
        <time>2025-10-05T10:43:47Z</time>
      </trkpt>
      <trkpt lat="43.3338" lon="5.78683">
        <ele>1145.4</ele>
        <time>2025-10-05T10:43:48Z</time>
      </trkpt>
      <trkpt lat="43.3338" lon="5.78683">
        <ele>1145.3</ele>
        <time>2025-10-05T10:43:49Z</time>
      </trkpt>
      <trkpt lat="43.3338" lon="5.78683">
        <ele>1145.2</ele>
        <time>2025-10-05T10:43:50Z</time>
      </trkpt>
      <trkpt lat="43.3338" lon="5.78684">
        <ele>1145.1</ele>
        <time>2025-10-05T10:43:51Z</time>
      </trkpt>
      <trkpt lat="43.3338" lon="5.78684">
        <ele>1145.1</ele>
        <time>2025-10-05T10:43:52Z</time>
      </trkpt>
      <trkpt lat="43.3338" lon="5.78684">
        <ele>1144.9</ele>
        <time>2025-10-05T10:43:53Z</time>
      </trkpt>
      <trkpt lat="43.3338" lon="5.78684">
        <ele>1144.9</ele>
        <time>2025-10-05T10:43:54Z</time>
      </trkpt>
      <trkpt lat="43.3338" lon="5.78685">
        <ele>1144.9</ele>
        <time>2025-10-05T10:43:55Z</time>
      </trkpt>
      <trkpt lat="43.3338" lon="5.78685">
        <ele>1144.8</ele>
        <time>2025-10-05T10:43:56Z</time>
      </trkpt>
      <trkpt lat="43.3338" lon="5.78685">
        <ele>1144.7</ele>
        <time>2025-10-05T10:43:57Z</time>
      </trkpt>
      <trkpt lat="43.3338" lon="5.78685">
        <ele>1144.5</ele>
        <time>2025-10-05T10:43:58Z</time>
      </trkpt>
      <trkpt lat="43.3338" lon="5.78685">
        <ele>1144.5</ele>
        <time>2025-10-05T10:43:59Z</time>
      </trkpt>
      <trkpt lat="43.3338" lon="5.78685">
        <ele>1144.4</ele>
        <time>2025-10-05T10:44:00Z</time>
      </trkpt>
      <trkpt lat="43.3338" lon="5.78685">
        <ele>1144.4</ele>
        <time>2025-10-05T10:44:01Z</time>
      </trkpt>
      <trkpt lat="43.3338" lon="5.78685">
        <ele>1144.3</ele>
        <time>2025-10-05T10:44:02Z</time>
      </trkpt>
      <trkpt lat="43.33381" lon="5.78685">
        <ele>1144.3</ele>
        <time>2025-10-05T10:44:03Z</time>
      </trkpt>
      <trkpt lat="43.33381" lon="5.78685">
        <ele>1144.2</ele>
        <time>2025-10-05T10:44:04Z</time>
      </trkpt>
      <trkpt lat="43.33381" lon="5.78685">
        <ele>1144</ele>
        <time>2025-10-05T10:44:05Z</time>
      </trkpt>
      <trkpt lat="43.33381" lon="5.78686">
        <ele>1143.9</ele>
        <time>2025-10-05T10:44:06Z</time>
      </trkpt>
      <trkpt lat="43.33381" lon="5.78686">
        <ele>1143.8</ele>
        <time>2025-10-05T10:44:07Z</time>
      </trkpt>
      <trkpt lat="43.33381" lon="5.78686">
        <ele>1143.8</ele>
        <time>2025-10-05T10:44:08Z</time>
      </trkpt>
      <trkpt lat="43.33381" lon="5.78686">
        <ele>1143.8</ele>
        <time>2025-10-05T10:44:09Z</time>
      </trkpt>
      <trkpt lat="43.33381" lon="5.78686">
        <ele>1144</ele>
        <time>2025-10-05T10:44:10Z</time>
      </trkpt>
      <trkpt lat="43.33381" lon="5.78686">
        <ele>1144.1</ele>
        <time>2025-10-05T10:44:11Z</time>
      </trkpt>
      <trkpt lat="43.33381" lon="5.78686">
        <ele>1144.1</ele>
        <time>2025-10-05T10:44:12Z</time>
      </trkpt>
      <trkpt lat="43.33381" lon="5.78686">
        <ele>1144.1</ele>
        <time>2025-10-05T10:44:13Z</time>
      </trkpt>
      <trkpt lat="43.33381" lon="5.78686">
        <ele>1144.1</ele>
        <time>2025-10-05T10:44:14Z</time>
      </trkpt>
      <trkpt lat="43.33381" lon="5.78686">
        <ele>1144.1</ele>
        <time>2025-10-05T10:44:15Z</time>
      </trkpt>
      <trkpt lat="43.33381" lon="5.78686">
        <ele>1144.1</ele>
        <time>2025-10-05T10:44:16Z</time>
      </trkpt>
      <trkpt lat="43.33381" lon="5.78686">
        <ele>1144.1</ele>
        <time>2025-10-05T10:44:17Z</time>
      </trkpt>
      <trkpt lat="43.33381" lon="5.78687">
        <ele>1144.3</ele>
        <time>2025-10-05T10:44:18Z</time>
      </trkpt>
      <trkpt lat="43.33381" lon="5.78687">
        <ele>1144.3</ele>
        <time>2025-10-05T10:44:19Z</time>
      </trkpt>
      <trkpt lat="43.33381" lon="5.78687">
        <ele>1144.4</ele>
        <time>2025-10-05T10:44:20Z</time>
      </trkpt>
      <trkpt lat="43.33381" lon="5.78687">
        <ele>1144.4</ele>
        <time>2025-10-05T10:44:21Z</time>
      </trkpt>
      <trkpt lat="43.33381" lon="5.78687">
        <ele>1144.4</ele>
        <time>2025-10-05T10:44:22Z</time>
      </trkpt>
      <trkpt lat="43.33381" lon="5.78688">
        <ele>1144.4</ele>
        <time>2025-10-05T10:44:23Z</time>
      </trkpt>
      <trkpt lat="43.33381" lon="5.78688">
        <ele>1144.5</ele>
        <time>2025-10-05T10:44:24Z</time>
      </trkpt>
      <trkpt lat="43.33381" lon="5.78688">
        <ele>1144.6</ele>
        <time>2025-10-05T10:44:25Z</time>
      </trkpt>
      <trkpt lat="43.33382" lon="5.78687">
        <ele>1144.8</ele>
        <time>2025-10-05T10:44:26Z</time>
      </trkpt>
      <trkpt lat="43.33382" lon="5.78688">
        <ele>1144.9</ele>
        <time>2025-10-05T10:44:27Z</time>
      </trkpt>
      <trkpt lat="43.33382" lon="5.78688">
        <ele>1145.1</ele>
        <time>2025-10-05T10:44:28Z</time>
      </trkpt>
      <trkpt lat="43.33382" lon="5.78688">
        <ele>1145.2</ele>
        <time>2025-10-05T10:44:29Z</time>
      </trkpt>
      <trkpt lat="43.33381" lon="5.78688">
        <ele>1145.3</ele>
        <time>2025-10-05T10:44:30Z</time>
      </trkpt>
      <trkpt lat="43.33382" lon="5.78688">
        <ele>1145.1</ele>
        <time>2025-10-05T10:44:31Z</time>
      </trkpt>
      <trkpt lat="43.33382" lon="5.78688">
        <ele>1145.1</ele>
        <time>2025-10-05T10:44:32Z</time>
      </trkpt>
      <trkpt lat="43.33382" lon="5.78688">
        <ele>1145</ele>
        <time>2025-10-05T10:44:33Z</time>
      </trkpt>
      <trkpt lat="43.33381" lon="5.78688">
        <ele>1145</ele>
        <time>2025-10-05T10:44:34Z</time>
      </trkpt>
      <trkpt lat="43.33381" lon="5.78688">
        <ele>1144.9</ele>
        <time>2025-10-05T10:44:35Z</time>
      </trkpt>
      <trkpt lat="43.33381" lon="5.78688">
        <ele>1144.9</ele>
        <time>2025-10-05T10:44:36Z</time>
      </trkpt>
      <trkpt lat="43.33381" lon="5.78688">
        <ele>1145.1</ele>
        <time>2025-10-05T10:44:37Z</time>
      </trkpt>
      <trkpt lat="43.33381" lon="5.78688">
        <ele>1145.2</ele>
        <time>2025-10-05T10:44:38Z</time>
      </trkpt>
      <trkpt lat="43.33381" lon="5.78688">
        <ele>1145.3</ele>
        <time>2025-10-05T10:44:39Z</time>
      </trkpt>
      <trkpt lat="43.33381" lon="5.78688">
        <ele>1145.4</ele>
        <time>2025-10-05T10:44:40Z</time>
      </trkpt>
      <trkpt lat="43.33382" lon="5.78688">
        <ele>1145.6</ele>
        <time>2025-10-05T10:44:41Z</time>
      </trkpt>
      <trkpt lat="43.33382" lon="5.78688">
        <ele>1145.7</ele>
        <time>2025-10-05T10:44:42Z</time>
      </trkpt>
      <trkpt lat="43.33382" lon="5.78688">
        <ele>1145.7</ele>
        <time>2025-10-05T10:44:43Z</time>
      </trkpt>
      <trkpt lat="43.33382" lon="5.78688">
        <ele>1145.7</ele>
        <time>2025-10-05T10:44:44Z</time>
      </trkpt>
      <trkpt lat="43.33382" lon="5.78688">
        <ele>1145.7</ele>
        <time>2025-10-05T10:44:45Z</time>
      </trkpt>
      <trkpt lat="43.33382" lon="5.78688">
        <ele>1145.8</ele>
        <time>2025-10-05T10:44:46Z</time>
      </trkpt>
      <trkpt lat="43.33382" lon="5.78688">
        <ele>1146</ele>
        <time>2025-10-05T10:44:47Z</time>
      </trkpt>
      <trkpt lat="43.33382" lon="5.78688">
        <ele>1145.9</ele>
        <time>2025-10-05T10:44:48Z</time>
      </trkpt>
      <trkpt lat="43.33382" lon="5.78688">
        <ele>1145.9</ele>
        <time>2025-10-05T10:44:49Z</time>
      </trkpt>
      <trkpt lat="43.33382" lon="5.78688">
        <ele>1145.8</ele>
        <time>2025-10-05T10:44:50Z</time>
      </trkpt>
      <trkpt lat="43.33383" lon="5.78688">
        <ele>1145.6</ele>
        <time>2025-10-05T10:44:51Z</time>
      </trkpt>
      <trkpt lat="43.33383" lon="5.78688">
        <ele>1145.6</ele>
        <time>2025-10-05T10:44:52Z</time>
      </trkpt>
      <trkpt lat="43.33383" lon="5.78687">
        <ele>1145.6</ele>
        <time>2025-10-05T10:44:53Z</time>
      </trkpt>
      <trkpt lat="43.33383" lon="5.78687">
        <ele>1145.7</ele>
        <time>2025-10-05T10:44:54Z</time>
      </trkpt>
      <trkpt lat="43.33383" lon="5.78687">
        <ele>1145.7</ele>
        <time>2025-10-05T10:44:55Z</time>
      </trkpt>
      <trkpt lat="43.33383" lon="5.78687">
        <ele>1145.8</ele>
        <time>2025-10-05T10:44:56Z</time>
      </trkpt>
      <trkpt lat="43.33383" lon="5.78687">
        <ele>1145.9</ele>
        <time>2025-10-05T10:44:57Z</time>
      </trkpt>
      <trkpt lat="43.33384" lon="5.78687">
        <ele>1145.9</ele>
        <time>2025-10-05T10:44:58Z</time>
      </trkpt>
      <trkpt lat="43.33384" lon="5.78687">
        <ele>1146</ele>
        <time>2025-10-05T10:44:59Z</time>
      </trkpt>
      <trkpt lat="43.33384" lon="5.78687">
        <ele>1146.1</ele>
        <time>2025-10-05T10:45:00Z</time>
      </trkpt>
      <trkpt lat="43.33384" lon="5.78687">
        <ele>1146.2</ele>
        <time>2025-10-05T10:45:01Z</time>
      </trkpt>
      <trkpt lat="43.33384" lon="5.78687">
        <ele>1146.2</ele>
        <time>2025-10-05T10:45:02Z</time>
      </trkpt>
      <trkpt lat="43.33384" lon="5.78687">
        <ele>1146.2</ele>
        <time>2025-10-05T10:45:03Z</time>
      </trkpt>
      <trkpt lat="43.33384" lon="5.78687">
        <ele>1146.3</ele>
        <time>2025-10-05T10:45:04Z</time>
      </trkpt>
      <trkpt lat="43.33384" lon="5.78687">
        <ele>1146.3</ele>
        <time>2025-10-05T10:45:05Z</time>
      </trkpt>
      <trkpt lat="43.33384" lon="5.78686">
        <ele>1146.3</ele>
        <time>2025-10-05T10:45:06Z</time>
      </trkpt>
      <trkpt lat="43.33384" lon="5.78686">
        <ele>1146.4</ele>
        <time>2025-10-05T10:45:07Z</time>
      </trkpt>
      <trkpt lat="43.33384" lon="5.78686">
        <ele>1146.5</ele>
        <time>2025-10-05T10:45:08Z</time>
      </trkpt>
      <trkpt lat="43.33384" lon="5.78686">
        <ele>1146.6</ele>
        <time>2025-10-05T10:45:09Z</time>
      </trkpt>
      <trkpt lat="43.33384" lon="5.78686">
        <ele>1146.6</ele>
        <time>2025-10-05T10:45:10Z</time>
      </trkpt>
      <trkpt lat="43.33384" lon="5.78686">
        <ele>1146.6</ele>
        <time>2025-10-05T10:45:11Z</time>
      </trkpt>
      <trkpt lat="43.33384" lon="5.78686">
        <ele>1146.7</ele>
        <time>2025-10-05T10:45:12Z</time>
      </trkpt>
      <trkpt lat="43.33384" lon="5.78686">
        <ele>1146.9</ele>
        <time>2025-10-05T10:45:13Z</time>
      </trkpt>
      <trkpt lat="43.33384" lon="5.78686">
        <ele>1146.8</ele>
        <time>2025-10-05T10:45:14Z</time>
      </trkpt>
      <trkpt lat="43.33384" lon="5.78686">
        <ele>1146.7</ele>
        <time>2025-10-05T10:45:15Z</time>
      </trkpt>
      <trkpt lat="43.33384" lon="5.78686">
        <ele>1146.5</ele>
        <time>2025-10-05T10:45:16Z</time>
      </trkpt>
      <trkpt lat="43.33384" lon="5.78686">
        <ele>1146.5</ele>
        <time>2025-10-05T10:45:17Z</time>
      </trkpt>
      <trkpt lat="43.33384" lon="5.78686">
        <ele>1146.4</ele>
        <time>2025-10-05T10:45:18Z</time>
      </trkpt>
      <trkpt lat="43.33384" lon="5.78686">
        <ele>1146.4</ele>
        <time>2025-10-05T10:45:19Z</time>
      </trkpt>
      <trkpt lat="43.33384" lon="5.78686">
        <ele>1146.5</ele>
        <time>2025-10-05T10:45:20Z</time>
      </trkpt>
      <trkpt lat="43.33384" lon="5.78686">
        <ele>1146.6</ele>
        <time>2025-10-05T10:45:21Z</time>
      </trkpt>
      <trkpt lat="43.33385" lon="5.78686">
        <ele>1146.6</ele>
        <time>2025-10-05T10:45:22Z</time>
      </trkpt>
      <trkpt lat="43.33385" lon="5.78686">
        <ele>1146.7</ele>
        <time>2025-10-05T10:45:23Z</time>
      </trkpt>
      <trkpt lat="43.33385" lon="5.78686">
        <ele>1146.6</ele>
        <time>2025-10-05T10:45:24Z</time>
      </trkpt>
      <trkpt lat="43.33385" lon="5.78686">
        <ele>1146.6</ele>
        <time>2025-10-05T10:45:25Z</time>
      </trkpt>
      <trkpt lat="43.33385" lon="5.78686">
        <ele>1146.6</ele>
        <time>2025-10-05T10:45:26Z</time>
      </trkpt>
      <trkpt lat="43.33385" lon="5.78686">
        <ele>1146.6</ele>
        <time>2025-10-05T10:45:27Z</time>
      </trkpt>
      <trkpt lat="43.33385" lon="5.78686">
        <ele>1146.6</ele>
        <time>2025-10-05T10:45:28Z</time>
      </trkpt>
      <trkpt lat="43.33385" lon="5.78686">
        <ele>1146.6</ele>
        <time>2025-10-05T10:45:29Z</time>
      </trkpt>
      <trkpt lat="43.33385" lon="5.78686">
        <ele>1146.7</ele>
        <time>2025-10-05T10:45:30Z</time>
      </trkpt>
      <trkpt lat="43.33385" lon="5.78686">
        <ele>1146.7</ele>
        <time>2025-10-05T10:45:31Z</time>
      </trkpt>
      <trkpt lat="43.33385" lon="5.78686">
        <ele>1146.7</ele>
        <time>2025-10-05T10:45:32Z</time>
      </trkpt>
      <trkpt lat="43.33385" lon="5.78686">
        <ele>1146.7</ele>
        <time>2025-10-05T10:45:33Z</time>
      </trkpt>
      <trkpt lat="43.33385" lon="5.78686">
        <ele>1146.6</ele>
        <time>2025-10-05T10:45:34Z</time>
      </trkpt>
      <trkpt lat="43.33385" lon="5.78686">
        <ele>1146.7</ele>
        <time>2025-10-05T10:45:35Z</time>
      </trkpt>
      <trkpt lat="43.33385" lon="5.78686">
        <ele>1146.7</ele>
        <time>2025-10-05T10:45:36Z</time>
      </trkpt>
      <trkpt lat="43.33385" lon="5.78686">
        <ele>1146.7</ele>
        <time>2025-10-05T10:45:37Z</time>
      </trkpt>
      <trkpt lat="43.33385" lon="5.78686">
        <ele>1146.8</ele>
        <time>2025-10-05T10:45:38Z</time>
      </trkpt>
      <trkpt lat="43.33385" lon="5.78686">
        <ele>1146.8</ele>
        <time>2025-10-05T10:45:39Z</time>
      </trkpt>
      <trkpt lat="43.33386" lon="5.78686">
        <ele>1146.8</ele>
        <time>2025-10-05T10:45:40Z</time>
      </trkpt>
      <trkpt lat="43.33386" lon="5.78686">
        <ele>1146.8</ele>
        <time>2025-10-05T10:45:41Z</time>
      </trkpt>
      <trkpt lat="43.33386" lon="5.78686">
        <ele>1146.8</ele>
        <time>2025-10-05T10:45:42Z</time>
      </trkpt>
      <trkpt lat="43.33386" lon="5.78686">
        <ele>1146.7</ele>
        <time>2025-10-05T10:45:43Z</time>
      </trkpt>
      <trkpt lat="43.33386" lon="5.78686">
        <ele>1146.6</ele>
        <time>2025-10-05T10:45:44Z</time>
      </trkpt>
      <trkpt lat="43.33386" lon="5.78685">
        <ele>1146.5</ele>
        <time>2025-10-05T10:45:45Z</time>
      </trkpt>
      <trkpt lat="43.33386" lon="5.78685">
        <ele>1146.5</ele>
        <time>2025-10-05T10:45:46Z</time>
      </trkpt>
      <trkpt lat="43.33386" lon="5.78685">
        <ele>1146.5</ele>
        <time>2025-10-05T10:45:47Z</time>
      </trkpt>
      <trkpt lat="43.33386" lon="5.78685">
        <ele>1146.4</ele>
        <time>2025-10-05T10:45:48Z</time>
      </trkpt>
      <trkpt lat="43.33386" lon="5.78685">
        <ele>1146.4</ele>
        <time>2025-10-05T10:45:49Z</time>
      </trkpt>
      <trkpt lat="43.33386" lon="5.78685">
        <ele>1146.5</ele>
        <time>2025-10-05T10:45:50Z</time>
      </trkpt>
      <trkpt lat="43.33386" lon="5.78685">
        <ele>1146.5</ele>
        <time>2025-10-05T10:45:51Z</time>
      </trkpt>
      <trkpt lat="43.33386" lon="5.78685">
        <ele>1146.5</ele>
        <time>2025-10-05T10:45:52Z</time>
      </trkpt>
      <trkpt lat="43.33386" lon="5.78685">
        <ele>1146.5</ele>
        <time>2025-10-05T10:45:53Z</time>
      </trkpt>
      <trkpt lat="43.33386" lon="5.78685">
        <ele>1146.5</ele>
        <time>2025-10-05T10:45:54Z</time>
      </trkpt>
      <trkpt lat="43.33386" lon="5.78684">
        <ele>1146.3</ele>
        <time>2025-10-05T10:45:55Z</time>
      </trkpt>
      <trkpt lat="43.33386" lon="5.78684">
        <ele>1146.2</ele>
        <time>2025-10-05T10:45:56Z</time>
      </trkpt>
      <trkpt lat="43.33386" lon="5.78684">
        <ele>1146.1</ele>
        <time>2025-10-05T10:45:57Z</time>
      </trkpt>
      <trkpt lat="43.33386" lon="5.78684">
        <ele>1146</ele>
        <time>2025-10-05T10:45:58Z</time>
      </trkpt>
      <trkpt lat="43.33385" lon="5.78685">
        <ele>1145.9</ele>
        <time>2025-10-05T10:45:59Z</time>
      </trkpt>
      <trkpt lat="43.33385" lon="5.78685">
        <ele>1145.9</ele>
        <time>2025-10-05T10:46:00Z</time>
      </trkpt>
      <trkpt lat="43.33385" lon="5.78685">
        <ele>1145.9</ele>
        <time>2025-10-05T10:46:01Z</time>
      </trkpt>
      <trkpt lat="43.33385" lon="5.78685">
        <ele>1145.9</ele>
        <time>2025-10-05T10:46:02Z</time>
      </trkpt>
      <trkpt lat="43.33385" lon="5.78685">
        <ele>1146</ele>
        <time>2025-10-05T10:46:03Z</time>
      </trkpt>
      <trkpt lat="43.33385" lon="5.78685">
        <ele>1145.9</ele>
        <time>2025-10-05T10:46:04Z</time>
      </trkpt>
      <trkpt lat="43.33385" lon="5.78685">
        <ele>1145.9</ele>
        <time>2025-10-05T10:46:05Z</time>
      </trkpt>
      <trkpt lat="43.33385" lon="5.78685">
        <ele>1145.8</ele>
        <time>2025-10-05T10:46:06Z</time>
      </trkpt>
      <trkpt lat="43.33385" lon="5.78685">
        <ele>1145.8</ele>
        <time>2025-10-05T10:46:07Z</time>
      </trkpt>
      <trkpt lat="43.33385" lon="5.78685">
        <ele>1145.7</ele>
        <time>2025-10-05T10:46:08Z</time>
      </trkpt>
      <trkpt lat="43.33385" lon="5.78685">
        <ele>1145.6</ele>
        <time>2025-10-05T10:46:09Z</time>
      </trkpt>
      <trkpt lat="43.33385" lon="5.78685">
        <ele>1145.6</ele>
        <time>2025-10-05T10:46:10Z</time>
      </trkpt>
      <trkpt lat="43.33385" lon="5.78685">
        <ele>1145.6</ele>
        <time>2025-10-05T10:46:11Z</time>
      </trkpt>
      <trkpt lat="43.33385" lon="5.78685">
        <ele>1145.5</ele>
        <time>2025-10-05T10:46:12Z</time>
      </trkpt>
      <trkpt lat="43.33385" lon="5.78685">
        <ele>1145.5</ele>
        <time>2025-10-05T10:46:13Z</time>
      </trkpt>
      <trkpt lat="43.33385" lon="5.78685">
        <ele>1145.4</ele>
        <time>2025-10-05T10:46:14Z</time>
      </trkpt>
      <trkpt lat="43.33385" lon="5.78685">
        <ele>1145.4</ele>
        <time>2025-10-05T10:46:15Z</time>
      </trkpt>
      <trkpt lat="43.33385" lon="5.78685">
        <ele>1145.4</ele>
        <time>2025-10-05T10:46:16Z</time>
      </trkpt>
      <trkpt lat="43.33385" lon="5.78685">
        <ele>1145.3</ele>
        <time>2025-10-05T10:46:17Z</time>
      </trkpt>
      <trkpt lat="43.33385" lon="5.78685">
        <ele>1145.3</ele>
        <time>2025-10-05T10:46:18Z</time>
      </trkpt>
      <trkpt lat="43.33384" lon="5.78685">
        <ele>1145.4</ele>
        <time>2025-10-05T10:46:19Z</time>
      </trkpt>
      <trkpt lat="43.33384" lon="5.78685">
        <ele>1145.4</ele>
        <time>2025-10-05T10:46:20Z</time>
      </trkpt>
      <trkpt lat="43.33384" lon="5.78685">
        <ele>1145.5</ele>
        <time>2025-10-05T10:46:21Z</time>
      </trkpt>
      <trkpt lat="43.33384" lon="5.78685">
        <ele>1145.6</ele>
        <time>2025-10-05T10:46:22Z</time>
      </trkpt>
      <trkpt lat="43.33384" lon="5.78685">
        <ele>1145.6</ele>
        <time>2025-10-05T10:46:23Z</time>
      </trkpt>
      <trkpt lat="43.33384" lon="5.78685">
        <ele>1145.6</ele>
        <time>2025-10-05T10:46:24Z</time>
      </trkpt>
      <trkpt lat="43.33384" lon="5.78685">
        <ele>1145.7</ele>
        <time>2025-10-05T10:46:25Z</time>
      </trkpt>
      <trkpt lat="43.33384" lon="5.78685">
        <ele>1145.7</ele>
        <time>2025-10-05T10:46:26Z</time>
      </trkpt>
      <trkpt lat="43.33384" lon="5.78685">
        <ele>1145.7</ele>
        <time>2025-10-05T10:46:27Z</time>
      </trkpt>
      <trkpt lat="43.33384" lon="5.78685">
        <ele>1145.8</ele>
        <time>2025-10-05T10:46:28Z</time>
      </trkpt>
      <trkpt lat="43.33384" lon="5.78685">
        <ele>1145.8</ele>
        <time>2025-10-05T10:46:29Z</time>
      </trkpt>
      <trkpt lat="43.33384" lon="5.78685">
        <ele>1145.7</ele>
        <time>2025-10-05T10:46:30Z</time>
      </trkpt>
      <trkpt lat="43.33384" lon="5.78685">
        <ele>1145.7</ele>
        <time>2025-10-05T10:46:31Z</time>
      </trkpt>
      <trkpt lat="43.33384" lon="5.78685">
        <ele>1145.7</ele>
        <time>2025-10-05T10:46:32Z</time>
      </trkpt>
      <trkpt lat="43.33384" lon="5.78685">
        <ele>1145.6</ele>
        <time>2025-10-05T10:46:33Z</time>
      </trkpt>
      <trkpt lat="43.33384" lon="5.78685">
        <ele>1145.7</ele>
        <time>2025-10-05T10:46:34Z</time>
      </trkpt>
      <trkpt lat="43.33384" lon="5.78685">
        <ele>1145.8</ele>
        <time>2025-10-05T10:46:35Z</time>
      </trkpt>
      <trkpt lat="43.33384" lon="5.78685">
        <ele>1145.8</ele>
        <time>2025-10-05T10:46:36Z</time>
      </trkpt>
      <trkpt lat="43.33384" lon="5.78685">
        <ele>1145.9</ele>
        <time>2025-10-05T10:46:37Z</time>
      </trkpt>
      <trkpt lat="43.33384" lon="5.78685">
        <ele>1145.9</ele>
        <time>2025-10-05T10:46:38Z</time>
      </trkpt>
      <trkpt lat="43.33384" lon="5.78685">
        <ele>1145.9</ele>
        <time>2025-10-05T10:46:39Z</time>
      </trkpt>
      <trkpt lat="43.33384" lon="5.78685">
        <ele>1145.9</ele>
        <time>2025-10-05T10:46:40Z</time>
      </trkpt>
      <trkpt lat="43.33384" lon="5.78685">
        <ele>1145.9</ele>
        <time>2025-10-05T10:46:41Z</time>
      </trkpt>
      <trkpt lat="43.33384" lon="5.78685">
        <ele>1145.9</ele>
        <time>2025-10-05T10:46:42Z</time>
      </trkpt>
      <trkpt lat="43.33384" lon="5.78685">
        <ele>1145.9</ele>
        <time>2025-10-05T10:46:43Z</time>
      </trkpt>
      <trkpt lat="43.33384" lon="5.78686">
        <ele>1145.8</ele>
        <time>2025-10-05T10:46:44Z</time>
      </trkpt>
      <trkpt lat="43.33384" lon="5.78686">
        <ele>1145.7</ele>
        <time>2025-10-05T10:46:45Z</time>
      </trkpt>
      <trkpt lat="43.33384" lon="5.78686">
        <ele>1145.8</ele>
        <time>2025-10-05T10:46:46Z</time>
      </trkpt>
      <trkpt lat="43.33384" lon="5.78686">
        <ele>1145.8</ele>
        <time>2025-10-05T10:46:47Z</time>
      </trkpt>
      <trkpt lat="43.33384" lon="5.78686">
        <ele>1145.7</ele>
        <time>2025-10-05T10:46:48Z</time>
      </trkpt>
      <trkpt lat="43.33384" lon="5.78686">
        <ele>1145.6</ele>
        <time>2025-10-05T10:46:49Z</time>
      </trkpt>
      <trkpt lat="43.33384" lon="5.78686">
        <ele>1145.6</ele>
        <time>2025-10-05T10:46:50Z</time>
      </trkpt>
      <trkpt lat="43.33384" lon="5.78686">
        <ele>1145.7</ele>
        <time>2025-10-05T10:46:51Z</time>
      </trkpt>
      <trkpt lat="43.33384" lon="5.78686">
        <ele>1145.7</ele>
        <time>2025-10-05T10:46:52Z</time>
      </trkpt>
      <trkpt lat="43.33384" lon="5.78686">
        <ele>1145.8</ele>
        <time>2025-10-05T10:46:53Z</time>
      </trkpt>
      <trkpt lat="43.33384" lon="5.78686">
        <ele>1145.8</ele>
        <time>2025-10-05T10:46:54Z</time>
      </trkpt>
      <trkpt lat="43.33384" lon="5.78686">
        <ele>1145.8</ele>
        <time>2025-10-05T10:46:55Z</time>
      </trkpt>
      <trkpt lat="43.33384" lon="5.78686">
        <ele>1145.7</ele>
        <time>2025-10-05T10:46:56Z</time>
      </trkpt>
      <trkpt lat="43.33384" lon="5.78686">
        <ele>1145.6</ele>
        <time>2025-10-05T10:46:57Z</time>
      </trkpt>
      <trkpt lat="43.33384" lon="5.78686">
        <ele>1145.5</ele>
        <time>2025-10-05T10:46:58Z</time>
      </trkpt>
      <trkpt lat="43.33383" lon="5.78686">
        <ele>1145.5</ele>
        <time>2025-10-05T10:46:59Z</time>
      </trkpt>
      <trkpt lat="43.33383" lon="5.78686">
        <ele>1145.5</ele>
        <time>2025-10-05T10:47:00Z</time>
      </trkpt>
      <trkpt lat="43.33383" lon="5.78686">
        <ele>1145.6</ele>
        <time>2025-10-05T10:47:01Z</time>
      </trkpt>
      <trkpt lat="43.33384" lon="5.78686">
        <ele>1145.6</ele>
        <time>2025-10-05T10:47:02Z</time>
      </trkpt>
      <trkpt lat="43.33384" lon="5.78686">
        <ele>1145.5</ele>
        <time>2025-10-05T10:47:03Z</time>
      </trkpt>
      <trkpt lat="43.33384" lon="5.78686">
        <ele>1145.4</ele>
        <time>2025-10-05T10:47:04Z</time>
      </trkpt>
      <trkpt lat="43.33384" lon="5.78686">
        <ele>1145.4</ele>
        <time>2025-10-05T10:47:05Z</time>
      </trkpt>
      <trkpt lat="43.33384" lon="5.78686">
        <ele>1145.4</ele>
        <time>2025-10-05T10:47:06Z</time>
      </trkpt>
      <trkpt lat="43.33384" lon="5.78686">
        <ele>1145.4</ele>
        <time>2025-10-05T10:47:07Z</time>
      </trkpt>
      <trkpt lat="43.33384" lon="5.78686">
        <ele>1145.4</ele>
        <time>2025-10-05T10:47:08Z</time>
      </trkpt>
      <trkpt lat="43.33384" lon="5.78686">
        <ele>1145.5</ele>
        <time>2025-10-05T10:47:09Z</time>
      </trkpt>
      <trkpt lat="43.33384" lon="5.78686">
        <ele>1145.6</ele>
        <time>2025-10-05T10:47:10Z</time>
      </trkpt>
      <trkpt lat="43.33384" lon="5.78686">
        <ele>1145.7</ele>
        <time>2025-10-05T10:47:11Z</time>
      </trkpt>
      <trkpt lat="43.33384" lon="5.78686">
        <ele>1145.8</ele>
        <time>2025-10-05T10:47:12Z</time>
      </trkpt>
      <trkpt lat="43.33383" lon="5.78686">
        <ele>1145.8</ele>
        <time>2025-10-05T10:47:13Z</time>
      </trkpt>
      <trkpt lat="43.33383" lon="5.78686">
        <ele>1145.9</ele>
        <time>2025-10-05T10:47:14Z</time>
      </trkpt>
      <trkpt lat="43.33383" lon="5.78686">
        <ele>1145.9</ele>
        <time>2025-10-05T10:47:15Z</time>
      </trkpt>
      <trkpt lat="43.33383" lon="5.78686">
        <ele>1146</ele>
        <time>2025-10-05T10:47:16Z</time>
      </trkpt>
      <trkpt lat="43.33383" lon="5.78686">
        <ele>1146</ele>
        <time>2025-10-05T10:47:17Z</time>
      </trkpt>
      <trkpt lat="43.33383" lon="5.78686">
        <ele>1146</ele>
        <time>2025-10-05T10:47:18Z</time>
      </trkpt>
      <trkpt lat="43.33383" lon="5.78686">
        <ele>1146</ele>
        <time>2025-10-05T10:47:19Z</time>
      </trkpt>
      <trkpt lat="43.33383" lon="5.78686">
        <ele>1146.2</ele>
        <time>2025-10-05T10:47:20Z</time>
      </trkpt>
      <trkpt lat="43.33383" lon="5.78686">
        <ele>1146.3</ele>
        <time>2025-10-05T10:47:21Z</time>
      </trkpt>
      <trkpt lat="43.33383" lon="5.78686">
        <ele>1146.3</ele>
        <time>2025-10-05T10:47:22Z</time>
      </trkpt>
      <trkpt lat="43.33383" lon="5.78686">
        <ele>1146.3</ele>
        <time>2025-10-05T10:47:23Z</time>
      </trkpt>
      <trkpt lat="43.33383" lon="5.78686">
        <ele>1146.3</ele>
        <time>2025-10-05T10:47:24Z</time>
      </trkpt>
      <trkpt lat="43.33383" lon="5.78686">
        <ele>1146.3</ele>
        <time>2025-10-05T10:47:25Z</time>
      </trkpt>
      <trkpt lat="43.33383" lon="5.78687">
        <ele>1146.4</ele>
        <time>2025-10-05T10:47:26Z</time>
      </trkpt>
      <trkpt lat="43.33383" lon="5.78687">
        <ele>1146.5</ele>
        <time>2025-10-05T10:47:27Z</time>
      </trkpt>
      <trkpt lat="43.33383" lon="5.78687">
        <ele>1146.6</ele>
        <time>2025-10-05T10:47:28Z</time>
      </trkpt>
      <trkpt lat="43.33383" lon="5.78687">
        <ele>1146.7</ele>
        <time>2025-10-05T10:47:29Z</time>
      </trkpt>
      <trkpt lat="43.33383" lon="5.78687">
        <ele>1146.7</ele>
        <time>2025-10-05T10:47:30Z</time>
      </trkpt>
      <trkpt lat="43.33383" lon="5.78687">
        <ele>1146.7</ele>
        <time>2025-10-05T10:47:31Z</time>
      </trkpt>
      <trkpt lat="43.33383" lon="5.78687">
        <ele>1146.7</ele>
        <time>2025-10-05T10:47:32Z</time>
      </trkpt>
      <trkpt lat="43.33383" lon="5.78687">
        <ele>1146.6</ele>
        <time>2025-10-05T10:47:33Z</time>
      </trkpt>
      <trkpt lat="43.33383" lon="5.78687">
        <ele>1146.4</ele>
        <time>2025-10-05T10:47:34Z</time>
      </trkpt>
      <trkpt lat="43.33383" lon="5.78687">
        <ele>1146.2</ele>
        <time>2025-10-05T10:47:35Z</time>
      </trkpt>
      <trkpt lat="43.33383" lon="5.78687">
        <ele>1146.1</ele>
        <time>2025-10-05T10:47:36Z</time>
      </trkpt>
      <trkpt lat="43.33383" lon="5.78687">
        <ele>1146</ele>
        <time>2025-10-05T10:47:37Z</time>
      </trkpt>
      <trkpt lat="43.33383" lon="5.78687">
        <ele>1146.1</ele>
        <time>2025-10-05T10:47:38Z</time>
      </trkpt>
      <trkpt lat="43.33383" lon="5.78687">
        <ele>1146.2</ele>
        <time>2025-10-05T10:47:39Z</time>
      </trkpt>
      <trkpt lat="43.33383" lon="5.78687">
        <ele>1146.3</ele>
        <time>2025-10-05T10:47:40Z</time>
      </trkpt>
      <trkpt lat="43.33383" lon="5.78687">
        <ele>1146.4</ele>
        <time>2025-10-05T10:47:41Z</time>
      </trkpt>
      <trkpt lat="43.33383" lon="5.78687">
        <ele>1146.5</ele>
        <time>2025-10-05T10:47:42Z</time>
      </trkpt>
      <trkpt lat="43.33383" lon="5.78687">
        <ele>1146.6</ele>
        <time>2025-10-05T10:47:43Z</time>
      </trkpt>
      <trkpt lat="43.33383" lon="5.78687">
        <ele>1146.6</ele>
        <time>2025-10-05T10:47:44Z</time>
      </trkpt>
      <trkpt lat="43.33383" lon="5.78687">
        <ele>1146.6</ele>
        <time>2025-10-05T10:47:45Z</time>
      </trkpt>
      <trkpt lat="43.33383" lon="5.78687">
        <ele>1146.7</ele>
        <time>2025-10-05T10:47:46Z</time>
      </trkpt>
      <trkpt lat="43.33383" lon="5.78687">
        <ele>1146.8</ele>
        <time>2025-10-05T10:47:47Z</time>
      </trkpt>
      <trkpt lat="43.33383" lon="5.78687">
        <ele>1146.8</ele>
        <time>2025-10-05T10:47:48Z</time>
      </trkpt>
      <trkpt lat="43.33383" lon="5.78687">
        <ele>1146.9</ele>
        <time>2025-10-05T10:47:49Z</time>
      </trkpt>
      <trkpt lat="43.33383" lon="5.78687">
        <ele>1147</ele>
        <time>2025-10-05T10:47:50Z</time>
      </trkpt>
      <trkpt lat="43.33383" lon="5.78686">
        <ele>1147.1</ele>
        <time>2025-10-05T10:47:51Z</time>
      </trkpt>
      <trkpt lat="43.33383" lon="5.78686">
        <ele>1147.2</ele>
        <time>2025-10-05T10:47:52Z</time>
      </trkpt>
      <trkpt lat="43.33383" lon="5.78686">
        <ele>1147.3</ele>
        <time>2025-10-05T10:47:53Z</time>
      </trkpt>
      <trkpt lat="43.33383" lon="5.78686">
        <ele>1147.4</ele>
        <time>2025-10-05T10:47:54Z</time>
      </trkpt>
      <trkpt lat="43.33383" lon="5.78687">
        <ele>1147.5</ele>
        <time>2025-10-05T10:47:55Z</time>
      </trkpt>
      <trkpt lat="43.33383" lon="5.78687">
        <ele>1147.5</ele>
        <time>2025-10-05T10:47:56Z</time>
      </trkpt>
      <trkpt lat="43.33383" lon="5.78687">
        <ele>1147.4</ele>
        <time>2025-10-05T10:47:57Z</time>
      </trkpt>
      <trkpt lat="43.33383" lon="5.78687">
        <ele>1147.3</ele>
        <time>2025-10-05T10:47:58Z</time>
      </trkpt>
      <trkpt lat="43.33383" lon="5.78687">
        <ele>1147.2</ele>
        <time>2025-10-05T10:47:59Z</time>
      </trkpt>
      <trkpt lat="43.33383" lon="5.78686">
        <ele>1147.1</ele>
        <time>2025-10-05T10:48:00Z</time>
      </trkpt>
      <trkpt lat="43.33383" lon="5.78686">
        <ele>1147.1</ele>
        <time>2025-10-05T10:48:01Z</time>
      </trkpt>
      <trkpt lat="43.33383" lon="5.78686">
        <ele>1147.1</ele>
        <time>2025-10-05T10:48:02Z</time>
      </trkpt>
      <trkpt lat="43.33383" lon="5.78686">
        <ele>1147.1</ele>
        <time>2025-10-05T10:48:03Z</time>
      </trkpt>
      <trkpt lat="43.33383" lon="5.78687">
        <ele>1147</ele>
        <time>2025-10-05T10:48:04Z</time>
      </trkpt>
      <trkpt lat="43.33383" lon="5.78687">
        <ele>1147</ele>
        <time>2025-10-05T10:48:05Z</time>
      </trkpt>
      <trkpt lat="43.33383" lon="5.78687">
        <ele>1147.2</ele>
        <time>2025-10-05T10:48:06Z</time>
      </trkpt>
      <trkpt lat="43.33383" lon="5.78687">
        <ele>1147.2</ele>
        <time>2025-10-05T10:48:07Z</time>
      </trkpt>
      <trkpt lat="43.33383" lon="5.78687">
        <ele>1147.2</ele>
        <time>2025-10-05T10:48:08Z</time>
      </trkpt>
      <trkpt lat="43.33383" lon="5.78687">
        <ele>1147.3</ele>
        <time>2025-10-05T10:48:09Z</time>
      </trkpt>
      <trkpt lat="43.33383" lon="5.78687">
        <ele>1147.4</ele>
        <time>2025-10-05T10:48:10Z</time>
      </trkpt>
      <trkpt lat="43.33383" lon="5.78687">
        <ele>1147.4</ele>
        <time>2025-10-05T10:48:11Z</time>
      </trkpt>
      <trkpt lat="43.33383" lon="5.78687">
        <ele>1147.4</ele>
        <time>2025-10-05T10:48:12Z</time>
      </trkpt>
      <trkpt lat="43.33383" lon="5.78687">
        <ele>1147.4</ele>
        <time>2025-10-05T10:48:13Z</time>
      </trkpt>
      <trkpt lat="43.33383" lon="5.78687">
        <ele>1147.4</ele>
        <time>2025-10-05T10:48:14Z</time>
      </trkpt>
      <trkpt lat="43.33383" lon="5.78687">
        <ele>1147.5</ele>
        <time>2025-10-05T10:48:15Z</time>
      </trkpt>
      <trkpt lat="43.33383" lon="5.78687">
        <ele>1147.6</ele>
        <time>2025-10-05T10:48:16Z</time>
      </trkpt>
      <trkpt lat="43.33383" lon="5.78687">
        <ele>1147.6</ele>
        <time>2025-10-05T10:48:17Z</time>
      </trkpt>
      <trkpt lat="43.33383" lon="5.78687">
        <ele>1147.5</ele>
        <time>2025-10-05T10:48:18Z</time>
      </trkpt>
      <trkpt lat="43.33383" lon="5.78687">
        <ele>1147.5</ele>
        <time>2025-10-05T10:48:19Z</time>
      </trkpt>
      <trkpt lat="43.33383" lon="5.78687">
        <ele>1147.3</ele>
        <time>2025-10-05T10:48:20Z</time>
      </trkpt>
      <trkpt lat="43.33383" lon="5.78687">
        <ele>1147.3</ele>
        <time>2025-10-05T10:48:21Z</time>
      </trkpt>
      <trkpt lat="43.33383" lon="5.78687">
        <ele>1147.1</ele>
        <time>2025-10-05T10:48:22Z</time>
      </trkpt>
      <trkpt lat="43.33383" lon="5.78687">
        <ele>1147.1</ele>
        <time>2025-10-05T10:48:23Z</time>
      </trkpt>
      <trkpt lat="43.33383" lon="5.78687">
        <ele>1147.1</ele>
        <time>2025-10-05T10:48:24Z</time>
      </trkpt>
      <trkpt lat="43.33383" lon="5.78687">
        <ele>1147</ele>
        <time>2025-10-05T10:48:25Z</time>
      </trkpt>
      <trkpt lat="43.33383" lon="5.78687">
        <ele>1147</ele>
        <time>2025-10-05T10:48:26Z</time>
      </trkpt>
      <trkpt lat="43.33383" lon="5.78687">
        <ele>1147</ele>
        <time>2025-10-05T10:48:27Z</time>
      </trkpt>
      <trkpt lat="43.33383" lon="5.78687">
        <ele>1147</ele>
        <time>2025-10-05T10:48:28Z</time>
      </trkpt>
      <trkpt lat="43.33383" lon="5.78687">
        <ele>1147.1</ele>
        <time>2025-10-05T10:48:29Z</time>
      </trkpt>
      <trkpt lat="43.33383" lon="5.78687">
        <ele>1147.2</ele>
        <time>2025-10-05T10:48:30Z</time>
      </trkpt>
      <trkpt lat="43.33383" lon="5.78687">
        <ele>1147.2</ele>
        <time>2025-10-05T10:48:31Z</time>
      </trkpt>
      <trkpt lat="43.33383" lon="5.78687">
        <ele>1147.2</ele>
        <time>2025-10-05T10:48:32Z</time>
      </trkpt>
      <trkpt lat="43.33383" lon="5.78686">
        <ele>1147.3</ele>
        <time>2025-10-05T10:48:33Z</time>
      </trkpt>
      <trkpt lat="43.33383" lon="5.78686">
        <ele>1147.3</ele>
        <time>2025-10-05T10:48:34Z</time>
      </trkpt>
      <trkpt lat="43.33383" lon="5.78686">
        <ele>1147.3</ele>
        <time>2025-10-05T10:48:35Z</time>
      </trkpt>
      <trkpt lat="43.33383" lon="5.78686">
        <ele>1147.4</ele>
        <time>2025-10-05T10:48:36Z</time>
      </trkpt>
      <trkpt lat="43.33383" lon="5.78686">
        <ele>1147.4</ele>
        <time>2025-10-05T10:48:37Z</time>
      </trkpt>
      <trkpt lat="43.33383" lon="5.78686">
        <ele>1147.3</ele>
        <time>2025-10-05T10:48:38Z</time>
      </trkpt>
      <trkpt lat="43.33383" lon="5.78686">
        <ele>1147.2</ele>
        <time>2025-10-05T10:48:39Z</time>
      </trkpt>
      <trkpt lat="43.33383" lon="5.78686">
        <ele>1147.1</ele>
        <time>2025-10-05T10:48:40Z</time>
      </trkpt>
      <trkpt lat="43.33383" lon="5.78686">
        <ele>1147.1</ele>
        <time>2025-10-05T10:48:41Z</time>
      </trkpt>
      <trkpt lat="43.33383" lon="5.78686">
        <ele>1147.2</ele>
        <time>2025-10-05T10:48:42Z</time>
      </trkpt>
      <trkpt lat="43.33384" lon="5.78686">
        <ele>1147.2</ele>
        <time>2025-10-05T10:48:43Z</time>
      </trkpt>
      <trkpt lat="43.33384" lon="5.78686">
        <ele>1147.2</ele>
        <time>2025-10-05T10:48:44Z</time>
      </trkpt>
      <trkpt lat="43.33384" lon="5.78685">
        <ele>1147.1</ele>
        <time>2025-10-05T10:48:45Z</time>
      </trkpt>
      <trkpt lat="43.33384" lon="5.78685">
        <ele>1147.1</ele>
        <time>2025-10-05T10:48:46Z</time>
      </trkpt>
      <trkpt lat="43.33384" lon="5.78685">
        <ele>1147</ele>
        <time>2025-10-05T10:48:47Z</time>
      </trkpt>
      <trkpt lat="43.33384" lon="5.78685">
        <ele>1147</ele>
        <time>2025-10-05T10:48:48Z</time>
      </trkpt>
      <trkpt lat="43.33384" lon="5.78685">
        <ele>1147</ele>
        <time>2025-10-05T10:48:49Z</time>
      </trkpt>
      <trkpt lat="43.33384" lon="5.78685">
        <ele>1146.9</ele>
        <time>2025-10-05T10:48:50Z</time>
      </trkpt>
      <trkpt lat="43.33384" lon="5.78685">
        <ele>1146.8</ele>
        <time>2025-10-05T10:48:51Z</time>
      </trkpt>
      <trkpt lat="43.33384" lon="5.78685">
        <ele>1146.8</ele>
        <time>2025-10-05T10:48:52Z</time>
      </trkpt>
      <trkpt lat="43.33384" lon="5.78685">
        <ele>1146.8</ele>
        <time>2025-10-05T10:48:53Z</time>
      </trkpt>
      <trkpt lat="43.33384" lon="5.78685">
        <ele>1146.8</ele>
        <time>2025-10-05T10:48:54Z</time>
      </trkpt>
      <trkpt lat="43.33384" lon="5.78685">
        <ele>1146.8</ele>
        <time>2025-10-05T10:48:55Z</time>
      </trkpt>
      <trkpt lat="43.33384" lon="5.78685">
        <ele>1146.8</ele>
        <time>2025-10-05T10:48:56Z</time>
      </trkpt>
      <trkpt lat="43.33384" lon="5.78685">
        <ele>1146.8</ele>
        <time>2025-10-05T10:48:57Z</time>
      </trkpt>
      <trkpt lat="43.33384" lon="5.78685">
        <ele>1146.9</ele>
        <time>2025-10-05T10:48:58Z</time>
      </trkpt>
      <trkpt lat="43.33383" lon="5.78685">
        <ele>1147</ele>
        <time>2025-10-05T10:48:59Z</time>
      </trkpt>
      <trkpt lat="43.33383" lon="5.78686">
        <ele>1147</ele>
        <time>2025-10-05T10:49:00Z</time>
      </trkpt>
      <trkpt lat="43.33383" lon="5.78686">
        <ele>1147</ele>
        <time>2025-10-05T10:49:01Z</time>
      </trkpt>
      <trkpt lat="43.33383" lon="5.78686">
        <ele>1147</ele>
        <time>2025-10-05T10:49:02Z</time>
      </trkpt>
      <trkpt lat="43.33383" lon="5.78686">
        <ele>1146.9</ele>
        <time>2025-10-05T10:49:03Z</time>
      </trkpt>
      <trkpt lat="43.33383" lon="5.78686">
        <ele>1146.9</ele>
        <time>2025-10-05T10:49:04Z</time>
      </trkpt>
      <trkpt lat="43.33383" lon="5.78686">
        <ele>1146.8</ele>
        <time>2025-10-05T10:49:05Z</time>
      </trkpt>
      <trkpt lat="43.33383" lon="5.78686">
        <ele>1146.8</ele>
        <time>2025-10-05T10:49:06Z</time>
      </trkpt>
      <trkpt lat="43.33383" lon="5.78686">
        <ele>1146.7</ele>
        <time>2025-10-05T10:49:07Z</time>
      </trkpt>
      <trkpt lat="43.33383" lon="5.78686">
        <ele>1146.7</ele>
        <time>2025-10-05T10:49:08Z</time>
      </trkpt>
      <trkpt lat="43.33383" lon="5.78686">
        <ele>1146.6</ele>
        <time>2025-10-05T10:49:09Z</time>
      </trkpt>
      <trkpt lat="43.33383" lon="5.78686">
        <ele>1146.5</ele>
        <time>2025-10-05T10:49:10Z</time>
      </trkpt>
      <trkpt lat="43.33383" lon="5.78686">
        <ele>1146.5</ele>
        <time>2025-10-05T10:49:11Z</time>
      </trkpt>
      <trkpt lat="43.33383" lon="5.78686">
        <ele>1146.6</ele>
        <time>2025-10-05T10:49:12Z</time>
      </trkpt>
      <trkpt lat="43.33383" lon="5.78686">
        <ele>1146.7</ele>
        <time>2025-10-05T10:49:13Z</time>
      </trkpt>
      <trkpt lat="43.33383" lon="5.78686">
        <ele>1146.7</ele>
        <time>2025-10-05T10:49:14Z</time>
      </trkpt>
      <trkpt lat="43.33383" lon="5.78686">
        <ele>1146.8</ele>
        <time>2025-10-05T10:49:15Z</time>
      </trkpt>
      <trkpt lat="43.33383" lon="5.78686">
        <ele>1146.8</ele>
        <time>2025-10-05T10:49:16Z</time>
      </trkpt>
      <trkpt lat="43.33383" lon="5.78686">
        <ele>1146.8</ele>
        <time>2025-10-05T10:49:17Z</time>
      </trkpt>
      <trkpt lat="43.33383" lon="5.78686">
        <ele>1146.7</ele>
        <time>2025-10-05T10:49:18Z</time>
      </trkpt>
      <trkpt lat="43.33383" lon="5.78686">
        <ele>1146.7</ele>
        <time>2025-10-05T10:49:19Z</time>
      </trkpt>
      <trkpt lat="43.33383" lon="5.78686">
        <ele>1146.7</ele>
        <time>2025-10-05T10:49:20Z</time>
      </trkpt>
      <trkpt lat="43.33383" lon="5.78686">
        <ele>1146.6</ele>
        <time>2025-10-05T10:49:21Z</time>
      </trkpt>
      <trkpt lat="43.33383" lon="5.78686">
        <ele>1146.6</ele>
        <time>2025-10-05T10:49:22Z</time>
      </trkpt>
      <trkpt lat="43.33383" lon="5.78686">
        <ele>1146.6</ele>
        <time>2025-10-05T10:49:23Z</time>
      </trkpt>
      <trkpt lat="43.33383" lon="5.78686">
        <ele>1146.4</ele>
        <time>2025-10-05T10:49:24Z</time>
      </trkpt>
      <trkpt lat="43.33383" lon="5.78686">
        <ele>1146.4</ele>
        <time>2025-10-05T10:49:25Z</time>
      </trkpt>
      <trkpt lat="43.33383" lon="5.78686">
        <ele>1146.7</ele>
        <time>2025-10-05T10:49:26Z</time>
      </trkpt>
      <trkpt lat="43.33383" lon="5.78686">
        <ele>1146.8</ele>
        <time>2025-10-05T10:49:27Z</time>
      </trkpt>
      <trkpt lat="43.33383" lon="5.78686">
        <ele>1146.9</ele>
        <time>2025-10-05T10:49:28Z</time>
      </trkpt>
      <trkpt lat="43.33384" lon="5.78686">
        <ele>1146.9</ele>
        <time>2025-10-05T10:49:29Z</time>
      </trkpt>
      <trkpt lat="43.33384" lon="5.78686">
        <ele>1147</ele>
        <time>2025-10-05T10:49:30Z</time>
      </trkpt>
      <trkpt lat="43.33384" lon="5.78686">
        <ele>1147</ele>
        <time>2025-10-05T10:49:31Z</time>
      </trkpt>
      <trkpt lat="43.33383" lon="5.78686">
        <ele>1147</ele>
        <time>2025-10-05T10:49:32Z</time>
      </trkpt>
      <trkpt lat="43.33384" lon="5.78686">
        <ele>1147.2</ele>
        <time>2025-10-05T10:49:33Z</time>
      </trkpt>
      <trkpt lat="43.33383" lon="5.78686">
        <ele>1147.2</ele>
        <time>2025-10-05T10:49:34Z</time>
      </trkpt>
      <trkpt lat="43.33384" lon="5.78686">
        <ele>1147.2</ele>
        <time>2025-10-05T10:49:35Z</time>
      </trkpt>
      <trkpt lat="43.33384" lon="5.78686">
        <ele>1147.1</ele>
        <time>2025-10-05T10:49:36Z</time>
      </trkpt>
      <trkpt lat="43.33384" lon="5.78686">
        <ele>1147.1</ele>
        <time>2025-10-05T10:49:37Z</time>
      </trkpt>
      <trkpt lat="43.33384" lon="5.78686">
        <ele>1147.1</ele>
        <time>2025-10-05T10:49:38Z</time>
      </trkpt>
      <trkpt lat="43.33384" lon="5.78686">
        <ele>1147.1</ele>
        <time>2025-10-05T10:49:39Z</time>
      </trkpt>
      <trkpt lat="43.33384" lon="5.78686">
        <ele>1147.2</ele>
        <time>2025-10-05T10:49:40Z</time>
      </trkpt>
      <trkpt lat="43.33384" lon="5.78686">
        <ele>1147.2</ele>
        <time>2025-10-05T10:49:41Z</time>
      </trkpt>
      <trkpt lat="43.33384" lon="5.78686">
        <ele>1147.2</ele>
        <time>2025-10-05T10:49:42Z</time>
      </trkpt>
      <trkpt lat="43.33384" lon="5.78686">
        <ele>1147.1</ele>
        <time>2025-10-05T10:49:43Z</time>
      </trkpt>
      <trkpt lat="43.33384" lon="5.78686">
        <ele>1147</ele>
        <time>2025-10-05T10:49:44Z</time>
      </trkpt>
      <trkpt lat="43.33384" lon="5.78686">
        <ele>1147</ele>
        <time>2025-10-05T10:49:45Z</time>
      </trkpt>
      <trkpt lat="43.33384" lon="5.78687">
        <ele>1147</ele>
        <time>2025-10-05T10:49:46Z</time>
      </trkpt>
      <trkpt lat="43.33384" lon="5.78687">
        <ele>1147</ele>
        <time>2025-10-05T10:49:47Z</time>
      </trkpt>
      <trkpt lat="43.33384" lon="5.78687">
        <ele>1146.8</ele>
        <time>2025-10-05T10:49:48Z</time>
      </trkpt>
      <trkpt lat="43.33384" lon="5.78687">
        <ele>1146.8</ele>
        <time>2025-10-05T10:49:49Z</time>
      </trkpt>
      <trkpt lat="43.33384" lon="5.78687">
        <ele>1146.9</ele>
        <time>2025-10-05T10:49:50Z</time>
      </trkpt>
      <trkpt lat="43.33384" lon="5.78687">
        <ele>1146.9</ele>
        <time>2025-10-05T10:49:51Z</time>
      </trkpt>
      <trkpt lat="43.33384" lon="5.78687">
        <ele>1146.9</ele>
        <time>2025-10-05T10:49:52Z</time>
      </trkpt>
      <trkpt lat="43.33384" lon="5.78687">
        <ele>1146.9</ele>
        <time>2025-10-05T10:49:53Z</time>
      </trkpt>
      <trkpt lat="43.33384" lon="5.78687">
        <ele>1147.1</ele>
        <time>2025-10-05T10:49:54Z</time>
      </trkpt>
      <trkpt lat="43.33384" lon="5.78687">
        <ele>1147.2</ele>
        <time>2025-10-05T10:49:55Z</time>
      </trkpt>
      <trkpt lat="43.33384" lon="5.78687">
        <ele>1147.3</ele>
        <time>2025-10-05T10:49:56Z</time>
      </trkpt>
      <trkpt lat="43.33384" lon="5.78687">
        <ele>1147.4</ele>
        <time>2025-10-05T10:49:57Z</time>
      </trkpt>
      <trkpt lat="43.33384" lon="5.78687">
        <ele>1147.5</ele>
        <time>2025-10-05T10:49:58Z</time>
      </trkpt>
      <trkpt lat="43.33384" lon="5.78688">
        <ele>1147.5</ele>
        <time>2025-10-05T10:49:59Z</time>
      </trkpt>
      <trkpt lat="43.33384" lon="5.78688">
        <ele>1147.5</ele>
        <time>2025-10-05T10:50:00Z</time>
      </trkpt>
      <trkpt lat="43.33384" lon="5.78688">
        <ele>1147.5</ele>
        <time>2025-10-05T10:50:01Z</time>
      </trkpt>
      <trkpt lat="43.33384" lon="5.78688">
        <ele>1147.6</ele>
        <time>2025-10-05T10:50:02Z</time>
      </trkpt>
      <trkpt lat="43.33384" lon="5.78688">
        <ele>1147.6</ele>
        <time>2025-10-05T10:50:03Z</time>
      </trkpt>
      <trkpt lat="43.33384" lon="5.78688">
        <ele>1147.8</ele>
        <time>2025-10-05T10:50:04Z</time>
      </trkpt>
      <trkpt lat="43.33384" lon="5.78688">
        <ele>1147.9</ele>
        <time>2025-10-05T10:50:05Z</time>
      </trkpt>
      <trkpt lat="43.33384" lon="5.78688">
        <ele>1148</ele>
        <time>2025-10-05T10:50:06Z</time>
      </trkpt>
      <trkpt lat="43.33384" lon="5.78688">
        <ele>1148.2</ele>
        <time>2025-10-05T10:50:07Z</time>
      </trkpt>
      <trkpt lat="43.33384" lon="5.78688">
        <ele>1148.4</ele>
        <time>2025-10-05T10:50:08Z</time>
      </trkpt>
      <trkpt lat="43.33384" lon="5.78688">
        <ele>1148.5</ele>
        <time>2025-10-05T10:50:09Z</time>
      </trkpt>
      <trkpt lat="43.33384" lon="5.78688">
        <ele>1148.6</ele>
        <time>2025-10-05T10:50:10Z</time>
      </trkpt>
      <trkpt lat="43.33384" lon="5.78688">
        <ele>1148.5</ele>
        <time>2025-10-05T10:50:11Z</time>
      </trkpt>
      <trkpt lat="43.33384" lon="5.78688">
        <ele>1148.5</ele>
        <time>2025-10-05T10:50:12Z</time>
      </trkpt>
      <trkpt lat="43.33384" lon="5.78688">
        <ele>1148.4</ele>
        <time>2025-10-05T10:50:13Z</time>
      </trkpt>
      <trkpt lat="43.33384" lon="5.78688">
        <ele>1148.4</ele>
        <time>2025-10-05T10:50:14Z</time>
      </trkpt>
      <trkpt lat="43.33384" lon="5.78688">
        <ele>1148.4</ele>
        <time>2025-10-05T10:50:15Z</time>
      </trkpt>
      <trkpt lat="43.33384" lon="5.78688">
        <ele>1148.4</ele>
        <time>2025-10-05T10:50:16Z</time>
      </trkpt>
      <trkpt lat="43.33384" lon="5.78688">
        <ele>1148.5</ele>
        <time>2025-10-05T10:50:17Z</time>
      </trkpt>
      <trkpt lat="43.33384" lon="5.78688">
        <ele>1148.5</ele>
        <time>2025-10-05T10:50:18Z</time>
      </trkpt>
      <trkpt lat="43.33384" lon="5.78688">
        <ele>1148.6</ele>
        <time>2025-10-05T10:50:19Z</time>
      </trkpt>
      <trkpt lat="43.33385" lon="5.78688">
        <ele>1148.6</ele>
        <time>2025-10-05T10:50:20Z</time>
      </trkpt>
      <trkpt lat="43.33385" lon="5.78688">
        <ele>1148.6</ele>
        <time>2025-10-05T10:50:21Z</time>
      </trkpt>
      <trkpt lat="43.33385" lon="5.78688">
        <ele>1148.6</ele>
        <time>2025-10-05T10:50:22Z</time>
      </trkpt>
      <trkpt lat="43.33385" lon="5.78688">
        <ele>1148.5</ele>
        <time>2025-10-05T10:50:23Z</time>
      </trkpt>
      <trkpt lat="43.33385" lon="5.78688">
        <ele>1148.4</ele>
        <time>2025-10-05T10:50:24Z</time>
      </trkpt>
      <trkpt lat="43.33385" lon="5.78688">
        <ele>1148.3</ele>
        <time>2025-10-05T10:50:25Z</time>
      </trkpt>
      <trkpt lat="43.33385" lon="5.78688">
        <ele>1148.1</ele>
        <time>2025-10-05T10:50:26Z</time>
      </trkpt>
      <trkpt lat="43.33385" lon="5.78688">
        <ele>1148</ele>
        <time>2025-10-05T10:50:27Z</time>
      </trkpt>
      <trkpt lat="43.33384" lon="5.78688">
        <ele>1147.9</ele>
        <time>2025-10-05T10:50:28Z</time>
      </trkpt>
      <trkpt lat="43.33384" lon="5.78688">
        <ele>1147.9</ele>
        <time>2025-10-05T10:50:29Z</time>
      </trkpt>
      <trkpt lat="43.33384" lon="5.78688">
        <ele>1147.8</ele>
        <time>2025-10-05T10:50:30Z</time>
      </trkpt>
      <trkpt lat="43.33384" lon="5.78689">
        <ele>1147.7</ele>
        <time>2025-10-05T10:50:31Z</time>
      </trkpt>
      <trkpt lat="43.33384" lon="5.78688">
        <ele>1147.7</ele>
        <time>2025-10-05T10:50:32Z</time>
      </trkpt>
      <trkpt lat="43.33384" lon="5.78688">
        <ele>1147.7</ele>
        <time>2025-10-05T10:50:33Z</time>
      </trkpt>
      <trkpt lat="43.33384" lon="5.78688">
        <ele>1147.7</ele>
        <time>2025-10-05T10:50:34Z</time>
      </trkpt>
      <trkpt lat="43.33384" lon="5.78688">
        <ele>1147.7</ele>
        <time>2025-10-05T10:50:35Z</time>
      </trkpt>
      <trkpt lat="43.33384" lon="5.78688">
        <ele>1147.7</ele>
        <time>2025-10-05T10:50:36Z</time>
      </trkpt>
      <trkpt lat="43.33384" lon="5.78688">
        <ele>1147.6</ele>
        <time>2025-10-05T10:50:37Z</time>
      </trkpt>
      <trkpt lat="43.33384" lon="5.78688">
        <ele>1147.6</ele>
        <time>2025-10-05T10:50:38Z</time>
      </trkpt>
      <trkpt lat="43.33384" lon="5.78688">
        <ele>1147.6</ele>
        <time>2025-10-05T10:50:39Z</time>
      </trkpt>
      <trkpt lat="43.33384" lon="5.78688">
        <ele>1147.6</ele>
        <time>2025-10-05T10:50:40Z</time>
      </trkpt>
      <trkpt lat="43.33384" lon="5.78688">
        <ele>1147.6</ele>
        <time>2025-10-05T10:50:41Z</time>
      </trkpt>
      <trkpt lat="43.33384" lon="5.78688">
        <ele>1147.6</ele>
        <time>2025-10-05T10:50:42Z</time>
      </trkpt>
      <trkpt lat="43.33384" lon="5.78688">
        <ele>1147.5</ele>
        <time>2025-10-05T10:50:43Z</time>
      </trkpt>
      <trkpt lat="43.33385" lon="5.78688">
        <ele>1147.4</ele>
        <time>2025-10-05T10:50:44Z</time>
      </trkpt>
      <trkpt lat="43.33385" lon="5.78688">
        <ele>1147.4</ele>
        <time>2025-10-05T10:50:45Z</time>
      </trkpt>
      <trkpt lat="43.33384" lon="5.78688">
        <ele>1147.4</ele>
        <time>2025-10-05T10:50:46Z</time>
      </trkpt>
      <trkpt lat="43.33384" lon="5.78688">
        <ele>1147.4</ele>
        <time>2025-10-05T10:50:47Z</time>
      </trkpt>
      <trkpt lat="43.33384" lon="5.78688">
        <ele>1147.4</ele>
        <time>2025-10-05T10:50:48Z</time>
      </trkpt>
      <trkpt lat="43.33384" lon="5.78688">
        <ele>1147.4</ele>
        <time>2025-10-05T10:50:49Z</time>
      </trkpt>
      <trkpt lat="43.33384" lon="5.78688">
        <ele>1147.4</ele>
        <time>2025-10-05T10:50:50Z</time>
      </trkpt>
      <trkpt lat="43.33384" lon="5.78688">
        <ele>1147.4</ele>
        <time>2025-10-05T10:50:51Z</time>
      </trkpt>
      <trkpt lat="43.33384" lon="5.78688">
        <ele>1147.4</ele>
        <time>2025-10-05T10:50:52Z</time>
      </trkpt>
      <trkpt lat="43.33384" lon="5.78688">
        <ele>1147.4</ele>
        <time>2025-10-05T10:50:53Z</time>
      </trkpt>
      <trkpt lat="43.33384" lon="5.78689">
        <ele>1147.3</ele>
        <time>2025-10-05T10:50:54Z</time>
      </trkpt>
      <trkpt lat="43.33384" lon="5.78689">
        <ele>1147.3</ele>
        <time>2025-10-05T10:50:55Z</time>
      </trkpt>
      <trkpt lat="43.33384" lon="5.78689">
        <ele>1147.2</ele>
        <time>2025-10-05T10:50:56Z</time>
      </trkpt>
      <trkpt lat="43.33384" lon="5.78689">
        <ele>1147.2</ele>
        <time>2025-10-05T10:50:57Z</time>
      </trkpt>
      <trkpt lat="43.33384" lon="5.78689">
        <ele>1147.2</ele>
        <time>2025-10-05T10:50:58Z</time>
      </trkpt>
      <trkpt lat="43.33384" lon="5.78689">
        <ele>1147.2</ele>
        <time>2025-10-05T10:50:59Z</time>
      </trkpt>
      <trkpt lat="43.33384" lon="5.78689">
        <ele>1147.2</ele>
        <time>2025-10-05T10:51:00Z</time>
      </trkpt>
      <trkpt lat="43.33383" lon="5.78689">
        <ele>1147.2</ele>
        <time>2025-10-05T10:51:01Z</time>
      </trkpt>
      <trkpt lat="43.33383" lon="5.78689">
        <ele>1147.2</ele>
        <time>2025-10-05T10:51:02Z</time>
      </trkpt>
      <trkpt lat="43.33383" lon="5.78689">
        <ele>1147.2</ele>
        <time>2025-10-05T10:51:03Z</time>
      </trkpt>
      <trkpt lat="43.33383" lon="5.78689">
        <ele>1147.2</ele>
        <time>2025-10-05T10:51:04Z</time>
      </trkpt>
      <trkpt lat="43.33383" lon="5.78689">
        <ele>1147.2</ele>
        <time>2025-10-05T10:51:05Z</time>
      </trkpt>
      <trkpt lat="43.33383" lon="5.78689">
        <ele>1147.2</ele>
        <time>2025-10-05T10:51:06Z</time>
      </trkpt>
      <trkpt lat="43.33383" lon="5.78689">
        <ele>1147.2</ele>
        <time>2025-10-05T10:51:07Z</time>
      </trkpt>
      <trkpt lat="43.33383" lon="5.78689">
        <ele>1147.2</ele>
        <time>2025-10-05T10:51:08Z</time>
      </trkpt>
      <trkpt lat="43.33384" lon="5.78689">
        <ele>1147.2</ele>
        <time>2025-10-05T10:51:09Z</time>
      </trkpt>
      <trkpt lat="43.33384" lon="5.78689">
        <ele>1147.2</ele>
        <time>2025-10-05T10:51:10Z</time>
      </trkpt>
      <trkpt lat="43.33384" lon="5.78689">
        <ele>1147.1</ele>
        <time>2025-10-05T10:51:11Z</time>
      </trkpt>
      <trkpt lat="43.33384" lon="5.78688">
        <ele>1147.2</ele>
        <time>2025-10-05T10:51:12Z</time>
      </trkpt>
      <trkpt lat="43.33384" lon="5.78688">
        <ele>1147.3</ele>
        <time>2025-10-05T10:51:13Z</time>
      </trkpt>
      <trkpt lat="43.33384" lon="5.78688">
        <ele>1147.4</ele>
        <time>2025-10-05T10:51:14Z</time>
      </trkpt>
      <trkpt lat="43.33384" lon="5.78688">
        <ele>1147.4</ele>
        <time>2025-10-05T10:51:15Z</time>
      </trkpt>
      <trkpt lat="43.33384" lon="5.78688">
        <ele>1147.4</ele>
        <time>2025-10-05T10:51:16Z</time>
      </trkpt>
      <trkpt lat="43.33384" lon="5.78688">
        <ele>1147.4</ele>
        <time>2025-10-05T10:51:17Z</time>
      </trkpt>
      <trkpt lat="43.33384" lon="5.78688">
        <ele>1147.4</ele>
        <time>2025-10-05T10:51:18Z</time>
      </trkpt>
      <trkpt lat="43.33384" lon="5.78688">
        <ele>1147.3</ele>
        <time>2025-10-05T10:51:19Z</time>
      </trkpt>
      <trkpt lat="43.33384" lon="5.78688">
        <ele>1147.2</ele>
        <time>2025-10-05T10:51:20Z</time>
      </trkpt>
      <trkpt lat="43.33384" lon="5.78688">
        <ele>1147.2</ele>
        <time>2025-10-05T10:51:21Z</time>
      </trkpt>
      <trkpt lat="43.33384" lon="5.78688">
        <ele>1147.3</ele>
        <time>2025-10-05T10:51:22Z</time>
      </trkpt>
      <trkpt lat="43.33384" lon="5.78688">
        <ele>1147.3</ele>
        <time>2025-10-05T10:51:23Z</time>
      </trkpt>
      <trkpt lat="43.33384" lon="5.78688">
        <ele>1147.3</ele>
        <time>2025-10-05T10:51:24Z</time>
      </trkpt>
      <trkpt lat="43.33384" lon="5.78688">
        <ele>1147.3</ele>
        <time>2025-10-05T10:51:25Z</time>
      </trkpt>
      <trkpt lat="43.33385" lon="5.78688">
        <ele>1147.3</ele>
        <time>2025-10-05T10:51:26Z</time>
      </trkpt>
      <trkpt lat="43.33385" lon="5.78688">
        <ele>1147.4</ele>
        <time>2025-10-05T10:51:27Z</time>
      </trkpt>
      <trkpt lat="43.33385" lon="5.78687">
        <ele>1147.4</ele>
        <time>2025-10-05T10:51:28Z</time>
      </trkpt>
      <trkpt lat="43.33385" lon="5.78687">
        <ele>1147.5</ele>
        <time>2025-10-05T10:51:29Z</time>
      </trkpt>
      <trkpt lat="43.33385" lon="5.78687">
        <ele>1147.5</ele>
        <time>2025-10-05T10:51:30Z</time>
      </trkpt>
      <trkpt lat="43.33385" lon="5.78687">
        <ele>1147.4</ele>
        <time>2025-10-05T10:51:31Z</time>
      </trkpt>
      <trkpt lat="43.33385" lon="5.78687">
        <ele>1147.4</ele>
        <time>2025-10-05T10:51:32Z</time>
      </trkpt>
      <trkpt lat="43.33385" lon="5.78687">
        <ele>1147.3</ele>
        <time>2025-10-05T10:51:33Z</time>
      </trkpt>
      <trkpt lat="43.33385" lon="5.78687">
        <ele>1147.3</ele>
        <time>2025-10-05T10:51:34Z</time>
      </trkpt>
      <trkpt lat="43.33384" lon="5.78687">
        <ele>1147.3</ele>
        <time>2025-10-05T10:51:35Z</time>
      </trkpt>
      <trkpt lat="43.33384" lon="5.78688">
        <ele>1147.3</ele>
        <time>2025-10-05T10:51:36Z</time>
      </trkpt>
      <trkpt lat="43.33384" lon="5.78688">
        <ele>1147.3</ele>
        <time>2025-10-05T10:51:37Z</time>
      </trkpt>
      <trkpt lat="43.33384" lon="5.78688">
        <ele>1147.3</ele>
        <time>2025-10-05T10:51:38Z</time>
      </trkpt>
      <trkpt lat="43.33384" lon="5.78688">
        <ele>1147.4</ele>
        <time>2025-10-05T10:51:39Z</time>
      </trkpt>
      <trkpt lat="43.33384" lon="5.78687">
        <ele>1147.4</ele>
        <time>2025-10-05T10:51:40Z</time>
      </trkpt>
      <trkpt lat="43.33384" lon="5.78687">
        <ele>1147.4</ele>
        <time>2025-10-05T10:51:41Z</time>
      </trkpt>
      <trkpt lat="43.33384" lon="5.78687">
        <ele>1147.4</ele>
        <time>2025-10-05T10:51:42Z</time>
      </trkpt>
      <trkpt lat="43.33384" lon="5.78687">
        <ele>1147.4</ele>
        <time>2025-10-05T10:51:43Z</time>
      </trkpt>
      <trkpt lat="43.33384" lon="5.78687">
        <ele>1147.4</ele>
        <time>2025-10-05T10:51:44Z</time>
      </trkpt>
      <trkpt lat="43.33384" lon="5.78687">
        <ele>1147.4</ele>
        <time>2025-10-05T10:51:45Z</time>
      </trkpt>
      <trkpt lat="43.33385" lon="5.78687">
        <ele>1147.4</ele>
        <time>2025-10-05T10:51:46Z</time>
      </trkpt>
      <trkpt lat="43.33385" lon="5.78687">
        <ele>1147.4</ele>
        <time>2025-10-05T10:51:47Z</time>
      </trkpt>
      <trkpt lat="43.33385" lon="5.78687">
        <ele>1147.5</ele>
        <time>2025-10-05T10:51:48Z</time>
      </trkpt>
      <trkpt lat="43.33385" lon="5.78687">
        <ele>1147.6</ele>
        <time>2025-10-05T10:51:49Z</time>
      </trkpt>
      <trkpt lat="43.33385" lon="5.78687">
        <ele>1147.7</ele>
        <time>2025-10-05T10:51:50Z</time>
      </trkpt>
      <trkpt lat="43.33385" lon="5.78687">
        <ele>1147.6</ele>
        <time>2025-10-05T10:51:51Z</time>
      </trkpt>
      <trkpt lat="43.33385" lon="5.78687">
        <ele>1147.6</ele>
        <time>2025-10-05T10:51:52Z</time>
      </trkpt>
      <trkpt lat="43.33385" lon="5.78687">
        <ele>1147.6</ele>
        <time>2025-10-05T10:51:53Z</time>
      </trkpt>
      <trkpt lat="43.33385" lon="5.78687">
        <ele>1147.7</ele>
        <time>2025-10-05T10:51:54Z</time>
      </trkpt>
      <trkpt lat="43.33385" lon="5.78687">
        <ele>1147.8</ele>
        <time>2025-10-05T10:51:55Z</time>
      </trkpt>
      <trkpt lat="43.33385" lon="5.78687">
        <ele>1147.7</ele>
        <time>2025-10-05T10:51:56Z</time>
      </trkpt>
      <trkpt lat="43.33385" lon="5.78687">
        <ele>1147.7</ele>
        <time>2025-10-05T10:51:57Z</time>
      </trkpt>
      <trkpt lat="43.33385" lon="5.78687">
        <ele>1147.7</ele>
        <time>2025-10-05T10:51:58Z</time>
      </trkpt>
      <trkpt lat="43.33385" lon="5.78687">
        <ele>1147.7</ele>
        <time>2025-10-05T10:51:59Z</time>
      </trkpt>
      <trkpt lat="43.33385" lon="5.78687">
        <ele>1147.8</ele>
        <time>2025-10-05T10:52:00Z</time>
      </trkpt>
      <trkpt lat="43.33385" lon="5.78687">
        <ele>1147.8</ele>
        <time>2025-10-05T10:52:01Z</time>
      </trkpt>
      <trkpt lat="43.33385" lon="5.78687">
        <ele>1147.7</ele>
        <time>2025-10-05T10:52:02Z</time>
      </trkpt>
      <trkpt lat="43.33385" lon="5.78687">
        <ele>1147.7</ele>
        <time>2025-10-05T10:52:03Z</time>
      </trkpt>
      <trkpt lat="43.33385" lon="5.78687">
        <ele>1147.7</ele>
        <time>2025-10-05T10:52:04Z</time>
      </trkpt>
      <trkpt lat="43.33385" lon="5.78687">
        <ele>1147.7</ele>
        <time>2025-10-05T10:52:05Z</time>
      </trkpt>
      <trkpt lat="43.33385" lon="5.78687">
        <ele>1147.7</ele>
        <time>2025-10-05T10:52:06Z</time>
      </trkpt>
      <trkpt lat="43.33385" lon="5.78688">
        <ele>1147.6</ele>
        <time>2025-10-05T10:52:07Z</time>
      </trkpt>
      <trkpt lat="43.33385" lon="5.78688">
        <ele>1147.5</ele>
        <time>2025-10-05T10:52:08Z</time>
      </trkpt>
      <trkpt lat="43.33385" lon="5.78688">
        <ele>1147.5</ele>
        <time>2025-10-05T10:52:09Z</time>
      </trkpt>
      <trkpt lat="43.33385" lon="5.78688">
        <ele>1147.4</ele>
        <time>2025-10-05T10:52:10Z</time>
      </trkpt>
      <trkpt lat="43.33384" lon="5.78688">
        <ele>1147.3</ele>
        <time>2025-10-05T10:52:11Z</time>
      </trkpt>
      <trkpt lat="43.33384" lon="5.78687">
        <ele>1147.2</ele>
        <time>2025-10-05T10:52:12Z</time>
      </trkpt>
      <trkpt lat="43.33384" lon="5.78687">
        <ele>1147.2</ele>
        <time>2025-10-05T10:52:13Z</time>
      </trkpt>
      <trkpt lat="43.33384" lon="5.78688">
        <ele>1147.1</ele>
        <time>2025-10-05T10:52:14Z</time>
      </trkpt>
      <trkpt lat="43.33383" lon="5.78688">
        <ele>1147.1</ele>
        <time>2025-10-05T10:52:15Z</time>
      </trkpt>
      <trkpt lat="43.33383" lon="5.78688">
        <ele>1147</ele>
        <time>2025-10-05T10:52:16Z</time>
      </trkpt>
      <trkpt lat="43.33383" lon="5.78688">
        <ele>1146.9</ele>
        <time>2025-10-05T10:52:17Z</time>
      </trkpt>
      <trkpt lat="43.33383" lon="5.78688">
        <ele>1146.8</ele>
        <time>2025-10-05T10:52:18Z</time>
      </trkpt>
      <trkpt lat="43.33383" lon="5.78688">
        <ele>1146.6</ele>
        <time>2025-10-05T10:52:19Z</time>
      </trkpt>
      <trkpt lat="43.33383" lon="5.78688">
        <ele>1146.5</ele>
        <time>2025-10-05T10:52:20Z</time>
      </trkpt>
      <trkpt lat="43.33383" lon="5.78689">
        <ele>1146.3</ele>
        <time>2025-10-05T10:52:21Z</time>
      </trkpt>
      <trkpt lat="43.33383" lon="5.78689">
        <ele>1146.2</ele>
        <time>2025-10-05T10:52:22Z</time>
      </trkpt>
      <trkpt lat="43.33382" lon="5.78689">
        <ele>1146.2</ele>
        <time>2025-10-05T10:52:23Z</time>
      </trkpt>
      <trkpt lat="43.33382" lon="5.78689">
        <ele>1146.2</ele>
        <time>2025-10-05T10:52:24Z</time>
      </trkpt>
      <trkpt lat="43.33382" lon="5.78689">
        <ele>1146.1</ele>
        <time>2025-10-05T10:52:25Z</time>
      </trkpt>
      <trkpt lat="43.33382" lon="5.78689">
        <ele>1146</ele>
        <time>2025-10-05T10:52:26Z</time>
      </trkpt>
      <trkpt lat="43.33382" lon="5.78689">
        <ele>1146</ele>
        <time>2025-10-05T10:52:27Z</time>
      </trkpt>
      <trkpt lat="43.33382" lon="5.78689">
        <ele>1145.9</ele>
        <time>2025-10-05T10:52:28Z</time>
      </trkpt>
      <trkpt lat="43.33382" lon="5.78689">
        <ele>1145.9</ele>
        <time>2025-10-05T10:52:29Z</time>
      </trkpt>
      <trkpt lat="43.33382" lon="5.78689">
        <ele>1145.8</ele>
        <time>2025-10-05T10:52:30Z</time>
      </trkpt>
      <trkpt lat="43.33382" lon="5.78689">
        <ele>1145.8</ele>
        <time>2025-10-05T10:52:31Z</time>
      </trkpt>
      <trkpt lat="43.33383" lon="5.78689">
        <ele>1145.8</ele>
        <time>2025-10-05T10:52:32Z</time>
      </trkpt>
      <trkpt lat="43.33383" lon="5.7869">
        <ele>1145.7</ele>
        <time>2025-10-05T10:52:33Z</time>
      </trkpt>
      <trkpt lat="43.33383" lon="5.7869">
        <ele>1145.8</ele>
        <time>2025-10-05T10:52:34Z</time>
      </trkpt>
      <trkpt lat="43.33383" lon="5.7869">
        <ele>1145.8</ele>
        <time>2025-10-05T10:52:35Z</time>
      </trkpt>
      <trkpt lat="43.33383" lon="5.7869">
        <ele>1145.8</ele>
        <time>2025-10-05T10:52:36Z</time>
      </trkpt>
      <trkpt lat="43.33383" lon="5.7869">
        <ele>1145.8</ele>
        <time>2025-10-05T10:52:37Z</time>
      </trkpt>
      <trkpt lat="43.33383" lon="5.7869">
        <ele>1145.8</ele>
        <time>2025-10-05T10:52:38Z</time>
      </trkpt>
      <trkpt lat="43.33383" lon="5.7869">
        <ele>1145.9</ele>
        <time>2025-10-05T10:52:39Z</time>
      </trkpt>
      <trkpt lat="43.33383" lon="5.7869">
        <ele>1146</ele>
        <time>2025-10-05T10:52:40Z</time>
      </trkpt>
      <trkpt lat="43.33383" lon="5.7869">
        <ele>1146.1</ele>
        <time>2025-10-05T10:52:41Z</time>
      </trkpt>
      <trkpt lat="43.33383" lon="5.7869">
        <ele>1146.2</ele>
        <time>2025-10-05T10:52:42Z</time>
      </trkpt>
      <trkpt lat="43.33383" lon="5.7869">
        <ele>1146.3</ele>
        <time>2025-10-05T10:52:43Z</time>
      </trkpt>
      <trkpt lat="43.33383" lon="5.7869">
        <ele>1146.3</ele>
        <time>2025-10-05T10:52:44Z</time>
      </trkpt>
      <trkpt lat="43.33383" lon="5.7869">
        <ele>1146.2</ele>
        <time>2025-10-05T10:52:45Z</time>
      </trkpt>
      <trkpt lat="43.33383" lon="5.7869">
        <ele>1146.2</ele>
        <time>2025-10-05T10:52:46Z</time>
      </trkpt>
      <trkpt lat="43.33383" lon="5.7869">
        <ele>1146.5</ele>
        <time>2025-10-05T10:52:47Z</time>
      </trkpt>
      <trkpt lat="43.33383" lon="5.7869">
        <ele>1146.7</ele>
        <time>2025-10-05T10:52:48Z</time>
      </trkpt>
      <trkpt lat="43.33383" lon="5.7869">
        <ele>1146.7</ele>
        <time>2025-10-05T10:52:49Z</time>
      </trkpt>
      <trkpt lat="43.33383" lon="5.7869">
        <ele>1146.9</ele>
        <time>2025-10-05T10:52:50Z</time>
      </trkpt>
      <trkpt lat="43.33383" lon="5.7869">
        <ele>1146.8</ele>
        <time>2025-10-05T10:52:51Z</time>
      </trkpt>
      <trkpt lat="43.33383" lon="5.7869">
        <ele>1146.9</ele>
        <time>2025-10-05T10:52:52Z</time>
      </trkpt>
      <trkpt lat="43.33383" lon="5.7869">
        <ele>1147</ele>
        <time>2025-10-05T10:52:53Z</time>
      </trkpt>
      <trkpt lat="43.33383" lon="5.7869">
        <ele>1147</ele>
        <time>2025-10-05T10:52:54Z</time>
      </trkpt>
      <trkpt lat="43.33383" lon="5.7869">
        <ele>1147</ele>
        <time>2025-10-05T10:52:55Z</time>
      </trkpt>
      <trkpt lat="43.33383" lon="5.7869">
        <ele>1147.2</ele>
        <time>2025-10-05T10:52:56Z</time>
      </trkpt>
      <trkpt lat="43.33383" lon="5.7869">
        <ele>1147.2</ele>
        <time>2025-10-05T10:52:57Z</time>
      </trkpt>
      <trkpt lat="43.33383" lon="5.7869">
        <ele>1147.5</ele>
        <time>2025-10-05T10:52:58Z</time>
      </trkpt>
      <trkpt lat="43.33383" lon="5.7869">
        <ele>1147.7</ele>
        <time>2025-10-05T10:52:59Z</time>
      </trkpt>
      <trkpt lat="43.33383" lon="5.7869">
        <ele>1147.8</ele>
        <time>2025-10-05T10:53:00Z</time>
      </trkpt>
      <trkpt lat="43.33383" lon="5.7869">
        <ele>1148</ele>
        <time>2025-10-05T10:53:01Z</time>
      </trkpt>
      <trkpt lat="43.33383" lon="5.7869">
        <ele>1148</ele>
        <time>2025-10-05T10:53:02Z</time>
      </trkpt>
      <trkpt lat="43.33383" lon="5.7869">
        <ele>1148.1</ele>
        <time>2025-10-05T10:53:03Z</time>
      </trkpt>
      <trkpt lat="43.33383" lon="5.7869">
        <ele>1148.2</ele>
        <time>2025-10-05T10:53:04Z</time>
      </trkpt>
      <trkpt lat="43.33383" lon="5.7869">
        <ele>1148.3</ele>
        <time>2025-10-05T10:53:05Z</time>
      </trkpt>
      <trkpt lat="43.33383" lon="5.78689">
        <ele>1148.4</ele>
        <time>2025-10-05T10:53:06Z</time>
      </trkpt>
      <trkpt lat="43.33383" lon="5.78689">
        <ele>1148.5</ele>
        <time>2025-10-05T10:53:07Z</time>
      </trkpt>
      <trkpt lat="43.33383" lon="5.78689">
        <ele>1148.6</ele>
        <time>2025-10-05T10:53:08Z</time>
      </trkpt>
      <trkpt lat="43.33383" lon="5.78689">
        <ele>1148.7</ele>
        <time>2025-10-05T10:53:09Z</time>
      </trkpt>
      <trkpt lat="43.33383" lon="5.78689">
        <ele>1148.8</ele>
        <time>2025-10-05T10:53:10Z</time>
      </trkpt>
      <trkpt lat="43.33383" lon="5.78689">
        <ele>1148.9</ele>
        <time>2025-10-05T10:53:11Z</time>
      </trkpt>
      <trkpt lat="43.33383" lon="5.78689">
        <ele>1149</ele>
        <time>2025-10-05T10:53:12Z</time>
      </trkpt>
      <trkpt lat="43.33383" lon="5.78689">
        <ele>1149.1</ele>
        <time>2025-10-05T10:53:13Z</time>
      </trkpt>
      <trkpt lat="43.33383" lon="5.78689">
        <ele>1149.3</ele>
        <time>2025-10-05T10:53:14Z</time>
      </trkpt>
      <trkpt lat="43.33383" lon="5.78689">
        <ele>1149.4</ele>
        <time>2025-10-05T10:53:15Z</time>
      </trkpt>
      <trkpt lat="43.33383" lon="5.78689">
        <ele>1149.5</ele>
        <time>2025-10-05T10:53:16Z</time>
      </trkpt>
      <trkpt lat="43.33383" lon="5.78689">
        <ele>1149.5</ele>
        <time>2025-10-05T10:53:17Z</time>
      </trkpt>
      <trkpt lat="43.33383" lon="5.78689">
        <ele>1149.5</ele>
        <time>2025-10-05T10:53:18Z</time>
      </trkpt>
      <trkpt lat="43.33383" lon="5.78689">
        <ele>1149.5</ele>
        <time>2025-10-05T10:53:19Z</time>
      </trkpt>
      <trkpt lat="43.33383" lon="5.78689">
        <ele>1149.2</ele>
        <time>2025-10-05T10:53:20Z</time>
      </trkpt>
      <trkpt lat="43.33383" lon="5.78689">
        <ele>1149</ele>
        <time>2025-10-05T10:53:21Z</time>
      </trkpt>
      <trkpt lat="43.33383" lon="5.78689">
        <ele>1148.9</ele>
        <time>2025-10-05T10:53:22Z</time>
      </trkpt>
      <trkpt lat="43.33383" lon="5.78689">
        <ele>1148.7</ele>
        <time>2025-10-05T10:53:23Z</time>
      </trkpt>
      <trkpt lat="43.33383" lon="5.78689">
        <ele>1148.7</ele>
        <time>2025-10-05T10:53:24Z</time>
      </trkpt>
      <trkpt lat="43.33383" lon="5.78689">
        <ele>1148.7</ele>
        <time>2025-10-05T10:53:25Z</time>
      </trkpt>
      <trkpt lat="43.33382" lon="5.78689">
        <ele>1148.6</ele>
        <time>2025-10-05T10:53:26Z</time>
      </trkpt>
      <trkpt lat="43.33382" lon="5.78689">
        <ele>1148.6</ele>
        <time>2025-10-05T10:53:27Z</time>
      </trkpt>
      <trkpt lat="43.33382" lon="5.78689">
        <ele>1148.5</ele>
        <time>2025-10-05T10:53:28Z</time>
      </trkpt>
      <trkpt lat="43.33382" lon="5.78689">
        <ele>1148.5</ele>
        <time>2025-10-05T10:53:29Z</time>
      </trkpt>
      <trkpt lat="43.33382" lon="5.78689">
        <ele>1148.4</ele>
        <time>2025-10-05T10:53:30Z</time>
      </trkpt>
      <trkpt lat="43.33382" lon="5.78689">
        <ele>1148.3</ele>
        <time>2025-10-05T10:53:31Z</time>
      </trkpt>
      <trkpt lat="43.33382" lon="5.78689">
        <ele>1148.1</ele>
        <time>2025-10-05T10:53:32Z</time>
      </trkpt>
      <trkpt lat="43.33382" lon="5.78689">
        <ele>1148.1</ele>
        <time>2025-10-05T10:53:33Z</time>
      </trkpt>
      <trkpt lat="43.33382" lon="5.78689">
        <ele>1148.1</ele>
        <time>2025-10-05T10:53:34Z</time>
      </trkpt>
      <trkpt lat="43.33381" lon="5.78689">
        <ele>1148.1</ele>
        <time>2025-10-05T10:53:35Z</time>
      </trkpt>
      <trkpt lat="43.33381" lon="5.78689">
        <ele>1148</ele>
        <time>2025-10-05T10:53:36Z</time>
      </trkpt>
      <trkpt lat="43.33381" lon="5.78689">
        <ele>1148</ele>
        <time>2025-10-05T10:53:37Z</time>
      </trkpt>
      <trkpt lat="43.33381" lon="5.78689">
        <ele>1147.9</ele>
        <time>2025-10-05T10:53:38Z</time>
      </trkpt>
      <trkpt lat="43.33381" lon="5.78689">
        <ele>1148</ele>
        <time>2025-10-05T10:53:39Z</time>
      </trkpt>
      <trkpt lat="43.33381" lon="5.78689">
        <ele>1148</ele>
        <time>2025-10-05T10:53:40Z</time>
      </trkpt>
      <trkpt lat="43.33381" lon="5.7869">
        <ele>1148</ele>
        <time>2025-10-05T10:53:41Z</time>
      </trkpt>
      <trkpt lat="43.3338" lon="5.7869">
        <ele>1148</ele>
        <time>2025-10-05T10:53:42Z</time>
      </trkpt>
      <trkpt lat="43.3338" lon="5.7869">
        <ele>1148.1</ele>
        <time>2025-10-05T10:53:43Z</time>
      </trkpt>
      <trkpt lat="43.3338" lon="5.78689">
        <ele>1148.1</ele>
        <time>2025-10-05T10:53:44Z</time>
      </trkpt>
      <trkpt lat="43.3338" lon="5.78689">
        <ele>1148</ele>
        <time>2025-10-05T10:53:45Z</time>
      </trkpt>
      <trkpt lat="43.3338" lon="5.78689">
        <ele>1148</ele>
        <time>2025-10-05T10:53:46Z</time>
      </trkpt>
      <trkpt lat="43.3338" lon="5.78689">
        <ele>1148</ele>
        <time>2025-10-05T10:53:47Z</time>
      </trkpt>
      <trkpt lat="43.3338" lon="5.78689">
        <ele>1147.9</ele>
        <time>2025-10-05T10:53:48Z</time>
      </trkpt>
      <trkpt lat="43.3338" lon="5.78689">
        <ele>1147.9</ele>
        <time>2025-10-05T10:53:49Z</time>
      </trkpt>
      <trkpt lat="43.33381" lon="5.78689">
        <ele>1147.9</ele>
        <time>2025-10-05T10:53:50Z</time>
      </trkpt>
      <trkpt lat="43.33381" lon="5.78689">
        <ele>1147.9</ele>
        <time>2025-10-05T10:53:51Z</time>
      </trkpt>
      <trkpt lat="43.33381" lon="5.78689">
        <ele>1147.9</ele>
        <time>2025-10-05T10:53:52Z</time>
      </trkpt>
      <trkpt lat="43.33381" lon="5.78689">
        <ele>1147.9</ele>
        <time>2025-10-05T10:53:53Z</time>
      </trkpt>
      <trkpt lat="43.33381" lon="5.78689">
        <ele>1147.9</ele>
        <time>2025-10-05T10:53:54Z</time>
      </trkpt>
      <trkpt lat="43.33381" lon="5.78688">
        <ele>1147.8</ele>
        <time>2025-10-05T10:53:55Z</time>
      </trkpt>
      <trkpt lat="43.33381" lon="5.78688">
        <ele>1147.8</ele>
        <time>2025-10-05T10:53:56Z</time>
      </trkpt>
      <trkpt lat="43.33381" lon="5.78688">
        <ele>1147.8</ele>
        <time>2025-10-05T10:53:57Z</time>
      </trkpt>
      <trkpt lat="43.33381" lon="5.78688">
        <ele>1147.9</ele>
        <time>2025-10-05T10:53:58Z</time>
      </trkpt>
      <trkpt lat="43.33381" lon="5.78688">
        <ele>1147.9</ele>
        <time>2025-10-05T10:53:59Z</time>
      </trkpt>
      <trkpt lat="43.33381" lon="5.78688">
        <ele>1147.7</ele>
        <time>2025-10-05T10:54:00Z</time>
      </trkpt>
      <trkpt lat="43.33381" lon="5.78688">
        <ele>1147.7</ele>
        <time>2025-10-05T10:54:01Z</time>
      </trkpt>
      <trkpt lat="43.33381" lon="5.78689">
        <ele>1147.6</ele>
        <time>2025-10-05T10:54:02Z</time>
      </trkpt>
      <trkpt lat="43.33381" lon="5.78688">
        <ele>1147.6</ele>
        <time>2025-10-05T10:54:03Z</time>
      </trkpt>
      <trkpt lat="43.33381" lon="5.78688">
        <ele>1147.5</ele>
        <time>2025-10-05T10:54:04Z</time>
      </trkpt>
      <trkpt lat="43.33381" lon="5.78689">
        <ele>1147.4</ele>
        <time>2025-10-05T10:54:05Z</time>
      </trkpt>
      <trkpt lat="43.33381" lon="5.78688">
        <ele>1147.4</ele>
        <time>2025-10-05T10:54:06Z</time>
      </trkpt>
      <trkpt lat="43.33381" lon="5.78688">
        <ele>1147.3</ele>
        <time>2025-10-05T10:54:07Z</time>
      </trkpt>
      <trkpt lat="43.33381" lon="5.78688">
        <ele>1147.3</ele>
        <time>2025-10-05T10:54:08Z</time>
      </trkpt>
      <trkpt lat="43.33381" lon="5.78688">
        <ele>1147.2</ele>
        <time>2025-10-05T10:54:09Z</time>
      </trkpt>
      <trkpt lat="43.33381" lon="5.78688">
        <ele>1147.3</ele>
        <time>2025-10-05T10:54:10Z</time>
      </trkpt>
      <trkpt lat="43.33382" lon="5.78688">
        <ele>1147.3</ele>
        <time>2025-10-05T10:54:11Z</time>
      </trkpt>
      <trkpt lat="43.33382" lon="5.78688">
        <ele>1147.3</ele>
        <time>2025-10-05T10:54:12Z</time>
      </trkpt>
      <trkpt lat="43.33382" lon="5.78688">
        <ele>1147.3</ele>
        <time>2025-10-05T10:54:13Z</time>
      </trkpt>
      <trkpt lat="43.33382" lon="5.78688">
        <ele>1147.2</ele>
        <time>2025-10-05T10:54:14Z</time>
      </trkpt>
      <trkpt lat="43.33382" lon="5.78688">
        <ele>1147.2</ele>
        <time>2025-10-05T10:54:15Z</time>
      </trkpt>
      <trkpt lat="43.33382" lon="5.78688">
        <ele>1147.1</ele>
        <time>2025-10-05T10:54:16Z</time>
      </trkpt>
      <trkpt lat="43.33382" lon="5.78688">
        <ele>1147</ele>
        <time>2025-10-05T10:54:17Z</time>
      </trkpt>
      <trkpt lat="43.33382" lon="5.78688">
        <ele>1146.9</ele>
        <time>2025-10-05T10:54:18Z</time>
      </trkpt>
      <trkpt lat="43.33382" lon="5.78688">
        <ele>1146.9</ele>
        <time>2025-10-05T10:54:19Z</time>
      </trkpt>
      <trkpt lat="43.33382" lon="5.78688">
        <ele>1146.9</ele>
        <time>2025-10-05T10:54:20Z</time>
      </trkpt>
      <trkpt lat="43.33382" lon="5.78688">
        <ele>1146.9</ele>
        <time>2025-10-05T10:54:21Z</time>
      </trkpt>
      <trkpt lat="43.33382" lon="5.78688">
        <ele>1146.9</ele>
        <time>2025-10-05T10:54:22Z</time>
      </trkpt>
      <trkpt lat="43.33382" lon="5.78688">
        <ele>1146.8</ele>
        <time>2025-10-05T10:54:23Z</time>
      </trkpt>
      <trkpt lat="43.33382" lon="5.78688">
        <ele>1146.9</ele>
        <time>2025-10-05T10:54:24Z</time>
      </trkpt>
      <trkpt lat="43.33382" lon="5.78687">
        <ele>1146.9</ele>
        <time>2025-10-05T10:54:25Z</time>
      </trkpt>
      <trkpt lat="43.33382" lon="5.78687">
        <ele>1147</ele>
        <time>2025-10-05T10:54:26Z</time>
      </trkpt>
      <trkpt lat="43.33382" lon="5.78687">
        <ele>1147</ele>
        <time>2025-10-05T10:54:27Z</time>
      </trkpt>
      <trkpt lat="43.33382" lon="5.78687">
        <ele>1147.1</ele>
        <time>2025-10-05T10:54:28Z</time>
      </trkpt>
      <trkpt lat="43.33383" lon="5.78687">
        <ele>1147.1</ele>
        <time>2025-10-05T10:54:29Z</time>
      </trkpt>
      <trkpt lat="43.33383" lon="5.78687">
        <ele>1147.1</ele>
        <time>2025-10-05T10:54:30Z</time>
      </trkpt>
      <trkpt lat="43.33383" lon="5.78687">
        <ele>1147.1</ele>
        <time>2025-10-05T10:54:31Z</time>
      </trkpt>
      <trkpt lat="43.33383" lon="5.78687">
        <ele>1147.1</ele>
        <time>2025-10-05T10:54:32Z</time>
      </trkpt>
      <trkpt lat="43.33383" lon="5.78687">
        <ele>1147.1</ele>
        <time>2025-10-05T10:54:33Z</time>
      </trkpt>
      <trkpt lat="43.33383" lon="5.78687">
        <ele>1147.2</ele>
        <time>2025-10-05T10:54:34Z</time>
      </trkpt>
      <trkpt lat="43.33383" lon="5.78687">
        <ele>1147.3</ele>
        <time>2025-10-05T10:54:35Z</time>
      </trkpt>
      <trkpt lat="43.33383" lon="5.78687">
        <ele>1147.4</ele>
        <time>2025-10-05T10:54:36Z</time>
      </trkpt>
      <trkpt lat="43.33383" lon="5.78687">
        <ele>1147.6</ele>
        <time>2025-10-05T10:54:37Z</time>
      </trkpt>
      <trkpt lat="43.33383" lon="5.78687">
        <ele>1147.7</ele>
        <time>2025-10-05T10:54:38Z</time>
      </trkpt>
      <trkpt lat="43.33383" lon="5.78687">
        <ele>1147.9</ele>
        <time>2025-10-05T10:54:39Z</time>
      </trkpt>
      <trkpt lat="43.33383" lon="5.78687">
        <ele>1148.1</ele>
        <time>2025-10-05T10:54:40Z</time>
      </trkpt>
      <trkpt lat="43.33383" lon="5.78687">
        <ele>1148.2</ele>
        <time>2025-10-05T10:54:41Z</time>
      </trkpt>
      <trkpt lat="43.33383" lon="5.78687">
        <ele>1148.2</ele>
        <time>2025-10-05T10:54:42Z</time>
      </trkpt>
      <trkpt lat="43.33383" lon="5.78687">
        <ele>1148.2</ele>
        <time>2025-10-05T10:54:43Z</time>
      </trkpt>
      <trkpt lat="43.33383" lon="5.78687">
        <ele>1148.2</ele>
        <time>2025-10-05T10:54:44Z</time>
      </trkpt>
      <trkpt lat="43.33383" lon="5.78686">
        <ele>1148.2</ele>
        <time>2025-10-05T10:54:45Z</time>
      </trkpt>
      <trkpt lat="43.33383" lon="5.78686">
        <ele>1148.1</ele>
        <time>2025-10-05T10:54:46Z</time>
      </trkpt>
      <trkpt lat="43.33384" lon="5.78686">
        <ele>1148.1</ele>
        <time>2025-10-05T10:54:47Z</time>
      </trkpt>
      <trkpt lat="43.33384" lon="5.78686">
        <ele>1148</ele>
        <time>2025-10-05T10:54:48Z</time>
      </trkpt>
      <trkpt lat="43.33384" lon="5.78686">
        <ele>1148</ele>
        <time>2025-10-05T10:54:49Z</time>
      </trkpt>
      <trkpt lat="43.33384" lon="5.78686">
        <ele>1147.9</ele>
        <time>2025-10-05T10:54:50Z</time>
      </trkpt>
      <trkpt lat="43.33384" lon="5.78686">
        <ele>1147.8</ele>
        <time>2025-10-05T10:54:51Z</time>
      </trkpt>
      <trkpt lat="43.33384" lon="5.78686">
        <ele>1147.8</ele>
        <time>2025-10-05T10:54:52Z</time>
      </trkpt>
      <trkpt lat="43.33384" lon="5.78686">
        <ele>1147.7</ele>
        <time>2025-10-05T10:54:53Z</time>
      </trkpt>
      <trkpt lat="43.33384" lon="5.78686">
        <ele>1147.7</ele>
        <time>2025-10-05T10:54:54Z</time>
      </trkpt>
      <trkpt lat="43.33384" lon="5.78686">
        <ele>1147.6</ele>
        <time>2025-10-05T10:54:55Z</time>
      </trkpt>
      <trkpt lat="43.33384" lon="5.78686">
        <ele>1147.4</ele>
        <time>2025-10-05T10:54:56Z</time>
      </trkpt>
      <trkpt lat="43.33383" lon="5.78686">
        <ele>1147.4</ele>
        <time>2025-10-05T10:54:57Z</time>
      </trkpt>
      <trkpt lat="43.33383" lon="5.78686">
        <ele>1147.4</ele>
        <time>2025-10-05T10:54:58Z</time>
      </trkpt>
      <trkpt lat="43.33383" lon="5.78686">
        <ele>1147.3</ele>
        <time>2025-10-05T10:54:59Z</time>
      </trkpt>
      <trkpt lat="43.33383" lon="5.78686">
        <ele>1147.4</ele>
        <time>2025-10-05T10:55:00Z</time>
      </trkpt>
      <trkpt lat="43.33383" lon="5.78686">
        <ele>1147.4</ele>
        <time>2025-10-05T10:55:01Z</time>
      </trkpt>
      <trkpt lat="43.33383" lon="5.78686">
        <ele>1147.3</ele>
        <time>2025-10-05T10:55:02Z</time>
      </trkpt>
      <trkpt lat="43.33383" lon="5.78686">
        <ele>1147.2</ele>
        <time>2025-10-05T10:55:03Z</time>
      </trkpt>
      <trkpt lat="43.33383" lon="5.78686">
        <ele>1147.2</ele>
        <time>2025-10-05T10:55:04Z</time>
      </trkpt>
      <trkpt lat="43.33383" lon="5.78686">
        <ele>1147.2</ele>
        <time>2025-10-05T10:55:05Z</time>
      </trkpt>
      <trkpt lat="43.33383" lon="5.78686">
        <ele>1147.2</ele>
        <time>2025-10-05T10:55:06Z</time>
      </trkpt>
      <trkpt lat="43.33383" lon="5.78686">
        <ele>1147.3</ele>
        <time>2025-10-05T10:55:07Z</time>
      </trkpt>
      <trkpt lat="43.33383" lon="5.78686">
        <ele>1147.4</ele>
        <time>2025-10-05T10:55:08Z</time>
      </trkpt>
      <trkpt lat="43.33383" lon="5.78687">
        <ele>1147.5</ele>
        <time>2025-10-05T10:55:09Z</time>
      </trkpt>
      <trkpt lat="43.33383" lon="5.78687">
        <ele>1147.6</ele>
        <time>2025-10-05T10:55:10Z</time>
      </trkpt>
      <trkpt lat="43.33383" lon="5.78687">
        <ele>1147.6</ele>
        <time>2025-10-05T10:55:11Z</time>
      </trkpt>
      <trkpt lat="43.33383" lon="5.78687">
        <ele>1147.7</ele>
        <time>2025-10-05T10:55:12Z</time>
      </trkpt>
      <trkpt lat="43.33383" lon="5.78687">
        <ele>1147.8</ele>
        <time>2025-10-05T10:55:13Z</time>
      </trkpt>
      <trkpt lat="43.33383" lon="5.78687">
        <ele>1147.8</ele>
        <time>2025-10-05T10:55:14Z</time>
      </trkpt>
      <trkpt lat="43.33383" lon="5.78687">
        <ele>1147.8</ele>
        <time>2025-10-05T10:55:15Z</time>
      </trkpt>
      <trkpt lat="43.33383" lon="5.78687">
        <ele>1147.9</ele>
        <time>2025-10-05T10:55:16Z</time>
      </trkpt>
      <trkpt lat="43.33383" lon="5.78687">
        <ele>1147.9</ele>
        <time>2025-10-05T10:55:17Z</time>
      </trkpt>
      <trkpt lat="43.33383" lon="5.78687">
        <ele>1147.9</ele>
        <time>2025-10-05T10:55:18Z</time>
      </trkpt>
      <trkpt lat="43.33383" lon="5.78687">
        <ele>1147.8</ele>
        <time>2025-10-05T10:55:19Z</time>
      </trkpt>
      <trkpt lat="43.33383" lon="5.78686">
        <ele>1147.8</ele>
        <time>2025-10-05T10:55:20Z</time>
      </trkpt>
      <trkpt lat="43.33383" lon="5.78686">
        <ele>1147.9</ele>
        <time>2025-10-05T10:55:21Z</time>
      </trkpt>
      <trkpt lat="43.33383" lon="5.78686">
        <ele>1147.9</ele>
        <time>2025-10-05T10:55:22Z</time>
      </trkpt>
      <trkpt lat="43.33383" lon="5.78686">
        <ele>1147.9</ele>
        <time>2025-10-05T10:55:23Z</time>
      </trkpt>
      <trkpt lat="43.33383" lon="5.78686">
        <ele>1147.9</ele>
        <time>2025-10-05T10:55:24Z</time>
      </trkpt>
      <trkpt lat="43.33383" lon="5.78686">
        <ele>1147.8</ele>
        <time>2025-10-05T10:55:25Z</time>
      </trkpt>
      <trkpt lat="43.33383" lon="5.78686">
        <ele>1147.8</ele>
        <time>2025-10-05T10:55:26Z</time>
      </trkpt>
      <trkpt lat="43.33383" lon="5.78686">
        <ele>1147.7</ele>
        <time>2025-10-05T10:55:27Z</time>
      </trkpt>
      <trkpt lat="43.33383" lon="5.78686">
        <ele>1147.7</ele>
        <time>2025-10-05T10:55:28Z</time>
      </trkpt>
      <trkpt lat="43.33383" lon="5.78686">
        <ele>1147.7</ele>
        <time>2025-10-05T10:55:29Z</time>
      </trkpt>
      <trkpt lat="43.33383" lon="5.78686">
        <ele>1147.7</ele>
        <time>2025-10-05T10:55:30Z</time>
      </trkpt>
      <trkpt lat="43.33383" lon="5.78686">
        <ele>1147.6</ele>
        <time>2025-10-05T10:55:31Z</time>
      </trkpt>
      <trkpt lat="43.33383" lon="5.78686">
        <ele>1147.6</ele>
        <time>2025-10-05T10:55:32Z</time>
      </trkpt>
      <trkpt lat="43.33383" lon="5.78686">
        <ele>1147.5</ele>
        <time>2025-10-05T10:55:33Z</time>
      </trkpt>
      <trkpt lat="43.33383" lon="5.78687">
        <ele>1147.5</ele>
        <time>2025-10-05T10:55:34Z</time>
      </trkpt>
      <trkpt lat="43.33383" lon="5.78687">
        <ele>1147.5</ele>
        <time>2025-10-05T10:55:35Z</time>
      </trkpt>
      <trkpt lat="43.33383" lon="5.78687">
        <ele>1147.5</ele>
        <time>2025-10-05T10:55:36Z</time>
      </trkpt>
      <trkpt lat="43.33383" lon="5.78687">
        <ele>1147.5</ele>
        <time>2025-10-05T10:55:37Z</time>
      </trkpt>
      <trkpt lat="43.33383" lon="5.78687">
        <ele>1147.4</ele>
        <time>2025-10-05T10:55:38Z</time>
      </trkpt>
      <trkpt lat="43.33383" lon="5.78687">
        <ele>1147.4</ele>
        <time>2025-10-05T10:55:39Z</time>
      </trkpt>
      <trkpt lat="43.33383" lon="5.78687">
        <ele>1147.4</ele>
        <time>2025-10-05T10:55:40Z</time>
      </trkpt>
      <trkpt lat="43.33383" lon="5.78687">
        <ele>1147.4</ele>
        <time>2025-10-05T10:55:41Z</time>
      </trkpt>
      <trkpt lat="43.33383" lon="5.78687">
        <ele>1147.2</ele>
        <time>2025-10-05T10:55:42Z</time>
      </trkpt>
      <trkpt lat="43.33383" lon="5.78687">
        <ele>1147</ele>
        <time>2025-10-05T10:55:43Z</time>
      </trkpt>
      <trkpt lat="43.33383" lon="5.78687">
        <ele>1146.9</ele>
        <time>2025-10-05T10:55:44Z</time>
      </trkpt>
      <trkpt lat="43.33383" lon="5.78687">
        <ele>1146.8</ele>
        <time>2025-10-05T10:55:45Z</time>
      </trkpt>
      <trkpt lat="43.33383" lon="5.78688">
        <ele>1146.7</ele>
        <time>2025-10-05T10:55:46Z</time>
      </trkpt>
      <trkpt lat="43.33383" lon="5.78688">
        <ele>1146.6</ele>
        <time>2025-10-05T10:55:47Z</time>
      </trkpt>
      <trkpt lat="43.33383" lon="5.78688">
        <ele>1146.6</ele>
        <time>2025-10-05T10:55:48Z</time>
      </trkpt>
      <trkpt lat="43.33383" lon="5.78688">
        <ele>1146.7</ele>
        <time>2025-10-05T10:55:49Z</time>
      </trkpt>
      <trkpt lat="43.33383" lon="5.78688">
        <ele>1146.7</ele>
        <time>2025-10-05T10:55:50Z</time>
      </trkpt>
      <trkpt lat="43.33383" lon="5.78688">
        <ele>1146.8</ele>
        <time>2025-10-05T10:55:51Z</time>
      </trkpt>
      <trkpt lat="43.33383" lon="5.78688">
        <ele>1146.8</ele>
        <time>2025-10-05T10:55:52Z</time>
      </trkpt>
      <trkpt lat="43.33383" lon="5.78688">
        <ele>1146.8</ele>
        <time>2025-10-05T10:55:53Z</time>
      </trkpt>
      <trkpt lat="43.33383" lon="5.78688">
        <ele>1146.9</ele>
        <time>2025-10-05T10:55:54Z</time>
      </trkpt>
      <trkpt lat="43.33383" lon="5.78688">
        <ele>1146.9</ele>
        <time>2025-10-05T10:55:55Z</time>
      </trkpt>
      <trkpt lat="43.33383" lon="5.78688">
        <ele>1147</ele>
        <time>2025-10-05T10:55:56Z</time>
      </trkpt>
      <trkpt lat="43.33383" lon="5.78688">
        <ele>1147</ele>
        <time>2025-10-05T10:55:57Z</time>
      </trkpt>
      <trkpt lat="43.33383" lon="5.78688">
        <ele>1147</ele>
        <time>2025-10-05T10:55:58Z</time>
      </trkpt>
      <trkpt lat="43.33383" lon="5.78688">
        <ele>1147.2</ele>
        <time>2025-10-05T10:55:59Z</time>
      </trkpt>
      <trkpt lat="43.33383" lon="5.78688">
        <ele>1147.4</ele>
        <time>2025-10-05T10:56:00Z</time>
      </trkpt>
      <trkpt lat="43.33383" lon="5.78688">
        <ele>1147.5</ele>
        <time>2025-10-05T10:56:01Z</time>
      </trkpt>
      <trkpt lat="43.33383" lon="5.78688">
        <ele>1147.6</ele>
        <time>2025-10-05T10:56:02Z</time>
      </trkpt>
      <trkpt lat="43.33384" lon="5.78688">
        <ele>1147.7</ele>
        <time>2025-10-05T10:56:03Z</time>
      </trkpt>
      <trkpt lat="43.33384" lon="5.78688">
        <ele>1147.7</ele>
        <time>2025-10-05T10:56:04Z</time>
      </trkpt>
      <trkpt lat="43.33384" lon="5.78688">
        <ele>1147.7</ele>
        <time>2025-10-05T10:56:05Z</time>
      </trkpt>
      <trkpt lat="43.33384" lon="5.78688">
        <ele>1147.6</ele>
        <time>2025-10-05T10:56:06Z</time>
      </trkpt>
      <trkpt lat="43.33384" lon="5.78688">
        <ele>1147.6</ele>
        <time>2025-10-05T10:56:07Z</time>
      </trkpt>
      <trkpt lat="43.33384" lon="5.78688">
        <ele>1147.6</ele>
        <time>2025-10-05T10:56:08Z</time>
      </trkpt>
      <trkpt lat="43.33384" lon="5.78688">
        <ele>1147.6</ele>
        <time>2025-10-05T10:56:09Z</time>
      </trkpt>
      <trkpt lat="43.33385" lon="5.78688">
        <ele>1147.6</ele>
        <time>2025-10-05T10:56:10Z</time>
      </trkpt>
      <trkpt lat="43.33385" lon="5.78688">
        <ele>1147.7</ele>
        <time>2025-10-05T10:56:11Z</time>
      </trkpt>
      <trkpt lat="43.33385" lon="5.78688">
        <ele>1147.7</ele>
        <time>2025-10-05T10:56:12Z</time>
      </trkpt>
      <trkpt lat="43.33385" lon="5.78688">
        <ele>1147.8</ele>
        <time>2025-10-05T10:56:13Z</time>
      </trkpt>
      <trkpt lat="43.33385" lon="5.78688">
        <ele>1147.8</ele>
        <time>2025-10-05T10:56:14Z</time>
      </trkpt>
      <trkpt lat="43.33385" lon="5.78689">
        <ele>1147.9</ele>
        <time>2025-10-05T10:56:15Z</time>
      </trkpt>
      <trkpt lat="43.33385" lon="5.78689">
        <ele>1147.9</ele>
        <time>2025-10-05T10:56:16Z</time>
      </trkpt>
      <trkpt lat="43.33385" lon="5.78689">
        <ele>1147.9</ele>
        <time>2025-10-05T10:56:17Z</time>
      </trkpt>
      <trkpt lat="43.33386" lon="5.78688">
        <ele>1148</ele>
        <time>2025-10-05T10:56:18Z</time>
      </trkpt>
      <trkpt lat="43.33386" lon="5.78688">
        <ele>1148</ele>
        <time>2025-10-05T10:56:19Z</time>
      </trkpt>
      <trkpt lat="43.33386" lon="5.78688">
        <ele>1147.9</ele>
        <time>2025-10-05T10:56:20Z</time>
      </trkpt>
      <trkpt lat="43.33386" lon="5.78689">
        <ele>1147.9</ele>
        <time>2025-10-05T10:56:21Z</time>
      </trkpt>
      <trkpt lat="43.33386" lon="5.78689">
        <ele>1147.8</ele>
        <time>2025-10-05T10:56:22Z</time>
      </trkpt>
      <trkpt lat="43.33386" lon="5.78689">
        <ele>1147.8</ele>
        <time>2025-10-05T10:56:23Z</time>
      </trkpt>
      <trkpt lat="43.33386" lon="5.78689">
        <ele>1147.8</ele>
        <time>2025-10-05T10:56:24Z</time>
      </trkpt>
      <trkpt lat="43.33386" lon="5.78689">
        <ele>1147.8</ele>
        <time>2025-10-05T10:56:25Z</time>
      </trkpt>
      <trkpt lat="43.33386" lon="5.78689">
        <ele>1147.8</ele>
        <time>2025-10-05T10:56:26Z</time>
      </trkpt>
      <trkpt lat="43.33386" lon="5.78689">
        <ele>1147.7</ele>
        <time>2025-10-05T10:56:27Z</time>
      </trkpt>
      <trkpt lat="43.33386" lon="5.78689">
        <ele>1147.7</ele>
        <time>2025-10-05T10:56:28Z</time>
      </trkpt>
      <trkpt lat="43.33386" lon="5.78689">
        <ele>1147.6</ele>
        <time>2025-10-05T10:56:29Z</time>
      </trkpt>
      <trkpt lat="43.33386" lon="5.78689">
        <ele>1147.7</ele>
        <time>2025-10-05T10:56:30Z</time>
      </trkpt>
      <trkpt lat="43.33387" lon="5.78689">
        <ele>1147.8</ele>
        <time>2025-10-05T10:56:31Z</time>
      </trkpt>
      <trkpt lat="43.33387" lon="5.78689">
        <ele>1147.9</ele>
        <time>2025-10-05T10:56:32Z</time>
      </trkpt>
      <trkpt lat="43.33387" lon="5.78689">
        <ele>1147.9</ele>
        <time>2025-10-05T10:56:33Z</time>
      </trkpt>
      <trkpt lat="43.33387" lon="5.78689">
        <ele>1147.8</ele>
        <time>2025-10-05T10:56:34Z</time>
      </trkpt>
      <trkpt lat="43.33387" lon="5.78689">
        <ele>1147.8</ele>
        <time>2025-10-05T10:56:35Z</time>
      </trkpt>
      <trkpt lat="43.33387" lon="5.78689">
        <ele>1147.6</ele>
        <time>2025-10-05T10:56:36Z</time>
      </trkpt>
      <trkpt lat="43.33387" lon="5.7869">
        <ele>1147.6</ele>
        <time>2025-10-05T10:56:37Z</time>
      </trkpt>
      <trkpt lat="43.33387" lon="5.7869">
        <ele>1147.7</ele>
        <time>2025-10-05T10:56:38Z</time>
      </trkpt>
      <trkpt lat="43.33386" lon="5.7869">
        <ele>1147.7</ele>
        <time>2025-10-05T10:56:39Z</time>
      </trkpt>
      <trkpt lat="43.33387" lon="5.7869">
        <ele>1147.7</ele>
        <time>2025-10-05T10:56:40Z</time>
      </trkpt>
      <trkpt lat="43.33386" lon="5.7869">
        <ele>1147.7</ele>
        <time>2025-10-05T10:56:41Z</time>
      </trkpt>
      <trkpt lat="43.33386" lon="5.7869">
        <ele>1147.7</ele>
        <time>2025-10-05T10:56:42Z</time>
      </trkpt>
      <trkpt lat="43.33386" lon="5.7869">
        <ele>1147.6</ele>
        <time>2025-10-05T10:56:43Z</time>
      </trkpt>
      <trkpt lat="43.33386" lon="5.7869">
        <ele>1147.6</ele>
        <time>2025-10-05T10:56:44Z</time>
      </trkpt>
      <trkpt lat="43.33386" lon="5.7869">
        <ele>1147.5</ele>
        <time>2025-10-05T10:56:45Z</time>
      </trkpt>
      <trkpt lat="43.33386" lon="5.7869">
        <ele>1147.5</ele>
        <time>2025-10-05T10:56:46Z</time>
      </trkpt>
      <trkpt lat="43.33386" lon="5.7869">
        <ele>1147.4</ele>
        <time>2025-10-05T10:56:47Z</time>
      </trkpt>
      <trkpt lat="43.33386" lon="5.7869">
        <ele>1147.4</ele>
        <time>2025-10-05T10:56:48Z</time>
      </trkpt>
      <trkpt lat="43.33386" lon="5.7869">
        <ele>1147.4</ele>
        <time>2025-10-05T10:56:49Z</time>
      </trkpt>
      <trkpt lat="43.33386" lon="5.7869">
        <ele>1147.4</ele>
        <time>2025-10-05T10:56:50Z</time>
      </trkpt>
      <trkpt lat="43.33386" lon="5.7869">
        <ele>1147.3</ele>
        <time>2025-10-05T10:56:51Z</time>
      </trkpt>
      <trkpt lat="43.33386" lon="5.7869">
        <ele>1147.2</ele>
        <time>2025-10-05T10:56:52Z</time>
      </trkpt>
      <trkpt lat="43.33386" lon="5.7869">
        <ele>1147.3</ele>
        <time>2025-10-05T10:56:53Z</time>
      </trkpt>
      <trkpt lat="43.33386" lon="5.7869">
        <ele>1147.3</ele>
        <time>2025-10-05T10:56:54Z</time>
      </trkpt>
      <trkpt lat="43.33386" lon="5.7869">
        <ele>1147.3</ele>
        <time>2025-10-05T10:56:55Z</time>
      </trkpt>
      <trkpt lat="43.33386" lon="5.7869">
        <ele>1147.3</ele>
        <time>2025-10-05T10:56:56Z</time>
      </trkpt>
      <trkpt lat="43.33386" lon="5.7869">
        <ele>1147.2</ele>
        <time>2025-10-05T10:56:57Z</time>
      </trkpt>
      <trkpt lat="43.33386" lon="5.7869">
        <ele>1147</ele>
        <time>2025-10-05T10:56:58Z</time>
      </trkpt>
      <trkpt lat="43.33386" lon="5.7869">
        <ele>1147</ele>
        <time>2025-10-05T10:56:59Z</time>
      </trkpt>
      <trkpt lat="43.33386" lon="5.7869">
        <ele>1146.9</ele>
        <time>2025-10-05T10:57:00Z</time>
      </trkpt>
      <trkpt lat="43.33386" lon="5.7869">
        <ele>1146.9</ele>
        <time>2025-10-05T10:57:01Z</time>
      </trkpt>
      <trkpt lat="43.33386" lon="5.7869">
        <ele>1146.7</ele>
        <time>2025-10-05T10:57:02Z</time>
      </trkpt>
      <trkpt lat="43.33387" lon="5.7869">
        <ele>1146.7</ele>
        <time>2025-10-05T10:57:03Z</time>
      </trkpt>
      <trkpt lat="43.33386" lon="5.7869">
        <ele>1146.6</ele>
        <time>2025-10-05T10:57:04Z</time>
      </trkpt>
      <trkpt lat="43.33387" lon="5.78691">
        <ele>1146.6</ele>
        <time>2025-10-05T10:57:05Z</time>
      </trkpt>
      <trkpt lat="43.33387" lon="5.78691">
        <ele>1146.6</ele>
        <time>2025-10-05T10:57:06Z</time>
      </trkpt>
      <trkpt lat="43.33386" lon="5.78691">
        <ele>1146.7</ele>
        <time>2025-10-05T10:57:07Z</time>
      </trkpt>
      <trkpt lat="43.33386" lon="5.78691">
        <ele>1146.8</ele>
        <time>2025-10-05T10:57:08Z</time>
      </trkpt>
      <trkpt lat="43.33386" lon="5.78691">
        <ele>1146.9</ele>
        <time>2025-10-05T10:57:09Z</time>
      </trkpt>
      <trkpt lat="43.33386" lon="5.78691">
        <ele>1146.9</ele>
        <time>2025-10-05T10:57:10Z</time>
      </trkpt>
      <trkpt lat="43.33386" lon="5.78691">
        <ele>1146.8</ele>
        <time>2025-10-05T10:57:11Z</time>
      </trkpt>
      <trkpt lat="43.33386" lon="5.78691">
        <ele>1146.8</ele>
        <time>2025-10-05T10:57:12Z</time>
      </trkpt>
      <trkpt lat="43.33386" lon="5.78691">
        <ele>1146.8</ele>
        <time>2025-10-05T10:57:13Z</time>
      </trkpt>
      <trkpt lat="43.33386" lon="5.78691">
        <ele>1146.8</ele>
        <time>2025-10-05T10:57:14Z</time>
      </trkpt>
      <trkpt lat="43.33386" lon="5.78691">
        <ele>1146.8</ele>
        <time>2025-10-05T10:57:15Z</time>
      </trkpt>
      <trkpt lat="43.33386" lon="5.78691">
        <ele>1146.7</ele>
        <time>2025-10-05T10:57:16Z</time>
      </trkpt>
      <trkpt lat="43.33386" lon="5.78691">
        <ele>1146.6</ele>
        <time>2025-10-05T10:57:17Z</time>
      </trkpt>
      <trkpt lat="43.33386" lon="5.78691">
        <ele>1146.6</ele>
        <time>2025-10-05T10:57:18Z</time>
      </trkpt>
      <trkpt lat="43.33386" lon="5.78691">
        <ele>1146.5</ele>
        <time>2025-10-05T10:57:19Z</time>
      </trkpt>
      <trkpt lat="43.33386" lon="5.78691">
        <ele>1146.4</ele>
        <time>2025-10-05T10:57:20Z</time>
      </trkpt>
      <trkpt lat="43.33386" lon="5.78691">
        <ele>1146.5</ele>
        <time>2025-10-05T10:57:21Z</time>
      </trkpt>
      <trkpt lat="43.33386" lon="5.78691">
        <ele>1146.5</ele>
        <time>2025-10-05T10:57:22Z</time>
      </trkpt>
      <trkpt lat="43.33386" lon="5.78691">
        <ele>1146.6</ele>
        <time>2025-10-05T10:57:23Z</time>
      </trkpt>
      <trkpt lat="43.33386" lon="5.78691">
        <ele>1146.6</ele>
        <time>2025-10-05T10:57:24Z</time>
      </trkpt>
      <trkpt lat="43.33386" lon="5.78691">
        <ele>1146.8</ele>
        <time>2025-10-05T10:57:25Z</time>
      </trkpt>
      <trkpt lat="43.33386" lon="5.78691">
        <ele>1147</ele>
        <time>2025-10-05T10:57:26Z</time>
      </trkpt>
      <trkpt lat="43.33386" lon="5.78691">
        <ele>1147.2</ele>
        <time>2025-10-05T10:57:27Z</time>
      </trkpt>
      <trkpt lat="43.33385" lon="5.78691">
        <ele>1147.3</ele>
        <time>2025-10-05T10:57:28Z</time>
      </trkpt>
      <trkpt lat="43.33385" lon="5.78691">
        <ele>1147.2</ele>
        <time>2025-10-05T10:57:29Z</time>
      </trkpt>
      <trkpt lat="43.33385" lon="5.78691">
        <ele>1147.3</ele>
        <time>2025-10-05T10:57:30Z</time>
      </trkpt>
      <trkpt lat="43.33385" lon="5.78691">
        <ele>1147.3</ele>
        <time>2025-10-05T10:57:31Z</time>
      </trkpt>
      <trkpt lat="43.33385" lon="5.78691">
        <ele>1147.3</ele>
        <time>2025-10-05T10:57:32Z</time>
      </trkpt>
      <trkpt lat="43.33385" lon="5.78691">
        <ele>1147.4</ele>
        <time>2025-10-05T10:57:33Z</time>
      </trkpt>
      <trkpt lat="43.33385" lon="5.78691">
        <ele>1147.4</ele>
        <time>2025-10-05T10:57:34Z</time>
      </trkpt>
      <trkpt lat="43.33385" lon="5.78691">
        <ele>1147.4</ele>
        <time>2025-10-05T10:57:35Z</time>
      </trkpt>
      <trkpt lat="43.33385" lon="5.78691">
        <ele>1147.4</ele>
        <time>2025-10-05T10:57:36Z</time>
      </trkpt>
      <trkpt lat="43.33385" lon="5.78691">
        <ele>1147.4</ele>
        <time>2025-10-05T10:57:37Z</time>
      </trkpt>
      <trkpt lat="43.33385" lon="5.78691">
        <ele>1147.5</ele>
        <time>2025-10-05T10:57:38Z</time>
      </trkpt>
      <trkpt lat="43.33385" lon="5.78691">
        <ele>1147.5</ele>
        <time>2025-10-05T10:57:39Z</time>
      </trkpt>
      <trkpt lat="43.33385" lon="5.78691">
        <ele>1147.6</ele>
        <time>2025-10-05T10:57:40Z</time>
      </trkpt>
      <trkpt lat="43.33385" lon="5.78691">
        <ele>1147.6</ele>
        <time>2025-10-05T10:57:41Z</time>
      </trkpt>
      <trkpt lat="43.33385" lon="5.78691">
        <ele>1147.7</ele>
        <time>2025-10-05T10:57:42Z</time>
      </trkpt>
      <trkpt lat="43.33385" lon="5.78691">
        <ele>1147.7</ele>
        <time>2025-10-05T10:57:43Z</time>
      </trkpt>
      <trkpt lat="43.33385" lon="5.78691">
        <ele>1147.8</ele>
        <time>2025-10-05T10:57:44Z</time>
      </trkpt>
      <trkpt lat="43.33385" lon="5.78691">
        <ele>1147.8</ele>
        <time>2025-10-05T10:57:45Z</time>
      </trkpt>
      <trkpt lat="43.33385" lon="5.78691">
        <ele>1147.9</ele>
        <time>2025-10-05T10:57:46Z</time>
      </trkpt>
      <trkpt lat="43.33385" lon="5.78691">
        <ele>1148</ele>
        <time>2025-10-05T10:57:47Z</time>
      </trkpt>
      <trkpt lat="43.33385" lon="5.78691">
        <ele>1148.2</ele>
        <time>2025-10-05T10:57:48Z</time>
      </trkpt>
      <trkpt lat="43.33384" lon="5.78691">
        <ele>1148.4</ele>
        <time>2025-10-05T10:57:49Z</time>
      </trkpt>
      <trkpt lat="43.33385" lon="5.78691">
        <ele>1148.5</ele>
        <time>2025-10-05T10:57:50Z</time>
      </trkpt>
      <trkpt lat="43.33385" lon="5.78691">
        <ele>1148.6</ele>
        <time>2025-10-05T10:57:51Z</time>
      </trkpt>
      <trkpt lat="43.33385" lon="5.78691">
        <ele>1148.8</ele>
        <time>2025-10-05T10:57:52Z</time>
      </trkpt>
      <trkpt lat="43.33385" lon="5.78691">
        <ele>1148.9</ele>
        <time>2025-10-05T10:57:53Z</time>
      </trkpt>
      <trkpt lat="43.33385" lon="5.78691">
        <ele>1148.9</ele>
        <time>2025-10-05T10:57:54Z</time>
      </trkpt>
      <trkpt lat="43.33385" lon="5.78691">
        <ele>1149</ele>
        <time>2025-10-05T10:57:55Z</time>
      </trkpt>
      <trkpt lat="43.33385" lon="5.78691">
        <ele>1149.1</ele>
        <time>2025-10-05T10:57:56Z</time>
      </trkpt>
      <trkpt lat="43.33385" lon="5.78691">
        <ele>1149.2</ele>
        <time>2025-10-05T10:57:57Z</time>
      </trkpt>
      <trkpt lat="43.33385" lon="5.78691">
        <ele>1149.2</ele>
        <time>2025-10-05T10:57:58Z</time>
      </trkpt>
      <trkpt lat="43.33385" lon="5.78691">
        <ele>1149.3</ele>
        <time>2025-10-05T10:57:59Z</time>
      </trkpt>
      <trkpt lat="43.33385" lon="5.78691">
        <ele>1149.4</ele>
        <time>2025-10-05T10:58:00Z</time>
      </trkpt>
      <trkpt lat="43.33385" lon="5.78691">
        <ele>1149.6</ele>
        <time>2025-10-05T10:58:01Z</time>
      </trkpt>
      <trkpt lat="43.33385" lon="5.78691">
        <ele>1149.7</ele>
        <time>2025-10-05T10:58:02Z</time>
      </trkpt>
      <trkpt lat="43.33385" lon="5.78691">
        <ele>1149.8</ele>
        <time>2025-10-05T10:58:03Z</time>
      </trkpt>
      <trkpt lat="43.33384" lon="5.78691">
        <ele>1149.9</ele>
        <time>2025-10-05T10:58:04Z</time>
      </trkpt>
      <trkpt lat="43.33384" lon="5.78691">
        <ele>1149.9</ele>
        <time>2025-10-05T10:58:05Z</time>
      </trkpt>
      <trkpt lat="43.33384" lon="5.7869">
        <ele>1149.8</ele>
        <time>2025-10-05T10:58:06Z</time>
      </trkpt>
      <trkpt lat="43.33384" lon="5.7869">
        <ele>1149.7</ele>
        <time>2025-10-05T10:58:07Z</time>
      </trkpt>
      <trkpt lat="43.33384" lon="5.7869">
        <ele>1149.7</ele>
        <time>2025-10-05T10:58:08Z</time>
      </trkpt>
      <trkpt lat="43.33384" lon="5.7869">
        <ele>1149.6</ele>
        <time>2025-10-05T10:58:09Z</time>
      </trkpt>
      <trkpt lat="43.33384" lon="5.7869">
        <ele>1149.5</ele>
        <time>2025-10-05T10:58:10Z</time>
      </trkpt>
      <trkpt lat="43.33384" lon="5.7869">
        <ele>1149.3</ele>
        <time>2025-10-05T10:58:11Z</time>
      </trkpt>
      <trkpt lat="43.33384" lon="5.7869">
        <ele>1149.2</ele>
        <time>2025-10-05T10:58:12Z</time>
      </trkpt>
      <trkpt lat="43.33384" lon="5.7869">
        <ele>1149</ele>
        <time>2025-10-05T10:58:13Z</time>
      </trkpt>
      <trkpt lat="43.33384" lon="5.7869">
        <ele>1148.9</ele>
        <time>2025-10-05T10:58:14Z</time>
      </trkpt>
      <trkpt lat="43.33384" lon="5.7869">
        <ele>1148.8</ele>
        <time>2025-10-05T10:58:15Z</time>
      </trkpt>
      <trkpt lat="43.33384" lon="5.7869">
        <ele>1148.6</ele>
        <time>2025-10-05T10:58:16Z</time>
      </trkpt>
      <trkpt lat="43.33384" lon="5.7869">
        <ele>1148.5</ele>
        <time>2025-10-05T10:58:17Z</time>
      </trkpt>
      <trkpt lat="43.33383" lon="5.7869">
        <ele>1148.4</ele>
        <time>2025-10-05T10:58:18Z</time>
      </trkpt>
      <trkpt lat="43.33383" lon="5.7869">
        <ele>1148.3</ele>
        <time>2025-10-05T10:58:19Z</time>
      </trkpt>
      <trkpt lat="43.33383" lon="5.78689">
        <ele>1148.2</ele>
        <time>2025-10-05T10:58:20Z</time>
      </trkpt>
      <trkpt lat="43.33383" lon="5.78689">
        <ele>1148.2</ele>
        <time>2025-10-05T10:58:21Z</time>
      </trkpt>
      <trkpt lat="43.33383" lon="5.78689">
        <ele>1148.2</ele>
        <time>2025-10-05T10:58:22Z</time>
      </trkpt>
      <trkpt lat="43.33383" lon="5.78689">
        <ele>1148.2</ele>
        <time>2025-10-05T10:58:23Z</time>
      </trkpt>
      <trkpt lat="43.33383" lon="5.78689">
        <ele>1148.2</ele>
        <time>2025-10-05T10:58:24Z</time>
      </trkpt>
      <trkpt lat="43.33383" lon="5.78689">
        <ele>1148.2</ele>
        <time>2025-10-05T10:58:25Z</time>
      </trkpt>
      <trkpt lat="43.33383" lon="5.78689">
        <ele>1148.2</ele>
        <time>2025-10-05T10:58:26Z</time>
      </trkpt>
      <trkpt lat="43.33383" lon="5.78689">
        <ele>1148.1</ele>
        <time>2025-10-05T10:58:27Z</time>
      </trkpt>
      <trkpt lat="43.33384" lon="5.78689">
        <ele>1148.1</ele>
        <time>2025-10-05T10:58:28Z</time>
      </trkpt>
      <trkpt lat="43.33384" lon="5.78689">
        <ele>1148</ele>
        <time>2025-10-05T10:58:29Z</time>
      </trkpt>
      <trkpt lat="43.33384" lon="5.78689">
        <ele>1147.9</ele>
        <time>2025-10-05T10:58:30Z</time>
      </trkpt>
      <trkpt lat="43.33384" lon="5.78688">
        <ele>1147.9</ele>
        <time>2025-10-05T10:58:31Z</time>
      </trkpt>
      <trkpt lat="43.33384" lon="5.78689">
        <ele>1147.9</ele>
        <time>2025-10-05T10:58:32Z</time>
      </trkpt>
      <trkpt lat="43.33384" lon="5.78688">
        <ele>1148.1</ele>
        <time>2025-10-05T10:58:33Z</time>
      </trkpt>
      <trkpt lat="43.33384" lon="5.78688">
        <ele>1148.2</ele>
        <time>2025-10-05T10:58:34Z</time>
      </trkpt>
      <trkpt lat="43.33384" lon="5.78688">
        <ele>1148.4</ele>
        <time>2025-10-05T10:58:35Z</time>
      </trkpt>
      <trkpt lat="43.33384" lon="5.78688">
        <ele>1148.5</ele>
        <time>2025-10-05T10:58:36Z</time>
      </trkpt>
      <trkpt lat="43.33384" lon="5.78688">
        <ele>1148.6</ele>
        <time>2025-10-05T10:58:37Z</time>
      </trkpt>
      <trkpt lat="43.33384" lon="5.78688">
        <ele>1148.6</ele>
        <time>2025-10-05T10:58:38Z</time>
      </trkpt>
      <trkpt lat="43.33384" lon="5.78688">
        <ele>1148.6</ele>
        <time>2025-10-05T10:58:39Z</time>
      </trkpt>
      <trkpt lat="43.33384" lon="5.78688">
        <ele>1148.6</ele>
        <time>2025-10-05T10:58:40Z</time>
      </trkpt>
      <trkpt lat="43.33384" lon="5.78688">
        <ele>1148.6</ele>
        <time>2025-10-05T10:58:41Z</time>
      </trkpt>
      <trkpt lat="43.33384" lon="5.78688">
        <ele>1148.6</ele>
        <time>2025-10-05T10:58:42Z</time>
      </trkpt>
      <trkpt lat="43.33384" lon="5.78688">
        <ele>1148.5</ele>
        <time>2025-10-05T10:58:43Z</time>
      </trkpt>
      <trkpt lat="43.33384" lon="5.78688">
        <ele>1148.4</ele>
        <time>2025-10-05T10:58:44Z</time>
      </trkpt>
      <trkpt lat="43.33384" lon="5.78688">
        <ele>1148.3</ele>
        <time>2025-10-05T10:58:45Z</time>
      </trkpt>
      <trkpt lat="43.33384" lon="5.78688">
        <ele>1148.3</ele>
        <time>2025-10-05T10:58:46Z</time>
      </trkpt>
      <trkpt lat="43.33384" lon="5.78688">
        <ele>1148.2</ele>
        <time>2025-10-05T10:58:47Z</time>
      </trkpt>
      <trkpt lat="43.33384" lon="5.78688">
        <ele>1148.1</ele>
        <time>2025-10-05T10:58:48Z</time>
      </trkpt>
      <trkpt lat="43.33384" lon="5.78688">
        <ele>1148</ele>
        <time>2025-10-05T10:58:49Z</time>
      </trkpt>
      <trkpt lat="43.33384" lon="5.78688">
        <ele>1148</ele>
        <time>2025-10-05T10:58:50Z</time>
      </trkpt>
      <trkpt lat="43.33384" lon="5.78688">
        <ele>1148</ele>
        <time>2025-10-05T10:58:51Z</time>
      </trkpt>
      <trkpt lat="43.33384" lon="5.78687">
        <ele>1148</ele>
        <time>2025-10-05T10:58:52Z</time>
      </trkpt>
      <trkpt lat="43.33384" lon="5.78687">
        <ele>1148</ele>
        <time>2025-10-05T10:58:53Z</time>
      </trkpt>
      <trkpt lat="43.33384" lon="5.78687">
        <ele>1148</ele>
        <time>2025-10-05T10:58:54Z</time>
      </trkpt>
      <trkpt lat="43.33384" lon="5.78687">
        <ele>1148</ele>
        <time>2025-10-05T10:58:55Z</time>
      </trkpt>
      <trkpt lat="43.33384" lon="5.78687">
        <ele>1147.9</ele>
        <time>2025-10-05T10:58:56Z</time>
      </trkpt>
      <trkpt lat="43.33384" lon="5.78687">
        <ele>1147.8</ele>
        <time>2025-10-05T10:58:57Z</time>
      </trkpt>
      <trkpt lat="43.33384" lon="5.78687">
        <ele>1147.7</ele>
        <time>2025-10-05T10:58:58Z</time>
      </trkpt>
      <trkpt lat="43.33384" lon="5.78687">
        <ele>1147.7</ele>
        <time>2025-10-05T10:58:59Z</time>
      </trkpt>
      <trkpt lat="43.33384" lon="5.78687">
        <ele>1147.7</ele>
        <time>2025-10-05T10:59:00Z</time>
      </trkpt>
      <trkpt lat="43.33384" lon="5.78687">
        <ele>1147.8</ele>
        <time>2025-10-05T10:59:01Z</time>
      </trkpt>
      <trkpt lat="43.33384" lon="5.78687">
        <ele>1147.9</ele>
        <time>2025-10-05T10:59:02Z</time>
      </trkpt>
      <trkpt lat="43.33384" lon="5.78687">
        <ele>1147.9</ele>
        <time>2025-10-05T10:59:03Z</time>
      </trkpt>
      <trkpt lat="43.33385" lon="5.78686">
        <ele>1147.9</ele>
        <time>2025-10-05T10:59:04Z</time>
      </trkpt>
      <trkpt lat="43.33385" lon="5.78686">
        <ele>1147.8</ele>
        <time>2025-10-05T10:59:05Z</time>
      </trkpt>
      <trkpt lat="43.33385" lon="5.78686">
        <ele>1147.8</ele>
        <time>2025-10-05T10:59:06Z</time>
      </trkpt>
      <trkpt lat="43.33385" lon="5.78686">
        <ele>1148</ele>
        <time>2025-10-05T10:59:07Z</time>
      </trkpt>
      <trkpt lat="43.33385" lon="5.78686">
        <ele>1148</ele>
        <time>2025-10-05T10:59:08Z</time>
      </trkpt>
      <trkpt lat="43.33385" lon="5.78686">
        <ele>1148.1</ele>
        <time>2025-10-05T10:59:09Z</time>
      </trkpt>
      <trkpt lat="43.33384" lon="5.78686">
        <ele>1148</ele>
        <time>2025-10-05T10:59:10Z</time>
      </trkpt>
      <trkpt lat="43.33384" lon="5.78686">
        <ele>1148</ele>
        <time>2025-10-05T10:59:11Z</time>
      </trkpt>
      <trkpt lat="43.33384" lon="5.78686">
        <ele>1148.1</ele>
        <time>2025-10-05T10:59:12Z</time>
      </trkpt>
      <trkpt lat="43.33384" lon="5.78686">
        <ele>1148.1</ele>
        <time>2025-10-05T10:59:13Z</time>
      </trkpt>
      <trkpt lat="43.33384" lon="5.78686">
        <ele>1148.1</ele>
        <time>2025-10-05T10:59:14Z</time>
      </trkpt>
      <trkpt lat="43.33384" lon="5.78686">
        <ele>1148.1</ele>
        <time>2025-10-05T10:59:15Z</time>
      </trkpt>
      <trkpt lat="43.33384" lon="5.78686">
        <ele>1147.9</ele>
        <time>2025-10-05T10:59:16Z</time>
      </trkpt>
      <trkpt lat="43.33384" lon="5.78686">
        <ele>1147.8</ele>
        <time>2025-10-05T10:59:17Z</time>
      </trkpt>
      <trkpt lat="43.33384" lon="5.78686">
        <ele>1147.7</ele>
        <time>2025-10-05T10:59:18Z</time>
      </trkpt>
      <trkpt lat="43.33384" lon="5.78686">
        <ele>1147.7</ele>
        <time>2025-10-05T10:59:19Z</time>
      </trkpt>
      <trkpt lat="43.33384" lon="5.78686">
        <ele>1147.6</ele>
        <time>2025-10-05T10:59:20Z</time>
      </trkpt>
      <trkpt lat="43.33384" lon="5.78686">
        <ele>1147.7</ele>
        <time>2025-10-05T10:59:21Z</time>
      </trkpt>
      <trkpt lat="43.33384" lon="5.78686">
        <ele>1147.7</ele>
        <time>2025-10-05T10:59:22Z</time>
      </trkpt>
      <trkpt lat="43.33384" lon="5.78686">
        <ele>1147.7</ele>
        <time>2025-10-05T10:59:23Z</time>
      </trkpt>
      <trkpt lat="43.33384" lon="5.78686">
        <ele>1147.6</ele>
        <time>2025-10-05T10:59:24Z</time>
      </trkpt>
      <trkpt lat="43.33384" lon="5.78686">
        <ele>1147.6</ele>
        <time>2025-10-05T10:59:25Z</time>
      </trkpt>
      <trkpt lat="43.33384" lon="5.78687">
        <ele>1147.7</ele>
        <time>2025-10-05T10:59:26Z</time>
      </trkpt>
      <trkpt lat="43.33384" lon="5.78687">
        <ele>1147.6</ele>
        <time>2025-10-05T10:59:27Z</time>
      </trkpt>
      <trkpt lat="43.33384" lon="5.78687">
        <ele>1147.6</ele>
        <time>2025-10-05T10:59:28Z</time>
      </trkpt>
      <trkpt lat="43.33384" lon="5.78687">
        <ele>1147.5</ele>
        <time>2025-10-05T10:59:29Z</time>
      </trkpt>
      <trkpt lat="43.33384" lon="5.78687">
        <ele>1147.5</ele>
        <time>2025-10-05T10:59:30Z</time>
      </trkpt>
      <trkpt lat="43.33384" lon="5.78687">
        <ele>1147.5</ele>
        <time>2025-10-05T10:59:31Z</time>
      </trkpt>
      <trkpt lat="43.33384" lon="5.78686">
        <ele>1147.5</ele>
        <time>2025-10-05T10:59:32Z</time>
      </trkpt>
      <trkpt lat="43.33384" lon="5.78686">
        <ele>1147.6</ele>
        <time>2025-10-05T10:59:33Z</time>
      </trkpt>
      <trkpt lat="43.33384" lon="5.78686">
        <ele>1147.5</ele>
        <time>2025-10-05T10:59:34Z</time>
      </trkpt>
      <trkpt lat="43.33384" lon="5.78686">
        <ele>1147.4</ele>
        <time>2025-10-05T10:59:35Z</time>
      </trkpt>
      <trkpt lat="43.33384" lon="5.78686">
        <ele>1147.6</ele>
        <time>2025-10-05T10:59:36Z</time>
      </trkpt>
      <trkpt lat="43.33384" lon="5.78686">
        <ele>1147.6</ele>
        <time>2025-10-05T10:59:37Z</time>
      </trkpt>
      <trkpt lat="43.33384" lon="5.78686">
        <ele>1147.6</ele>
        <time>2025-10-05T10:59:38Z</time>
      </trkpt>
      <trkpt lat="43.33384" lon="5.78686">
        <ele>1147.8</ele>
        <time>2025-10-05T10:59:39Z</time>
      </trkpt>
      <trkpt lat="43.33384" lon="5.78686">
        <ele>1147.8</ele>
        <time>2025-10-05T10:59:40Z</time>
      </trkpt>
      <trkpt lat="43.33384" lon="5.78686">
        <ele>1147.8</ele>
        <time>2025-10-05T10:59:41Z</time>
      </trkpt>
      <trkpt lat="43.33384" lon="5.78686">
        <ele>1147.8</ele>
        <time>2025-10-05T10:59:42Z</time>
      </trkpt>
      <trkpt lat="43.33384" lon="5.78686">
        <ele>1147.8</ele>
        <time>2025-10-05T10:59:43Z</time>
      </trkpt>
      <trkpt lat="43.33384" lon="5.78686">
        <ele>1147.6</ele>
        <time>2025-10-05T10:59:44Z</time>
      </trkpt>
      <trkpt lat="43.33384" lon="5.78686">
        <ele>1147.6</ele>
        <time>2025-10-05T10:59:45Z</time>
      </trkpt>
      <trkpt lat="43.33384" lon="5.78687">
        <ele>1147.6</ele>
        <time>2025-10-05T10:59:46Z</time>
      </trkpt>
      <trkpt lat="43.33384" lon="5.78687">
        <ele>1147.6</ele>
        <time>2025-10-05T10:59:47Z</time>
      </trkpt>
      <trkpt lat="43.33384" lon="5.78687">
        <ele>1147.5</ele>
        <time>2025-10-05T10:59:48Z</time>
      </trkpt>
      <trkpt lat="43.33384" lon="5.78687">
        <ele>1147.7</ele>
        <time>2025-10-05T10:59:49Z</time>
      </trkpt>
      <trkpt lat="43.33383" lon="5.78687">
        <ele>1147.6</ele>
        <time>2025-10-05T10:59:50Z</time>
      </trkpt>
      <trkpt lat="43.33384" lon="5.78686">
        <ele>1147.5</ele>
        <time>2025-10-05T10:59:51Z</time>
      </trkpt>
      <trkpt lat="43.33383" lon="5.78686">
        <ele>1147.5</ele>
        <time>2025-10-05T10:59:52Z</time>
      </trkpt>
      <trkpt lat="43.33383" lon="5.78686">
        <ele>1147.5</ele>
        <time>2025-10-05T10:59:53Z</time>
      </trkpt>
      <trkpt lat="43.33383" lon="5.78686">
        <ele>1147.5</ele>
        <time>2025-10-05T10:59:54Z</time>
      </trkpt>
      <trkpt lat="43.33383" lon="5.78686">
        <ele>1147.5</ele>
        <time>2025-10-05T10:59:55Z</time>
      </trkpt>
      <trkpt lat="43.33383" lon="5.78686">
        <ele>1147.4</ele>
        <time>2025-10-05T10:59:56Z</time>
      </trkpt>
      <trkpt lat="43.33383" lon="5.78686">
        <ele>1147.4</ele>
        <time>2025-10-05T10:59:57Z</time>
      </trkpt>
      <trkpt lat="43.33382" lon="5.78686">
        <ele>1147.4</ele>
        <time>2025-10-05T10:59:58Z</time>
      </trkpt>
      <trkpt lat="43.33382" lon="5.78686">
        <ele>1147.4</ele>
        <time>2025-10-05T10:59:59Z</time>
      </trkpt>
      <trkpt lat="43.33383" lon="5.78686">
        <ele>1147.4</ele>
        <time>2025-10-05T11:00:00Z</time>
      </trkpt>
      <trkpt lat="43.33383" lon="5.78686">
        <ele>1147.4</ele>
        <time>2025-10-05T11:00:01Z</time>
      </trkpt>
      <trkpt lat="43.33383" lon="5.78686">
        <ele>1147.4</ele>
        <time>2025-10-05T11:00:02Z</time>
      </trkpt>
      <trkpt lat="43.33383" lon="5.78686">
        <ele>1147.5</ele>
        <time>2025-10-05T11:00:03Z</time>
      </trkpt>
      <trkpt lat="43.33383" lon="5.78686">
        <ele>1147.5</ele>
        <time>2025-10-05T11:00:04Z</time>
      </trkpt>
      <trkpt lat="43.33383" lon="5.78686">
        <ele>1147.5</ele>
        <time>2025-10-05T11:00:05Z</time>
      </trkpt>
      <trkpt lat="43.33383" lon="5.78686">
        <ele>1147.4</ele>
        <time>2025-10-05T11:00:06Z</time>
      </trkpt>
      <trkpt lat="43.33383" lon="5.78686">
        <ele>1147.4</ele>
        <time>2025-10-05T11:00:07Z</time>
      </trkpt>
      <trkpt lat="43.33383" lon="5.78686">
        <ele>1147.4</ele>
        <time>2025-10-05T11:00:08Z</time>
      </trkpt>
      <trkpt lat="43.33383" lon="5.78686">
        <ele>1147.5</ele>
        <time>2025-10-05T11:00:09Z</time>
      </trkpt>
      <trkpt lat="43.33383" lon="5.78686">
        <ele>1147.5</ele>
        <time>2025-10-05T11:00:10Z</time>
      </trkpt>
      <trkpt lat="43.33383" lon="5.78686">
        <ele>1147.6</ele>
        <time>2025-10-05T11:00:11Z</time>
      </trkpt>
      <trkpt lat="43.33383" lon="5.78686">
        <ele>1147.6</ele>
        <time>2025-10-05T11:00:12Z</time>
      </trkpt>
      <trkpt lat="43.33383" lon="5.78686">
        <ele>1147.6</ele>
        <time>2025-10-05T11:00:13Z</time>
      </trkpt>
      <trkpt lat="43.33383" lon="5.78686">
        <ele>1147.7</ele>
        <time>2025-10-05T11:00:14Z</time>
      </trkpt>
      <trkpt lat="43.33383" lon="5.78686">
        <ele>1147.8</ele>
        <time>2025-10-05T11:00:15Z</time>
      </trkpt>
      <trkpt lat="43.33383" lon="5.78686">
        <ele>1147.8</ele>
        <time>2025-10-05T11:00:16Z</time>
      </trkpt>
      <trkpt lat="43.33383" lon="5.78686">
        <ele>1147.8</ele>
        <time>2025-10-05T11:00:17Z</time>
      </trkpt>
      <trkpt lat="43.33383" lon="5.78686">
        <ele>1147.9</ele>
        <time>2025-10-05T11:00:18Z</time>
      </trkpt>
      <trkpt lat="43.33383" lon="5.78685">
        <ele>1147.9</ele>
        <time>2025-10-05T11:00:19Z</time>
      </trkpt>
      <trkpt lat="43.33383" lon="5.78685">
        <ele>1147.9</ele>
        <time>2025-10-05T11:00:20Z</time>
      </trkpt>
      <trkpt lat="43.33383" lon="5.78685">
        <ele>1147.9</ele>
        <time>2025-10-05T11:00:21Z</time>
      </trkpt>
      <trkpt lat="43.33383" lon="5.78685">
        <ele>1147.9</ele>
        <time>2025-10-05T11:00:22Z</time>
      </trkpt>
      <trkpt lat="43.33383" lon="5.78685">
        <ele>1148</ele>
        <time>2025-10-05T11:00:23Z</time>
      </trkpt>
      <trkpt lat="43.33383" lon="5.78685">
        <ele>1148.1</ele>
        <time>2025-10-05T11:00:24Z</time>
      </trkpt>
      <trkpt lat="43.33383" lon="5.78685">
        <ele>1148.2</ele>
        <time>2025-10-05T11:00:25Z</time>
      </trkpt>
      <trkpt lat="43.33383" lon="5.78685">
        <ele>1148.1</ele>
        <time>2025-10-05T11:00:26Z</time>
      </trkpt>
      <trkpt lat="43.33383" lon="5.78685">
        <ele>1148.1</ele>
        <time>2025-10-05T11:00:27Z</time>
      </trkpt>
      <trkpt lat="43.33383" lon="5.78685">
        <ele>1148.2</ele>
        <time>2025-10-05T11:00:28Z</time>
      </trkpt>
      <trkpt lat="43.33383" lon="5.78685">
        <ele>1148.2</ele>
        <time>2025-10-05T11:00:29Z</time>
      </trkpt>
      <trkpt lat="43.33383" lon="5.78685">
        <ele>1148.1</ele>
        <time>2025-10-05T11:00:30Z</time>
      </trkpt>
      <trkpt lat="43.33383" lon="5.78685">
        <ele>1148.1</ele>
        <time>2025-10-05T11:00:31Z</time>
      </trkpt>
      <trkpt lat="43.33383" lon="5.78685">
        <ele>1148.1</ele>
        <time>2025-10-05T11:00:32Z</time>
      </trkpt>
      <trkpt lat="43.33383" lon="5.78685">
        <ele>1148</ele>
        <time>2025-10-05T11:00:33Z</time>
      </trkpt>
      <trkpt lat="43.33383" lon="5.78685">
        <ele>1147.8</ele>
        <time>2025-10-05T11:00:34Z</time>
      </trkpt>
      <trkpt lat="43.33383" lon="5.78685">
        <ele>1147.8</ele>
        <time>2025-10-05T11:00:35Z</time>
      </trkpt>
      <trkpt lat="43.33383" lon="5.78685">
        <ele>1147.7</ele>
        <time>2025-10-05T11:00:36Z</time>
      </trkpt>
      <trkpt lat="43.33383" lon="5.78685">
        <ele>1147.7</ele>
        <time>2025-10-05T11:00:37Z</time>
      </trkpt>
      <trkpt lat="43.33383" lon="5.78685">
        <ele>1147.8</ele>
        <time>2025-10-05T11:00:38Z</time>
      </trkpt>
      <trkpt lat="43.33383" lon="5.78685">
        <ele>1147.7</ele>
        <time>2025-10-05T11:00:39Z</time>
      </trkpt>
      <trkpt lat="43.33383" lon="5.78685">
        <ele>1147.9</ele>
        <time>2025-10-05T11:00:40Z</time>
      </trkpt>
      <trkpt lat="43.33383" lon="5.78685">
        <ele>1147.9</ele>
        <time>2025-10-05T11:00:41Z</time>
      </trkpt>
      <trkpt lat="43.33383" lon="5.78685">
        <ele>1147.9</ele>
        <time>2025-10-05T11:00:42Z</time>
      </trkpt>
      <trkpt lat="43.33383" lon="5.78685">
        <ele>1147.9</ele>
        <time>2025-10-05T11:00:43Z</time>
      </trkpt>
      <trkpt lat="43.33383" lon="5.78685">
        <ele>1147.8</ele>
        <time>2025-10-05T11:00:44Z</time>
      </trkpt>
      <trkpt lat="43.33383" lon="5.78685">
        <ele>1147.8</ele>
        <time>2025-10-05T11:00:45Z</time>
      </trkpt>
      <trkpt lat="43.33383" lon="5.78685">
        <ele>1147.9</ele>
        <time>2025-10-05T11:00:46Z</time>
      </trkpt>
      <trkpt lat="43.33383" lon="5.78685">
        <ele>1148.1</ele>
        <time>2025-10-05T11:00:47Z</time>
      </trkpt>
      <trkpt lat="43.33383" lon="5.78685">
        <ele>1148.2</ele>
        <time>2025-10-05T11:00:48Z</time>
      </trkpt>
      <trkpt lat="43.33383" lon="5.78685">
        <ele>1148.1</ele>
        <time>2025-10-05T11:00:49Z</time>
      </trkpt>
      <trkpt lat="43.33383" lon="5.78685">
        <ele>1148</ele>
        <time>2025-10-05T11:00:50Z</time>
      </trkpt>
      <trkpt lat="43.33383" lon="5.78685">
        <ele>1147.9</ele>
        <time>2025-10-05T11:00:51Z</time>
      </trkpt>
      <trkpt lat="43.33383" lon="5.78685">
        <ele>1147.6</ele>
        <time>2025-10-05T11:00:52Z</time>
      </trkpt>
      <trkpt lat="43.33383" lon="5.78685">
        <ele>1147.5</ele>
        <time>2025-10-05T11:00:53Z</time>
      </trkpt>
      <trkpt lat="43.33383" lon="5.78685">
        <ele>1147.5</ele>
        <time>2025-10-05T11:00:54Z</time>
      </trkpt>
      <trkpt lat="43.33383" lon="5.78685">
        <ele>1147.4</ele>
        <time>2025-10-05T11:00:55Z</time>
      </trkpt>
      <trkpt lat="43.33383" lon="5.78685">
        <ele>1147.4</ele>
        <time>2025-10-05T11:00:56Z</time>
      </trkpt>
      <trkpt lat="43.33383" lon="5.78685">
        <ele>1147.3</ele>
        <time>2025-10-05T11:00:57Z</time>
      </trkpt>
      <trkpt lat="43.33383" lon="5.78685">
        <ele>1147.3</ele>
        <time>2025-10-05T11:00:58Z</time>
      </trkpt>
      <trkpt lat="43.33383" lon="5.78685">
        <ele>1147.3</ele>
        <time>2025-10-05T11:00:59Z</time>
      </trkpt>
      <trkpt lat="43.33383" lon="5.78685">
        <ele>1147.3</ele>
        <time>2025-10-05T11:01:00Z</time>
      </trkpt>
      <trkpt lat="43.33383" lon="5.78684">
        <ele>1147.3</ele>
        <time>2025-10-05T11:01:01Z</time>
      </trkpt>
      <trkpt lat="43.33383" lon="5.78684">
        <ele>1147.3</ele>
        <time>2025-10-05T11:01:02Z</time>
      </trkpt>
      <trkpt lat="43.33383" lon="5.78684">
        <ele>1147.3</ele>
        <time>2025-10-05T11:01:03Z</time>
      </trkpt>
      <trkpt lat="43.33383" lon="5.78684">
        <ele>1147.3</ele>
        <time>2025-10-05T11:01:04Z</time>
      </trkpt>
      <trkpt lat="43.33383" lon="5.78684">
        <ele>1147.3</ele>
        <time>2025-10-05T11:01:05Z</time>
      </trkpt>
      <trkpt lat="43.33383" lon="5.78684">
        <ele>1147.4</ele>
        <time>2025-10-05T11:01:06Z</time>
      </trkpt>
      <trkpt lat="43.33383" lon="5.78684">
        <ele>1147.4</ele>
        <time>2025-10-05T11:01:07Z</time>
      </trkpt>
      <trkpt lat="43.33383" lon="5.78684">
        <ele>1147.4</ele>
        <time>2025-10-05T11:01:08Z</time>
      </trkpt>
      <trkpt lat="43.33383" lon="5.78684">
        <ele>1147.4</ele>
        <time>2025-10-05T11:01:09Z</time>
      </trkpt>
      <trkpt lat="43.33383" lon="5.78684">
        <ele>1147.3</ele>
        <time>2025-10-05T11:01:10Z</time>
      </trkpt>
      <trkpt lat="43.33383" lon="5.78684">
        <ele>1147.3</ele>
        <time>2025-10-05T11:01:11Z</time>
      </trkpt>
      <trkpt lat="43.33383" lon="5.78684">
        <ele>1147.3</ele>
        <time>2025-10-05T11:01:12Z</time>
      </trkpt>
      <trkpt lat="43.33383" lon="5.78685">
        <ele>1147.4</ele>
        <time>2025-10-05T11:01:13Z</time>
      </trkpt>
      <trkpt lat="43.33383" lon="5.78685">
        <ele>1147.3</ele>
        <time>2025-10-05T11:01:14Z</time>
      </trkpt>
      <trkpt lat="43.33383" lon="5.78685">
        <ele>1147.1</ele>
        <time>2025-10-05T11:01:15Z</time>
      </trkpt>
      <trkpt lat="43.33383" lon="5.78685">
        <ele>1147</ele>
        <time>2025-10-05T11:01:16Z</time>
      </trkpt>
      <trkpt lat="43.33383" lon="5.78685">
        <ele>1146.9</ele>
        <time>2025-10-05T11:01:17Z</time>
      </trkpt>
      <trkpt lat="43.33383" lon="5.78685">
        <ele>1147</ele>
        <time>2025-10-05T11:01:18Z</time>
      </trkpt>
      <trkpt lat="43.33383" lon="5.78685">
        <ele>1146.8</ele>
        <time>2025-10-05T11:01:19Z</time>
      </trkpt>
      <trkpt lat="43.33383" lon="5.78685">
        <ele>1146.8</ele>
        <time>2025-10-05T11:01:20Z</time>
      </trkpt>
      <trkpt lat="43.33383" lon="5.78685">
        <ele>1146.9</ele>
        <time>2025-10-05T11:01:21Z</time>
      </trkpt>
      <trkpt lat="43.33383" lon="5.78685">
        <ele>1147</ele>
        <time>2025-10-05T11:01:22Z</time>
      </trkpt>
      <trkpt lat="43.33382" lon="5.78685">
        <ele>1147.2</ele>
        <time>2025-10-05T11:01:23Z</time>
      </trkpt>
      <trkpt lat="43.33382" lon="5.78685">
        <ele>1147.4</ele>
        <time>2025-10-05T11:01:24Z</time>
      </trkpt>
      <trkpt lat="43.33382" lon="5.78686">
        <ele>1147.4</ele>
        <time>2025-10-05T11:01:25Z</time>
      </trkpt>
      <trkpt lat="43.33382" lon="5.78686">
        <ele>1147.2</ele>
        <time>2025-10-05T11:01:26Z</time>
      </trkpt>
      <trkpt lat="43.33382" lon="5.78686">
        <ele>1147</ele>
        <time>2025-10-05T11:01:27Z</time>
      </trkpt>
      <trkpt lat="43.33381" lon="5.78686">
        <ele>1146.8</ele>
        <time>2025-10-05T11:01:28Z</time>
      </trkpt>
      <trkpt lat="43.33381" lon="5.78686">
        <ele>1146.7</ele>
        <time>2025-10-05T11:01:29Z</time>
      </trkpt>
      <trkpt lat="43.33381" lon="5.78686">
        <ele>1146.7</ele>
        <time>2025-10-05T11:01:30Z</time>
      </trkpt>
      <trkpt lat="43.33381" lon="5.78686">
        <ele>1146.5</ele>
        <time>2025-10-05T11:01:31Z</time>
      </trkpt>
      <trkpt lat="43.33381" lon="5.78686">
        <ele>1146.5</ele>
        <time>2025-10-05T11:01:32Z</time>
      </trkpt>
      <trkpt lat="43.33381" lon="5.78686">
        <ele>1146.4</ele>
        <time>2025-10-05T11:01:33Z</time>
      </trkpt>
      <trkpt lat="43.33381" lon="5.78686">
        <ele>1146.4</ele>
        <time>2025-10-05T11:01:34Z</time>
      </trkpt>
      <trkpt lat="43.33381" lon="5.78686">
        <ele>1146.4</ele>
        <time>2025-10-05T11:01:35Z</time>
      </trkpt>
      <trkpt lat="43.33381" lon="5.78686">
        <ele>1146.3</ele>
        <time>2025-10-05T11:01:36Z</time>
      </trkpt>
      <trkpt lat="43.33381" lon="5.78686">
        <ele>1146.3</ele>
        <time>2025-10-05T11:01:37Z</time>
      </trkpt>
      <trkpt lat="43.3338" lon="5.78687">
        <ele>1146.3</ele>
        <time>2025-10-05T11:01:38Z</time>
      </trkpt>
      <trkpt lat="43.3338" lon="5.78687">
        <ele>1146.3</ele>
        <time>2025-10-05T11:01:39Z</time>
      </trkpt>
      <trkpt lat="43.3338" lon="5.78687">
        <ele>1146.3</ele>
        <time>2025-10-05T11:01:40Z</time>
      </trkpt>
      <trkpt lat="43.3338" lon="5.78687">
        <ele>1146.4</ele>
        <time>2025-10-05T11:01:41Z</time>
      </trkpt>
      <trkpt lat="43.3338" lon="5.78687">
        <ele>1146.4</ele>
        <time>2025-10-05T11:01:42Z</time>
      </trkpt>
      <trkpt lat="43.3338" lon="5.78687">
        <ele>1146.5</ele>
        <time>2025-10-05T11:01:43Z</time>
      </trkpt>
      <trkpt lat="43.3338" lon="5.78687">
        <ele>1146.8</ele>
        <time>2025-10-05T11:01:44Z</time>
      </trkpt>
      <trkpt lat="43.3338" lon="5.78687">
        <ele>1147</ele>
        <time>2025-10-05T11:01:45Z</time>
      </trkpt>
      <trkpt lat="43.3338" lon="5.78687">
        <ele>1147.2</ele>
        <time>2025-10-05T11:01:46Z</time>
      </trkpt>
      <trkpt lat="43.3338" lon="5.78687">
        <ele>1147.3</ele>
        <time>2025-10-05T11:01:47Z</time>
      </trkpt>
      <trkpt lat="43.3338" lon="5.78687">
        <ele>1147.6</ele>
        <time>2025-10-05T11:01:48Z</time>
      </trkpt>
      <trkpt lat="43.3338" lon="5.78687">
        <ele>1147.6</ele>
        <time>2025-10-05T11:01:49Z</time>
      </trkpt>
      <trkpt lat="43.3338" lon="5.78687">
        <ele>1147.5</ele>
        <time>2025-10-05T11:01:50Z</time>
      </trkpt>
      <trkpt lat="43.3338" lon="5.78687">
        <ele>1147.4</ele>
        <time>2025-10-05T11:01:51Z</time>
      </trkpt>
      <trkpt lat="43.3338" lon="5.78687">
        <ele>1147.4</ele>
        <time>2025-10-05T11:01:52Z</time>
      </trkpt>
      <trkpt lat="43.3338" lon="5.78687">
        <ele>1147.5</ele>
        <time>2025-10-05T11:01:53Z</time>
      </trkpt>
      <trkpt lat="43.33379" lon="5.78687">
        <ele>1147.5</ele>
        <time>2025-10-05T11:01:54Z</time>
      </trkpt>
      <trkpt lat="43.33379" lon="5.78687">
        <ele>1147.4</ele>
        <time>2025-10-05T11:01:55Z</time>
      </trkpt>
      <trkpt lat="43.33379" lon="5.78687">
        <ele>1147.5</ele>
        <time>2025-10-05T11:01:56Z</time>
      </trkpt>
      <trkpt lat="43.33379" lon="5.78687">
        <ele>1147.6</ele>
        <time>2025-10-05T11:01:57Z</time>
      </trkpt>
      <trkpt lat="43.33379" lon="5.78687">
        <ele>1147.7</ele>
        <time>2025-10-05T11:01:58Z</time>
      </trkpt>
      <trkpt lat="43.33379" lon="5.78687">
        <ele>1147.7</ele>
        <time>2025-10-05T11:01:59Z</time>
      </trkpt>
      <trkpt lat="43.33379" lon="5.78687">
        <ele>1147.7</ele>
        <time>2025-10-05T11:02:00Z</time>
      </trkpt>
      <trkpt lat="43.33379" lon="5.78687">
        <ele>1147.6</ele>
        <time>2025-10-05T11:02:01Z</time>
      </trkpt>
      <trkpt lat="43.33379" lon="5.78687">
        <ele>1147.6</ele>
        <time>2025-10-05T11:02:02Z</time>
      </trkpt>
      <trkpt lat="43.33379" lon="5.78687">
        <ele>1147.8</ele>
        <time>2025-10-05T11:02:03Z</time>
      </trkpt>
      <trkpt lat="43.33379" lon="5.78687">
        <ele>1147.9</ele>
        <time>2025-10-05T11:02:04Z</time>
      </trkpt>
      <trkpt lat="43.33379" lon="5.78687">
        <ele>1148</ele>
        <time>2025-10-05T11:02:05Z</time>
      </trkpt>
      <trkpt lat="43.33379" lon="5.78687">
        <ele>1148.1</ele>
        <time>2025-10-05T11:02:06Z</time>
      </trkpt>
      <trkpt lat="43.33379" lon="5.78687">
        <ele>1148.1</ele>
        <time>2025-10-05T11:02:07Z</time>
      </trkpt>
      <trkpt lat="43.33379" lon="5.78687">
        <ele>1148.1</ele>
        <time>2025-10-05T11:02:08Z</time>
      </trkpt>
      <trkpt lat="43.33378" lon="5.78688">
        <ele>1148.1</ele>
        <time>2025-10-05T11:02:09Z</time>
      </trkpt>
      <trkpt lat="43.33378" lon="5.78688">
        <ele>1148.1</ele>
        <time>2025-10-05T11:02:10Z</time>
      </trkpt>
      <trkpt lat="43.33378" lon="5.78688">
        <ele>1148.2</ele>
        <time>2025-10-05T11:02:11Z</time>
      </trkpt>
      <trkpt lat="43.33378" lon="5.78688">
        <ele>1148.2</ele>
        <time>2025-10-05T11:02:12Z</time>
      </trkpt>
      <trkpt lat="43.33378" lon="5.78688">
        <ele>1148.2</ele>
        <time>2025-10-05T11:02:13Z</time>
      </trkpt>
      <trkpt lat="43.33378" lon="5.78688">
        <ele>1148.2</ele>
        <time>2025-10-05T11:02:14Z</time>
      </trkpt>
      <trkpt lat="43.33378" lon="5.78687">
        <ele>1148.1</ele>
        <time>2025-10-05T11:02:15Z</time>
      </trkpt>
      <trkpt lat="43.33378" lon="5.78687">
        <ele>1148.1</ele>
        <time>2025-10-05T11:02:16Z</time>
      </trkpt>
      <trkpt lat="43.33378" lon="5.78687">
        <ele>1148</ele>
        <time>2025-10-05T11:02:17Z</time>
      </trkpt>
      <trkpt lat="43.33378" lon="5.78687">
        <ele>1148</ele>
        <time>2025-10-05T11:02:18Z</time>
      </trkpt>
      <trkpt lat="43.33378" lon="5.78687">
        <ele>1148.1</ele>
        <time>2025-10-05T11:02:19Z</time>
      </trkpt>
      <trkpt lat="43.33378" lon="5.78687">
        <ele>1148.1</ele>
        <time>2025-10-05T11:02:20Z</time>
      </trkpt>
      <trkpt lat="43.33378" lon="5.78687">
        <ele>1148.1</ele>
        <time>2025-10-05T11:02:21Z</time>
      </trkpt>
      <trkpt lat="43.33378" lon="5.78687">
        <ele>1148.1</ele>
        <time>2025-10-05T11:02:22Z</time>
      </trkpt>
      <trkpt lat="43.33378" lon="5.78687">
        <ele>1148.1</ele>
        <time>2025-10-05T11:02:23Z</time>
      </trkpt>
      <trkpt lat="43.33378" lon="5.78687">
        <ele>1148.1</ele>
        <time>2025-10-05T11:02:24Z</time>
      </trkpt>
      <trkpt lat="43.33378" lon="5.78687">
        <ele>1148.2</ele>
        <time>2025-10-05T11:02:25Z</time>
      </trkpt>
      <trkpt lat="43.33378" lon="5.78687">
        <ele>1148.3</ele>
        <time>2025-10-05T11:02:26Z</time>
      </trkpt>
      <trkpt lat="43.33378" lon="5.78687">
        <ele>1148.3</ele>
        <time>2025-10-05T11:02:27Z</time>
      </trkpt>
      <trkpt lat="43.33378" lon="5.78687">
        <ele>1148.3</ele>
        <time>2025-10-05T11:02:28Z</time>
      </trkpt>
      <trkpt lat="43.33378" lon="5.78687">
        <ele>1148.3</ele>
        <time>2025-10-05T11:02:29Z</time>
      </trkpt>
      <trkpt lat="43.33378" lon="5.78687">
        <ele>1148.3</ele>
        <time>2025-10-05T11:02:30Z</time>
      </trkpt>
      <trkpt lat="43.33378" lon="5.78687">
        <ele>1148.3</ele>
        <time>2025-10-05T11:02:31Z</time>
      </trkpt>
      <trkpt lat="43.33378" lon="5.78687">
        <ele>1148.3</ele>
        <time>2025-10-05T11:02:32Z</time>
      </trkpt>
      <trkpt lat="43.33378" lon="5.78687">
        <ele>1148.3</ele>
        <time>2025-10-05T11:02:33Z</time>
      </trkpt>
      <trkpt lat="43.33378" lon="5.78687">
        <ele>1148.3</ele>
        <time>2025-10-05T11:02:34Z</time>
      </trkpt>
      <trkpt lat="43.33378" lon="5.78687">
        <ele>1148.2</ele>
        <time>2025-10-05T11:02:35Z</time>
      </trkpt>
      <trkpt lat="43.33378" lon="5.78687">
        <ele>1148.2</ele>
        <time>2025-10-05T11:02:36Z</time>
      </trkpt>
      <trkpt lat="43.33378" lon="5.78687">
        <ele>1148.1</ele>
        <time>2025-10-05T11:02:37Z</time>
      </trkpt>
      <trkpt lat="43.33378" lon="5.78687">
        <ele>1147.9</ele>
        <time>2025-10-05T11:02:38Z</time>
      </trkpt>
      <trkpt lat="43.33378" lon="5.78687">
        <ele>1147.8</ele>
        <time>2025-10-05T11:02:39Z</time>
      </trkpt>
      <trkpt lat="43.33378" lon="5.78687">
        <ele>1147.7</ele>
        <time>2025-10-05T11:02:40Z</time>
      </trkpt>
      <trkpt lat="43.33378" lon="5.78687">
        <ele>1147.6</ele>
        <time>2025-10-05T11:02:41Z</time>
      </trkpt>
      <trkpt lat="43.33378" lon="5.78687">
        <ele>1147.5</ele>
        <time>2025-10-05T11:02:42Z</time>
      </trkpt>
      <trkpt lat="43.33378" lon="5.78687">
        <ele>1147.4</ele>
        <time>2025-10-05T11:02:43Z</time>
      </trkpt>
      <trkpt lat="43.33378" lon="5.78687">
        <ele>1147.3</ele>
        <time>2025-10-05T11:02:44Z</time>
      </trkpt>
      <trkpt lat="43.33378" lon="5.78687">
        <ele>1147.3</ele>
        <time>2025-10-05T11:02:45Z</time>
      </trkpt>
      <trkpt lat="43.33378" lon="5.78687">
        <ele>1147.3</ele>
        <time>2025-10-05T11:02:46Z</time>
      </trkpt>
      <trkpt lat="43.33378" lon="5.78687">
        <ele>1147.3</ele>
        <time>2025-10-05T11:02:47Z</time>
      </trkpt>
      <trkpt lat="43.33378" lon="5.78687">
        <ele>1147.3</ele>
        <time>2025-10-05T11:02:48Z</time>
      </trkpt>
      <trkpt lat="43.33378" lon="5.78686">
        <ele>1147.3</ele>
        <time>2025-10-05T11:02:49Z</time>
      </trkpt>
      <trkpt lat="43.33378" lon="5.78686">
        <ele>1147.3</ele>
        <time>2025-10-05T11:02:50Z</time>
      </trkpt>
      <trkpt lat="43.33378" lon="5.78686">
        <ele>1147.2</ele>
        <time>2025-10-05T11:02:51Z</time>
      </trkpt>
      <trkpt lat="43.33378" lon="5.78686">
        <ele>1147.4</ele>
        <time>2025-10-05T11:02:52Z</time>
      </trkpt>
      <trkpt lat="43.33378" lon="5.78686">
        <ele>1147.3</ele>
        <time>2025-10-05T11:02:53Z</time>
      </trkpt>
      <trkpt lat="43.33378" lon="5.78686">
        <ele>1147.3</ele>
        <time>2025-10-05T11:02:54Z</time>
      </trkpt>
      <trkpt lat="43.33378" lon="5.78686">
        <ele>1147.2</ele>
        <time>2025-10-05T11:02:55Z</time>
      </trkpt>
      <trkpt lat="43.33378" lon="5.78686">
        <ele>1147.2</ele>
        <time>2025-10-05T11:02:56Z</time>
      </trkpt>
      <trkpt lat="43.33378" lon="5.78686">
        <ele>1147.2</ele>
        <time>2025-10-05T11:02:57Z</time>
      </trkpt>
      <trkpt lat="43.33378" lon="5.78686">
        <ele>1147.1</ele>
        <time>2025-10-05T11:02:58Z</time>
      </trkpt>
      <trkpt lat="43.33378" lon="5.78686">
        <ele>1147.3</ele>
        <time>2025-10-05T11:02:59Z</time>
      </trkpt>
      <trkpt lat="43.33378" lon="5.78686">
        <ele>1147.5</ele>
        <time>2025-10-05T11:03:00Z</time>
      </trkpt>
      <trkpt lat="43.33378" lon="5.78686">
        <ele>1147.6</ele>
        <time>2025-10-05T11:03:01Z</time>
      </trkpt>
      <trkpt lat="43.33378" lon="5.78686">
        <ele>1147.8</ele>
        <time>2025-10-05T11:03:02Z</time>
      </trkpt>
      <trkpt lat="43.33378" lon="5.78686">
        <ele>1147.8</ele>
        <time>2025-10-05T11:03:03Z</time>
      </trkpt>
      <trkpt lat="43.33378" lon="5.78686">
        <ele>1147.9</ele>
        <time>2025-10-05T11:03:04Z</time>
      </trkpt>
      <trkpt lat="43.33378" lon="5.78686">
        <ele>1147.9</ele>
        <time>2025-10-05T11:03:05Z</time>
      </trkpt>
      <trkpt lat="43.33378" lon="5.78686">
        <ele>1147.9</ele>
        <time>2025-10-05T11:03:06Z</time>
      </trkpt>
      <trkpt lat="43.33378" lon="5.78686">
        <ele>1148</ele>
        <time>2025-10-05T11:03:07Z</time>
      </trkpt>
      <trkpt lat="43.33378" lon="5.78686">
        <ele>1148</ele>
        <time>2025-10-05T11:03:08Z</time>
      </trkpt>
      <trkpt lat="43.33378" lon="5.78686">
        <ele>1148</ele>
        <time>2025-10-05T11:03:09Z</time>
      </trkpt>
      <trkpt lat="43.33378" lon="5.78685">
        <ele>1148</ele>
        <time>2025-10-05T11:03:10Z</time>
      </trkpt>
      <trkpt lat="43.33378" lon="5.78685">
        <ele>1148.1</ele>
        <time>2025-10-05T11:03:11Z</time>
      </trkpt>
      <trkpt lat="43.33378" lon="5.78685">
        <ele>1148.2</ele>
        <time>2025-10-05T11:03:12Z</time>
      </trkpt>
      <trkpt lat="43.33378" lon="5.78685">
        <ele>1148.3</ele>
        <time>2025-10-05T11:03:13Z</time>
      </trkpt>
      <trkpt lat="43.33379" lon="5.78685">
        <ele>1148.4</ele>
        <time>2025-10-05T11:03:14Z</time>
      </trkpt>
      <trkpt lat="43.33379" lon="5.78685">
        <ele>1148.4</ele>
        <time>2025-10-05T11:03:15Z</time>
      </trkpt>
      <trkpt lat="43.33379" lon="5.78685">
        <ele>1148.5</ele>
        <time>2025-10-05T11:03:16Z</time>
      </trkpt>
      <trkpt lat="43.33379" lon="5.78685">
        <ele>1148.5</ele>
        <time>2025-10-05T11:03:17Z</time>
      </trkpt>
      <trkpt lat="43.33379" lon="5.78685">
        <ele>1148.7</ele>
        <time>2025-10-05T11:03:18Z</time>
      </trkpt>
      <trkpt lat="43.33379" lon="5.78685">
        <ele>1148.9</ele>
        <time>2025-10-05T11:03:19Z</time>
      </trkpt>
      <trkpt lat="43.33379" lon="5.78685">
        <ele>1148.9</ele>
        <time>2025-10-05T11:03:20Z</time>
      </trkpt>
      <trkpt lat="43.33379" lon="5.78685">
        <ele>1148.9</ele>
        <time>2025-10-05T11:03:21Z</time>
      </trkpt>
      <trkpt lat="43.33379" lon="5.78685">
        <ele>1149</ele>
        <time>2025-10-05T11:03:22Z</time>
      </trkpt>
      <trkpt lat="43.33379" lon="5.78685">
        <ele>1149</ele>
        <time>2025-10-05T11:03:23Z</time>
      </trkpt>
      <trkpt lat="43.33379" lon="5.78685">
        <ele>1149</ele>
        <time>2025-10-05T11:03:24Z</time>
      </trkpt>
      <trkpt lat="43.33379" lon="5.78685">
        <ele>1149</ele>
        <time>2025-10-05T11:03:25Z</time>
      </trkpt>
      <trkpt lat="43.33379" lon="5.78685">
        <ele>1149</ele>
        <time>2025-10-05T11:03:26Z</time>
      </trkpt>
      <trkpt lat="43.33379" lon="5.78685">
        <ele>1149</ele>
        <time>2025-10-05T11:03:27Z</time>
      </trkpt>
      <trkpt lat="43.33379" lon="5.78685">
        <ele>1148.9</ele>
        <time>2025-10-05T11:03:28Z</time>
      </trkpt>
      <trkpt lat="43.33379" lon="5.78685">
        <ele>1148.9</ele>
        <time>2025-10-05T11:03:29Z</time>
      </trkpt>
      <trkpt lat="43.33378" lon="5.78685">
        <ele>1148.9</ele>
        <time>2025-10-05T11:03:30Z</time>
      </trkpt>
      <trkpt lat="43.33377" lon="5.78685">
        <ele>1148.9</ele>
        <time>2025-10-05T11:03:31Z</time>
      </trkpt>
      <trkpt lat="43.33377" lon="5.78685">
        <ele>1148.9</ele>
        <time>2025-10-05T11:03:32Z</time>
      </trkpt>
      <trkpt lat="43.33377" lon="5.78685">
        <ele>1148.8</ele>
        <time>2025-10-05T11:03:33Z</time>
      </trkpt>
      <trkpt lat="43.33377" lon="5.78686">
        <ele>1148.8</ele>
        <time>2025-10-05T11:03:34Z</time>
      </trkpt>
      <trkpt lat="43.33376" lon="5.78686">
        <ele>1148.7</ele>
        <time>2025-10-05T11:03:35Z</time>
      </trkpt>
      <trkpt lat="43.33376" lon="5.78686">
        <ele>1148.6</ele>
        <time>2025-10-05T11:03:36Z</time>
      </trkpt>
      <trkpt lat="43.33376" lon="5.78686">
        <ele>1148.5</ele>
        <time>2025-10-05T11:03:37Z</time>
      </trkpt>
      <trkpt lat="43.33376" lon="5.78686">
        <ele>1148.4</ele>
        <time>2025-10-05T11:03:38Z</time>
      </trkpt>
      <trkpt lat="43.33376" lon="5.78686">
        <ele>1148.4</ele>
        <time>2025-10-05T11:03:39Z</time>
      </trkpt>
      <trkpt lat="43.33376" lon="5.78686">
        <ele>1148.4</ele>
        <time>2025-10-05T11:03:40Z</time>
      </trkpt>
      <trkpt lat="43.33376" lon="5.78686">
        <ele>1148.4</ele>
        <time>2025-10-05T11:03:41Z</time>
      </trkpt>
      <trkpt lat="43.33376" lon="5.78686">
        <ele>1148.4</ele>
        <time>2025-10-05T11:03:42Z</time>
      </trkpt>
      <trkpt lat="43.33376" lon="5.78686">
        <ele>1148.4</ele>
        <time>2025-10-05T11:03:43Z</time>
      </trkpt>
      <trkpt lat="43.33376" lon="5.78687">
        <ele>1148.4</ele>
        <time>2025-10-05T11:03:44Z</time>
      </trkpt>
      <trkpt lat="43.33376" lon="5.78687">
        <ele>1148.4</ele>
        <time>2025-10-05T11:03:45Z</time>
      </trkpt>
      <trkpt lat="43.33376" lon="5.78687">
        <ele>1148.3</ele>
        <time>2025-10-05T11:03:46Z</time>
      </trkpt>
      <trkpt lat="43.33376" lon="5.78687">
        <ele>1148.4</ele>
        <time>2025-10-05T11:03:47Z</time>
      </trkpt>
      <trkpt lat="43.33375" lon="5.78687">
        <ele>1148.5</ele>
        <time>2025-10-05T11:03:48Z</time>
      </trkpt>
      <trkpt lat="43.33375" lon="5.78687">
        <ele>1148.5</ele>
        <time>2025-10-05T11:03:49Z</time>
      </trkpt>
      <trkpt lat="43.33375" lon="5.78688">
        <ele>1148.3</ele>
        <time>2025-10-05T11:03:50Z</time>
      </trkpt>
      <trkpt lat="43.33375" lon="5.78688">
        <ele>1148.2</ele>
        <time>2025-10-05T11:03:51Z</time>
      </trkpt>
      <trkpt lat="43.33375" lon="5.78688">
        <ele>1148.2</ele>
        <time>2025-10-05T11:03:52Z</time>
      </trkpt>
      <trkpt lat="43.33375" lon="5.78688">
        <ele>1148.2</ele>
        <time>2025-10-05T11:03:53Z</time>
      </trkpt>
      <trkpt lat="43.33375" lon="5.78688">
        <ele>1148.2</ele>
        <time>2025-10-05T11:03:54Z</time>
      </trkpt>
      <trkpt lat="43.33375" lon="5.78688">
        <ele>1148.2</ele>
        <time>2025-10-05T11:03:55Z</time>
      </trkpt>
      <trkpt lat="43.33375" lon="5.78689">
        <ele>1148.3</ele>
        <time>2025-10-05T11:03:56Z</time>
      </trkpt>
      <trkpt lat="43.33375" lon="5.78689">
        <ele>1148.3</ele>
        <time>2025-10-05T11:03:57Z</time>
      </trkpt>
      <trkpt lat="43.33375" lon="5.78689">
        <ele>1148.2</ele>
        <time>2025-10-05T11:03:58Z</time>
      </trkpt>
      <trkpt lat="43.33375" lon="5.78689">
        <ele>1148.2</ele>
        <time>2025-10-05T11:03:59Z</time>
      </trkpt>
      <trkpt lat="43.33375" lon="5.78689">
        <ele>1148.2</ele>
        <time>2025-10-05T11:04:00Z</time>
      </trkpt>
      <trkpt lat="43.33375" lon="5.78689">
        <ele>1148.2</ele>
        <time>2025-10-05T11:04:01Z</time>
      </trkpt>
      <trkpt lat="43.33375" lon="5.78689">
        <ele>1148.3</ele>
        <time>2025-10-05T11:04:02Z</time>
      </trkpt>
      <trkpt lat="43.33376" lon="5.78689">
        <ele>1148.3</ele>
        <time>2025-10-05T11:04:03Z</time>
      </trkpt>
      <trkpt lat="43.33376" lon="5.78689">
        <ele>1148.2</ele>
        <time>2025-10-05T11:04:04Z</time>
      </trkpt>
      <trkpt lat="43.33376" lon="5.78689">
        <ele>1148.2</ele>
        <time>2025-10-05T11:04:05Z</time>
      </trkpt>
      <trkpt lat="43.33376" lon="5.78689">
        <ele>1148.2</ele>
        <time>2025-10-05T11:04:06Z</time>
      </trkpt>
      <trkpt lat="43.33376" lon="5.78689">
        <ele>1148.2</ele>
        <time>2025-10-05T11:04:07Z</time>
      </trkpt>
      <trkpt lat="43.33376" lon="5.78689">
        <ele>1148.1</ele>
        <time>2025-10-05T11:04:08Z</time>
      </trkpt>
      <trkpt lat="43.33376" lon="5.78689">
        <ele>1148.1</ele>
        <time>2025-10-05T11:04:09Z</time>
      </trkpt>
      <trkpt lat="43.33376" lon="5.78688">
        <ele>1148.1</ele>
        <time>2025-10-05T11:04:10Z</time>
      </trkpt>
      <trkpt lat="43.33376" lon="5.78689">
        <ele>1148.2</ele>
        <time>2025-10-05T11:04:11Z</time>
      </trkpt>
      <trkpt lat="43.33375" lon="5.78689">
        <ele>1148.3</ele>
        <time>2025-10-05T11:04:12Z</time>
      </trkpt>
      <trkpt lat="43.33375" lon="5.78689">
        <ele>1148.4</ele>
        <time>2025-10-05T11:04:13Z</time>
      </trkpt>
      <trkpt lat="43.33375" lon="5.78689">
        <ele>1148.4</ele>
        <time>2025-10-05T11:04:14Z</time>
      </trkpt>
      <trkpt lat="43.33375" lon="5.78689">
        <ele>1148.5</ele>
        <time>2025-10-05T11:04:15Z</time>
      </trkpt>
      <trkpt lat="43.33375" lon="5.78689">
        <ele>1148.4</ele>
        <time>2025-10-05T11:04:16Z</time>
      </trkpt>
      <trkpt lat="43.33375" lon="5.78689">
        <ele>1148.4</ele>
        <time>2025-10-05T11:04:17Z</time>
      </trkpt>
      <trkpt lat="43.33376" lon="5.78689">
        <ele>1148.4</ele>
        <time>2025-10-05T11:04:18Z</time>
      </trkpt>
      <trkpt lat="43.33375" lon="5.78689">
        <ele>1148.4</ele>
        <time>2025-10-05T11:04:19Z</time>
      </trkpt>
      <trkpt lat="43.33375" lon="5.78689">
        <ele>1148.4</ele>
        <time>2025-10-05T11:04:20Z</time>
      </trkpt>
      <trkpt lat="43.33375" lon="5.78689">
        <ele>1148.4</ele>
        <time>2025-10-05T11:04:21Z</time>
      </trkpt>
      <trkpt lat="43.33375" lon="5.78689">
        <ele>1148.3</ele>
        <time>2025-10-05T11:04:22Z</time>
      </trkpt>
      <trkpt lat="43.33375" lon="5.78689">
        <ele>1148.2</ele>
        <time>2025-10-05T11:04:23Z</time>
      </trkpt>
      <trkpt lat="43.33375" lon="5.78688">
        <ele>1148.1</ele>
        <time>2025-10-05T11:04:24Z</time>
      </trkpt>
      <trkpt lat="43.33375" lon="5.78688">
        <ele>1148.1</ele>
        <time>2025-10-05T11:04:25Z</time>
      </trkpt>
      <trkpt lat="43.33375" lon="5.78687">
        <ele>1148.1</ele>
        <time>2025-10-05T11:04:26Z</time>
      </trkpt>
      <trkpt lat="43.33375" lon="5.78687">
        <ele>1148.1</ele>
        <time>2025-10-05T11:04:27Z</time>
      </trkpt>
      <trkpt lat="43.33375" lon="5.78687">
        <ele>1148.1</ele>
        <time>2025-10-05T11:04:28Z</time>
      </trkpt>
      <trkpt lat="43.33375" lon="5.78687">
        <ele>1148.1</ele>
        <time>2025-10-05T11:04:29Z</time>
      </trkpt>
      <trkpt lat="43.33375" lon="5.78687">
        <ele>1148.1</ele>
        <time>2025-10-05T11:04:30Z</time>
      </trkpt>
      <trkpt lat="43.33375" lon="5.78687">
        <ele>1148</ele>
        <time>2025-10-05T11:04:31Z</time>
      </trkpt>
      <trkpt lat="43.33375" lon="5.78687">
        <ele>1148</ele>
        <time>2025-10-05T11:04:32Z</time>
      </trkpt>
      <trkpt lat="43.33375" lon="5.78687">
        <ele>1147.9</ele>
        <time>2025-10-05T11:04:33Z</time>
      </trkpt>
      <trkpt lat="43.33375" lon="5.78687">
        <ele>1147.8</ele>
        <time>2025-10-05T11:04:34Z</time>
      </trkpt>
      <trkpt lat="43.33374" lon="5.78686">
        <ele>1147.8</ele>
        <time>2025-10-05T11:04:35Z</time>
      </trkpt>
      <trkpt lat="43.33374" lon="5.78685">
        <ele>1147.5</ele>
        <time>2025-10-05T11:04:36Z</time>
      </trkpt>
      <trkpt lat="43.33374" lon="5.78685">
        <ele>1147.4</ele>
        <time>2025-10-05T11:04:37Z</time>
      </trkpt>
      <trkpt lat="43.33374" lon="5.78684">
        <ele>1147.4</ele>
        <time>2025-10-05T11:04:38Z</time>
      </trkpt>
      <trkpt lat="43.33374" lon="5.78683">
        <ele>1147.4</ele>
        <time>2025-10-05T11:04:39Z</time>
      </trkpt>
      <trkpt lat="43.33374" lon="5.78683">
        <ele>1147.4</ele>
        <time>2025-10-05T11:04:40Z</time>
      </trkpt>
      <trkpt lat="43.33374" lon="5.78682">
        <ele>1147.4</ele>
        <time>2025-10-05T11:04:41Z</time>
      </trkpt>
      <trkpt lat="43.33374" lon="5.78682">
        <ele>1147.7</ele>
        <time>2025-10-05T11:04:42Z</time>
      </trkpt>
      <trkpt lat="43.33374" lon="5.78682">
        <ele>1147.8</ele>
        <time>2025-10-05T11:04:43Z</time>
      </trkpt>
      <trkpt lat="43.33374" lon="5.78682">
        <ele>1148</ele>
        <time>2025-10-05T11:04:44Z</time>
      </trkpt>
      <trkpt lat="43.33374" lon="5.78682">
        <ele>1148.2</ele>
        <time>2025-10-05T11:04:45Z</time>
      </trkpt>
      <trkpt lat="43.33374" lon="5.78682">
        <ele>1148.3</ele>
        <time>2025-10-05T11:04:46Z</time>
      </trkpt>
      <trkpt lat="43.33374" lon="5.78682">
        <ele>1148.5</ele>
        <time>2025-10-05T11:04:47Z</time>
      </trkpt>
      <trkpt lat="43.33374" lon="5.78682">
        <ele>1148.6</ele>
        <time>2025-10-05T11:04:48Z</time>
      </trkpt>
      <trkpt lat="43.33374" lon="5.78682">
        <ele>1148.7</ele>
        <time>2025-10-05T11:04:49Z</time>
      </trkpt>
      <trkpt lat="43.33373" lon="5.78682">
        <ele>1148.8</ele>
        <time>2025-10-05T11:04:50Z</time>
      </trkpt>
      <trkpt lat="43.33374" lon="5.78682">
        <ele>1148.9</ele>
        <time>2025-10-05T11:04:51Z</time>
      </trkpt>
      <trkpt lat="43.33374" lon="5.78682">
        <ele>1148.9</ele>
        <time>2025-10-05T11:04:52Z</time>
      </trkpt>
      <trkpt lat="43.33374" lon="5.78682">
        <ele>1149</ele>
        <time>2025-10-05T11:04:53Z</time>
      </trkpt>
      <trkpt lat="43.33374" lon="5.78682">
        <ele>1149</ele>
        <time>2025-10-05T11:04:54Z</time>
      </trkpt>
      <trkpt lat="43.33374" lon="5.78682">
        <ele>1149.1</ele>
        <time>2025-10-05T11:04:55Z</time>
      </trkpt>
      <trkpt lat="43.33374" lon="5.78681">
        <ele>1149.2</ele>
        <time>2025-10-05T11:04:56Z</time>
      </trkpt>
      <trkpt lat="43.33374" lon="5.78681">
        <ele>1149.3</ele>
        <time>2025-10-05T11:04:57Z</time>
      </trkpt>
      <trkpt lat="43.33374" lon="5.78681">
        <ele>1149.3</ele>
        <time>2025-10-05T11:04:58Z</time>
      </trkpt>
      <trkpt lat="43.33374" lon="5.78681">
        <ele>1149.3</ele>
        <time>2025-10-05T11:04:59Z</time>
      </trkpt>
      <trkpt lat="43.33374" lon="5.78681">
        <ele>1149.3</ele>
        <time>2025-10-05T11:05:00Z</time>
      </trkpt>
      <trkpt lat="43.33374" lon="5.78681">
        <ele>1149.3</ele>
        <time>2025-10-05T11:05:01Z</time>
      </trkpt>
      <trkpt lat="43.33374" lon="5.78681">
        <ele>1149.2</ele>
        <time>2025-10-05T11:05:02Z</time>
      </trkpt>
      <trkpt lat="43.33374" lon="5.7868">
        <ele>1149.3</ele>
        <time>2025-10-05T11:05:03Z</time>
      </trkpt>
      <trkpt lat="43.33374" lon="5.7868">
        <ele>1149.3</ele>
        <time>2025-10-05T11:05:04Z</time>
      </trkpt>
      <trkpt lat="43.33374" lon="5.78679">
        <ele>1149.3</ele>
        <time>2025-10-05T11:05:05Z</time>
      </trkpt>
      <trkpt lat="43.33374" lon="5.78679">
        <ele>1149.3</ele>
        <time>2025-10-05T11:05:06Z</time>
      </trkpt>
      <trkpt lat="43.33375" lon="5.78678">
        <ele>1149.2</ele>
        <time>2025-10-05T11:05:07Z</time>
      </trkpt>
      <trkpt lat="43.33375" lon="5.78678">
        <ele>1149.2</ele>
        <time>2025-10-05T11:05:08Z</time>
      </trkpt>
      <trkpt lat="43.33375" lon="5.78678">
        <ele>1149.2</ele>
        <time>2025-10-05T11:05:09Z</time>
      </trkpt>
      <trkpt lat="43.33375" lon="5.78678">
        <ele>1149.3</ele>
        <time>2025-10-05T11:05:10Z</time>
      </trkpt>
      <trkpt lat="43.33375" lon="5.78678">
        <ele>1149.4</ele>
        <time>2025-10-05T11:05:11Z</time>
      </trkpt>
      <trkpt lat="43.33375" lon="5.78678">
        <ele>1149.2</ele>
        <time>2025-10-05T11:05:12Z</time>
      </trkpt>
      <trkpt lat="43.33375" lon="5.78678">
        <ele>1149.2</ele>
        <time>2025-10-05T11:05:13Z</time>
      </trkpt>
      <trkpt lat="43.33375" lon="5.78678">
        <ele>1149.2</ele>
        <time>2025-10-05T11:05:14Z</time>
      </trkpt>
      <trkpt lat="43.33375" lon="5.78678">
        <ele>1149.3</ele>
        <time>2025-10-05T11:05:15Z</time>
      </trkpt>
      <trkpt lat="43.33375" lon="5.78678">
        <ele>1149.4</ele>
        <time>2025-10-05T11:05:16Z</time>
      </trkpt>
      <trkpt lat="43.33375" lon="5.78678">
        <ele>1149.5</ele>
        <time>2025-10-05T11:05:17Z</time>
      </trkpt>
      <trkpt lat="43.33375" lon="5.78678">
        <ele>1149.7</ele>
        <time>2025-10-05T11:05:18Z</time>
      </trkpt>
      <trkpt lat="43.33375" lon="5.78678">
        <ele>1149.7</ele>
        <time>2025-10-05T11:05:19Z</time>
      </trkpt>
      <trkpt lat="43.33375" lon="5.78678">
        <ele>1149.8</ele>
        <time>2025-10-05T11:05:20Z</time>
      </trkpt>
      <trkpt lat="43.33375" lon="5.78679">
        <ele>1149.8</ele>
        <time>2025-10-05T11:05:21Z</time>
      </trkpt>
      <trkpt lat="43.33375" lon="5.78679">
        <ele>1149.8</ele>
        <time>2025-10-05T11:05:22Z</time>
      </trkpt>
      <trkpt lat="43.33375" lon="5.78679">
        <ele>1149.9</ele>
        <time>2025-10-05T11:05:23Z</time>
      </trkpt>
      <trkpt lat="43.33375" lon="5.78679">
        <ele>1149.8</ele>
        <time>2025-10-05T11:05:24Z</time>
      </trkpt>
      <trkpt lat="43.33375" lon="5.78679">
        <ele>1149.8</ele>
        <time>2025-10-05T11:05:25Z</time>
      </trkpt>
      <trkpt lat="43.33375" lon="5.78679">
        <ele>1149.8</ele>
        <time>2025-10-05T11:05:26Z</time>
      </trkpt>
      <trkpt lat="43.33375" lon="5.78679">
        <ele>1149.8</ele>
        <time>2025-10-05T11:05:27Z</time>
      </trkpt>
      <trkpt lat="43.33375" lon="5.78679">
        <ele>1149.8</ele>
        <time>2025-10-05T11:05:28Z</time>
      </trkpt>
      <trkpt lat="43.33375" lon="5.78679">
        <ele>1149.9</ele>
        <time>2025-10-05T11:05:29Z</time>
      </trkpt>
      <trkpt lat="43.33375" lon="5.78679">
        <ele>1149.9</ele>
        <time>2025-10-05T11:05:30Z</time>
      </trkpt>
      <trkpt lat="43.33375" lon="5.78679">
        <ele>1149.8</ele>
        <time>2025-10-05T11:05:31Z</time>
      </trkpt>
      <trkpt lat="43.33375" lon="5.78679">
        <ele>1149.8</ele>
        <time>2025-10-05T11:05:32Z</time>
      </trkpt>
      <trkpt lat="43.33375" lon="5.78678">
        <ele>1149.8</ele>
        <time>2025-10-05T11:05:33Z</time>
      </trkpt>
      <trkpt lat="43.33375" lon="5.78678">
        <ele>1149.8</ele>
        <time>2025-10-05T11:05:34Z</time>
      </trkpt>
      <trkpt lat="43.33375" lon="5.78677">
        <ele>1149.7</ele>
        <time>2025-10-05T11:05:35Z</time>
      </trkpt>
      <trkpt lat="43.33375" lon="5.78676">
        <ele>1149.6</ele>
        <time>2025-10-05T11:05:36Z</time>
      </trkpt>
      <trkpt lat="43.33375" lon="5.78676">
        <ele>1149.5</ele>
        <time>2025-10-05T11:05:37Z</time>
      </trkpt>
      <trkpt lat="43.33375" lon="5.78676">
        <ele>1149.5</ele>
        <time>2025-10-05T11:05:38Z</time>
      </trkpt>
      <trkpt lat="43.33375" lon="5.78676">
        <ele>1149.5</ele>
        <time>2025-10-05T11:05:39Z</time>
      </trkpt>
      <trkpt lat="43.33375" lon="5.78676">
        <ele>1149.4</ele>
        <time>2025-10-05T11:05:40Z</time>
      </trkpt>
      <trkpt lat="43.33375" lon="5.78676">
        <ele>1149.4</ele>
        <time>2025-10-05T11:05:41Z</time>
      </trkpt>
      <trkpt lat="43.33375" lon="5.78675">
        <ele>1149.4</ele>
        <time>2025-10-05T11:05:42Z</time>
      </trkpt>
      <trkpt lat="43.33375" lon="5.78674">
        <ele>1149.5</ele>
        <time>2025-10-05T11:05:43Z</time>
      </trkpt>
      <trkpt lat="43.33375" lon="5.78674">
        <ele>1149.6</ele>
        <time>2025-10-05T11:05:44Z</time>
      </trkpt>
      <trkpt lat="43.33374" lon="5.78673">
        <ele>1150.4</ele>
        <time>2025-10-05T11:05:45Z</time>
      </trkpt>
      <trkpt lat="43.33373" lon="5.78673">
        <ele>1150.3</ele>
        <time>2025-10-05T11:05:46Z</time>
      </trkpt>
      <trkpt lat="43.33373" lon="5.78672">
        <ele>1150</ele>
        <time>2025-10-05T11:05:47Z</time>
      </trkpt>
      <trkpt lat="43.33373" lon="5.78672">
        <ele>1150.5</ele>
        <time>2025-10-05T11:05:48Z</time>
      </trkpt>
      <trkpt lat="43.33373" lon="5.78672">
        <ele>1150.8</ele>
        <time>2025-10-05T11:05:49Z</time>
      </trkpt>
      <trkpt lat="43.33373" lon="5.78672">
        <ele>1151.1</ele>
        <time>2025-10-05T11:05:50Z</time>
      </trkpt>
      <trkpt lat="43.33372" lon="5.78671">
        <ele>1150.8</ele>
        <time>2025-10-05T11:05:51Z</time>
      </trkpt>
      <trkpt lat="43.33372" lon="5.78671">
        <ele>1151.3</ele>
        <time>2025-10-05T11:05:52Z</time>
      </trkpt>
      <trkpt lat="43.33372" lon="5.7867">
        <ele>1151.7</ele>
        <time>2025-10-05T11:05:53Z</time>
      </trkpt>
      <trkpt lat="43.33372" lon="5.78668">
        <ele>1151.5</ele>
        <time>2025-10-05T11:05:54Z</time>
      </trkpt>
      <trkpt lat="43.33372" lon="5.78667">
        <ele>1151.5</ele>
        <time>2025-10-05T11:05:55Z</time>
      </trkpt>
      <trkpt lat="43.33372" lon="5.78666">
        <ele>1151.5</ele>
        <time>2025-10-05T11:05:56Z</time>
      </trkpt>
      <trkpt lat="43.33371" lon="5.78666">
        <ele>1151.4</ele>
        <time>2025-10-05T11:05:57Z</time>
      </trkpt>
      <trkpt lat="43.33371" lon="5.78666">
        <ele>1151.2</ele>
        <time>2025-10-05T11:05:58Z</time>
      </trkpt>
      <trkpt lat="43.33371" lon="5.78665">
        <ele>1151</ele>
        <time>2025-10-05T11:05:59Z</time>
      </trkpt>
      <trkpt lat="43.3337" lon="5.78665">
        <ele>1150.8</ele>
        <time>2025-10-05T11:06:00Z</time>
      </trkpt>
      <trkpt lat="43.3337" lon="5.78664">
        <ele>1150.3</ele>
        <time>2025-10-05T11:06:01Z</time>
      </trkpt>
      <trkpt lat="43.33369" lon="5.78663">
        <ele>1149.7</ele>
        <time>2025-10-05T11:06:02Z</time>
      </trkpt>
      <trkpt lat="43.33369" lon="5.78663">
        <ele>1149.6</ele>
        <time>2025-10-05T11:06:03Z</time>
      </trkpt>
      <trkpt lat="43.33369" lon="5.78663">
        <ele>1149.7</ele>
        <time>2025-10-05T11:06:04Z</time>
      </trkpt>
      <trkpt lat="43.33369" lon="5.78663">
        <ele>1149.9</ele>
        <time>2025-10-05T11:06:05Z</time>
      </trkpt>
      <trkpt lat="43.33369" lon="5.78663">
        <ele>1150.5</ele>
        <time>2025-10-05T11:06:06Z</time>
      </trkpt>
      <trkpt lat="43.33369" lon="5.78663">
        <ele>1150.4</ele>
        <time>2025-10-05T11:06:07Z</time>
      </trkpt>
      <trkpt lat="43.33369" lon="5.78662">
        <ele>1150.5</ele>
        <time>2025-10-05T11:06:08Z</time>
      </trkpt>
      <trkpt lat="43.33368" lon="5.78662">
        <ele>1150.5</ele>
        <time>2025-10-05T11:06:09Z</time>
      </trkpt>
      <trkpt lat="43.33368" lon="5.78661">
        <ele>1150.4</ele>
        <time>2025-10-05T11:06:10Z</time>
      </trkpt>
      <trkpt lat="43.33368" lon="5.7866">
        <ele>1150.4</ele>
        <time>2025-10-05T11:06:11Z</time>
      </trkpt>
      <trkpt lat="43.33368" lon="5.7866">
        <ele>1150.1</ele>
        <time>2025-10-05T11:06:12Z</time>
      </trkpt>
      <trkpt lat="43.33368" lon="5.78659">
        <ele>1149.6</ele>
        <time>2025-10-05T11:06:13Z</time>
      </trkpt>
      <trkpt lat="43.33368" lon="5.78658">
        <ele>1149.9</ele>
        <time>2025-10-05T11:06:14Z</time>
      </trkpt>
      <trkpt lat="43.33368" lon="5.78657">
        <ele>1149.5</ele>
        <time>2025-10-05T11:06:15Z</time>
      </trkpt>
      <trkpt lat="43.33367" lon="5.78656">
        <ele>1148.7</ele>
        <time>2025-10-05T11:06:16Z</time>
      </trkpt>
      <trkpt lat="43.33367" lon="5.78655">
        <ele>1148</ele>
        <time>2025-10-05T11:06:17Z</time>
      </trkpt>
      <trkpt lat="43.33367" lon="5.78654">
        <ele>1147.7</ele>
        <time>2025-10-05T11:06:18Z</time>
      </trkpt>
      <trkpt lat="43.33367" lon="5.78653">
        <ele>1147.4</ele>
        <time>2025-10-05T11:06:19Z</time>
      </trkpt>
      <trkpt lat="43.33366" lon="5.78652">
        <ele>1147.2</ele>
        <time>2025-10-05T11:06:20Z</time>
      </trkpt>
      <trkpt lat="43.33366" lon="5.78652">
        <ele>1146.9</ele>
        <time>2025-10-05T11:06:21Z</time>
      </trkpt>
      <trkpt lat="43.33366" lon="5.78652">
        <ele>1146.6</ele>
        <time>2025-10-05T11:06:22Z</time>
      </trkpt>
      <trkpt lat="43.33366" lon="5.78652">
        <ele>1146.4</ele>
        <time>2025-10-05T11:06:23Z</time>
      </trkpt>
      <trkpt lat="43.33366" lon="5.78651">
        <ele>1146.4</ele>
        <time>2025-10-05T11:06:24Z</time>
      </trkpt>
      <trkpt lat="43.33366" lon="5.78651">
        <ele>1146.3</ele>
        <time>2025-10-05T11:06:25Z</time>
      </trkpt>
      <trkpt lat="43.33366" lon="5.7865">
        <ele>1146.3</ele>
        <time>2025-10-05T11:06:26Z</time>
      </trkpt>
      <trkpt lat="43.33366" lon="5.78649">
        <ele>1146.3</ele>
        <time>2025-10-05T11:06:27Z</time>
      </trkpt>
      <trkpt lat="43.33366" lon="5.78648">
        <ele>1146.2</ele>
        <time>2025-10-05T11:06:28Z</time>
      </trkpt>
      <trkpt lat="43.33365" lon="5.78647">
        <ele>1146.2</ele>
        <time>2025-10-05T11:06:29Z</time>
      </trkpt>
      <trkpt lat="43.33365" lon="5.78646">
        <ele>1146.2</ele>
        <time>2025-10-05T11:06:30Z</time>
      </trkpt>
      <trkpt lat="43.33365" lon="5.78645">
        <ele>1146.2</ele>
        <time>2025-10-05T11:06:31Z</time>
      </trkpt>
      <trkpt lat="43.33365" lon="5.78645">
        <ele>1146.3</ele>
        <time>2025-10-05T11:06:32Z</time>
      </trkpt>
      <trkpt lat="43.33365" lon="5.78646">
        <ele>1146.4</ele>
        <time>2025-10-05T11:06:33Z</time>
      </trkpt>
      <trkpt lat="43.33365" lon="5.78646">
        <ele>1146.5</ele>
        <time>2025-10-05T11:06:34Z</time>
      </trkpt>
      <trkpt lat="43.33365" lon="5.78645">
        <ele>1146.5</ele>
        <time>2025-10-05T11:06:35Z</time>
      </trkpt>
      <trkpt lat="43.33365" lon="5.78645">
        <ele>1146.5</ele>
        <time>2025-10-05T11:06:36Z</time>
      </trkpt>
      <trkpt lat="43.33365" lon="5.78645">
        <ele>1146.5</ele>
        <time>2025-10-05T11:06:37Z</time>
      </trkpt>
      <trkpt lat="43.33365" lon="5.78645">
        <ele>1146.4</ele>
        <time>2025-10-05T11:06:38Z</time>
      </trkpt>
      <trkpt lat="43.33365" lon="5.78645">
        <ele>1146.5</ele>
        <time>2025-10-05T11:06:39Z</time>
      </trkpt>
      <trkpt lat="43.33365" lon="5.78645">
        <ele>1146.5</ele>
        <time>2025-10-05T11:06:40Z</time>
      </trkpt>
      <trkpt lat="43.33365" lon="5.78645">
        <ele>1146.5</ele>
        <time>2025-10-05T11:06:41Z</time>
      </trkpt>
      <trkpt lat="43.33365" lon="5.78645">
        <ele>1146.6</ele>
        <time>2025-10-05T11:06:42Z</time>
      </trkpt>
      <trkpt lat="43.33365" lon="5.78645">
        <ele>1146.6</ele>
        <time>2025-10-05T11:06:43Z</time>
      </trkpt>
      <trkpt lat="43.33365" lon="5.78645">
        <ele>1146.7</ele>
        <time>2025-10-05T11:06:44Z</time>
      </trkpt>
      <trkpt lat="43.33365" lon="5.78645">
        <ele>1146.8</ele>
        <time>2025-10-05T11:06:45Z</time>
      </trkpt>
      <trkpt lat="43.33365" lon="5.78645">
        <ele>1146.8</ele>
        <time>2025-10-05T11:06:46Z</time>
      </trkpt>
      <trkpt lat="43.33365" lon="5.78645">
        <ele>1146.9</ele>
        <time>2025-10-05T11:06:47Z</time>
      </trkpt>
      <trkpt lat="43.33365" lon="5.78645">
        <ele>1147</ele>
        <time>2025-10-05T11:06:48Z</time>
      </trkpt>
      <trkpt lat="43.33365" lon="5.78644">
        <ele>1146.9</ele>
        <time>2025-10-05T11:06:49Z</time>
      </trkpt>
      <trkpt lat="43.33365" lon="5.78644">
        <ele>1146.8</ele>
        <time>2025-10-05T11:06:50Z</time>
      </trkpt>
      <trkpt lat="43.33365" lon="5.78643">
        <ele>1146.9</ele>
        <time>2025-10-05T11:06:51Z</time>
      </trkpt>
      <trkpt lat="43.33365" lon="5.78642">
        <ele>1146.9</ele>
        <time>2025-10-05T11:06:52Z</time>
      </trkpt>
      <trkpt lat="43.33364" lon="5.78641">
        <ele>1147.1</ele>
        <time>2025-10-05T11:06:53Z</time>
      </trkpt>
      <trkpt lat="43.33365" lon="5.78639">
        <ele>1147.4</ele>
        <time>2025-10-05T11:06:54Z</time>
      </trkpt>
      <trkpt lat="43.33364" lon="5.78638">
        <ele>1147.7</ele>
        <time>2025-10-05T11:06:55Z</time>
      </trkpt>
      <trkpt lat="43.33364" lon="5.78637">
        <ele>1148</ele>
        <time>2025-10-05T11:06:56Z</time>
      </trkpt>
      <trkpt lat="43.33364" lon="5.78637">
        <ele>1148</ele>
        <time>2025-10-05T11:06:57Z</time>
      </trkpt>
      <trkpt lat="43.33364" lon="5.78637">
        <ele>1147.9</ele>
        <time>2025-10-05T11:06:58Z</time>
      </trkpt>
      <trkpt lat="43.33364" lon="5.78637">
        <ele>1148.1</ele>
        <time>2025-10-05T11:06:59Z</time>
      </trkpt>
      <trkpt lat="43.33365" lon="5.78637">
        <ele>1148.2</ele>
        <time>2025-10-05T11:07:00Z</time>
      </trkpt>
      <trkpt lat="43.33365" lon="5.78637">
        <ele>1148.2</ele>
        <time>2025-10-05T11:07:01Z</time>
      </trkpt>
      <trkpt lat="43.33365" lon="5.78636">
        <ele>1148.5</ele>
        <time>2025-10-05T11:07:02Z</time>
      </trkpt>
      <trkpt lat="43.33365" lon="5.78635">
        <ele>1148.6</ele>
        <time>2025-10-05T11:07:03Z</time>
      </trkpt>
      <trkpt lat="43.33365" lon="5.78635">
        <ele>1148.7</ele>
        <time>2025-10-05T11:07:04Z</time>
      </trkpt>
      <trkpt lat="43.33365" lon="5.78635">
        <ele>1148.8</ele>
        <time>2025-10-05T11:07:05Z</time>
      </trkpt>
      <trkpt lat="43.33365" lon="5.78635">
        <ele>1148.9</ele>
        <time>2025-10-05T11:07:06Z</time>
      </trkpt>
      <trkpt lat="43.33365" lon="5.78635">
        <ele>1148.9</ele>
        <time>2025-10-05T11:07:07Z</time>
      </trkpt>
      <trkpt lat="43.33366" lon="5.78634">
        <ele>1148.7</ele>
        <time>2025-10-05T11:07:08Z</time>
      </trkpt>
      <trkpt lat="43.33366" lon="5.78634">
        <ele>1148.4</ele>
        <time>2025-10-05T11:07:09Z</time>
      </trkpt>
      <trkpt lat="43.33366" lon="5.78633">
        <ele>1148.3</ele>
        <time>2025-10-05T11:07:10Z</time>
      </trkpt>
      <trkpt lat="43.33366" lon="5.78632">
        <ele>1148.2</ele>
        <time>2025-10-05T11:07:11Z</time>
      </trkpt>
      <trkpt lat="43.33365" lon="5.78632">
        <ele>1148</ele>
        <time>2025-10-05T11:07:12Z</time>
      </trkpt>
      <trkpt lat="43.33365" lon="5.78632">
        <ele>1148</ele>
        <time>2025-10-05T11:07:13Z</time>
      </trkpt>
      <trkpt lat="43.33365" lon="5.78632">
        <ele>1147.8</ele>
        <time>2025-10-05T11:07:14Z</time>
      </trkpt>
      <trkpt lat="43.33366" lon="5.78632">
        <ele>1147.6</ele>
        <time>2025-10-05T11:07:15Z</time>
      </trkpt>
      <trkpt lat="43.33366" lon="5.78632">
        <ele>1147.5</ele>
        <time>2025-10-05T11:07:16Z</time>
      </trkpt>
      <trkpt lat="43.33366" lon="5.78631">
        <ele>1147.3</ele>
        <time>2025-10-05T11:07:17Z</time>
      </trkpt>
      <trkpt lat="43.33366" lon="5.78631">
        <ele>1147.4</ele>
        <time>2025-10-05T11:07:18Z</time>
      </trkpt>
      <trkpt lat="43.33366" lon="5.7863">
        <ele>1147.3</ele>
        <time>2025-10-05T11:07:19Z</time>
      </trkpt>
      <trkpt lat="43.33366" lon="5.78629">
        <ele>1147.2</ele>
        <time>2025-10-05T11:07:20Z</time>
      </trkpt>
      <trkpt lat="43.33365" lon="5.78629">
        <ele>1147.1</ele>
        <time>2025-10-05T11:07:21Z</time>
      </trkpt>
      <trkpt lat="43.33365" lon="5.78628">
        <ele>1146.9</ele>
        <time>2025-10-05T11:07:22Z</time>
      </trkpt>
      <trkpt lat="43.33364" lon="5.78626">
        <ele>1146.6</ele>
        <time>2025-10-05T11:07:23Z</time>
      </trkpt>
      <trkpt lat="43.33364" lon="5.78625">
        <ele>1146.9</ele>
        <time>2025-10-05T11:07:24Z</time>
      </trkpt>
      <trkpt lat="43.33363" lon="5.78625">
        <ele>1146.6</ele>
        <time>2025-10-05T11:07:25Z</time>
      </trkpt>
      <trkpt lat="43.33363" lon="5.78624">
        <ele>1146.5</ele>
        <time>2025-10-05T11:07:26Z</time>
      </trkpt>
      <trkpt lat="43.33363" lon="5.78623">
        <ele>1146.5</ele>
        <time>2025-10-05T11:07:27Z</time>
      </trkpt>
      <trkpt lat="43.33364" lon="5.78622">
        <ele>1146.6</ele>
        <time>2025-10-05T11:07:28Z</time>
      </trkpt>
      <trkpt lat="43.33364" lon="5.78621">
        <ele>1146.8</ele>
        <time>2025-10-05T11:07:29Z</time>
      </trkpt>
      <trkpt lat="43.33364" lon="5.7862">
        <ele>1146.4</ele>
        <time>2025-10-05T11:07:30Z</time>
      </trkpt>
      <trkpt lat="43.33363" lon="5.7862">
        <ele>1147.2</ele>
        <time>2025-10-05T11:07:31Z</time>
      </trkpt>
      <trkpt lat="43.33363" lon="5.78618">
        <ele>1147.4</ele>
        <time>2025-10-05T11:07:32Z</time>
      </trkpt>
      <trkpt lat="43.33363" lon="5.78617">
        <ele>1147.5</ele>
        <time>2025-10-05T11:07:33Z</time>
      </trkpt>
      <trkpt lat="43.33363" lon="5.78616">
        <ele>1147.7</ele>
        <time>2025-10-05T11:07:34Z</time>
      </trkpt>
      <trkpt lat="43.33363" lon="5.78616">
        <ele>1147.7</ele>
        <time>2025-10-05T11:07:35Z</time>
      </trkpt>
      <trkpt lat="43.33362" lon="5.78614">
        <ele>1147.7</ele>
        <time>2025-10-05T11:07:36Z</time>
      </trkpt>
      <trkpt lat="43.33362" lon="5.78614">
        <ele>1147.5</ele>
        <time>2025-10-05T11:07:37Z</time>
      </trkpt>
      <trkpt lat="43.33362" lon="5.78613">
        <ele>1147</ele>
        <time>2025-10-05T11:07:38Z</time>
      </trkpt>
      <trkpt lat="43.33361" lon="5.78613">
        <ele>1146.7</ele>
        <time>2025-10-05T11:07:39Z</time>
      </trkpt>
      <trkpt lat="43.3336" lon="5.78612">
        <ele>1146.1</ele>
        <time>2025-10-05T11:07:40Z</time>
      </trkpt>
      <trkpt lat="43.3336" lon="5.78611">
        <ele>1145.7</ele>
        <time>2025-10-05T11:07:41Z</time>
      </trkpt>
      <trkpt lat="43.33359" lon="5.7861">
        <ele>1145.3</ele>
        <time>2025-10-05T11:07:42Z</time>
      </trkpt>
      <trkpt lat="43.33359" lon="5.78609">
        <ele>1145.1</ele>
        <time>2025-10-05T11:07:43Z</time>
      </trkpt>
      <trkpt lat="43.33359" lon="5.78609">
        <ele>1144.8</ele>
        <time>2025-10-05T11:07:44Z</time>
      </trkpt>
      <trkpt lat="43.33359" lon="5.78608">
        <ele>1144.7</ele>
        <time>2025-10-05T11:07:45Z</time>
      </trkpt>
      <trkpt lat="43.33359" lon="5.78607">
        <ele>1144.7</ele>
        <time>2025-10-05T11:07:46Z</time>
      </trkpt>
      <trkpt lat="43.33359" lon="5.78606">
        <ele>1144.3</ele>
        <time>2025-10-05T11:07:47Z</time>
      </trkpt>
      <trkpt lat="43.33359" lon="5.78606">
        <ele>1144.3</ele>
        <time>2025-10-05T11:07:48Z</time>
      </trkpt>
      <trkpt lat="43.33359" lon="5.78605">
        <ele>1144.4</ele>
        <time>2025-10-05T11:07:49Z</time>
      </trkpt>
      <trkpt lat="43.33359" lon="5.78604">
        <ele>1144.9</ele>
        <time>2025-10-05T11:07:50Z</time>
      </trkpt>
      <trkpt lat="43.33359" lon="5.78603">
        <ele>1144.7</ele>
        <time>2025-10-05T11:07:51Z</time>
      </trkpt>
      <trkpt lat="43.33359" lon="5.78602">
        <ele>1144.4</ele>
        <time>2025-10-05T11:07:52Z</time>
      </trkpt>
      <trkpt lat="43.33359" lon="5.78601">
        <ele>1144.1</ele>
        <time>2025-10-05T11:07:53Z</time>
      </trkpt>
      <trkpt lat="43.33358" lon="5.786">
        <ele>1143.9</ele>
        <time>2025-10-05T11:07:54Z</time>
      </trkpt>
      <trkpt lat="43.33358" lon="5.78599">
        <ele>1143.9</ele>
        <time>2025-10-05T11:07:55Z</time>
      </trkpt>
      <trkpt lat="43.33358" lon="5.78598">
        <ele>1143.9</ele>
        <time>2025-10-05T11:07:56Z</time>
      </trkpt>
      <trkpt lat="43.33358" lon="5.78597">
        <ele>1144.1</ele>
        <time>2025-10-05T11:07:57Z</time>
      </trkpt>
      <trkpt lat="43.33357" lon="5.78596">
        <ele>1144</ele>
        <time>2025-10-05T11:07:58Z</time>
      </trkpt>
      <trkpt lat="43.33357" lon="5.78596">
        <ele>1143.6</ele>
        <time>2025-10-05T11:07:59Z</time>
      </trkpt>
      <trkpt lat="43.33357" lon="5.78595">
        <ele>1143.6</ele>
        <time>2025-10-05T11:08:00Z</time>
      </trkpt>
      <trkpt lat="43.33356" lon="5.78594">
        <ele>1143.5</ele>
        <time>2025-10-05T11:08:01Z</time>
      </trkpt>
      <trkpt lat="43.33356" lon="5.78594">
        <ele>1143.1</ele>
        <time>2025-10-05T11:08:02Z</time>
      </trkpt>
      <trkpt lat="43.33355" lon="5.78593">
        <ele>1142.7</ele>
        <time>2025-10-05T11:08:03Z</time>
      </trkpt>
      <trkpt lat="43.33355" lon="5.78592">
        <ele>1142.4</ele>
        <time>2025-10-05T11:08:04Z</time>
      </trkpt>
      <trkpt lat="43.33355" lon="5.78592">
        <ele>1142.1</ele>
        <time>2025-10-05T11:08:05Z</time>
      </trkpt>
      <trkpt lat="43.33355" lon="5.78591">
        <ele>1141.9</ele>
        <time>2025-10-05T11:08:06Z</time>
      </trkpt>
      <trkpt lat="43.33354" lon="5.78591">
        <ele>1141.7</ele>
        <time>2025-10-05T11:08:07Z</time>
      </trkpt>
      <trkpt lat="43.33354" lon="5.78591">
        <ele>1141.2</ele>
        <time>2025-10-05T11:08:08Z</time>
      </trkpt>
      <trkpt lat="43.33353" lon="5.78591">
        <ele>1141.2</ele>
        <time>2025-10-05T11:08:09Z</time>
      </trkpt>
      <trkpt lat="43.33353" lon="5.7859">
        <ele>1140.8</ele>
        <time>2025-10-05T11:08:10Z</time>
      </trkpt>
      <trkpt lat="43.33352" lon="5.78589">
        <ele>1140.5</ele>
        <time>2025-10-05T11:08:11Z</time>
      </trkpt>
      <trkpt lat="43.33352" lon="5.78589">
        <ele>1140.2</ele>
        <time>2025-10-05T11:08:12Z</time>
      </trkpt>
      <trkpt lat="43.33351" lon="5.78588">
        <ele>1139.9</ele>
        <time>2025-10-05T11:08:13Z</time>
      </trkpt>
      <trkpt lat="43.33351" lon="5.78588">
        <ele>1139.6</ele>
        <time>2025-10-05T11:08:14Z</time>
      </trkpt>
      <trkpt lat="43.33351" lon="5.78587">
        <ele>1139.3</ele>
        <time>2025-10-05T11:08:15Z</time>
      </trkpt>
      <trkpt lat="43.33351" lon="5.78587">
        <ele>1139.1</ele>
        <time>2025-10-05T11:08:16Z</time>
      </trkpt>
      <trkpt lat="43.33351" lon="5.78587">
        <ele>1139</ele>
        <time>2025-10-05T11:08:17Z</time>
      </trkpt>
      <trkpt lat="43.33351" lon="5.78587">
        <ele>1138.9</ele>
        <time>2025-10-05T11:08:18Z</time>
      </trkpt>
      <trkpt lat="43.3335" lon="5.78587">
        <ele>1138.8</ele>
        <time>2025-10-05T11:08:19Z</time>
      </trkpt>
      <trkpt lat="43.3335" lon="5.78587">
        <ele>1138.9</ele>
        <time>2025-10-05T11:08:20Z</time>
      </trkpt>
      <trkpt lat="43.3335" lon="5.78586">
        <ele>1138.9</ele>
        <time>2025-10-05T11:08:21Z</time>
      </trkpt>
      <trkpt lat="43.3335" lon="5.78586">
        <ele>1138.9</ele>
        <time>2025-10-05T11:08:22Z</time>
      </trkpt>
      <trkpt lat="43.3335" lon="5.78586">
        <ele>1138.7</ele>
        <time>2025-10-05T11:08:23Z</time>
      </trkpt>
      <trkpt lat="43.3335" lon="5.78586">
        <ele>1138.6</ele>
        <time>2025-10-05T11:08:24Z</time>
      </trkpt>
      <trkpt lat="43.3335" lon="5.78586">
        <ele>1138.5</ele>
        <time>2025-10-05T11:08:25Z</time>
      </trkpt>
      <trkpt lat="43.3335" lon="5.78586">
        <ele>1138.5</ele>
        <time>2025-10-05T11:08:26Z</time>
      </trkpt>
      <trkpt lat="43.3335" lon="5.78586">
        <ele>1138.4</ele>
        <time>2025-10-05T11:08:27Z</time>
      </trkpt>
      <trkpt lat="43.3335" lon="5.78586">
        <ele>1138.3</ele>
        <time>2025-10-05T11:08:28Z</time>
      </trkpt>
      <trkpt lat="43.3335" lon="5.78586">
        <ele>1138.4</ele>
        <time>2025-10-05T11:08:29Z</time>
      </trkpt>
      <trkpt lat="43.3335" lon="5.78586">
        <ele>1138.3</ele>
        <time>2025-10-05T11:08:30Z</time>
      </trkpt>
      <trkpt lat="43.3335" lon="5.78586">
        <ele>1138.4</ele>
        <time>2025-10-05T11:08:31Z</time>
      </trkpt>
      <trkpt lat="43.3335" lon="5.78586">
        <ele>1138.4</ele>
        <time>2025-10-05T11:08:32Z</time>
      </trkpt>
      <trkpt lat="43.3335" lon="5.78586">
        <ele>1138.4</ele>
        <time>2025-10-05T11:08:33Z</time>
      </trkpt>
      <trkpt lat="43.3335" lon="5.78586">
        <ele>1138.3</ele>
        <time>2025-10-05T11:08:34Z</time>
      </trkpt>
      <trkpt lat="43.3335" lon="5.78586">
        <ele>1138.2</ele>
        <time>2025-10-05T11:08:35Z</time>
      </trkpt>
      <trkpt lat="43.3335" lon="5.78586">
        <ele>1138.1</ele>
        <time>2025-10-05T11:08:36Z</time>
      </trkpt>
      <trkpt lat="43.3335" lon="5.78586">
        <ele>1138</ele>
        <time>2025-10-05T11:08:37Z</time>
      </trkpt>
      <trkpt lat="43.3335" lon="5.78586">
        <ele>1137.9</ele>
        <time>2025-10-05T11:08:38Z</time>
      </trkpt>
      <trkpt lat="43.3335" lon="5.78586">
        <ele>1137.8</ele>
        <time>2025-10-05T11:08:39Z</time>
      </trkpt>
      <trkpt lat="43.3335" lon="5.78585">
        <ele>1137.7</ele>
        <time>2025-10-05T11:08:40Z</time>
      </trkpt>
      <trkpt lat="43.3335" lon="5.78585">
        <ele>1137.7</ele>
        <time>2025-10-05T11:08:41Z</time>
      </trkpt>
      <trkpt lat="43.3335" lon="5.78584">
        <ele>1137.8</ele>
        <time>2025-10-05T11:08:42Z</time>
      </trkpt>
      <trkpt lat="43.3335" lon="5.78583">
        <ele>1138</ele>
        <time>2025-10-05T11:08:43Z</time>
      </trkpt>
      <trkpt lat="43.3335" lon="5.78582">
        <ele>1138</ele>
        <time>2025-10-05T11:08:44Z</time>
      </trkpt>
      <trkpt lat="43.33349" lon="5.78582">
        <ele>1138</ele>
        <time>2025-10-05T11:08:45Z</time>
      </trkpt>
      <trkpt lat="43.33349" lon="5.78581">
        <ele>1138</ele>
        <time>2025-10-05T11:08:46Z</time>
      </trkpt>
      <trkpt lat="43.33349" lon="5.7858">
        <ele>1138</ele>
        <time>2025-10-05T11:08:47Z</time>
      </trkpt>
      <trkpt lat="43.33349" lon="5.78579">
        <ele>1138</ele>
        <time>2025-10-05T11:08:48Z</time>
      </trkpt>
      <trkpt lat="43.33349" lon="5.78578">
        <ele>1138.1</ele>
        <time>2025-10-05T11:08:49Z</time>
      </trkpt>
      <trkpt lat="43.33349" lon="5.78577">
        <ele>1138.3</ele>
        <time>2025-10-05T11:08:50Z</time>
      </trkpt>
      <trkpt lat="43.33348" lon="5.78577">
        <ele>1138.5</ele>
        <time>2025-10-05T11:08:51Z</time>
      </trkpt>
      <trkpt lat="43.33348" lon="5.78577">
        <ele>1138.5</ele>
        <time>2025-10-05T11:08:52Z</time>
      </trkpt>
      <trkpt lat="43.33347" lon="5.78577">
        <ele>1138.5</ele>
        <time>2025-10-05T11:08:53Z</time>
      </trkpt>
      <trkpt lat="43.33347" lon="5.78576">
        <ele>1138.5</ele>
        <time>2025-10-05T11:08:54Z</time>
      </trkpt>
      <trkpt lat="43.33347" lon="5.78575">
        <ele>1138.5</ele>
        <time>2025-10-05T11:08:55Z</time>
      </trkpt>
      <trkpt lat="43.33347" lon="5.78574">
        <ele>1138.5</ele>
        <time>2025-10-05T11:08:56Z</time>
      </trkpt>
      <trkpt lat="43.33347" lon="5.78573">
        <ele>1138.3</ele>
        <time>2025-10-05T11:08:57Z</time>
      </trkpt>
      <trkpt lat="43.33346" lon="5.78571">
        <ele>1138.1</ele>
        <time>2025-10-05T11:08:58Z</time>
      </trkpt>
      <trkpt lat="43.33345" lon="5.7857">
        <ele>1138.1</ele>
        <time>2025-10-05T11:08:59Z</time>
      </trkpt>
      <trkpt lat="43.33345" lon="5.7857">
        <ele>1138</ele>
        <time>2025-10-05T11:09:00Z</time>
      </trkpt>
      <trkpt lat="43.33345" lon="5.78569">
        <ele>1137.9</ele>
        <time>2025-10-05T11:09:01Z</time>
      </trkpt>
      <trkpt lat="43.33345" lon="5.78569">
        <ele>1138.2</ele>
        <time>2025-10-05T11:09:02Z</time>
      </trkpt>
      <trkpt lat="43.33345" lon="5.78568">
        <ele>1138.3</ele>
        <time>2025-10-05T11:09:03Z</time>
      </trkpt>
      <trkpt lat="43.33345" lon="5.78568">
        <ele>1138.3</ele>
        <time>2025-10-05T11:09:04Z</time>
      </trkpt>
      <trkpt lat="43.33345" lon="5.78568">
        <ele>1138.4</ele>
        <time>2025-10-05T11:09:05Z</time>
      </trkpt>
      <trkpt lat="43.33345" lon="5.78568">
        <ele>1138.4</ele>
        <time>2025-10-05T11:09:06Z</time>
      </trkpt>
      <trkpt lat="43.33345" lon="5.78568">
        <ele>1138.3</ele>
        <time>2025-10-05T11:09:07Z</time>
      </trkpt>
      <trkpt lat="43.33345" lon="5.78567">
        <ele>1138</ele>
        <time>2025-10-05T11:09:08Z</time>
      </trkpt>
      <trkpt lat="43.33344" lon="5.78566">
        <ele>1137.8</ele>
        <time>2025-10-05T11:09:09Z</time>
      </trkpt>
      <trkpt lat="43.33344" lon="5.78567">
        <ele>1137.7</ele>
        <time>2025-10-05T11:09:10Z</time>
      </trkpt>
      <trkpt lat="43.33344" lon="5.78567">
        <ele>1138</ele>
        <time>2025-10-05T11:09:11Z</time>
      </trkpt>
      <trkpt lat="43.33343" lon="5.78567">
        <ele>1138</ele>
        <time>2025-10-05T11:09:12Z</time>
      </trkpt>
      <trkpt lat="43.33343" lon="5.78567">
        <ele>1137.7</ele>
        <time>2025-10-05T11:09:13Z</time>
      </trkpt>
      <trkpt lat="43.33343" lon="5.78568">
        <ele>1137.5</ele>
        <time>2025-10-05T11:09:14Z</time>
      </trkpt>
      <trkpt lat="43.33342" lon="5.78567">
        <ele>1137.2</ele>
        <time>2025-10-05T11:09:15Z</time>
      </trkpt>
      <trkpt lat="43.33342" lon="5.78567">
        <ele>1137.1</ele>
        <time>2025-10-05T11:09:16Z</time>
      </trkpt>
      <trkpt lat="43.33341" lon="5.78567">
        <ele>1137</ele>
        <time>2025-10-05T11:09:17Z</time>
      </trkpt>
      <trkpt lat="43.33341" lon="5.78567">
        <ele>1136.4</ele>
        <time>2025-10-05T11:09:18Z</time>
      </trkpt>
      <trkpt lat="43.3334" lon="5.78566">
        <ele>1135.8</ele>
        <time>2025-10-05T11:09:19Z</time>
      </trkpt>
      <trkpt lat="43.3334" lon="5.78565">
        <ele>1136.4</ele>
        <time>2025-10-05T11:09:20Z</time>
      </trkpt>
      <trkpt lat="43.33339" lon="5.78565">
        <ele>1136.3</ele>
        <time>2025-10-05T11:09:21Z</time>
      </trkpt>
      <trkpt lat="43.33338" lon="5.78565">
        <ele>1136.1</ele>
        <time>2025-10-05T11:09:22Z</time>
      </trkpt>
      <trkpt lat="43.33338" lon="5.78565">
        <ele>1136.1</ele>
        <time>2025-10-05T11:09:23Z</time>
      </trkpt>
      <trkpt lat="43.33338" lon="5.78565">
        <ele>1135.9</ele>
        <time>2025-10-05T11:09:24Z</time>
      </trkpt>
      <trkpt lat="43.33337" lon="5.78565">
        <ele>1135.6</ele>
        <time>2025-10-05T11:09:25Z</time>
      </trkpt>
      <trkpt lat="43.33337" lon="5.78565">
        <ele>1135.5</ele>
        <time>2025-10-05T11:09:26Z</time>
      </trkpt>
      <trkpt lat="43.33337" lon="5.78565">
        <ele>1135.2</ele>
        <time>2025-10-05T11:09:27Z</time>
      </trkpt>
      <trkpt lat="43.33337" lon="5.78565">
        <ele>1134.9</ele>
        <time>2025-10-05T11:09:28Z</time>
      </trkpt>
      <trkpt lat="43.33337" lon="5.78564">
        <ele>1134.7</ele>
        <time>2025-10-05T11:09:29Z</time>
      </trkpt>
      <trkpt lat="43.33337" lon="5.78564">
        <ele>1134.3</ele>
        <time>2025-10-05T11:09:30Z</time>
      </trkpt>
      <trkpt lat="43.33337" lon="5.78564">
        <ele>1134</ele>
        <time>2025-10-05T11:09:31Z</time>
      </trkpt>
      <trkpt lat="43.33337" lon="5.78564">
        <ele>1133.7</ele>
        <time>2025-10-05T11:09:32Z</time>
      </trkpt>
      <trkpt lat="43.33337" lon="5.78564">
        <ele>1133.5</ele>
        <time>2025-10-05T11:09:33Z</time>
      </trkpt>
      <trkpt lat="43.33337" lon="5.78564">
        <ele>1133.2</ele>
        <time>2025-10-05T11:09:34Z</time>
      </trkpt>
      <trkpt lat="43.33337" lon="5.78564">
        <ele>1133.1</ele>
        <time>2025-10-05T11:09:35Z</time>
      </trkpt>
      <trkpt lat="43.33337" lon="5.78565">
        <ele>1133.1</ele>
        <time>2025-10-05T11:09:36Z</time>
      </trkpt>
      <trkpt lat="43.33337" lon="5.78565">
        <ele>1132.8</ele>
        <time>2025-10-05T11:09:37Z</time>
      </trkpt>
      <trkpt lat="43.33337" lon="5.78565">
        <ele>1132.7</ele>
        <time>2025-10-05T11:09:38Z</time>
      </trkpt>
      <trkpt lat="43.33337" lon="5.78565">
        <ele>1132.6</ele>
        <time>2025-10-05T11:09:39Z</time>
      </trkpt>
      <trkpt lat="43.33337" lon="5.78565">
        <ele>1132.6</ele>
        <time>2025-10-05T11:09:40Z</time>
      </trkpt>
      <trkpt lat="43.33337" lon="5.78565">
        <ele>1132.4</ele>
        <time>2025-10-05T11:09:41Z</time>
      </trkpt>
      <trkpt lat="43.33337" lon="5.78565">
        <ele>1132.4</ele>
        <time>2025-10-05T11:09:42Z</time>
      </trkpt>
      <trkpt lat="43.33337" lon="5.78565">
        <ele>1132.4</ele>
        <time>2025-10-05T11:09:43Z</time>
      </trkpt>
      <trkpt lat="43.33337" lon="5.78564">
        <ele>1132.6</ele>
        <time>2025-10-05T11:09:44Z</time>
      </trkpt>
      <trkpt lat="43.33336" lon="5.78563">
        <ele>1132.7</ele>
        <time>2025-10-05T11:09:45Z</time>
      </trkpt>
      <trkpt lat="43.33336" lon="5.78563">
        <ele>1132.7</ele>
        <time>2025-10-05T11:09:46Z</time>
      </trkpt>
      <trkpt lat="43.33337" lon="5.78563">
        <ele>1132.7</ele>
        <time>2025-10-05T11:09:47Z</time>
      </trkpt>
      <trkpt lat="43.33336" lon="5.78563">
        <ele>1132.7</ele>
        <time>2025-10-05T11:09:48Z</time>
      </trkpt>
      <trkpt lat="43.33336" lon="5.78563">
        <ele>1132.6</ele>
        <time>2025-10-05T11:09:49Z</time>
      </trkpt>
      <trkpt lat="43.33336" lon="5.78563">
        <ele>1132.6</ele>
        <time>2025-10-05T11:09:50Z</time>
      </trkpt>
      <trkpt lat="43.33336" lon="5.78563">
        <ele>1132.6</ele>
        <time>2025-10-05T11:09:51Z</time>
      </trkpt>
      <trkpt lat="43.33336" lon="5.78563">
        <ele>1132.6</ele>
        <time>2025-10-05T11:09:52Z</time>
      </trkpt>
      <trkpt lat="43.33336" lon="5.78563">
        <ele>1132.7</ele>
        <time>2025-10-05T11:09:53Z</time>
      </trkpt>
      <trkpt lat="43.33336" lon="5.78562">
        <ele>1132.7</ele>
        <time>2025-10-05T11:09:54Z</time>
      </trkpt>
      <trkpt lat="43.33336" lon="5.78562">
        <ele>1132.5</ele>
        <time>2025-10-05T11:09:55Z</time>
      </trkpt>
      <trkpt lat="43.33336" lon="5.78562">
        <ele>1132.4</ele>
        <time>2025-10-05T11:09:56Z</time>
      </trkpt>
      <trkpt lat="43.33336" lon="5.78561">
        <ele>1132.3</ele>
        <time>2025-10-05T11:09:57Z</time>
      </trkpt>
      <trkpt lat="43.33336" lon="5.7856">
        <ele>1132.2</ele>
        <time>2025-10-05T11:09:58Z</time>
      </trkpt>
      <trkpt lat="43.33336" lon="5.78559">
        <ele>1132.2</ele>
        <time>2025-10-05T11:09:59Z</time>
      </trkpt>
      <trkpt lat="43.33335" lon="5.78558">
        <ele>1132.3</ele>
        <time>2025-10-05T11:10:00Z</time>
      </trkpt>
      <trkpt lat="43.33335" lon="5.78557">
        <ele>1132.4</ele>
        <time>2025-10-05T11:10:01Z</time>
      </trkpt>
      <trkpt lat="43.33335" lon="5.78556">
        <ele>1132.4</ele>
        <time>2025-10-05T11:10:02Z</time>
      </trkpt>
      <trkpt lat="43.33335" lon="5.78555">
        <ele>1132.3</ele>
        <time>2025-10-05T11:10:03Z</time>
      </trkpt>
      <trkpt lat="43.33334" lon="5.78554">
        <ele>1132.1</ele>
        <time>2025-10-05T11:10:04Z</time>
      </trkpt>
      <trkpt lat="43.33334" lon="5.78553">
        <ele>1132</ele>
        <time>2025-10-05T11:10:05Z</time>
      </trkpt>
      <trkpt lat="43.33334" lon="5.78552">
        <ele>1131.9</ele>
        <time>2025-10-05T11:10:06Z</time>
      </trkpt>
      <trkpt lat="43.33334" lon="5.78552">
        <ele>1131.8</ele>
        <time>2025-10-05T11:10:07Z</time>
      </trkpt>
      <trkpt lat="43.33333" lon="5.78551">
        <ele>1131.7</ele>
        <time>2025-10-05T11:10:08Z</time>
      </trkpt>
      <trkpt lat="43.33332" lon="5.7855">
        <ele>1131.6</ele>
        <time>2025-10-05T11:10:09Z</time>
      </trkpt>
      <trkpt lat="43.33332" lon="5.78549">
        <ele>1131.6</ele>
        <time>2025-10-05T11:10:10Z</time>
      </trkpt>
      <trkpt lat="43.33332" lon="5.78548">
        <ele>1131.6</ele>
        <time>2025-10-05T11:10:11Z</time>
      </trkpt>
      <trkpt lat="43.33331" lon="5.78547">
        <ele>1131.6</ele>
        <time>2025-10-05T11:10:12Z</time>
      </trkpt>
      <trkpt lat="43.3333" lon="5.78546">
        <ele>1131.6</ele>
        <time>2025-10-05T11:10:13Z</time>
      </trkpt>
      <trkpt lat="43.3333" lon="5.78545">
        <ele>1131.5</ele>
        <time>2025-10-05T11:10:14Z</time>
      </trkpt>
      <trkpt lat="43.3333" lon="5.78544">
        <ele>1131.5</ele>
        <time>2025-10-05T11:10:15Z</time>
      </trkpt>
      <trkpt lat="43.3333" lon="5.78544">
        <ele>1131.5</ele>
        <time>2025-10-05T11:10:16Z</time>
      </trkpt>
      <trkpt lat="43.3333" lon="5.78544">
        <ele>1131.6</ele>
        <time>2025-10-05T11:10:17Z</time>
      </trkpt>
      <trkpt lat="43.33329" lon="5.78544">
        <ele>1131.6</ele>
        <time>2025-10-05T11:10:18Z</time>
      </trkpt>
      <trkpt lat="43.33329" lon="5.78543">
        <ele>1131.7</ele>
        <time>2025-10-05T11:10:19Z</time>
      </trkpt>
      <trkpt lat="43.33329" lon="5.78543">
        <ele>1131.8</ele>
        <time>2025-10-05T11:10:20Z</time>
      </trkpt>
      <trkpt lat="43.33329" lon="5.78543">
        <ele>1131.9</ele>
        <time>2025-10-05T11:10:21Z</time>
      </trkpt>
      <trkpt lat="43.33329" lon="5.78541">
        <ele>1132</ele>
        <time>2025-10-05T11:10:22Z</time>
      </trkpt>
      <trkpt lat="43.33328" lon="5.78541">
        <ele>1132</ele>
        <time>2025-10-05T11:10:23Z</time>
      </trkpt>
      <trkpt lat="43.33328" lon="5.7854">
        <ele>1131.9</ele>
        <time>2025-10-05T11:10:24Z</time>
      </trkpt>
      <trkpt lat="43.33327" lon="5.78539">
        <ele>1131.8</ele>
        <time>2025-10-05T11:10:25Z</time>
      </trkpt>
      <trkpt lat="43.33327" lon="5.78538">
        <ele>1131.7</ele>
        <time>2025-10-05T11:10:26Z</time>
      </trkpt>
      <trkpt lat="43.33327" lon="5.78538">
        <ele>1131.7</ele>
        <time>2025-10-05T11:10:27Z</time>
      </trkpt>
      <trkpt lat="43.33326" lon="5.78537">
        <ele>1131.6</ele>
        <time>2025-10-05T11:10:28Z</time>
      </trkpt>
      <trkpt lat="43.33326" lon="5.78536">
        <ele>1131.7</ele>
        <time>2025-10-05T11:10:29Z</time>
      </trkpt>
      <trkpt lat="43.33325" lon="5.78535">
        <ele>1131.7</ele>
        <time>2025-10-05T11:10:30Z</time>
      </trkpt>
      <trkpt lat="43.33325" lon="5.78534">
        <ele>1131.7</ele>
        <time>2025-10-05T11:10:31Z</time>
      </trkpt>
      <trkpt lat="43.33324" lon="5.78533">
        <ele>1131.5</ele>
        <time>2025-10-05T11:10:32Z</time>
      </trkpt>
      <trkpt lat="43.33324" lon="5.78532">
        <ele>1131.7</ele>
        <time>2025-10-05T11:10:33Z</time>
      </trkpt>
      <trkpt lat="43.33324" lon="5.78531">
        <ele>1131.9</ele>
        <time>2025-10-05T11:10:34Z</time>
      </trkpt>
      <trkpt lat="43.33324" lon="5.7853">
        <ele>1132.4</ele>
        <time>2025-10-05T11:10:35Z</time>
      </trkpt>
      <trkpt lat="43.33323" lon="5.7853">
        <ele>1132.7</ele>
        <time>2025-10-05T11:10:36Z</time>
      </trkpt>
      <trkpt lat="43.33323" lon="5.78529">
        <ele>1132.8</ele>
        <time>2025-10-05T11:10:37Z</time>
      </trkpt>
      <trkpt lat="43.33323" lon="5.78529">
        <ele>1132.7</ele>
        <time>2025-10-05T11:10:38Z</time>
      </trkpt>
      <trkpt lat="43.33322" lon="5.78528">
        <ele>1132.5</ele>
        <time>2025-10-05T11:10:39Z</time>
      </trkpt>
      <trkpt lat="43.33322" lon="5.78527">
        <ele>1132.2</ele>
        <time>2025-10-05T11:10:40Z</time>
      </trkpt>
      <trkpt lat="43.33322" lon="5.78526">
        <ele>1132</ele>
        <time>2025-10-05T11:10:41Z</time>
      </trkpt>
      <trkpt lat="43.33321" lon="5.78525">
        <ele>1131.7</ele>
        <time>2025-10-05T11:10:42Z</time>
      </trkpt>
      <trkpt lat="43.33321" lon="5.78525">
        <ele>1131.5</ele>
        <time>2025-10-05T11:10:43Z</time>
      </trkpt>
      <trkpt lat="43.3332" lon="5.78524">
        <ele>1131.6</ele>
        <time>2025-10-05T11:10:44Z</time>
      </trkpt>
      <trkpt lat="43.3332" lon="5.78523">
        <ele>1131.6</ele>
        <time>2025-10-05T11:10:45Z</time>
      </trkpt>
      <trkpt lat="43.33319" lon="5.78523">
        <ele>1131.4</ele>
        <time>2025-10-05T11:10:46Z</time>
      </trkpt>
      <trkpt lat="43.33319" lon="5.78522">
        <ele>1131.2</ele>
        <time>2025-10-05T11:10:47Z</time>
      </trkpt>
      <trkpt lat="43.33319" lon="5.78522">
        <ele>1130.9</ele>
        <time>2025-10-05T11:10:48Z</time>
      </trkpt>
      <trkpt lat="43.33319" lon="5.78521">
        <ele>1130.8</ele>
        <time>2025-10-05T11:10:49Z</time>
      </trkpt>
      <trkpt lat="43.33319" lon="5.7852">
        <ele>1130.7</ele>
        <time>2025-10-05T11:10:50Z</time>
      </trkpt>
      <trkpt lat="43.33319" lon="5.7852">
        <ele>1130.6</ele>
        <time>2025-10-05T11:10:51Z</time>
      </trkpt>
      <trkpt lat="43.33319" lon="5.7852">
        <ele>1130.5</ele>
        <time>2025-10-05T11:10:52Z</time>
      </trkpt>
      <trkpt lat="43.33319" lon="5.7852">
        <ele>1130.5</ele>
        <time>2025-10-05T11:10:53Z</time>
      </trkpt>
      <trkpt lat="43.33319" lon="5.78519">
        <ele>1130.5</ele>
        <time>2025-10-05T11:10:54Z</time>
      </trkpt>
      <trkpt lat="43.33319" lon="5.78519">
        <ele>1130.4</ele>
        <time>2025-10-05T11:10:55Z</time>
      </trkpt>
      <trkpt lat="43.33319" lon="5.78518">
        <ele>1130.5</ele>
        <time>2025-10-05T11:10:56Z</time>
      </trkpt>
      <trkpt lat="43.33318" lon="5.78517">
        <ele>1130.4</ele>
        <time>2025-10-05T11:10:57Z</time>
      </trkpt>
      <trkpt lat="43.33318" lon="5.78515">
        <ele>1130.4</ele>
        <time>2025-10-05T11:10:58Z</time>
      </trkpt>
      <trkpt lat="43.33317" lon="5.78514">
        <ele>1130</ele>
        <time>2025-10-05T11:10:59Z</time>
      </trkpt>
      <trkpt lat="43.33316" lon="5.78513">
        <ele>1129.8</ele>
        <time>2025-10-05T11:11:00Z</time>
      </trkpt>
      <trkpt lat="43.33316" lon="5.78513">
        <ele>1129.6</ele>
        <time>2025-10-05T11:11:01Z</time>
      </trkpt>
      <trkpt lat="43.33316" lon="5.78512">
        <ele>1129.6</ele>
        <time>2025-10-05T11:11:02Z</time>
      </trkpt>
      <trkpt lat="43.33316" lon="5.78511">
        <ele>1129.6</ele>
        <time>2025-10-05T11:11:03Z</time>
      </trkpt>
      <trkpt lat="43.33316" lon="5.7851">
        <ele>1129.4</ele>
        <time>2025-10-05T11:11:04Z</time>
      </trkpt>
      <trkpt lat="43.33316" lon="5.78509">
        <ele>1129.2</ele>
        <time>2025-10-05T11:11:05Z</time>
      </trkpt>
      <trkpt lat="43.33315" lon="5.78508">
        <ele>1129</ele>
        <time>2025-10-05T11:11:06Z</time>
      </trkpt>
      <trkpt lat="43.33315" lon="5.78507">
        <ele>1128.9</ele>
        <time>2025-10-05T11:11:07Z</time>
      </trkpt>
      <trkpt lat="43.33315" lon="5.78506">
        <ele>1128.8</ele>
        <time>2025-10-05T11:11:08Z</time>
      </trkpt>
      <trkpt lat="43.33314" lon="5.78505">
        <ele>1129.1</ele>
        <time>2025-10-05T11:11:09Z</time>
      </trkpt>
      <trkpt lat="43.33314" lon="5.78504">
        <ele>1129.2</ele>
        <time>2025-10-05T11:11:10Z</time>
      </trkpt>
      <trkpt lat="43.33313" lon="5.78504">
        <ele>1129.1</ele>
        <time>2025-10-05T11:11:11Z</time>
      </trkpt>
      <trkpt lat="43.33313" lon="5.78503">
        <ele>1128.9</ele>
        <time>2025-10-05T11:11:12Z</time>
      </trkpt>
      <trkpt lat="43.33312" lon="5.78502">
        <ele>1128.3</ele>
        <time>2025-10-05T11:11:13Z</time>
      </trkpt>
      <trkpt lat="43.33312" lon="5.78502">
        <ele>1127.5</ele>
        <time>2025-10-05T11:11:14Z</time>
      </trkpt>
      <trkpt lat="43.33312" lon="5.78502">
        <ele>1127.1</ele>
        <time>2025-10-05T11:11:15Z</time>
      </trkpt>
      <trkpt lat="43.33313" lon="5.78502">
        <ele>1127.3</ele>
        <time>2025-10-05T11:11:16Z</time>
      </trkpt>
      <trkpt lat="43.33313" lon="5.78502">
        <ele>1127.6</ele>
        <time>2025-10-05T11:11:17Z</time>
      </trkpt>
      <trkpt lat="43.33313" lon="5.78501">
        <ele>1128.4</ele>
        <time>2025-10-05T11:11:18Z</time>
      </trkpt>
      <trkpt lat="43.33313" lon="5.78502">
        <ele>1128.4</ele>
        <time>2025-10-05T11:11:19Z</time>
      </trkpt>
      <trkpt lat="43.33312" lon="5.78502">
        <ele>1128.1</ele>
        <time>2025-10-05T11:11:20Z</time>
      </trkpt>
      <trkpt lat="43.33312" lon="5.78502">
        <ele>1128.1</ele>
        <time>2025-10-05T11:11:21Z</time>
      </trkpt>
      <trkpt lat="43.33311" lon="5.78503">
        <ele>1127.4</ele>
        <time>2025-10-05T11:11:22Z</time>
      </trkpt>
      <trkpt lat="43.33311" lon="5.78503">
        <ele>1127.4</ele>
        <time>2025-10-05T11:11:23Z</time>
      </trkpt>
      <trkpt lat="43.3331" lon="5.78503">
        <ele>1127.4</ele>
        <time>2025-10-05T11:11:24Z</time>
      </trkpt>
      <trkpt lat="43.3331" lon="5.78503">
        <ele>1127.3</ele>
        <time>2025-10-05T11:11:25Z</time>
      </trkpt>
      <trkpt lat="43.33309" lon="5.78502">
        <ele>1127.1</ele>
        <time>2025-10-05T11:11:26Z</time>
      </trkpt>
      <trkpt lat="43.33309" lon="5.78501">
        <ele>1127.2</ele>
        <time>2025-10-05T11:11:27Z</time>
      </trkpt>
      <trkpt lat="43.33309" lon="5.78501">
        <ele>1127.3</ele>
        <time>2025-10-05T11:11:28Z</time>
      </trkpt>
      <trkpt lat="43.33309" lon="5.785">
        <ele>1127.4</ele>
        <time>2025-10-05T11:11:29Z</time>
      </trkpt>
      <trkpt lat="43.33309" lon="5.785">
        <ele>1127.5</ele>
        <time>2025-10-05T11:11:30Z</time>
      </trkpt>
      <trkpt lat="43.33309" lon="5.78499">
        <ele>1127.4</ele>
        <time>2025-10-05T11:11:31Z</time>
      </trkpt>
      <trkpt lat="43.33309" lon="5.78499">
        <ele>1127.3</ele>
        <time>2025-10-05T11:11:32Z</time>
      </trkpt>
      <trkpt lat="43.33309" lon="5.78499">
        <ele>1127.4</ele>
        <time>2025-10-05T11:11:33Z</time>
      </trkpt>
      <trkpt lat="43.33309" lon="5.78499">
        <ele>1127.5</ele>
        <time>2025-10-05T11:11:34Z</time>
      </trkpt>
      <trkpt lat="43.33309" lon="5.78499">
        <ele>1128.1</ele>
        <time>2025-10-05T11:11:35Z</time>
      </trkpt>
      <trkpt lat="43.33309" lon="5.78499">
        <ele>1128.2</ele>
        <time>2025-10-05T11:11:36Z</time>
      </trkpt>
      <trkpt lat="43.33309" lon="5.78499">
        <ele>1128.3</ele>
        <time>2025-10-05T11:11:37Z</time>
      </trkpt>
      <trkpt lat="43.3331" lon="5.78499">
        <ele>1127.9</ele>
        <time>2025-10-05T11:11:38Z</time>
      </trkpt>
      <trkpt lat="43.3331" lon="5.78499">
        <ele>1127.5</ele>
        <time>2025-10-05T11:11:39Z</time>
      </trkpt>
      <trkpt lat="43.33311" lon="5.78498">
        <ele>1127.3</ele>
        <time>2025-10-05T11:11:40Z</time>
      </trkpt>
      <trkpt lat="43.33311" lon="5.78498">
        <ele>1127.1</ele>
        <time>2025-10-05T11:11:41Z</time>
      </trkpt>
      <trkpt lat="43.33311" lon="5.78498">
        <ele>1127.3</ele>
        <time>2025-10-05T11:11:42Z</time>
      </trkpt>
      <trkpt lat="43.33311" lon="5.78498">
        <ele>1127.8</ele>
        <time>2025-10-05T11:11:43Z</time>
      </trkpt>
      <trkpt lat="43.33311" lon="5.78498">
        <ele>1128.6</ele>
        <time>2025-10-05T11:11:44Z</time>
      </trkpt>
      <trkpt lat="43.33311" lon="5.78498">
        <ele>1129.7</ele>
        <time>2025-10-05T11:11:45Z</time>
      </trkpt>
      <trkpt lat="43.33311" lon="5.78498">
        <ele>1129.6</ele>
        <time>2025-10-05T11:11:46Z</time>
      </trkpt>
      <trkpt lat="43.33311" lon="5.78498">
        <ele>1129.7</ele>
        <time>2025-10-05T11:11:47Z</time>
      </trkpt>
      <trkpt lat="43.33311" lon="5.78498">
        <ele>1129.7</ele>
        <time>2025-10-05T11:11:48Z</time>
      </trkpt>
      <trkpt lat="43.33311" lon="5.78498">
        <ele>1129.7</ele>
        <time>2025-10-05T11:11:49Z</time>
      </trkpt>
      <trkpt lat="43.33311" lon="5.78498">
        <ele>1130.4</ele>
        <time>2025-10-05T11:11:50Z</time>
      </trkpt>
      <trkpt lat="43.33311" lon="5.78498">
        <ele>1130.3</ele>
        <time>2025-10-05T11:11:51Z</time>
      </trkpt>
      <trkpt lat="43.33311" lon="5.78498">
        <ele>1130.8</ele>
        <time>2025-10-05T11:11:52Z</time>
      </trkpt>
      <trkpt lat="43.33311" lon="5.78497">
        <ele>1130.8</ele>
        <time>2025-10-05T11:11:53Z</time>
      </trkpt>
      <trkpt lat="43.33311" lon="5.78497">
        <ele>1130.4</ele>
        <time>2025-10-05T11:11:54Z</time>
      </trkpt>
      <trkpt lat="43.33311" lon="5.78496">
        <ele>1129.4</ele>
        <time>2025-10-05T11:11:55Z</time>
      </trkpt>
      <trkpt lat="43.33311" lon="5.78496">
        <ele>1128.5</ele>
        <time>2025-10-05T11:11:56Z</time>
      </trkpt>
      <trkpt lat="43.33312" lon="5.78496">
        <ele>1127.5</ele>
        <time>2025-10-05T11:11:57Z</time>
      </trkpt>
      <trkpt lat="43.33311" lon="5.78496">
        <ele>1127.4</ele>
        <time>2025-10-05T11:11:58Z</time>
      </trkpt>
      <trkpt lat="43.33311" lon="5.78496">
        <ele>1127.4</ele>
        <time>2025-10-05T11:11:59Z</time>
      </trkpt>
      <trkpt lat="43.33311" lon="5.78496">
        <ele>1127.4</ele>
        <time>2025-10-05T11:12:00Z</time>
      </trkpt>
      <trkpt lat="43.33311" lon="5.78496">
        <ele>1127.4</ele>
        <time>2025-10-05T11:12:01Z</time>
      </trkpt>
      <trkpt lat="43.33311" lon="5.78496">
        <ele>1128.1</ele>
        <time>2025-10-05T11:12:02Z</time>
      </trkpt>
      <trkpt lat="43.33311" lon="5.78495">
        <ele>1128.4</ele>
        <time>2025-10-05T11:12:03Z</time>
      </trkpt>
      <trkpt lat="43.33311" lon="5.78495">
        <ele>1128</ele>
        <time>2025-10-05T11:12:04Z</time>
      </trkpt>
      <trkpt lat="43.33311" lon="5.78495">
        <ele>1127.5</ele>
        <time>2025-10-05T11:12:05Z</time>
      </trkpt>
      <trkpt lat="43.33311" lon="5.78496">
        <ele>1127.4</ele>
        <time>2025-10-05T11:12:06Z</time>
      </trkpt>
      <trkpt lat="43.33311" lon="5.78496">
        <ele>1126.9</ele>
        <time>2025-10-05T11:12:07Z</time>
      </trkpt>
      <trkpt lat="43.33311" lon="5.78496">
        <ele>1126.8</ele>
        <time>2025-10-05T11:12:08Z</time>
      </trkpt>
      <trkpt lat="43.33312" lon="5.78496">
        <ele>1126</ele>
        <time>2025-10-05T11:12:09Z</time>
      </trkpt>
      <trkpt lat="43.33312" lon="5.78495">
        <ele>1125.6</ele>
        <time>2025-10-05T11:12:10Z</time>
      </trkpt>
      <trkpt lat="43.33312" lon="5.78495">
        <ele>1124.6</ele>
        <time>2025-10-05T11:12:11Z</time>
      </trkpt>
      <trkpt lat="43.33312" lon="5.78495">
        <ele>1123.8</ele>
        <time>2025-10-05T11:12:12Z</time>
      </trkpt>
      <trkpt lat="43.33313" lon="5.78495">
        <ele>1123.3</ele>
        <time>2025-10-05T11:12:13Z</time>
      </trkpt>
      <trkpt lat="43.33313" lon="5.78494">
        <ele>1123.6</ele>
        <time>2025-10-05T11:12:14Z</time>
      </trkpt>
      <trkpt lat="43.33313" lon="5.78494">
        <ele>1123.8</ele>
        <time>2025-10-05T11:12:15Z</time>
      </trkpt>
      <trkpt lat="43.33313" lon="5.78494">
        <ele>1123</ele>
        <time>2025-10-05T11:12:16Z</time>
      </trkpt>
      <trkpt lat="43.33313" lon="5.78494">
        <ele>1123.1</ele>
        <time>2025-10-05T11:12:17Z</time>
      </trkpt>
      <trkpt lat="43.33313" lon="5.78495">
        <ele>1122.9</ele>
        <time>2025-10-05T11:12:18Z</time>
      </trkpt>
      <trkpt lat="43.33313" lon="5.78495">
        <ele>1123.1</ele>
        <time>2025-10-05T11:12:19Z</time>
      </trkpt>
      <trkpt lat="43.33314" lon="5.78495">
        <ele>1123.1</ele>
        <time>2025-10-05T11:12:20Z</time>
      </trkpt>
      <trkpt lat="43.33313" lon="5.78495">
        <ele>1121.7</ele>
        <time>2025-10-05T11:12:21Z</time>
      </trkpt>
      <trkpt lat="43.33314" lon="5.78494">
        <ele>1121.4</ele>
        <time>2025-10-05T11:12:22Z</time>
      </trkpt>
      <trkpt lat="43.33313" lon="5.78494">
        <ele>1121.6</ele>
        <time>2025-10-05T11:12:23Z</time>
      </trkpt>
      <trkpt lat="43.33313" lon="5.78494">
        <ele>1122.1</ele>
        <time>2025-10-05T11:12:24Z</time>
      </trkpt>
      <trkpt lat="43.33314" lon="5.78494">
        <ele>1122.2</ele>
        <time>2025-10-05T11:12:25Z</time>
      </trkpt>
      <trkpt lat="43.33314" lon="5.78494">
        <ele>1122.3</ele>
        <time>2025-10-05T11:12:26Z</time>
      </trkpt>
      <trkpt lat="43.33314" lon="5.78493">
        <ele>1122.2</ele>
        <time>2025-10-05T11:12:27Z</time>
      </trkpt>
      <trkpt lat="43.33314" lon="5.78493">
        <ele>1122.4</ele>
        <time>2025-10-05T11:12:28Z</time>
      </trkpt>
      <trkpt lat="43.33314" lon="5.78493">
        <ele>1122.7</ele>
        <time>2025-10-05T11:12:29Z</time>
      </trkpt>
      <trkpt lat="43.33314" lon="5.78493">
        <ele>1122.5</ele>
        <time>2025-10-05T11:12:30Z</time>
      </trkpt>
      <trkpt lat="43.33314" lon="5.78492">
        <ele>1122.8</ele>
        <time>2025-10-05T11:12:31Z</time>
      </trkpt>
      <trkpt lat="43.33314" lon="5.78492">
        <ele>1122</ele>
        <time>2025-10-05T11:12:32Z</time>
      </trkpt>
      <trkpt lat="43.33314" lon="5.78491">
        <ele>1122</ele>
        <time>2025-10-05T11:12:33Z</time>
      </trkpt>
      <trkpt lat="43.33314" lon="5.78491">
        <ele>1121.6</ele>
        <time>2025-10-05T11:12:34Z</time>
      </trkpt>
      <trkpt lat="43.33314" lon="5.78491">
        <ele>1122.6</ele>
        <time>2025-10-05T11:12:35Z</time>
      </trkpt>
      <trkpt lat="43.33314" lon="5.78491">
        <ele>1122.6</ele>
        <time>2025-10-05T11:12:36Z</time>
      </trkpt>
      <trkpt lat="43.33314" lon="5.78492">
        <ele>1123.6</ele>
        <time>2025-10-05T11:12:37Z</time>
      </trkpt>
      <trkpt lat="43.33315" lon="5.78491">
        <ele>1125</ele>
        <time>2025-10-05T11:12:38Z</time>
      </trkpt>
      <trkpt lat="43.33315" lon="5.7849">
        <ele>1125.7</ele>
        <time>2025-10-05T11:12:39Z</time>
      </trkpt>
      <trkpt lat="43.33315" lon="5.7849">
        <ele>1125.9</ele>
        <time>2025-10-05T11:12:40Z</time>
      </trkpt>
      <trkpt lat="43.33316" lon="5.7849">
        <ele>1126.7</ele>
        <time>2025-10-05T11:12:41Z</time>
      </trkpt>
      <trkpt lat="43.33316" lon="5.7849">
        <ele>1126.9</ele>
        <time>2025-10-05T11:12:42Z</time>
      </trkpt>
      <trkpt lat="43.33315" lon="5.78489">
        <ele>1126.9</ele>
        <time>2025-10-05T11:12:43Z</time>
      </trkpt>
      <trkpt lat="43.33315" lon="5.78489">
        <ele>1127</ele>
        <time>2025-10-05T11:12:44Z</time>
      </trkpt>
      <trkpt lat="43.33315" lon="5.78488">
        <ele>1126.4</ele>
        <time>2025-10-05T11:12:45Z</time>
      </trkpt>
      <trkpt lat="43.33315" lon="5.78488">
        <ele>1126.2</ele>
        <time>2025-10-05T11:12:46Z</time>
      </trkpt>
      <trkpt lat="43.33315" lon="5.78489">
        <ele>1125.9</ele>
        <time>2025-10-05T11:12:47Z</time>
      </trkpt>
      <trkpt lat="43.33316" lon="5.78488">
        <ele>1125.8</ele>
        <time>2025-10-05T11:12:48Z</time>
      </trkpt>
      <trkpt lat="43.33316" lon="5.78488">
        <ele>1125.4</ele>
        <time>2025-10-05T11:12:49Z</time>
      </trkpt>
      <trkpt lat="43.33316" lon="5.78489">
        <ele>1125.2</ele>
        <time>2025-10-05T11:12:50Z</time>
      </trkpt>
      <trkpt lat="43.33316" lon="5.78488">
        <ele>1124.9</ele>
        <time>2025-10-05T11:12:51Z</time>
      </trkpt>
      <trkpt lat="43.33316" lon="5.78488">
        <ele>1124.6</ele>
        <time>2025-10-05T11:12:52Z</time>
      </trkpt>
      <trkpt lat="43.33316" lon="5.78489">
        <ele>1124.7</ele>
        <time>2025-10-05T11:12:53Z</time>
      </trkpt>
      <trkpt lat="43.33316" lon="5.78489">
        <ele>1124.8</ele>
        <time>2025-10-05T11:12:54Z</time>
      </trkpt>
      <trkpt lat="43.33316" lon="5.78489">
        <ele>1124.6</ele>
        <time>2025-10-05T11:12:55Z</time>
      </trkpt>
      <trkpt lat="43.33316" lon="5.78489">
        <ele>1124.7</ele>
        <time>2025-10-05T11:12:56Z</time>
      </trkpt>
      <trkpt lat="43.33316" lon="5.78489">
        <ele>1124.9</ele>
        <time>2025-10-05T11:12:57Z</time>
      </trkpt>
      <trkpt lat="43.33317" lon="5.78489">
        <ele>1124.8</ele>
        <time>2025-10-05T11:12:58Z</time>
      </trkpt>
      <trkpt lat="43.33317" lon="5.78489">
        <ele>1124.3</ele>
        <time>2025-10-05T11:12:59Z</time>
      </trkpt>
      <trkpt lat="43.33316" lon="5.78489">
        <ele>1123.9</ele>
        <time>2025-10-05T11:13:00Z</time>
      </trkpt>
      <trkpt lat="43.33316" lon="5.7849">
        <ele>1123.7</ele>
        <time>2025-10-05T11:13:01Z</time>
      </trkpt>
      <trkpt lat="43.33316" lon="5.7849">
        <ele>1123.6</ele>
        <time>2025-10-05T11:13:02Z</time>
      </trkpt>
      <trkpt lat="43.33316" lon="5.78491">
        <ele>1123.3</ele>
        <time>2025-10-05T11:13:03Z</time>
      </trkpt>
      <trkpt lat="43.33317" lon="5.78491">
        <ele>1123.7</ele>
        <time>2025-10-05T11:13:04Z</time>
      </trkpt>
      <trkpt lat="43.33317" lon="5.78492">
        <ele>1124</ele>
        <time>2025-10-05T11:13:05Z</time>
      </trkpt>
      <trkpt lat="43.33317" lon="5.78492">
        <ele>1124.4</ele>
        <time>2025-10-05T11:13:06Z</time>
      </trkpt>
      <trkpt lat="43.33318" lon="5.78492">
        <ele>1124.2</ele>
        <time>2025-10-05T11:13:07Z</time>
      </trkpt>
      <trkpt lat="43.33318" lon="5.78492">
        <ele>1123.1</ele>
        <time>2025-10-05T11:13:08Z</time>
      </trkpt>
      <trkpt lat="43.33318" lon="5.78492">
        <ele>1123.3</ele>
        <time>2025-10-05T11:13:09Z</time>
      </trkpt>
      <trkpt lat="43.33317" lon="5.78492">
        <ele>1123.7</ele>
        <time>2025-10-05T11:13:10Z</time>
      </trkpt>
      <trkpt lat="43.33317" lon="5.78492">
        <ele>1122.4</ele>
        <time>2025-10-05T11:13:11Z</time>
      </trkpt>
      <trkpt lat="43.33317" lon="5.78492">
        <ele>1122.1</ele>
        <time>2025-10-05T11:13:12Z</time>
      </trkpt>
      <trkpt lat="43.33317" lon="5.78492">
        <ele>1122</ele>
        <time>2025-10-05T11:13:13Z</time>
      </trkpt>
      <trkpt lat="43.33317" lon="5.78492">
        <ele>1122</ele>
        <time>2025-10-05T11:13:14Z</time>
      </trkpt>
      <trkpt lat="43.33317" lon="5.78492">
        <ele>1122.7</ele>
        <time>2025-10-05T11:13:15Z</time>
      </trkpt>
      <trkpt lat="43.33318" lon="5.78492">
        <ele>1122.9</ele>
        <time>2025-10-05T11:13:16Z</time>
      </trkpt>
      <trkpt lat="43.33318" lon="5.78492">
        <ele>1122.9</ele>
        <time>2025-10-05T11:13:17Z</time>
      </trkpt>
      <trkpt lat="43.33318" lon="5.78491">
        <ele>1122.8</ele>
        <time>2025-10-05T11:13:18Z</time>
      </trkpt>
      <trkpt lat="43.33318" lon="5.78491">
        <ele>1122.3</ele>
        <time>2025-10-05T11:13:19Z</time>
      </trkpt>
      <trkpt lat="43.33318" lon="5.78491">
        <ele>1122.2</ele>
        <time>2025-10-05T11:13:20Z</time>
      </trkpt>
      <trkpt lat="43.33318" lon="5.78491">
        <ele>1122.8</ele>
        <time>2025-10-05T11:13:21Z</time>
      </trkpt>
      <trkpt lat="43.33317" lon="5.78491">
        <ele>1121.9</ele>
        <time>2025-10-05T11:13:22Z</time>
      </trkpt>
      <trkpt lat="43.33317" lon="5.7849">
        <ele>1121.5</ele>
        <time>2025-10-05T11:13:23Z</time>
      </trkpt>
      <trkpt lat="43.33316" lon="5.7849">
        <ele>1122</ele>
        <time>2025-10-05T11:13:24Z</time>
      </trkpt>
      <trkpt lat="43.33315" lon="5.7849">
        <ele>1122.4</ele>
        <time>2025-10-05T11:13:25Z</time>
      </trkpt>
      <trkpt lat="43.33315" lon="5.7849">
        <ele>1122.4</ele>
        <time>2025-10-05T11:13:26Z</time>
      </trkpt>
      <trkpt lat="43.33315" lon="5.7849">
        <ele>1122.5</ele>
        <time>2025-10-05T11:13:27Z</time>
      </trkpt>
      <trkpt lat="43.33315" lon="5.7849">
        <ele>1121.8</ele>
        <time>2025-10-05T11:13:28Z</time>
      </trkpt>
      <trkpt lat="43.33315" lon="5.78489">
        <ele>1121.6</ele>
        <time>2025-10-05T11:13:29Z</time>
      </trkpt>
      <trkpt lat="43.33315" lon="5.78489">
        <ele>1122</ele>
        <time>2025-10-05T11:13:30Z</time>
      </trkpt>
      <trkpt lat="43.33315" lon="5.78489">
        <ele>1122.5</ele>
        <time>2025-10-05T11:13:31Z</time>
      </trkpt>
      <trkpt lat="43.33315" lon="5.78489">
        <ele>1122.7</ele>
        <time>2025-10-05T11:13:32Z</time>
      </trkpt>
      <trkpt lat="43.33315" lon="5.78489">
        <ele>1122.7</ele>
        <time>2025-10-05T11:13:33Z</time>
      </trkpt>
      <trkpt lat="43.33316" lon="5.78489">
        <ele>1122.7</ele>
        <time>2025-10-05T11:13:34Z</time>
      </trkpt>
      <trkpt lat="43.33316" lon="5.78488">
        <ele>1122</ele>
        <time>2025-10-05T11:13:35Z</time>
      </trkpt>
      <trkpt lat="43.33316" lon="5.78488">
        <ele>1122</ele>
        <time>2025-10-05T11:13:36Z</time>
      </trkpt>
      <trkpt lat="43.33316" lon="5.78488">
        <ele>1122.1</ele>
        <time>2025-10-05T11:13:37Z</time>
      </trkpt>
      <trkpt lat="43.33316" lon="5.78488">
        <ele>1122.4</ele>
        <time>2025-10-05T11:13:38Z</time>
      </trkpt>
      <trkpt lat="43.33316" lon="5.78488">
        <ele>1122.7</ele>
        <time>2025-10-05T11:13:39Z</time>
      </trkpt>
      <trkpt lat="43.33316" lon="5.78488">
        <ele>1122.5</ele>
        <time>2025-10-05T11:13:40Z</time>
      </trkpt>
      <trkpt lat="43.33316" lon="5.78488">
        <ele>1123</ele>
        <time>2025-10-05T11:13:41Z</time>
      </trkpt>
      <trkpt lat="43.33316" lon="5.78488">
        <ele>1122.9</ele>
        <time>2025-10-05T11:13:42Z</time>
      </trkpt>
      <trkpt lat="43.33316" lon="5.78489">
        <ele>1122.8</ele>
        <time>2025-10-05T11:13:43Z</time>
      </trkpt>
      <trkpt lat="43.33316" lon="5.78489">
        <ele>1123.1</ele>
        <time>2025-10-05T11:13:44Z</time>
      </trkpt>
      <trkpt lat="43.33316" lon="5.78489">
        <ele>1123.5</ele>
        <time>2025-10-05T11:13:45Z</time>
      </trkpt>
      <trkpt lat="43.33316" lon="5.78489">
        <ele>1123.7</ele>
        <time>2025-10-05T11:13:46Z</time>
      </trkpt>
      <trkpt lat="43.33316" lon="5.78488">
        <ele>1123.7</ele>
        <time>2025-10-05T11:13:47Z</time>
      </trkpt>
      <trkpt lat="43.33315" lon="5.78488">
        <ele>1123.7</ele>
        <time>2025-10-05T11:13:48Z</time>
      </trkpt>
      <trkpt lat="43.33315" lon="5.78489">
        <ele>1123.6</ele>
        <time>2025-10-05T11:13:49Z</time>
      </trkpt>
      <trkpt lat="43.33315" lon="5.78489">
        <ele>1123.5</ele>
        <time>2025-10-05T11:13:50Z</time>
      </trkpt>
      <trkpt lat="43.33315" lon="5.78488">
        <ele>1122.7</ele>
        <time>2025-10-05T11:13:51Z</time>
      </trkpt>
      <trkpt lat="43.33315" lon="5.78488">
        <ele>1122.5</ele>
        <time>2025-10-05T11:13:52Z</time>
      </trkpt>
      <trkpt lat="43.33315" lon="5.78488">
        <ele>1122.4</ele>
        <time>2025-10-05T11:13:53Z</time>
      </trkpt>
      <trkpt lat="43.33316" lon="5.78488">
        <ele>1122.1</ele>
        <time>2025-10-05T11:13:54Z</time>
      </trkpt>
      <trkpt lat="43.33316" lon="5.78488">
        <ele>1122.1</ele>
        <time>2025-10-05T11:13:55Z</time>
      </trkpt>
      <trkpt lat="43.33316" lon="5.78488">
        <ele>1122.2</ele>
        <time>2025-10-05T11:13:56Z</time>
      </trkpt>
      <trkpt lat="43.33316" lon="5.78488">
        <ele>1122.3</ele>
        <time>2025-10-05T11:13:57Z</time>
      </trkpt>
      <trkpt lat="43.33316" lon="5.78488">
        <ele>1121.7</ele>
        <time>2025-10-05T11:13:58Z</time>
      </trkpt>
      <trkpt lat="43.33316" lon="5.78488">
        <ele>1121.7</ele>
        <time>2025-10-05T11:13:59Z</time>
      </trkpt>
      <trkpt lat="43.33316" lon="5.78488">
        <ele>1121.1</ele>
        <time>2025-10-05T11:14:00Z</time>
      </trkpt>
      <trkpt lat="43.33316" lon="5.78488">
        <ele>1121.2</ele>
        <time>2025-10-05T11:14:01Z</time>
      </trkpt>
      <trkpt lat="43.33316" lon="5.78487">
        <ele>1121.4</ele>
        <time>2025-10-05T11:14:02Z</time>
      </trkpt>
      <trkpt lat="43.33316" lon="5.78488">
        <ele>1121.6</ele>
        <time>2025-10-05T11:14:03Z</time>
      </trkpt>
      <trkpt lat="43.33316" lon="5.78488">
        <ele>1121</ele>
        <time>2025-10-05T11:14:04Z</time>
      </trkpt>
      <trkpt lat="43.33316" lon="5.78488">
        <ele>1121.6</ele>
        <time>2025-10-05T11:14:05Z</time>
      </trkpt>
      <trkpt lat="43.33317" lon="5.78488">
        <ele>1121.5</ele>
        <time>2025-10-05T11:14:06Z</time>
      </trkpt>
      <trkpt lat="43.33316" lon="5.78488">
        <ele>1121.7</ele>
        <time>2025-10-05T11:14:07Z</time>
      </trkpt>
      <trkpt lat="43.33316" lon="5.78488">
        <ele>1121.9</ele>
        <time>2025-10-05T11:14:08Z</time>
      </trkpt>
      <trkpt lat="43.33316" lon="5.78488">
        <ele>1122.2</ele>
        <time>2025-10-05T11:14:09Z</time>
      </trkpt>
      <trkpt lat="43.33316" lon="5.78488">
        <ele>1122.4</ele>
        <time>2025-10-05T11:14:10Z</time>
      </trkpt>
      <trkpt lat="43.33316" lon="5.78488">
        <ele>1122.4</ele>
        <time>2025-10-05T11:14:11Z</time>
      </trkpt>
      <trkpt lat="43.33316" lon="5.78487">
        <ele>1122.5</ele>
        <time>2025-10-05T11:14:12Z</time>
      </trkpt>
      <trkpt lat="43.33316" lon="5.78487">
        <ele>1122.6</ele>
        <time>2025-10-05T11:14:13Z</time>
      </trkpt>
      <trkpt lat="43.33317" lon="5.78487">
        <ele>1122.9</ele>
        <time>2025-10-05T11:14:14Z</time>
      </trkpt>
      <trkpt lat="43.33316" lon="5.78487">
        <ele>1122.7</ele>
        <time>2025-10-05T11:14:15Z</time>
      </trkpt>
      <trkpt lat="43.33316" lon="5.78486">
        <ele>1122.8</ele>
        <time>2025-10-05T11:14:16Z</time>
      </trkpt>
      <trkpt lat="43.33316" lon="5.78486">
        <ele>1122.1</ele>
        <time>2025-10-05T11:14:17Z</time>
      </trkpt>
      <trkpt lat="43.33316" lon="5.78486">
        <ele>1121.9</ele>
        <time>2025-10-05T11:14:18Z</time>
      </trkpt>
      <trkpt lat="43.33316" lon="5.78486">
        <ele>1122.2</ele>
        <time>2025-10-05T11:14:19Z</time>
      </trkpt>
      <trkpt lat="43.33316" lon="5.78486">
        <ele>1122.4</ele>
        <time>2025-10-05T11:14:20Z</time>
      </trkpt>
      <trkpt lat="43.33316" lon="5.78486">
        <ele>1122.4</ele>
        <time>2025-10-05T11:14:21Z</time>
      </trkpt>
      <trkpt lat="43.33316" lon="5.78486">
        <ele>1121</ele>
        <time>2025-10-05T11:14:22Z</time>
      </trkpt>
      <trkpt lat="43.33316" lon="5.78486">
        <ele>1121.4</ele>
        <time>2025-10-05T11:14:23Z</time>
      </trkpt>
      <trkpt lat="43.33316" lon="5.78486">
        <ele>1120.8</ele>
        <time>2025-10-05T11:14:24Z</time>
      </trkpt>
      <trkpt lat="43.33317" lon="5.78486">
        <ele>1121.1</ele>
        <time>2025-10-05T11:14:25Z</time>
      </trkpt>
      <trkpt lat="43.33317" lon="5.78487">
        <ele>1120.9</ele>
        <time>2025-10-05T11:14:26Z</time>
      </trkpt>
      <trkpt lat="43.33316" lon="5.78487">
        <ele>1120.6</ele>
        <time>2025-10-05T11:14:27Z</time>
      </trkpt>
      <trkpt lat="43.33317" lon="5.78487">
        <ele>1120.3</ele>
        <time>2025-10-05T11:14:28Z</time>
      </trkpt>
      <trkpt lat="43.33317" lon="5.78487">
        <ele>1120.7</ele>
        <time>2025-10-05T11:14:29Z</time>
      </trkpt>
      <trkpt lat="43.33317" lon="5.78488">
        <ele>1121.1</ele>
        <time>2025-10-05T11:14:30Z</time>
      </trkpt>
      <trkpt lat="43.33317" lon="5.78487">
        <ele>1121.1</ele>
        <time>2025-10-05T11:14:31Z</time>
      </trkpt>
      <trkpt lat="43.33317" lon="5.78487">
        <ele>1120.9</ele>
        <time>2025-10-05T11:14:32Z</time>
      </trkpt>
      <trkpt lat="43.33317" lon="5.78487">
        <ele>1121.2</ele>
        <time>2025-10-05T11:14:33Z</time>
      </trkpt>
      <trkpt lat="43.33317" lon="5.78487">
        <ele>1121.4</ele>
        <time>2025-10-05T11:14:34Z</time>
      </trkpt>
      <trkpt lat="43.33317" lon="5.78487">
        <ele>1121.2</ele>
        <time>2025-10-05T11:14:35Z</time>
      </trkpt>
      <trkpt lat="43.33317" lon="5.78488">
        <ele>1120.9</ele>
        <time>2025-10-05T11:14:36Z</time>
      </trkpt>
      <trkpt lat="43.33317" lon="5.78488">
        <ele>1120.9</ele>
        <time>2025-10-05T11:14:37Z</time>
      </trkpt>
      <trkpt lat="43.33317" lon="5.78487">
        <ele>1121</ele>
        <time>2025-10-05T11:14:38Z</time>
      </trkpt>
      <trkpt lat="43.33317" lon="5.78488">
        <ele>1120.4</ele>
        <time>2025-10-05T11:14:39Z</time>
      </trkpt>
      <trkpt lat="43.33317" lon="5.78488">
        <ele>1120.8</ele>
        <time>2025-10-05T11:14:40Z</time>
      </trkpt>
      <trkpt lat="43.33317" lon="5.78488">
        <ele>1120.9</ele>
        <time>2025-10-05T11:14:41Z</time>
      </trkpt>
      <trkpt lat="43.33317" lon="5.78488">
        <ele>1120.9</ele>
        <time>2025-10-05T11:14:42Z</time>
      </trkpt>
      <trkpt lat="43.33317" lon="5.78488">
        <ele>1120.7</ele>
        <time>2025-10-05T11:14:43Z</time>
      </trkpt>
      <trkpt lat="43.33317" lon="5.78488">
        <ele>1120.4</ele>
        <time>2025-10-05T11:14:44Z</time>
      </trkpt>
      <trkpt lat="43.33317" lon="5.78487">
        <ele>1120.1</ele>
        <time>2025-10-05T11:14:45Z</time>
      </trkpt>
      <trkpt lat="43.33317" lon="5.78487">
        <ele>1120.5</ele>
        <time>2025-10-05T11:14:46Z</time>
      </trkpt>
      <trkpt lat="43.33317" lon="5.78487">
        <ele>1120.8</ele>
        <time>2025-10-05T11:14:47Z</time>
      </trkpt>
      <trkpt lat="43.33317" lon="5.78487">
        <ele>1121.1</ele>
        <time>2025-10-05T11:14:48Z</time>
      </trkpt>
      <trkpt lat="43.33316" lon="5.78487">
        <ele>1122.3</ele>
        <time>2025-10-05T11:14:49Z</time>
      </trkpt>
      <trkpt lat="43.33316" lon="5.78487">
        <ele>1122.3</ele>
        <time>2025-10-05T11:14:50Z</time>
      </trkpt>
      <trkpt lat="43.33316" lon="5.78487">
        <ele>1121.4</ele>
        <time>2025-10-05T11:14:51Z</time>
      </trkpt>
      <trkpt lat="43.33316" lon="5.78488">
        <ele>1120.6</ele>
        <time>2025-10-05T11:14:52Z</time>
      </trkpt>
      <trkpt lat="43.33316" lon="5.78488">
        <ele>1120.8</ele>
        <time>2025-10-05T11:14:53Z</time>
      </trkpt>
      <trkpt lat="43.33316" lon="5.78488">
        <ele>1120.8</ele>
        <time>2025-10-05T11:14:54Z</time>
      </trkpt>
      <trkpt lat="43.33316" lon="5.78488">
        <ele>1121</ele>
        <time>2025-10-05T11:14:55Z</time>
      </trkpt>
      <trkpt lat="43.33316" lon="5.78488">
        <ele>1121.1</ele>
        <time>2025-10-05T11:14:56Z</time>
      </trkpt>
      <trkpt lat="43.33316" lon="5.78488">
        <ele>1121</ele>
        <time>2025-10-05T11:14:57Z</time>
      </trkpt>
      <trkpt lat="43.33316" lon="5.78488">
        <ele>1120.9</ele>
        <time>2025-10-05T11:14:58Z</time>
      </trkpt>
      <trkpt lat="43.33316" lon="5.78489">
        <ele>1120.9</ele>
        <time>2025-10-05T11:14:59Z</time>
      </trkpt>
      <trkpt lat="43.33316" lon="5.78489">
        <ele>1121</ele>
        <time>2025-10-05T11:15:00Z</time>
      </trkpt>
      <trkpt lat="43.33316" lon="5.78489">
        <ele>1121</ele>
        <time>2025-10-05T11:15:01Z</time>
      </trkpt>
      <trkpt lat="43.33316" lon="5.78489">
        <ele>1121.2</ele>
        <time>2025-10-05T11:15:02Z</time>
      </trkpt>
      <trkpt lat="43.33317" lon="5.78489">
        <ele>1120.8</ele>
        <time>2025-10-05T11:15:03Z</time>
      </trkpt>
      <trkpt lat="43.33317" lon="5.78489">
        <ele>1120.1</ele>
        <time>2025-10-05T11:15:04Z</time>
      </trkpt>
      <trkpt lat="43.33317" lon="5.78489">
        <ele>1120.2</ele>
        <time>2025-10-05T11:15:05Z</time>
      </trkpt>
      <trkpt lat="43.33317" lon="5.78489">
        <ele>1120.1</ele>
        <time>2025-10-05T11:15:06Z</time>
      </trkpt>
      <trkpt lat="43.33317" lon="5.78489">
        <ele>1118.8</ele>
        <time>2025-10-05T11:15:07Z</time>
      </trkpt>
      <trkpt lat="43.33317" lon="5.78489">
        <ele>1119.5</ele>
        <time>2025-10-05T11:15:08Z</time>
      </trkpt>
      <trkpt lat="43.33317" lon="5.78489">
        <ele>1120.1</ele>
        <time>2025-10-05T11:15:09Z</time>
      </trkpt>
      <trkpt lat="43.33317" lon="5.78489">
        <ele>1120.2</ele>
        <time>2025-10-05T11:15:10Z</time>
      </trkpt>
      <trkpt lat="43.33317" lon="5.78489">
        <ele>1118.9</ele>
        <time>2025-10-05T11:15:11Z</time>
      </trkpt>
      <trkpt lat="43.33317" lon="5.78489">
        <ele>1119.1</ele>
        <time>2025-10-05T11:15:12Z</time>
      </trkpt>
      <trkpt lat="43.33317" lon="5.78489">
        <ele>1118.9</ele>
        <time>2025-10-05T11:15:13Z</time>
      </trkpt>
      <trkpt lat="43.33317" lon="5.78489">
        <ele>1118.7</ele>
        <time>2025-10-05T11:15:14Z</time>
      </trkpt>
      <trkpt lat="43.33317" lon="5.78489">
        <ele>1119.1</ele>
        <time>2025-10-05T11:15:15Z</time>
      </trkpt>
      <trkpt lat="43.33317" lon="5.78489">
        <ele>1118.8</ele>
        <time>2025-10-05T11:15:16Z</time>
      </trkpt>
      <trkpt lat="43.33317" lon="5.78489">
        <ele>1118.7</ele>
        <time>2025-10-05T11:15:17Z</time>
      </trkpt>
      <trkpt lat="43.33317" lon="5.78489">
        <ele>1118.9</ele>
        <time>2025-10-05T11:15:18Z</time>
      </trkpt>
      <trkpt lat="43.33317" lon="5.78489">
        <ele>1119</ele>
        <time>2025-10-05T11:15:19Z</time>
      </trkpt>
      <trkpt lat="43.33316" lon="5.78489">
        <ele>1118.9</ele>
        <time>2025-10-05T11:15:20Z</time>
      </trkpt>
      <trkpt lat="43.33316" lon="5.78489">
        <ele>1119</ele>
        <time>2025-10-05T11:15:21Z</time>
      </trkpt>
      <trkpt lat="43.33316" lon="5.78489">
        <ele>1119.3</ele>
        <time>2025-10-05T11:15:22Z</time>
      </trkpt>
      <trkpt lat="43.33316" lon="5.78489">
        <ele>1119</ele>
        <time>2025-10-05T11:15:23Z</time>
      </trkpt>
      <trkpt lat="43.33316" lon="5.78489">
        <ele>1119.4</ele>
        <time>2025-10-05T11:15:24Z</time>
      </trkpt>
      <trkpt lat="43.33316" lon="5.78489">
        <ele>1119.6</ele>
        <time>2025-10-05T11:15:25Z</time>
      </trkpt>
      <trkpt lat="43.33316" lon="5.78489">
        <ele>1119.4</ele>
        <time>2025-10-05T11:15:26Z</time>
      </trkpt>
      <trkpt lat="43.33316" lon="5.78488">
        <ele>1119.4</ele>
        <time>2025-10-05T11:15:27Z</time>
      </trkpt>
      <trkpt lat="43.33316" lon="5.78488">
        <ele>1119.4</ele>
        <time>2025-10-05T11:15:28Z</time>
      </trkpt>
      <trkpt lat="43.33316" lon="5.78488">
        <ele>1119.3</ele>
        <time>2025-10-05T11:15:29Z</time>
      </trkpt>
      <trkpt lat="43.33316" lon="5.78488">
        <ele>1119.6</ele>
        <time>2025-10-05T11:15:30Z</time>
      </trkpt>
      <trkpt lat="43.33316" lon="5.78489">
        <ele>1120</ele>
        <time>2025-10-05T11:15:31Z</time>
      </trkpt>
      <trkpt lat="43.33316" lon="5.78488">
        <ele>1119.9</ele>
        <time>2025-10-05T11:15:32Z</time>
      </trkpt>
      <trkpt lat="43.33316" lon="5.78488">
        <ele>1120</ele>
        <time>2025-10-05T11:15:33Z</time>
      </trkpt>
      <trkpt lat="43.33316" lon="5.78489">
        <ele>1120.2</ele>
        <time>2025-10-05T11:15:34Z</time>
      </trkpt>
      <trkpt lat="43.33316" lon="5.78489">
        <ele>1120.2</ele>
        <time>2025-10-05T11:15:35Z</time>
      </trkpt>
      <trkpt lat="43.33316" lon="5.78488">
        <ele>1120.5</ele>
        <time>2025-10-05T11:15:36Z</time>
      </trkpt>
      <trkpt lat="43.33316" lon="5.78488">
        <ele>1121.4</ele>
        <time>2025-10-05T11:15:37Z</time>
      </trkpt>
      <trkpt lat="43.33316" lon="5.78488">
        <ele>1121.2</ele>
        <time>2025-10-05T11:15:38Z</time>
      </trkpt>
      <trkpt lat="43.33316" lon="5.78487">
        <ele>1121.2</ele>
        <time>2025-10-05T11:15:39Z</time>
      </trkpt>
      <trkpt lat="43.33316" lon="5.78488">
        <ele>1121</ele>
        <time>2025-10-05T11:15:40Z</time>
      </trkpt>
      <trkpt lat="43.33316" lon="5.78488">
        <ele>1120.4</ele>
        <time>2025-10-05T11:15:41Z</time>
      </trkpt>
      <trkpt lat="43.33316" lon="5.78488">
        <ele>1120.3</ele>
        <time>2025-10-05T11:15:42Z</time>
      </trkpt>
      <trkpt lat="43.33316" lon="5.78489">
        <ele>1119.5</ele>
        <time>2025-10-05T11:15:43Z</time>
      </trkpt>
      <trkpt lat="43.33316" lon="5.7849">
        <ele>1119.5</ele>
        <time>2025-10-05T11:15:44Z</time>
      </trkpt>
      <trkpt lat="43.33316" lon="5.7849">
        <ele>1119.1</ele>
        <time>2025-10-05T11:15:45Z</time>
      </trkpt>
      <trkpt lat="43.33316" lon="5.7849">
        <ele>1119.4</ele>
        <time>2025-10-05T11:15:46Z</time>
      </trkpt>
      <trkpt lat="43.33316" lon="5.7849">
        <ele>1119.1</ele>
        <time>2025-10-05T11:15:47Z</time>
      </trkpt>
      <trkpt lat="43.33315" lon="5.78489">
        <ele>1118.5</ele>
        <time>2025-10-05T11:15:48Z</time>
      </trkpt>
      <trkpt lat="43.33315" lon="5.78489">
        <ele>1118.2</ele>
        <time>2025-10-05T11:15:49Z</time>
      </trkpt>
      <trkpt lat="43.33315" lon="5.78489">
        <ele>1118</ele>
        <time>2025-10-05T11:15:50Z</time>
      </trkpt>
      <trkpt lat="43.33315" lon="5.78489">
        <ele>1118.1</ele>
        <time>2025-10-05T11:15:51Z</time>
      </trkpt>
      <trkpt lat="43.33315" lon="5.78488">
        <ele>1118.2</ele>
        <time>2025-10-05T11:15:52Z</time>
      </trkpt>
      <trkpt lat="43.33315" lon="5.78488">
        <ele>1119</ele>
        <time>2025-10-05T11:15:53Z</time>
      </trkpt>
      <trkpt lat="43.33315" lon="5.78487">
        <ele>1118.8</ele>
        <time>2025-10-05T11:15:54Z</time>
      </trkpt>
      <trkpt lat="43.33315" lon="5.78486">
        <ele>1117.3</ele>
        <time>2025-10-05T11:15:55Z</time>
      </trkpt>
      <trkpt lat="43.33315" lon="5.78486">
        <ele>1117.1</ele>
        <time>2025-10-05T11:15:56Z</time>
      </trkpt>
      <trkpt lat="43.33315" lon="5.78486">
        <ele>1118.1</ele>
        <time>2025-10-05T11:15:57Z</time>
      </trkpt>
      <trkpt lat="43.33315" lon="5.78486">
        <ele>1118.6</ele>
        <time>2025-10-05T11:15:58Z</time>
      </trkpt>
      <trkpt lat="43.33315" lon="5.78486">
        <ele>1119</ele>
        <time>2025-10-05T11:15:59Z</time>
      </trkpt>
      <trkpt lat="43.33315" lon="5.78485">
        <ele>1118.9</ele>
        <time>2025-10-05T11:16:00Z</time>
      </trkpt>
      <trkpt lat="43.33315" lon="5.78485">
        <ele>1119.2</ele>
        <time>2025-10-05T11:16:01Z</time>
      </trkpt>
      <trkpt lat="43.33315" lon="5.78485">
        <ele>1119.6</ele>
        <time>2025-10-05T11:16:02Z</time>
      </trkpt>
      <trkpt lat="43.33315" lon="5.78485">
        <ele>1119.8</ele>
        <time>2025-10-05T11:16:03Z</time>
      </trkpt>
      <trkpt lat="43.33315" lon="5.78485">
        <ele>1120.2</ele>
        <time>2025-10-05T11:16:04Z</time>
      </trkpt>
      <trkpt lat="43.33315" lon="5.78485">
        <ele>1120.5</ele>
        <time>2025-10-05T11:16:05Z</time>
      </trkpt>
      <trkpt lat="43.33315" lon="5.78485">
        <ele>1120.7</ele>
        <time>2025-10-05T11:16:06Z</time>
      </trkpt>
      <trkpt lat="43.33315" lon="5.78485">
        <ele>1120.9</ele>
        <time>2025-10-05T11:16:07Z</time>
      </trkpt>
      <trkpt lat="43.33315" lon="5.78485">
        <ele>1120.8</ele>
        <time>2025-10-05T11:16:08Z</time>
      </trkpt>
      <trkpt lat="43.33316" lon="5.78485">
        <ele>1120</ele>
        <time>2025-10-05T11:16:09Z</time>
      </trkpt>
      <trkpt lat="43.33316" lon="5.78485">
        <ele>1119.2</ele>
        <time>2025-10-05T11:16:10Z</time>
      </trkpt>
      <trkpt lat="43.33316" lon="5.78485">
        <ele>1119.1</ele>
        <time>2025-10-05T11:16:11Z</time>
      </trkpt>
      <trkpt lat="43.33315" lon="5.78485">
        <ele>1118.9</ele>
        <time>2025-10-05T11:16:12Z</time>
      </trkpt>
      <trkpt lat="43.33315" lon="5.78485">
        <ele>1118.9</ele>
        <time>2025-10-05T11:16:13Z</time>
      </trkpt>
      <trkpt lat="43.33315" lon="5.78485">
        <ele>1118.9</ele>
        <time>2025-10-05T11:16:14Z</time>
      </trkpt>
      <trkpt lat="43.33315" lon="5.78485">
        <ele>1119</ele>
        <time>2025-10-05T11:16:15Z</time>
      </trkpt>
      <trkpt lat="43.33315" lon="5.78485">
        <ele>1118.8</ele>
        <time>2025-10-05T11:16:16Z</time>
      </trkpt>
      <trkpt lat="43.33315" lon="5.78485">
        <ele>1119</ele>
        <time>2025-10-05T11:16:17Z</time>
      </trkpt>
      <trkpt lat="43.33315" lon="5.78486">
        <ele>1119.2</ele>
        <time>2025-10-05T11:16:18Z</time>
      </trkpt>
      <trkpt lat="43.33315" lon="5.78486">
        <ele>1119</ele>
        <time>2025-10-05T11:16:19Z</time>
      </trkpt>
      <trkpt lat="43.33315" lon="5.78487">
        <ele>1119.5</ele>
        <time>2025-10-05T11:16:20Z</time>
      </trkpt>
      <trkpt lat="43.33315" lon="5.78487">
        <ele>1120</ele>
        <time>2025-10-05T11:16:21Z</time>
      </trkpt>
      <trkpt lat="43.33316" lon="5.78487">
        <ele>1120.1</ele>
        <time>2025-10-05T11:16:22Z</time>
      </trkpt>
      <trkpt lat="43.33316" lon="5.78487">
        <ele>1120.5</ele>
        <time>2025-10-05T11:16:23Z</time>
      </trkpt>
      <trkpt lat="43.33316" lon="5.78487">
        <ele>1120.6</ele>
        <time>2025-10-05T11:16:24Z</time>
      </trkpt>
      <trkpt lat="43.33316" lon="5.78487">
        <ele>1120.8</ele>
        <time>2025-10-05T11:16:25Z</time>
      </trkpt>
      <trkpt lat="43.33316" lon="5.78487">
        <ele>1120.5</ele>
        <time>2025-10-05T11:16:26Z</time>
      </trkpt>
      <trkpt lat="43.33316" lon="5.78487">
        <ele>1120.5</ele>
        <time>2025-10-05T11:16:27Z</time>
      </trkpt>
      <trkpt lat="43.33316" lon="5.78487">
        <ele>1120.8</ele>
        <time>2025-10-05T11:16:28Z</time>
      </trkpt>
      <trkpt lat="43.33316" lon="5.78487">
        <ele>1121.1</ele>
        <time>2025-10-05T11:16:29Z</time>
      </trkpt>
      <trkpt lat="43.33316" lon="5.78487">
        <ele>1121.7</ele>
        <time>2025-10-05T11:16:30Z</time>
      </trkpt>
      <trkpt lat="43.33316" lon="5.78487">
        <ele>1121.4</ele>
        <time>2025-10-05T11:16:31Z</time>
      </trkpt>
      <trkpt lat="43.33316" lon="5.78487">
        <ele>1122.5</ele>
        <time>2025-10-05T11:16:32Z</time>
      </trkpt>
      <trkpt lat="43.33316" lon="5.78487">
        <ele>1123.1</ele>
        <time>2025-10-05T11:16:33Z</time>
      </trkpt>
      <trkpt lat="43.33316" lon="5.78487">
        <ele>1123.4</ele>
        <time>2025-10-05T11:16:34Z</time>
      </trkpt>
      <trkpt lat="43.33316" lon="5.78487">
        <ele>1123.1</ele>
        <time>2025-10-05T11:16:35Z</time>
      </trkpt>
      <trkpt lat="43.33316" lon="5.78487">
        <ele>1123</ele>
        <time>2025-10-05T11:16:36Z</time>
      </trkpt>
      <trkpt lat="43.33315" lon="5.78487">
        <ele>1123.2</ele>
        <time>2025-10-05T11:16:37Z</time>
      </trkpt>
      <trkpt lat="43.33315" lon="5.78487">
        <ele>1123.8</ele>
        <time>2025-10-05T11:16:38Z</time>
      </trkpt>
      <trkpt lat="43.33315" lon="5.78488">
        <ele>1123.8</ele>
        <time>2025-10-05T11:16:39Z</time>
      </trkpt>
      <trkpt lat="43.33315" lon="5.78488">
        <ele>1124.2</ele>
        <time>2025-10-05T11:16:40Z</time>
      </trkpt>
      <trkpt lat="43.33315" lon="5.78488">
        <ele>1124.7</ele>
        <time>2025-10-05T11:16:41Z</time>
      </trkpt>
      <trkpt lat="43.33314" lon="5.78488">
        <ele>1124.5</ele>
        <time>2025-10-05T11:16:42Z</time>
      </trkpt>
      <trkpt lat="43.33314" lon="5.78488">
        <ele>1124.7</ele>
        <time>2025-10-05T11:16:43Z</time>
      </trkpt>
      <trkpt lat="43.33314" lon="5.78488">
        <ele>1124.5</ele>
        <time>2025-10-05T11:16:44Z</time>
      </trkpt>
      <trkpt lat="43.33314" lon="5.78487">
        <ele>1124.4</ele>
        <time>2025-10-05T11:16:45Z</time>
      </trkpt>
      <trkpt lat="43.33314" lon="5.78487">
        <ele>1124.9</ele>
        <time>2025-10-05T11:16:46Z</time>
      </trkpt>
      <trkpt lat="43.33313" lon="5.78487">
        <ele>1125.2</ele>
        <time>2025-10-05T11:16:47Z</time>
      </trkpt>
      <trkpt lat="43.33313" lon="5.78487">
        <ele>1125.4</ele>
        <time>2025-10-05T11:16:48Z</time>
      </trkpt>
      <trkpt lat="43.33313" lon="5.78487">
        <ele>1125.7</ele>
        <time>2025-10-05T11:16:49Z</time>
      </trkpt>
      <trkpt lat="43.33313" lon="5.78487">
        <ele>1125.5</ele>
        <time>2025-10-05T11:16:50Z</time>
      </trkpt>
      <trkpt lat="43.33314" lon="5.78487">
        <ele>1125.6</ele>
        <time>2025-10-05T11:16:51Z</time>
      </trkpt>
      <trkpt lat="43.33314" lon="5.78487">
        <ele>1125.4</ele>
        <time>2025-10-05T11:16:52Z</time>
      </trkpt>
      <trkpt lat="43.33316" lon="5.78487">
        <ele>1125.2</ele>
        <time>2025-10-05T11:16:53Z</time>
      </trkpt>
      <trkpt lat="43.33316" lon="5.78487">
        <ele>1124.8</ele>
        <time>2025-10-05T11:16:54Z</time>
      </trkpt>
      <trkpt lat="43.33317" lon="5.78487">
        <ele>1124.4</ele>
        <time>2025-10-05T11:16:55Z</time>
      </trkpt>
      <trkpt lat="43.33317" lon="5.78487">
        <ele>1125</ele>
        <time>2025-10-05T11:16:56Z</time>
      </trkpt>
      <trkpt lat="43.33318" lon="5.78486">
        <ele>1125.1</ele>
        <time>2025-10-05T11:16:57Z</time>
      </trkpt>
      <trkpt lat="43.33318" lon="5.78485">
        <ele>1124.2</ele>
        <time>2025-10-05T11:16:58Z</time>
      </trkpt>
      <trkpt lat="43.33318" lon="5.78484">
        <ele>1123.1</ele>
        <time>2025-10-05T11:16:59Z</time>
      </trkpt>
      <trkpt lat="43.33317" lon="5.78483">
        <ele>1122.3</ele>
        <time>2025-10-05T11:17:00Z</time>
      </trkpt>
      <trkpt lat="43.33316" lon="5.78483">
        <ele>1121.9</ele>
        <time>2025-10-05T11:17:01Z</time>
      </trkpt>
      <trkpt lat="43.33316" lon="5.78482">
        <ele>1121.4</ele>
        <time>2025-10-05T11:17:02Z</time>
      </trkpt>
      <trkpt lat="43.33315" lon="5.78482">
        <ele>1121.4</ele>
        <time>2025-10-05T11:17:03Z</time>
      </trkpt>
      <trkpt lat="43.33315" lon="5.78481">
        <ele>1121.2</ele>
        <time>2025-10-05T11:17:04Z</time>
      </trkpt>
      <trkpt lat="43.33315" lon="5.7848">
        <ele>1121.7</ele>
        <time>2025-10-05T11:17:05Z</time>
      </trkpt>
      <trkpt lat="43.33315" lon="5.78479">
        <ele>1121.8</ele>
        <time>2025-10-05T11:17:06Z</time>
      </trkpt>
      <trkpt lat="43.33316" lon="5.78478">
        <ele>1121.9</ele>
        <time>2025-10-05T11:17:07Z</time>
      </trkpt>
      <trkpt lat="43.33316" lon="5.78477">
        <ele>1123</ele>
        <time>2025-10-05T11:17:08Z</time>
      </trkpt>
      <trkpt lat="43.33316" lon="5.78476">
        <ele>1123.9</ele>
        <time>2025-10-05T11:17:09Z</time>
      </trkpt>
      <trkpt lat="43.33316" lon="5.78476">
        <ele>1124</ele>
        <time>2025-10-05T11:17:10Z</time>
      </trkpt>
      <trkpt lat="43.33316" lon="5.78475">
        <ele>1124.4</ele>
        <time>2025-10-05T11:17:11Z</time>
      </trkpt>
      <trkpt lat="43.33317" lon="5.78474">
        <ele>1124.4</ele>
        <time>2025-10-05T11:17:12Z</time>
      </trkpt>
      <trkpt lat="43.33318" lon="5.78473">
        <ele>1124.2</ele>
        <time>2025-10-05T11:17:13Z</time>
      </trkpt>
      <trkpt lat="43.33318" lon="5.78472">
        <ele>1124.2</ele>
        <time>2025-10-05T11:17:14Z</time>
      </trkpt>
      <trkpt lat="43.33319" lon="5.78471">
        <ele>1123.6</ele>
        <time>2025-10-05T11:17:15Z</time>
      </trkpt>
      <trkpt lat="43.33319" lon="5.78469">
        <ele>1123.1</ele>
        <time>2025-10-05T11:17:16Z</time>
      </trkpt>
      <trkpt lat="43.3332" lon="5.78468">
        <ele>1122.7</ele>
        <time>2025-10-05T11:17:17Z</time>
      </trkpt>
      <trkpt lat="43.33321" lon="5.78467">
        <ele>1122.5</ele>
        <time>2025-10-05T11:17:18Z</time>
      </trkpt>
      <trkpt lat="43.33321" lon="5.78465">
        <ele>1122.2</ele>
        <time>2025-10-05T11:17:19Z</time>
      </trkpt>
      <trkpt lat="43.33321" lon="5.78464">
        <ele>1121.6</ele>
        <time>2025-10-05T11:17:20Z</time>
      </trkpt>
      <trkpt lat="43.33321" lon="5.78462">
        <ele>1121.3</ele>
        <time>2025-10-05T11:17:21Z</time>
      </trkpt>
      <trkpt lat="43.33321" lon="5.78461">
        <ele>1120.9</ele>
        <time>2025-10-05T11:17:22Z</time>
      </trkpt>
      <trkpt lat="43.33321" lon="5.78459">
        <ele>1120.4</ele>
        <time>2025-10-05T11:17:23Z</time>
      </trkpt>
      <trkpt lat="43.33321" lon="5.78457">
        <ele>1120.1</ele>
        <time>2025-10-05T11:17:24Z</time>
      </trkpt>
      <trkpt lat="43.33321" lon="5.78456">
        <ele>1119.9</ele>
        <time>2025-10-05T11:17:25Z</time>
      </trkpt>
      <trkpt lat="43.33321" lon="5.78454">
        <ele>1119.8</ele>
        <time>2025-10-05T11:17:26Z</time>
      </trkpt>
      <trkpt lat="43.33321" lon="5.78453">
        <ele>1118.7</ele>
        <time>2025-10-05T11:17:27Z</time>
      </trkpt>
      <trkpt lat="43.33321" lon="5.78452">
        <ele>1118.3</ele>
        <time>2025-10-05T11:17:28Z</time>
      </trkpt>
      <trkpt lat="43.33321" lon="5.78451">
        <ele>1117.9</ele>
        <time>2025-10-05T11:17:29Z</time>
      </trkpt>
      <trkpt lat="43.33321" lon="5.7845">
        <ele>1117.9</ele>
        <time>2025-10-05T11:17:30Z</time>
      </trkpt>
      <trkpt lat="43.33321" lon="5.78448">
        <ele>1118.1</ele>
        <time>2025-10-05T11:17:31Z</time>
      </trkpt>
      <trkpt lat="43.33322" lon="5.78447">
        <ele>1118</ele>
        <time>2025-10-05T11:17:32Z</time>
      </trkpt>
      <trkpt lat="43.33322" lon="5.78445">
        <ele>1117.4</ele>
        <time>2025-10-05T11:17:33Z</time>
      </trkpt>
      <trkpt lat="43.33323" lon="5.78444">
        <ele>1116.7</ele>
        <time>2025-10-05T11:17:34Z</time>
      </trkpt>
      <trkpt lat="43.33323" lon="5.78443">
        <ele>1116.2</ele>
        <time>2025-10-05T11:17:35Z</time>
      </trkpt>
      <trkpt lat="43.33323" lon="5.78441">
        <ele>1115.4</ele>
        <time>2025-10-05T11:17:36Z</time>
      </trkpt>
      <trkpt lat="43.33323" lon="5.7844">
        <ele>1115.1</ele>
        <time>2025-10-05T11:17:37Z</time>
      </trkpt>
      <trkpt lat="43.33323" lon="5.78438">
        <ele>1114.8</ele>
        <time>2025-10-05T11:17:38Z</time>
      </trkpt>
      <trkpt lat="43.33323" lon="5.78437">
        <ele>1114.6</ele>
        <time>2025-10-05T11:17:39Z</time>
      </trkpt>
      <trkpt lat="43.33323" lon="5.78435">
        <ele>1114.5</ele>
        <time>2025-10-05T11:17:40Z</time>
      </trkpt>
      <trkpt lat="43.33322" lon="5.78434">
        <ele>1114.4</ele>
        <time>2025-10-05T11:17:41Z</time>
      </trkpt>
      <trkpt lat="43.33322" lon="5.78432">
        <ele>1114.3</ele>
        <time>2025-10-05T11:17:42Z</time>
      </trkpt>
      <trkpt lat="43.33321" lon="5.78431">
        <ele>1114.4</ele>
        <time>2025-10-05T11:17:43Z</time>
      </trkpt>
      <trkpt lat="43.33321" lon="5.7843">
        <ele>1114.6</ele>
        <time>2025-10-05T11:17:44Z</time>
      </trkpt>
      <trkpt lat="43.33321" lon="5.7843">
        <ele>1114.3</ele>
        <time>2025-10-05T11:17:45Z</time>
      </trkpt>
      <trkpt lat="43.33321" lon="5.7843">
        <ele>1114.2</ele>
        <time>2025-10-05T11:17:46Z</time>
      </trkpt>
      <trkpt lat="43.33321" lon="5.7843">
        <ele>1114.3</ele>
        <time>2025-10-05T11:17:47Z</time>
      </trkpt>
      <trkpt lat="43.33321" lon="5.7843">
        <ele>1114.4</ele>
        <time>2025-10-05T11:17:48Z</time>
      </trkpt>
      <trkpt lat="43.33322" lon="5.7843">
        <ele>1114.4</ele>
        <time>2025-10-05T11:17:49Z</time>
      </trkpt>
      <trkpt lat="43.33321" lon="5.78429">
        <ele>1114.4</ele>
        <time>2025-10-05T11:17:50Z</time>
      </trkpt>
      <trkpt lat="43.33321" lon="5.78427">
        <ele>1114.7</ele>
        <time>2025-10-05T11:17:51Z</time>
      </trkpt>
      <trkpt lat="43.3332" lon="5.78426">
        <ele>1115.7</ele>
        <time>2025-10-05T11:17:52Z</time>
      </trkpt>
      <trkpt lat="43.3332" lon="5.78424">
        <ele>1116</ele>
        <time>2025-10-05T11:17:53Z</time>
      </trkpt>
      <trkpt lat="43.3332" lon="5.78423">
        <ele>1116.2</ele>
        <time>2025-10-05T11:17:54Z</time>
      </trkpt>
      <trkpt lat="43.33319" lon="5.78421">
        <ele>1116.4</ele>
        <time>2025-10-05T11:17:55Z</time>
      </trkpt>
      <trkpt lat="43.33319" lon="5.7842">
        <ele>1116.5</ele>
        <time>2025-10-05T11:17:56Z</time>
      </trkpt>
      <trkpt lat="43.33318" lon="5.78419">
        <ele>1116.9</ele>
        <time>2025-10-05T11:17:57Z</time>
      </trkpt>
      <trkpt lat="43.33317" lon="5.78417">
        <ele>1117.3</ele>
        <time>2025-10-05T11:17:58Z</time>
      </trkpt>
      <trkpt lat="43.33317" lon="5.78416">
        <ele>1117.9</ele>
        <time>2025-10-05T11:17:59Z</time>
      </trkpt>
      <trkpt lat="43.33316" lon="5.78415">
        <ele>1119</ele>
        <time>2025-10-05T11:18:00Z</time>
      </trkpt>
      <trkpt lat="43.33315" lon="5.78413">
        <ele>1119.6</ele>
        <time>2025-10-05T11:18:01Z</time>
      </trkpt>
      <trkpt lat="43.33315" lon="5.78412">
        <ele>1121</ele>
        <time>2025-10-05T11:18:02Z</time>
      </trkpt>
      <trkpt lat="43.33315" lon="5.7841">
        <ele>1122.2</ele>
        <time>2025-10-05T11:18:03Z</time>
      </trkpt>
      <trkpt lat="43.33315" lon="5.78408">
        <ele>1122.1</ele>
        <time>2025-10-05T11:18:04Z</time>
      </trkpt>
      <trkpt lat="43.33315" lon="5.78407">
        <ele>1122.3</ele>
        <time>2025-10-05T11:18:05Z</time>
      </trkpt>
      <trkpt lat="43.33314" lon="5.78405">
        <ele>1122.1</ele>
        <time>2025-10-05T11:18:06Z</time>
      </trkpt>
      <trkpt lat="43.33314" lon="5.78404">
        <ele>1121.5</ele>
        <time>2025-10-05T11:18:07Z</time>
      </trkpt>
      <trkpt lat="43.33314" lon="5.78402">
        <ele>1121.9</ele>
        <time>2025-10-05T11:18:08Z</time>
      </trkpt>
      <trkpt lat="43.33313" lon="5.78401">
        <ele>1121.8</ele>
        <time>2025-10-05T11:18:09Z</time>
      </trkpt>
      <trkpt lat="43.33313" lon="5.78399">
        <ele>1121.1</ele>
        <time>2025-10-05T11:18:10Z</time>
      </trkpt>
      <trkpt lat="43.33313" lon="5.78398">
        <ele>1120.6</ele>
        <time>2025-10-05T11:18:11Z</time>
      </trkpt>
      <trkpt lat="43.33313" lon="5.78396">
        <ele>1120.2</ele>
        <time>2025-10-05T11:18:12Z</time>
      </trkpt>
      <trkpt lat="43.33313" lon="5.78395">
        <ele>1119.9</ele>
        <time>2025-10-05T11:18:13Z</time>
      </trkpt>
      <trkpt lat="43.33312" lon="5.78394">
        <ele>1119.7</ele>
        <time>2025-10-05T11:18:14Z</time>
      </trkpt>
      <trkpt lat="43.33312" lon="5.78392">
        <ele>1119.8</ele>
        <time>2025-10-05T11:18:15Z</time>
      </trkpt>
      <trkpt lat="43.33312" lon="5.78391">
        <ele>1119.9</ele>
        <time>2025-10-05T11:18:16Z</time>
      </trkpt>
      <trkpt lat="43.33312" lon="5.78389">
        <ele>1120.1</ele>
        <time>2025-10-05T11:18:17Z</time>
      </trkpt>
      <trkpt lat="43.33311" lon="5.78388">
        <ele>1119.4</ele>
        <time>2025-10-05T11:18:18Z</time>
      </trkpt>
      <trkpt lat="43.3331" lon="5.78387">
        <ele>1118.9</ele>
        <time>2025-10-05T11:18:19Z</time>
      </trkpt>
      <trkpt lat="43.3331" lon="5.78385">
        <ele>1118.7</ele>
        <time>2025-10-05T11:18:20Z</time>
      </trkpt>
      <trkpt lat="43.33309" lon="5.78384">
        <ele>1118.3</ele>
        <time>2025-10-05T11:18:21Z</time>
      </trkpt>
      <trkpt lat="43.33308" lon="5.78383">
        <ele>1117.8</ele>
        <time>2025-10-05T11:18:22Z</time>
      </trkpt>
      <trkpt lat="43.33308" lon="5.78383">
        <ele>1117.8</ele>
        <time>2025-10-05T11:18:23Z</time>
      </trkpt>
      <trkpt lat="43.33307" lon="5.78382">
        <ele>1117.5</ele>
        <time>2025-10-05T11:18:24Z</time>
      </trkpt>
      <trkpt lat="43.33307" lon="5.78381">
        <ele>1117.3</ele>
        <time>2025-10-05T11:18:25Z</time>
      </trkpt>
      <trkpt lat="43.33306" lon="5.7838">
        <ele>1117</ele>
        <time>2025-10-05T11:18:26Z</time>
      </trkpt>
      <trkpt lat="43.33306" lon="5.78379">
        <ele>1116.7</ele>
        <time>2025-10-05T11:18:27Z</time>
      </trkpt>
      <trkpt lat="43.33305" lon="5.78378">
        <ele>1116.4</ele>
        <time>2025-10-05T11:18:28Z</time>
      </trkpt>
      <trkpt lat="43.33305" lon="5.78377">
        <ele>1116.1</ele>
        <time>2025-10-05T11:18:29Z</time>
      </trkpt>
      <trkpt lat="43.33304" lon="5.78376">
        <ele>1115.9</ele>
        <time>2025-10-05T11:18:30Z</time>
      </trkpt>
      <trkpt lat="43.33304" lon="5.78375">
        <ele>1115.8</ele>
        <time>2025-10-05T11:18:31Z</time>
      </trkpt>
      <trkpt lat="43.33303" lon="5.78374">
        <ele>1115.8</ele>
        <time>2025-10-05T11:18:32Z</time>
      </trkpt>
      <trkpt lat="43.33303" lon="5.78374">
        <ele>1116</ele>
        <time>2025-10-05T11:18:33Z</time>
      </trkpt>
      <trkpt lat="43.33302" lon="5.78373">
        <ele>1115.8</ele>
        <time>2025-10-05T11:18:34Z</time>
      </trkpt>
      <trkpt lat="43.33302" lon="5.78373">
        <ele>1115.7</ele>
        <time>2025-10-05T11:18:35Z</time>
      </trkpt>
      <trkpt lat="43.33301" lon="5.78373">
        <ele>1115.7</ele>
        <time>2025-10-05T11:18:36Z</time>
      </trkpt>
      <trkpt lat="43.33301" lon="5.78372">
        <ele>1115.6</ele>
        <time>2025-10-05T11:18:37Z</time>
      </trkpt>
      <trkpt lat="43.33301" lon="5.78372">
        <ele>1115.6</ele>
        <time>2025-10-05T11:18:38Z</time>
      </trkpt>
      <trkpt lat="43.33301" lon="5.78372">
        <ele>1115.4</ele>
        <time>2025-10-05T11:18:39Z</time>
      </trkpt>
      <trkpt lat="43.33301" lon="5.78372">
        <ele>1115.3</ele>
        <time>2025-10-05T11:18:40Z</time>
      </trkpt>
      <trkpt lat="43.33301" lon="5.78372">
        <ele>1115.4</ele>
        <time>2025-10-05T11:18:41Z</time>
      </trkpt>
      <trkpt lat="43.33301" lon="5.78371">
        <ele>1115.5</ele>
        <time>2025-10-05T11:18:42Z</time>
      </trkpt>
      <trkpt lat="43.33301" lon="5.78371">
        <ele>1115.5</ele>
        <time>2025-10-05T11:18:43Z</time>
      </trkpt>
      <trkpt lat="43.33301" lon="5.78371">
        <ele>1115.5</ele>
        <time>2025-10-05T11:18:44Z</time>
      </trkpt>
      <trkpt lat="43.33301" lon="5.78371">
        <ele>1115.6</ele>
        <time>2025-10-05T11:18:45Z</time>
      </trkpt>
      <trkpt lat="43.33301" lon="5.7837">
        <ele>1115.5</ele>
        <time>2025-10-05T11:18:46Z</time>
      </trkpt>
      <trkpt lat="43.33301" lon="5.7837">
        <ele>1115.5</ele>
        <time>2025-10-05T11:18:47Z</time>
      </trkpt>
      <trkpt lat="43.33301" lon="5.78369">
        <ele>1115.4</ele>
        <time>2025-10-05T11:18:48Z</time>
      </trkpt>
      <trkpt lat="43.333" lon="5.78368">
        <ele>1115.4</ele>
        <time>2025-10-05T11:18:49Z</time>
      </trkpt>
      <trkpt lat="43.333" lon="5.78367">
        <ele>1115.4</ele>
        <time>2025-10-05T11:18:50Z</time>
      </trkpt>
      <trkpt lat="43.333" lon="5.78366">
        <ele>1115.4</ele>
        <time>2025-10-05T11:18:51Z</time>
      </trkpt>
      <trkpt lat="43.333" lon="5.78365">
        <ele>1115.4</ele>
        <time>2025-10-05T11:18:52Z</time>
      </trkpt>
      <trkpt lat="43.333" lon="5.78364">
        <ele>1115.4</ele>
        <time>2025-10-05T11:18:53Z</time>
      </trkpt>
      <trkpt lat="43.333" lon="5.78364">
        <ele>1115.4</ele>
        <time>2025-10-05T11:18:54Z</time>
      </trkpt>
      <trkpt lat="43.333" lon="5.78363">
        <ele>1115.5</ele>
        <time>2025-10-05T11:18:55Z</time>
      </trkpt>
      <trkpt lat="43.33299" lon="5.78362">
        <ele>1115.5</ele>
        <time>2025-10-05T11:18:56Z</time>
      </trkpt>
      <trkpt lat="43.33299" lon="5.78361">
        <ele>1115.6</ele>
        <time>2025-10-05T11:18:57Z</time>
      </trkpt>
      <trkpt lat="43.33299" lon="5.7836">
        <ele>1115.6</ele>
        <time>2025-10-05T11:18:58Z</time>
      </trkpt>
      <trkpt lat="43.33299" lon="5.78359">
        <ele>1115.6</ele>
        <time>2025-10-05T11:18:59Z</time>
      </trkpt>
      <trkpt lat="43.33299" lon="5.78358">
        <ele>1115.7</ele>
        <time>2025-10-05T11:19:00Z</time>
      </trkpt>
      <trkpt lat="43.33299" lon="5.78357">
        <ele>1115.7</ele>
        <time>2025-10-05T11:19:01Z</time>
      </trkpt>
      <trkpt lat="43.33298" lon="5.78356">
        <ele>1115.7</ele>
        <time>2025-10-05T11:19:02Z</time>
      </trkpt>
      <trkpt lat="43.33299" lon="5.78356">
        <ele>1115.7</ele>
        <time>2025-10-05T11:19:03Z</time>
      </trkpt>
      <trkpt lat="43.33298" lon="5.78355">
        <ele>1115.8</ele>
        <time>2025-10-05T11:19:04Z</time>
      </trkpt>
      <trkpt lat="43.33298" lon="5.78355">
        <ele>1115.9</ele>
        <time>2025-10-05T11:19:05Z</time>
      </trkpt>
      <trkpt lat="43.33298" lon="5.78354">
        <ele>1115.9</ele>
        <time>2025-10-05T11:19:06Z</time>
      </trkpt>
      <trkpt lat="43.33298" lon="5.78355">
        <ele>1115.9</ele>
        <time>2025-10-05T11:19:07Z</time>
      </trkpt>
      <trkpt lat="43.33298" lon="5.78354">
        <ele>1115.9</ele>
        <time>2025-10-05T11:19:08Z</time>
      </trkpt>
      <trkpt lat="43.33298" lon="5.78354">
        <ele>1115.8</ele>
        <time>2025-10-05T11:19:09Z</time>
      </trkpt>
      <trkpt lat="43.33298" lon="5.78354">
        <ele>1115.7</ele>
        <time>2025-10-05T11:19:10Z</time>
      </trkpt>
      <trkpt lat="43.33298" lon="5.78354">
        <ele>1115.7</ele>
        <time>2025-10-05T11:19:11Z</time>
      </trkpt>
      <trkpt lat="43.33298" lon="5.78354">
        <ele>1115.7</ele>
        <time>2025-10-05T11:19:12Z</time>
      </trkpt>
      <trkpt lat="43.33298" lon="5.78354">
        <ele>1115.7</ele>
        <time>2025-10-05T11:19:13Z</time>
      </trkpt>
      <trkpt lat="43.33298" lon="5.78354">
        <ele>1115.7</ele>
        <time>2025-10-05T11:19:14Z</time>
      </trkpt>
      <trkpt lat="43.33298" lon="5.78353">
        <ele>1115.7</ele>
        <time>2025-10-05T11:19:15Z</time>
      </trkpt>
      <trkpt lat="43.33298" lon="5.78353">
        <ele>1115.7</ele>
        <time>2025-10-05T11:19:16Z</time>
      </trkpt>
      <trkpt lat="43.33298" lon="5.78353">
        <ele>1115.7</ele>
        <time>2025-10-05T11:19:17Z</time>
      </trkpt>
      <trkpt lat="43.33298" lon="5.78353">
        <ele>1115.5</ele>
        <time>2025-10-05T11:19:18Z</time>
      </trkpt>
      <trkpt lat="43.33298" lon="5.78353">
        <ele>1115.4</ele>
        <time>2025-10-05T11:19:19Z</time>
      </trkpt>
      <trkpt lat="43.33298" lon="5.78353">
        <ele>1115.3</ele>
        <time>2025-10-05T11:19:20Z</time>
      </trkpt>
      <trkpt lat="43.33298" lon="5.78353">
        <ele>1115.1</ele>
        <time>2025-10-05T11:19:21Z</time>
      </trkpt>
      <trkpt lat="43.33298" lon="5.78353">
        <ele>1115.1</ele>
        <time>2025-10-05T11:19:22Z</time>
      </trkpt>
      <trkpt lat="43.33298" lon="5.78353">
        <ele>1115</ele>
        <time>2025-10-05T11:19:23Z</time>
      </trkpt>
      <trkpt lat="43.33298" lon="5.78353">
        <ele>1114.9</ele>
        <time>2025-10-05T11:19:24Z</time>
      </trkpt>
      <trkpt lat="43.33298" lon="5.78353">
        <ele>1114.8</ele>
        <time>2025-10-05T11:19:25Z</time>
      </trkpt>
      <trkpt lat="43.33298" lon="5.78353">
        <ele>1114.7</ele>
        <time>2025-10-05T11:19:26Z</time>
      </trkpt>
      <trkpt lat="43.33298" lon="5.78353">
        <ele>1114.5</ele>
        <time>2025-10-05T11:19:27Z</time>
      </trkpt>
      <trkpt lat="43.33298" lon="5.78353">
        <ele>1114.4</ele>
        <time>2025-10-05T11:19:28Z</time>
      </trkpt>
      <trkpt lat="43.33299" lon="5.78353">
        <ele>1114.4</ele>
        <time>2025-10-05T11:19:29Z</time>
      </trkpt>
      <trkpt lat="43.33298" lon="5.78351">
        <ele>1114.5</ele>
        <time>2025-10-05T11:19:30Z</time>
      </trkpt>
      <trkpt lat="43.33298" lon="5.7835">
        <ele>1114.8</ele>
        <time>2025-10-05T11:19:31Z</time>
      </trkpt>
      <trkpt lat="43.33298" lon="5.78349">
        <ele>1115</ele>
        <time>2025-10-05T11:19:32Z</time>
      </trkpt>
      <trkpt lat="43.33297" lon="5.78348">
        <ele>1115</ele>
        <time>2025-10-05T11:19:33Z</time>
      </trkpt>
      <trkpt lat="43.33297" lon="5.78347">
        <ele>1115</ele>
        <time>2025-10-05T11:19:34Z</time>
      </trkpt>
      <trkpt lat="43.33297" lon="5.78346">
        <ele>1114.9</ele>
        <time>2025-10-05T11:19:35Z</time>
      </trkpt>
      <trkpt lat="43.33297" lon="5.78346">
        <ele>1114.9</ele>
        <time>2025-10-05T11:19:36Z</time>
      </trkpt>
      <trkpt lat="43.33296" lon="5.78345">
        <ele>1114.9</ele>
        <time>2025-10-05T11:19:37Z</time>
      </trkpt>
      <trkpt lat="43.33295" lon="5.78344">
        <ele>1114.9</ele>
        <time>2025-10-05T11:19:38Z</time>
      </trkpt>
      <trkpt lat="43.33294" lon="5.78343">
        <ele>1114.8</ele>
        <time>2025-10-05T11:19:39Z</time>
      </trkpt>
      <trkpt lat="43.33294" lon="5.78341">
        <ele>1114.7</ele>
        <time>2025-10-05T11:19:40Z</time>
      </trkpt>
      <trkpt lat="43.33294" lon="5.78339">
        <ele>1114.6</ele>
        <time>2025-10-05T11:19:41Z</time>
      </trkpt>
      <trkpt lat="43.33293" lon="5.78338">
        <ele>1114.4</ele>
        <time>2025-10-05T11:19:42Z</time>
      </trkpt>
      <trkpt lat="43.33293" lon="5.78337">
        <ele>1114.3</ele>
        <time>2025-10-05T11:19:43Z</time>
      </trkpt>
      <trkpt lat="43.33292" lon="5.78335">
        <ele>1114.3</ele>
        <time>2025-10-05T11:19:44Z</time>
      </trkpt>
      <trkpt lat="43.33291" lon="5.78334">
        <ele>1114.3</ele>
        <time>2025-10-05T11:19:45Z</time>
      </trkpt>
      <trkpt lat="43.33291" lon="5.78333">
        <ele>1114.3</ele>
        <time>2025-10-05T11:19:46Z</time>
      </trkpt>
      <trkpt lat="43.3329" lon="5.78331">
        <ele>1114.1</ele>
        <time>2025-10-05T11:19:47Z</time>
      </trkpt>
      <trkpt lat="43.3329" lon="5.7833">
        <ele>1114</ele>
        <time>2025-10-05T11:19:48Z</time>
      </trkpt>
      <trkpt lat="43.3329" lon="5.78329">
        <ele>1113.8</ele>
        <time>2025-10-05T11:19:49Z</time>
      </trkpt>
      <trkpt lat="43.33289" lon="5.78328">
        <ele>1113.7</ele>
        <time>2025-10-05T11:19:50Z</time>
      </trkpt>
      <trkpt lat="43.33289" lon="5.78327">
        <ele>1113.5</ele>
        <time>2025-10-05T11:19:51Z</time>
      </trkpt>
      <trkpt lat="43.33289" lon="5.78325">
        <ele>1113.3</ele>
        <time>2025-10-05T11:19:52Z</time>
      </trkpt>
      <trkpt lat="43.33288" lon="5.78323">
        <ele>1113.3</ele>
        <time>2025-10-05T11:19:53Z</time>
      </trkpt>
      <trkpt lat="43.33288" lon="5.78322">
        <ele>1113.4</ele>
        <time>2025-10-05T11:19:54Z</time>
      </trkpt>
      <trkpt lat="43.33287" lon="5.78321">
        <ele>1113.5</ele>
        <time>2025-10-05T11:19:55Z</time>
      </trkpt>
      <trkpt lat="43.33286" lon="5.7832">
        <ele>1113.5</ele>
        <time>2025-10-05T11:19:56Z</time>
      </trkpt>
      <trkpt lat="43.33286" lon="5.78318">
        <ele>1113.6</ele>
        <time>2025-10-05T11:19:57Z</time>
      </trkpt>
      <trkpt lat="43.33286" lon="5.78317">
        <ele>1113.7</ele>
        <time>2025-10-05T11:19:58Z</time>
      </trkpt>
      <trkpt lat="43.33285" lon="5.78316">
        <ele>1113.9</ele>
        <time>2025-10-05T11:19:59Z</time>
      </trkpt>
      <trkpt lat="43.33285" lon="5.78314">
        <ele>1114</ele>
        <time>2025-10-05T11:20:00Z</time>
      </trkpt>
      <trkpt lat="43.33284" lon="5.78313">
        <ele>1114</ele>
        <time>2025-10-05T11:20:01Z</time>
      </trkpt>
      <trkpt lat="43.33284" lon="5.78312">
        <ele>1114.1</ele>
        <time>2025-10-05T11:20:02Z</time>
      </trkpt>
      <trkpt lat="43.33283" lon="5.7831">
        <ele>1114.2</ele>
        <time>2025-10-05T11:20:03Z</time>
      </trkpt>
      <trkpt lat="43.33283" lon="5.78309">
        <ele>1113.9</ele>
        <time>2025-10-05T11:20:04Z</time>
      </trkpt>
      <trkpt lat="43.33283" lon="5.78307">
        <ele>1113.5</ele>
        <time>2025-10-05T11:20:05Z</time>
      </trkpt>
      <trkpt lat="43.33282" lon="5.78306">
        <ele>1113.5</ele>
        <time>2025-10-05T11:20:06Z</time>
      </trkpt>
      <trkpt lat="43.33281" lon="5.78304">
        <ele>1113.5</ele>
        <time>2025-10-05T11:20:07Z</time>
      </trkpt>
      <trkpt lat="43.33281" lon="5.78303">
        <ele>1113.8</ele>
        <time>2025-10-05T11:20:08Z</time>
      </trkpt>
      <trkpt lat="43.3328" lon="5.78302">
        <ele>1114.1</ele>
        <time>2025-10-05T11:20:09Z</time>
      </trkpt>
      <trkpt lat="43.3328" lon="5.783">
        <ele>1114.4</ele>
        <time>2025-10-05T11:20:10Z</time>
      </trkpt>
      <trkpt lat="43.33279" lon="5.78299">
        <ele>1114.5</ele>
        <time>2025-10-05T11:20:11Z</time>
      </trkpt>
      <trkpt lat="43.33279" lon="5.78297">
        <ele>1114.9</ele>
        <time>2025-10-05T11:20:12Z</time>
      </trkpt>
      <trkpt lat="43.33278" lon="5.78296">
        <ele>1115.2</ele>
        <time>2025-10-05T11:20:13Z</time>
      </trkpt>
      <trkpt lat="43.33278" lon="5.78294">
        <ele>1114.9</ele>
        <time>2025-10-05T11:20:14Z</time>
      </trkpt>
      <trkpt lat="43.33277" lon="5.78293">
        <ele>1114.4</ele>
        <time>2025-10-05T11:20:15Z</time>
      </trkpt>
      <trkpt lat="43.33277" lon="5.78291">
        <ele>1114.4</ele>
        <time>2025-10-05T11:20:16Z</time>
      </trkpt>
      <trkpt lat="43.33276" lon="5.7829">
        <ele>1114.1</ele>
        <time>2025-10-05T11:20:17Z</time>
      </trkpt>
      <trkpt lat="43.33276" lon="5.78288">
        <ele>1113.4</ele>
        <time>2025-10-05T11:20:18Z</time>
      </trkpt>
      <trkpt lat="43.33275" lon="5.78287">
        <ele>1113</ele>
        <time>2025-10-05T11:20:19Z</time>
      </trkpt>
      <trkpt lat="43.33275" lon="5.78286">
        <ele>1112.7</ele>
        <time>2025-10-05T11:20:20Z</time>
      </trkpt>
      <trkpt lat="43.33275" lon="5.78285">
        <ele>1112.6</ele>
        <time>2025-10-05T11:20:21Z</time>
      </trkpt>
      <trkpt lat="43.33274" lon="5.78283">
        <ele>1112.4</ele>
        <time>2025-10-05T11:20:22Z</time>
      </trkpt>
      <trkpt lat="43.33273" lon="5.78281">
        <ele>1112.3</ele>
        <time>2025-10-05T11:20:23Z</time>
      </trkpt>
      <trkpt lat="43.33273" lon="5.7828">
        <ele>1112.4</ele>
        <time>2025-10-05T11:20:24Z</time>
      </trkpt>
      <trkpt lat="43.33272" lon="5.78279">
        <ele>1113.3</ele>
        <time>2025-10-05T11:20:25Z</time>
      </trkpt>
      <trkpt lat="43.33271" lon="5.78278">
        <ele>1113.9</ele>
        <time>2025-10-05T11:20:26Z</time>
      </trkpt>
      <trkpt lat="43.3327" lon="5.78277">
        <ele>1114.3</ele>
        <time>2025-10-05T11:20:27Z</time>
      </trkpt>
      <trkpt lat="43.3327" lon="5.78276">
        <ele>1114.6</ele>
        <time>2025-10-05T11:20:28Z</time>
      </trkpt>
      <trkpt lat="43.33269" lon="5.78275">
        <ele>1114.7</ele>
        <time>2025-10-05T11:20:29Z</time>
      </trkpt>
      <trkpt lat="43.33269" lon="5.78274">
        <ele>1114.8</ele>
        <time>2025-10-05T11:20:30Z</time>
      </trkpt>
      <trkpt lat="43.33268" lon="5.78273">
        <ele>1115.2</ele>
        <time>2025-10-05T11:20:31Z</time>
      </trkpt>
      <trkpt lat="43.33267" lon="5.78271">
        <ele>1114.9</ele>
        <time>2025-10-05T11:20:32Z</time>
      </trkpt>
      <trkpt lat="43.33266" lon="5.7827">
        <ele>1116.1</ele>
        <time>2025-10-05T11:20:33Z</time>
      </trkpt>
      <trkpt lat="43.33266" lon="5.78269">
        <ele>1117.1</ele>
        <time>2025-10-05T11:20:34Z</time>
      </trkpt>
      <trkpt lat="43.33265" lon="5.78268">
        <ele>1119.2</ele>
        <time>2025-10-05T11:20:35Z</time>
      </trkpt>
      <trkpt lat="43.33264" lon="5.78267">
        <ele>1120.3</ele>
        <time>2025-10-05T11:20:36Z</time>
      </trkpt>
      <trkpt lat="43.33263" lon="5.78266">
        <ele>1120.8</ele>
        <time>2025-10-05T11:20:37Z</time>
      </trkpt>
      <trkpt lat="43.33262" lon="5.78265">
        <ele>1121.5</ele>
        <time>2025-10-05T11:20:38Z</time>
      </trkpt>
      <trkpt lat="43.3326" lon="5.78263">
        <ele>1122.1</ele>
        <time>2025-10-05T11:20:39Z</time>
      </trkpt>
      <trkpt lat="43.33259" lon="5.78262">
        <ele>1121.7</ele>
        <time>2025-10-05T11:20:40Z</time>
      </trkpt>
      <trkpt lat="43.33258" lon="5.78261">
        <ele>1122.6</ele>
        <time>2025-10-05T11:20:41Z</time>
      </trkpt>
      <trkpt lat="43.33257" lon="5.78259">
        <ele>1122.9</ele>
        <time>2025-10-05T11:20:42Z</time>
      </trkpt>
      <trkpt lat="43.33257" lon="5.78258">
        <ele>1122.4</ele>
        <time>2025-10-05T11:20:43Z</time>
      </trkpt>
      <trkpt lat="43.33256" lon="5.78257">
        <ele>1122.4</ele>
        <time>2025-10-05T11:20:44Z</time>
      </trkpt>
      <trkpt lat="43.33255" lon="5.78256">
        <ele>1123.5</ele>
        <time>2025-10-05T11:20:45Z</time>
      </trkpt>
      <trkpt lat="43.33254" lon="5.78254">
        <ele>1123.8</ele>
        <time>2025-10-05T11:20:46Z</time>
      </trkpt>
      <trkpt lat="43.33254" lon="5.78253">
        <ele>1123.5</ele>
        <time>2025-10-05T11:20:47Z</time>
      </trkpt>
      <trkpt lat="43.33253" lon="5.78251">
        <ele>1123.4</ele>
        <time>2025-10-05T11:20:48Z</time>
      </trkpt>
      <trkpt lat="43.33252" lon="5.78249">
        <ele>1123.3</ele>
        <time>2025-10-05T11:20:49Z</time>
      </trkpt>
      <trkpt lat="43.33251" lon="5.78248">
        <ele>1123.8</ele>
        <time>2025-10-05T11:20:50Z</time>
      </trkpt>
      <trkpt lat="43.33251" lon="5.78246">
        <ele>1123.1</ele>
        <time>2025-10-05T11:20:51Z</time>
      </trkpt>
      <trkpt lat="43.3325" lon="5.78245">
        <ele>1123.2</ele>
        <time>2025-10-05T11:20:52Z</time>
      </trkpt>
      <trkpt lat="43.33249" lon="5.78243">
        <ele>1122.6</ele>
        <time>2025-10-05T11:20:53Z</time>
      </trkpt>
      <trkpt lat="43.33248" lon="5.78242">
        <ele>1121.9</ele>
        <time>2025-10-05T11:20:54Z</time>
      </trkpt>
      <trkpt lat="43.33248" lon="5.7824">
        <ele>1121.3</ele>
        <time>2025-10-05T11:20:55Z</time>
      </trkpt>
      <trkpt lat="43.33247" lon="5.78239">
        <ele>1121</ele>
        <time>2025-10-05T11:20:56Z</time>
      </trkpt>
      <trkpt lat="43.33246" lon="5.78238">
        <ele>1120.3</ele>
        <time>2025-10-05T11:20:57Z</time>
      </trkpt>
      <trkpt lat="43.33245" lon="5.78237">
        <ele>1120.8</ele>
        <time>2025-10-05T11:20:58Z</time>
      </trkpt>
      <trkpt lat="43.33244" lon="5.78236">
        <ele>1120</ele>
        <time>2025-10-05T11:20:59Z</time>
      </trkpt>
      <trkpt lat="43.33243" lon="5.78234">
        <ele>1119.7</ele>
        <time>2025-10-05T11:21:00Z</time>
      </trkpt>
      <trkpt lat="43.33243" lon="5.78233">
        <ele>1119.6</ele>
        <time>2025-10-05T11:21:01Z</time>
      </trkpt>
      <trkpt lat="43.33242" lon="5.78232">
        <ele>1118.7</ele>
        <time>2025-10-05T11:21:02Z</time>
      </trkpt>
      <trkpt lat="43.33242" lon="5.7823">
        <ele>1118.5</ele>
        <time>2025-10-05T11:21:03Z</time>
      </trkpt>
      <trkpt lat="43.33241" lon="5.78229">
        <ele>1118.1</ele>
        <time>2025-10-05T11:21:04Z</time>
      </trkpt>
      <trkpt lat="43.33241" lon="5.78227">
        <ele>1117.8</ele>
        <time>2025-10-05T11:21:05Z</time>
      </trkpt>
      <trkpt lat="43.3324" lon="5.78226">
        <ele>1117.8</ele>
        <time>2025-10-05T11:21:06Z</time>
      </trkpt>
      <trkpt lat="43.33239" lon="5.78225">
        <ele>1117.3</ele>
        <time>2025-10-05T11:21:07Z</time>
      </trkpt>
      <trkpt lat="43.33238" lon="5.78223">
        <ele>1117.1</ele>
        <time>2025-10-05T11:21:08Z</time>
      </trkpt>
      <trkpt lat="43.33238" lon="5.78222">
        <ele>1117.3</ele>
        <time>2025-10-05T11:21:09Z</time>
      </trkpt>
      <trkpt lat="43.33237" lon="5.78221">
        <ele>1117.1</ele>
        <time>2025-10-05T11:21:10Z</time>
      </trkpt>
      <trkpt lat="43.33237" lon="5.78219">
        <ele>1117.3</ele>
        <time>2025-10-05T11:21:11Z</time>
      </trkpt>
      <trkpt lat="43.33237" lon="5.78218">
        <ele>1117.6</ele>
        <time>2025-10-05T11:21:12Z</time>
      </trkpt>
      <trkpt lat="43.33236" lon="5.78216">
        <ele>1117.9</ele>
        <time>2025-10-05T11:21:13Z</time>
      </trkpt>
      <trkpt lat="43.33236" lon="5.78215">
        <ele>1118.4</ele>
        <time>2025-10-05T11:21:14Z</time>
      </trkpt>
      <trkpt lat="43.33235" lon="5.78214">
        <ele>1118.7</ele>
        <time>2025-10-05T11:21:15Z</time>
      </trkpt>
      <trkpt lat="43.33235" lon="5.78212">
        <ele>1118.8</ele>
        <time>2025-10-05T11:21:16Z</time>
      </trkpt>
      <trkpt lat="43.33235" lon="5.78211">
        <ele>1118.8</ele>
        <time>2025-10-05T11:21:17Z</time>
      </trkpt>
      <trkpt lat="43.33234" lon="5.78209">
        <ele>1118.9</ele>
        <time>2025-10-05T11:21:18Z</time>
      </trkpt>
      <trkpt lat="43.33234" lon="5.78207">
        <ele>1118.7</ele>
        <time>2025-10-05T11:21:19Z</time>
      </trkpt>
      <trkpt lat="43.33233" lon="5.78206">
        <ele>1118.8</ele>
        <time>2025-10-05T11:21:20Z</time>
      </trkpt>
      <trkpt lat="43.33233" lon="5.78204">
        <ele>1118.7</ele>
        <time>2025-10-05T11:21:21Z</time>
      </trkpt>
      <trkpt lat="43.33232" lon="5.78203">
        <ele>1118.9</ele>
        <time>2025-10-05T11:21:22Z</time>
      </trkpt>
      <trkpt lat="43.33231" lon="5.78201">
        <ele>1118.5</ele>
        <time>2025-10-05T11:21:23Z</time>
      </trkpt>
      <trkpt lat="43.33231" lon="5.78199">
        <ele>1118.3</ele>
        <time>2025-10-05T11:21:24Z</time>
      </trkpt>
      <trkpt lat="43.3323" lon="5.78198">
        <ele>1118.1</ele>
        <time>2025-10-05T11:21:25Z</time>
      </trkpt>
      <trkpt lat="43.3323" lon="5.78196">
        <ele>1117.9</ele>
        <time>2025-10-05T11:21:26Z</time>
      </trkpt>
      <trkpt lat="43.33229" lon="5.78195">
        <ele>1117.4</ele>
        <time>2025-10-05T11:21:27Z</time>
      </trkpt>
      <trkpt lat="43.33228" lon="5.78194">
        <ele>1118.1</ele>
        <time>2025-10-05T11:21:28Z</time>
      </trkpt>
      <trkpt lat="43.33228" lon="5.78193">
        <ele>1117.4</ele>
        <time>2025-10-05T11:21:29Z</time>
      </trkpt>
      <trkpt lat="43.33227" lon="5.78191">
        <ele>1117.3</ele>
        <time>2025-10-05T11:21:30Z</time>
      </trkpt>
      <trkpt lat="43.33226" lon="5.7819">
        <ele>1117.4</ele>
        <time>2025-10-05T11:21:31Z</time>
      </trkpt>
      <trkpt lat="43.33226" lon="5.78189">
        <ele>1116.9</ele>
        <time>2025-10-05T11:21:32Z</time>
      </trkpt>
      <trkpt lat="43.33225" lon="5.78187">
        <ele>1116.9</ele>
        <time>2025-10-05T11:21:33Z</time>
      </trkpt>
      <trkpt lat="43.33225" lon="5.78186">
        <ele>1116.5</ele>
        <time>2025-10-05T11:21:34Z</time>
      </trkpt>
      <trkpt lat="43.33224" lon="5.78184">
        <ele>1116.4</ele>
        <time>2025-10-05T11:21:35Z</time>
      </trkpt>
      <trkpt lat="43.33224" lon="5.78182">
        <ele>1116.3</ele>
        <time>2025-10-05T11:21:36Z</time>
      </trkpt>
      <trkpt lat="43.33224" lon="5.7818">
        <ele>1115.5</ele>
        <time>2025-10-05T11:21:37Z</time>
      </trkpt>
      <trkpt lat="43.33223" lon="5.78179">
        <ele>1115.2</ele>
        <time>2025-10-05T11:21:38Z</time>
      </trkpt>
      <trkpt lat="43.33223" lon="5.78177">
        <ele>1114.8</ele>
        <time>2025-10-05T11:21:39Z</time>
      </trkpt>
      <trkpt lat="43.33222" lon="5.78176">
        <ele>1114.4</ele>
        <time>2025-10-05T11:21:40Z</time>
      </trkpt>
      <trkpt lat="43.33221" lon="5.78174">
        <ele>1114.3</ele>
        <time>2025-10-05T11:21:41Z</time>
      </trkpt>
      <trkpt lat="43.33221" lon="5.78173">
        <ele>1114</ele>
        <time>2025-10-05T11:21:42Z</time>
      </trkpt>
      <trkpt lat="43.3322" lon="5.78172">
        <ele>1113.3</ele>
        <time>2025-10-05T11:21:43Z</time>
      </trkpt>
      <trkpt lat="43.3322" lon="5.7817">
        <ele>1113.2</ele>
        <time>2025-10-05T11:21:44Z</time>
      </trkpt>
      <trkpt lat="43.33219" lon="5.78169">
        <ele>1113</ele>
        <time>2025-10-05T11:21:45Z</time>
      </trkpt>
      <trkpt lat="43.33219" lon="5.78167">
        <ele>1112.3</ele>
        <time>2025-10-05T11:21:46Z</time>
      </trkpt>
      <trkpt lat="43.33218" lon="5.78166">
        <ele>1111.7</ele>
        <time>2025-10-05T11:21:47Z</time>
      </trkpt>
      <trkpt lat="43.33217" lon="5.78165">
        <ele>1111.6</ele>
        <time>2025-10-05T11:21:48Z</time>
      </trkpt>
      <trkpt lat="43.33217" lon="5.78164">
        <ele>1111.1</ele>
        <time>2025-10-05T11:21:49Z</time>
      </trkpt>
      <trkpt lat="43.33216" lon="5.78163">
        <ele>1110.5</ele>
        <time>2025-10-05T11:21:50Z</time>
      </trkpt>
      <trkpt lat="43.33216" lon="5.78163">
        <ele>1110.2</ele>
        <time>2025-10-05T11:21:51Z</time>
      </trkpt>
      <trkpt lat="43.33215" lon="5.78162">
        <ele>1109.8</ele>
        <time>2025-10-05T11:21:52Z</time>
      </trkpt>
      <trkpt lat="43.33215" lon="5.78161">
        <ele>1109.4</ele>
        <time>2025-10-05T11:21:53Z</time>
      </trkpt>
      <trkpt lat="43.33214" lon="5.7816">
        <ele>1109</ele>
        <time>2025-10-05T11:21:54Z</time>
      </trkpt>
      <trkpt lat="43.33214" lon="5.78159">
        <ele>1108.9</ele>
        <time>2025-10-05T11:21:55Z</time>
      </trkpt>
      <trkpt lat="43.33213" lon="5.78158">
        <ele>1108.2</ele>
        <time>2025-10-05T11:21:56Z</time>
      </trkpt>
      <trkpt lat="43.33213" lon="5.78157">
        <ele>1107.7</ele>
        <time>2025-10-05T11:21:57Z</time>
      </trkpt>
      <trkpt lat="43.33212" lon="5.78156">
        <ele>1107.3</ele>
        <time>2025-10-05T11:21:58Z</time>
      </trkpt>
      <trkpt lat="43.33212" lon="5.78154">
        <ele>1106.9</ele>
        <time>2025-10-05T11:21:59Z</time>
      </trkpt>
      <trkpt lat="43.33211" lon="5.78153">
        <ele>1106.2</ele>
        <time>2025-10-05T11:22:00Z</time>
      </trkpt>
      <trkpt lat="43.3321" lon="5.78152">
        <ele>1106</ele>
        <time>2025-10-05T11:22:01Z</time>
      </trkpt>
      <trkpt lat="43.33209" lon="5.78151">
        <ele>1106</ele>
        <time>2025-10-05T11:22:02Z</time>
      </trkpt>
      <trkpt lat="43.33208" lon="5.7815">
        <ele>1105.6</ele>
        <time>2025-10-05T11:22:03Z</time>
      </trkpt>
      <trkpt lat="43.33208" lon="5.7815">
        <ele>1105.4</ele>
        <time>2025-10-05T11:22:04Z</time>
      </trkpt>
      <trkpt lat="43.33207" lon="5.78149">
        <ele>1105</ele>
        <time>2025-10-05T11:22:05Z</time>
      </trkpt>
      <trkpt lat="43.33206" lon="5.78148">
        <ele>1105</ele>
        <time>2025-10-05T11:22:06Z</time>
      </trkpt>
      <trkpt lat="43.33205" lon="5.78147">
        <ele>1104.8</ele>
        <time>2025-10-05T11:22:07Z</time>
      </trkpt>
      <trkpt lat="43.33204" lon="5.78145">
        <ele>1103.9</ele>
        <time>2025-10-05T11:22:08Z</time>
      </trkpt>
      <trkpt lat="43.33204" lon="5.78145">
        <ele>1103.6</ele>
        <time>2025-10-05T11:22:09Z</time>
      </trkpt>
      <trkpt lat="43.33203" lon="5.78144">
        <ele>1104.1</ele>
        <time>2025-10-05T11:22:10Z</time>
      </trkpt>
      <trkpt lat="43.33202" lon="5.78143">
        <ele>1103.8</ele>
        <time>2025-10-05T11:22:11Z</time>
      </trkpt>
      <trkpt lat="43.33202" lon="5.78142">
        <ele>1104.1</ele>
        <time>2025-10-05T11:22:12Z</time>
      </trkpt>
      <trkpt lat="43.33201" lon="5.78141">
        <ele>1104.2</ele>
        <time>2025-10-05T11:22:13Z</time>
      </trkpt>
      <trkpt lat="43.332" lon="5.7814">
        <ele>1103.8</ele>
        <time>2025-10-05T11:22:14Z</time>
      </trkpt>
      <trkpt lat="43.33199" lon="5.78139">
        <ele>1104</ele>
        <time>2025-10-05T11:22:15Z</time>
      </trkpt>
      <trkpt lat="43.33198" lon="5.78138">
        <ele>1104.1</ele>
        <time>2025-10-05T11:22:16Z</time>
      </trkpt>
      <trkpt lat="43.33198" lon="5.78137">
        <ele>1104.1</ele>
        <time>2025-10-05T11:22:17Z</time>
      </trkpt>
      <trkpt lat="43.33197" lon="5.78136">
        <ele>1104</ele>
        <time>2025-10-05T11:22:18Z</time>
      </trkpt>
      <trkpt lat="43.33196" lon="5.78135">
        <ele>1104</ele>
        <time>2025-10-05T11:22:19Z</time>
      </trkpt>
      <trkpt lat="43.33195" lon="5.78134">
        <ele>1103.5</ele>
        <time>2025-10-05T11:22:20Z</time>
      </trkpt>
      <trkpt lat="43.33194" lon="5.78133">
        <ele>1103.3</ele>
        <time>2025-10-05T11:22:21Z</time>
      </trkpt>
      <trkpt lat="43.33193" lon="5.78133">
        <ele>1103.4</ele>
        <time>2025-10-05T11:22:22Z</time>
      </trkpt>
      <trkpt lat="43.33192" lon="5.78132">
        <ele>1103</ele>
        <time>2025-10-05T11:22:23Z</time>
      </trkpt>
      <trkpt lat="43.33191" lon="5.78131">
        <ele>1102.7</ele>
        <time>2025-10-05T11:22:24Z</time>
      </trkpt>
      <trkpt lat="43.33191" lon="5.78131">
        <ele>1102.4</ele>
        <time>2025-10-05T11:22:25Z</time>
      </trkpt>
      <trkpt lat="43.3319" lon="5.7813">
        <ele>1102.8</ele>
        <time>2025-10-05T11:22:26Z</time>
      </trkpt>
      <trkpt lat="43.33189" lon="5.78129">
        <ele>1103.4</ele>
        <time>2025-10-05T11:22:27Z</time>
      </trkpt>
      <trkpt lat="43.33188" lon="5.78128">
        <ele>1103.5</ele>
        <time>2025-10-05T11:22:28Z</time>
      </trkpt>
      <trkpt lat="43.33188" lon="5.78127">
        <ele>1103.4</ele>
        <time>2025-10-05T11:22:29Z</time>
      </trkpt>
      <trkpt lat="43.33187" lon="5.78126">
        <ele>1103</ele>
        <time>2025-10-05T11:22:30Z</time>
      </trkpt>
      <trkpt lat="43.33186" lon="5.78125">
        <ele>1102.9</ele>
        <time>2025-10-05T11:22:31Z</time>
      </trkpt>
      <trkpt lat="43.33185" lon="5.78125">
        <ele>1102.7</ele>
        <time>2025-10-05T11:22:32Z</time>
      </trkpt>
      <trkpt lat="43.33184" lon="5.78124">
        <ele>1102.4</ele>
        <time>2025-10-05T11:22:33Z</time>
      </trkpt>
      <trkpt lat="43.33184" lon="5.78124">
        <ele>1103.1</ele>
        <time>2025-10-05T11:22:34Z</time>
      </trkpt>
      <trkpt lat="43.33183" lon="5.78123">
        <ele>1103</ele>
        <time>2025-10-05T11:22:35Z</time>
      </trkpt>
      <trkpt lat="43.33182" lon="5.78123">
        <ele>1102.9</ele>
        <time>2025-10-05T11:22:36Z</time>
      </trkpt>
      <trkpt lat="43.33181" lon="5.78122">
        <ele>1103.2</ele>
        <time>2025-10-05T11:22:37Z</time>
      </trkpt>
      <trkpt lat="43.33181" lon="5.78121">
        <ele>1103.6</ele>
        <time>2025-10-05T11:22:38Z</time>
      </trkpt>
      <trkpt lat="43.3318" lon="5.7812">
        <ele>1103.3</ele>
        <time>2025-10-05T11:22:39Z</time>
      </trkpt>
      <trkpt lat="43.33179" lon="5.78119">
        <ele>1103.1</ele>
        <time>2025-10-05T11:22:40Z</time>
      </trkpt>
      <trkpt lat="43.33178" lon="5.78118">
        <ele>1103</ele>
        <time>2025-10-05T11:22:41Z</time>
      </trkpt>
      <trkpt lat="43.33177" lon="5.78117">
        <ele>1102.7</ele>
        <time>2025-10-05T11:22:42Z</time>
      </trkpt>
      <trkpt lat="43.33177" lon="5.78117">
        <ele>1102.8</ele>
        <time>2025-10-05T11:22:43Z</time>
      </trkpt>
      <trkpt lat="43.33176" lon="5.78116">
        <ele>1103.1</ele>
        <time>2025-10-05T11:22:44Z</time>
      </trkpt>
      <trkpt lat="43.33175" lon="5.78115">
        <ele>1102.8</ele>
        <time>2025-10-05T11:22:45Z</time>
      </trkpt>
      <trkpt lat="43.33174" lon="5.78115">
        <ele>1103</ele>
        <time>2025-10-05T11:22:46Z</time>
      </trkpt>
      <trkpt lat="43.33173" lon="5.78114">
        <ele>1102.8</ele>
        <time>2025-10-05T11:22:47Z</time>
      </trkpt>
      <trkpt lat="43.33172" lon="5.78114">
        <ele>1103</ele>
        <time>2025-10-05T11:22:48Z</time>
      </trkpt>
      <trkpt lat="43.33171" lon="5.78113">
        <ele>1103.3</ele>
        <time>2025-10-05T11:22:49Z</time>
      </trkpt>
      <trkpt lat="43.3317" lon="5.78112">
        <ele>1102.9</ele>
        <time>2025-10-05T11:22:50Z</time>
      </trkpt>
      <trkpt lat="43.3317" lon="5.78111">
        <ele>1102.5</ele>
        <time>2025-10-05T11:22:51Z</time>
      </trkpt>
      <trkpt lat="43.33169" lon="5.78111">
        <ele>1102.7</ele>
        <time>2025-10-05T11:22:52Z</time>
      </trkpt>
      <trkpt lat="43.33168" lon="5.7811">
        <ele>1102.3</ele>
        <time>2025-10-05T11:22:53Z</time>
      </trkpt>
      <trkpt lat="43.33167" lon="5.78109">
        <ele>1102.1</ele>
        <time>2025-10-05T11:22:54Z</time>
      </trkpt>
      <trkpt lat="43.33166" lon="5.78108">
        <ele>1101.9</ele>
        <time>2025-10-05T11:22:55Z</time>
      </trkpt>
      <trkpt lat="43.33165" lon="5.78107">
        <ele>1102</ele>
        <time>2025-10-05T11:22:56Z</time>
      </trkpt>
      <trkpt lat="43.33164" lon="5.78106">
        <ele>1101.9</ele>
        <time>2025-10-05T11:22:57Z</time>
      </trkpt>
      <trkpt lat="43.33164" lon="5.78106">
        <ele>1102</ele>
        <time>2025-10-05T11:22:58Z</time>
      </trkpt>
      <trkpt lat="43.33163" lon="5.78105">
        <ele>1101.5</ele>
        <time>2025-10-05T11:22:59Z</time>
      </trkpt>
      <trkpt lat="43.33162" lon="5.78104">
        <ele>1101.5</ele>
        <time>2025-10-05T11:23:00Z</time>
      </trkpt>
      <trkpt lat="43.33161" lon="5.78104">
        <ele>1101.5</ele>
        <time>2025-10-05T11:23:01Z</time>
      </trkpt>
      <trkpt lat="43.3316" lon="5.78103">
        <ele>1102.1</ele>
        <time>2025-10-05T11:23:02Z</time>
      </trkpt>
      <trkpt lat="43.33159" lon="5.78103">
        <ele>1102</ele>
        <time>2025-10-05T11:23:03Z</time>
      </trkpt>
      <trkpt lat="43.33158" lon="5.78102">
        <ele>1102</ele>
        <time>2025-10-05T11:23:04Z</time>
      </trkpt>
      <trkpt lat="43.33157" lon="5.78101">
        <ele>1101.9</ele>
        <time>2025-10-05T11:23:05Z</time>
      </trkpt>
      <trkpt lat="43.33156" lon="5.781">
        <ele>1101.7</ele>
        <time>2025-10-05T11:23:06Z</time>
      </trkpt>
      <trkpt lat="43.33155" lon="5.78099">
        <ele>1101.5</ele>
        <time>2025-10-05T11:23:07Z</time>
      </trkpt>
      <trkpt lat="43.33154" lon="5.78098">
        <ele>1101.8</ele>
        <time>2025-10-05T11:23:08Z</time>
      </trkpt>
      <trkpt lat="43.33153" lon="5.78098">
        <ele>1101.9</ele>
        <time>2025-10-05T11:23:09Z</time>
      </trkpt>
      <trkpt lat="43.33152" lon="5.78097">
        <ele>1101.7</ele>
        <time>2025-10-05T11:23:10Z</time>
      </trkpt>
      <trkpt lat="43.33151" lon="5.78096">
        <ele>1101.7</ele>
        <time>2025-10-05T11:23:11Z</time>
      </trkpt>
      <trkpt lat="43.33151" lon="5.78095">
        <ele>1102.5</ele>
        <time>2025-10-05T11:23:12Z</time>
      </trkpt>
      <trkpt lat="43.3315" lon="5.78094">
        <ele>1103.3</ele>
        <time>2025-10-05T11:23:13Z</time>
      </trkpt>
      <trkpt lat="43.33149" lon="5.78093">
        <ele>1102.8</ele>
        <time>2025-10-05T11:23:14Z</time>
      </trkpt>
      <trkpt lat="43.33148" lon="5.78092">
        <ele>1102.8</ele>
        <time>2025-10-05T11:23:15Z</time>
      </trkpt>
      <trkpt lat="43.33147" lon="5.78091">
        <ele>1102.5</ele>
        <time>2025-10-05T11:23:16Z</time>
      </trkpt>
      <trkpt lat="43.33146" lon="5.7809">
        <ele>1102.3</ele>
        <time>2025-10-05T11:23:17Z</time>
      </trkpt>
      <trkpt lat="43.33145" lon="5.78089">
        <ele>1101.9</ele>
        <time>2025-10-05T11:23:18Z</time>
      </trkpt>
      <trkpt lat="43.33144" lon="5.78089">
        <ele>1102.8</ele>
        <time>2025-10-05T11:23:19Z</time>
      </trkpt>
      <trkpt lat="43.33143" lon="5.78087">
        <ele>1102.6</ele>
        <time>2025-10-05T11:23:20Z</time>
      </trkpt>
      <trkpt lat="43.33143" lon="5.78087">
        <ele>1102.8</ele>
        <time>2025-10-05T11:23:21Z</time>
      </trkpt>
      <trkpt lat="43.33144" lon="5.78086">
        <ele>1103.8</ele>
        <time>2025-10-05T11:23:22Z</time>
      </trkpt>
      <trkpt lat="43.33143" lon="5.78084">
        <ele>1104.6</ele>
        <time>2025-10-05T11:23:23Z</time>
      </trkpt>
      <trkpt lat="43.33143" lon="5.78083">
        <ele>1104.9</ele>
        <time>2025-10-05T11:23:24Z</time>
      </trkpt>
      <trkpt lat="43.33142" lon="5.78082">
        <ele>1104.5</ele>
        <time>2025-10-05T11:23:25Z</time>
      </trkpt>
      <trkpt lat="43.33142" lon="5.78081">
        <ele>1104.3</ele>
        <time>2025-10-05T11:23:26Z</time>
      </trkpt>
      <trkpt lat="43.33141" lon="5.78079">
        <ele>1104.3</ele>
        <time>2025-10-05T11:23:27Z</time>
      </trkpt>
      <trkpt lat="43.33141" lon="5.78078">
        <ele>1104.7</ele>
        <time>2025-10-05T11:23:28Z</time>
      </trkpt>
      <trkpt lat="43.33141" lon="5.78077">
        <ele>1105</ele>
        <time>2025-10-05T11:23:29Z</time>
      </trkpt>
      <trkpt lat="43.3314" lon="5.78076">
        <ele>1104.9</ele>
        <time>2025-10-05T11:23:30Z</time>
      </trkpt>
      <trkpt lat="43.33139" lon="5.78074">
        <ele>1104.4</ele>
        <time>2025-10-05T11:23:31Z</time>
      </trkpt>
      <trkpt lat="43.33139" lon="5.78073">
        <ele>1103.9</ele>
        <time>2025-10-05T11:23:32Z</time>
      </trkpt>
      <trkpt lat="43.33138" lon="5.78071">
        <ele>1103.7</ele>
        <time>2025-10-05T11:23:33Z</time>
      </trkpt>
      <trkpt lat="43.33138" lon="5.7807">
        <ele>1103.9</ele>
        <time>2025-10-05T11:23:34Z</time>
      </trkpt>
      <trkpt lat="43.33137" lon="5.78068">
        <ele>1103.4</ele>
        <time>2025-10-05T11:23:35Z</time>
      </trkpt>
      <trkpt lat="43.33137" lon="5.78067">
        <ele>1102.6</ele>
        <time>2025-10-05T11:23:36Z</time>
      </trkpt>
      <trkpt lat="43.33137" lon="5.78067">
        <ele>1102</ele>
        <time>2025-10-05T11:23:37Z</time>
      </trkpt>
      <trkpt lat="43.33136" lon="5.78066">
        <ele>1101.7</ele>
        <time>2025-10-05T11:23:38Z</time>
      </trkpt>
      <trkpt lat="43.33136" lon="5.78065">
        <ele>1101.1</ele>
        <time>2025-10-05T11:23:39Z</time>
      </trkpt>
      <trkpt lat="43.33136" lon="5.78064">
        <ele>1100.8</ele>
        <time>2025-10-05T11:23:40Z</time>
      </trkpt>
      <trkpt lat="43.33135" lon="5.78063">
        <ele>1100.8</ele>
        <time>2025-10-05T11:23:41Z</time>
      </trkpt>
      <trkpt lat="43.33135" lon="5.78062">
        <ele>1100.5</ele>
        <time>2025-10-05T11:23:42Z</time>
      </trkpt>
      <trkpt lat="43.33135" lon="5.78061">
        <ele>1100.3</ele>
        <time>2025-10-05T11:23:43Z</time>
      </trkpt>
      <trkpt lat="43.33135" lon="5.7806">
        <ele>1100.3</ele>
        <time>2025-10-05T11:23:44Z</time>
      </trkpt>
      <trkpt lat="43.33135" lon="5.78058">
        <ele>1100.2</ele>
        <time>2025-10-05T11:23:45Z</time>
      </trkpt>
      <trkpt lat="43.33134" lon="5.78057">
        <ele>1099.8</ele>
        <time>2025-10-05T11:23:46Z</time>
      </trkpt>
      <trkpt lat="43.33134" lon="5.78055">
        <ele>1099.5</ele>
        <time>2025-10-05T11:23:47Z</time>
      </trkpt>
      <trkpt lat="43.33134" lon="5.78054">
        <ele>1099.3</ele>
        <time>2025-10-05T11:23:48Z</time>
      </trkpt>
      <trkpt lat="43.33134" lon="5.78052">
        <ele>1099.2</ele>
        <time>2025-10-05T11:23:49Z</time>
      </trkpt>
      <trkpt lat="43.33133" lon="5.78051">
        <ele>1099.3</ele>
        <time>2025-10-05T11:23:50Z</time>
      </trkpt>
      <trkpt lat="43.33133" lon="5.7805">
        <ele>1099</ele>
        <time>2025-10-05T11:23:51Z</time>
      </trkpt>
      <trkpt lat="43.33134" lon="5.78049">
        <ele>1098.7</ele>
        <time>2025-10-05T11:23:52Z</time>
      </trkpt>
      <trkpt lat="43.33134" lon="5.78048">
        <ele>1098.8</ele>
        <time>2025-10-05T11:23:53Z</time>
      </trkpt>
      <trkpt lat="43.33134" lon="5.78047">
        <ele>1098.8</ele>
        <time>2025-10-05T11:23:54Z</time>
      </trkpt>
      <trkpt lat="43.33134" lon="5.78046">
        <ele>1099.4</ele>
        <time>2025-10-05T11:23:55Z</time>
      </trkpt>
      <trkpt lat="43.33135" lon="5.78045">
        <ele>1099.7</ele>
        <time>2025-10-05T11:23:56Z</time>
      </trkpt>
      <trkpt lat="43.33135" lon="5.78043">
        <ele>1099.7</ele>
        <time>2025-10-05T11:23:57Z</time>
      </trkpt>
      <trkpt lat="43.33135" lon="5.78042">
        <ele>1099.2</ele>
        <time>2025-10-05T11:23:58Z</time>
      </trkpt>
      <trkpt lat="43.33134" lon="5.78041">
        <ele>1098.8</ele>
        <time>2025-10-05T11:23:59Z</time>
      </trkpt>
      <trkpt lat="43.33134" lon="5.7804">
        <ele>1098.2</ele>
        <time>2025-10-05T11:24:00Z</time>
      </trkpt>
      <trkpt lat="43.33134" lon="5.78039">
        <ele>1098.2</ele>
        <time>2025-10-05T11:24:01Z</time>
      </trkpt>
      <trkpt lat="43.33134" lon="5.78038">
        <ele>1099.1</ele>
        <time>2025-10-05T11:24:02Z</time>
      </trkpt>
      <trkpt lat="43.33133" lon="5.78037">
        <ele>1100.3</ele>
        <time>2025-10-05T11:24:03Z</time>
      </trkpt>
      <trkpt lat="43.33133" lon="5.78036">
        <ele>1100.1</ele>
        <time>2025-10-05T11:24:04Z</time>
      </trkpt>
      <trkpt lat="43.33133" lon="5.78034">
        <ele>1100.4</ele>
        <time>2025-10-05T11:24:05Z</time>
      </trkpt>
      <trkpt lat="43.33133" lon="5.78033">
        <ele>1100.9</ele>
        <time>2025-10-05T11:24:06Z</time>
      </trkpt>
      <trkpt lat="43.33133" lon="5.78032">
        <ele>1101.7</ele>
        <time>2025-10-05T11:24:07Z</time>
      </trkpt>
      <trkpt lat="43.33133" lon="5.78031">
        <ele>1102.1</ele>
        <time>2025-10-05T11:24:08Z</time>
      </trkpt>
      <trkpt lat="43.33132" lon="5.78029">
        <ele>1102.1</ele>
        <time>2025-10-05T11:24:09Z</time>
      </trkpt>
      <trkpt lat="43.33132" lon="5.78027">
        <ele>1101.6</ele>
        <time>2025-10-05T11:24:10Z</time>
      </trkpt>
      <trkpt lat="43.33131" lon="5.78025">
        <ele>1101.3</ele>
        <time>2025-10-05T11:24:11Z</time>
      </trkpt>
      <trkpt lat="43.33131" lon="5.78024">
        <ele>1102</ele>
        <time>2025-10-05T11:24:12Z</time>
      </trkpt>
      <trkpt lat="43.33131" lon="5.78022">
        <ele>1101.5</ele>
        <time>2025-10-05T11:24:13Z</time>
      </trkpt>
      <trkpt lat="43.33131" lon="5.7802">
        <ele>1100.9</ele>
        <time>2025-10-05T11:24:14Z</time>
      </trkpt>
      <trkpt lat="43.3313" lon="5.78019">
        <ele>1100.3</ele>
        <time>2025-10-05T11:24:15Z</time>
      </trkpt>
      <trkpt lat="43.3313" lon="5.78018">
        <ele>1100.1</ele>
        <time>2025-10-05T11:24:16Z</time>
      </trkpt>
      <trkpt lat="43.33129" lon="5.78017">
        <ele>1100.2</ele>
        <time>2025-10-05T11:24:17Z</time>
      </trkpt>
      <trkpt lat="43.33128" lon="5.78016">
        <ele>1099.8</ele>
        <time>2025-10-05T11:24:18Z</time>
      </trkpt>
      <trkpt lat="43.33127" lon="5.78015">
        <ele>1099.4</ele>
        <time>2025-10-05T11:24:19Z</time>
      </trkpt>
      <trkpt lat="43.33127" lon="5.78014">
        <ele>1099.7</ele>
        <time>2025-10-05T11:24:20Z</time>
      </trkpt>
      <trkpt lat="43.33127" lon="5.78013">
        <ele>1100</ele>
        <time>2025-10-05T11:24:21Z</time>
      </trkpt>
      <trkpt lat="43.33126" lon="5.78012">
        <ele>1099.7</ele>
        <time>2025-10-05T11:24:22Z</time>
      </trkpt>
      <trkpt lat="43.33125" lon="5.78011">
        <ele>1099.9</ele>
        <time>2025-10-05T11:24:23Z</time>
      </trkpt>
      <trkpt lat="43.33125" lon="5.7801">
        <ele>1099.6</ele>
        <time>2025-10-05T11:24:24Z</time>
      </trkpt>
      <trkpt lat="43.33125" lon="5.78008">
        <ele>1100.3</ele>
        <time>2025-10-05T11:24:25Z</time>
      </trkpt>
      <trkpt lat="43.33125" lon="5.78007">
        <ele>1100.8</ele>
        <time>2025-10-05T11:24:26Z</time>
      </trkpt>
      <trkpt lat="43.33124" lon="5.78005">
        <ele>1099.7</ele>
        <time>2025-10-05T11:24:27Z</time>
      </trkpt>
      <trkpt lat="43.33123" lon="5.78004">
        <ele>1099</ele>
        <time>2025-10-05T11:24:28Z</time>
      </trkpt>
      <trkpt lat="43.33123" lon="5.78003">
        <ele>1099</ele>
        <time>2025-10-05T11:24:29Z</time>
      </trkpt>
      <trkpt lat="43.33122" lon="5.78002">
        <ele>1098.2</ele>
        <time>2025-10-05T11:24:30Z</time>
      </trkpt>
      <trkpt lat="43.33122" lon="5.78">
        <ele>1097.8</ele>
        <time>2025-10-05T11:24:31Z</time>
      </trkpt>
      <trkpt lat="43.33122" lon="5.77999">
        <ele>1097.5</ele>
        <time>2025-10-05T11:24:32Z</time>
      </trkpt>
      <trkpt lat="43.33121" lon="5.77997">
        <ele>1097.4</ele>
        <time>2025-10-05T11:24:33Z</time>
      </trkpt>
      <trkpt lat="43.33121" lon="5.77996">
        <ele>1097.5</ele>
        <time>2025-10-05T11:24:34Z</time>
      </trkpt>
      <trkpt lat="43.33121" lon="5.77995">
        <ele>1097.4</ele>
        <time>2025-10-05T11:24:35Z</time>
      </trkpt>
      <trkpt lat="43.33121" lon="5.77993">
        <ele>1098.1</ele>
        <time>2025-10-05T11:24:36Z</time>
      </trkpt>
      <trkpt lat="43.33121" lon="5.77991">
        <ele>1098.4</ele>
        <time>2025-10-05T11:24:37Z</time>
      </trkpt>
      <trkpt lat="43.33121" lon="5.7799">
        <ele>1099.1</ele>
        <time>2025-10-05T11:24:38Z</time>
      </trkpt>
      <trkpt lat="43.3312" lon="5.77988">
        <ele>1099.1</ele>
        <time>2025-10-05T11:24:39Z</time>
      </trkpt>
      <trkpt lat="43.33119" lon="5.77987">
        <ele>1098.7</ele>
        <time>2025-10-05T11:24:40Z</time>
      </trkpt>
      <trkpt lat="43.33118" lon="5.77986">
        <ele>1098.7</ele>
        <time>2025-10-05T11:24:41Z</time>
      </trkpt>
      <trkpt lat="43.33117" lon="5.77985">
        <ele>1098.7</ele>
        <time>2025-10-05T11:24:42Z</time>
      </trkpt>
      <trkpt lat="43.33117" lon="5.77984">
        <ele>1098.5</ele>
        <time>2025-10-05T11:24:43Z</time>
      </trkpt>
      <trkpt lat="43.33117" lon="5.77982">
        <ele>1098.8</ele>
        <time>2025-10-05T11:24:44Z</time>
      </trkpt>
      <trkpt lat="43.33117" lon="5.77981">
        <ele>1097.8</ele>
        <time>2025-10-05T11:24:45Z</time>
      </trkpt>
      <trkpt lat="43.33117" lon="5.77979">
        <ele>1098.2</ele>
        <time>2025-10-05T11:24:46Z</time>
      </trkpt>
      <trkpt lat="43.33117" lon="5.77978">
        <ele>1099.2</ele>
        <time>2025-10-05T11:24:47Z</time>
      </trkpt>
      <trkpt lat="43.33116" lon="5.77977">
        <ele>1100</ele>
        <time>2025-10-05T11:24:48Z</time>
      </trkpt>
      <trkpt lat="43.33116" lon="5.77976">
        <ele>1099.9</ele>
        <time>2025-10-05T11:24:49Z</time>
      </trkpt>
      <trkpt lat="43.33116" lon="5.77974">
        <ele>1099</ele>
        <time>2025-10-05T11:24:50Z</time>
      </trkpt>
      <trkpt lat="43.33115" lon="5.77972">
        <ele>1098.3</ele>
        <time>2025-10-05T11:24:51Z</time>
      </trkpt>
      <trkpt lat="43.33114" lon="5.77971">
        <ele>1097.8</ele>
        <time>2025-10-05T11:24:52Z</time>
      </trkpt>
      <trkpt lat="43.33114" lon="5.77969">
        <ele>1096.6</ele>
        <time>2025-10-05T11:24:53Z</time>
      </trkpt>
      <trkpt lat="43.33115" lon="5.77967">
        <ele>1097.1</ele>
        <time>2025-10-05T11:24:54Z</time>
      </trkpt>
      <trkpt lat="43.33116" lon="5.77965">
        <ele>1096.1</ele>
        <time>2025-10-05T11:24:55Z</time>
      </trkpt>
      <trkpt lat="43.33115" lon="5.77963">
        <ele>1095.8</ele>
        <time>2025-10-05T11:24:56Z</time>
      </trkpt>
      <trkpt lat="43.33114" lon="5.77962">
        <ele>1095.5</ele>
        <time>2025-10-05T11:24:57Z</time>
      </trkpt>
      <trkpt lat="43.33113" lon="5.7796">
        <ele>1095</ele>
        <time>2025-10-05T11:24:58Z</time>
      </trkpt>
      <trkpt lat="43.33112" lon="5.77959">
        <ele>1095.1</ele>
        <time>2025-10-05T11:24:59Z</time>
      </trkpt>
      <trkpt lat="43.33111" lon="5.77957">
        <ele>1094.1</ele>
        <time>2025-10-05T11:25:00Z</time>
      </trkpt>
      <trkpt lat="43.33109" lon="5.77955">
        <ele>1093.3</ele>
        <time>2025-10-05T11:25:01Z</time>
      </trkpt>
      <trkpt lat="43.33109" lon="5.77954">
        <ele>1092.5</ele>
        <time>2025-10-05T11:25:02Z</time>
      </trkpt>
      <trkpt lat="43.33108" lon="5.77953">
        <ele>1092.2</ele>
        <time>2025-10-05T11:25:03Z</time>
      </trkpt>
      <trkpt lat="43.33107" lon="5.77953">
        <ele>1091.6</ele>
        <time>2025-10-05T11:25:04Z</time>
      </trkpt>
      <trkpt lat="43.33107" lon="5.77952">
        <ele>1090.7</ele>
        <time>2025-10-05T11:25:05Z</time>
      </trkpt>
      <trkpt lat="43.33106" lon="5.7795">
        <ele>1090</ele>
        <time>2025-10-05T11:25:06Z</time>
      </trkpt>
      <trkpt lat="43.33105" lon="5.7795">
        <ele>1089.1</ele>
        <time>2025-10-05T11:25:07Z</time>
      </trkpt>
      <trkpt lat="43.33105" lon="5.77949">
        <ele>1088.9</ele>
        <time>2025-10-05T11:25:08Z</time>
      </trkpt>
      <trkpt lat="43.33105" lon="5.77947">
        <ele>1088.8</ele>
        <time>2025-10-05T11:25:09Z</time>
      </trkpt>
      <trkpt lat="43.33104" lon="5.77946">
        <ele>1087.9</ele>
        <time>2025-10-05T11:25:10Z</time>
      </trkpt>
      <trkpt lat="43.33103" lon="5.77944">
        <ele>1087.9</ele>
        <time>2025-10-05T11:25:11Z</time>
      </trkpt>
      <trkpt lat="43.33102" lon="5.77943">
        <ele>1088</ele>
        <time>2025-10-05T11:25:12Z</time>
      </trkpt>
      <trkpt lat="43.33101" lon="5.77942">
        <ele>1088</ele>
        <time>2025-10-05T11:25:13Z</time>
      </trkpt>
      <trkpt lat="43.33101" lon="5.77941">
        <ele>1088</ele>
        <time>2025-10-05T11:25:14Z</time>
      </trkpt>
      <trkpt lat="43.331" lon="5.7794">
        <ele>1088.1</ele>
        <time>2025-10-05T11:25:15Z</time>
      </trkpt>
      <trkpt lat="43.33099" lon="5.77939">
        <ele>1088.2</ele>
        <time>2025-10-05T11:25:16Z</time>
      </trkpt>
      <trkpt lat="43.33098" lon="5.77938">
        <ele>1086.9</ele>
        <time>2025-10-05T11:25:17Z</time>
      </trkpt>
      <trkpt lat="43.33098" lon="5.77936">
        <ele>1086.1</ele>
        <time>2025-10-05T11:25:18Z</time>
      </trkpt>
      <trkpt lat="43.33097" lon="5.77936">
        <ele>1085.5</ele>
        <time>2025-10-05T11:25:19Z</time>
      </trkpt>
      <trkpt lat="43.33097" lon="5.77935">
        <ele>1084.7</ele>
        <time>2025-10-05T11:25:20Z</time>
      </trkpt>
      <trkpt lat="43.33096" lon="5.77934">
        <ele>1084.1</ele>
        <time>2025-10-05T11:25:21Z</time>
      </trkpt>
      <trkpt lat="43.33096" lon="5.77933">
        <ele>1083.7</ele>
        <time>2025-10-05T11:25:22Z</time>
      </trkpt>
      <trkpt lat="43.33096" lon="5.77932">
        <ele>1083.1</ele>
        <time>2025-10-05T11:25:23Z</time>
      </trkpt>
      <trkpt lat="43.33095" lon="5.77931">
        <ele>1083.1</ele>
        <time>2025-10-05T11:25:24Z</time>
      </trkpt>
      <trkpt lat="43.33095" lon="5.7793">
        <ele>1082.4</ele>
        <time>2025-10-05T11:25:25Z</time>
      </trkpt>
      <trkpt lat="43.33094" lon="5.77928">
        <ele>1081.8</ele>
        <time>2025-10-05T11:25:26Z</time>
      </trkpt>
      <trkpt lat="43.33094" lon="5.77927">
        <ele>1081.3</ele>
        <time>2025-10-05T11:25:27Z</time>
      </trkpt>
      <trkpt lat="43.33094" lon="5.77926">
        <ele>1080.8</ele>
        <time>2025-10-05T11:25:28Z</time>
      </trkpt>
      <trkpt lat="43.33093" lon="5.77926">
        <ele>1080.6</ele>
        <time>2025-10-05T11:25:29Z</time>
      </trkpt>
      <trkpt lat="43.33093" lon="5.77925">
        <ele>1079.9</ele>
        <time>2025-10-05T11:25:30Z</time>
      </trkpt>
      <trkpt lat="43.33093" lon="5.77924">
        <ele>1079.4</ele>
        <time>2025-10-05T11:25:31Z</time>
      </trkpt>
      <trkpt lat="43.33093" lon="5.77923">
        <ele>1079.1</ele>
        <time>2025-10-05T11:25:32Z</time>
      </trkpt>
      <trkpt lat="43.33093" lon="5.77922">
        <ele>1078.9</ele>
        <time>2025-10-05T11:25:33Z</time>
      </trkpt>
      <trkpt lat="43.33093" lon="5.7792">
        <ele>1078.6</ele>
        <time>2025-10-05T11:25:34Z</time>
      </trkpt>
      <trkpt lat="43.33093" lon="5.77919">
        <ele>1078.2</ele>
        <time>2025-10-05T11:25:35Z</time>
      </trkpt>
      <trkpt lat="43.33092" lon="5.77918">
        <ele>1078</ele>
        <time>2025-10-05T11:25:36Z</time>
      </trkpt>
      <trkpt lat="43.33092" lon="5.77917">
        <ele>1077.5</ele>
        <time>2025-10-05T11:25:37Z</time>
      </trkpt>
      <trkpt lat="43.33093" lon="5.77915">
        <ele>1077.6</ele>
        <time>2025-10-05T11:25:38Z</time>
      </trkpt>
      <trkpt lat="43.33093" lon="5.77914">
        <ele>1077.4</ele>
        <time>2025-10-05T11:25:39Z</time>
      </trkpt>
      <trkpt lat="43.33093" lon="5.77913">
        <ele>1076.9</ele>
        <time>2025-10-05T11:25:40Z</time>
      </trkpt>
      <trkpt lat="43.33093" lon="5.77912">
        <ele>1076.7</ele>
        <time>2025-10-05T11:25:41Z</time>
      </trkpt>
      <trkpt lat="43.33093" lon="5.77911">
        <ele>1077</ele>
        <time>2025-10-05T11:25:42Z</time>
      </trkpt>
      <trkpt lat="43.33092" lon="5.7791">
        <ele>1077.2</ele>
        <time>2025-10-05T11:25:43Z</time>
      </trkpt>
      <trkpt lat="43.33092" lon="5.77909">
        <ele>1077.4</ele>
        <time>2025-10-05T11:25:44Z</time>
      </trkpt>
      <trkpt lat="43.33091" lon="5.77908">
        <ele>1077.3</ele>
        <time>2025-10-05T11:25:45Z</time>
      </trkpt>
      <trkpt lat="43.33091" lon="5.77907">
        <ele>1077.2</ele>
        <time>2025-10-05T11:25:46Z</time>
      </trkpt>
      <trkpt lat="43.3309" lon="5.77906">
        <ele>1077</ele>
        <time>2025-10-05T11:25:47Z</time>
      </trkpt>
      <trkpt lat="43.33089" lon="5.77904">
        <ele>1076.7</ele>
        <time>2025-10-05T11:25:48Z</time>
      </trkpt>
      <trkpt lat="43.33089" lon="5.77903">
        <ele>1076.5</ele>
        <time>2025-10-05T11:25:49Z</time>
      </trkpt>
      <trkpt lat="43.33088" lon="5.77902">
        <ele>1076.7</ele>
        <time>2025-10-05T11:25:50Z</time>
      </trkpt>
      <trkpt lat="43.33088" lon="5.77902">
        <ele>1076.4</ele>
        <time>2025-10-05T11:25:51Z</time>
      </trkpt>
      <trkpt lat="43.33088" lon="5.77901">
        <ele>1076.3</ele>
        <time>2025-10-05T11:25:52Z</time>
      </trkpt>
      <trkpt lat="43.33087" lon="5.77899">
        <ele>1076.1</ele>
        <time>2025-10-05T11:25:53Z</time>
      </trkpt>
      <trkpt lat="43.33087" lon="5.77898">
        <ele>1075.8</ele>
        <time>2025-10-05T11:25:54Z</time>
      </trkpt>
      <trkpt lat="43.33087" lon="5.77897">
        <ele>1075.5</ele>
        <time>2025-10-05T11:25:55Z</time>
      </trkpt>
      <trkpt lat="43.33086" lon="5.77896">
        <ele>1075.6</ele>
        <time>2025-10-05T11:25:56Z</time>
      </trkpt>
      <trkpt lat="43.33085" lon="5.77896">
        <ele>1075.5</ele>
        <time>2025-10-05T11:25:57Z</time>
      </trkpt>
      <trkpt lat="43.33085" lon="5.77896">
        <ele>1075.2</ele>
        <time>2025-10-05T11:25:58Z</time>
      </trkpt>
      <trkpt lat="43.33084" lon="5.77895">
        <ele>1074.8</ele>
        <time>2025-10-05T11:25:59Z</time>
      </trkpt>
      <trkpt lat="43.33084" lon="5.77894">
        <ele>1074.4</ele>
        <time>2025-10-05T11:26:00Z</time>
      </trkpt>
      <trkpt lat="43.33083" lon="5.77893">
        <ele>1073.8</ele>
        <time>2025-10-05T11:26:01Z</time>
      </trkpt>
      <trkpt lat="43.33082" lon="5.77892">
        <ele>1073.7</ele>
        <time>2025-10-05T11:26:02Z</time>
      </trkpt>
      <trkpt lat="43.33081" lon="5.77892">
        <ele>1073.4</ele>
        <time>2025-10-05T11:26:03Z</time>
      </trkpt>
      <trkpt lat="43.33081" lon="5.77891">
        <ele>1073.1</ele>
        <time>2025-10-05T11:26:04Z</time>
      </trkpt>
      <trkpt lat="43.3308" lon="5.77891">
        <ele>1072.8</ele>
        <time>2025-10-05T11:26:05Z</time>
      </trkpt>
      <trkpt lat="43.3308" lon="5.7789">
        <ele>1072.6</ele>
        <time>2025-10-05T11:26:06Z</time>
      </trkpt>
      <trkpt lat="43.3308" lon="5.7789">
        <ele>1072.3</ele>
        <time>2025-10-05T11:26:07Z</time>
      </trkpt>
      <trkpt lat="43.33079" lon="5.77889">
        <ele>1072</ele>
        <time>2025-10-05T11:26:08Z</time>
      </trkpt>
      <trkpt lat="43.33079" lon="5.77888">
        <ele>1071.7</ele>
        <time>2025-10-05T11:26:09Z</time>
      </trkpt>
      <trkpt lat="43.33078" lon="5.77887">
        <ele>1071.2</ele>
        <time>2025-10-05T11:26:10Z</time>
      </trkpt>
      <trkpt lat="43.33078" lon="5.77886">
        <ele>1070.7</ele>
        <time>2025-10-05T11:26:11Z</time>
      </trkpt>
      <trkpt lat="43.33077" lon="5.77885">
        <ele>1070.6</ele>
        <time>2025-10-05T11:26:12Z</time>
      </trkpt>
      <trkpt lat="43.33077" lon="5.77884">
        <ele>1070.5</ele>
        <time>2025-10-05T11:26:13Z</time>
      </trkpt>
      <trkpt lat="43.33076" lon="5.77883">
        <ele>1070.1</ele>
        <time>2025-10-05T11:26:14Z</time>
      </trkpt>
      <trkpt lat="43.33076" lon="5.77883">
        <ele>1070.2</ele>
        <time>2025-10-05T11:26:15Z</time>
      </trkpt>
      <trkpt lat="43.33075" lon="5.77882">
        <ele>1069.8</ele>
        <time>2025-10-05T11:26:16Z</time>
      </trkpt>
      <trkpt lat="43.33074" lon="5.77881">
        <ele>1069.6</ele>
        <time>2025-10-05T11:26:17Z</time>
      </trkpt>
      <trkpt lat="43.33074" lon="5.7788">
        <ele>1069.4</ele>
        <time>2025-10-05T11:26:18Z</time>
      </trkpt>
      <trkpt lat="43.33073" lon="5.77879">
        <ele>1069.2</ele>
        <time>2025-10-05T11:26:19Z</time>
      </trkpt>
      <trkpt lat="43.33073" lon="5.77879">
        <ele>1069</ele>
        <time>2025-10-05T11:26:20Z</time>
      </trkpt>
      <trkpt lat="43.33073" lon="5.77878">
        <ele>1069</ele>
        <time>2025-10-05T11:26:21Z</time>
      </trkpt>
      <trkpt lat="43.33072" lon="5.77877">
        <ele>1068.8</ele>
        <time>2025-10-05T11:26:22Z</time>
      </trkpt>
      <trkpt lat="43.33071" lon="5.77877">
        <ele>1068.6</ele>
        <time>2025-10-05T11:26:23Z</time>
      </trkpt>
      <trkpt lat="43.33071" lon="5.77876">
        <ele>1068.4</ele>
        <time>2025-10-05T11:26:24Z</time>
      </trkpt>
      <trkpt lat="43.3307" lon="5.77876">
        <ele>1068</ele>
        <time>2025-10-05T11:26:25Z</time>
      </trkpt>
      <trkpt lat="43.3307" lon="5.77875">
        <ele>1068.1</ele>
        <time>2025-10-05T11:26:26Z</time>
      </trkpt>
      <trkpt lat="43.3307" lon="5.77874">
        <ele>1067.8</ele>
        <time>2025-10-05T11:26:27Z</time>
      </trkpt>
      <trkpt lat="43.3307" lon="5.77873">
        <ele>1067.6</ele>
        <time>2025-10-05T11:26:28Z</time>
      </trkpt>
      <trkpt lat="43.33069" lon="5.77873">
        <ele>1067.5</ele>
        <time>2025-10-05T11:26:29Z</time>
      </trkpt>
      <trkpt lat="43.33069" lon="5.77872">
        <ele>1067.3</ele>
        <time>2025-10-05T11:26:30Z</time>
      </trkpt>
      <trkpt lat="43.33068" lon="5.77871">
        <ele>1067.2</ele>
        <time>2025-10-05T11:26:31Z</time>
      </trkpt>
      <trkpt lat="43.33068" lon="5.77871">
        <ele>1067</ele>
        <time>2025-10-05T11:26:32Z</time>
      </trkpt>
      <trkpt lat="43.33068" lon="5.77871">
        <ele>1066.9</ele>
        <time>2025-10-05T11:26:33Z</time>
      </trkpt>
      <trkpt lat="43.33067" lon="5.7787">
        <ele>1066.7</ele>
        <time>2025-10-05T11:26:34Z</time>
      </trkpt>
      <trkpt lat="43.33067" lon="5.77869">
        <ele>1066.5</ele>
        <time>2025-10-05T11:26:35Z</time>
      </trkpt>
      <trkpt lat="43.33066" lon="5.77869">
        <ele>1066.2</ele>
        <time>2025-10-05T11:26:36Z</time>
      </trkpt>
      <trkpt lat="43.33065" lon="5.77868">
        <ele>1065.9</ele>
        <time>2025-10-05T11:26:37Z</time>
      </trkpt>
      <trkpt lat="43.33065" lon="5.77868">
        <ele>1065.7</ele>
        <time>2025-10-05T11:26:38Z</time>
      </trkpt>
      <trkpt lat="43.33064" lon="5.77867">
        <ele>1065.3</ele>
        <time>2025-10-05T11:26:39Z</time>
      </trkpt>
      <trkpt lat="43.33063" lon="5.77866">
        <ele>1065.2</ele>
        <time>2025-10-05T11:26:40Z</time>
      </trkpt>
      <trkpt lat="43.33063" lon="5.77865">
        <ele>1065.1</ele>
        <time>2025-10-05T11:26:41Z</time>
      </trkpt>
      <trkpt lat="43.33062" lon="5.77864">
        <ele>1064.5</ele>
        <time>2025-10-05T11:26:42Z</time>
      </trkpt>
      <trkpt lat="43.33062" lon="5.77864">
        <ele>1064.2</ele>
        <time>2025-10-05T11:26:43Z</time>
      </trkpt>
      <trkpt lat="43.33062" lon="5.77863">
        <ele>1064</ele>
        <time>2025-10-05T11:26:44Z</time>
      </trkpt>
      <trkpt lat="43.33061" lon="5.77863">
        <ele>1063.9</ele>
        <time>2025-10-05T11:26:45Z</time>
      </trkpt>
      <trkpt lat="43.33061" lon="5.77862">
        <ele>1063.5</ele>
        <time>2025-10-05T11:26:46Z</time>
      </trkpt>
      <trkpt lat="43.33061" lon="5.77862">
        <ele>1063.4</ele>
        <time>2025-10-05T11:26:47Z</time>
      </trkpt>
      <trkpt lat="43.33061" lon="5.77861">
        <ele>1063.2</ele>
        <time>2025-10-05T11:26:48Z</time>
      </trkpt>
      <trkpt lat="43.3306" lon="5.77861">
        <ele>1063</ele>
        <time>2025-10-05T11:26:49Z</time>
      </trkpt>
      <trkpt lat="43.3306" lon="5.7786">
        <ele>1062.8</ele>
        <time>2025-10-05T11:26:50Z</time>
      </trkpt>
      <trkpt lat="43.33059" lon="5.77859">
        <ele>1062.6</ele>
        <time>2025-10-05T11:26:51Z</time>
      </trkpt>
      <trkpt lat="43.33059" lon="5.77859">
        <ele>1062.6</ele>
        <time>2025-10-05T11:26:52Z</time>
      </trkpt>
      <trkpt lat="43.33059" lon="5.77858">
        <ele>1062.5</ele>
        <time>2025-10-05T11:26:53Z</time>
      </trkpt>
      <trkpt lat="43.33059" lon="5.77858">
        <ele>1062.4</ele>
        <time>2025-10-05T11:26:54Z</time>
      </trkpt>
      <trkpt lat="43.33058" lon="5.77857">
        <ele>1062.3</ele>
        <time>2025-10-05T11:26:55Z</time>
      </trkpt>
      <trkpt lat="43.33058" lon="5.77857">
        <ele>1062.2</ele>
        <time>2025-10-05T11:26:56Z</time>
      </trkpt>
      <trkpt lat="43.33058" lon="5.77856">
        <ele>1062</ele>
        <time>2025-10-05T11:26:57Z</time>
      </trkpt>
      <trkpt lat="43.33058" lon="5.77856">
        <ele>1061.9</ele>
        <time>2025-10-05T11:26:58Z</time>
      </trkpt>
      <trkpt lat="43.33058" lon="5.77856">
        <ele>1061.9</ele>
        <time>2025-10-05T11:26:59Z</time>
      </trkpt>
      <trkpt lat="43.33058" lon="5.77855">
        <ele>1061.9</ele>
        <time>2025-10-05T11:27:00Z</time>
      </trkpt>
      <trkpt lat="43.33058" lon="5.77854">
        <ele>1062</ele>
        <time>2025-10-05T11:27:01Z</time>
      </trkpt>
      <trkpt lat="43.33058" lon="5.77852">
        <ele>1062.1</ele>
        <time>2025-10-05T11:27:02Z</time>
      </trkpt>
      <trkpt lat="43.33058" lon="5.77852">
        <ele>1062.2</ele>
        <time>2025-10-05T11:27:03Z</time>
      </trkpt>
      <trkpt lat="43.33058" lon="5.77851">
        <ele>1062</ele>
        <time>2025-10-05T11:27:04Z</time>
      </trkpt>
      <trkpt lat="43.33058" lon="5.7785">
        <ele>1062</ele>
        <time>2025-10-05T11:27:05Z</time>
      </trkpt>
      <trkpt lat="43.33059" lon="5.77849">
        <ele>1062</ele>
        <time>2025-10-05T11:27:06Z</time>
      </trkpt>
      <trkpt lat="43.33059" lon="5.77848">
        <ele>1062</ele>
        <time>2025-10-05T11:27:07Z</time>
      </trkpt>
      <trkpt lat="43.33059" lon="5.77847">
        <ele>1062</ele>
        <time>2025-10-05T11:27:08Z</time>
      </trkpt>
      <trkpt lat="43.33059" lon="5.77846">
        <ele>1061.9</ele>
        <time>2025-10-05T11:27:09Z</time>
      </trkpt>
      <trkpt lat="43.33059" lon="5.77845">
        <ele>1062</ele>
        <time>2025-10-05T11:27:10Z</time>
      </trkpt>
      <trkpt lat="43.33059" lon="5.77844">
        <ele>1062</ele>
        <time>2025-10-05T11:27:11Z</time>
      </trkpt>
      <trkpt lat="43.33059" lon="5.77844">
        <ele>1062</ele>
        <time>2025-10-05T11:27:12Z</time>
      </trkpt>
      <trkpt lat="43.33059" lon="5.77843">
        <ele>1061.9</ele>
        <time>2025-10-05T11:27:13Z</time>
      </trkpt>
      <trkpt lat="43.33059" lon="5.77842">
        <ele>1061.9</ele>
        <time>2025-10-05T11:27:14Z</time>
      </trkpt>
      <trkpt lat="43.33058" lon="5.77841">
        <ele>1061.9</ele>
        <time>2025-10-05T11:27:15Z</time>
      </trkpt>
      <trkpt lat="43.33058" lon="5.7784">
        <ele>1061.9</ele>
        <time>2025-10-05T11:27:16Z</time>
      </trkpt>
      <trkpt lat="43.33059" lon="5.77839">
        <ele>1061.9</ele>
        <time>2025-10-05T11:27:17Z</time>
      </trkpt>
      <trkpt lat="43.33059" lon="5.77838">
        <ele>1061.8</ele>
        <time>2025-10-05T11:27:18Z</time>
      </trkpt>
      <trkpt lat="43.33059" lon="5.77837">
        <ele>1061.9</ele>
        <time>2025-10-05T11:27:19Z</time>
      </trkpt>
      <trkpt lat="43.33059" lon="5.77836">
        <ele>1061.8</ele>
        <time>2025-10-05T11:27:20Z</time>
      </trkpt>
      <trkpt lat="43.33059" lon="5.77835">
        <ele>1062</ele>
        <time>2025-10-05T11:27:21Z</time>
      </trkpt>
      <trkpt lat="43.33059" lon="5.77834">
        <ele>1062.1</ele>
        <time>2025-10-05T11:27:22Z</time>
      </trkpt>
      <trkpt lat="43.33059" lon="5.77834">
        <ele>1062.1</ele>
        <time>2025-10-05T11:27:23Z</time>
      </trkpt>
      <trkpt lat="43.33059" lon="5.77832">
        <ele>1062.3</ele>
        <time>2025-10-05T11:27:24Z</time>
      </trkpt>
      <trkpt lat="43.33059" lon="5.77831">
        <ele>1062.5</ele>
        <time>2025-10-05T11:27:25Z</time>
      </trkpt>
      <trkpt lat="43.33059" lon="5.7783">
        <ele>1062.7</ele>
        <time>2025-10-05T11:27:26Z</time>
      </trkpt>
      <trkpt lat="43.33059" lon="5.77829">
        <ele>1062.8</ele>
        <time>2025-10-05T11:27:27Z</time>
      </trkpt>
      <trkpt lat="43.33059" lon="5.77828">
        <ele>1063.2</ele>
        <time>2025-10-05T11:27:28Z</time>
      </trkpt>
      <trkpt lat="43.33059" lon="5.77827">
        <ele>1063.3</ele>
        <time>2025-10-05T11:27:29Z</time>
      </trkpt>
      <trkpt lat="43.33058" lon="5.77826">
        <ele>1063.2</ele>
        <time>2025-10-05T11:27:30Z</time>
      </trkpt>
      <trkpt lat="43.33058" lon="5.77826">
        <ele>1063</ele>
        <time>2025-10-05T11:27:31Z</time>
      </trkpt>
      <trkpt lat="43.33058" lon="5.77826">
        <ele>1063.3</ele>
        <time>2025-10-05T11:27:32Z</time>
      </trkpt>
      <trkpt lat="43.33058" lon="5.77825">
        <ele>1063.3</ele>
        <time>2025-10-05T11:27:33Z</time>
      </trkpt>
      <trkpt lat="43.33058" lon="5.77825">
        <ele>1062.7</ele>
        <time>2025-10-05T11:27:34Z</time>
      </trkpt>
      <trkpt lat="43.33057" lon="5.77825">
        <ele>1062.3</ele>
        <time>2025-10-05T11:27:35Z</time>
      </trkpt>
      <trkpt lat="43.33058" lon="5.77825">
        <ele>1062.1</ele>
        <time>2025-10-05T11:27:36Z</time>
      </trkpt>
      <trkpt lat="43.33058" lon="5.77824">
        <ele>1062.1</ele>
        <time>2025-10-05T11:27:37Z</time>
      </trkpt>
      <trkpt lat="43.33058" lon="5.77824">
        <ele>1062.2</ele>
        <time>2025-10-05T11:27:38Z</time>
      </trkpt>
      <trkpt lat="43.33058" lon="5.77823">
        <ele>1062</ele>
        <time>2025-10-05T11:27:39Z</time>
      </trkpt>
      <trkpt lat="43.33059" lon="5.77822">
        <ele>1061.8</ele>
        <time>2025-10-05T11:27:40Z</time>
      </trkpt>
      <trkpt lat="43.33059" lon="5.77821">
        <ele>1061.4</ele>
        <time>2025-10-05T11:27:41Z</time>
      </trkpt>
      <trkpt lat="43.33059" lon="5.77821">
        <ele>1061</ele>
        <time>2025-10-05T11:27:42Z</time>
      </trkpt>
      <trkpt lat="43.33059" lon="5.7782">
        <ele>1060.7</ele>
        <time>2025-10-05T11:27:43Z</time>
      </trkpt>
      <trkpt lat="43.33059" lon="5.77819">
        <ele>1060.7</ele>
        <time>2025-10-05T11:27:44Z</time>
      </trkpt>
      <trkpt lat="43.33058" lon="5.77819">
        <ele>1060.4</ele>
        <time>2025-10-05T11:27:45Z</time>
      </trkpt>
      <trkpt lat="43.33059" lon="5.77819">
        <ele>1060.1</ele>
        <time>2025-10-05T11:27:46Z</time>
      </trkpt>
      <trkpt lat="43.33059" lon="5.77819">
        <ele>1059.7</ele>
        <time>2025-10-05T11:27:47Z</time>
      </trkpt>
      <trkpt lat="43.33059" lon="5.77819">
        <ele>1059.6</ele>
        <time>2025-10-05T11:27:48Z</time>
      </trkpt>
      <trkpt lat="43.33059" lon="5.77819">
        <ele>1059.6</ele>
        <time>2025-10-05T11:27:49Z</time>
      </trkpt>
      <trkpt lat="43.33059" lon="5.77819">
        <ele>1059.7</ele>
        <time>2025-10-05T11:27:50Z</time>
      </trkpt>
      <trkpt lat="43.33059" lon="5.77819">
        <ele>1059.6</ele>
        <time>2025-10-05T11:27:51Z</time>
      </trkpt>
      <trkpt lat="43.33059" lon="5.77819">
        <ele>1059.3</ele>
        <time>2025-10-05T11:27:52Z</time>
      </trkpt>
      <trkpt lat="43.33059" lon="5.77819">
        <ele>1059.3</ele>
        <time>2025-10-05T11:27:53Z</time>
      </trkpt>
      <trkpt lat="43.33059" lon="5.77819">
        <ele>1059.2</ele>
        <time>2025-10-05T11:27:54Z</time>
      </trkpt>
      <trkpt lat="43.33059" lon="5.77819">
        <ele>1059.1</ele>
        <time>2025-10-05T11:27:55Z</time>
      </trkpt>
      <trkpt lat="43.33059" lon="5.7782">
        <ele>1059.1</ele>
        <time>2025-10-05T11:27:56Z</time>
      </trkpt>
      <trkpt lat="43.33059" lon="5.77819">
        <ele>1059</ele>
        <time>2025-10-05T11:27:57Z</time>
      </trkpt>
      <trkpt lat="43.33059" lon="5.77819">
        <ele>1059.3</ele>
        <time>2025-10-05T11:27:58Z</time>
      </trkpt>
      <trkpt lat="43.33059" lon="5.77819">
        <ele>1059.3</ele>
        <time>2025-10-05T11:27:59Z</time>
      </trkpt>
      <trkpt lat="43.33059" lon="5.77818">
        <ele>1059.2</ele>
        <time>2025-10-05T11:28:00Z</time>
      </trkpt>
      <trkpt lat="43.33059" lon="5.77817">
        <ele>1059.2</ele>
        <time>2025-10-05T11:28:01Z</time>
      </trkpt>
      <trkpt lat="43.33058" lon="5.77816">
        <ele>1059</ele>
        <time>2025-10-05T11:28:02Z</time>
      </trkpt>
      <trkpt lat="43.33058" lon="5.77815">
        <ele>1058.9</ele>
        <time>2025-10-05T11:28:03Z</time>
      </trkpt>
      <trkpt lat="43.33058" lon="5.77815">
        <ele>1058.5</ele>
        <time>2025-10-05T11:28:04Z</time>
      </trkpt>
      <trkpt lat="43.33058" lon="5.77816">
        <ele>1058.3</ele>
        <time>2025-10-05T11:28:05Z</time>
      </trkpt>
      <trkpt lat="43.33057" lon="5.77816">
        <ele>1058</ele>
        <time>2025-10-05T11:28:06Z</time>
      </trkpt>
      <trkpt lat="43.33057" lon="5.77816">
        <ele>1058</ele>
        <time>2025-10-05T11:28:07Z</time>
      </trkpt>
      <trkpt lat="43.33057" lon="5.77815">
        <ele>1057.8</ele>
        <time>2025-10-05T11:28:08Z</time>
      </trkpt>
      <trkpt lat="43.33056" lon="5.77814">
        <ele>1057.7</ele>
        <time>2025-10-05T11:28:09Z</time>
      </trkpt>
      <trkpt lat="43.33056" lon="5.77814">
        <ele>1057.5</ele>
        <time>2025-10-05T11:28:10Z</time>
      </trkpt>
      <trkpt lat="43.33056" lon="5.77813">
        <ele>1057.3</ele>
        <time>2025-10-05T11:28:11Z</time>
      </trkpt>
      <trkpt lat="43.33055" lon="5.77812">
        <ele>1057.1</ele>
        <time>2025-10-05T11:28:12Z</time>
      </trkpt>
      <trkpt lat="43.33055" lon="5.77812">
        <ele>1057.1</ele>
        <time>2025-10-05T11:28:13Z</time>
      </trkpt>
      <trkpt lat="43.33054" lon="5.77811">
        <ele>1056.9</ele>
        <time>2025-10-05T11:28:14Z</time>
      </trkpt>
      <trkpt lat="43.33054" lon="5.77811">
        <ele>1056.9</ele>
        <time>2025-10-05T11:28:15Z</time>
      </trkpt>
      <trkpt lat="43.33054" lon="5.77811">
        <ele>1056.9</ele>
        <time>2025-10-05T11:28:16Z</time>
      </trkpt>
      <trkpt lat="43.33054" lon="5.77811">
        <ele>1056.5</ele>
        <time>2025-10-05T11:28:17Z</time>
      </trkpt>
      <trkpt lat="43.33054" lon="5.77811">
        <ele>1056.4</ele>
        <time>2025-10-05T11:28:18Z</time>
      </trkpt>
      <trkpt lat="43.33054" lon="5.77811">
        <ele>1056.3</ele>
        <time>2025-10-05T11:28:19Z</time>
      </trkpt>
      <trkpt lat="43.33054" lon="5.7781">
        <ele>1056.2</ele>
        <time>2025-10-05T11:28:20Z</time>
      </trkpt>
      <trkpt lat="43.33054" lon="5.7781">
        <ele>1056</ele>
        <time>2025-10-05T11:28:21Z</time>
      </trkpt>
      <trkpt lat="43.33054" lon="5.7781">
        <ele>1055.9</ele>
        <time>2025-10-05T11:28:22Z</time>
      </trkpt>
      <trkpt lat="43.33054" lon="5.7781">
        <ele>1055.9</ele>
        <time>2025-10-05T11:28:23Z</time>
      </trkpt>
      <trkpt lat="43.33054" lon="5.7781">
        <ele>1056.3</ele>
        <time>2025-10-05T11:28:24Z</time>
      </trkpt>
      <trkpt lat="43.33054" lon="5.7781">
        <ele>1055.9</ele>
        <time>2025-10-05T11:28:25Z</time>
      </trkpt>
      <trkpt lat="43.33054" lon="5.7781">
        <ele>1055.8</ele>
        <time>2025-10-05T11:28:26Z</time>
      </trkpt>
      <trkpt lat="43.33054" lon="5.7781">
        <ele>1056.1</ele>
        <time>2025-10-05T11:28:27Z</time>
      </trkpt>
      <trkpt lat="43.33053" lon="5.77809">
        <ele>1056.1</ele>
        <time>2025-10-05T11:28:28Z</time>
      </trkpt>
      <trkpt lat="43.33053" lon="5.77808">
        <ele>1056.1</ele>
        <time>2025-10-05T11:28:29Z</time>
      </trkpt>
      <trkpt lat="43.33053" lon="5.77808">
        <ele>1056.1</ele>
        <time>2025-10-05T11:28:30Z</time>
      </trkpt>
      <trkpt lat="43.33052" lon="5.77808">
        <ele>1056.1</ele>
        <time>2025-10-05T11:28:31Z</time>
      </trkpt>
      <trkpt lat="43.33052" lon="5.77807">
        <ele>1056.1</ele>
        <time>2025-10-05T11:28:32Z</time>
      </trkpt>
      <trkpt lat="43.33052" lon="5.77806">
        <ele>1056.1</ele>
        <time>2025-10-05T11:28:33Z</time>
      </trkpt>
      <trkpt lat="43.33051" lon="5.77806">
        <ele>1056</ele>
        <time>2025-10-05T11:28:34Z</time>
      </trkpt>
      <trkpt lat="43.33051" lon="5.77805">
        <ele>1056.3</ele>
        <time>2025-10-05T11:28:35Z</time>
      </trkpt>
      <trkpt lat="43.33051" lon="5.77805">
        <ele>1056.3</ele>
        <time>2025-10-05T11:28:36Z</time>
      </trkpt>
      <trkpt lat="43.33051" lon="5.77805">
        <ele>1056.6</ele>
        <time>2025-10-05T11:28:37Z</time>
      </trkpt>
      <trkpt lat="43.33051" lon="5.77805">
        <ele>1056</ele>
        <time>2025-10-05T11:28:38Z</time>
      </trkpt>
      <trkpt lat="43.33051" lon="5.77805">
        <ele>1055.7</ele>
        <time>2025-10-05T11:28:39Z</time>
      </trkpt>
      <trkpt lat="43.33051" lon="5.77805">
        <ele>1055.4</ele>
        <time>2025-10-05T11:28:40Z</time>
      </trkpt>
      <trkpt lat="43.33051" lon="5.77805">
        <ele>1055.1</ele>
        <time>2025-10-05T11:28:41Z</time>
      </trkpt>
      <trkpt lat="43.33051" lon="5.77805">
        <ele>1055.1</ele>
        <time>2025-10-05T11:28:42Z</time>
      </trkpt>
      <trkpt lat="43.33051" lon="5.77805">
        <ele>1055</ele>
        <time>2025-10-05T11:28:43Z</time>
      </trkpt>
      <trkpt lat="43.33051" lon="5.77805">
        <ele>1054.7</ele>
        <time>2025-10-05T11:28:44Z</time>
      </trkpt>
      <trkpt lat="43.3305" lon="5.77805">
        <ele>1054.5</ele>
        <time>2025-10-05T11:28:45Z</time>
      </trkpt>
      <trkpt lat="43.3305" lon="5.77805">
        <ele>1054.3</ele>
        <time>2025-10-05T11:28:46Z</time>
      </trkpt>
      <trkpt lat="43.3305" lon="5.77805">
        <ele>1054.2</ele>
        <time>2025-10-05T11:28:47Z</time>
      </trkpt>
      <trkpt lat="43.3305" lon="5.77805">
        <ele>1054.1</ele>
        <time>2025-10-05T11:28:48Z</time>
      </trkpt>
      <trkpt lat="43.3305" lon="5.77805">
        <ele>1054</ele>
        <time>2025-10-05T11:28:49Z</time>
      </trkpt>
      <trkpt lat="43.3305" lon="5.77805">
        <ele>1053.9</ele>
        <time>2025-10-05T11:28:50Z</time>
      </trkpt>
      <trkpt lat="43.3305" lon="5.77805">
        <ele>1054</ele>
        <time>2025-10-05T11:28:51Z</time>
      </trkpt>
      <trkpt lat="43.3305" lon="5.77805">
        <ele>1054.1</ele>
        <time>2025-10-05T11:28:52Z</time>
      </trkpt>
      <trkpt lat="43.3305" lon="5.77805">
        <ele>1054.2</ele>
        <time>2025-10-05T11:28:53Z</time>
      </trkpt>
      <trkpt lat="43.3305" lon="5.77805">
        <ele>1054.3</ele>
        <time>2025-10-05T11:28:54Z</time>
      </trkpt>
      <trkpt lat="43.3305" lon="5.77805">
        <ele>1054.4</ele>
        <time>2025-10-05T11:28:55Z</time>
      </trkpt>
      <trkpt lat="43.3305" lon="5.77805">
        <ele>1054.6</ele>
        <time>2025-10-05T11:28:56Z</time>
      </trkpt>
      <trkpt lat="43.33049" lon="5.77804">
        <ele>1054.8</ele>
        <time>2025-10-05T11:28:57Z</time>
      </trkpt>
      <trkpt lat="43.33049" lon="5.77804">
        <ele>1055.1</ele>
        <time>2025-10-05T11:28:58Z</time>
      </trkpt>
      <trkpt lat="43.33049" lon="5.77804">
        <ele>1055.2</ele>
        <time>2025-10-05T11:28:59Z</time>
      </trkpt>
      <trkpt lat="43.33049" lon="5.77804">
        <ele>1055.2</ele>
        <time>2025-10-05T11:29:00Z</time>
      </trkpt>
      <trkpt lat="43.33049" lon="5.77804">
        <ele>1055.1</ele>
        <time>2025-10-05T11:29:01Z</time>
      </trkpt>
      <trkpt lat="43.33049" lon="5.77804">
        <ele>1055</ele>
        <time>2025-10-05T11:29:02Z</time>
      </trkpt>
      <trkpt lat="43.33049" lon="5.77804">
        <ele>1054.9</ele>
        <time>2025-10-05T11:29:03Z</time>
      </trkpt>
      <trkpt lat="43.33049" lon="5.77804">
        <ele>1054.8</ele>
        <time>2025-10-05T11:29:04Z</time>
      </trkpt>
      <trkpt lat="43.33049" lon="5.77804">
        <ele>1054.7</ele>
        <time>2025-10-05T11:29:05Z</time>
      </trkpt>
      <trkpt lat="43.33049" lon="5.77804">
        <ele>1054.7</ele>
        <time>2025-10-05T11:29:06Z</time>
      </trkpt>
      <trkpt lat="43.33048" lon="5.77804">
        <ele>1054.7</ele>
        <time>2025-10-05T11:29:07Z</time>
      </trkpt>
      <trkpt lat="43.33048" lon="5.77804">
        <ele>1054.7</ele>
        <time>2025-10-05T11:29:08Z</time>
      </trkpt>
      <trkpt lat="43.33048" lon="5.77804">
        <ele>1054.8</ele>
        <time>2025-10-05T11:29:09Z</time>
      </trkpt>
      <trkpt lat="43.33048" lon="5.77804">
        <ele>1054.7</ele>
        <time>2025-10-05T11:29:10Z</time>
      </trkpt>
      <trkpt lat="43.33048" lon="5.77804">
        <ele>1054.6</ele>
        <time>2025-10-05T11:29:11Z</time>
      </trkpt>
      <trkpt lat="43.33048" lon="5.77804">
        <ele>1054.5</ele>
        <time>2025-10-05T11:29:12Z</time>
      </trkpt>
      <trkpt lat="43.33048" lon="5.77804">
        <ele>1054.6</ele>
        <time>2025-10-05T11:29:13Z</time>
      </trkpt>
      <trkpt lat="43.33048" lon="5.77803">
        <ele>1054.5</ele>
        <time>2025-10-05T11:29:14Z</time>
      </trkpt>
      <trkpt lat="43.33048" lon="5.77803">
        <ele>1054.5</ele>
        <time>2025-10-05T11:29:15Z</time>
      </trkpt>
      <trkpt lat="43.33048" lon="5.77803">
        <ele>1054.5</ele>
        <time>2025-10-05T11:29:16Z</time>
      </trkpt>
      <trkpt lat="43.33048" lon="5.77803">
        <ele>1054.5</ele>
        <time>2025-10-05T11:29:17Z</time>
      </trkpt>
      <trkpt lat="43.33048" lon="5.77803">
        <ele>1054.5</ele>
        <time>2025-10-05T11:29:18Z</time>
      </trkpt>
      <trkpt lat="43.33048" lon="5.77803">
        <ele>1054.6</ele>
        <time>2025-10-05T11:29:19Z</time>
      </trkpt>
      <trkpt lat="43.33047" lon="5.77803">
        <ele>1054.8</ele>
        <time>2025-10-05T11:29:20Z</time>
      </trkpt>
      <trkpt lat="43.33047" lon="5.77803">
        <ele>1054.9</ele>
        <time>2025-10-05T11:29:21Z</time>
      </trkpt>
      <trkpt lat="43.33048" lon="5.77803">
        <ele>1054.8</ele>
        <time>2025-10-05T11:29:22Z</time>
      </trkpt>
      <trkpt lat="43.33047" lon="5.77803">
        <ele>1054.9</ele>
        <time>2025-10-05T11:29:23Z</time>
      </trkpt>
      <trkpt lat="43.33047" lon="5.77803">
        <ele>1055</ele>
        <time>2025-10-05T11:29:24Z</time>
      </trkpt>
      <trkpt lat="43.33047" lon="5.77803">
        <ele>1054.8</ele>
        <time>2025-10-05T11:29:25Z</time>
      </trkpt>
      <trkpt lat="43.33048" lon="5.77803">
        <ele>1054.7</ele>
        <time>2025-10-05T11:29:26Z</time>
      </trkpt>
      <trkpt lat="43.33048" lon="5.77803">
        <ele>1054.6</ele>
        <time>2025-10-05T11:29:27Z</time>
      </trkpt>
      <trkpt lat="43.33048" lon="5.77803">
        <ele>1054.6</ele>
        <time>2025-10-05T11:29:28Z</time>
      </trkpt>
      <trkpt lat="43.33048" lon="5.77803">
        <ele>1054.7</ele>
        <time>2025-10-05T11:29:29Z</time>
      </trkpt>
      <trkpt lat="43.33048" lon="5.77803">
        <ele>1054.6</ele>
        <time>2025-10-05T11:29:30Z</time>
      </trkpt>
      <trkpt lat="43.33048" lon="5.77803">
        <ele>1054.6</ele>
        <time>2025-10-05T11:29:31Z</time>
      </trkpt>
      <trkpt lat="43.33048" lon="5.77803">
        <ele>1054.6</ele>
        <time>2025-10-05T11:29:32Z</time>
      </trkpt>
      <trkpt lat="43.33048" lon="5.77803">
        <ele>1054.6</ele>
        <time>2025-10-05T11:29:33Z</time>
      </trkpt>
      <trkpt lat="43.33048" lon="5.77803">
        <ele>1054.7</ele>
        <time>2025-10-05T11:29:34Z</time>
      </trkpt>
      <trkpt lat="43.33048" lon="5.77803">
        <ele>1054.7</ele>
        <time>2025-10-05T11:29:35Z</time>
      </trkpt>
      <trkpt lat="43.33048" lon="5.77803">
        <ele>1054.7</ele>
        <time>2025-10-05T11:29:36Z</time>
      </trkpt>
      <trkpt lat="43.33048" lon="5.77803">
        <ele>1054.9</ele>
        <time>2025-10-05T11:29:37Z</time>
      </trkpt>
      <trkpt lat="43.33048" lon="5.77803">
        <ele>1055</ele>
        <time>2025-10-05T11:29:38Z</time>
      </trkpt>
      <trkpt lat="43.33048" lon="5.77803">
        <ele>1055</ele>
        <time>2025-10-05T11:29:39Z</time>
      </trkpt>
      <trkpt lat="43.33048" lon="5.77803">
        <ele>1055</ele>
        <time>2025-10-05T11:29:40Z</time>
      </trkpt>
      <trkpt lat="43.33048" lon="5.77803">
        <ele>1055.1</ele>
        <time>2025-10-05T11:29:41Z</time>
      </trkpt>
      <trkpt lat="43.33048" lon="5.77803">
        <ele>1055.1</ele>
        <time>2025-10-05T11:29:42Z</time>
      </trkpt>
      <trkpt lat="43.33048" lon="5.77803">
        <ele>1055.1</ele>
        <time>2025-10-05T11:29:43Z</time>
      </trkpt>
      <trkpt lat="43.33048" lon="5.77803">
        <ele>1055</ele>
        <time>2025-10-05T11:29:44Z</time>
      </trkpt>
      <trkpt lat="43.33047" lon="5.77802">
        <ele>1054.8</ele>
        <time>2025-10-05T11:29:45Z</time>
      </trkpt>
      <trkpt lat="43.33047" lon="5.77803">
        <ele>1054.8</ele>
        <time>2025-10-05T11:29:46Z</time>
      </trkpt>
      <trkpt lat="43.33047" lon="5.77803">
        <ele>1054.7</ele>
        <time>2025-10-05T11:29:47Z</time>
      </trkpt>
      <trkpt lat="43.33047" lon="5.77803">
        <ele>1054.5</ele>
        <time>2025-10-05T11:29:48Z</time>
      </trkpt>
      <trkpt lat="43.33047" lon="5.77803">
        <ele>1054.2</ele>
        <time>2025-10-05T11:29:49Z</time>
      </trkpt>
      <trkpt lat="43.33047" lon="5.77803">
        <ele>1054.3</ele>
        <time>2025-10-05T11:29:50Z</time>
      </trkpt>
      <trkpt lat="43.33047" lon="5.77802">
        <ele>1054.2</ele>
        <time>2025-10-05T11:29:51Z</time>
      </trkpt>
      <trkpt lat="43.33047" lon="5.77803">
        <ele>1054.1</ele>
        <time>2025-10-05T11:29:52Z</time>
      </trkpt>
      <trkpt lat="43.33047" lon="5.77803">
        <ele>1054.1</ele>
        <time>2025-10-05T11:29:53Z</time>
      </trkpt>
      <trkpt lat="43.33047" lon="5.77803">
        <ele>1054.1</ele>
        <time>2025-10-05T11:29:54Z</time>
      </trkpt>
      <trkpt lat="43.33047" lon="5.77802">
        <ele>1054.2</ele>
        <time>2025-10-05T11:29:55Z</time>
      </trkpt>
      <trkpt lat="43.33047" lon="5.77803">
        <ele>1054.3</ele>
        <time>2025-10-05T11:29:56Z</time>
      </trkpt>
      <trkpt lat="43.33047" lon="5.77803">
        <ele>1054.4</ele>
        <time>2025-10-05T11:29:57Z</time>
      </trkpt>
      <trkpt lat="43.33047" lon="5.77803">
        <ele>1054.7</ele>
        <time>2025-10-05T11:29:58Z</time>
      </trkpt>
      <trkpt lat="43.33047" lon="5.77803">
        <ele>1054.9</ele>
        <time>2025-10-05T11:29:59Z</time>
      </trkpt>
      <trkpt lat="43.33047" lon="5.77803">
        <ele>1055.1</ele>
        <time>2025-10-05T11:30:00Z</time>
      </trkpt>
      <trkpt lat="43.33047" lon="5.77803">
        <ele>1055.2</ele>
        <time>2025-10-05T11:30:01Z</time>
      </trkpt>
      <trkpt lat="43.33047" lon="5.77803">
        <ele>1055.5</ele>
        <time>2025-10-05T11:30:02Z</time>
      </trkpt>
      <trkpt lat="43.33047" lon="5.77803">
        <ele>1055.6</ele>
        <time>2025-10-05T11:30:03Z</time>
      </trkpt>
      <trkpt lat="43.33047" lon="5.77803">
        <ele>1055.9</ele>
        <time>2025-10-05T11:30:04Z</time>
      </trkpt>
      <trkpt lat="43.33046" lon="5.77803">
        <ele>1055.8</ele>
        <time>2025-10-05T11:30:05Z</time>
      </trkpt>
      <trkpt lat="43.33047" lon="5.77803">
        <ele>1056</ele>
        <time>2025-10-05T11:30:06Z</time>
      </trkpt>
      <trkpt lat="43.33047" lon="5.77803">
        <ele>1056.3</ele>
        <time>2025-10-05T11:30:07Z</time>
      </trkpt>
      <trkpt lat="43.33047" lon="5.77803">
        <ele>1056.4</ele>
        <time>2025-10-05T11:30:08Z</time>
      </trkpt>
      <trkpt lat="43.33047" lon="5.77803">
        <ele>1056.8</ele>
        <time>2025-10-05T11:30:09Z</time>
      </trkpt>
      <trkpt lat="43.33046" lon="5.77803">
        <ele>1056.9</ele>
        <time>2025-10-05T11:30:10Z</time>
      </trkpt>
      <trkpt lat="43.33046" lon="5.77803">
        <ele>1056.9</ele>
        <time>2025-10-05T11:30:11Z</time>
      </trkpt>
      <trkpt lat="43.33046" lon="5.77803">
        <ele>1056.9</ele>
        <time>2025-10-05T11:30:12Z</time>
      </trkpt>
      <trkpt lat="43.33046" lon="5.77803">
        <ele>1057</ele>
        <time>2025-10-05T11:30:13Z</time>
      </trkpt>
      <trkpt lat="43.33046" lon="5.77803">
        <ele>1057</ele>
        <time>2025-10-05T11:30:14Z</time>
      </trkpt>
      <trkpt lat="43.33046" lon="5.77803">
        <ele>1057</ele>
        <time>2025-10-05T11:30:15Z</time>
      </trkpt>
      <trkpt lat="43.33046" lon="5.77803">
        <ele>1057.2</ele>
        <time>2025-10-05T11:30:16Z</time>
      </trkpt>
      <trkpt lat="43.33046" lon="5.77803">
        <ele>1057.2</ele>
        <time>2025-10-05T11:30:17Z</time>
      </trkpt>
      <trkpt lat="43.33046" lon="5.77803">
        <ele>1057.1</ele>
        <time>2025-10-05T11:30:18Z</time>
      </trkpt>
      <trkpt lat="43.33046" lon="5.77803">
        <ele>1057.2</ele>
        <time>2025-10-05T11:30:19Z</time>
      </trkpt>
      <trkpt lat="43.33046" lon="5.77803">
        <ele>1057.2</ele>
        <time>2025-10-05T11:30:20Z</time>
      </trkpt>
      <trkpt lat="43.33046" lon="5.77803">
        <ele>1057.1</ele>
        <time>2025-10-05T11:30:21Z</time>
      </trkpt>
      <trkpt lat="43.33046" lon="5.77803">
        <ele>1056.9</ele>
        <time>2025-10-05T11:30:22Z</time>
      </trkpt>
      <trkpt lat="43.33046" lon="5.77803">
        <ele>1057</ele>
        <time>2025-10-05T11:30:23Z</time>
      </trkpt>
      <trkpt lat="43.33046" lon="5.77803">
        <ele>1057.2</ele>
        <time>2025-10-05T11:30:24Z</time>
      </trkpt>
      <trkpt lat="43.33046" lon="5.77803">
        <ele>1057.1</ele>
        <time>2025-10-05T11:30:25Z</time>
      </trkpt>
      <trkpt lat="43.33046" lon="5.77804">
        <ele>1057</ele>
        <time>2025-10-05T11:30:26Z</time>
      </trkpt>
      <trkpt lat="43.33046" lon="5.77804">
        <ele>1057</ele>
        <time>2025-10-05T11:30:27Z</time>
      </trkpt>
      <trkpt lat="43.33046" lon="5.77804">
        <ele>1056.9</ele>
        <time>2025-10-05T11:30:28Z</time>
      </trkpt>
      <trkpt lat="43.33046" lon="5.77804">
        <ele>1057.1</ele>
        <time>2025-10-05T11:30:29Z</time>
      </trkpt>
      <trkpt lat="43.33046" lon="5.77804">
        <ele>1057.1</ele>
        <time>2025-10-05T11:30:30Z</time>
      </trkpt>
      <trkpt lat="43.33046" lon="5.77804">
        <ele>1057</ele>
        <time>2025-10-05T11:30:31Z</time>
      </trkpt>
      <trkpt lat="43.33046" lon="5.77804">
        <ele>1056.9</ele>
        <time>2025-10-05T11:30:32Z</time>
      </trkpt>
      <trkpt lat="43.33046" lon="5.77804">
        <ele>1057.1</ele>
        <time>2025-10-05T11:30:33Z</time>
      </trkpt>
      <trkpt lat="43.33046" lon="5.77804">
        <ele>1057.1</ele>
        <time>2025-10-05T11:30:34Z</time>
      </trkpt>
      <trkpt lat="43.33046" lon="5.77804">
        <ele>1057.1</ele>
        <time>2025-10-05T11:30:35Z</time>
      </trkpt>
      <trkpt lat="43.33046" lon="5.77804">
        <ele>1057.1</ele>
        <time>2025-10-05T11:30:36Z</time>
      </trkpt>
      <trkpt lat="43.33046" lon="5.77804">
        <ele>1057.2</ele>
        <time>2025-10-05T11:30:37Z</time>
      </trkpt>
      <trkpt lat="43.33046" lon="5.77804">
        <ele>1057.4</ele>
        <time>2025-10-05T11:30:38Z</time>
      </trkpt>
      <trkpt lat="43.33046" lon="5.77804">
        <ele>1057.3</ele>
        <time>2025-10-05T11:30:39Z</time>
      </trkpt>
      <trkpt lat="43.33046" lon="5.77803">
        <ele>1057.3</ele>
        <time>2025-10-05T11:30:40Z</time>
      </trkpt>
      <trkpt lat="43.33046" lon="5.77803">
        <ele>1057.3</ele>
        <time>2025-10-05T11:30:41Z</time>
      </trkpt>
      <trkpt lat="43.33046" lon="5.77803">
        <ele>1057.3</ele>
        <time>2025-10-05T11:30:42Z</time>
      </trkpt>
      <trkpt lat="43.33046" lon="5.77803">
        <ele>1057.3</ele>
        <time>2025-10-05T11:30:43Z</time>
      </trkpt>
      <trkpt lat="43.33046" lon="5.77803">
        <ele>1057.2</ele>
        <time>2025-10-05T11:30:44Z</time>
      </trkpt>
      <trkpt lat="43.33046" lon="5.77803">
        <ele>1057.1</ele>
        <time>2025-10-05T11:30:45Z</time>
      </trkpt>
      <trkpt lat="43.33046" lon="5.77803">
        <ele>1057.3</ele>
        <time>2025-10-05T11:30:46Z</time>
      </trkpt>
      <trkpt lat="43.33046" lon="5.77803">
        <ele>1057.2</ele>
        <time>2025-10-05T11:30:47Z</time>
      </trkpt>
      <trkpt lat="43.33046" lon="5.77803">
        <ele>1057.2</ele>
        <time>2025-10-05T11:30:48Z</time>
      </trkpt>
      <trkpt lat="43.33046" lon="5.77803">
        <ele>1057.1</ele>
        <time>2025-10-05T11:30:49Z</time>
      </trkpt>
      <trkpt lat="43.33046" lon="5.77803">
        <ele>1056.9</ele>
        <time>2025-10-05T11:30:50Z</time>
      </trkpt>
      <trkpt lat="43.33046" lon="5.77803">
        <ele>1056.7</ele>
        <time>2025-10-05T11:30:51Z</time>
      </trkpt>
      <trkpt lat="43.33046" lon="5.77803">
        <ele>1056.6</ele>
        <time>2025-10-05T11:30:52Z</time>
      </trkpt>
      <trkpt lat="43.33046" lon="5.77803">
        <ele>1056.6</ele>
        <time>2025-10-05T11:30:53Z</time>
      </trkpt>
      <trkpt lat="43.33046" lon="5.77803">
        <ele>1056.9</ele>
        <time>2025-10-05T11:30:54Z</time>
      </trkpt>
      <trkpt lat="43.33046" lon="5.77803">
        <ele>1057.1</ele>
        <time>2025-10-05T11:30:55Z</time>
      </trkpt>
      <trkpt lat="43.33046" lon="5.77803">
        <ele>1057.2</ele>
        <time>2025-10-05T11:30:56Z</time>
      </trkpt>
      <trkpt lat="43.33046" lon="5.77803">
        <ele>1057.3</ele>
        <time>2025-10-05T11:30:57Z</time>
      </trkpt>
      <trkpt lat="43.33046" lon="5.77803">
        <ele>1057.3</ele>
        <time>2025-10-05T11:30:58Z</time>
      </trkpt>
      <trkpt lat="43.33046" lon="5.77803">
        <ele>1057</ele>
        <time>2025-10-05T11:30:59Z</time>
      </trkpt>
      <trkpt lat="43.33046" lon="5.77803">
        <ele>1056.9</ele>
        <time>2025-10-05T11:31:00Z</time>
      </trkpt>
      <trkpt lat="43.33046" lon="5.77803">
        <ele>1056.6</ele>
        <time>2025-10-05T11:31:01Z</time>
      </trkpt>
      <trkpt lat="43.33046" lon="5.77803">
        <ele>1056.4</ele>
        <time>2025-10-05T11:31:02Z</time>
      </trkpt>
      <trkpt lat="43.33045" lon="5.77803">
        <ele>1056.3</ele>
        <time>2025-10-05T11:31:03Z</time>
      </trkpt>
      <trkpt lat="43.33045" lon="5.77803">
        <ele>1056.3</ele>
        <time>2025-10-05T11:31:04Z</time>
      </trkpt>
      <trkpt lat="43.33046" lon="5.77803">
        <ele>1056.2</ele>
        <time>2025-10-05T11:31:05Z</time>
      </trkpt>
      <trkpt lat="43.33045" lon="5.77803">
        <ele>1056.1</ele>
        <time>2025-10-05T11:31:06Z</time>
      </trkpt>
      <trkpt lat="43.33045" lon="5.77803">
        <ele>1056.1</ele>
        <time>2025-10-05T11:31:07Z</time>
      </trkpt>
      <trkpt lat="43.33045" lon="5.77803">
        <ele>1056</ele>
        <time>2025-10-05T11:31:08Z</time>
      </trkpt>
      <trkpt lat="43.33045" lon="5.77803">
        <ele>1055.9</ele>
        <time>2025-10-05T11:31:09Z</time>
      </trkpt>
      <trkpt lat="43.33046" lon="5.77803">
        <ele>1055.7</ele>
        <time>2025-10-05T11:31:10Z</time>
      </trkpt>
      <trkpt lat="43.33046" lon="5.77803">
        <ele>1055.7</ele>
        <time>2025-10-05T11:31:11Z</time>
      </trkpt>
      <trkpt lat="43.33046" lon="5.77803">
        <ele>1055.5</ele>
        <time>2025-10-05T11:31:12Z</time>
      </trkpt>
      <trkpt lat="43.33046" lon="5.77803">
        <ele>1055.4</ele>
        <time>2025-10-05T11:31:13Z</time>
      </trkpt>
      <trkpt lat="43.33046" lon="5.77803">
        <ele>1055.6</ele>
        <time>2025-10-05T11:31:14Z</time>
      </trkpt>
      <trkpt lat="43.33046" lon="5.77803">
        <ele>1055.5</ele>
        <time>2025-10-05T11:31:15Z</time>
      </trkpt>
      <trkpt lat="43.33046" lon="5.77803">
        <ele>1055.6</ele>
        <time>2025-10-05T11:31:16Z</time>
      </trkpt>
      <trkpt lat="43.33046" lon="5.77803">
        <ele>1055.5</ele>
        <time>2025-10-05T11:31:17Z</time>
      </trkpt>
      <trkpt lat="43.33046" lon="5.77803">
        <ele>1055.6</ele>
        <time>2025-10-05T11:31:18Z</time>
      </trkpt>
      <trkpt lat="43.33046" lon="5.77803">
        <ele>1055.6</ele>
        <time>2025-10-05T11:31:19Z</time>
      </trkpt>
      <trkpt lat="43.33046" lon="5.77803">
        <ele>1055.5</ele>
        <time>2025-10-05T11:31:20Z</time>
      </trkpt>
      <trkpt lat="43.33046" lon="5.77803">
        <ele>1055.4</ele>
        <time>2025-10-05T11:31:21Z</time>
      </trkpt>
      <trkpt lat="43.33046" lon="5.77803">
        <ele>1055.4</ele>
        <time>2025-10-05T11:31:22Z</time>
      </trkpt>
      <trkpt lat="43.33046" lon="5.77803">
        <ele>1055.4</ele>
        <time>2025-10-05T11:31:23Z</time>
      </trkpt>
      <trkpt lat="43.33046" lon="5.77803">
        <ele>1055.4</ele>
        <time>2025-10-05T11:31:24Z</time>
      </trkpt>
      <trkpt lat="43.33046" lon="5.77803">
        <ele>1055.3</ele>
        <time>2025-10-05T11:31:25Z</time>
      </trkpt>
      <trkpt lat="43.33046" lon="5.77803">
        <ele>1055.3</ele>
        <time>2025-10-05T11:31:26Z</time>
      </trkpt>
      <trkpt lat="43.33046" lon="5.77803">
        <ele>1055.2</ele>
        <time>2025-10-05T11:31:27Z</time>
      </trkpt>
      <trkpt lat="43.33046" lon="5.77803">
        <ele>1055</ele>
        <time>2025-10-05T11:31:28Z</time>
      </trkpt>
      <trkpt lat="43.33046" lon="5.77803">
        <ele>1054.9</ele>
        <time>2025-10-05T11:31:29Z</time>
      </trkpt>
      <trkpt lat="43.33046" lon="5.77803">
        <ele>1054.9</ele>
        <time>2025-10-05T11:31:30Z</time>
      </trkpt>
      <trkpt lat="43.33046" lon="5.77803">
        <ele>1055.2</ele>
        <time>2025-10-05T11:31:31Z</time>
      </trkpt>
      <trkpt lat="43.33046" lon="5.77803">
        <ele>1055.5</ele>
        <time>2025-10-05T11:31:32Z</time>
      </trkpt>
      <trkpt lat="43.33046" lon="5.77803">
        <ele>1055.6</ele>
        <time>2025-10-05T11:31:33Z</time>
      </trkpt>
      <trkpt lat="43.33046" lon="5.77803">
        <ele>1055.5</ele>
        <time>2025-10-05T11:31:34Z</time>
      </trkpt>
      <trkpt lat="43.33046" lon="5.77803">
        <ele>1055.5</ele>
        <time>2025-10-05T11:31:35Z</time>
      </trkpt>
      <trkpt lat="43.33046" lon="5.77803">
        <ele>1055.4</ele>
        <time>2025-10-05T11:31:36Z</time>
      </trkpt>
      <trkpt lat="43.33046" lon="5.77803">
        <ele>1055.3</ele>
        <time>2025-10-05T11:31:37Z</time>
      </trkpt>
      <trkpt lat="43.33046" lon="5.77803">
        <ele>1055.2</ele>
        <time>2025-10-05T11:31:38Z</time>
      </trkpt>
      <trkpt lat="43.33046" lon="5.77803">
        <ele>1055.1</ele>
        <time>2025-10-05T11:31:39Z</time>
      </trkpt>
      <trkpt lat="43.33046" lon="5.77803">
        <ele>1055</ele>
        <time>2025-10-05T11:31:40Z</time>
      </trkpt>
      <trkpt lat="43.33046" lon="5.77803">
        <ele>1054.9</ele>
        <time>2025-10-05T11:31:41Z</time>
      </trkpt>
      <trkpt lat="43.33046" lon="5.77803">
        <ele>1054.7</ele>
        <time>2025-10-05T11:31:42Z</time>
      </trkpt>
      <trkpt lat="43.33046" lon="5.77803">
        <ele>1054.6</ele>
        <time>2025-10-05T11:31:43Z</time>
      </trkpt>
      <trkpt lat="43.33046" lon="5.77803">
        <ele>1054.6</ele>
        <time>2025-10-05T11:31:44Z</time>
      </trkpt>
      <trkpt lat="43.33046" lon="5.77803">
        <ele>1054.6</ele>
        <time>2025-10-05T11:31:45Z</time>
      </trkpt>
      <trkpt lat="43.33046" lon="5.77803">
        <ele>1054.5</ele>
        <time>2025-10-05T11:31:46Z</time>
      </trkpt>
      <trkpt lat="43.33046" lon="5.77803">
        <ele>1054.5</ele>
        <time>2025-10-05T11:31:47Z</time>
      </trkpt>
      <trkpt lat="43.33046" lon="5.77803">
        <ele>1054.5</ele>
        <time>2025-10-05T11:31:48Z</time>
      </trkpt>
      <trkpt lat="43.33046" lon="5.77803">
        <ele>1054.6</ele>
        <time>2025-10-05T11:31:49Z</time>
      </trkpt>
      <trkpt lat="43.33046" lon="5.77803">
        <ele>1054.6</ele>
        <time>2025-10-05T11:31:50Z</time>
      </trkpt>
      <trkpt lat="43.33046" lon="5.77803">
        <ele>1054.6</ele>
        <time>2025-10-05T11:31:51Z</time>
      </trkpt>
      <trkpt lat="43.33046" lon="5.77803">
        <ele>1054.7</ele>
        <time>2025-10-05T11:31:52Z</time>
      </trkpt>
      <trkpt lat="43.33046" lon="5.77804">
        <ele>1054.7</ele>
        <time>2025-10-05T11:31:53Z</time>
      </trkpt>
      <trkpt lat="43.33046" lon="5.77804">
        <ele>1054.5</ele>
        <time>2025-10-05T11:31:54Z</time>
      </trkpt>
      <trkpt lat="43.33046" lon="5.77804">
        <ele>1054.6</ele>
        <time>2025-10-05T11:31:55Z</time>
      </trkpt>
      <trkpt lat="43.33046" lon="5.77804">
        <ele>1054.6</ele>
        <time>2025-10-05T11:31:56Z</time>
      </trkpt>
      <trkpt lat="43.33046" lon="5.77804">
        <ele>1054.6</ele>
        <time>2025-10-05T11:31:57Z</time>
      </trkpt>
      <trkpt lat="43.33046" lon="5.77804">
        <ele>1054.4</ele>
        <time>2025-10-05T11:31:58Z</time>
      </trkpt>
      <trkpt lat="43.33045" lon="5.77804">
        <ele>1054.3</ele>
        <time>2025-10-05T11:31:59Z</time>
      </trkpt>
      <trkpt lat="43.33046" lon="5.77804">
        <ele>1054.2</ele>
        <time>2025-10-05T11:32:00Z</time>
      </trkpt>
      <trkpt lat="43.33046" lon="5.77804">
        <ele>1054.2</ele>
        <time>2025-10-05T11:32:01Z</time>
      </trkpt>
      <trkpt lat="43.33046" lon="5.77803">
        <ele>1054.1</ele>
        <time>2025-10-05T11:32:02Z</time>
      </trkpt>
      <trkpt lat="43.33046" lon="5.77803">
        <ele>1054.1</ele>
        <time>2025-10-05T11:32:03Z</time>
      </trkpt>
      <trkpt lat="43.33046" lon="5.77802">
        <ele>1054.2</ele>
        <time>2025-10-05T11:32:04Z</time>
      </trkpt>
      <trkpt lat="43.33046" lon="5.77802">
        <ele>1054.2</ele>
        <time>2025-10-05T11:32:05Z</time>
      </trkpt>
      <trkpt lat="43.33046" lon="5.77801">
        <ele>1054.2</ele>
        <time>2025-10-05T11:32:06Z</time>
      </trkpt>
      <trkpt lat="43.33045" lon="5.77801">
        <ele>1054.2</ele>
        <time>2025-10-05T11:32:07Z</time>
      </trkpt>
      <trkpt lat="43.33045" lon="5.778">
        <ele>1054.1</ele>
        <time>2025-10-05T11:32:08Z</time>
      </trkpt>
      <trkpt lat="43.33045" lon="5.77799">
        <ele>1054.3</ele>
        <time>2025-10-05T11:32:09Z</time>
      </trkpt>
      <trkpt lat="43.33045" lon="5.77798">
        <ele>1054.5</ele>
        <time>2025-10-05T11:32:10Z</time>
      </trkpt>
      <trkpt lat="43.33045" lon="5.77797">
        <ele>1054.5</ele>
        <time>2025-10-05T11:32:11Z</time>
      </trkpt>
      <trkpt lat="43.33044" lon="5.77797">
        <ele>1054.5</ele>
        <time>2025-10-05T11:32:12Z</time>
      </trkpt>
      <trkpt lat="43.33044" lon="5.77796">
        <ele>1054.6</ele>
        <time>2025-10-05T11:32:13Z</time>
      </trkpt>
      <trkpt lat="43.33044" lon="5.77796">
        <ele>1054.8</ele>
        <time>2025-10-05T11:32:14Z</time>
      </trkpt>
      <trkpt lat="43.33044" lon="5.77795">
        <ele>1054.8</ele>
        <time>2025-10-05T11:32:15Z</time>
      </trkpt>
      <trkpt lat="43.33044" lon="5.77795">
        <ele>1054.6</ele>
        <time>2025-10-05T11:32:16Z</time>
      </trkpt>
      <trkpt lat="43.33044" lon="5.77794">
        <ele>1054.3</ele>
        <time>2025-10-05T11:32:17Z</time>
      </trkpt>
      <trkpt lat="43.33044" lon="5.77794">
        <ele>1054.1</ele>
        <time>2025-10-05T11:32:18Z</time>
      </trkpt>
      <trkpt lat="43.33043" lon="5.77793">
        <ele>1053.9</ele>
        <time>2025-10-05T11:32:19Z</time>
      </trkpt>
      <trkpt lat="43.33043" lon="5.77793">
        <ele>1053.9</ele>
        <time>2025-10-05T11:32:20Z</time>
      </trkpt>
      <trkpt lat="43.33043" lon="5.77793">
        <ele>1054</ele>
        <time>2025-10-05T11:32:21Z</time>
      </trkpt>
      <trkpt lat="43.33043" lon="5.77792">
        <ele>1053.8</ele>
        <time>2025-10-05T11:32:22Z</time>
      </trkpt>
      <trkpt lat="43.33043" lon="5.77792">
        <ele>1053.6</ele>
        <time>2025-10-05T11:32:23Z</time>
      </trkpt>
      <trkpt lat="43.33043" lon="5.77791">
        <ele>1053.4</ele>
        <time>2025-10-05T11:32:24Z</time>
      </trkpt>
      <trkpt lat="43.33042" lon="5.77791">
        <ele>1053.1</ele>
        <time>2025-10-05T11:32:25Z</time>
      </trkpt>
      <trkpt lat="43.33042" lon="5.77791">
        <ele>1053</ele>
        <time>2025-10-05T11:32:26Z</time>
      </trkpt>
      <trkpt lat="43.33042" lon="5.77791">
        <ele>1053.1</ele>
        <time>2025-10-05T11:32:27Z</time>
      </trkpt>
      <trkpt lat="43.33042" lon="5.77791">
        <ele>1053.2</ele>
        <time>2025-10-05T11:32:28Z</time>
      </trkpt>
      <trkpt lat="43.33042" lon="5.77791">
        <ele>1053.6</ele>
        <time>2025-10-05T11:32:29Z</time>
      </trkpt>
      <trkpt lat="43.33042" lon="5.77789">
        <ele>1053.9</ele>
        <time>2025-10-05T11:32:30Z</time>
      </trkpt>
      <trkpt lat="43.33042" lon="5.77788">
        <ele>1053.6</ele>
        <time>2025-10-05T11:32:31Z</time>
      </trkpt>
      <trkpt lat="43.33041" lon="5.77787">
        <ele>1053.6</ele>
        <time>2025-10-05T11:32:32Z</time>
      </trkpt>
      <trkpt lat="43.33041" lon="5.77787">
        <ele>1054.1</ele>
        <time>2025-10-05T11:32:33Z</time>
      </trkpt>
      <trkpt lat="43.3304" lon="5.77786">
        <ele>1053.9</ele>
        <time>2025-10-05T11:32:34Z</time>
      </trkpt>
      <trkpt lat="43.3304" lon="5.77786">
        <ele>1054.1</ele>
        <time>2025-10-05T11:32:35Z</time>
      </trkpt>
      <trkpt lat="43.33039" lon="5.77785">
        <ele>1054</ele>
        <time>2025-10-05T11:32:36Z</time>
      </trkpt>
      <trkpt lat="43.33039" lon="5.77784">
        <ele>1054</ele>
        <time>2025-10-05T11:32:37Z</time>
      </trkpt>
      <trkpt lat="43.33038" lon="5.77783">
        <ele>1053.9</ele>
        <time>2025-10-05T11:32:38Z</time>
      </trkpt>
      <trkpt lat="43.33038" lon="5.77783">
        <ele>1054</ele>
        <time>2025-10-05T11:32:39Z</time>
      </trkpt>
      <trkpt lat="43.33038" lon="5.77783">
        <ele>1054.4</ele>
        <time>2025-10-05T11:32:40Z</time>
      </trkpt>
      <trkpt lat="43.33037" lon="5.77783">
        <ele>1054.3</ele>
        <time>2025-10-05T11:32:41Z</time>
      </trkpt>
      <trkpt lat="43.33037" lon="5.77783">
        <ele>1054.1</ele>
        <time>2025-10-05T11:32:42Z</time>
      </trkpt>
      <trkpt lat="43.33037" lon="5.77783">
        <ele>1054</ele>
        <time>2025-10-05T11:32:43Z</time>
      </trkpt>
      <trkpt lat="43.33037" lon="5.77783">
        <ele>1053.9</ele>
        <time>2025-10-05T11:32:44Z</time>
      </trkpt>
      <trkpt lat="43.33037" lon="5.77783">
        <ele>1053.8</ele>
        <time>2025-10-05T11:32:45Z</time>
      </trkpt>
      <trkpt lat="43.33037" lon="5.77782">
        <ele>1053.2</ele>
        <time>2025-10-05T11:32:46Z</time>
      </trkpt>
      <trkpt lat="43.33037" lon="5.77782">
        <ele>1052.7</ele>
        <time>2025-10-05T11:32:47Z</time>
      </trkpt>
      <trkpt lat="43.33037" lon="5.77782">
        <ele>1051.7</ele>
        <time>2025-10-05T11:32:48Z</time>
      </trkpt>
      <trkpt lat="43.33037" lon="5.77782">
        <ele>1051.8</ele>
        <time>2025-10-05T11:32:49Z</time>
      </trkpt>
      <trkpt lat="43.33037" lon="5.77782">
        <ele>1051.9</ele>
        <time>2025-10-05T11:32:50Z</time>
      </trkpt>
      <trkpt lat="43.33038" lon="5.77782">
        <ele>1051.6</ele>
        <time>2025-10-05T11:32:51Z</time>
      </trkpt>
      <trkpt lat="43.33038" lon="5.77782">
        <ele>1051.4</ele>
        <time>2025-10-05T11:32:52Z</time>
      </trkpt>
      <trkpt lat="43.33038" lon="5.77781">
        <ele>1052.2</ele>
        <time>2025-10-05T11:32:53Z</time>
      </trkpt>
      <trkpt lat="43.33038" lon="5.7778">
        <ele>1052.6</ele>
        <time>2025-10-05T11:32:54Z</time>
      </trkpt>
      <trkpt lat="43.33038" lon="5.77779">
        <ele>1053.3</ele>
        <time>2025-10-05T11:32:55Z</time>
      </trkpt>
      <trkpt lat="43.33038" lon="5.77777">
        <ele>1052.6</ele>
        <time>2025-10-05T11:32:56Z</time>
      </trkpt>
      <trkpt lat="43.33038" lon="5.77775">
        <ele>1052.2</ele>
        <time>2025-10-05T11:32:57Z</time>
      </trkpt>
      <trkpt lat="43.33037" lon="5.77774">
        <ele>1052.1</ele>
        <time>2025-10-05T11:32:58Z</time>
      </trkpt>
      <trkpt lat="43.33037" lon="5.77773">
        <ele>1052.2</ele>
        <time>2025-10-05T11:32:59Z</time>
      </trkpt>
      <trkpt lat="43.33036" lon="5.77772">
        <ele>1052.3</ele>
        <time>2025-10-05T11:33:00Z</time>
      </trkpt>
      <trkpt lat="43.33036" lon="5.7777">
        <ele>1052.1</ele>
        <time>2025-10-05T11:33:01Z</time>
      </trkpt>
      <trkpt lat="43.33035" lon="5.77769">
        <ele>1052</ele>
        <time>2025-10-05T11:33:02Z</time>
      </trkpt>
      <trkpt lat="43.33035" lon="5.77768">
        <ele>1052</ele>
        <time>2025-10-05T11:33:03Z</time>
      </trkpt>
      <trkpt lat="43.33034" lon="5.77766">
        <ele>1051.9</ele>
        <time>2025-10-05T11:33:04Z</time>
      </trkpt>
      <trkpt lat="43.33033" lon="5.77765">
        <ele>1051.8</ele>
        <time>2025-10-05T11:33:05Z</time>
      </trkpt>
      <trkpt lat="43.33033" lon="5.77764">
        <ele>1051.6</ele>
        <time>2025-10-05T11:33:06Z</time>
      </trkpt>
      <trkpt lat="43.33032" lon="5.77763">
        <ele>1051.2</ele>
        <time>2025-10-05T11:33:07Z</time>
      </trkpt>
      <trkpt lat="43.33031" lon="5.77761">
        <ele>1051.4</ele>
        <time>2025-10-05T11:33:08Z</time>
      </trkpt>
      <trkpt lat="43.33031" lon="5.7776">
        <ele>1051.2</ele>
        <time>2025-10-05T11:33:09Z</time>
      </trkpt>
      <trkpt lat="43.33031" lon="5.77759">
        <ele>1050.9</ele>
        <time>2025-10-05T11:33:10Z</time>
      </trkpt>
      <trkpt lat="43.3303" lon="5.77758">
        <ele>1050.8</ele>
        <time>2025-10-05T11:33:11Z</time>
      </trkpt>
      <trkpt lat="43.33029" lon="5.77756">
        <ele>1050.6</ele>
        <time>2025-10-05T11:33:12Z</time>
      </trkpt>
      <trkpt lat="43.33029" lon="5.77755">
        <ele>1050.3</ele>
        <time>2025-10-05T11:33:13Z</time>
      </trkpt>
      <trkpt lat="43.33029" lon="5.77754">
        <ele>1050.3</ele>
        <time>2025-10-05T11:33:14Z</time>
      </trkpt>
      <trkpt lat="43.33028" lon="5.77752">
        <ele>1050.1</ele>
        <time>2025-10-05T11:33:15Z</time>
      </trkpt>
      <trkpt lat="43.33027" lon="5.77751">
        <ele>1050.1</ele>
        <time>2025-10-05T11:33:16Z</time>
      </trkpt>
      <trkpt lat="43.33026" lon="5.77751">
        <ele>1050</ele>
        <time>2025-10-05T11:33:17Z</time>
      </trkpt>
      <trkpt lat="43.33026" lon="5.77749">
        <ele>1050.1</ele>
        <time>2025-10-05T11:33:18Z</time>
      </trkpt>
      <trkpt lat="43.33025" lon="5.77748">
        <ele>1050</ele>
        <time>2025-10-05T11:33:19Z</time>
      </trkpt>
      <trkpt lat="43.33025" lon="5.77747">
        <ele>1050.2</ele>
        <time>2025-10-05T11:33:20Z</time>
      </trkpt>
      <trkpt lat="43.33024" lon="5.77745">
        <ele>1050</ele>
        <time>2025-10-05T11:33:21Z</time>
      </trkpt>
      <trkpt lat="43.33024" lon="5.77744">
        <ele>1049.7</ele>
        <time>2025-10-05T11:33:22Z</time>
      </trkpt>
      <trkpt lat="43.33023" lon="5.77743">
        <ele>1049</ele>
        <time>2025-10-05T11:33:23Z</time>
      </trkpt>
      <trkpt lat="43.33022" lon="5.77742">
        <ele>1048.8</ele>
        <time>2025-10-05T11:33:24Z</time>
      </trkpt>
      <trkpt lat="43.33022" lon="5.77741">
        <ele>1048.8</ele>
        <time>2025-10-05T11:33:25Z</time>
      </trkpt>
      <trkpt lat="43.33021" lon="5.7774">
        <ele>1048.6</ele>
        <time>2025-10-05T11:33:26Z</time>
      </trkpt>
      <trkpt lat="43.3302" lon="5.7774">
        <ele>1048.4</ele>
        <time>2025-10-05T11:33:27Z</time>
      </trkpt>
      <trkpt lat="43.33019" lon="5.77738">
        <ele>1048.3</ele>
        <time>2025-10-05T11:33:28Z</time>
      </trkpt>
      <trkpt lat="43.33019" lon="5.77737">
        <ele>1047.7</ele>
        <time>2025-10-05T11:33:29Z</time>
      </trkpt>
      <trkpt lat="43.33018" lon="5.77736">
        <ele>1047.7</ele>
        <time>2025-10-05T11:33:30Z</time>
      </trkpt>
      <trkpt lat="43.33018" lon="5.77735">
        <ele>1047.9</ele>
        <time>2025-10-05T11:33:31Z</time>
      </trkpt>
      <trkpt lat="43.33017" lon="5.77734">
        <ele>1048.2</ele>
        <time>2025-10-05T11:33:32Z</time>
      </trkpt>
      <trkpt lat="43.33016" lon="5.77733">
        <ele>1048.1</ele>
        <time>2025-10-05T11:33:33Z</time>
      </trkpt>
      <trkpt lat="43.33015" lon="5.77732">
        <ele>1048.1</ele>
        <time>2025-10-05T11:33:34Z</time>
      </trkpt>
      <trkpt lat="43.33015" lon="5.7773">
        <ele>1048.1</ele>
        <time>2025-10-05T11:33:35Z</time>
      </trkpt>
      <trkpt lat="43.33014" lon="5.77729">
        <ele>1048.1</ele>
        <time>2025-10-05T11:33:36Z</time>
      </trkpt>
      <trkpt lat="43.33014" lon="5.77728">
        <ele>1047.9</ele>
        <time>2025-10-05T11:33:37Z</time>
      </trkpt>
      <trkpt lat="43.33013" lon="5.77727">
        <ele>1048.4</ele>
        <time>2025-10-05T11:33:38Z</time>
      </trkpt>
      <trkpt lat="43.33013" lon="5.77726">
        <ele>1048.5</ele>
        <time>2025-10-05T11:33:39Z</time>
      </trkpt>
      <trkpt lat="43.33012" lon="5.77724">
        <ele>1048.5</ele>
        <time>2025-10-05T11:33:40Z</time>
      </trkpt>
      <trkpt lat="43.33011" lon="5.77723">
        <ele>1049.6</ele>
        <time>2025-10-05T11:33:41Z</time>
      </trkpt>
      <trkpt lat="43.33011" lon="5.77722">
        <ele>1049.3</ele>
        <time>2025-10-05T11:33:42Z</time>
      </trkpt>
      <trkpt lat="43.3301" lon="5.77721">
        <ele>1049.1</ele>
        <time>2025-10-05T11:33:43Z</time>
      </trkpt>
      <trkpt lat="43.33009" lon="5.7772">
        <ele>1048.9</ele>
        <time>2025-10-05T11:33:44Z</time>
      </trkpt>
      <trkpt lat="43.33009" lon="5.77719">
        <ele>1048.9</ele>
        <time>2025-10-05T11:33:45Z</time>
      </trkpt>
      <trkpt lat="43.33008" lon="5.77718">
        <ele>1049.6</ele>
        <time>2025-10-05T11:33:46Z</time>
      </trkpt>
      <trkpt lat="43.33008" lon="5.77717">
        <ele>1049.7</ele>
        <time>2025-10-05T11:33:47Z</time>
      </trkpt>
      <trkpt lat="43.33008" lon="5.77716">
        <ele>1050.6</ele>
        <time>2025-10-05T11:33:48Z</time>
      </trkpt>
      <trkpt lat="43.33007" lon="5.77716">
        <ele>1050.5</ele>
        <time>2025-10-05T11:33:49Z</time>
      </trkpt>
      <trkpt lat="43.33007" lon="5.77715">
        <ele>1050.2</ele>
        <time>2025-10-05T11:33:50Z</time>
      </trkpt>
      <trkpt lat="43.33007" lon="5.77714">
        <ele>1051.1</ele>
        <time>2025-10-05T11:33:51Z</time>
      </trkpt>
      <trkpt lat="43.33007" lon="5.77714">
        <ele>1051.8</ele>
        <time>2025-10-05T11:33:52Z</time>
      </trkpt>
      <trkpt lat="43.33006" lon="5.77713">
        <ele>1051.4</ele>
        <time>2025-10-05T11:33:53Z</time>
      </trkpt>
      <trkpt lat="43.33005" lon="5.77712">
        <ele>1050.8</ele>
        <time>2025-10-05T11:33:54Z</time>
      </trkpt>
      <trkpt lat="43.33005" lon="5.77711">
        <ele>1050.5</ele>
        <time>2025-10-05T11:33:55Z</time>
      </trkpt>
      <trkpt lat="43.33004" lon="5.7771">
        <ele>1050</ele>
        <time>2025-10-05T11:33:56Z</time>
      </trkpt>
      <trkpt lat="43.33004" lon="5.77709">
        <ele>1049.3</ele>
        <time>2025-10-05T11:33:57Z</time>
      </trkpt>
      <trkpt lat="43.33003" lon="5.77708">
        <ele>1048.9</ele>
        <time>2025-10-05T11:33:58Z</time>
      </trkpt>
      <trkpt lat="43.33003" lon="5.77707">
        <ele>1048.2</ele>
        <time>2025-10-05T11:33:59Z</time>
      </trkpt>
      <trkpt lat="43.33002" lon="5.77706">
        <ele>1047</ele>
        <time>2025-10-05T11:34:00Z</time>
      </trkpt>
      <trkpt lat="43.33001" lon="5.77705">
        <ele>1046.3</ele>
        <time>2025-10-05T11:34:01Z</time>
      </trkpt>
      <trkpt lat="43.33001" lon="5.77704">
        <ele>1045.3</ele>
        <time>2025-10-05T11:34:02Z</time>
      </trkpt>
      <trkpt lat="43.33" lon="5.77703">
        <ele>1044.5</ele>
        <time>2025-10-05T11:34:03Z</time>
      </trkpt>
      <trkpt lat="43.33" lon="5.77702">
        <ele>1043.3</ele>
        <time>2025-10-05T11:34:04Z</time>
      </trkpt>
      <trkpt lat="43.33" lon="5.777">
        <ele>1042.3</ele>
        <time>2025-10-05T11:34:05Z</time>
      </trkpt>
      <trkpt lat="43.32999" lon="5.77699">
        <ele>1041.5</ele>
        <time>2025-10-05T11:34:06Z</time>
      </trkpt>
      <trkpt lat="43.32998" lon="5.77698">
        <ele>1040.7</ele>
        <time>2025-10-05T11:34:07Z</time>
      </trkpt>
      <trkpt lat="43.32998" lon="5.77697">
        <ele>1039.8</ele>
        <time>2025-10-05T11:34:08Z</time>
      </trkpt>
      <trkpt lat="43.32997" lon="5.77696">
        <ele>1039.1</ele>
        <time>2025-10-05T11:34:09Z</time>
      </trkpt>
      <trkpt lat="43.32996" lon="5.77696">
        <ele>1038.6</ele>
        <time>2025-10-05T11:34:10Z</time>
      </trkpt>
      <trkpt lat="43.32996" lon="5.77695">
        <ele>1038</ele>
        <time>2025-10-05T11:34:11Z</time>
      </trkpt>
      <trkpt lat="43.32995" lon="5.77694">
        <ele>1037.5</ele>
        <time>2025-10-05T11:34:12Z</time>
      </trkpt>
      <trkpt lat="43.32995" lon="5.77693">
        <ele>1037.1</ele>
        <time>2025-10-05T11:34:13Z</time>
      </trkpt>
      <trkpt lat="43.32994" lon="5.77692">
        <ele>1036.8</ele>
        <time>2025-10-05T11:34:14Z</time>
      </trkpt>
      <trkpt lat="43.32993" lon="5.77691">
        <ele>1036.4</ele>
        <time>2025-10-05T11:34:15Z</time>
      </trkpt>
      <trkpt lat="43.32992" lon="5.7769">
        <ele>1036.2</ele>
        <time>2025-10-05T11:34:16Z</time>
      </trkpt>
      <trkpt lat="43.32992" lon="5.77688">
        <ele>1036.2</ele>
        <time>2025-10-05T11:34:17Z</time>
      </trkpt>
      <trkpt lat="43.32992" lon="5.77687">
        <ele>1036.1</ele>
        <time>2025-10-05T11:34:18Z</time>
      </trkpt>
      <trkpt lat="43.32992" lon="5.77685">
        <ele>1035.9</ele>
        <time>2025-10-05T11:34:19Z</time>
      </trkpt>
      <trkpt lat="43.32991" lon="5.77684">
        <ele>1035.6</ele>
        <time>2025-10-05T11:34:20Z</time>
      </trkpt>
      <trkpt lat="43.32991" lon="5.77683">
        <ele>1035</ele>
        <time>2025-10-05T11:34:21Z</time>
      </trkpt>
      <trkpt lat="43.3299" lon="5.77682">
        <ele>1034.7</ele>
        <time>2025-10-05T11:34:22Z</time>
      </trkpt>
      <trkpt lat="43.32989" lon="5.77681">
        <ele>1034.4</ele>
        <time>2025-10-05T11:34:23Z</time>
      </trkpt>
      <trkpt lat="43.32988" lon="5.7768">
        <ele>1033.8</ele>
        <time>2025-10-05T11:34:24Z</time>
      </trkpt>
      <trkpt lat="43.32988" lon="5.77679">
        <ele>1033.4</ele>
        <time>2025-10-05T11:34:25Z</time>
      </trkpt>
      <trkpt lat="43.32987" lon="5.77678">
        <ele>1033</ele>
        <time>2025-10-05T11:34:26Z</time>
      </trkpt>
      <trkpt lat="43.32986" lon="5.77677">
        <ele>1032.6</ele>
        <time>2025-10-05T11:34:27Z</time>
      </trkpt>
      <trkpt lat="43.32985" lon="5.77676">
        <ele>1032.4</ele>
        <time>2025-10-05T11:34:28Z</time>
      </trkpt>
      <trkpt lat="43.32984" lon="5.77675">
        <ele>1032.3</ele>
        <time>2025-10-05T11:34:29Z</time>
      </trkpt>
      <trkpt lat="43.32983" lon="5.77675">
        <ele>1032.3</ele>
        <time>2025-10-05T11:34:30Z</time>
      </trkpt>
      <trkpt lat="43.32982" lon="5.77673">
        <ele>1032.2</ele>
        <time>2025-10-05T11:34:31Z</time>
      </trkpt>
      <trkpt lat="43.32981" lon="5.77673">
        <ele>1032.1</ele>
        <time>2025-10-05T11:34:32Z</time>
      </trkpt>
      <trkpt lat="43.32981" lon="5.77672">
        <ele>1032.2</ele>
        <time>2025-10-05T11:34:33Z</time>
      </trkpt>
      <trkpt lat="43.3298" lon="5.77672">
        <ele>1032.2</ele>
        <time>2025-10-05T11:34:34Z</time>
      </trkpt>
      <trkpt lat="43.3298" lon="5.77673">
        <ele>1032.2</ele>
        <time>2025-10-05T11:34:35Z</time>
      </trkpt>
      <trkpt lat="43.3298" lon="5.77673">
        <ele>1032.2</ele>
        <time>2025-10-05T11:34:36Z</time>
      </trkpt>
      <trkpt lat="43.3298" lon="5.77673">
        <ele>1032.1</ele>
        <time>2025-10-05T11:34:37Z</time>
      </trkpt>
      <trkpt lat="43.3298" lon="5.77672">
        <ele>1032</ele>
        <time>2025-10-05T11:34:38Z</time>
      </trkpt>
      <trkpt lat="43.32979" lon="5.77672">
        <ele>1032</ele>
        <time>2025-10-05T11:34:39Z</time>
      </trkpt>
      <trkpt lat="43.32979" lon="5.77672">
        <ele>1032</ele>
        <time>2025-10-05T11:34:40Z</time>
      </trkpt>
      <trkpt lat="43.32979" lon="5.77672">
        <ele>1032</ele>
        <time>2025-10-05T11:34:41Z</time>
      </trkpt>
      <trkpt lat="43.32979" lon="5.77672">
        <ele>1032.1</ele>
        <time>2025-10-05T11:34:42Z</time>
      </trkpt>
      <trkpt lat="43.32979" lon="5.77672">
        <ele>1032.2</ele>
        <time>2025-10-05T11:34:43Z</time>
      </trkpt>
      <trkpt lat="43.32979" lon="5.77672">
        <ele>1032.1</ele>
        <time>2025-10-05T11:34:44Z</time>
      </trkpt>
      <trkpt lat="43.32979" lon="5.77673">
        <ele>1032.1</ele>
        <time>2025-10-05T11:34:45Z</time>
      </trkpt>
      <trkpt lat="43.32979" lon="5.77672">
        <ele>1032.2</ele>
        <time>2025-10-05T11:34:46Z</time>
      </trkpt>
      <trkpt lat="43.32979" lon="5.77673">
        <ele>1032.1</ele>
        <time>2025-10-05T11:34:47Z</time>
      </trkpt>
      <trkpt lat="43.32979" lon="5.77673">
        <ele>1032.1</ele>
        <time>2025-10-05T11:34:48Z</time>
      </trkpt>
      <trkpt lat="43.32979" lon="5.77673">
        <ele>1032.1</ele>
        <time>2025-10-05T11:34:49Z</time>
      </trkpt>
      <trkpt lat="43.32979" lon="5.77673">
        <ele>1032</ele>
        <time>2025-10-05T11:34:50Z</time>
      </trkpt>
      <trkpt lat="43.32979" lon="5.77673">
        <ele>1032</ele>
        <time>2025-10-05T11:34:51Z</time>
      </trkpt>
      <trkpt lat="43.32979" lon="5.77673">
        <ele>1031.8</ele>
        <time>2025-10-05T11:34:52Z</time>
      </trkpt>
      <trkpt lat="43.32979" lon="5.77673">
        <ele>1031.7</ele>
        <time>2025-10-05T11:34:53Z</time>
      </trkpt>
      <trkpt lat="43.32979" lon="5.77673">
        <ele>1031.6</ele>
        <time>2025-10-05T11:34:54Z</time>
      </trkpt>
      <trkpt lat="43.32978" lon="5.77673">
        <ele>1031.6</ele>
        <time>2025-10-05T11:34:55Z</time>
      </trkpt>
      <trkpt lat="43.32978" lon="5.77673">
        <ele>1031.7</ele>
        <time>2025-10-05T11:34:56Z</time>
      </trkpt>
      <trkpt lat="43.32978" lon="5.77672">
        <ele>1031.8</ele>
        <time>2025-10-05T11:34:57Z</time>
      </trkpt>
      <trkpt lat="43.32978" lon="5.77671">
        <ele>1031.7</ele>
        <time>2025-10-05T11:34:58Z</time>
      </trkpt>
      <trkpt lat="43.32978" lon="5.7767">
        <ele>1031.7</ele>
        <time>2025-10-05T11:34:59Z</time>
      </trkpt>
      <trkpt lat="43.32978" lon="5.77669">
        <ele>1031.7</ele>
        <time>2025-10-05T11:35:00Z</time>
      </trkpt>
      <trkpt lat="43.32978" lon="5.77667">
        <ele>1031.7</ele>
        <time>2025-10-05T11:35:01Z</time>
      </trkpt>
      <trkpt lat="43.32978" lon="5.77666">
        <ele>1031.7</ele>
        <time>2025-10-05T11:35:02Z</time>
      </trkpt>
      <trkpt lat="43.32978" lon="5.77666">
        <ele>1031.8</ele>
        <time>2025-10-05T11:35:03Z</time>
      </trkpt>
      <trkpt lat="43.32978" lon="5.77665">
        <ele>1031.9</ele>
        <time>2025-10-05T11:35:04Z</time>
      </trkpt>
      <trkpt lat="43.32978" lon="5.77665">
        <ele>1031.9</ele>
        <time>2025-10-05T11:35:05Z</time>
      </trkpt>
      <trkpt lat="43.32978" lon="5.77665">
        <ele>1032</ele>
        <time>2025-10-05T11:35:06Z</time>
      </trkpt>
      <trkpt lat="43.32978" lon="5.77665">
        <ele>1032.1</ele>
        <time>2025-10-05T11:35:07Z</time>
      </trkpt>
      <trkpt lat="43.32978" lon="5.77665">
        <ele>1032.1</ele>
        <time>2025-10-05T11:35:08Z</time>
      </trkpt>
      <trkpt lat="43.32978" lon="5.77665">
        <ele>1032.1</ele>
        <time>2025-10-05T11:35:09Z</time>
      </trkpt>
      <trkpt lat="43.32978" lon="5.77664">
        <ele>1032</ele>
        <time>2025-10-05T11:35:10Z</time>
      </trkpt>
      <trkpt lat="43.32978" lon="5.77663">
        <ele>1032</ele>
        <time>2025-10-05T11:35:11Z</time>
      </trkpt>
      <trkpt lat="43.32978" lon="5.77662">
        <ele>1032.3</ele>
        <time>2025-10-05T11:35:12Z</time>
      </trkpt>
      <trkpt lat="43.32978" lon="5.7766">
        <ele>1032.3</ele>
        <time>2025-10-05T11:35:13Z</time>
      </trkpt>
      <trkpt lat="43.32978" lon="5.77658">
        <ele>1032.3</ele>
        <time>2025-10-05T11:35:14Z</time>
      </trkpt>
      <trkpt lat="43.32978" lon="5.77657">
        <ele>1032.2</ele>
        <time>2025-10-05T11:35:15Z</time>
      </trkpt>
      <trkpt lat="43.32978" lon="5.77656">
        <ele>1032.2</ele>
        <time>2025-10-05T11:35:16Z</time>
      </trkpt>
      <trkpt lat="43.32979" lon="5.77655">
        <ele>1032.2</ele>
        <time>2025-10-05T11:35:17Z</time>
      </trkpt>
      <trkpt lat="43.32979" lon="5.77654">
        <ele>1032.2</ele>
        <time>2025-10-05T11:35:18Z</time>
      </trkpt>
      <trkpt lat="43.3298" lon="5.77653">
        <ele>1032.2</ele>
        <time>2025-10-05T11:35:19Z</time>
      </trkpt>
      <trkpt lat="43.3298" lon="5.77651">
        <ele>1032.3</ele>
        <time>2025-10-05T11:35:20Z</time>
      </trkpt>
      <trkpt lat="43.32981" lon="5.7765">
        <ele>1032.2</ele>
        <time>2025-10-05T11:35:21Z</time>
      </trkpt>
      <trkpt lat="43.32981" lon="5.77648">
        <ele>1032.2</ele>
        <time>2025-10-05T11:35:22Z</time>
      </trkpt>
      <trkpt lat="43.32981" lon="5.77647">
        <ele>1032.2</ele>
        <time>2025-10-05T11:35:23Z</time>
      </trkpt>
      <trkpt lat="43.32981" lon="5.77646">
        <ele>1032.2</ele>
        <time>2025-10-05T11:35:24Z</time>
      </trkpt>
      <trkpt lat="43.32982" lon="5.77645">
        <ele>1032.6</ele>
        <time>2025-10-05T11:35:25Z</time>
      </trkpt>
      <trkpt lat="43.32982" lon="5.77643">
        <ele>1032.9</ele>
        <time>2025-10-05T11:35:26Z</time>
      </trkpt>
      <trkpt lat="43.32982" lon="5.77642">
        <ele>1033.1</ele>
        <time>2025-10-05T11:35:27Z</time>
      </trkpt>
      <trkpt lat="43.32982" lon="5.77641">
        <ele>1033.1</ele>
        <time>2025-10-05T11:35:28Z</time>
      </trkpt>
      <trkpt lat="43.32982" lon="5.7764">
        <ele>1033.1</ele>
        <time>2025-10-05T11:35:29Z</time>
      </trkpt>
      <trkpt lat="43.32983" lon="5.77639">
        <ele>1033</ele>
        <time>2025-10-05T11:35:30Z</time>
      </trkpt>
      <trkpt lat="43.32983" lon="5.77638">
        <ele>1032.8</ele>
        <time>2025-10-05T11:35:31Z</time>
      </trkpt>
      <trkpt lat="43.32983" lon="5.77637">
        <ele>1032.8</ele>
        <time>2025-10-05T11:35:32Z</time>
      </trkpt>
      <trkpt lat="43.32983" lon="5.77636">
        <ele>1032.8</ele>
        <time>2025-10-05T11:35:33Z</time>
      </trkpt>
      <trkpt lat="43.32982" lon="5.77635">
        <ele>1033.6</ele>
        <time>2025-10-05T11:35:34Z</time>
      </trkpt>
      <trkpt lat="43.32982" lon="5.77634">
        <ele>1033.9</ele>
        <time>2025-10-05T11:35:35Z</time>
      </trkpt>
      <trkpt lat="43.32982" lon="5.77633">
        <ele>1034</ele>
        <time>2025-10-05T11:35:36Z</time>
      </trkpt>
      <trkpt lat="43.32981" lon="5.77632">
        <ele>1034</ele>
        <time>2025-10-05T11:35:37Z</time>
      </trkpt>
      <trkpt lat="43.32981" lon="5.77632">
        <ele>1034</ele>
        <time>2025-10-05T11:35:38Z</time>
      </trkpt>
      <trkpt lat="43.32981" lon="5.77631">
        <ele>1033.9</ele>
        <time>2025-10-05T11:35:39Z</time>
      </trkpt>
      <trkpt lat="43.3298" lon="5.77629">
        <ele>1033.9</ele>
        <time>2025-10-05T11:35:40Z</time>
      </trkpt>
      <trkpt lat="43.3298" lon="5.77628">
        <ele>1033.8</ele>
        <time>2025-10-05T11:35:41Z</time>
      </trkpt>
      <trkpt lat="43.3298" lon="5.77627">
        <ele>1033.6</ele>
        <time>2025-10-05T11:35:42Z</time>
      </trkpt>
      <trkpt lat="43.32981" lon="5.77627">
        <ele>1033.4</ele>
        <time>2025-10-05T11:35:43Z</time>
      </trkpt>
      <trkpt lat="43.32981" lon="5.77626">
        <ele>1033.5</ele>
        <time>2025-10-05T11:35:44Z</time>
      </trkpt>
      <trkpt lat="43.32981" lon="5.77625">
        <ele>1033.5</ele>
        <time>2025-10-05T11:35:45Z</time>
      </trkpt>
      <trkpt lat="43.32981" lon="5.77624">
        <ele>1033.7</ele>
        <time>2025-10-05T11:35:46Z</time>
      </trkpt>
      <trkpt lat="43.32981" lon="5.77623">
        <ele>1033.9</ele>
        <time>2025-10-05T11:35:47Z</time>
      </trkpt>
      <trkpt lat="43.32981" lon="5.77622">
        <ele>1033.8</ele>
        <time>2025-10-05T11:35:48Z</time>
      </trkpt>
      <trkpt lat="43.32981" lon="5.77621">
        <ele>1033.6</ele>
        <time>2025-10-05T11:35:49Z</time>
      </trkpt>
      <trkpt lat="43.32981" lon="5.77621">
        <ele>1033.9</ele>
        <time>2025-10-05T11:35:50Z</time>
      </trkpt>
      <trkpt lat="43.32981" lon="5.7762">
        <ele>1033.7</ele>
        <time>2025-10-05T11:35:51Z</time>
      </trkpt>
      <trkpt lat="43.32981" lon="5.77619">
        <ele>1033.6</ele>
        <time>2025-10-05T11:35:52Z</time>
      </trkpt>
      <trkpt lat="43.32981" lon="5.77618">
        <ele>1033.5</ele>
        <time>2025-10-05T11:35:53Z</time>
      </trkpt>
      <trkpt lat="43.32981" lon="5.77616">
        <ele>1033.6</ele>
        <time>2025-10-05T11:35:54Z</time>
      </trkpt>
      <trkpt lat="43.32981" lon="5.77615">
        <ele>1033.4</ele>
        <time>2025-10-05T11:35:55Z</time>
      </trkpt>
      <trkpt lat="43.32981" lon="5.77614">
        <ele>1033.3</ele>
        <time>2025-10-05T11:35:56Z</time>
      </trkpt>
      <trkpt lat="43.3298" lon="5.77613">
        <ele>1033.3</ele>
        <time>2025-10-05T11:35:57Z</time>
      </trkpt>
      <trkpt lat="43.3298" lon="5.77612">
        <ele>1033.5</ele>
        <time>2025-10-05T11:35:58Z</time>
      </trkpt>
      <trkpt lat="43.3298" lon="5.77611">
        <ele>1033.5</ele>
        <time>2025-10-05T11:35:59Z</time>
      </trkpt>
      <trkpt lat="43.3298" lon="5.7761">
        <ele>1033.6</ele>
        <time>2025-10-05T11:36:00Z</time>
      </trkpt>
      <trkpt lat="43.3298" lon="5.77609">
        <ele>1033.7</ele>
        <time>2025-10-05T11:36:01Z</time>
      </trkpt>
      <trkpt lat="43.3298" lon="5.77609">
        <ele>1033.8</ele>
        <time>2025-10-05T11:36:02Z</time>
      </trkpt>
      <trkpt lat="43.3298" lon="5.77608">
        <ele>1033.9</ele>
        <time>2025-10-05T11:36:03Z</time>
      </trkpt>
      <trkpt lat="43.32981" lon="5.77608">
        <ele>1033.8</ele>
        <time>2025-10-05T11:36:04Z</time>
      </trkpt>
      <trkpt lat="43.32981" lon="5.77608">
        <ele>1033.7</ele>
        <time>2025-10-05T11:36:05Z</time>
      </trkpt>
      <trkpt lat="43.32981" lon="5.77608">
        <ele>1033.7</ele>
        <time>2025-10-05T11:36:06Z</time>
      </trkpt>
      <trkpt lat="43.32981" lon="5.77608">
        <ele>1033.9</ele>
        <time>2025-10-05T11:36:07Z</time>
      </trkpt>
      <trkpt lat="43.32981" lon="5.77608">
        <ele>1034</ele>
        <time>2025-10-05T11:36:08Z</time>
      </trkpt>
      <trkpt lat="43.32981" lon="5.77608">
        <ele>1033.8</ele>
        <time>2025-10-05T11:36:09Z</time>
      </trkpt>
      <trkpt lat="43.32981" lon="5.77607">
        <ele>1033.6</ele>
        <time>2025-10-05T11:36:10Z</time>
      </trkpt>
      <trkpt lat="43.32981" lon="5.77607">
        <ele>1033.6</ele>
        <time>2025-10-05T11:36:11Z</time>
      </trkpt>
      <trkpt lat="43.32982" lon="5.77607">
        <ele>1033.5</ele>
        <time>2025-10-05T11:36:12Z</time>
      </trkpt>
      <trkpt lat="43.32982" lon="5.77607">
        <ele>1033.6</ele>
        <time>2025-10-05T11:36:13Z</time>
      </trkpt>
      <trkpt lat="43.32982" lon="5.77607">
        <ele>1033.7</ele>
        <time>2025-10-05T11:36:14Z</time>
      </trkpt>
      <trkpt lat="43.32982" lon="5.77607">
        <ele>1033.7</ele>
        <time>2025-10-05T11:36:15Z</time>
      </trkpt>
      <trkpt lat="43.32982" lon="5.77607">
        <ele>1033.5</ele>
        <time>2025-10-05T11:36:16Z</time>
      </trkpt>
      <trkpt lat="43.32982" lon="5.77607">
        <ele>1033.4</ele>
        <time>2025-10-05T11:36:17Z</time>
      </trkpt>
      <trkpt lat="43.32981" lon="5.77606">
        <ele>1033.4</ele>
        <time>2025-10-05T11:36:18Z</time>
      </trkpt>
      <trkpt lat="43.32981" lon="5.77605">
        <ele>1033.3</ele>
        <time>2025-10-05T11:36:19Z</time>
      </trkpt>
      <trkpt lat="43.3298" lon="5.77605">
        <ele>1033.7</ele>
        <time>2025-10-05T11:36:20Z</time>
      </trkpt>
      <trkpt lat="43.3298" lon="5.77604">
        <ele>1033.5</ele>
        <time>2025-10-05T11:36:21Z</time>
      </trkpt>
      <trkpt lat="43.3298" lon="5.77603">
        <ele>1033.3</ele>
        <time>2025-10-05T11:36:22Z</time>
      </trkpt>
      <trkpt lat="43.32979" lon="5.77602">
        <ele>1033.3</ele>
        <time>2025-10-05T11:36:23Z</time>
      </trkpt>
      <trkpt lat="43.32979" lon="5.77602">
        <ele>1033.2</ele>
        <time>2025-10-05T11:36:24Z</time>
      </trkpt>
      <trkpt lat="43.32978" lon="5.77602">
        <ele>1033.1</ele>
        <time>2025-10-05T11:36:25Z</time>
      </trkpt>
      <trkpt lat="43.32979" lon="5.77602">
        <ele>1033</ele>
        <time>2025-10-05T11:36:26Z</time>
      </trkpt>
      <trkpt lat="43.32978" lon="5.77602">
        <ele>1033</ele>
        <time>2025-10-05T11:36:27Z</time>
      </trkpt>
      <trkpt lat="43.32978" lon="5.77602">
        <ele>1032.9</ele>
        <time>2025-10-05T11:36:28Z</time>
      </trkpt>
      <trkpt lat="43.32978" lon="5.77601">
        <ele>1033</ele>
        <time>2025-10-05T11:36:29Z</time>
      </trkpt>
      <trkpt lat="43.32977" lon="5.776">
        <ele>1032.8</ele>
        <time>2025-10-05T11:36:30Z</time>
      </trkpt>
      <trkpt lat="43.32976" lon="5.776">
        <ele>1032.6</ele>
        <time>2025-10-05T11:36:31Z</time>
      </trkpt>
      <trkpt lat="43.32975" lon="5.77599">
        <ele>1032.5</ele>
        <time>2025-10-05T11:36:32Z</time>
      </trkpt>
      <trkpt lat="43.32975" lon="5.77599">
        <ele>1032.3</ele>
        <time>2025-10-05T11:36:33Z</time>
      </trkpt>
      <trkpt lat="43.32974" lon="5.77598">
        <ele>1032.2</ele>
        <time>2025-10-05T11:36:34Z</time>
      </trkpt>
      <trkpt lat="43.32974" lon="5.77598">
        <ele>1032.2</ele>
        <time>2025-10-05T11:36:35Z</time>
      </trkpt>
      <trkpt lat="43.32973" lon="5.77597">
        <ele>1032</ele>
        <time>2025-10-05T11:36:36Z</time>
      </trkpt>
      <trkpt lat="43.32973" lon="5.77597">
        <ele>1031.8</ele>
        <time>2025-10-05T11:36:37Z</time>
      </trkpt>
      <trkpt lat="43.32973" lon="5.77597">
        <ele>1031.6</ele>
        <time>2025-10-05T11:36:38Z</time>
      </trkpt>
      <trkpt lat="43.32972" lon="5.77597">
        <ele>1031.4</ele>
        <time>2025-10-05T11:36:39Z</time>
      </trkpt>
      <trkpt lat="43.32972" lon="5.77597">
        <ele>1031.2</ele>
        <time>2025-10-05T11:36:40Z</time>
      </trkpt>
      <trkpt lat="43.32972" lon="5.77597">
        <ele>1031.1</ele>
        <time>2025-10-05T11:36:41Z</time>
      </trkpt>
      <trkpt lat="43.32972" lon="5.77596">
        <ele>1031</ele>
        <time>2025-10-05T11:36:42Z</time>
      </trkpt>
      <trkpt lat="43.32971" lon="5.77596">
        <ele>1030.9</ele>
        <time>2025-10-05T11:36:43Z</time>
      </trkpt>
      <trkpt lat="43.32971" lon="5.77596">
        <ele>1030.7</ele>
        <time>2025-10-05T11:36:44Z</time>
      </trkpt>
      <trkpt lat="43.3297" lon="5.77596">
        <ele>1030.6</ele>
        <time>2025-10-05T11:36:45Z</time>
      </trkpt>
      <trkpt lat="43.32969" lon="5.77595">
        <ele>1030.4</ele>
        <time>2025-10-05T11:36:46Z</time>
      </trkpt>
      <trkpt lat="43.32969" lon="5.77594">
        <ele>1030.2</ele>
        <time>2025-10-05T11:36:47Z</time>
      </trkpt>
      <trkpt lat="43.32968" lon="5.77594">
        <ele>1030.1</ele>
        <time>2025-10-05T11:36:48Z</time>
      </trkpt>
      <trkpt lat="43.32967" lon="5.77593">
        <ele>1030</ele>
        <time>2025-10-05T11:36:49Z</time>
      </trkpt>
      <trkpt lat="43.32967" lon="5.77593">
        <ele>1029.8</ele>
        <time>2025-10-05T11:36:50Z</time>
      </trkpt>
      <trkpt lat="43.32966" lon="5.77593">
        <ele>1029.7</ele>
        <time>2025-10-05T11:36:51Z</time>
      </trkpt>
      <trkpt lat="43.32965" lon="5.77593">
        <ele>1029.6</ele>
        <time>2025-10-05T11:36:52Z</time>
      </trkpt>
      <trkpt lat="43.32964" lon="5.77593">
        <ele>1029.5</ele>
        <time>2025-10-05T11:36:53Z</time>
      </trkpt>
      <trkpt lat="43.32964" lon="5.77592">
        <ele>1029.4</ele>
        <time>2025-10-05T11:36:54Z</time>
      </trkpt>
      <trkpt lat="43.32963" lon="5.77592">
        <ele>1029.2</ele>
        <time>2025-10-05T11:36:55Z</time>
      </trkpt>
      <trkpt lat="43.32963" lon="5.77592">
        <ele>1029.4</ele>
        <time>2025-10-05T11:36:56Z</time>
      </trkpt>
      <trkpt lat="43.32962" lon="5.77591">
        <ele>1029.2</ele>
        <time>2025-10-05T11:36:57Z</time>
      </trkpt>
      <trkpt lat="43.32962" lon="5.7759">
        <ele>1029.1</ele>
        <time>2025-10-05T11:36:58Z</time>
      </trkpt>
      <trkpt lat="43.32962" lon="5.77589">
        <ele>1029.1</ele>
        <time>2025-10-05T11:36:59Z</time>
      </trkpt>
      <trkpt lat="43.32961" lon="5.77589">
        <ele>1029.2</ele>
        <time>2025-10-05T11:37:00Z</time>
      </trkpt>
      <trkpt lat="43.32961" lon="5.77588">
        <ele>1029.3</ele>
        <time>2025-10-05T11:37:01Z</time>
      </trkpt>
      <trkpt lat="43.32961" lon="5.77588">
        <ele>1029.2</ele>
        <time>2025-10-05T11:37:02Z</time>
      </trkpt>
      <trkpt lat="43.3296" lon="5.77587">
        <ele>1029.2</ele>
        <time>2025-10-05T11:37:03Z</time>
      </trkpt>
      <trkpt lat="43.3296" lon="5.77587">
        <ele>1030.1</ele>
        <time>2025-10-05T11:37:04Z</time>
      </trkpt>
      <trkpt lat="43.32959" lon="5.77586">
        <ele>1030.4</ele>
        <time>2025-10-05T11:37:05Z</time>
      </trkpt>
      <trkpt lat="43.32959" lon="5.77585">
        <ele>1030.4</ele>
        <time>2025-10-05T11:37:06Z</time>
      </trkpt>
      <trkpt lat="43.32959" lon="5.77584">
        <ele>1030.4</ele>
        <time>2025-10-05T11:37:07Z</time>
      </trkpt>
      <trkpt lat="43.32958" lon="5.77584">
        <ele>1030.3</ele>
        <time>2025-10-05T11:37:08Z</time>
      </trkpt>
      <trkpt lat="43.32958" lon="5.77583">
        <ele>1030.3</ele>
        <time>2025-10-05T11:37:09Z</time>
      </trkpt>
      <trkpt lat="43.32957" lon="5.77583">
        <ele>1030.1</ele>
        <time>2025-10-05T11:37:10Z</time>
      </trkpt>
      <trkpt lat="43.32957" lon="5.77583">
        <ele>1030</ele>
        <time>2025-10-05T11:37:11Z</time>
      </trkpt>
      <trkpt lat="43.32957" lon="5.77582">
        <ele>1029.9</ele>
        <time>2025-10-05T11:37:12Z</time>
      </trkpt>
      <trkpt lat="43.32956" lon="5.77581">
        <ele>1029.7</ele>
        <time>2025-10-05T11:37:13Z</time>
      </trkpt>
      <trkpt lat="43.32956" lon="5.77581">
        <ele>1029.5</ele>
        <time>2025-10-05T11:37:14Z</time>
      </trkpt>
      <trkpt lat="43.32955" lon="5.7758">
        <ele>1029.1</ele>
        <time>2025-10-05T11:37:15Z</time>
      </trkpt>
      <trkpt lat="43.32954" lon="5.7758">
        <ele>1028.7</ele>
        <time>2025-10-05T11:37:16Z</time>
      </trkpt>
      <trkpt lat="43.32954" lon="5.7758">
        <ele>1028.5</ele>
        <time>2025-10-05T11:37:17Z</time>
      </trkpt>
      <trkpt lat="43.32953" lon="5.77579">
        <ele>1028.3</ele>
        <time>2025-10-05T11:37:18Z</time>
      </trkpt>
      <trkpt lat="43.32953" lon="5.77579">
        <ele>1028.3</ele>
        <time>2025-10-05T11:37:19Z</time>
      </trkpt>
      <trkpt lat="43.32953" lon="5.77578">
        <ele>1028.2</ele>
        <time>2025-10-05T11:37:20Z</time>
      </trkpt>
      <trkpt lat="43.32953" lon="5.77577">
        <ele>1028</ele>
        <time>2025-10-05T11:37:21Z</time>
      </trkpt>
      <trkpt lat="43.32953" lon="5.77576">
        <ele>1027.9</ele>
        <time>2025-10-05T11:37:22Z</time>
      </trkpt>
      <trkpt lat="43.32953" lon="5.77575">
        <ele>1027.7</ele>
        <time>2025-10-05T11:37:23Z</time>
      </trkpt>
      <trkpt lat="43.32952" lon="5.77574">
        <ele>1027.6</ele>
        <time>2025-10-05T11:37:24Z</time>
      </trkpt>
      <trkpt lat="43.32952" lon="5.77574">
        <ele>1027.3</ele>
        <time>2025-10-05T11:37:25Z</time>
      </trkpt>
      <trkpt lat="43.32952" lon="5.77573">
        <ele>1027.2</ele>
        <time>2025-10-05T11:37:26Z</time>
      </trkpt>
      <trkpt lat="43.32952" lon="5.77572">
        <ele>1027.2</ele>
        <time>2025-10-05T11:37:27Z</time>
      </trkpt>
      <trkpt lat="43.32951" lon="5.77572">
        <ele>1027.3</ele>
        <time>2025-10-05T11:37:28Z</time>
      </trkpt>
      <trkpt lat="43.32951" lon="5.77572">
        <ele>1027.4</ele>
        <time>2025-10-05T11:37:29Z</time>
      </trkpt>
      <trkpt lat="43.3295" lon="5.77572">
        <ele>1027.1</ele>
        <time>2025-10-05T11:37:30Z</time>
      </trkpt>
      <trkpt lat="43.3295" lon="5.77571">
        <ele>1026.7</ele>
        <time>2025-10-05T11:37:31Z</time>
      </trkpt>
      <trkpt lat="43.32949" lon="5.7757">
        <ele>1026.3</ele>
        <time>2025-10-05T11:37:32Z</time>
      </trkpt>
      <trkpt lat="43.32949" lon="5.77569">
        <ele>1025.9</ele>
        <time>2025-10-05T11:37:33Z</time>
      </trkpt>
      <trkpt lat="43.32949" lon="5.77568">
        <ele>1025.7</ele>
        <time>2025-10-05T11:37:34Z</time>
      </trkpt>
      <trkpt lat="43.32949" lon="5.77566">
        <ele>1025.8</ele>
        <time>2025-10-05T11:37:35Z</time>
      </trkpt>
      <trkpt lat="43.32948" lon="5.77565">
        <ele>1025.6</ele>
        <time>2025-10-05T11:37:36Z</time>
      </trkpt>
      <trkpt lat="43.32947" lon="5.77564">
        <ele>1025.5</ele>
        <time>2025-10-05T11:37:37Z</time>
      </trkpt>
      <trkpt lat="43.32946" lon="5.77564">
        <ele>1025.4</ele>
        <time>2025-10-05T11:37:38Z</time>
      </trkpt>
      <trkpt lat="43.32946" lon="5.77563">
        <ele>1025.4</ele>
        <time>2025-10-05T11:37:39Z</time>
      </trkpt>
      <trkpt lat="43.32945" lon="5.77562">
        <ele>1025.3</ele>
        <time>2025-10-05T11:37:40Z</time>
      </trkpt>
      <trkpt lat="43.32945" lon="5.77561">
        <ele>1025.2</ele>
        <time>2025-10-05T11:37:41Z</time>
      </trkpt>
      <trkpt lat="43.32944" lon="5.77561">
        <ele>1024.9</ele>
        <time>2025-10-05T11:37:42Z</time>
      </trkpt>
      <trkpt lat="43.32944" lon="5.77561">
        <ele>1024.7</ele>
        <time>2025-10-05T11:37:43Z</time>
      </trkpt>
      <trkpt lat="43.32943" lon="5.7756">
        <ele>1024.5</ele>
        <time>2025-10-05T11:37:44Z</time>
      </trkpt>
      <trkpt lat="43.32942" lon="5.7756">
        <ele>1024.3</ele>
        <time>2025-10-05T11:37:45Z</time>
      </trkpt>
      <trkpt lat="43.32942" lon="5.77559">
        <ele>1024.1</ele>
        <time>2025-10-05T11:37:46Z</time>
      </trkpt>
      <trkpt lat="43.32942" lon="5.77558">
        <ele>1023.9</ele>
        <time>2025-10-05T11:37:47Z</time>
      </trkpt>
      <trkpt lat="43.32941" lon="5.77557">
        <ele>1023.7</ele>
        <time>2025-10-05T11:37:48Z</time>
      </trkpt>
      <trkpt lat="43.32941" lon="5.77557">
        <ele>1023.6</ele>
        <time>2025-10-05T11:37:49Z</time>
      </trkpt>
      <trkpt lat="43.3294" lon="5.77556">
        <ele>1023.5</ele>
        <time>2025-10-05T11:37:50Z</time>
      </trkpt>
      <trkpt lat="43.32939" lon="5.77555">
        <ele>1023.5</ele>
        <time>2025-10-05T11:37:51Z</time>
      </trkpt>
      <trkpt lat="43.32939" lon="5.77554">
        <ele>1023.4</ele>
        <time>2025-10-05T11:37:52Z</time>
      </trkpt>
      <trkpt lat="43.32939" lon="5.77554">
        <ele>1023.4</ele>
        <time>2025-10-05T11:37:53Z</time>
      </trkpt>
      <trkpt lat="43.32938" lon="5.77553">
        <ele>1023.3</ele>
        <time>2025-10-05T11:37:54Z</time>
      </trkpt>
      <trkpt lat="43.32938" lon="5.77553">
        <ele>1023.2</ele>
        <time>2025-10-05T11:37:55Z</time>
      </trkpt>
      <trkpt lat="43.32937" lon="5.77553">
        <ele>1023.2</ele>
        <time>2025-10-05T11:37:56Z</time>
      </trkpt>
      <trkpt lat="43.32937" lon="5.77553">
        <ele>1023.1</ele>
        <time>2025-10-05T11:37:57Z</time>
      </trkpt>
      <trkpt lat="43.32936" lon="5.77553">
        <ele>1022.9</ele>
        <time>2025-10-05T11:37:58Z</time>
      </trkpt>
      <trkpt lat="43.32936" lon="5.77552">
        <ele>1022.7</ele>
        <time>2025-10-05T11:37:59Z</time>
      </trkpt>
      <trkpt lat="43.32936" lon="5.77552">
        <ele>1022.6</ele>
        <time>2025-10-05T11:38:00Z</time>
      </trkpt>
      <trkpt lat="43.32936" lon="5.77551">
        <ele>1022.5</ele>
        <time>2025-10-05T11:38:01Z</time>
      </trkpt>
      <trkpt lat="43.32935" lon="5.77551">
        <ele>1022.3</ele>
        <time>2025-10-05T11:38:02Z</time>
      </trkpt>
      <trkpt lat="43.32935" lon="5.7755">
        <ele>1022.3</ele>
        <time>2025-10-05T11:38:03Z</time>
      </trkpt>
      <trkpt lat="43.32935" lon="5.7755">
        <ele>1022.1</ele>
        <time>2025-10-05T11:38:04Z</time>
      </trkpt>
      <trkpt lat="43.32935" lon="5.77549">
        <ele>1022.1</ele>
        <time>2025-10-05T11:38:05Z</time>
      </trkpt>
      <trkpt lat="43.32934" lon="5.77549">
        <ele>1022</ele>
        <time>2025-10-05T11:38:06Z</time>
      </trkpt>
      <trkpt lat="43.32933" lon="5.77548">
        <ele>1021.9</ele>
        <time>2025-10-05T11:38:07Z</time>
      </trkpt>
      <trkpt lat="43.32932" lon="5.77547">
        <ele>1021.9</ele>
        <time>2025-10-05T11:38:08Z</time>
      </trkpt>
      <trkpt lat="43.32932" lon="5.77547">
        <ele>1021.7</ele>
        <time>2025-10-05T11:38:09Z</time>
      </trkpt>
      <trkpt lat="43.32931" lon="5.77546">
        <ele>1021.5</ele>
        <time>2025-10-05T11:38:10Z</time>
      </trkpt>
      <trkpt lat="43.3293" lon="5.77546">
        <ele>1021.4</ele>
        <time>2025-10-05T11:38:11Z</time>
      </trkpt>
      <trkpt lat="43.3293" lon="5.77545">
        <ele>1021.4</ele>
        <time>2025-10-05T11:38:12Z</time>
      </trkpt>
      <trkpt lat="43.32929" lon="5.77545">
        <ele>1021.4</ele>
        <time>2025-10-05T11:38:13Z</time>
      </trkpt>
      <trkpt lat="43.32929" lon="5.77544">
        <ele>1021.2</ele>
        <time>2025-10-05T11:38:14Z</time>
      </trkpt>
      <trkpt lat="43.32928" lon="5.77543">
        <ele>1021</ele>
        <time>2025-10-05T11:38:15Z</time>
      </trkpt>
      <trkpt lat="43.32928" lon="5.77542">
        <ele>1020.9</ele>
        <time>2025-10-05T11:38:16Z</time>
      </trkpt>
      <trkpt lat="43.32927" lon="5.77541">
        <ele>1020.8</ele>
        <time>2025-10-05T11:38:17Z</time>
      </trkpt>
      <trkpt lat="43.32927" lon="5.77541">
        <ele>1020.6</ele>
        <time>2025-10-05T11:38:18Z</time>
      </trkpt>
      <trkpt lat="43.32927" lon="5.77541">
        <ele>1020.6</ele>
        <time>2025-10-05T11:38:19Z</time>
      </trkpt>
      <trkpt lat="43.32927" lon="5.77541">
        <ele>1020.6</ele>
        <time>2025-10-05T11:38:20Z</time>
      </trkpt>
      <trkpt lat="43.32927" lon="5.7754">
        <ele>1020.6</ele>
        <time>2025-10-05T11:38:21Z</time>
      </trkpt>
      <trkpt lat="43.32926" lon="5.7754">
        <ele>1020.5</ele>
        <time>2025-10-05T11:38:22Z</time>
      </trkpt>
      <trkpt lat="43.32926" lon="5.77539">
        <ele>1020.4</ele>
        <time>2025-10-05T11:38:23Z</time>
      </trkpt>
      <trkpt lat="43.32926" lon="5.77538">
        <ele>1020.3</ele>
        <time>2025-10-05T11:38:24Z</time>
      </trkpt>
      <trkpt lat="43.32925" lon="5.77537">
        <ele>1020.3</ele>
        <time>2025-10-05T11:38:25Z</time>
      </trkpt>
      <trkpt lat="43.32924" lon="5.77537">
        <ele>1020.2</ele>
        <time>2025-10-05T11:38:26Z</time>
      </trkpt>
      <trkpt lat="43.32924" lon="5.77536">
        <ele>1020.2</ele>
        <time>2025-10-05T11:38:27Z</time>
      </trkpt>
      <trkpt lat="43.32923" lon="5.77535">
        <ele>1020.1</ele>
        <time>2025-10-05T11:38:28Z</time>
      </trkpt>
      <trkpt lat="43.32923" lon="5.77534">
        <ele>1020.1</ele>
        <time>2025-10-05T11:38:29Z</time>
      </trkpt>
      <trkpt lat="43.32922" lon="5.77534">
        <ele>1020.1</ele>
        <time>2025-10-05T11:38:30Z</time>
      </trkpt>
      <trkpt lat="43.32922" lon="5.77534">
        <ele>1019.9</ele>
        <time>2025-10-05T11:38:31Z</time>
      </trkpt>
      <trkpt lat="43.32922" lon="5.77533">
        <ele>1019.8</ele>
        <time>2025-10-05T11:38:32Z</time>
      </trkpt>
      <trkpt lat="43.32921" lon="5.77532">
        <ele>1019.4</ele>
        <time>2025-10-05T11:38:33Z</time>
      </trkpt>
      <trkpt lat="43.32921" lon="5.77532">
        <ele>1019.2</ele>
        <time>2025-10-05T11:38:34Z</time>
      </trkpt>
      <trkpt lat="43.3292" lon="5.77531">
        <ele>1018.9</ele>
        <time>2025-10-05T11:38:35Z</time>
      </trkpt>
      <trkpt lat="43.32919" lon="5.77531">
        <ele>1018.7</ele>
        <time>2025-10-05T11:38:36Z</time>
      </trkpt>
      <trkpt lat="43.32919" lon="5.7753">
        <ele>1018.5</ele>
        <time>2025-10-05T11:38:37Z</time>
      </trkpt>
      <trkpt lat="43.32918" lon="5.7753">
        <ele>1018.3</ele>
        <time>2025-10-05T11:38:38Z</time>
      </trkpt>
      <trkpt lat="43.32918" lon="5.77529">
        <ele>1018.2</ele>
        <time>2025-10-05T11:38:39Z</time>
      </trkpt>
      <trkpt lat="43.32917" lon="5.77529">
        <ele>1018</ele>
        <time>2025-10-05T11:38:40Z</time>
      </trkpt>
      <trkpt lat="43.32916" lon="5.77528">
        <ele>1017.8</ele>
        <time>2025-10-05T11:38:41Z</time>
      </trkpt>
      <trkpt lat="43.32916" lon="5.77528">
        <ele>1017.6</ele>
        <time>2025-10-05T11:38:42Z</time>
      </trkpt>
      <trkpt lat="43.32915" lon="5.77527">
        <ele>1017.4</ele>
        <time>2025-10-05T11:38:43Z</time>
      </trkpt>
      <trkpt lat="43.32915" lon="5.77526">
        <ele>1017.3</ele>
        <time>2025-10-05T11:38:44Z</time>
      </trkpt>
      <trkpt lat="43.32914" lon="5.77525">
        <ele>1017.3</ele>
        <time>2025-10-05T11:38:45Z</time>
      </trkpt>
      <trkpt lat="43.32914" lon="5.77525">
        <ele>1017.1</ele>
        <time>2025-10-05T11:38:46Z</time>
      </trkpt>
      <trkpt lat="43.32913" lon="5.77525">
        <ele>1016.9</ele>
        <time>2025-10-05T11:38:47Z</time>
      </trkpt>
      <trkpt lat="43.32913" lon="5.77524">
        <ele>1016.8</ele>
        <time>2025-10-05T11:38:48Z</time>
      </trkpt>
      <trkpt lat="43.32912" lon="5.77523">
        <ele>1016.6</ele>
        <time>2025-10-05T11:38:49Z</time>
      </trkpt>
      <trkpt lat="43.32912" lon="5.77522">
        <ele>1016.4</ele>
        <time>2025-10-05T11:38:50Z</time>
      </trkpt>
      <trkpt lat="43.32911" lon="5.77521">
        <ele>1016.2</ele>
        <time>2025-10-05T11:38:51Z</time>
      </trkpt>
      <trkpt lat="43.3291" lon="5.7752">
        <ele>1016</ele>
        <time>2025-10-05T11:38:52Z</time>
      </trkpt>
      <trkpt lat="43.3291" lon="5.77519">
        <ele>1015.9</ele>
        <time>2025-10-05T11:38:53Z</time>
      </trkpt>
      <trkpt lat="43.32909" lon="5.77518">
        <ele>1015.7</ele>
        <time>2025-10-05T11:38:54Z</time>
      </trkpt>
      <trkpt lat="43.32909" lon="5.77516">
        <ele>1015.8</ele>
        <time>2025-10-05T11:38:55Z</time>
      </trkpt>
      <trkpt lat="43.32908" lon="5.77515">
        <ele>1015.4</ele>
        <time>2025-10-05T11:38:56Z</time>
      </trkpt>
      <trkpt lat="43.32908" lon="5.77514">
        <ele>1015.5</ele>
        <time>2025-10-05T11:38:57Z</time>
      </trkpt>
      <trkpt lat="43.32907" lon="5.77513">
        <ele>1015.6</ele>
        <time>2025-10-05T11:38:58Z</time>
      </trkpt>
      <trkpt lat="43.32907" lon="5.77512">
        <ele>1015.3</ele>
        <time>2025-10-05T11:38:59Z</time>
      </trkpt>
      <trkpt lat="43.32906" lon="5.77512">
        <ele>1015.2</ele>
        <time>2025-10-05T11:39:00Z</time>
      </trkpt>
      <trkpt lat="43.32906" lon="5.77511">
        <ele>1015.1</ele>
        <time>2025-10-05T11:39:01Z</time>
      </trkpt>
      <trkpt lat="43.32905" lon="5.7751">
        <ele>1015</ele>
        <time>2025-10-05T11:39:02Z</time>
      </trkpt>
      <trkpt lat="43.32905" lon="5.77509">
        <ele>1014.8</ele>
        <time>2025-10-05T11:39:03Z</time>
      </trkpt>
      <trkpt lat="43.32905" lon="5.77508">
        <ele>1014.7</ele>
        <time>2025-10-05T11:39:04Z</time>
      </trkpt>
      <trkpt lat="43.32905" lon="5.77508">
        <ele>1015.1</ele>
        <time>2025-10-05T11:39:05Z</time>
      </trkpt>
      <trkpt lat="43.32904" lon="5.77507">
        <ele>1014.9</ele>
        <time>2025-10-05T11:39:06Z</time>
      </trkpt>
      <trkpt lat="43.32904" lon="5.77506">
        <ele>1015.2</ele>
        <time>2025-10-05T11:39:07Z</time>
      </trkpt>
      <trkpt lat="43.32903" lon="5.77505">
        <ele>1015.6</ele>
        <time>2025-10-05T11:39:08Z</time>
      </trkpt>
      <trkpt lat="43.32903" lon="5.77505">
        <ele>1015.7</ele>
        <time>2025-10-05T11:39:09Z</time>
      </trkpt>
      <trkpt lat="43.32903" lon="5.77503">
        <ele>1015.2</ele>
        <time>2025-10-05T11:39:10Z</time>
      </trkpt>
      <trkpt lat="43.32902" lon="5.77502">
        <ele>1014.9</ele>
        <time>2025-10-05T11:39:11Z</time>
      </trkpt>
      <trkpt lat="43.32902" lon="5.77501">
        <ele>1014.7</ele>
        <time>2025-10-05T11:39:12Z</time>
      </trkpt>
      <trkpt lat="43.32901" lon="5.77501">
        <ele>1014.7</ele>
        <time>2025-10-05T11:39:13Z</time>
      </trkpt>
      <trkpt lat="43.32901" lon="5.775">
        <ele>1014.7</ele>
        <time>2025-10-05T11:39:14Z</time>
      </trkpt>
      <trkpt lat="43.329" lon="5.775">
        <ele>1014.5</ele>
        <time>2025-10-05T11:39:15Z</time>
      </trkpt>
      <trkpt lat="43.329" lon="5.77499">
        <ele>1014.5</ele>
        <time>2025-10-05T11:39:16Z</time>
      </trkpt>
      <trkpt lat="43.32899" lon="5.77499">
        <ele>1014.5</ele>
        <time>2025-10-05T11:39:17Z</time>
      </trkpt>
      <trkpt lat="43.32899" lon="5.77499">
        <ele>1014.5</ele>
        <time>2025-10-05T11:39:18Z</time>
      </trkpt>
      <trkpt lat="43.32898" lon="5.77498">
        <ele>1014.3</ele>
        <time>2025-10-05T11:39:19Z</time>
      </trkpt>
      <trkpt lat="43.32898" lon="5.77498">
        <ele>1014.3</ele>
        <time>2025-10-05T11:39:20Z</time>
      </trkpt>
      <trkpt lat="43.32898" lon="5.77498">
        <ele>1014.2</ele>
        <time>2025-10-05T11:39:21Z</time>
      </trkpt>
      <trkpt lat="43.32897" lon="5.77497">
        <ele>1014</ele>
        <time>2025-10-05T11:39:22Z</time>
      </trkpt>
      <trkpt lat="43.32897" lon="5.77497">
        <ele>1013.9</ele>
        <time>2025-10-05T11:39:23Z</time>
      </trkpt>
      <trkpt lat="43.32897" lon="5.77496">
        <ele>1013.8</ele>
        <time>2025-10-05T11:39:24Z</time>
      </trkpt>
      <trkpt lat="43.32896" lon="5.77496">
        <ele>1013.6</ele>
        <time>2025-10-05T11:39:25Z</time>
      </trkpt>
      <trkpt lat="43.32896" lon="5.77495">
        <ele>1013.6</ele>
        <time>2025-10-05T11:39:26Z</time>
      </trkpt>
      <trkpt lat="43.32896" lon="5.77494">
        <ele>1013.5</ele>
        <time>2025-10-05T11:39:27Z</time>
      </trkpt>
      <trkpt lat="43.32895" lon="5.77493">
        <ele>1013.5</ele>
        <time>2025-10-05T11:39:28Z</time>
      </trkpt>
      <trkpt lat="43.32895" lon="5.77492">
        <ele>1013.3</ele>
        <time>2025-10-05T11:39:29Z</time>
      </trkpt>
      <trkpt lat="43.32895" lon="5.77491">
        <ele>1013.4</ele>
        <time>2025-10-05T11:39:30Z</time>
      </trkpt>
      <trkpt lat="43.32894" lon="5.7749">
        <ele>1013.6</ele>
        <time>2025-10-05T11:39:31Z</time>
      </trkpt>
      <trkpt lat="43.32894" lon="5.77489">
        <ele>1013.8</ele>
        <time>2025-10-05T11:39:32Z</time>
      </trkpt>
      <trkpt lat="43.32894" lon="5.77488">
        <ele>1013.3</ele>
        <time>2025-10-05T11:39:33Z</time>
      </trkpt>
      <trkpt lat="43.32893" lon="5.77487">
        <ele>1013.2</ele>
        <time>2025-10-05T11:39:34Z</time>
      </trkpt>
      <trkpt lat="43.32893" lon="5.77487">
        <ele>1013.3</ele>
        <time>2025-10-05T11:39:35Z</time>
      </trkpt>
      <trkpt lat="43.32892" lon="5.77486">
        <ele>1013.4</ele>
        <time>2025-10-05T11:39:36Z</time>
      </trkpt>
      <trkpt lat="43.32891" lon="5.77485">
        <ele>1013.4</ele>
        <time>2025-10-05T11:39:37Z</time>
      </trkpt>
      <trkpt lat="43.32891" lon="5.77484">
        <ele>1013.4</ele>
        <time>2025-10-05T11:39:38Z</time>
      </trkpt>
      <trkpt lat="43.32891" lon="5.77483">
        <ele>1013.4</ele>
        <time>2025-10-05T11:39:39Z</time>
      </trkpt>
      <trkpt lat="43.32891" lon="5.77481">
        <ele>1013.5</ele>
        <time>2025-10-05T11:39:40Z</time>
      </trkpt>
      <trkpt lat="43.32891" lon="5.7748">
        <ele>1013.6</ele>
        <time>2025-10-05T11:39:41Z</time>
      </trkpt>
      <trkpt lat="43.32891" lon="5.7748">
        <ele>1014.2</ele>
        <time>2025-10-05T11:39:42Z</time>
      </trkpt>
      <trkpt lat="43.3289" lon="5.77479">
        <ele>1014.7</ele>
        <time>2025-10-05T11:39:43Z</time>
      </trkpt>
      <trkpt lat="43.3289" lon="5.77478">
        <ele>1015.5</ele>
        <time>2025-10-05T11:39:44Z</time>
      </trkpt>
      <trkpt lat="43.3289" lon="5.77477">
        <ele>1015.9</ele>
        <time>2025-10-05T11:39:45Z</time>
      </trkpt>
      <trkpt lat="43.3289" lon="5.77476">
        <ele>1015.2</ele>
        <time>2025-10-05T11:39:46Z</time>
      </trkpt>
      <trkpt lat="43.32889" lon="5.77475">
        <ele>1014.6</ele>
        <time>2025-10-05T11:39:47Z</time>
      </trkpt>
      <trkpt lat="43.32889" lon="5.77474">
        <ele>1014</ele>
        <time>2025-10-05T11:39:48Z</time>
      </trkpt>
      <trkpt lat="43.32888" lon="5.77474">
        <ele>1013.8</ele>
        <time>2025-10-05T11:39:49Z</time>
      </trkpt>
      <trkpt lat="43.32887" lon="5.77473">
        <ele>1013.7</ele>
        <time>2025-10-05T11:39:50Z</time>
      </trkpt>
      <trkpt lat="43.32887" lon="5.77473">
        <ele>1013.3</ele>
        <time>2025-10-05T11:39:51Z</time>
      </trkpt>
      <trkpt lat="43.32886" lon="5.77472">
        <ele>1013.1</ele>
        <time>2025-10-05T11:39:52Z</time>
      </trkpt>
      <trkpt lat="43.32886" lon="5.77471">
        <ele>1013</ele>
        <time>2025-10-05T11:39:53Z</time>
      </trkpt>
      <trkpt lat="43.32884" lon="5.7747">
        <ele>1012.9</ele>
        <time>2025-10-05T11:39:54Z</time>
      </trkpt>
      <trkpt lat="43.32883" lon="5.7747">
        <ele>1011.9</ele>
        <time>2025-10-05T11:39:55Z</time>
      </trkpt>
      <trkpt lat="43.32883" lon="5.77469">
        <ele>1011.8</ele>
        <time>2025-10-05T11:39:56Z</time>
      </trkpt>
      <trkpt lat="43.32882" lon="5.77469">
        <ele>1011.8</ele>
        <time>2025-10-05T11:39:57Z</time>
      </trkpt>
      <trkpt lat="43.32881" lon="5.77469">
        <ele>1012.1</ele>
        <time>2025-10-05T11:39:58Z</time>
      </trkpt>
      <trkpt lat="43.32881" lon="5.77468">
        <ele>1011.9</ele>
        <time>2025-10-05T11:39:59Z</time>
      </trkpt>
      <trkpt lat="43.32881" lon="5.77468">
        <ele>1011.6</ele>
        <time>2025-10-05T11:40:00Z</time>
      </trkpt>
      <trkpt lat="43.32881" lon="5.77469">
        <ele>1011.4</ele>
        <time>2025-10-05T11:40:01Z</time>
      </trkpt>
      <trkpt lat="43.32881" lon="5.77469">
        <ele>1011.2</ele>
        <time>2025-10-05T11:40:02Z</time>
      </trkpt>
      <trkpt lat="43.32881" lon="5.77469">
        <ele>1011.1</ele>
        <time>2025-10-05T11:40:03Z</time>
      </trkpt>
      <trkpt lat="43.32881" lon="5.77469">
        <ele>1011.2</ele>
        <time>2025-10-05T11:40:04Z</time>
      </trkpt>
      <trkpt lat="43.32881" lon="5.77469">
        <ele>1011.2</ele>
        <time>2025-10-05T11:40:05Z</time>
      </trkpt>
      <trkpt lat="43.32882" lon="5.77469">
        <ele>1011.1</ele>
        <time>2025-10-05T11:40:06Z</time>
      </trkpt>
      <trkpt lat="43.32882" lon="5.77469">
        <ele>1010.9</ele>
        <time>2025-10-05T11:40:07Z</time>
      </trkpt>
      <trkpt lat="43.32882" lon="5.77469">
        <ele>1010.8</ele>
        <time>2025-10-05T11:40:08Z</time>
      </trkpt>
      <trkpt lat="43.32882" lon="5.77468">
        <ele>1010.7</ele>
        <time>2025-10-05T11:40:09Z</time>
      </trkpt>
      <trkpt lat="43.32882" lon="5.77468">
        <ele>1010.7</ele>
        <time>2025-10-05T11:40:10Z</time>
      </trkpt>
      <trkpt lat="43.32881" lon="5.77468">
        <ele>1010.6</ele>
        <time>2025-10-05T11:40:11Z</time>
      </trkpt>
      <trkpt lat="43.3288" lon="5.77468">
        <ele>1010.5</ele>
        <time>2025-10-05T11:40:12Z</time>
      </trkpt>
      <trkpt lat="43.3288" lon="5.77468">
        <ele>1010.3</ele>
        <time>2025-10-05T11:40:13Z</time>
      </trkpt>
      <trkpt lat="43.32879" lon="5.77468">
        <ele>1010.2</ele>
        <time>2025-10-05T11:40:14Z</time>
      </trkpt>
      <trkpt lat="43.32878" lon="5.77467">
        <ele>1010.1</ele>
        <time>2025-10-05T11:40:15Z</time>
      </trkpt>
      <trkpt lat="43.32877" lon="5.77467">
        <ele>1009.8</ele>
        <time>2025-10-05T11:40:16Z</time>
      </trkpt>
      <trkpt lat="43.32877" lon="5.77466">
        <ele>1009.8</ele>
        <time>2025-10-05T11:40:17Z</time>
      </trkpt>
      <trkpt lat="43.32876" lon="5.77466">
        <ele>1009.7</ele>
        <time>2025-10-05T11:40:18Z</time>
      </trkpt>
      <trkpt lat="43.32875" lon="5.77465">
        <ele>1009.5</ele>
        <time>2025-10-05T11:40:19Z</time>
      </trkpt>
      <trkpt lat="43.32875" lon="5.77464">
        <ele>1009.3</ele>
        <time>2025-10-05T11:40:20Z</time>
      </trkpt>
      <trkpt lat="43.32874" lon="5.77464">
        <ele>1009.2</ele>
        <time>2025-10-05T11:40:21Z</time>
      </trkpt>
      <trkpt lat="43.32873" lon="5.77463">
        <ele>1009</ele>
        <time>2025-10-05T11:40:22Z</time>
      </trkpt>
      <trkpt lat="43.32872" lon="5.77462">
        <ele>1008.9</ele>
        <time>2025-10-05T11:40:23Z</time>
      </trkpt>
      <trkpt lat="43.32872" lon="5.77462">
        <ele>1008.7</ele>
        <time>2025-10-05T11:40:24Z</time>
      </trkpt>
      <trkpt lat="43.32871" lon="5.77461">
        <ele>1008.4</ele>
        <time>2025-10-05T11:40:25Z</time>
      </trkpt>
      <trkpt lat="43.32871" lon="5.7746">
        <ele>1008.3</ele>
        <time>2025-10-05T11:40:26Z</time>
      </trkpt>
      <trkpt lat="43.3287" lon="5.7746">
        <ele>1008.2</ele>
        <time>2025-10-05T11:40:27Z</time>
      </trkpt>
      <trkpt lat="43.3287" lon="5.7746">
        <ele>1008</ele>
        <time>2025-10-05T11:40:28Z</time>
      </trkpt>
      <trkpt lat="43.32869" lon="5.77459">
        <ele>1007.8</ele>
        <time>2025-10-05T11:40:29Z</time>
      </trkpt>
      <trkpt lat="43.32869" lon="5.77458">
        <ele>1007.3</ele>
        <time>2025-10-05T11:40:30Z</time>
      </trkpt>
      <trkpt lat="43.32869" lon="5.77458">
        <ele>1007.1</ele>
        <time>2025-10-05T11:40:31Z</time>
      </trkpt>
      <trkpt lat="43.32869" lon="5.77457">
        <ele>1007</ele>
        <time>2025-10-05T11:40:32Z</time>
      </trkpt>
      <trkpt lat="43.32869" lon="5.77456">
        <ele>1006.9</ele>
        <time>2025-10-05T11:40:33Z</time>
      </trkpt>
      <trkpt lat="43.32869" lon="5.77454">
        <ele>1006.9</ele>
        <time>2025-10-05T11:40:34Z</time>
      </trkpt>
      <trkpt lat="43.32868" lon="5.77453">
        <ele>1006.8</ele>
        <time>2025-10-05T11:40:35Z</time>
      </trkpt>
      <trkpt lat="43.32868" lon="5.77452">
        <ele>1006.7</ele>
        <time>2025-10-05T11:40:36Z</time>
      </trkpt>
      <trkpt lat="43.32868" lon="5.77451">
        <ele>1006.6</ele>
        <time>2025-10-05T11:40:37Z</time>
      </trkpt>
      <trkpt lat="43.32867" lon="5.7745">
        <ele>1006.6</ele>
        <time>2025-10-05T11:40:38Z</time>
      </trkpt>
      <trkpt lat="43.32867" lon="5.77449">
        <ele>1006.6</ele>
        <time>2025-10-05T11:40:39Z</time>
      </trkpt>
      <trkpt lat="43.32866" lon="5.77449">
        <ele>1006.5</ele>
        <time>2025-10-05T11:40:40Z</time>
      </trkpt>
      <trkpt lat="43.32866" lon="5.77447">
        <ele>1006.5</ele>
        <time>2025-10-05T11:40:41Z</time>
      </trkpt>
      <trkpt lat="43.32866" lon="5.77446">
        <ele>1006.4</ele>
        <time>2025-10-05T11:40:42Z</time>
      </trkpt>
      <trkpt lat="43.32866" lon="5.77446">
        <ele>1006.4</ele>
        <time>2025-10-05T11:40:43Z</time>
      </trkpt>
      <trkpt lat="43.32866" lon="5.77446">
        <ele>1006.3</ele>
        <time>2025-10-05T11:40:44Z</time>
      </trkpt>
      <trkpt lat="43.32866" lon="5.77446">
        <ele>1006.7</ele>
        <time>2025-10-05T11:40:45Z</time>
      </trkpt>
      <trkpt lat="43.32865" lon="5.77446">
        <ele>1006.6</ele>
        <time>2025-10-05T11:40:46Z</time>
      </trkpt>
      <trkpt lat="43.32865" lon="5.77446">
        <ele>1006.4</ele>
        <time>2025-10-05T11:40:47Z</time>
      </trkpt>
      <trkpt lat="43.32865" lon="5.77445">
        <ele>1006.2</ele>
        <time>2025-10-05T11:40:48Z</time>
      </trkpt>
      <trkpt lat="43.32866" lon="5.77445">
        <ele>1006.2</ele>
        <time>2025-10-05T11:40:49Z</time>
      </trkpt>
      <trkpt lat="43.32866" lon="5.77444">
        <ele>1006</ele>
        <time>2025-10-05T11:40:50Z</time>
      </trkpt>
      <trkpt lat="43.32865" lon="5.77443">
        <ele>1005.8</ele>
        <time>2025-10-05T11:40:51Z</time>
      </trkpt>
      <trkpt lat="43.32865" lon="5.77443">
        <ele>1005.7</ele>
        <time>2025-10-05T11:40:52Z</time>
      </trkpt>
      <trkpt lat="43.32864" lon="5.77443">
        <ele>1005.4</ele>
        <time>2025-10-05T11:40:53Z</time>
      </trkpt>
      <trkpt lat="43.32863" lon="5.77443">
        <ele>1005.2</ele>
        <time>2025-10-05T11:40:54Z</time>
      </trkpt>
      <trkpt lat="43.32863" lon="5.77443">
        <ele>1005.1</ele>
        <time>2025-10-05T11:40:55Z</time>
      </trkpt>
      <trkpt lat="43.32863" lon="5.77444">
        <ele>1004.9</ele>
        <time>2025-10-05T11:40:56Z</time>
      </trkpt>
      <trkpt lat="43.32863" lon="5.77444">
        <ele>1004.8</ele>
        <time>2025-10-05T11:40:57Z</time>
      </trkpt>
      <trkpt lat="43.32863" lon="5.77444">
        <ele>1004.6</ele>
        <time>2025-10-05T11:40:58Z</time>
      </trkpt>
      <trkpt lat="43.32863" lon="5.77445">
        <ele>1004.5</ele>
        <time>2025-10-05T11:40:59Z</time>
      </trkpt>
      <trkpt lat="43.32862" lon="5.77445">
        <ele>1004.5</ele>
        <time>2025-10-05T11:41:00Z</time>
      </trkpt>
      <trkpt lat="43.32862" lon="5.77445">
        <ele>1004.4</ele>
        <time>2025-10-05T11:41:01Z</time>
      </trkpt>
      <trkpt lat="43.32862" lon="5.77445">
        <ele>1004.3</ele>
        <time>2025-10-05T11:41:02Z</time>
      </trkpt>
      <trkpt lat="43.32862" lon="5.77445">
        <ele>1004.2</ele>
        <time>2025-10-05T11:41:03Z</time>
      </trkpt>
      <trkpt lat="43.32862" lon="5.77445">
        <ele>1004.1</ele>
        <time>2025-10-05T11:41:04Z</time>
      </trkpt>
      <trkpt lat="43.32862" lon="5.77445">
        <ele>1004</ele>
        <time>2025-10-05T11:41:05Z</time>
      </trkpt>
      <trkpt lat="43.32861" lon="5.77444">
        <ele>1003.9</ele>
        <time>2025-10-05T11:41:06Z</time>
      </trkpt>
      <trkpt lat="43.32861" lon="5.77444">
        <ele>1003.7</ele>
        <time>2025-10-05T11:41:07Z</time>
      </trkpt>
      <trkpt lat="43.32861" lon="5.77443">
        <ele>1003.5</ele>
        <time>2025-10-05T11:41:08Z</time>
      </trkpt>
      <trkpt lat="43.32862" lon="5.77443">
        <ele>1003.4</ele>
        <time>2025-10-05T11:41:09Z</time>
      </trkpt>
      <trkpt lat="43.32862" lon="5.77443">
        <ele>1003.3</ele>
        <time>2025-10-05T11:41:10Z</time>
      </trkpt>
      <trkpt lat="43.32862" lon="5.77442">
        <ele>1003.1</ele>
        <time>2025-10-05T11:41:11Z</time>
      </trkpt>
      <trkpt lat="43.32862" lon="5.77442">
        <ele>1003</ele>
        <time>2025-10-05T11:41:12Z</time>
      </trkpt>
      <trkpt lat="43.32862" lon="5.77442">
        <ele>1002.8</ele>
        <time>2025-10-05T11:41:13Z</time>
      </trkpt>
      <trkpt lat="43.32862" lon="5.77442">
        <ele>1002.7</ele>
        <time>2025-10-05T11:41:14Z</time>
      </trkpt>
      <trkpt lat="43.32862" lon="5.77442">
        <ele>1002.6</ele>
        <time>2025-10-05T11:41:15Z</time>
      </trkpt>
      <trkpt lat="43.32862" lon="5.77442">
        <ele>1002.4</ele>
        <time>2025-10-05T11:41:16Z</time>
      </trkpt>
      <trkpt lat="43.32861" lon="5.77441">
        <ele>1002.2</ele>
        <time>2025-10-05T11:41:17Z</time>
      </trkpt>
      <trkpt lat="43.3286" lon="5.77441">
        <ele>1002.1</ele>
        <time>2025-10-05T11:41:18Z</time>
      </trkpt>
      <trkpt lat="43.3286" lon="5.77441">
        <ele>1001.9</ele>
        <time>2025-10-05T11:41:19Z</time>
      </trkpt>
      <trkpt lat="43.3286" lon="5.77442">
        <ele>1002</ele>
        <time>2025-10-05T11:41:20Z</time>
      </trkpt>
      <trkpt lat="43.32861" lon="5.77442">
        <ele>1001.9</ele>
        <time>2025-10-05T11:41:21Z</time>
      </trkpt>
      <trkpt lat="43.3286" lon="5.77442">
        <ele>1001.8</ele>
        <time>2025-10-05T11:41:22Z</time>
      </trkpt>
      <trkpt lat="43.32861" lon="5.77442">
        <ele>1001.8</ele>
        <time>2025-10-05T11:41:23Z</time>
      </trkpt>
      <trkpt lat="43.32861" lon="5.77442">
        <ele>1001.7</ele>
        <time>2025-10-05T11:41:24Z</time>
      </trkpt>
      <trkpt lat="43.32861" lon="5.77441">
        <ele>1001.6</ele>
        <time>2025-10-05T11:41:25Z</time>
      </trkpt>
      <trkpt lat="43.32861" lon="5.7744">
        <ele>1001.4</ele>
        <time>2025-10-05T11:41:26Z</time>
      </trkpt>
      <trkpt lat="43.32861" lon="5.77439">
        <ele>1001.2</ele>
        <time>2025-10-05T11:41:27Z</time>
      </trkpt>
      <trkpt lat="43.3286" lon="5.77438">
        <ele>1001.2</ele>
        <time>2025-10-05T11:41:28Z</time>
      </trkpt>
      <trkpt lat="43.3286" lon="5.77438">
        <ele>1001.1</ele>
        <time>2025-10-05T11:41:29Z</time>
      </trkpt>
      <trkpt lat="43.3286" lon="5.77437">
        <ele>1001.1</ele>
        <time>2025-10-05T11:41:30Z</time>
      </trkpt>
      <trkpt lat="43.32859" lon="5.77437">
        <ele>1001</ele>
        <time>2025-10-05T11:41:31Z</time>
      </trkpt>
      <trkpt lat="43.32859" lon="5.77437">
        <ele>1001</ele>
        <time>2025-10-05T11:41:32Z</time>
      </trkpt>
      <trkpt lat="43.32858" lon="5.77437">
        <ele>1000.9</ele>
        <time>2025-10-05T11:41:33Z</time>
      </trkpt>
      <trkpt lat="43.32857" lon="5.77437">
        <ele>1000.7</ele>
        <time>2025-10-05T11:41:34Z</time>
      </trkpt>
      <trkpt lat="43.32857" lon="5.77437">
        <ele>1000.5</ele>
        <time>2025-10-05T11:41:35Z</time>
      </trkpt>
      <trkpt lat="43.32856" lon="5.77436">
        <ele>1000.4</ele>
        <time>2025-10-05T11:41:36Z</time>
      </trkpt>
      <trkpt lat="43.32856" lon="5.77436">
        <ele>1000.1</ele>
        <time>2025-10-05T11:41:37Z</time>
      </trkpt>
      <trkpt lat="43.32855" lon="5.77436">
        <ele>999.7</ele>
        <time>2025-10-05T11:41:38Z</time>
      </trkpt>
      <trkpt lat="43.32855" lon="5.77436">
        <ele>999.5</ele>
        <time>2025-10-05T11:41:39Z</time>
      </trkpt>
      <trkpt lat="43.32855" lon="5.77436">
        <ele>999.2</ele>
        <time>2025-10-05T11:41:40Z</time>
      </trkpt>
      <trkpt lat="43.32854" lon="5.77435">
        <ele>998.9</ele>
        <time>2025-10-05T11:41:41Z</time>
      </trkpt>
      <trkpt lat="43.32853" lon="5.77435">
        <ele>998.6</ele>
        <time>2025-10-05T11:41:42Z</time>
      </trkpt>
      <trkpt lat="43.32853" lon="5.77435">
        <ele>998.2</ele>
        <time>2025-10-05T11:41:43Z</time>
      </trkpt>
      <trkpt lat="43.32853" lon="5.77434">
        <ele>998</ele>
        <time>2025-10-05T11:41:44Z</time>
      </trkpt>
      <trkpt lat="43.32852" lon="5.77434">
        <ele>997.6</ele>
        <time>2025-10-05T11:41:45Z</time>
      </trkpt>
      <trkpt lat="43.32852" lon="5.77433">
        <ele>997.7</ele>
        <time>2025-10-05T11:41:46Z</time>
      </trkpt>
      <trkpt lat="43.32852" lon="5.77432">
        <ele>997.4</ele>
        <time>2025-10-05T11:41:47Z</time>
      </trkpt>
      <trkpt lat="43.32852" lon="5.77431">
        <ele>996.8</ele>
        <time>2025-10-05T11:41:48Z</time>
      </trkpt>
      <trkpt lat="43.32852" lon="5.7743">
        <ele>996.1</ele>
        <time>2025-10-05T11:41:49Z</time>
      </trkpt>
      <trkpt lat="43.32851" lon="5.77429">
        <ele>995.8</ele>
        <time>2025-10-05T11:41:50Z</time>
      </trkpt>
      <trkpt lat="43.3285" lon="5.77428">
        <ele>995.1</ele>
        <time>2025-10-05T11:41:51Z</time>
      </trkpt>
      <trkpt lat="43.3285" lon="5.77428">
        <ele>995.5</ele>
        <time>2025-10-05T11:41:52Z</time>
      </trkpt>
      <trkpt lat="43.3285" lon="5.77428">
        <ele>996.2</ele>
        <time>2025-10-05T11:41:53Z</time>
      </trkpt>
      <trkpt lat="43.3285" lon="5.77428">
        <ele>996.4</ele>
        <time>2025-10-05T11:41:54Z</time>
      </trkpt>
      <trkpt lat="43.3285" lon="5.77428">
        <ele>996.5</ele>
        <time>2025-10-05T11:41:55Z</time>
      </trkpt>
      <trkpt lat="43.3285" lon="5.77428">
        <ele>996.6</ele>
        <time>2025-10-05T11:41:56Z</time>
      </trkpt>
      <trkpt lat="43.3285" lon="5.77428">
        <ele>996.3</ele>
        <time>2025-10-05T11:41:57Z</time>
      </trkpt>
      <trkpt lat="43.3285" lon="5.77427">
        <ele>996.1</ele>
        <time>2025-10-05T11:41:58Z</time>
      </trkpt>
      <trkpt lat="43.3285" lon="5.77427">
        <ele>995.6</ele>
        <time>2025-10-05T11:41:59Z</time>
      </trkpt>
      <trkpt lat="43.3285" lon="5.77427">
        <ele>995</ele>
        <time>2025-10-05T11:42:00Z</time>
      </trkpt>
      <trkpt lat="43.3285" lon="5.77427">
        <ele>994.7</ele>
        <time>2025-10-05T11:42:01Z</time>
      </trkpt>
      <trkpt lat="43.3285" lon="5.77427">
        <ele>994.4</ele>
        <time>2025-10-05T11:42:02Z</time>
      </trkpt>
      <trkpt lat="43.32849" lon="5.77427">
        <ele>993.8</ele>
        <time>2025-10-05T11:42:03Z</time>
      </trkpt>
      <trkpt lat="43.32849" lon="5.77427">
        <ele>993.8</ele>
        <time>2025-10-05T11:42:04Z</time>
      </trkpt>
      <trkpt lat="43.32849" lon="5.77427">
        <ele>993.7</ele>
        <time>2025-10-05T11:42:05Z</time>
      </trkpt>
      <trkpt lat="43.32849" lon="5.77427">
        <ele>993.6</ele>
        <time>2025-10-05T11:42:06Z</time>
      </trkpt>
      <trkpt lat="43.32849" lon="5.77427">
        <ele>993.6</ele>
        <time>2025-10-05T11:42:07Z</time>
      </trkpt>
      <trkpt lat="43.32849" lon="5.77427">
        <ele>993.4</ele>
        <time>2025-10-05T11:42:08Z</time>
      </trkpt>
      <trkpt lat="43.32849" lon="5.77427">
        <ele>994.2</ele>
        <time>2025-10-05T11:42:09Z</time>
      </trkpt>
      <trkpt lat="43.32849" lon="5.77426">
        <ele>994.7</ele>
        <time>2025-10-05T11:42:10Z</time>
      </trkpt>
      <trkpt lat="43.32849" lon="5.77426">
        <ele>994.9</ele>
        <time>2025-10-05T11:42:11Z</time>
      </trkpt>
      <trkpt lat="43.32849" lon="5.77426">
        <ele>995.1</ele>
        <time>2025-10-05T11:42:12Z</time>
      </trkpt>
      <trkpt lat="43.32849" lon="5.77426">
        <ele>995.3</ele>
        <time>2025-10-05T11:42:13Z</time>
      </trkpt>
      <trkpt lat="43.32849" lon="5.77426">
        <ele>995.9</ele>
        <time>2025-10-05T11:42:14Z</time>
      </trkpt>
      <trkpt lat="43.32849" lon="5.77425">
        <ele>995.1</ele>
        <time>2025-10-05T11:42:15Z</time>
      </trkpt>
      <trkpt lat="43.32849" lon="5.77425">
        <ele>994</ele>
        <time>2025-10-05T11:42:16Z</time>
      </trkpt>
      <trkpt lat="43.32848" lon="5.77424">
        <ele>993.6</ele>
        <time>2025-10-05T11:42:17Z</time>
      </trkpt>
      <trkpt lat="43.32848" lon="5.77424">
        <ele>993.5</ele>
        <time>2025-10-05T11:42:18Z</time>
      </trkpt>
      <trkpt lat="43.32847" lon="5.77423">
        <ele>992.9</ele>
        <time>2025-10-05T11:42:19Z</time>
      </trkpt>
      <trkpt lat="43.32847" lon="5.77423">
        <ele>992.7</ele>
        <time>2025-10-05T11:42:20Z</time>
      </trkpt>
      <trkpt lat="43.32846" lon="5.77422">
        <ele>992.5</ele>
        <time>2025-10-05T11:42:21Z</time>
      </trkpt>
      <trkpt lat="43.32846" lon="5.77422">
        <ele>992.9</ele>
        <time>2025-10-05T11:42:22Z</time>
      </trkpt>
      <trkpt lat="43.32846" lon="5.77422">
        <ele>993.3</ele>
        <time>2025-10-05T11:42:23Z</time>
      </trkpt>
      <trkpt lat="43.32845" lon="5.77422">
        <ele>993.3</ele>
        <time>2025-10-05T11:42:24Z</time>
      </trkpt>
      <trkpt lat="43.32845" lon="5.77422">
        <ele>993.6</ele>
        <time>2025-10-05T11:42:25Z</time>
      </trkpt>
      <trkpt lat="43.32845" lon="5.77422">
        <ele>993.8</ele>
        <time>2025-10-05T11:42:26Z</time>
      </trkpt>
      <trkpt lat="43.32845" lon="5.77422">
        <ele>994.1</ele>
        <time>2025-10-05T11:42:27Z</time>
      </trkpt>
      <trkpt lat="43.32845" lon="5.77422">
        <ele>994.5</ele>
        <time>2025-10-05T11:42:28Z</time>
      </trkpt>
      <trkpt lat="43.32845" lon="5.77421">
        <ele>994.3</ele>
        <time>2025-10-05T11:42:29Z</time>
      </trkpt>
      <trkpt lat="43.32845" lon="5.77421">
        <ele>994.1</ele>
        <time>2025-10-05T11:42:30Z</time>
      </trkpt>
      <trkpt lat="43.32844" lon="5.7742">
        <ele>993.7</ele>
        <time>2025-10-05T11:42:31Z</time>
      </trkpt>
      <trkpt lat="43.32844" lon="5.7742">
        <ele>993.4</ele>
        <time>2025-10-05T11:42:32Z</time>
      </trkpt>
      <trkpt lat="43.32843" lon="5.77419">
        <ele>993.2</ele>
        <time>2025-10-05T11:42:33Z</time>
      </trkpt>
      <trkpt lat="43.32843" lon="5.77419">
        <ele>992.8</ele>
        <time>2025-10-05T11:42:34Z</time>
      </trkpt>
      <trkpt lat="43.32842" lon="5.77418">
        <ele>992.5</ele>
        <time>2025-10-05T11:42:35Z</time>
      </trkpt>
      <trkpt lat="43.32841" lon="5.77417">
        <ele>992.3</ele>
        <time>2025-10-05T11:42:36Z</time>
      </trkpt>
      <trkpt lat="43.32841" lon="5.77416">
        <ele>992</ele>
        <time>2025-10-05T11:42:37Z</time>
      </trkpt>
      <trkpt lat="43.3284" lon="5.77416">
        <ele>991.8</ele>
        <time>2025-10-05T11:42:38Z</time>
      </trkpt>
      <trkpt lat="43.3284" lon="5.77415">
        <ele>991.7</ele>
        <time>2025-10-05T11:42:39Z</time>
      </trkpt>
      <trkpt lat="43.32839" lon="5.77414">
        <ele>991.6</ele>
        <time>2025-10-05T11:42:40Z</time>
      </trkpt>
      <trkpt lat="43.32839" lon="5.77414">
        <ele>991.4</ele>
        <time>2025-10-05T11:42:41Z</time>
      </trkpt>
      <trkpt lat="43.32838" lon="5.77412">
        <ele>991.4</ele>
        <time>2025-10-05T11:42:42Z</time>
      </trkpt>
      <trkpt lat="43.32838" lon="5.77411">
        <ele>991.1</ele>
        <time>2025-10-05T11:42:43Z</time>
      </trkpt>
      <trkpt lat="43.32837" lon="5.77411">
        <ele>991</ele>
        <time>2025-10-05T11:42:44Z</time>
      </trkpt>
      <trkpt lat="43.32837" lon="5.77411">
        <ele>991</ele>
        <time>2025-10-05T11:42:45Z</time>
      </trkpt>
      <trkpt lat="43.32836" lon="5.7741">
        <ele>991</ele>
        <time>2025-10-05T11:42:46Z</time>
      </trkpt>
      <trkpt lat="43.32835" lon="5.7741">
        <ele>990.8</ele>
        <time>2025-10-05T11:42:47Z</time>
      </trkpt>
      <trkpt lat="43.32835" lon="5.77409">
        <ele>990.7</ele>
        <time>2025-10-05T11:42:48Z</time>
      </trkpt>
      <trkpt lat="43.32834" lon="5.77408">
        <ele>990.6</ele>
        <time>2025-10-05T11:42:49Z</time>
      </trkpt>
      <trkpt lat="43.32834" lon="5.77407">
        <ele>990.6</ele>
        <time>2025-10-05T11:42:50Z</time>
      </trkpt>
      <trkpt lat="43.32833" lon="5.77406">
        <ele>990.4</ele>
        <time>2025-10-05T11:42:51Z</time>
      </trkpt>
      <trkpt lat="43.32832" lon="5.77405">
        <ele>990.1</ele>
        <time>2025-10-05T11:42:52Z</time>
      </trkpt>
      <trkpt lat="43.32832" lon="5.77405">
        <ele>990.2</ele>
        <time>2025-10-05T11:42:53Z</time>
      </trkpt>
      <trkpt lat="43.32831" lon="5.77404">
        <ele>990.4</ele>
        <time>2025-10-05T11:42:54Z</time>
      </trkpt>
      <trkpt lat="43.3283" lon="5.77404">
        <ele>990.4</ele>
        <time>2025-10-05T11:42:55Z</time>
      </trkpt>
      <trkpt lat="43.3283" lon="5.77404">
        <ele>990.4</ele>
        <time>2025-10-05T11:42:56Z</time>
      </trkpt>
      <trkpt lat="43.32829" lon="5.77404">
        <ele>990.2</ele>
        <time>2025-10-05T11:42:57Z</time>
      </trkpt>
      <trkpt lat="43.32829" lon="5.77404">
        <ele>990.1</ele>
        <time>2025-10-05T11:42:58Z</time>
      </trkpt>
      <trkpt lat="43.32829" lon="5.77403">
        <ele>990.4</ele>
        <time>2025-10-05T11:42:59Z</time>
      </trkpt>
      <trkpt lat="43.32828" lon="5.77402">
        <ele>990.5</ele>
        <time>2025-10-05T11:43:00Z</time>
      </trkpt>
      <trkpt lat="43.32828" lon="5.77401">
        <ele>990.5</ele>
        <time>2025-10-05T11:43:01Z</time>
      </trkpt>
      <trkpt lat="43.32828" lon="5.774">
        <ele>990.4</ele>
        <time>2025-10-05T11:43:02Z</time>
      </trkpt>
      <trkpt lat="43.32827" lon="5.774">
        <ele>990.4</ele>
        <time>2025-10-05T11:43:03Z</time>
      </trkpt>
      <trkpt lat="43.32827" lon="5.774">
        <ele>990.4</ele>
        <time>2025-10-05T11:43:04Z</time>
      </trkpt>
      <trkpt lat="43.32826" lon="5.774">
        <ele>990.3</ele>
        <time>2025-10-05T11:43:05Z</time>
      </trkpt>
      <trkpt lat="43.32825" lon="5.774">
        <ele>990.2</ele>
        <time>2025-10-05T11:43:06Z</time>
      </trkpt>
      <trkpt lat="43.32824" lon="5.774">
        <ele>990.1</ele>
        <time>2025-10-05T11:43:07Z</time>
      </trkpt>
      <trkpt lat="43.32823" lon="5.77399">
        <ele>990</ele>
        <time>2025-10-05T11:43:08Z</time>
      </trkpt>
      <trkpt lat="43.32822" lon="5.77399">
        <ele>989.9</ele>
        <time>2025-10-05T11:43:09Z</time>
      </trkpt>
      <trkpt lat="43.3282" lon="5.77399">
        <ele>989.9</ele>
        <time>2025-10-05T11:43:10Z</time>
      </trkpt>
      <trkpt lat="43.32819" lon="5.77398">
        <ele>989.7</ele>
        <time>2025-10-05T11:43:11Z</time>
      </trkpt>
      <trkpt lat="43.32819" lon="5.77398">
        <ele>989.5</ele>
        <time>2025-10-05T11:43:12Z</time>
      </trkpt>
      <trkpt lat="43.32819" lon="5.77396">
        <ele>989.4</ele>
        <time>2025-10-05T11:43:13Z</time>
      </trkpt>
      <trkpt lat="43.32818" lon="5.77395">
        <ele>989.3</ele>
        <time>2025-10-05T11:43:14Z</time>
      </trkpt>
      <trkpt lat="43.32818" lon="5.77393">
        <ele>989.3</ele>
        <time>2025-10-05T11:43:15Z</time>
      </trkpt>
      <trkpt lat="43.32818" lon="5.77392">
        <ele>989.4</ele>
        <time>2025-10-05T11:43:16Z</time>
      </trkpt>
      <trkpt lat="43.32817" lon="5.77391">
        <ele>989</ele>
        <time>2025-10-05T11:43:17Z</time>
      </trkpt>
      <trkpt lat="43.32817" lon="5.7739">
        <ele>989.7</ele>
        <time>2025-10-05T11:43:18Z</time>
      </trkpt>
      <trkpt lat="43.32817" lon="5.7739">
        <ele>990.5</ele>
        <time>2025-10-05T11:43:19Z</time>
      </trkpt>
      <trkpt lat="43.32817" lon="5.77389">
        <ele>990.9</ele>
        <time>2025-10-05T11:43:20Z</time>
      </trkpt>
      <trkpt lat="43.32817" lon="5.77388">
        <ele>990.9</ele>
        <time>2025-10-05T11:43:21Z</time>
      </trkpt>
      <trkpt lat="43.32817" lon="5.77387">
        <ele>991.1</ele>
        <time>2025-10-05T11:43:22Z</time>
      </trkpt>
      <trkpt lat="43.32817" lon="5.77386">
        <ele>991.2</ele>
        <time>2025-10-05T11:43:23Z</time>
      </trkpt>
      <trkpt lat="43.32817" lon="5.77384">
        <ele>991.1</ele>
        <time>2025-10-05T11:43:24Z</time>
      </trkpt>
      <trkpt lat="43.32817" lon="5.77382">
        <ele>991.2</ele>
        <time>2025-10-05T11:43:25Z</time>
      </trkpt>
      <trkpt lat="43.32817" lon="5.77381">
        <ele>991.2</ele>
        <time>2025-10-05T11:43:26Z</time>
      </trkpt>
      <trkpt lat="43.32818" lon="5.77379">
        <ele>991.2</ele>
        <time>2025-10-05T11:43:27Z</time>
      </trkpt>
      <trkpt lat="43.32818" lon="5.77378">
        <ele>991.4</ele>
        <time>2025-10-05T11:43:28Z</time>
      </trkpt>
      <trkpt lat="43.32818" lon="5.77376">
        <ele>991.2</ele>
        <time>2025-10-05T11:43:29Z</time>
      </trkpt>
      <trkpt lat="43.32818" lon="5.77375">
        <ele>991.9</ele>
        <time>2025-10-05T11:43:30Z</time>
      </trkpt>
      <trkpt lat="43.32818" lon="5.77374">
        <ele>992</ele>
        <time>2025-10-05T11:43:31Z</time>
      </trkpt>
      <trkpt lat="43.32819" lon="5.77373">
        <ele>992.2</ele>
        <time>2025-10-05T11:43:32Z</time>
      </trkpt>
      <trkpt lat="43.32819" lon="5.77372">
        <ele>992.3</ele>
        <time>2025-10-05T11:43:33Z</time>
      </trkpt>
      <trkpt lat="43.32819" lon="5.77371">
        <ele>993</ele>
        <time>2025-10-05T11:43:34Z</time>
      </trkpt>
      <trkpt lat="43.32818" lon="5.7737">
        <ele>993.5</ele>
        <time>2025-10-05T11:43:35Z</time>
      </trkpt>
      <trkpt lat="43.32818" lon="5.77369">
        <ele>993.2</ele>
        <time>2025-10-05T11:43:36Z</time>
      </trkpt>
      <trkpt lat="43.32817" lon="5.77368">
        <ele>993.2</ele>
        <time>2025-10-05T11:43:37Z</time>
      </trkpt>
      <trkpt lat="43.32817" lon="5.77367">
        <ele>993.3</ele>
        <time>2025-10-05T11:43:38Z</time>
      </trkpt>
      <trkpt lat="43.32816" lon="5.77367">
        <ele>993.1</ele>
        <time>2025-10-05T11:43:39Z</time>
      </trkpt>
      <trkpt lat="43.32816" lon="5.77367">
        <ele>993.8</ele>
        <time>2025-10-05T11:43:40Z</time>
      </trkpt>
      <trkpt lat="43.32816" lon="5.77367">
        <ele>994.2</ele>
        <time>2025-10-05T11:43:41Z</time>
      </trkpt>
      <trkpt lat="43.32816" lon="5.77366">
        <ele>993.9</ele>
        <time>2025-10-05T11:43:42Z</time>
      </trkpt>
      <trkpt lat="43.32816" lon="5.77366">
        <ele>993.7</ele>
        <time>2025-10-05T11:43:43Z</time>
      </trkpt>
      <trkpt lat="43.32815" lon="5.77365">
        <ele>993.4</ele>
        <time>2025-10-05T11:43:44Z</time>
      </trkpt>
      <trkpt lat="43.32815" lon="5.77364">
        <ele>993.2</ele>
        <time>2025-10-05T11:43:45Z</time>
      </trkpt>
      <trkpt lat="43.32815" lon="5.77364">
        <ele>993.5</ele>
        <time>2025-10-05T11:43:46Z</time>
      </trkpt>
      <trkpt lat="43.32815" lon="5.77364">
        <ele>994</ele>
        <time>2025-10-05T11:43:47Z</time>
      </trkpt>
      <trkpt lat="43.32815" lon="5.77363">
        <ele>994.4</ele>
        <time>2025-10-05T11:43:48Z</time>
      </trkpt>
      <trkpt lat="43.32815" lon="5.77361">
        <ele>994.2</ele>
        <time>2025-10-05T11:43:49Z</time>
      </trkpt>
      <trkpt lat="43.32814" lon="5.7736">
        <ele>994</ele>
        <time>2025-10-05T11:43:50Z</time>
      </trkpt>
      <trkpt lat="43.32813" lon="5.77359">
        <ele>994.3</ele>
        <time>2025-10-05T11:43:51Z</time>
      </trkpt>
      <trkpt lat="43.32813" lon="5.77358">
        <ele>994.3</ele>
        <time>2025-10-05T11:43:52Z</time>
      </trkpt>
      <trkpt lat="43.32812" lon="5.77357">
        <ele>993.9</ele>
        <time>2025-10-05T11:43:53Z</time>
      </trkpt>
      <trkpt lat="43.32812" lon="5.77356">
        <ele>993.6</ele>
        <time>2025-10-05T11:43:54Z</time>
      </trkpt>
      <trkpt lat="43.32811" lon="5.77355">
        <ele>993.1</ele>
        <time>2025-10-05T11:43:55Z</time>
      </trkpt>
      <trkpt lat="43.3281" lon="5.77353">
        <ele>993.2</ele>
        <time>2025-10-05T11:43:56Z</time>
      </trkpt>
      <trkpt lat="43.3281" lon="5.77352">
        <ele>992.9</ele>
        <time>2025-10-05T11:43:57Z</time>
      </trkpt>
      <trkpt lat="43.32809" lon="5.7735">
        <ele>993</ele>
        <time>2025-10-05T11:43:58Z</time>
      </trkpt>
      <trkpt lat="43.32809" lon="5.77349">
        <ele>992.8</ele>
        <time>2025-10-05T11:43:59Z</time>
      </trkpt>
      <trkpt lat="43.32808" lon="5.77348">
        <ele>992.5</ele>
        <time>2025-10-05T11:44:00Z</time>
      </trkpt>
      <trkpt lat="43.32807" lon="5.77346">
        <ele>992.4</ele>
        <time>2025-10-05T11:44:01Z</time>
      </trkpt>
      <trkpt lat="43.32807" lon="5.77345">
        <ele>992.3</ele>
        <time>2025-10-05T11:44:02Z</time>
      </trkpt>
      <trkpt lat="43.32806" lon="5.77344">
        <ele>992.1</ele>
        <time>2025-10-05T11:44:03Z</time>
      </trkpt>
      <trkpt lat="43.32806" lon="5.77343">
        <ele>992.1</ele>
        <time>2025-10-05T11:44:04Z</time>
      </trkpt>
      <trkpt lat="43.32805" lon="5.77341">
        <ele>991.9</ele>
        <time>2025-10-05T11:44:05Z</time>
      </trkpt>
      <trkpt lat="43.32805" lon="5.7734">
        <ele>991.8</ele>
        <time>2025-10-05T11:44:06Z</time>
      </trkpt>
      <trkpt lat="43.32804" lon="5.77338">
        <ele>991.5</ele>
        <time>2025-10-05T11:44:07Z</time>
      </trkpt>
      <trkpt lat="43.32803" lon="5.77337">
        <ele>991.5</ele>
        <time>2025-10-05T11:44:08Z</time>
      </trkpt>
      <trkpt lat="43.32802" lon="5.77336">
        <ele>991.5</ele>
        <time>2025-10-05T11:44:09Z</time>
      </trkpt>
      <trkpt lat="43.32802" lon="5.77334">
        <ele>991.2</ele>
        <time>2025-10-05T11:44:10Z</time>
      </trkpt>
      <trkpt lat="43.32801" lon="5.77334">
        <ele>991.1</ele>
        <time>2025-10-05T11:44:11Z</time>
      </trkpt>
      <trkpt lat="43.328" lon="5.77334">
        <ele>990.9</ele>
        <time>2025-10-05T11:44:12Z</time>
      </trkpt>
      <trkpt lat="43.328" lon="5.77333">
        <ele>990.7</ele>
        <time>2025-10-05T11:44:13Z</time>
      </trkpt>
      <trkpt lat="43.32799" lon="5.77331">
        <ele>990.5</ele>
        <time>2025-10-05T11:44:14Z</time>
      </trkpt>
      <trkpt lat="43.32798" lon="5.7733">
        <ele>990.4</ele>
        <time>2025-10-05T11:44:15Z</time>
      </trkpt>
      <trkpt lat="43.32798" lon="5.77329">
        <ele>990.2</ele>
        <time>2025-10-05T11:44:16Z</time>
      </trkpt>
      <trkpt lat="43.32797" lon="5.77329">
        <ele>990.2</ele>
        <time>2025-10-05T11:44:17Z</time>
      </trkpt>
      <trkpt lat="43.32797" lon="5.77328">
        <ele>990</ele>
        <time>2025-10-05T11:44:18Z</time>
      </trkpt>
      <trkpt lat="43.32797" lon="5.77327">
        <ele>989.8</ele>
        <time>2025-10-05T11:44:19Z</time>
      </trkpt>
      <trkpt lat="43.32796" lon="5.77326">
        <ele>989.6</ele>
        <time>2025-10-05T11:44:20Z</time>
      </trkpt>
      <trkpt lat="43.32796" lon="5.77325">
        <ele>989.3</ele>
        <time>2025-10-05T11:44:21Z</time>
      </trkpt>
      <trkpt lat="43.32795" lon="5.77324">
        <ele>989.3</ele>
        <time>2025-10-05T11:44:22Z</time>
      </trkpt>
      <trkpt lat="43.32794" lon="5.77323">
        <ele>989.1</ele>
        <time>2025-10-05T11:44:23Z</time>
      </trkpt>
      <trkpt lat="43.32794" lon="5.77322">
        <ele>988.9</ele>
        <time>2025-10-05T11:44:24Z</time>
      </trkpt>
      <trkpt lat="43.32793" lon="5.77321">
        <ele>988.8</ele>
        <time>2025-10-05T11:44:25Z</time>
      </trkpt>
      <trkpt lat="43.32793" lon="5.77319">
        <ele>988.5</ele>
        <time>2025-10-05T11:44:26Z</time>
      </trkpt>
      <trkpt lat="43.32792" lon="5.77319">
        <ele>988.4</ele>
        <time>2025-10-05T11:44:27Z</time>
      </trkpt>
      <trkpt lat="43.32791" lon="5.77319">
        <ele>988</ele>
        <time>2025-10-05T11:44:28Z</time>
      </trkpt>
      <trkpt lat="43.3279" lon="5.77319">
        <ele>987.6</ele>
        <time>2025-10-05T11:44:29Z</time>
      </trkpt>
      <trkpt lat="43.3279" lon="5.77319">
        <ele>987.4</ele>
        <time>2025-10-05T11:44:30Z</time>
      </trkpt>
      <trkpt lat="43.32789" lon="5.77319">
        <ele>987.1</ele>
        <time>2025-10-05T11:44:31Z</time>
      </trkpt>
      <trkpt lat="43.32789" lon="5.7732">
        <ele>987</ele>
        <time>2025-10-05T11:44:32Z</time>
      </trkpt>
      <trkpt lat="43.32789" lon="5.7732">
        <ele>986.6</ele>
        <time>2025-10-05T11:44:33Z</time>
      </trkpt>
      <trkpt lat="43.32789" lon="5.7732">
        <ele>986.6</ele>
        <time>2025-10-05T11:44:34Z</time>
      </trkpt>
      <trkpt lat="43.32789" lon="5.7732">
        <ele>986.5</ele>
        <time>2025-10-05T11:44:35Z</time>
      </trkpt>
      <trkpt lat="43.3279" lon="5.77319">
        <ele>986.5</ele>
        <time>2025-10-05T11:44:36Z</time>
      </trkpt>
      <trkpt lat="43.3279" lon="5.77318">
        <ele>986.5</ele>
        <time>2025-10-05T11:44:37Z</time>
      </trkpt>
      <trkpt lat="43.32789" lon="5.77317">
        <ele>986.6</ele>
        <time>2025-10-05T11:44:38Z</time>
      </trkpt>
      <trkpt lat="43.32789" lon="5.77316">
        <ele>986.6</ele>
        <time>2025-10-05T11:44:39Z</time>
      </trkpt>
      <trkpt lat="43.32789" lon="5.77316">
        <ele>986.7</ele>
        <time>2025-10-05T11:44:40Z</time>
      </trkpt>
      <trkpt lat="43.32789" lon="5.77316">
        <ele>986.8</ele>
        <time>2025-10-05T11:44:41Z</time>
      </trkpt>
      <trkpt lat="43.32789" lon="5.77316">
        <ele>986.8</ele>
        <time>2025-10-05T11:44:42Z</time>
      </trkpt>
      <trkpt lat="43.32788" lon="5.77315">
        <ele>986.6</ele>
        <time>2025-10-05T11:44:43Z</time>
      </trkpt>
      <trkpt lat="43.32788" lon="5.77314">
        <ele>986.5</ele>
        <time>2025-10-05T11:44:44Z</time>
      </trkpt>
      <trkpt lat="43.32787" lon="5.77313">
        <ele>986.3</ele>
        <time>2025-10-05T11:44:45Z</time>
      </trkpt>
      <trkpt lat="43.32787" lon="5.77313">
        <ele>986.3</ele>
        <time>2025-10-05T11:44:46Z</time>
      </trkpt>
      <trkpt lat="43.32786" lon="5.77312">
        <ele>986.3</ele>
        <time>2025-10-05T11:44:47Z</time>
      </trkpt>
      <trkpt lat="43.32786" lon="5.77311">
        <ele>986.1</ele>
        <time>2025-10-05T11:44:48Z</time>
      </trkpt>
      <trkpt lat="43.32786" lon="5.7731">
        <ele>986</ele>
        <time>2025-10-05T11:44:49Z</time>
      </trkpt>
      <trkpt lat="43.32786" lon="5.77309">
        <ele>985.9</ele>
        <time>2025-10-05T11:44:50Z</time>
      </trkpt>
      <trkpt lat="43.32786" lon="5.77309">
        <ele>985.8</ele>
        <time>2025-10-05T11:44:51Z</time>
      </trkpt>
      <trkpt lat="43.32785" lon="5.77308">
        <ele>985.6</ele>
        <time>2025-10-05T11:44:52Z</time>
      </trkpt>
      <trkpt lat="43.32785" lon="5.77308">
        <ele>985.4</ele>
        <time>2025-10-05T11:44:53Z</time>
      </trkpt>
      <trkpt lat="43.32785" lon="5.77307">
        <ele>985.3</ele>
        <time>2025-10-05T11:44:54Z</time>
      </trkpt>
      <trkpt lat="43.32785" lon="5.77307">
        <ele>985.3</ele>
        <time>2025-10-05T11:44:55Z</time>
      </trkpt>
      <trkpt lat="43.32785" lon="5.77306">
        <ele>985.1</ele>
        <time>2025-10-05T11:44:56Z</time>
      </trkpt>
      <trkpt lat="43.32784" lon="5.77306">
        <ele>984.9</ele>
        <time>2025-10-05T11:44:57Z</time>
      </trkpt>
      <trkpt lat="43.32784" lon="5.77305">
        <ele>984.9</ele>
        <time>2025-10-05T11:44:58Z</time>
      </trkpt>
      <trkpt lat="43.32783" lon="5.77305">
        <ele>984.7</ele>
        <time>2025-10-05T11:44:59Z</time>
      </trkpt>
      <trkpt lat="43.32782" lon="5.77305">
        <ele>984.6</ele>
        <time>2025-10-05T11:45:00Z</time>
      </trkpt>
      <trkpt lat="43.32782" lon="5.77304">
        <ele>984.4</ele>
        <time>2025-10-05T11:45:01Z</time>
      </trkpt>
      <trkpt lat="43.32781" lon="5.77302">
        <ele>984.2</ele>
        <time>2025-10-05T11:45:02Z</time>
      </trkpt>
      <trkpt lat="43.32781" lon="5.77302">
        <ele>984.1</ele>
        <time>2025-10-05T11:45:03Z</time>
      </trkpt>
      <trkpt lat="43.32781" lon="5.77301">
        <ele>983.9</ele>
        <time>2025-10-05T11:45:04Z</time>
      </trkpt>
      <trkpt lat="43.32781" lon="5.773">
        <ele>983.6</ele>
        <time>2025-10-05T11:45:05Z</time>
      </trkpt>
      <trkpt lat="43.3278" lon="5.77298">
        <ele>983.5</ele>
        <time>2025-10-05T11:45:06Z</time>
      </trkpt>
      <trkpt lat="43.3278" lon="5.77297">
        <ele>983.4</ele>
        <time>2025-10-05T11:45:07Z</time>
      </trkpt>
      <trkpt lat="43.32779" lon="5.77297">
        <ele>983.2</ele>
        <time>2025-10-05T11:45:08Z</time>
      </trkpt>
      <trkpt lat="43.32779" lon="5.77296">
        <ele>983.1</ele>
        <time>2025-10-05T11:45:09Z</time>
      </trkpt>
      <trkpt lat="43.32778" lon="5.77295">
        <ele>983.1</ele>
        <time>2025-10-05T11:45:10Z</time>
      </trkpt>
      <trkpt lat="43.32778" lon="5.77294">
        <ele>983.1</ele>
        <time>2025-10-05T11:45:11Z</time>
      </trkpt>
      <trkpt lat="43.32777" lon="5.77293">
        <ele>983</ele>
        <time>2025-10-05T11:45:12Z</time>
      </trkpt>
      <trkpt lat="43.32777" lon="5.77292">
        <ele>982.9</ele>
        <time>2025-10-05T11:45:13Z</time>
      </trkpt>
      <trkpt lat="43.32777" lon="5.77292">
        <ele>982.7</ele>
        <time>2025-10-05T11:45:14Z</time>
      </trkpt>
      <trkpt lat="43.32777" lon="5.77291">
        <ele>982.4</ele>
        <time>2025-10-05T11:45:15Z</time>
      </trkpt>
      <trkpt lat="43.32777" lon="5.7729">
        <ele>982.1</ele>
        <time>2025-10-05T11:45:16Z</time>
      </trkpt>
      <trkpt lat="43.32776" lon="5.77289">
        <ele>981.8</ele>
        <time>2025-10-05T11:45:17Z</time>
      </trkpt>
      <trkpt lat="43.32776" lon="5.77288">
        <ele>981.6</ele>
        <time>2025-10-05T11:45:18Z</time>
      </trkpt>
      <trkpt lat="43.32776" lon="5.77287">
        <ele>981.4</ele>
        <time>2025-10-05T11:45:19Z</time>
      </trkpt>
      <trkpt lat="43.32776" lon="5.77286">
        <ele>981.4</ele>
        <time>2025-10-05T11:45:20Z</time>
      </trkpt>
      <trkpt lat="43.32776" lon="5.77285">
        <ele>981.3</ele>
        <time>2025-10-05T11:45:21Z</time>
      </trkpt>
      <trkpt lat="43.32776" lon="5.77285">
        <ele>981.3</ele>
        <time>2025-10-05T11:45:22Z</time>
      </trkpt>
      <trkpt lat="43.32775" lon="5.77284">
        <ele>981.1</ele>
        <time>2025-10-05T11:45:23Z</time>
      </trkpt>
      <trkpt lat="43.32774" lon="5.77283">
        <ele>981</ele>
        <time>2025-10-05T11:45:24Z</time>
      </trkpt>
      <trkpt lat="43.32774" lon="5.77282">
        <ele>980.7</ele>
        <time>2025-10-05T11:45:25Z</time>
      </trkpt>
      <trkpt lat="43.32774" lon="5.77281">
        <ele>980.5</ele>
        <time>2025-10-05T11:45:26Z</time>
      </trkpt>
      <trkpt lat="43.32773" lon="5.77279">
        <ele>980.3</ele>
        <time>2025-10-05T11:45:27Z</time>
      </trkpt>
      <trkpt lat="43.32773" lon="5.77278">
        <ele>980.2</ele>
        <time>2025-10-05T11:45:28Z</time>
      </trkpt>
      <trkpt lat="43.32772" lon="5.77277">
        <ele>980.2</ele>
        <time>2025-10-05T11:45:29Z</time>
      </trkpt>
      <trkpt lat="43.32772" lon="5.77276">
        <ele>980.2</ele>
        <time>2025-10-05T11:45:30Z</time>
      </trkpt>
      <trkpt lat="43.32771" lon="5.77275">
        <ele>980.1</ele>
        <time>2025-10-05T11:45:31Z</time>
      </trkpt>
      <trkpt lat="43.32771" lon="5.77275">
        <ele>980.1</ele>
        <time>2025-10-05T11:45:32Z</time>
      </trkpt>
      <trkpt lat="43.3277" lon="5.77274">
        <ele>980</ele>
        <time>2025-10-05T11:45:33Z</time>
      </trkpt>
      <trkpt lat="43.3277" lon="5.77274">
        <ele>980</ele>
        <time>2025-10-05T11:45:34Z</time>
      </trkpt>
      <trkpt lat="43.32769" lon="5.77273">
        <ele>979.9</ele>
        <time>2025-10-05T11:45:35Z</time>
      </trkpt>
      <trkpt lat="43.32769" lon="5.77271">
        <ele>979.7</ele>
        <time>2025-10-05T11:45:36Z</time>
      </trkpt>
      <trkpt lat="43.32769" lon="5.7727">
        <ele>979.6</ele>
        <time>2025-10-05T11:45:37Z</time>
      </trkpt>
      <trkpt lat="43.32769" lon="5.77269">
        <ele>979.5</ele>
        <time>2025-10-05T11:45:38Z</time>
      </trkpt>
      <trkpt lat="43.3277" lon="5.77267">
        <ele>979.4</ele>
        <time>2025-10-05T11:45:39Z</time>
      </trkpt>
      <trkpt lat="43.3277" lon="5.77266">
        <ele>979.3</ele>
        <time>2025-10-05T11:45:40Z</time>
      </trkpt>
      <trkpt lat="43.3277" lon="5.77264">
        <ele>979.2</ele>
        <time>2025-10-05T11:45:41Z</time>
      </trkpt>
      <trkpt lat="43.32769" lon="5.77263">
        <ele>979.1</ele>
        <time>2025-10-05T11:45:42Z</time>
      </trkpt>
      <trkpt lat="43.32769" lon="5.77262">
        <ele>979</ele>
        <time>2025-10-05T11:45:43Z</time>
      </trkpt>
      <trkpt lat="43.32769" lon="5.7726">
        <ele>978.8</ele>
        <time>2025-10-05T11:45:44Z</time>
      </trkpt>
      <trkpt lat="43.32768" lon="5.77259">
        <ele>978.9</ele>
        <time>2025-10-05T11:45:45Z</time>
      </trkpt>
      <trkpt lat="43.32768" lon="5.77258">
        <ele>979.1</ele>
        <time>2025-10-05T11:45:46Z</time>
      </trkpt>
      <trkpt lat="43.32769" lon="5.77257">
        <ele>979</ele>
        <time>2025-10-05T11:45:47Z</time>
      </trkpt>
      <trkpt lat="43.32769" lon="5.77256">
        <ele>979</ele>
        <time>2025-10-05T11:45:48Z</time>
      </trkpt>
      <trkpt lat="43.32769" lon="5.77254">
        <ele>979</ele>
        <time>2025-10-05T11:45:49Z</time>
      </trkpt>
      <trkpt lat="43.32769" lon="5.77253">
        <ele>979</ele>
        <time>2025-10-05T11:45:50Z</time>
      </trkpt>
      <trkpt lat="43.3277" lon="5.77252">
        <ele>979</ele>
        <time>2025-10-05T11:45:51Z</time>
      </trkpt>
      <trkpt lat="43.3277" lon="5.77251">
        <ele>979.3</ele>
        <time>2025-10-05T11:45:52Z</time>
      </trkpt>
      <trkpt lat="43.3277" lon="5.7725">
        <ele>979.1</ele>
        <time>2025-10-05T11:45:53Z</time>
      </trkpt>
      <trkpt lat="43.3277" lon="5.77249">
        <ele>979.1</ele>
        <time>2025-10-05T11:45:54Z</time>
      </trkpt>
      <trkpt lat="43.3277" lon="5.77247">
        <ele>978.9</ele>
        <time>2025-10-05T11:45:55Z</time>
      </trkpt>
      <trkpt lat="43.32769" lon="5.77246">
        <ele>978.5</ele>
        <time>2025-10-05T11:45:56Z</time>
      </trkpt>
      <trkpt lat="43.32769" lon="5.77244">
        <ele>978.5</ele>
        <time>2025-10-05T11:45:57Z</time>
      </trkpt>
      <trkpt lat="43.32769" lon="5.77243">
        <ele>978.9</ele>
        <time>2025-10-05T11:45:58Z</time>
      </trkpt>
      <trkpt lat="43.32768" lon="5.77242">
        <ele>978.4</ele>
        <time>2025-10-05T11:45:59Z</time>
      </trkpt>
      <trkpt lat="43.32768" lon="5.77241">
        <ele>977.9</ele>
        <time>2025-10-05T11:46:00Z</time>
      </trkpt>
      <trkpt lat="43.32769" lon="5.77241">
        <ele>977.4</ele>
        <time>2025-10-05T11:46:01Z</time>
      </trkpt>
      <trkpt lat="43.32769" lon="5.7724">
        <ele>976.9</ele>
        <time>2025-10-05T11:46:02Z</time>
      </trkpt>
      <trkpt lat="43.3277" lon="5.77239">
        <ele>976.5</ele>
        <time>2025-10-05T11:46:03Z</time>
      </trkpt>
      <trkpt lat="43.3277" lon="5.77237">
        <ele>976.1</ele>
        <time>2025-10-05T11:46:04Z</time>
      </trkpt>
      <trkpt lat="43.3277" lon="5.77236">
        <ele>976.1</ele>
        <time>2025-10-05T11:46:05Z</time>
      </trkpt>
      <trkpt lat="43.3277" lon="5.77235">
        <ele>975.9</ele>
        <time>2025-10-05T11:46:06Z</time>
      </trkpt>
      <trkpt lat="43.3277" lon="5.77234">
        <ele>975.9</ele>
        <time>2025-10-05T11:46:07Z</time>
      </trkpt>
      <trkpt lat="43.3277" lon="5.77232">
        <ele>975.7</ele>
        <time>2025-10-05T11:46:08Z</time>
      </trkpt>
      <trkpt lat="43.32771" lon="5.77231">
        <ele>975.6</ele>
        <time>2025-10-05T11:46:09Z</time>
      </trkpt>
      <trkpt lat="43.32772" lon="5.7723">
        <ele>975.5</ele>
        <time>2025-10-05T11:46:10Z</time>
      </trkpt>
      <trkpt lat="43.32771" lon="5.77229">
        <ele>975.5</ele>
        <time>2025-10-05T11:46:11Z</time>
      </trkpt>
      <trkpt lat="43.32771" lon="5.77227">
        <ele>975.3</ele>
        <time>2025-10-05T11:46:12Z</time>
      </trkpt>
      <trkpt lat="43.32771" lon="5.77226">
        <ele>975.3</ele>
        <time>2025-10-05T11:46:13Z</time>
      </trkpt>
      <trkpt lat="43.3277" lon="5.77224">
        <ele>975.3</ele>
        <time>2025-10-05T11:46:14Z</time>
      </trkpt>
      <trkpt lat="43.3277" lon="5.77224">
        <ele>975.3</ele>
        <time>2025-10-05T11:46:15Z</time>
      </trkpt>
      <trkpt lat="43.3277" lon="5.77222">
        <ele>975.4</ele>
        <time>2025-10-05T11:46:16Z</time>
      </trkpt>
      <trkpt lat="43.32769" lon="5.77221">
        <ele>975.6</ele>
        <time>2025-10-05T11:46:17Z</time>
      </trkpt>
      <trkpt lat="43.32769" lon="5.7722">
        <ele>975.2</ele>
        <time>2025-10-05T11:46:18Z</time>
      </trkpt>
      <trkpt lat="43.32769" lon="5.77219">
        <ele>975.2</ele>
        <time>2025-10-05T11:46:19Z</time>
      </trkpt>
      <trkpt lat="43.32768" lon="5.77218">
        <ele>975</ele>
        <time>2025-10-05T11:46:20Z</time>
      </trkpt>
      <trkpt lat="43.32768" lon="5.77217">
        <ele>975</ele>
        <time>2025-10-05T11:46:21Z</time>
      </trkpt>
      <trkpt lat="43.32768" lon="5.77216">
        <ele>975</ele>
        <time>2025-10-05T11:46:22Z</time>
      </trkpt>
      <trkpt lat="43.32767" lon="5.77214">
        <ele>974.9</ele>
        <time>2025-10-05T11:46:23Z</time>
      </trkpt>
      <trkpt lat="43.32767" lon="5.77213">
        <ele>974.7</ele>
        <time>2025-10-05T11:46:24Z</time>
      </trkpt>
      <trkpt lat="43.32767" lon="5.77212">
        <ele>974.6</ele>
        <time>2025-10-05T11:46:25Z</time>
      </trkpt>
      <trkpt lat="43.32767" lon="5.77211">
        <ele>974.6</ele>
        <time>2025-10-05T11:46:26Z</time>
      </trkpt>
      <trkpt lat="43.32767" lon="5.7721">
        <ele>974.8</ele>
        <time>2025-10-05T11:46:27Z</time>
      </trkpt>
      <trkpt lat="43.32768" lon="5.77209">
        <ele>974.7</ele>
        <time>2025-10-05T11:46:28Z</time>
      </trkpt>
      <trkpt lat="43.32768" lon="5.77207">
        <ele>974.6</ele>
        <time>2025-10-05T11:46:29Z</time>
      </trkpt>
      <trkpt lat="43.32768" lon="5.77206">
        <ele>974.3</ele>
        <time>2025-10-05T11:46:30Z</time>
      </trkpt>
      <trkpt lat="43.32767" lon="5.77206">
        <ele>974</ele>
        <time>2025-10-05T11:46:31Z</time>
      </trkpt>
      <trkpt lat="43.32767" lon="5.77205">
        <ele>973.7</ele>
        <time>2025-10-05T11:46:32Z</time>
      </trkpt>
      <trkpt lat="43.32767" lon="5.77204">
        <ele>973.6</ele>
        <time>2025-10-05T11:46:33Z</time>
      </trkpt>
      <trkpt lat="43.32766" lon="5.77203">
        <ele>973.3</ele>
        <time>2025-10-05T11:46:34Z</time>
      </trkpt>
      <trkpt lat="43.32766" lon="5.77202">
        <ele>972.9</ele>
        <time>2025-10-05T11:46:35Z</time>
      </trkpt>
      <trkpt lat="43.32766" lon="5.77201">
        <ele>972.5</ele>
        <time>2025-10-05T11:46:36Z</time>
      </trkpt>
      <trkpt lat="43.32766" lon="5.772">
        <ele>972.2</ele>
        <time>2025-10-05T11:46:37Z</time>
      </trkpt>
      <trkpt lat="43.32766" lon="5.772">
        <ele>971.9</ele>
        <time>2025-10-05T11:46:38Z</time>
      </trkpt>
      <trkpt lat="43.32766" lon="5.77199">
        <ele>971.7</ele>
        <time>2025-10-05T11:46:39Z</time>
      </trkpt>
      <trkpt lat="43.32766" lon="5.77198">
        <ele>971.5</ele>
        <time>2025-10-05T11:46:40Z</time>
      </trkpt>
      <trkpt lat="43.32766" lon="5.77197">
        <ele>971</ele>
        <time>2025-10-05T11:46:41Z</time>
      </trkpt>
      <trkpt lat="43.32766" lon="5.77196">
        <ele>970.5</ele>
        <time>2025-10-05T11:46:42Z</time>
      </trkpt>
      <trkpt lat="43.32766" lon="5.77195">
        <ele>970</ele>
        <time>2025-10-05T11:46:43Z</time>
      </trkpt>
      <trkpt lat="43.32766" lon="5.77195">
        <ele>970.1</ele>
        <time>2025-10-05T11:46:44Z</time>
      </trkpt>
      <trkpt lat="43.32765" lon="5.77194">
        <ele>970.2</ele>
        <time>2025-10-05T11:46:45Z</time>
      </trkpt>
      <trkpt lat="43.32765" lon="5.77193">
        <ele>970.4</ele>
        <time>2025-10-05T11:46:46Z</time>
      </trkpt>
      <trkpt lat="43.32764" lon="5.77192">
        <ele>970.3</ele>
        <time>2025-10-05T11:46:47Z</time>
      </trkpt>
      <trkpt lat="43.32764" lon="5.77192">
        <ele>970.2</ele>
        <time>2025-10-05T11:46:48Z</time>
      </trkpt>
      <trkpt lat="43.32763" lon="5.77191">
        <ele>970.1</ele>
        <time>2025-10-05T11:46:49Z</time>
      </trkpt>
      <trkpt lat="43.32763" lon="5.7719">
        <ele>969.9</ele>
        <time>2025-10-05T11:46:50Z</time>
      </trkpt>
      <trkpt lat="43.32762" lon="5.77189">
        <ele>969.8</ele>
        <time>2025-10-05T11:46:51Z</time>
      </trkpt>
      <trkpt lat="43.32762" lon="5.77188">
        <ele>969.5</ele>
        <time>2025-10-05T11:46:52Z</time>
      </trkpt>
      <trkpt lat="43.32762" lon="5.77188">
        <ele>969.3</ele>
        <time>2025-10-05T11:46:53Z</time>
      </trkpt>
      <trkpt lat="43.32761" lon="5.77187">
        <ele>969.1</ele>
        <time>2025-10-05T11:46:54Z</time>
      </trkpt>
      <trkpt lat="43.32761" lon="5.77187">
        <ele>968.9</ele>
        <time>2025-10-05T11:46:55Z</time>
      </trkpt>
      <trkpt lat="43.3276" lon="5.77187">
        <ele>968.6</ele>
        <time>2025-10-05T11:46:56Z</time>
      </trkpt>
      <trkpt lat="43.32759" lon="5.77186">
        <ele>968.4</ele>
        <time>2025-10-05T11:46:57Z</time>
      </trkpt>
      <trkpt lat="43.32759" lon="5.77186">
        <ele>968</ele>
        <time>2025-10-05T11:46:58Z</time>
      </trkpt>
      <trkpt lat="43.32759" lon="5.77186">
        <ele>967.8</ele>
        <time>2025-10-05T11:46:59Z</time>
      </trkpt>
      <trkpt lat="43.32758" lon="5.77187">
        <ele>967.5</ele>
        <time>2025-10-05T11:47:00Z</time>
      </trkpt>
      <trkpt lat="43.32757" lon="5.77188">
        <ele>967.2</ele>
        <time>2025-10-05T11:47:01Z</time>
      </trkpt>
      <trkpt lat="43.32757" lon="5.77188">
        <ele>967</ele>
        <time>2025-10-05T11:47:02Z</time>
      </trkpt>
      <trkpt lat="43.32757" lon="5.77189">
        <ele>966.9</ele>
        <time>2025-10-05T11:47:03Z</time>
      </trkpt>
      <trkpt lat="43.32757" lon="5.77189">
        <ele>966.8</ele>
        <time>2025-10-05T11:47:04Z</time>
      </trkpt>
      <trkpt lat="43.32757" lon="5.77189">
        <ele>966.6</ele>
        <time>2025-10-05T11:47:05Z</time>
      </trkpt>
      <trkpt lat="43.32757" lon="5.7719">
        <ele>966.6</ele>
        <time>2025-10-05T11:47:06Z</time>
      </trkpt>
      <trkpt lat="43.32756" lon="5.7719">
        <ele>966.7</ele>
        <time>2025-10-05T11:47:07Z</time>
      </trkpt>
      <trkpt lat="43.32756" lon="5.7719">
        <ele>966.8</ele>
        <time>2025-10-05T11:47:08Z</time>
      </trkpt>
      <trkpt lat="43.32756" lon="5.7719">
        <ele>967</ele>
        <time>2025-10-05T11:47:09Z</time>
      </trkpt>
      <trkpt lat="43.32756" lon="5.7719">
        <ele>967.1</ele>
        <time>2025-10-05T11:47:10Z</time>
      </trkpt>
      <trkpt lat="43.32756" lon="5.7719">
        <ele>967.2</ele>
        <time>2025-10-05T11:47:11Z</time>
      </trkpt>
      <trkpt lat="43.32757" lon="5.7719">
        <ele>967.3</ele>
        <time>2025-10-05T11:47:12Z</time>
      </trkpt>
      <trkpt lat="43.32756" lon="5.7719">
        <ele>967.2</ele>
        <time>2025-10-05T11:47:13Z</time>
      </trkpt>
      <trkpt lat="43.32756" lon="5.7719">
        <ele>967.3</ele>
        <time>2025-10-05T11:47:14Z</time>
      </trkpt>
      <trkpt lat="43.32756" lon="5.7719">
        <ele>967.2</ele>
        <time>2025-10-05T11:47:15Z</time>
      </trkpt>
      <trkpt lat="43.32756" lon="5.7719">
        <ele>967.3</ele>
        <time>2025-10-05T11:47:16Z</time>
      </trkpt>
      <trkpt lat="43.32756" lon="5.77189">
        <ele>967.2</ele>
        <time>2025-10-05T11:47:17Z</time>
      </trkpt>
      <trkpt lat="43.32756" lon="5.77189">
        <ele>967.2</ele>
        <time>2025-10-05T11:47:18Z</time>
      </trkpt>
      <trkpt lat="43.32756" lon="5.77189">
        <ele>967.1</ele>
        <time>2025-10-05T11:47:19Z</time>
      </trkpt>
      <trkpt lat="43.32756" lon="5.77189">
        <ele>967.1</ele>
        <time>2025-10-05T11:47:20Z</time>
      </trkpt>
      <trkpt lat="43.32756" lon="5.77189">
        <ele>967.1</ele>
        <time>2025-10-05T11:47:21Z</time>
      </trkpt>
      <trkpt lat="43.32756" lon="5.77189">
        <ele>967</ele>
        <time>2025-10-05T11:47:22Z</time>
      </trkpt>
      <trkpt lat="43.32756" lon="5.77189">
        <ele>966.9</ele>
        <time>2025-10-05T11:47:23Z</time>
      </trkpt>
      <trkpt lat="43.32756" lon="5.77189">
        <ele>966.8</ele>
        <time>2025-10-05T11:47:24Z</time>
      </trkpt>
      <trkpt lat="43.32756" lon="5.77189">
        <ele>966.7</ele>
        <time>2025-10-05T11:47:25Z</time>
      </trkpt>
      <trkpt lat="43.32756" lon="5.77189">
        <ele>966.5</ele>
        <time>2025-10-05T11:47:26Z</time>
      </trkpt>
      <trkpt lat="43.32756" lon="5.77189">
        <ele>966.5</ele>
        <time>2025-10-05T11:47:27Z</time>
      </trkpt>
      <trkpt lat="43.32756" lon="5.77189">
        <ele>966.6</ele>
        <time>2025-10-05T11:47:28Z</time>
      </trkpt>
      <trkpt lat="43.32756" lon="5.77189">
        <ele>966.7</ele>
        <time>2025-10-05T11:47:29Z</time>
      </trkpt>
      <trkpt lat="43.32756" lon="5.77189">
        <ele>966.9</ele>
        <time>2025-10-05T11:47:30Z</time>
      </trkpt>
      <trkpt lat="43.32756" lon="5.77189">
        <ele>966.9</ele>
        <time>2025-10-05T11:47:31Z</time>
      </trkpt>
      <trkpt lat="43.32756" lon="5.77189">
        <ele>966.9</ele>
        <time>2025-10-05T11:47:32Z</time>
      </trkpt>
      <trkpt lat="43.32756" lon="5.77189">
        <ele>966.8</ele>
        <time>2025-10-05T11:47:33Z</time>
      </trkpt>
      <trkpt lat="43.32756" lon="5.77189">
        <ele>966.6</ele>
        <time>2025-10-05T11:47:34Z</time>
      </trkpt>
      <trkpt lat="43.32755" lon="5.77189">
        <ele>966.5</ele>
        <time>2025-10-05T11:47:35Z</time>
      </trkpt>
      <trkpt lat="43.32755" lon="5.77189">
        <ele>966.6</ele>
        <time>2025-10-05T11:47:36Z</time>
      </trkpt>
      <trkpt lat="43.32755" lon="5.77188">
        <ele>966.6</ele>
        <time>2025-10-05T11:47:37Z</time>
      </trkpt>
      <trkpt lat="43.32755" lon="5.77188">
        <ele>966.6</ele>
        <time>2025-10-05T11:47:38Z</time>
      </trkpt>
      <trkpt lat="43.32755" lon="5.77188">
        <ele>966.5</ele>
        <time>2025-10-05T11:47:39Z</time>
      </trkpt>
      <trkpt lat="43.32755" lon="5.77188">
        <ele>966.3</ele>
        <time>2025-10-05T11:47:40Z</time>
      </trkpt>
      <trkpt lat="43.32755" lon="5.77188">
        <ele>966.2</ele>
        <time>2025-10-05T11:47:41Z</time>
      </trkpt>
      <trkpt lat="43.32755" lon="5.77188">
        <ele>966.1</ele>
        <time>2025-10-05T11:47:42Z</time>
      </trkpt>
      <trkpt lat="43.32755" lon="5.77188">
        <ele>966.1</ele>
        <time>2025-10-05T11:47:43Z</time>
      </trkpt>
      <trkpt lat="43.32755" lon="5.77188">
        <ele>966.1</ele>
        <time>2025-10-05T11:47:44Z</time>
      </trkpt>
      <trkpt lat="43.32755" lon="5.77188">
        <ele>966.2</ele>
        <time>2025-10-05T11:47:45Z</time>
      </trkpt>
      <trkpt lat="43.32755" lon="5.77188">
        <ele>966.4</ele>
        <time>2025-10-05T11:47:46Z</time>
      </trkpt>
      <trkpt lat="43.32755" lon="5.77188">
        <ele>966.3</ele>
        <time>2025-10-05T11:47:47Z</time>
      </trkpt>
      <trkpt lat="43.32755" lon="5.77188">
        <ele>966.2</ele>
        <time>2025-10-05T11:47:48Z</time>
      </trkpt>
      <trkpt lat="43.32755" lon="5.77188">
        <ele>966.2</ele>
        <time>2025-10-05T11:47:49Z</time>
      </trkpt>
      <trkpt lat="43.32755" lon="5.77188">
        <ele>966.1</ele>
        <time>2025-10-05T11:47:50Z</time>
      </trkpt>
      <trkpt lat="43.32754" lon="5.77187">
        <ele>965.9</ele>
        <time>2025-10-05T11:47:51Z</time>
      </trkpt>
      <trkpt lat="43.32754" lon="5.77186">
        <ele>965.4</ele>
        <time>2025-10-05T11:47:52Z</time>
      </trkpt>
      <trkpt lat="43.32755" lon="5.77186">
        <ele>965.3</ele>
        <time>2025-10-05T11:47:53Z</time>
      </trkpt>
      <trkpt lat="43.32756" lon="5.77186">
        <ele>965.4</ele>
        <time>2025-10-05T11:47:54Z</time>
      </trkpt>
      <trkpt lat="43.32756" lon="5.77186">
        <ele>965.5</ele>
        <time>2025-10-05T11:47:55Z</time>
      </trkpt>
      <trkpt lat="43.32757" lon="5.77186">
        <ele>965.7</ele>
        <time>2025-10-05T11:47:56Z</time>
      </trkpt>
      <trkpt lat="43.32758" lon="5.77186">
        <ele>966</ele>
        <time>2025-10-05T11:47:57Z</time>
      </trkpt>
      <trkpt lat="43.32758" lon="5.77186">
        <ele>966.1</ele>
        <time>2025-10-05T11:47:58Z</time>
      </trkpt>
      <trkpt lat="43.32759" lon="5.77185">
        <ele>966.2</ele>
        <time>2025-10-05T11:47:59Z</time>
      </trkpt>
      <trkpt lat="43.32759" lon="5.77184">
        <ele>966.3</ele>
        <time>2025-10-05T11:48:00Z</time>
      </trkpt>
      <trkpt lat="43.3276" lon="5.77183">
        <ele>966.4</ele>
        <time>2025-10-05T11:48:01Z</time>
      </trkpt>
      <trkpt lat="43.3276" lon="5.77182">
        <ele>966.2</ele>
        <time>2025-10-05T11:48:02Z</time>
      </trkpt>
      <trkpt lat="43.3276" lon="5.77181">
        <ele>966.1</ele>
        <time>2025-10-05T11:48:03Z</time>
      </trkpt>
      <trkpt lat="43.3276" lon="5.7718">
        <ele>966</ele>
        <time>2025-10-05T11:48:04Z</time>
      </trkpt>
      <trkpt lat="43.3276" lon="5.77179">
        <ele>965.8</ele>
        <time>2025-10-05T11:48:05Z</time>
      </trkpt>
      <trkpt lat="43.3276" lon="5.77178">
        <ele>965.7</ele>
        <time>2025-10-05T11:48:06Z</time>
      </trkpt>
      <trkpt lat="43.3276" lon="5.77177">
        <ele>965.9</ele>
        <time>2025-10-05T11:48:07Z</time>
      </trkpt>
      <trkpt lat="43.3276" lon="5.77176">
        <ele>966.1</ele>
        <time>2025-10-05T11:48:08Z</time>
      </trkpt>
      <trkpt lat="43.3276" lon="5.77175">
        <ele>966.2</ele>
        <time>2025-10-05T11:48:09Z</time>
      </trkpt>
      <trkpt lat="43.32759" lon="5.77173">
        <ele>966.2</ele>
        <time>2025-10-05T11:48:10Z</time>
      </trkpt>
      <trkpt lat="43.32759" lon="5.77173">
        <ele>966.1</ele>
        <time>2025-10-05T11:48:11Z</time>
      </trkpt>
      <trkpt lat="43.32759" lon="5.77171">
        <ele>966</ele>
        <time>2025-10-05T11:48:12Z</time>
      </trkpt>
      <trkpt lat="43.32758" lon="5.7717">
        <ele>966</ele>
        <time>2025-10-05T11:48:13Z</time>
      </trkpt>
      <trkpt lat="43.32758" lon="5.77169">
        <ele>965.9</ele>
        <time>2025-10-05T11:48:14Z</time>
      </trkpt>
      <trkpt lat="43.32758" lon="5.77169">
        <ele>965.9</ele>
        <time>2025-10-05T11:48:15Z</time>
      </trkpt>
      <trkpt lat="43.32757" lon="5.77168">
        <ele>966</ele>
        <time>2025-10-05T11:48:16Z</time>
      </trkpt>
      <trkpt lat="43.32756" lon="5.77168">
        <ele>965.8</ele>
        <time>2025-10-05T11:48:17Z</time>
      </trkpt>
      <trkpt lat="43.32755" lon="5.77168">
        <ele>965.7</ele>
        <time>2025-10-05T11:48:18Z</time>
      </trkpt>
      <trkpt lat="43.32755" lon="5.77168">
        <ele>965.6</ele>
        <time>2025-10-05T11:48:19Z</time>
      </trkpt>
      <trkpt lat="43.32754" lon="5.77168">
        <ele>965.5</ele>
        <time>2025-10-05T11:48:20Z</time>
      </trkpt>
      <trkpt lat="43.32754" lon="5.77167">
        <ele>965.5</ele>
        <time>2025-10-05T11:48:21Z</time>
      </trkpt>
      <trkpt lat="43.32754" lon="5.77166">
        <ele>965.5</ele>
        <time>2025-10-05T11:48:22Z</time>
      </trkpt>
      <trkpt lat="43.32754" lon="5.77166">
        <ele>965.7</ele>
        <time>2025-10-05T11:48:23Z</time>
      </trkpt>
      <trkpt lat="43.32754" lon="5.77165">
        <ele>965.9</ele>
        <time>2025-10-05T11:48:24Z</time>
      </trkpt>
      <trkpt lat="43.32754" lon="5.77164">
        <ele>966</ele>
        <time>2025-10-05T11:48:25Z</time>
      </trkpt>
      <trkpt lat="43.32754" lon="5.77163">
        <ele>966.1</ele>
        <time>2025-10-05T11:48:26Z</time>
      </trkpt>
      <trkpt lat="43.32755" lon="5.77162">
        <ele>966</ele>
        <time>2025-10-05T11:48:27Z</time>
      </trkpt>
      <trkpt lat="43.32755" lon="5.77161">
        <ele>966.2</ele>
        <time>2025-10-05T11:48:28Z</time>
      </trkpt>
      <trkpt lat="43.32755" lon="5.7716">
        <ele>966.3</ele>
        <time>2025-10-05T11:48:29Z</time>
      </trkpt>
      <trkpt lat="43.32755" lon="5.77159">
        <ele>966.4</ele>
        <time>2025-10-05T11:48:30Z</time>
      </trkpt>
      <trkpt lat="43.32756" lon="5.77157">
        <ele>966.6</ele>
        <time>2025-10-05T11:48:31Z</time>
      </trkpt>
      <trkpt lat="43.32756" lon="5.77156">
        <ele>966.8</ele>
        <time>2025-10-05T11:48:32Z</time>
      </trkpt>
      <trkpt lat="43.32757" lon="5.77155">
        <ele>966.9</ele>
        <time>2025-10-05T11:48:33Z</time>
      </trkpt>
      <trkpt lat="43.32758" lon="5.77154">
        <ele>966.9</ele>
        <time>2025-10-05T11:48:34Z</time>
      </trkpt>
      <trkpt lat="43.32758" lon="5.77152">
        <ele>966.9</ele>
        <time>2025-10-05T11:48:35Z</time>
      </trkpt>
      <trkpt lat="43.32758" lon="5.77151">
        <ele>966.9</ele>
        <time>2025-10-05T11:48:36Z</time>
      </trkpt>
      <trkpt lat="43.32758" lon="5.7715">
        <ele>966.8</ele>
        <time>2025-10-05T11:48:37Z</time>
      </trkpt>
      <trkpt lat="43.32758" lon="5.77148">
        <ele>966.8</ele>
        <time>2025-10-05T11:48:38Z</time>
      </trkpt>
      <trkpt lat="43.32758" lon="5.77147">
        <ele>966.7</ele>
        <time>2025-10-05T11:48:39Z</time>
      </trkpt>
      <trkpt lat="43.32758" lon="5.77145">
        <ele>966.6</ele>
        <time>2025-10-05T11:48:40Z</time>
      </trkpt>
      <trkpt lat="43.32758" lon="5.77144">
        <ele>966.5</ele>
        <time>2025-10-05T11:48:41Z</time>
      </trkpt>
      <trkpt lat="43.32758" lon="5.77142">
        <ele>966.3</ele>
        <time>2025-10-05T11:48:42Z</time>
      </trkpt>
      <trkpt lat="43.32759" lon="5.77141">
        <ele>966</ele>
        <time>2025-10-05T11:48:43Z</time>
      </trkpt>
      <trkpt lat="43.32759" lon="5.77139">
        <ele>965.9</ele>
        <time>2025-10-05T11:48:44Z</time>
      </trkpt>
      <trkpt lat="43.32759" lon="5.77138">
        <ele>965.8</ele>
        <time>2025-10-05T11:48:45Z</time>
      </trkpt>
      <trkpt lat="43.32759" lon="5.77136">
        <ele>965.8</ele>
        <time>2025-10-05T11:48:46Z</time>
      </trkpt>
      <trkpt lat="43.32759" lon="5.77134">
        <ele>965.8</ele>
        <time>2025-10-05T11:48:47Z</time>
      </trkpt>
      <trkpt lat="43.3276" lon="5.77133">
        <ele>965.8</ele>
        <time>2025-10-05T11:48:48Z</time>
      </trkpt>
      <trkpt lat="43.3276" lon="5.77131">
        <ele>965.8</ele>
        <time>2025-10-05T11:48:49Z</time>
      </trkpt>
      <trkpt lat="43.3276" lon="5.7713">
        <ele>965.8</ele>
        <time>2025-10-05T11:48:50Z</time>
      </trkpt>
      <trkpt lat="43.3276" lon="5.77128">
        <ele>966</ele>
        <time>2025-10-05T11:48:51Z</time>
      </trkpt>
      <trkpt lat="43.32761" lon="5.77127">
        <ele>965.9</ele>
        <time>2025-10-05T11:48:52Z</time>
      </trkpt>
      <trkpt lat="43.32761" lon="5.77125">
        <ele>965.5</ele>
        <time>2025-10-05T11:48:53Z</time>
      </trkpt>
      <trkpt lat="43.32761" lon="5.77124">
        <ele>965</ele>
        <time>2025-10-05T11:48:54Z</time>
      </trkpt>
      <trkpt lat="43.32761" lon="5.77123">
        <ele>964.6</ele>
        <time>2025-10-05T11:48:55Z</time>
      </trkpt>
      <trkpt lat="43.32761" lon="5.77121">
        <ele>964.4</ele>
        <time>2025-10-05T11:48:56Z</time>
      </trkpt>
      <trkpt lat="43.32761" lon="5.77119">
        <ele>964.7</ele>
        <time>2025-10-05T11:48:57Z</time>
      </trkpt>
      <trkpt lat="43.32761" lon="5.77118">
        <ele>966.1</ele>
        <time>2025-10-05T11:48:58Z</time>
      </trkpt>
      <trkpt lat="43.32761" lon="5.77116">
        <ele>967.2</ele>
        <time>2025-10-05T11:48:59Z</time>
      </trkpt>
      <trkpt lat="43.3276" lon="5.77115">
        <ele>968</ele>
        <time>2025-10-05T11:49:00Z</time>
      </trkpt>
      <trkpt lat="43.3276" lon="5.77113">
        <ele>967.9</ele>
        <time>2025-10-05T11:49:01Z</time>
      </trkpt>
      <trkpt lat="43.3276" lon="5.77111">
        <ele>967.7</ele>
        <time>2025-10-05T11:49:02Z</time>
      </trkpt>
      <trkpt lat="43.3276" lon="5.77109">
        <ele>967.5</ele>
        <time>2025-10-05T11:49:03Z</time>
      </trkpt>
      <trkpt lat="43.32759" lon="5.77108">
        <ele>967.6</ele>
        <time>2025-10-05T11:49:04Z</time>
      </trkpt>
      <trkpt lat="43.32759" lon="5.77106">
        <ele>967.4</ele>
        <time>2025-10-05T11:49:05Z</time>
      </trkpt>
      <trkpt lat="43.32759" lon="5.77104">
        <ele>966.7</ele>
        <time>2025-10-05T11:49:06Z</time>
      </trkpt>
      <trkpt lat="43.32759" lon="5.77103">
        <ele>966.7</ele>
        <time>2025-10-05T11:49:07Z</time>
      </trkpt>
      <trkpt lat="43.32759" lon="5.77101">
        <ele>966.3</ele>
        <time>2025-10-05T11:49:08Z</time>
      </trkpt>
      <trkpt lat="43.32759" lon="5.771">
        <ele>966.1</ele>
        <time>2025-10-05T11:49:09Z</time>
      </trkpt>
      <trkpt lat="43.3276" lon="5.77098">
        <ele>966.2</ele>
        <time>2025-10-05T11:49:10Z</time>
      </trkpt>
      <trkpt lat="43.32759" lon="5.77097">
        <ele>966.1</ele>
        <time>2025-10-05T11:49:11Z</time>
      </trkpt>
      <trkpt lat="43.32759" lon="5.77095">
        <ele>965.8</ele>
        <time>2025-10-05T11:49:12Z</time>
      </trkpt>
      <trkpt lat="43.32759" lon="5.77094">
        <ele>965.6</ele>
        <time>2025-10-05T11:49:13Z</time>
      </trkpt>
      <trkpt lat="43.32758" lon="5.77093">
        <ele>965.8</ele>
        <time>2025-10-05T11:49:14Z</time>
      </trkpt>
      <trkpt lat="43.32758" lon="5.77092">
        <ele>965.8</ele>
        <time>2025-10-05T11:49:15Z</time>
      </trkpt>
      <trkpt lat="43.32758" lon="5.77091">
        <ele>965.8</ele>
        <time>2025-10-05T11:49:16Z</time>
      </trkpt>
      <trkpt lat="43.32758" lon="5.7709">
        <ele>965.6</ele>
        <time>2025-10-05T11:49:17Z</time>
      </trkpt>
      <trkpt lat="43.32757" lon="5.77089">
        <ele>965.2</ele>
        <time>2025-10-05T11:49:18Z</time>
      </trkpt>
      <trkpt lat="43.32757" lon="5.77088">
        <ele>964.7</ele>
        <time>2025-10-05T11:49:19Z</time>
      </trkpt>
      <trkpt lat="43.32757" lon="5.77086">
        <ele>964.3</ele>
        <time>2025-10-05T11:49:20Z</time>
      </trkpt>
      <trkpt lat="43.32757" lon="5.77085">
        <ele>963.9</ele>
        <time>2025-10-05T11:49:21Z</time>
      </trkpt>
      <trkpt lat="43.32757" lon="5.77084">
        <ele>963.6</ele>
        <time>2025-10-05T11:49:22Z</time>
      </trkpt>
      <trkpt lat="43.32756" lon="5.77082">
        <ele>963.7</ele>
        <time>2025-10-05T11:49:23Z</time>
      </trkpt>
      <trkpt lat="43.32756" lon="5.77081">
        <ele>963.7</ele>
        <time>2025-10-05T11:49:24Z</time>
      </trkpt>
      <trkpt lat="43.32755" lon="5.7708">
        <ele>963.7</ele>
        <time>2025-10-05T11:49:25Z</time>
      </trkpt>
      <trkpt lat="43.32755" lon="5.77079">
        <ele>963.6</ele>
        <time>2025-10-05T11:49:26Z</time>
      </trkpt>
      <trkpt lat="43.32754" lon="5.77078">
        <ele>963.4</ele>
        <time>2025-10-05T11:49:27Z</time>
      </trkpt>
      <trkpt lat="43.32754" lon="5.77077">
        <ele>963.2</ele>
        <time>2025-10-05T11:49:28Z</time>
      </trkpt>
      <trkpt lat="43.32754" lon="5.77076">
        <ele>963.2</ele>
        <time>2025-10-05T11:49:29Z</time>
      </trkpt>
      <trkpt lat="43.32754" lon="5.77074">
        <ele>963.1</ele>
        <time>2025-10-05T11:49:30Z</time>
      </trkpt>
      <trkpt lat="43.32754" lon="5.77072">
        <ele>962.9</ele>
        <time>2025-10-05T11:49:31Z</time>
      </trkpt>
      <trkpt lat="43.32754" lon="5.77071">
        <ele>962.8</ele>
        <time>2025-10-05T11:49:32Z</time>
      </trkpt>
      <trkpt lat="43.32754" lon="5.7707">
        <ele>962.5</ele>
        <time>2025-10-05T11:49:33Z</time>
      </trkpt>
      <trkpt lat="43.32753" lon="5.77068">
        <ele>962.2</ele>
        <time>2025-10-05T11:49:34Z</time>
      </trkpt>
      <trkpt lat="43.32753" lon="5.77067">
        <ele>962</ele>
        <time>2025-10-05T11:49:35Z</time>
      </trkpt>
      <trkpt lat="43.32754" lon="5.77065">
        <ele>961.8</ele>
        <time>2025-10-05T11:49:36Z</time>
      </trkpt>
      <trkpt lat="43.32754" lon="5.77064">
        <ele>961.7</ele>
        <time>2025-10-05T11:49:37Z</time>
      </trkpt>
      <trkpt lat="43.32754" lon="5.77063">
        <ele>961.6</ele>
        <time>2025-10-05T11:49:38Z</time>
      </trkpt>
      <trkpt lat="43.32754" lon="5.77063">
        <ele>961.6</ele>
        <time>2025-10-05T11:49:39Z</time>
      </trkpt>
      <trkpt lat="43.32754" lon="5.77063">
        <ele>961.5</ele>
        <time>2025-10-05T11:49:40Z</time>
      </trkpt>
      <trkpt lat="43.32754" lon="5.77063">
        <ele>961.3</ele>
        <time>2025-10-05T11:49:41Z</time>
      </trkpt>
      <trkpt lat="43.32754" lon="5.77063">
        <ele>961.1</ele>
        <time>2025-10-05T11:49:42Z</time>
      </trkpt>
      <trkpt lat="43.32754" lon="5.77063">
        <ele>961</ele>
        <time>2025-10-05T11:49:43Z</time>
      </trkpt>
      <trkpt lat="43.32754" lon="5.77063">
        <ele>960.9</ele>
        <time>2025-10-05T11:49:44Z</time>
      </trkpt>
      <trkpt lat="43.32754" lon="5.77063">
        <ele>960.9</ele>
        <time>2025-10-05T11:49:45Z</time>
      </trkpt>
      <trkpt lat="43.32754" lon="5.77063">
        <ele>960.9</ele>
        <time>2025-10-05T11:49:46Z</time>
      </trkpt>
      <trkpt lat="43.32754" lon="5.77063">
        <ele>960.7</ele>
        <time>2025-10-05T11:49:47Z</time>
      </trkpt>
      <trkpt lat="43.32754" lon="5.77063">
        <ele>960.6</ele>
        <time>2025-10-05T11:49:48Z</time>
      </trkpt>
      <trkpt lat="43.32754" lon="5.77063">
        <ele>960.2</ele>
        <time>2025-10-05T11:49:49Z</time>
      </trkpt>
      <trkpt lat="43.32754" lon="5.77063">
        <ele>959.9</ele>
        <time>2025-10-05T11:49:50Z</time>
      </trkpt>
      <trkpt lat="43.32754" lon="5.77063">
        <ele>959.7</ele>
        <time>2025-10-05T11:49:51Z</time>
      </trkpt>
      <trkpt lat="43.32754" lon="5.77063">
        <ele>959.6</ele>
        <time>2025-10-05T11:49:52Z</time>
      </trkpt>
      <trkpt lat="43.32754" lon="5.77063">
        <ele>959.4</ele>
        <time>2025-10-05T11:49:53Z</time>
      </trkpt>
      <trkpt lat="43.32754" lon="5.77062">
        <ele>959.3</ele>
        <time>2025-10-05T11:49:54Z</time>
      </trkpt>
      <trkpt lat="43.32754" lon="5.77062">
        <ele>959.2</ele>
        <time>2025-10-05T11:49:55Z</time>
      </trkpt>
      <trkpt lat="43.32754" lon="5.77062">
        <ele>959.2</ele>
        <time>2025-10-05T11:49:56Z</time>
      </trkpt>
      <trkpt lat="43.32754" lon="5.77062">
        <ele>959.1</ele>
        <time>2025-10-05T11:49:57Z</time>
      </trkpt>
      <trkpt lat="43.32754" lon="5.77062">
        <ele>959.2</ele>
        <time>2025-10-05T11:49:58Z</time>
      </trkpt>
      <trkpt lat="43.32754" lon="5.77062">
        <ele>959.2</ele>
        <time>2025-10-05T11:49:59Z</time>
      </trkpt>
      <trkpt lat="43.32754" lon="5.77061">
        <ele>959.3</ele>
        <time>2025-10-05T11:50:00Z</time>
      </trkpt>
      <trkpt lat="43.32754" lon="5.77061">
        <ele>959.2</ele>
        <time>2025-10-05T11:50:01Z</time>
      </trkpt>
      <trkpt lat="43.32754" lon="5.77061">
        <ele>959.2</ele>
        <time>2025-10-05T11:50:02Z</time>
      </trkpt>
      <trkpt lat="43.32754" lon="5.77061">
        <ele>959.1</ele>
        <time>2025-10-05T11:50:03Z</time>
      </trkpt>
      <trkpt lat="43.32754" lon="5.77061">
        <ele>959</ele>
        <time>2025-10-05T11:50:04Z</time>
      </trkpt>
      <trkpt lat="43.32754" lon="5.77061">
        <ele>959</ele>
        <time>2025-10-05T11:50:05Z</time>
      </trkpt>
      <trkpt lat="43.32754" lon="5.77061">
        <ele>959</ele>
        <time>2025-10-05T11:50:06Z</time>
      </trkpt>
      <trkpt lat="43.32754" lon="5.77061">
        <ele>959</ele>
        <time>2025-10-05T11:50:07Z</time>
      </trkpt>
      <trkpt lat="43.32754" lon="5.77061">
        <ele>958.9</ele>
        <time>2025-10-05T11:50:08Z</time>
      </trkpt>
      <trkpt lat="43.32754" lon="5.77061">
        <ele>958.9</ele>
        <time>2025-10-05T11:50:09Z</time>
      </trkpt>
      <trkpt lat="43.32754" lon="5.77061">
        <ele>958.9</ele>
        <time>2025-10-05T11:50:10Z</time>
      </trkpt>
      <trkpt lat="43.32755" lon="5.77061">
        <ele>958.8</ele>
        <time>2025-10-05T11:50:11Z</time>
      </trkpt>
      <trkpt lat="43.32755" lon="5.77061">
        <ele>958.6</ele>
        <time>2025-10-05T11:50:12Z</time>
      </trkpt>
      <trkpt lat="43.32755" lon="5.77061">
        <ele>958.4</ele>
        <time>2025-10-05T11:50:13Z</time>
      </trkpt>
      <trkpt lat="43.32755" lon="5.77061">
        <ele>958.4</ele>
        <time>2025-10-05T11:50:14Z</time>
      </trkpt>
      <trkpt lat="43.32755" lon="5.77061">
        <ele>958.3</ele>
        <time>2025-10-05T11:50:15Z</time>
      </trkpt>
      <trkpt lat="43.32755" lon="5.77061">
        <ele>958.3</ele>
        <time>2025-10-05T11:50:16Z</time>
      </trkpt>
      <trkpt lat="43.32755" lon="5.77061">
        <ele>958.4</ele>
        <time>2025-10-05T11:50:17Z</time>
      </trkpt>
      <trkpt lat="43.32754" lon="5.77061">
        <ele>958.4</ele>
        <time>2025-10-05T11:50:18Z</time>
      </trkpt>
      <trkpt lat="43.32754" lon="5.7706">
        <ele>958.4</ele>
        <time>2025-10-05T11:50:19Z</time>
      </trkpt>
      <trkpt lat="43.32755" lon="5.77059">
        <ele>958.2</ele>
        <time>2025-10-05T11:50:20Z</time>
      </trkpt>
      <trkpt lat="43.32755" lon="5.77059">
        <ele>958.1</ele>
        <time>2025-10-05T11:50:21Z</time>
      </trkpt>
      <trkpt lat="43.32755" lon="5.77058">
        <ele>957.9</ele>
        <time>2025-10-05T11:50:22Z</time>
      </trkpt>
      <trkpt lat="43.32755" lon="5.77057">
        <ele>957.9</ele>
        <time>2025-10-05T11:50:23Z</time>
      </trkpt>
      <trkpt lat="43.32755" lon="5.77056">
        <ele>957.8</ele>
        <time>2025-10-05T11:50:24Z</time>
      </trkpt>
      <trkpt lat="43.32755" lon="5.77056">
        <ele>957.8</ele>
        <time>2025-10-05T11:50:25Z</time>
      </trkpt>
      <trkpt lat="43.32755" lon="5.77055">
        <ele>957.6</ele>
        <time>2025-10-05T11:50:26Z</time>
      </trkpt>
      <trkpt lat="43.32754" lon="5.77054">
        <ele>957.6</ele>
        <time>2025-10-05T11:50:27Z</time>
      </trkpt>
      <trkpt lat="43.32754" lon="5.77053">
        <ele>957.4</ele>
        <time>2025-10-05T11:50:28Z</time>
      </trkpt>
      <trkpt lat="43.32753" lon="5.77053">
        <ele>957.2</ele>
        <time>2025-10-05T11:50:29Z</time>
      </trkpt>
      <trkpt lat="43.32753" lon="5.77052">
        <ele>957.1</ele>
        <time>2025-10-05T11:50:30Z</time>
      </trkpt>
      <trkpt lat="43.32753" lon="5.77051">
        <ele>957</ele>
        <time>2025-10-05T11:50:31Z</time>
      </trkpt>
      <trkpt lat="43.32753" lon="5.77051">
        <ele>956.9</ele>
        <time>2025-10-05T11:50:32Z</time>
      </trkpt>
      <trkpt lat="43.32752" lon="5.7705">
        <ele>956.8</ele>
        <time>2025-10-05T11:50:33Z</time>
      </trkpt>
      <trkpt lat="43.32752" lon="5.77049">
        <ele>956.7</ele>
        <time>2025-10-05T11:50:34Z</time>
      </trkpt>
      <trkpt lat="43.32752" lon="5.77048">
        <ele>956.6</ele>
        <time>2025-10-05T11:50:35Z</time>
      </trkpt>
      <trkpt lat="43.32752" lon="5.77047">
        <ele>956.4</ele>
        <time>2025-10-05T11:50:36Z</time>
      </trkpt>
      <trkpt lat="43.32752" lon="5.77046">
        <ele>956.2</ele>
        <time>2025-10-05T11:50:37Z</time>
      </trkpt>
      <trkpt lat="43.32751" lon="5.77045">
        <ele>956.1</ele>
        <time>2025-10-05T11:50:38Z</time>
      </trkpt>
      <trkpt lat="43.32751" lon="5.77044">
        <ele>956</ele>
        <time>2025-10-05T11:50:39Z</time>
      </trkpt>
      <trkpt lat="43.32751" lon="5.77043">
        <ele>955.9</ele>
        <time>2025-10-05T11:50:40Z</time>
      </trkpt>
      <trkpt lat="43.3275" lon="5.77042">
        <ele>955.8</ele>
        <time>2025-10-05T11:50:41Z</time>
      </trkpt>
      <trkpt lat="43.3275" lon="5.77041">
        <ele>955.6</ele>
        <time>2025-10-05T11:50:42Z</time>
      </trkpt>
      <trkpt lat="43.3275" lon="5.7704">
        <ele>955.5</ele>
        <time>2025-10-05T11:50:43Z</time>
      </trkpt>
      <trkpt lat="43.3275" lon="5.77039">
        <ele>955.5</ele>
        <time>2025-10-05T11:50:44Z</time>
      </trkpt>
      <trkpt lat="43.32751" lon="5.77039">
        <ele>955.4</ele>
        <time>2025-10-05T11:50:45Z</time>
      </trkpt>
      <trkpt lat="43.32751" lon="5.77038">
        <ele>955.4</ele>
        <time>2025-10-05T11:50:46Z</time>
      </trkpt>
      <trkpt lat="43.32751" lon="5.77037">
        <ele>955.4</ele>
        <time>2025-10-05T11:50:47Z</time>
      </trkpt>
      <trkpt lat="43.32752" lon="5.77036">
        <ele>955.5</ele>
        <time>2025-10-05T11:50:48Z</time>
      </trkpt>
      <trkpt lat="43.32752" lon="5.77035">
        <ele>955.5</ele>
        <time>2025-10-05T11:50:49Z</time>
      </trkpt>
      <trkpt lat="43.32752" lon="5.77034">
        <ele>955.6</ele>
        <time>2025-10-05T11:50:50Z</time>
      </trkpt>
      <trkpt lat="43.32753" lon="5.77033">
        <ele>955.8</ele>
        <time>2025-10-05T11:50:51Z</time>
      </trkpt>
      <trkpt lat="43.32753" lon="5.77032">
        <ele>955.9</ele>
        <time>2025-10-05T11:50:52Z</time>
      </trkpt>
      <trkpt lat="43.32753" lon="5.77031">
        <ele>956</ele>
        <time>2025-10-05T11:50:53Z</time>
      </trkpt>
      <trkpt lat="43.32754" lon="5.7703">
        <ele>956</ele>
        <time>2025-10-05T11:50:54Z</time>
      </trkpt>
      <trkpt lat="43.32754" lon="5.77029">
        <ele>956.1</ele>
        <time>2025-10-05T11:50:55Z</time>
      </trkpt>
      <trkpt lat="43.32754" lon="5.77029">
        <ele>956.2</ele>
        <time>2025-10-05T11:50:56Z</time>
      </trkpt>
      <trkpt lat="43.32754" lon="5.77028">
        <ele>956.3</ele>
        <time>2025-10-05T11:50:57Z</time>
      </trkpt>
      <trkpt lat="43.32753" lon="5.77027">
        <ele>956.4</ele>
        <time>2025-10-05T11:50:58Z</time>
      </trkpt>
      <trkpt lat="43.32753" lon="5.77027">
        <ele>956.4</ele>
        <time>2025-10-05T11:50:59Z</time>
      </trkpt>
      <trkpt lat="43.32753" lon="5.77026">
        <ele>956.4</ele>
        <time>2025-10-05T11:51:00Z</time>
      </trkpt>
      <trkpt lat="43.32753" lon="5.77026">
        <ele>956.4</ele>
        <time>2025-10-05T11:51:01Z</time>
      </trkpt>
      <trkpt lat="43.32753" lon="5.77026">
        <ele>956.5</ele>
        <time>2025-10-05T11:51:02Z</time>
      </trkpt>
      <trkpt lat="43.32753" lon="5.77025">
        <ele>956.5</ele>
        <time>2025-10-05T11:51:03Z</time>
      </trkpt>
      <trkpt lat="43.32753" lon="5.77024">
        <ele>956.7</ele>
        <time>2025-10-05T11:51:04Z</time>
      </trkpt>
      <trkpt lat="43.32753" lon="5.77024">
        <ele>956.6</ele>
        <time>2025-10-05T11:51:05Z</time>
      </trkpt>
      <trkpt lat="43.32752" lon="5.77023">
        <ele>956.5</ele>
        <time>2025-10-05T11:51:06Z</time>
      </trkpt>
      <trkpt lat="43.32753" lon="5.77022">
        <ele>956.7</ele>
        <time>2025-10-05T11:51:07Z</time>
      </trkpt>
      <trkpt lat="43.32753" lon="5.77021">
        <ele>957.1</ele>
        <time>2025-10-05T11:51:08Z</time>
      </trkpt>
      <trkpt lat="43.32753" lon="5.77021">
        <ele>957</ele>
        <time>2025-10-05T11:51:09Z</time>
      </trkpt>
      <trkpt lat="43.32754" lon="5.7702">
        <ele>956.9</ele>
        <time>2025-10-05T11:51:10Z</time>
      </trkpt>
      <trkpt lat="43.32754" lon="5.77019">
        <ele>957</ele>
        <time>2025-10-05T11:51:11Z</time>
      </trkpt>
      <trkpt lat="43.32753" lon="5.77018">
        <ele>956.8</ele>
        <time>2025-10-05T11:51:12Z</time>
      </trkpt>
      <trkpt lat="43.32754" lon="5.77018">
        <ele>956.7</ele>
        <time>2025-10-05T11:51:13Z</time>
      </trkpt>
      <trkpt lat="43.32754" lon="5.77018">
        <ele>956.6</ele>
        <time>2025-10-05T11:51:14Z</time>
      </trkpt>
      <trkpt lat="43.32754" lon="5.77018">
        <ele>956.4</ele>
        <time>2025-10-05T11:51:15Z</time>
      </trkpt>
      <trkpt lat="43.32754" lon="5.77017">
        <ele>956.8</ele>
        <time>2025-10-05T11:51:16Z</time>
      </trkpt>
      <trkpt lat="43.32754" lon="5.77017">
        <ele>957</ele>
        <time>2025-10-05T11:51:17Z</time>
      </trkpt>
      <trkpt lat="43.32753" lon="5.77017">
        <ele>957.1</ele>
        <time>2025-10-05T11:51:18Z</time>
      </trkpt>
      <trkpt lat="43.32754" lon="5.77016">
        <ele>957.1</ele>
        <time>2025-10-05T11:51:19Z</time>
      </trkpt>
      <trkpt lat="43.32754" lon="5.77016">
        <ele>956.9</ele>
        <time>2025-10-05T11:51:20Z</time>
      </trkpt>
      <trkpt lat="43.32754" lon="5.77016">
        <ele>956.9</ele>
        <time>2025-10-05T11:51:21Z</time>
      </trkpt>
      <trkpt lat="43.32754" lon="5.77016">
        <ele>957</ele>
        <time>2025-10-05T11:51:22Z</time>
      </trkpt>
      <trkpt lat="43.32754" lon="5.77016">
        <ele>957.2</ele>
        <time>2025-10-05T11:51:23Z</time>
      </trkpt>
      <trkpt lat="43.32753" lon="5.77015">
        <ele>957.1</ele>
        <time>2025-10-05T11:51:24Z</time>
      </trkpt>
      <trkpt lat="43.32753" lon="5.77015">
        <ele>957.2</ele>
        <time>2025-10-05T11:51:25Z</time>
      </trkpt>
      <trkpt lat="43.32753" lon="5.77014">
        <ele>957.2</ele>
        <time>2025-10-05T11:51:26Z</time>
      </trkpt>
      <trkpt lat="43.32753" lon="5.77014">
        <ele>956.6</ele>
        <time>2025-10-05T11:51:27Z</time>
      </trkpt>
      <trkpt lat="43.32753" lon="5.77014">
        <ele>956.6</ele>
        <time>2025-10-05T11:51:28Z</time>
      </trkpt>
      <trkpt lat="43.32753" lon="5.77013">
        <ele>956.7</ele>
        <time>2025-10-05T11:51:29Z</time>
      </trkpt>
      <trkpt lat="43.32753" lon="5.77013">
        <ele>956.5</ele>
        <time>2025-10-05T11:51:30Z</time>
      </trkpt>
      <trkpt lat="43.32753" lon="5.77013">
        <ele>956.9</ele>
        <time>2025-10-05T11:51:31Z</time>
      </trkpt>
      <trkpt lat="43.32752" lon="5.77013">
        <ele>957</ele>
        <time>2025-10-05T11:51:32Z</time>
      </trkpt>
      <trkpt lat="43.32752" lon="5.77013">
        <ele>957.4</ele>
        <time>2025-10-05T11:51:33Z</time>
      </trkpt>
      <trkpt lat="43.32752" lon="5.77013">
        <ele>957.5</ele>
        <time>2025-10-05T11:51:34Z</time>
      </trkpt>
      <trkpt lat="43.32752" lon="5.77013">
        <ele>957.5</ele>
        <time>2025-10-05T11:51:35Z</time>
      </trkpt>
      <trkpt lat="43.32752" lon="5.77013">
        <ele>958.2</ele>
        <time>2025-10-05T11:51:36Z</time>
      </trkpt>
      <trkpt lat="43.32752" lon="5.77013">
        <ele>958.5</ele>
        <time>2025-10-05T11:51:37Z</time>
      </trkpt>
      <trkpt lat="43.32752" lon="5.77013">
        <ele>958.7</ele>
        <time>2025-10-05T11:51:38Z</time>
      </trkpt>
      <trkpt lat="43.32752" lon="5.77013">
        <ele>958.7</ele>
        <time>2025-10-05T11:51:39Z</time>
      </trkpt>
      <trkpt lat="43.32752" lon="5.77012">
        <ele>958.5</ele>
        <time>2025-10-05T11:51:40Z</time>
      </trkpt>
      <trkpt lat="43.32752" lon="5.77012">
        <ele>958.4</ele>
        <time>2025-10-05T11:51:41Z</time>
      </trkpt>
      <trkpt lat="43.32752" lon="5.77012">
        <ele>958</ele>
        <time>2025-10-05T11:51:42Z</time>
      </trkpt>
      <trkpt lat="43.32752" lon="5.77012">
        <ele>958.7</ele>
        <time>2025-10-05T11:51:43Z</time>
      </trkpt>
      <trkpt lat="43.32752" lon="5.77012">
        <ele>958.8</ele>
        <time>2025-10-05T11:51:44Z</time>
      </trkpt>
      <trkpt lat="43.32752" lon="5.77012">
        <ele>958.6</ele>
        <time>2025-10-05T11:51:45Z</time>
      </trkpt>
      <trkpt lat="43.32752" lon="5.77012">
        <ele>958.4</ele>
        <time>2025-10-05T11:51:46Z</time>
      </trkpt>
      <trkpt lat="43.32752" lon="5.77012">
        <ele>959</ele>
        <time>2025-10-05T11:51:47Z</time>
      </trkpt>
      <trkpt lat="43.32752" lon="5.77013">
        <ele>959.5</ele>
        <time>2025-10-05T11:51:48Z</time>
      </trkpt>
      <trkpt lat="43.32753" lon="5.77014">
        <ele>959.8</ele>
        <time>2025-10-05T11:51:49Z</time>
      </trkpt>
      <trkpt lat="43.32753" lon="5.77015">
        <ele>960.2</ele>
        <time>2025-10-05T11:51:50Z</time>
      </trkpt>
      <trkpt lat="43.32753" lon="5.77016">
        <ele>960.2</ele>
        <time>2025-10-05T11:51:51Z</time>
      </trkpt>
      <trkpt lat="43.32753" lon="5.77017">
        <ele>960</ele>
        <time>2025-10-05T11:51:52Z</time>
      </trkpt>
      <trkpt lat="43.32753" lon="5.77017">
        <ele>959.8</ele>
        <time>2025-10-05T11:51:53Z</time>
      </trkpt>
      <trkpt lat="43.32753" lon="5.77016">
        <ele>959.5</ele>
        <time>2025-10-05T11:51:54Z</time>
      </trkpt>
      <trkpt lat="43.32753" lon="5.77016">
        <ele>958.7</ele>
        <time>2025-10-05T11:51:55Z</time>
      </trkpt>
      <trkpt lat="43.32753" lon="5.77015">
        <ele>958.6</ele>
        <time>2025-10-05T11:51:56Z</time>
      </trkpt>
      <trkpt lat="43.32753" lon="5.77014">
        <ele>958.5</ele>
        <time>2025-10-05T11:51:57Z</time>
      </trkpt>
      <trkpt lat="43.32753" lon="5.77014">
        <ele>958.2</ele>
        <time>2025-10-05T11:51:58Z</time>
      </trkpt>
      <trkpt lat="43.32753" lon="5.77014">
        <ele>957.7</ele>
        <time>2025-10-05T11:51:59Z</time>
      </trkpt>
      <trkpt lat="43.32753" lon="5.77014">
        <ele>958</ele>
        <time>2025-10-05T11:52:00Z</time>
      </trkpt>
      <trkpt lat="43.32752" lon="5.77014">
        <ele>957.9</ele>
        <time>2025-10-05T11:52:01Z</time>
      </trkpt>
      <trkpt lat="43.32752" lon="5.77014">
        <ele>958</ele>
        <time>2025-10-05T11:52:02Z</time>
      </trkpt>
      <trkpt lat="43.32752" lon="5.77014">
        <ele>958.2</ele>
        <time>2025-10-05T11:52:03Z</time>
      </trkpt>
      <trkpt lat="43.32752" lon="5.77014">
        <ele>957.8</ele>
        <time>2025-10-05T11:52:04Z</time>
      </trkpt>
      <trkpt lat="43.32752" lon="5.77015">
        <ele>957.5</ele>
        <time>2025-10-05T11:52:05Z</time>
      </trkpt>
      <trkpt lat="43.32752" lon="5.77015">
        <ele>958.2</ele>
        <time>2025-10-05T11:52:06Z</time>
      </trkpt>
      <trkpt lat="43.32752" lon="5.77014">
        <ele>958.1</ele>
        <time>2025-10-05T11:52:07Z</time>
      </trkpt>
      <trkpt lat="43.32752" lon="5.77014">
        <ele>957.9</ele>
        <time>2025-10-05T11:52:08Z</time>
      </trkpt>
      <trkpt lat="43.32752" lon="5.77014">
        <ele>958.1</ele>
        <time>2025-10-05T11:52:09Z</time>
      </trkpt>
      <trkpt lat="43.32752" lon="5.77014">
        <ele>957.8</ele>
        <time>2025-10-05T11:52:10Z</time>
      </trkpt>
      <trkpt lat="43.32752" lon="5.77014">
        <ele>957.3</ele>
        <time>2025-10-05T11:52:11Z</time>
      </trkpt>
      <trkpt lat="43.32752" lon="5.77014">
        <ele>957.5</ele>
        <time>2025-10-05T11:52:12Z</time>
      </trkpt>
      <trkpt lat="43.32752" lon="5.77014">
        <ele>957.4</ele>
        <time>2025-10-05T11:52:13Z</time>
      </trkpt>
      <trkpt lat="43.32752" lon="5.77014">
        <ele>957.4</ele>
        <time>2025-10-05T11:52:14Z</time>
      </trkpt>
      <trkpt lat="43.32752" lon="5.77013">
        <ele>957.4</ele>
        <time>2025-10-05T11:52:15Z</time>
      </trkpt>
      <trkpt lat="43.32752" lon="5.77013">
        <ele>957.7</ele>
        <time>2025-10-05T11:52:16Z</time>
      </trkpt>
      <trkpt lat="43.32752" lon="5.77013">
        <ele>958.9</ele>
        <time>2025-10-05T11:52:17Z</time>
      </trkpt>
      <trkpt lat="43.32753" lon="5.77013">
        <ele>959.6</ele>
        <time>2025-10-05T11:52:18Z</time>
      </trkpt>
      <trkpt lat="43.32753" lon="5.77013">
        <ele>960.3</ele>
        <time>2025-10-05T11:52:19Z</time>
      </trkpt>
      <trkpt lat="43.32753" lon="5.77012">
        <ele>960.9</ele>
        <time>2025-10-05T11:52:20Z</time>
      </trkpt>
      <trkpt lat="43.32753" lon="5.77012">
        <ele>961</ele>
        <time>2025-10-05T11:52:21Z</time>
      </trkpt>
      <trkpt lat="43.32754" lon="5.77012">
        <ele>960.9</ele>
        <time>2025-10-05T11:52:22Z</time>
      </trkpt>
      <trkpt lat="43.32754" lon="5.77012">
        <ele>960.5</ele>
        <time>2025-10-05T11:52:23Z</time>
      </trkpt>
      <trkpt lat="43.32754" lon="5.77012">
        <ele>960.4</ele>
        <time>2025-10-05T11:52:24Z</time>
      </trkpt>
      <trkpt lat="43.32755" lon="5.77012">
        <ele>960.7</ele>
        <time>2025-10-05T11:52:25Z</time>
      </trkpt>
      <trkpt lat="43.32755" lon="5.77013">
        <ele>960.7</ele>
        <time>2025-10-05T11:52:26Z</time>
      </trkpt>
      <trkpt lat="43.32756" lon="5.77013">
        <ele>960.7</ele>
        <time>2025-10-05T11:52:27Z</time>
      </trkpt>
      <trkpt lat="43.32755" lon="5.77013">
        <ele>960.4</ele>
        <time>2025-10-05T11:52:28Z</time>
      </trkpt>
      <trkpt lat="43.32755" lon="5.77013">
        <ele>960.1</ele>
        <time>2025-10-05T11:52:29Z</time>
      </trkpt>
      <trkpt lat="43.32755" lon="5.77013">
        <ele>959.6</ele>
        <time>2025-10-05T11:52:30Z</time>
      </trkpt>
      <trkpt lat="43.32756" lon="5.77013">
        <ele>959.2</ele>
        <time>2025-10-05T11:52:31Z</time>
      </trkpt>
      <trkpt lat="43.32756" lon="5.77013">
        <ele>958.9</ele>
        <time>2025-10-05T11:52:32Z</time>
      </trkpt>
      <trkpt lat="43.32756" lon="5.77014">
        <ele>958.5</ele>
        <time>2025-10-05T11:52:33Z</time>
      </trkpt>
      <trkpt lat="43.32756" lon="5.77014">
        <ele>958.1</ele>
        <time>2025-10-05T11:52:34Z</time>
      </trkpt>
      <trkpt lat="43.32757" lon="5.77013">
        <ele>957.3</ele>
        <time>2025-10-05T11:52:35Z</time>
      </trkpt>
      <trkpt lat="43.32757" lon="5.77013">
        <ele>956.6</ele>
        <time>2025-10-05T11:52:36Z</time>
      </trkpt>
      <trkpt lat="43.32758" lon="5.77014">
        <ele>956</ele>
        <time>2025-10-05T11:52:37Z</time>
      </trkpt>
      <trkpt lat="43.32758" lon="5.77014">
        <ele>955.8</ele>
        <time>2025-10-05T11:52:38Z</time>
      </trkpt>
      <trkpt lat="43.32759" lon="5.77015">
        <ele>955.4</ele>
        <time>2025-10-05T11:52:39Z</time>
      </trkpt>
      <trkpt lat="43.32759" lon="5.77015">
        <ele>954.8</ele>
        <time>2025-10-05T11:52:40Z</time>
      </trkpt>
      <trkpt lat="43.3276" lon="5.77016">
        <ele>954.2</ele>
        <time>2025-10-05T11:52:41Z</time>
      </trkpt>
      <trkpt lat="43.3276" lon="5.77016">
        <ele>953.6</ele>
        <time>2025-10-05T11:52:42Z</time>
      </trkpt>
      <trkpt lat="43.32761" lon="5.77016">
        <ele>953</ele>
        <time>2025-10-05T11:52:43Z</time>
      </trkpt>
      <trkpt lat="43.32761" lon="5.77017">
        <ele>952.5</ele>
        <time>2025-10-05T11:52:44Z</time>
      </trkpt>
      <trkpt lat="43.32762" lon="5.77018">
        <ele>951.8</ele>
        <time>2025-10-05T11:52:45Z</time>
      </trkpt>
      <trkpt lat="43.32762" lon="5.77018">
        <ele>951.4</ele>
        <time>2025-10-05T11:52:46Z</time>
      </trkpt>
      <trkpt lat="43.32763" lon="5.77018">
        <ele>950.9</ele>
        <time>2025-10-05T11:52:47Z</time>
      </trkpt>
      <trkpt lat="43.32763" lon="5.77019">
        <ele>950.3</ele>
        <time>2025-10-05T11:52:48Z</time>
      </trkpt>
      <trkpt lat="43.32763" lon="5.7702">
        <ele>949.9</ele>
        <time>2025-10-05T11:52:49Z</time>
      </trkpt>
      <trkpt lat="43.32764" lon="5.7702">
        <ele>949.5</ele>
        <time>2025-10-05T11:52:50Z</time>
      </trkpt>
      <trkpt lat="43.32764" lon="5.77021">
        <ele>949.4</ele>
        <time>2025-10-05T11:52:51Z</time>
      </trkpt>
      <trkpt lat="43.32765" lon="5.77021">
        <ele>949.3</ele>
        <time>2025-10-05T11:52:52Z</time>
      </trkpt>
      <trkpt lat="43.32765" lon="5.77021">
        <ele>949.3</ele>
        <time>2025-10-05T11:52:53Z</time>
      </trkpt>
      <trkpt lat="43.32766" lon="5.7702">
        <ele>949.3</ele>
        <time>2025-10-05T11:52:54Z</time>
      </trkpt>
      <trkpt lat="43.32766" lon="5.7702">
        <ele>949.4</ele>
        <time>2025-10-05T11:52:55Z</time>
      </trkpt>
      <trkpt lat="43.32767" lon="5.77019">
        <ele>949.3</ele>
        <time>2025-10-05T11:52:56Z</time>
      </trkpt>
      <trkpt lat="43.32767" lon="5.77018">
        <ele>949.1</ele>
        <time>2025-10-05T11:52:57Z</time>
      </trkpt>
      <trkpt lat="43.32766" lon="5.77017">
        <ele>948.9</ele>
        <time>2025-10-05T11:52:58Z</time>
      </trkpt>
      <trkpt lat="43.32766" lon="5.77017">
        <ele>948.5</ele>
        <time>2025-10-05T11:52:59Z</time>
      </trkpt>
      <trkpt lat="43.32766" lon="5.77016">
        <ele>948.2</ele>
        <time>2025-10-05T11:53:00Z</time>
      </trkpt>
      <trkpt lat="43.32766" lon="5.77015">
        <ele>947.7</ele>
        <time>2025-10-05T11:53:01Z</time>
      </trkpt>
      <trkpt lat="43.32766" lon="5.77014">
        <ele>947.4</ele>
        <time>2025-10-05T11:53:02Z</time>
      </trkpt>
      <trkpt lat="43.32766" lon="5.77013">
        <ele>947</ele>
        <time>2025-10-05T11:53:03Z</time>
      </trkpt>
      <trkpt lat="43.32765" lon="5.77012">
        <ele>946.7</ele>
        <time>2025-10-05T11:53:04Z</time>
      </trkpt>
      <trkpt lat="43.32765" lon="5.77011">
        <ele>946.5</ele>
        <time>2025-10-05T11:53:05Z</time>
      </trkpt>
      <trkpt lat="43.32765" lon="5.77011">
        <ele>946.3</ele>
        <time>2025-10-05T11:53:06Z</time>
      </trkpt>
      <trkpt lat="43.32765" lon="5.77011">
        <ele>945.9</ele>
        <time>2025-10-05T11:53:07Z</time>
      </trkpt>
      <trkpt lat="43.32765" lon="5.77011">
        <ele>945.3</ele>
        <time>2025-10-05T11:53:08Z</time>
      </trkpt>
      <trkpt lat="43.32765" lon="5.7701">
        <ele>944.6</ele>
        <time>2025-10-05T11:53:09Z</time>
      </trkpt>
      <trkpt lat="43.32765" lon="5.7701">
        <ele>944.3</ele>
        <time>2025-10-05T11:53:10Z</time>
      </trkpt>
      <trkpt lat="43.32765" lon="5.77009">
        <ele>943.7</ele>
        <time>2025-10-05T11:53:11Z</time>
      </trkpt>
      <trkpt lat="43.32765" lon="5.77009">
        <ele>942.7</ele>
        <time>2025-10-05T11:53:12Z</time>
      </trkpt>
      <trkpt lat="43.32765" lon="5.77009">
        <ele>942.9</ele>
        <time>2025-10-05T11:53:13Z</time>
      </trkpt>
      <trkpt lat="43.32765" lon="5.77008">
        <ele>943.2</ele>
        <time>2025-10-05T11:53:14Z</time>
      </trkpt>
      <trkpt lat="43.32765" lon="5.77008">
        <ele>943.3</ele>
        <time>2025-10-05T11:53:15Z</time>
      </trkpt>
      <trkpt lat="43.32764" lon="5.77007">
        <ele>943.4</ele>
        <time>2025-10-05T11:53:16Z</time>
      </trkpt>
      <trkpt lat="43.32764" lon="5.77006">
        <ele>943.5</ele>
        <time>2025-10-05T11:53:17Z</time>
      </trkpt>
      <trkpt lat="43.32764" lon="5.77005">
        <ele>943.3</ele>
        <time>2025-10-05T11:53:18Z</time>
      </trkpt>
      <trkpt lat="43.32764" lon="5.77005">
        <ele>943.1</ele>
        <time>2025-10-05T11:53:19Z</time>
      </trkpt>
      <trkpt lat="43.32764" lon="5.77004">
        <ele>943.1</ele>
        <time>2025-10-05T11:53:20Z</time>
      </trkpt>
      <trkpt lat="43.32764" lon="5.77004">
        <ele>943.1</ele>
        <time>2025-10-05T11:53:21Z</time>
      </trkpt>
      <trkpt lat="43.32764" lon="5.77003">
        <ele>942.7</ele>
        <time>2025-10-05T11:53:22Z</time>
      </trkpt>
      <trkpt lat="43.32764" lon="5.77003">
        <ele>942.3</ele>
        <time>2025-10-05T11:53:23Z</time>
      </trkpt>
      <trkpt lat="43.32764" lon="5.77003">
        <ele>941.8</ele>
        <time>2025-10-05T11:53:24Z</time>
      </trkpt>
      <trkpt lat="43.32763" lon="5.77002">
        <ele>941.4</ele>
        <time>2025-10-05T11:53:25Z</time>
      </trkpt>
      <trkpt lat="43.32763" lon="5.77002">
        <ele>941.4</ele>
        <time>2025-10-05T11:53:26Z</time>
      </trkpt>
      <trkpt lat="43.32763" lon="5.77001">
        <ele>941.4</ele>
        <time>2025-10-05T11:53:27Z</time>
      </trkpt>
      <trkpt lat="43.32763" lon="5.77">
        <ele>941.4</ele>
        <time>2025-10-05T11:53:28Z</time>
      </trkpt>
      <trkpt lat="43.32762" lon="5.77">
        <ele>941.4</ele>
        <time>2025-10-05T11:53:29Z</time>
      </trkpt>
      <trkpt lat="43.32762" lon="5.77">
        <ele>941.3</ele>
        <time>2025-10-05T11:53:30Z</time>
      </trkpt>
      <trkpt lat="43.32762" lon="5.76999">
        <ele>941.2</ele>
        <time>2025-10-05T11:53:31Z</time>
      </trkpt>
      <trkpt lat="43.32762" lon="5.76999">
        <ele>941.1</ele>
        <time>2025-10-05T11:53:32Z</time>
      </trkpt>
      <trkpt lat="43.32761" lon="5.76998">
        <ele>940.9</ele>
        <time>2025-10-05T11:53:33Z</time>
      </trkpt>
      <trkpt lat="43.32761" lon="5.76998">
        <ele>940.8</ele>
        <time>2025-10-05T11:53:34Z</time>
      </trkpt>
      <trkpt lat="43.32761" lon="5.76997">
        <ele>940.8</ele>
        <time>2025-10-05T11:53:35Z</time>
      </trkpt>
      <trkpt lat="43.3276" lon="5.76996">
        <ele>940.7</ele>
        <time>2025-10-05T11:53:36Z</time>
      </trkpt>
      <trkpt lat="43.3276" lon="5.76996">
        <ele>940.5</ele>
        <time>2025-10-05T11:53:37Z</time>
      </trkpt>
      <trkpt lat="43.32761" lon="5.76995">
        <ele>940.4</ele>
        <time>2025-10-05T11:53:38Z</time>
      </trkpt>
      <trkpt lat="43.3276" lon="5.76994">
        <ele>940.1</ele>
        <time>2025-10-05T11:53:39Z</time>
      </trkpt>
      <trkpt lat="43.3276" lon="5.76994">
        <ele>940</ele>
        <time>2025-10-05T11:53:40Z</time>
      </trkpt>
      <trkpt lat="43.32759" lon="5.76993">
        <ele>939.8</ele>
        <time>2025-10-05T11:53:41Z</time>
      </trkpt>
      <trkpt lat="43.32759" lon="5.76992">
        <ele>939.6</ele>
        <time>2025-10-05T11:53:42Z</time>
      </trkpt>
      <trkpt lat="43.32759" lon="5.76992">
        <ele>939.5</ele>
        <time>2025-10-05T11:53:43Z</time>
      </trkpt>
      <trkpt lat="43.32759" lon="5.76991">
        <ele>939.2</ele>
        <time>2025-10-05T11:53:44Z</time>
      </trkpt>
      <trkpt lat="43.32759" lon="5.7699">
        <ele>939</ele>
        <time>2025-10-05T11:53:45Z</time>
      </trkpt>
      <trkpt lat="43.32759" lon="5.7699">
        <ele>938.9</ele>
        <time>2025-10-05T11:53:46Z</time>
      </trkpt>
      <trkpt lat="43.32759" lon="5.76989">
        <ele>938.8</ele>
        <time>2025-10-05T11:53:47Z</time>
      </trkpt>
      <trkpt lat="43.32759" lon="5.76988">
        <ele>938.7</ele>
        <time>2025-10-05T11:53:48Z</time>
      </trkpt>
      <trkpt lat="43.32759" lon="5.76986">
        <ele>938.5</ele>
        <time>2025-10-05T11:53:49Z</time>
      </trkpt>
      <trkpt lat="43.32758" lon="5.76985">
        <ele>938.3</ele>
        <time>2025-10-05T11:53:50Z</time>
      </trkpt>
      <trkpt lat="43.32758" lon="5.76985">
        <ele>937.9</ele>
        <time>2025-10-05T11:53:51Z</time>
      </trkpt>
      <trkpt lat="43.32757" lon="5.76985">
        <ele>937.6</ele>
        <time>2025-10-05T11:53:52Z</time>
      </trkpt>
      <trkpt lat="43.32758" lon="5.76984">
        <ele>937.4</ele>
        <time>2025-10-05T11:53:53Z</time>
      </trkpt>
      <trkpt lat="43.32758" lon="5.76983">
        <ele>937.2</ele>
        <time>2025-10-05T11:53:54Z</time>
      </trkpt>
      <trkpt lat="43.32758" lon="5.76982">
        <ele>937.2</ele>
        <time>2025-10-05T11:53:55Z</time>
      </trkpt>
      <trkpt lat="43.32758" lon="5.76982">
        <ele>937</ele>
        <time>2025-10-05T11:53:56Z</time>
      </trkpt>
      <trkpt lat="43.32757" lon="5.76981">
        <ele>936.9</ele>
        <time>2025-10-05T11:53:57Z</time>
      </trkpt>
      <trkpt lat="43.32757" lon="5.7698">
        <ele>936.7</ele>
        <time>2025-10-05T11:53:58Z</time>
      </trkpt>
      <trkpt lat="43.32756" lon="5.7698">
        <ele>936.4</ele>
        <time>2025-10-05T11:53:59Z</time>
      </trkpt>
      <trkpt lat="43.32756" lon="5.7698">
        <ele>936.1</ele>
        <time>2025-10-05T11:54:00Z</time>
      </trkpt>
      <trkpt lat="43.32756" lon="5.76978">
        <ele>935.8</ele>
        <time>2025-10-05T11:54:01Z</time>
      </trkpt>
      <trkpt lat="43.32756" lon="5.76977">
        <ele>935.5</ele>
        <time>2025-10-05T11:54:02Z</time>
      </trkpt>
      <trkpt lat="43.32755" lon="5.76977">
        <ele>935.4</ele>
        <time>2025-10-05T11:54:03Z</time>
      </trkpt>
      <trkpt lat="43.32756" lon="5.76976">
        <ele>935.4</ele>
        <time>2025-10-05T11:54:04Z</time>
      </trkpt>
      <trkpt lat="43.32755" lon="5.76974">
        <ele>935.3</ele>
        <time>2025-10-05T11:54:05Z</time>
      </trkpt>
      <trkpt lat="43.32755" lon="5.76974">
        <ele>935.2</ele>
        <time>2025-10-05T11:54:06Z</time>
      </trkpt>
      <trkpt lat="43.32754" lon="5.76973">
        <ele>935.1</ele>
        <time>2025-10-05T11:54:07Z</time>
      </trkpt>
      <trkpt lat="43.32755" lon="5.76972">
        <ele>934.9</ele>
        <time>2025-10-05T11:54:08Z</time>
      </trkpt>
      <trkpt lat="43.32754" lon="5.76971">
        <ele>934.7</ele>
        <time>2025-10-05T11:54:09Z</time>
      </trkpt>
      <trkpt lat="43.32754" lon="5.76971">
        <ele>934.6</ele>
        <time>2025-10-05T11:54:10Z</time>
      </trkpt>
      <trkpt lat="43.32754" lon="5.76971">
        <ele>934.6</ele>
        <time>2025-10-05T11:54:11Z</time>
      </trkpt>
      <trkpt lat="43.32754" lon="5.7697">
        <ele>934.5</ele>
        <time>2025-10-05T11:54:12Z</time>
      </trkpt>
      <trkpt lat="43.32754" lon="5.76969">
        <ele>934.4</ele>
        <time>2025-10-05T11:54:13Z</time>
      </trkpt>
      <trkpt lat="43.32755" lon="5.76969">
        <ele>934.3</ele>
        <time>2025-10-05T11:54:14Z</time>
      </trkpt>
      <trkpt lat="43.32754" lon="5.76968">
        <ele>934.2</ele>
        <time>2025-10-05T11:54:15Z</time>
      </trkpt>
      <trkpt lat="43.32755" lon="5.76967">
        <ele>934</ele>
        <time>2025-10-05T11:54:16Z</time>
      </trkpt>
      <trkpt lat="43.32755" lon="5.76966">
        <ele>933.9</ele>
        <time>2025-10-05T11:54:17Z</time>
      </trkpt>
      <trkpt lat="43.32755" lon="5.76965">
        <ele>933.7</ele>
        <time>2025-10-05T11:54:18Z</time>
      </trkpt>
      <trkpt lat="43.32755" lon="5.76965">
        <ele>933.6</ele>
        <time>2025-10-05T11:54:19Z</time>
      </trkpt>
      <trkpt lat="43.32755" lon="5.76964">
        <ele>933.5</ele>
        <time>2025-10-05T11:54:20Z</time>
      </trkpt>
      <trkpt lat="43.32755" lon="5.76963">
        <ele>933.2</ele>
        <time>2025-10-05T11:54:21Z</time>
      </trkpt>
      <trkpt lat="43.32756" lon="5.76962">
        <ele>933</ele>
        <time>2025-10-05T11:54:22Z</time>
      </trkpt>
      <trkpt lat="43.32755" lon="5.76961">
        <ele>932.8</ele>
        <time>2025-10-05T11:54:23Z</time>
      </trkpt>
      <trkpt lat="43.32755" lon="5.7696">
        <ele>932.7</ele>
        <time>2025-10-05T11:54:24Z</time>
      </trkpt>
      <trkpt lat="43.32755" lon="5.76958">
        <ele>932.5</ele>
        <time>2025-10-05T11:54:25Z</time>
      </trkpt>
      <trkpt lat="43.32755" lon="5.76958">
        <ele>932.3</ele>
        <time>2025-10-05T11:54:26Z</time>
      </trkpt>
      <trkpt lat="43.32756" lon="5.76957">
        <ele>932.1</ele>
        <time>2025-10-05T11:54:27Z</time>
      </trkpt>
      <trkpt lat="43.32756" lon="5.76956">
        <ele>931.8</ele>
        <time>2025-10-05T11:54:28Z</time>
      </trkpt>
      <trkpt lat="43.32757" lon="5.76956">
        <ele>931.6</ele>
        <time>2025-10-05T11:54:29Z</time>
      </trkpt>
      <trkpt lat="43.32757" lon="5.76955">
        <ele>931.4</ele>
        <time>2025-10-05T11:54:30Z</time>
      </trkpt>
      <trkpt lat="43.32757" lon="5.76955">
        <ele>931.2</ele>
        <time>2025-10-05T11:54:31Z</time>
      </trkpt>
      <trkpt lat="43.32758" lon="5.76954">
        <ele>931.1</ele>
        <time>2025-10-05T11:54:32Z</time>
      </trkpt>
      <trkpt lat="43.32758" lon="5.76953">
        <ele>931</ele>
        <time>2025-10-05T11:54:33Z</time>
      </trkpt>
      <trkpt lat="43.32758" lon="5.76953">
        <ele>930.9</ele>
        <time>2025-10-05T11:54:34Z</time>
      </trkpt>
      <trkpt lat="43.32759" lon="5.76953">
        <ele>930.7</ele>
        <time>2025-10-05T11:54:35Z</time>
      </trkpt>
      <trkpt lat="43.3276" lon="5.76952">
        <ele>930.5</ele>
        <time>2025-10-05T11:54:36Z</time>
      </trkpt>
      <trkpt lat="43.32759" lon="5.76952">
        <ele>930.3</ele>
        <time>2025-10-05T11:54:37Z</time>
      </trkpt>
      <trkpt lat="43.3276" lon="5.76951">
        <ele>930.2</ele>
        <time>2025-10-05T11:54:38Z</time>
      </trkpt>
      <trkpt lat="43.32759" lon="5.76951">
        <ele>930.1</ele>
        <time>2025-10-05T11:54:39Z</time>
      </trkpt>
      <trkpt lat="43.3276" lon="5.76951">
        <ele>930</ele>
        <time>2025-10-05T11:54:40Z</time>
      </trkpt>
      <trkpt lat="43.32761" lon="5.76951">
        <ele>929.7</ele>
        <time>2025-10-05T11:54:41Z</time>
      </trkpt>
      <trkpt lat="43.32762" lon="5.76951">
        <ele>929.6</ele>
        <time>2025-10-05T11:54:42Z</time>
      </trkpt>
      <trkpt lat="43.32761" lon="5.76952">
        <ele>929.4</ele>
        <time>2025-10-05T11:54:43Z</time>
      </trkpt>
      <trkpt lat="43.32761" lon="5.76952">
        <ele>929.3</ele>
        <time>2025-10-05T11:54:44Z</time>
      </trkpt>
      <trkpt lat="43.32761" lon="5.76951">
        <ele>929.2</ele>
        <time>2025-10-05T11:54:45Z</time>
      </trkpt>
      <trkpt lat="43.32761" lon="5.76951">
        <ele>929</ele>
        <time>2025-10-05T11:54:46Z</time>
      </trkpt>
      <trkpt lat="43.32762" lon="5.76951">
        <ele>928.8</ele>
        <time>2025-10-05T11:54:47Z</time>
      </trkpt>
      <trkpt lat="43.32762" lon="5.76951">
        <ele>928.6</ele>
        <time>2025-10-05T11:54:48Z</time>
      </trkpt>
      <trkpt lat="43.32763" lon="5.76952">
        <ele>928.3</ele>
        <time>2025-10-05T11:54:49Z</time>
      </trkpt>
      <trkpt lat="43.32763" lon="5.76951">
        <ele>928.1</ele>
        <time>2025-10-05T11:54:50Z</time>
      </trkpt>
      <trkpt lat="43.32763" lon="5.76951">
        <ele>927.9</ele>
        <time>2025-10-05T11:54:51Z</time>
      </trkpt>
      <trkpt lat="43.32764" lon="5.76951">
        <ele>927.7</ele>
        <time>2025-10-05T11:54:52Z</time>
      </trkpt>
      <trkpt lat="43.32764" lon="5.76952">
        <ele>927.5</ele>
        <time>2025-10-05T11:54:53Z</time>
      </trkpt>
      <trkpt lat="43.32765" lon="5.76952">
        <ele>927.4</ele>
        <time>2025-10-05T11:54:54Z</time>
      </trkpt>
      <trkpt lat="43.32766" lon="5.76952">
        <ele>927.2</ele>
        <time>2025-10-05T11:54:55Z</time>
      </trkpt>
      <trkpt lat="43.32766" lon="5.76953">
        <ele>927.1</ele>
        <time>2025-10-05T11:54:56Z</time>
      </trkpt>
      <trkpt lat="43.32766" lon="5.76953">
        <ele>927</ele>
        <time>2025-10-05T11:54:57Z</time>
      </trkpt>
      <trkpt lat="43.32766" lon="5.76953">
        <ele>926.9</ele>
        <time>2025-10-05T11:54:58Z</time>
      </trkpt>
      <trkpt lat="43.32767" lon="5.76952">
        <ele>926.6</ele>
        <time>2025-10-05T11:54:59Z</time>
      </trkpt>
      <trkpt lat="43.32766" lon="5.76952">
        <ele>926.3</ele>
        <time>2025-10-05T11:55:00Z</time>
      </trkpt>
      <trkpt lat="43.32767" lon="5.76952">
        <ele>926</ele>
        <time>2025-10-05T11:55:01Z</time>
      </trkpt>
      <trkpt lat="43.32767" lon="5.76953">
        <ele>925.7</ele>
        <time>2025-10-05T11:55:02Z</time>
      </trkpt>
      <trkpt lat="43.32769" lon="5.76954">
        <ele>925.5</ele>
        <time>2025-10-05T11:55:03Z</time>
      </trkpt>
      <trkpt lat="43.3277" lon="5.76954">
        <ele>925.3</ele>
        <time>2025-10-05T11:55:04Z</time>
      </trkpt>
      <trkpt lat="43.3277" lon="5.76955">
        <ele>925.2</ele>
        <time>2025-10-05T11:55:05Z</time>
      </trkpt>
      <trkpt lat="43.3277" lon="5.76955">
        <ele>924.9</ele>
        <time>2025-10-05T11:55:06Z</time>
      </trkpt>
      <trkpt lat="43.3277" lon="5.76956">
        <ele>924.6</ele>
        <time>2025-10-05T11:55:07Z</time>
      </trkpt>
      <trkpt lat="43.32769" lon="5.76957">
        <ele>924.3</ele>
        <time>2025-10-05T11:55:08Z</time>
      </trkpt>
      <trkpt lat="43.32768" lon="5.76958">
        <ele>924.1</ele>
        <time>2025-10-05T11:55:09Z</time>
      </trkpt>
      <trkpt lat="43.32766" lon="5.76958">
        <ele>923.8</ele>
        <time>2025-10-05T11:55:10Z</time>
      </trkpt>
      <trkpt lat="43.32765" lon="5.76959">
        <ele>923.6</ele>
        <time>2025-10-05T11:55:11Z</time>
      </trkpt>
      <trkpt lat="43.32764" lon="5.76961">
        <ele>923.5</ele>
        <time>2025-10-05T11:55:12Z</time>
      </trkpt>
      <trkpt lat="43.32765" lon="5.76961">
        <ele>923.2</ele>
        <time>2025-10-05T11:55:13Z</time>
      </trkpt>
      <trkpt lat="43.32766" lon="5.76962">
        <ele>923</ele>
        <time>2025-10-05T11:55:14Z</time>
      </trkpt>
      <trkpt lat="43.32766" lon="5.76961">
        <ele>922.9</ele>
        <time>2025-10-05T11:55:15Z</time>
      </trkpt>
      <trkpt lat="43.32767" lon="5.76961">
        <ele>922.7</ele>
        <time>2025-10-05T11:55:16Z</time>
      </trkpt>
      <trkpt lat="43.32766" lon="5.76962">
        <ele>922.5</ele>
        <time>2025-10-05T11:55:17Z</time>
      </trkpt>
      <trkpt lat="43.32766" lon="5.76962">
        <ele>922.4</ele>
        <time>2025-10-05T11:55:18Z</time>
      </trkpt>
      <trkpt lat="43.32767" lon="5.76962">
        <ele>922.1</ele>
        <time>2025-10-05T11:55:19Z</time>
      </trkpt>
      <trkpt lat="43.32768" lon="5.76963">
        <ele>921.9</ele>
        <time>2025-10-05T11:55:20Z</time>
      </trkpt>
      <trkpt lat="43.32768" lon="5.76963">
        <ele>921.6</ele>
        <time>2025-10-05T11:55:21Z</time>
      </trkpt>
      <trkpt lat="43.32769" lon="5.76962">
        <ele>921.4</ele>
        <time>2025-10-05T11:55:22Z</time>
      </trkpt>
      <trkpt lat="43.3277" lon="5.76963">
        <ele>921.1</ele>
        <time>2025-10-05T11:55:23Z</time>
      </trkpt>
      <trkpt lat="43.3277" lon="5.76963">
        <ele>920.9</ele>
        <time>2025-10-05T11:55:24Z</time>
      </trkpt>
      <trkpt lat="43.32771" lon="5.76963">
        <ele>920.7</ele>
        <time>2025-10-05T11:55:25Z</time>
      </trkpt>
      <trkpt lat="43.32772" lon="5.76963">
        <ele>920.4</ele>
        <time>2025-10-05T11:55:26Z</time>
      </trkpt>
      <trkpt lat="43.32773" lon="5.76963">
        <ele>920.2</ele>
        <time>2025-10-05T11:55:27Z</time>
      </trkpt>
      <trkpt lat="43.32773" lon="5.76963">
        <ele>920</ele>
        <time>2025-10-05T11:55:28Z</time>
      </trkpt>
      <trkpt lat="43.32774" lon="5.76964">
        <ele>919.9</ele>
        <time>2025-10-05T11:55:29Z</time>
      </trkpt>
      <trkpt lat="43.32776" lon="5.76963">
        <ele>919.8</ele>
        <time>2025-10-05T11:55:30Z</time>
      </trkpt>
      <trkpt lat="43.32776" lon="5.76963">
        <ele>919.5</ele>
        <time>2025-10-05T11:55:31Z</time>
      </trkpt>
      <trkpt lat="43.32777" lon="5.76964">
        <ele>919.3</ele>
        <time>2025-10-05T11:55:32Z</time>
      </trkpt>
      <trkpt lat="43.32777" lon="5.76964">
        <ele>919.3</ele>
        <time>2025-10-05T11:55:33Z</time>
      </trkpt>
      <trkpt lat="43.32777" lon="5.76964">
        <ele>919.3</ele>
        <time>2025-10-05T11:55:34Z</time>
      </trkpt>
      <trkpt lat="43.32778" lon="5.76964">
        <ele>919.2</ele>
        <time>2025-10-05T11:55:35Z</time>
      </trkpt>
      <trkpt lat="43.32779" lon="5.76964">
        <ele>919.1</ele>
        <time>2025-10-05T11:55:36Z</time>
      </trkpt>
      <trkpt lat="43.3278" lon="5.76964">
        <ele>918.8</ele>
        <time>2025-10-05T11:55:37Z</time>
      </trkpt>
      <trkpt lat="43.32781" lon="5.76964">
        <ele>918.7</ele>
        <time>2025-10-05T11:55:38Z</time>
      </trkpt>
      <trkpt lat="43.32782" lon="5.76964">
        <ele>918.5</ele>
        <time>2025-10-05T11:55:39Z</time>
      </trkpt>
      <trkpt lat="43.32782" lon="5.76964">
        <ele>918.4</ele>
        <time>2025-10-05T11:55:40Z</time>
      </trkpt>
      <trkpt lat="43.32782" lon="5.76965">
        <ele>918.2</ele>
        <time>2025-10-05T11:55:41Z</time>
      </trkpt>
      <trkpt lat="43.32783" lon="5.76965">
        <ele>918</ele>
        <time>2025-10-05T11:55:42Z</time>
      </trkpt>
      <trkpt lat="43.32783" lon="5.76965">
        <ele>917.7</ele>
        <time>2025-10-05T11:55:43Z</time>
      </trkpt>
      <trkpt lat="43.32782" lon="5.76966">
        <ele>917.5</ele>
        <time>2025-10-05T11:55:44Z</time>
      </trkpt>
      <trkpt lat="43.32783" lon="5.76966">
        <ele>917.3</ele>
        <time>2025-10-05T11:55:45Z</time>
      </trkpt>
      <trkpt lat="43.32784" lon="5.76966">
        <ele>917.2</ele>
        <time>2025-10-05T11:55:46Z</time>
      </trkpt>
      <trkpt lat="43.32785" lon="5.76966">
        <ele>916.8</ele>
        <time>2025-10-05T11:55:47Z</time>
      </trkpt>
      <trkpt lat="43.32786" lon="5.76966">
        <ele>916.5</ele>
        <time>2025-10-05T11:55:48Z</time>
      </trkpt>
      <trkpt lat="43.32787" lon="5.76967">
        <ele>916.3</ele>
        <time>2025-10-05T11:55:49Z</time>
      </trkpt>
      <trkpt lat="43.32787" lon="5.76967">
        <ele>916.1</ele>
        <time>2025-10-05T11:55:50Z</time>
      </trkpt>
      <trkpt lat="43.32788" lon="5.76968">
        <ele>915.7</ele>
        <time>2025-10-05T11:55:51Z</time>
      </trkpt>
      <trkpt lat="43.32788" lon="5.76968">
        <ele>915.3</ele>
        <time>2025-10-05T11:55:52Z</time>
      </trkpt>
      <trkpt lat="43.32788" lon="5.76969">
        <ele>915</ele>
        <time>2025-10-05T11:55:53Z</time>
      </trkpt>
      <trkpt lat="43.32789" lon="5.76969">
        <ele>914.7</ele>
        <time>2025-10-05T11:55:54Z</time>
      </trkpt>
      <trkpt lat="43.3279" lon="5.76969">
        <ele>914.5</ele>
        <time>2025-10-05T11:55:55Z</time>
      </trkpt>
      <trkpt lat="43.32791" lon="5.7697">
        <ele>914.4</ele>
        <time>2025-10-05T11:55:56Z</time>
      </trkpt>
      <trkpt lat="43.32792" lon="5.7697">
        <ele>914.3</ele>
        <time>2025-10-05T11:55:57Z</time>
      </trkpt>
      <trkpt lat="43.32792" lon="5.7697">
        <ele>914.1</ele>
        <time>2025-10-05T11:55:58Z</time>
      </trkpt>
      <trkpt lat="43.32793" lon="5.76971">
        <ele>913.9</ele>
        <time>2025-10-05T11:55:59Z</time>
      </trkpt>
      <trkpt lat="43.32793" lon="5.76971">
        <ele>913.7</ele>
        <time>2025-10-05T11:56:00Z</time>
      </trkpt>
      <trkpt lat="43.32793" lon="5.76972">
        <ele>913.4</ele>
        <time>2025-10-05T11:56:01Z</time>
      </trkpt>
      <trkpt lat="43.32793" lon="5.76972">
        <ele>913.3</ele>
        <time>2025-10-05T11:56:02Z</time>
      </trkpt>
      <trkpt lat="43.32793" lon="5.76972">
        <ele>913</ele>
        <time>2025-10-05T11:56:03Z</time>
      </trkpt>
      <trkpt lat="43.32793" lon="5.76973">
        <ele>912.9</ele>
        <time>2025-10-05T11:56:04Z</time>
      </trkpt>
      <trkpt lat="43.32794" lon="5.76973">
        <ele>912.8</ele>
        <time>2025-10-05T11:56:05Z</time>
      </trkpt>
      <trkpt lat="43.32795" lon="5.76973">
        <ele>912.8</ele>
        <time>2025-10-05T11:56:06Z</time>
      </trkpt>
      <trkpt lat="43.32794" lon="5.76973">
        <ele>912.7</ele>
        <time>2025-10-05T11:56:07Z</time>
      </trkpt>
      <trkpt lat="43.32795" lon="5.76973">
        <ele>912.6</ele>
        <time>2025-10-05T11:56:08Z</time>
      </trkpt>
      <trkpt lat="43.32795" lon="5.76974">
        <ele>912.5</ele>
        <time>2025-10-05T11:56:09Z</time>
      </trkpt>
      <trkpt lat="43.32796" lon="5.76974">
        <ele>912.5</ele>
        <time>2025-10-05T11:56:10Z</time>
      </trkpt>
      <trkpt lat="43.32796" lon="5.76975">
        <ele>912.4</ele>
        <time>2025-10-05T11:56:11Z</time>
      </trkpt>
      <trkpt lat="43.32796" lon="5.76975">
        <ele>912.4</ele>
        <time>2025-10-05T11:56:12Z</time>
      </trkpt>
      <trkpt lat="43.32797" lon="5.76975">
        <ele>912.3</ele>
        <time>2025-10-05T11:56:13Z</time>
      </trkpt>
      <trkpt lat="43.32797" lon="5.76976">
        <ele>912.3</ele>
        <time>2025-10-05T11:56:14Z</time>
      </trkpt>
      <trkpt lat="43.32797" lon="5.76976">
        <ele>912.4</ele>
        <time>2025-10-05T11:56:15Z</time>
      </trkpt>
      <trkpt lat="43.32797" lon="5.76977">
        <ele>912.5</ele>
        <time>2025-10-05T11:56:16Z</time>
      </trkpt>
      <trkpt lat="43.32798" lon="5.76977">
        <ele>912.5</ele>
        <time>2025-10-05T11:56:17Z</time>
      </trkpt>
      <trkpt lat="43.32798" lon="5.76977">
        <ele>912.5</ele>
        <time>2025-10-05T11:56:18Z</time>
      </trkpt>
      <trkpt lat="43.32797" lon="5.76978">
        <ele>912.4</ele>
        <time>2025-10-05T11:56:19Z</time>
      </trkpt>
      <trkpt lat="43.32798" lon="5.76978">
        <ele>912.5</ele>
        <time>2025-10-05T11:56:20Z</time>
      </trkpt>
      <trkpt lat="43.32797" lon="5.76979">
        <ele>912.4</ele>
        <time>2025-10-05T11:56:21Z</time>
      </trkpt>
      <trkpt lat="43.32799" lon="5.76979">
        <ele>912.3</ele>
        <time>2025-10-05T11:56:22Z</time>
      </trkpt>
      <trkpt lat="43.32799" lon="5.76979">
        <ele>912.3</ele>
        <time>2025-10-05T11:56:23Z</time>
      </trkpt>
      <trkpt lat="43.328" lon="5.7698">
        <ele>912.2</ele>
        <time>2025-10-05T11:56:24Z</time>
      </trkpt>
      <trkpt lat="43.328" lon="5.7698">
        <ele>912.2</ele>
        <time>2025-10-05T11:56:25Z</time>
      </trkpt>
      <trkpt lat="43.328" lon="5.7698">
        <ele>912.1</ele>
        <time>2025-10-05T11:56:26Z</time>
      </trkpt>
      <trkpt lat="43.32801" lon="5.7698">
        <ele>912.1</ele>
        <time>2025-10-05T11:56:27Z</time>
      </trkpt>
      <trkpt lat="43.32801" lon="5.76981">
        <ele>912.1</ele>
        <time>2025-10-05T11:56:28Z</time>
      </trkpt>
      <trkpt lat="43.32801" lon="5.76982">
        <ele>912</ele>
        <time>2025-10-05T11:56:29Z</time>
      </trkpt>
      <trkpt lat="43.32802" lon="5.76982">
        <ele>912</ele>
        <time>2025-10-05T11:56:30Z</time>
      </trkpt>
      <trkpt lat="43.32802" lon="5.76982">
        <ele>911.8</ele>
        <time>2025-10-05T11:56:31Z</time>
      </trkpt>
      <trkpt lat="43.32803" lon="5.76983">
        <ele>911.6</ele>
        <time>2025-10-05T11:56:32Z</time>
      </trkpt>
      <trkpt lat="43.32803" lon="5.76983">
        <ele>911.5</ele>
        <time>2025-10-05T11:56:33Z</time>
      </trkpt>
      <trkpt lat="43.32804" lon="5.76983">
        <ele>911.4</ele>
        <time>2025-10-05T11:56:34Z</time>
      </trkpt>
      <trkpt lat="43.32804" lon="5.76984">
        <ele>911.3</ele>
        <time>2025-10-05T11:56:35Z</time>
      </trkpt>
      <trkpt lat="43.32804" lon="5.76984">
        <ele>911.2</ele>
        <time>2025-10-05T11:56:36Z</time>
      </trkpt>
      <trkpt lat="43.32805" lon="5.76984">
        <ele>911.2</ele>
        <time>2025-10-05T11:56:37Z</time>
      </trkpt>
      <trkpt lat="43.32805" lon="5.76984">
        <ele>911.2</ele>
        <time>2025-10-05T11:56:38Z</time>
      </trkpt>
      <trkpt lat="43.32805" lon="5.76985">
        <ele>911.3</ele>
        <time>2025-10-05T11:56:39Z</time>
      </trkpt>
      <trkpt lat="43.32805" lon="5.76985">
        <ele>911.4</ele>
        <time>2025-10-05T11:56:40Z</time>
      </trkpt>
      <trkpt lat="43.32806" lon="5.76986">
        <ele>911.4</ele>
        <time>2025-10-05T11:56:41Z</time>
      </trkpt>
      <trkpt lat="43.32807" lon="5.76986">
        <ele>911.4</ele>
        <time>2025-10-05T11:56:42Z</time>
      </trkpt>
      <trkpt lat="43.32807" lon="5.76987">
        <ele>911.2</ele>
        <time>2025-10-05T11:56:43Z</time>
      </trkpt>
      <trkpt lat="43.32808" lon="5.76987">
        <ele>911</ele>
        <time>2025-10-05T11:56:44Z</time>
      </trkpt>
      <trkpt lat="43.32808" lon="5.76987">
        <ele>910.8</ele>
        <time>2025-10-05T11:56:45Z</time>
      </trkpt>
      <trkpt lat="43.32808" lon="5.76988">
        <ele>910.6</ele>
        <time>2025-10-05T11:56:46Z</time>
      </trkpt>
      <trkpt lat="43.32808" lon="5.76988">
        <ele>910.4</ele>
        <time>2025-10-05T11:56:47Z</time>
      </trkpt>
      <trkpt lat="43.32807" lon="5.76989">
        <ele>910.4</ele>
        <time>2025-10-05T11:56:48Z</time>
      </trkpt>
      <trkpt lat="43.32807" lon="5.76989">
        <ele>910.2</ele>
        <time>2025-10-05T11:56:49Z</time>
      </trkpt>
      <trkpt lat="43.32807" lon="5.7699">
        <ele>910</ele>
        <time>2025-10-05T11:56:50Z</time>
      </trkpt>
      <trkpt lat="43.32807" lon="5.7699">
        <ele>909.9</ele>
        <time>2025-10-05T11:56:51Z</time>
      </trkpt>
      <trkpt lat="43.32807" lon="5.7699">
        <ele>909.8</ele>
        <time>2025-10-05T11:56:52Z</time>
      </trkpt>
      <trkpt lat="43.32807" lon="5.76991">
        <ele>909.7</ele>
        <time>2025-10-05T11:56:53Z</time>
      </trkpt>
      <trkpt lat="43.32807" lon="5.76992">
        <ele>909.6</ele>
        <time>2025-10-05T11:56:54Z</time>
      </trkpt>
      <trkpt lat="43.32807" lon="5.76993">
        <ele>909.6</ele>
        <time>2025-10-05T11:56:55Z</time>
      </trkpt>
      <trkpt lat="43.32807" lon="5.76993">
        <ele>909.4</ele>
        <time>2025-10-05T11:56:56Z</time>
      </trkpt>
      <trkpt lat="43.32807" lon="5.76993">
        <ele>909.2</ele>
        <time>2025-10-05T11:56:57Z</time>
      </trkpt>
      <trkpt lat="43.32807" lon="5.76994">
        <ele>908.9</ele>
        <time>2025-10-05T11:56:58Z</time>
      </trkpt>
      <trkpt lat="43.32807" lon="5.76994">
        <ele>908.6</ele>
        <time>2025-10-05T11:56:59Z</time>
      </trkpt>
      <trkpt lat="43.32807" lon="5.76995">
        <ele>908.5</ele>
        <time>2025-10-05T11:57:00Z</time>
      </trkpt>
      <trkpt lat="43.32807" lon="5.76995">
        <ele>908.5</ele>
        <time>2025-10-05T11:57:01Z</time>
      </trkpt>
      <trkpt lat="43.32808" lon="5.76995">
        <ele>908.2</ele>
        <time>2025-10-05T11:57:02Z</time>
      </trkpt>
      <trkpt lat="43.32807" lon="5.76996">
        <ele>908.1</ele>
        <time>2025-10-05T11:57:03Z</time>
      </trkpt>
      <trkpt lat="43.32807" lon="5.76996">
        <ele>907.8</ele>
        <time>2025-10-05T11:57:04Z</time>
      </trkpt>
      <trkpt lat="43.32808" lon="5.76996">
        <ele>907.6</ele>
        <time>2025-10-05T11:57:05Z</time>
      </trkpt>
      <trkpt lat="43.32809" lon="5.76996">
        <ele>907.4</ele>
        <time>2025-10-05T11:57:06Z</time>
      </trkpt>
      <trkpt lat="43.3281" lon="5.76996">
        <ele>907.3</ele>
        <time>2025-10-05T11:57:07Z</time>
      </trkpt>
      <trkpt lat="43.3281" lon="5.76996">
        <ele>907.1</ele>
        <time>2025-10-05T11:57:08Z</time>
      </trkpt>
      <trkpt lat="43.32811" lon="5.76997">
        <ele>906.9</ele>
        <time>2025-10-05T11:57:09Z</time>
      </trkpt>
      <trkpt lat="43.32811" lon="5.76997">
        <ele>906.8</ele>
        <time>2025-10-05T11:57:10Z</time>
      </trkpt>
      <trkpt lat="43.32811" lon="5.76998">
        <ele>906.9</ele>
        <time>2025-10-05T11:57:11Z</time>
      </trkpt>
      <trkpt lat="43.32811" lon="5.76999">
        <ele>907</ele>
        <time>2025-10-05T11:57:12Z</time>
      </trkpt>
      <trkpt lat="43.32811" lon="5.76999">
        <ele>906.9</ele>
        <time>2025-10-05T11:57:13Z</time>
      </trkpt>
      <trkpt lat="43.32811" lon="5.77">
        <ele>906.8</ele>
        <time>2025-10-05T11:57:14Z</time>
      </trkpt>
      <trkpt lat="43.32812" lon="5.77">
        <ele>906.7</ele>
        <time>2025-10-05T11:57:15Z</time>
      </trkpt>
      <trkpt lat="43.32813" lon="5.77001">
        <ele>906.7</ele>
        <time>2025-10-05T11:57:16Z</time>
      </trkpt>
      <trkpt lat="43.32814" lon="5.77001">
        <ele>906.7</ele>
        <time>2025-10-05T11:57:17Z</time>
      </trkpt>
      <trkpt lat="43.32814" lon="5.77002">
        <ele>906.6</ele>
        <time>2025-10-05T11:57:18Z</time>
      </trkpt>
      <trkpt lat="43.32814" lon="5.77002">
        <ele>906.5</ele>
        <time>2025-10-05T11:57:19Z</time>
      </trkpt>
      <trkpt lat="43.32814" lon="5.77003">
        <ele>906.3</ele>
        <time>2025-10-05T11:57:20Z</time>
      </trkpt>
      <trkpt lat="43.32814" lon="5.77003">
        <ele>906.2</ele>
        <time>2025-10-05T11:57:21Z</time>
      </trkpt>
      <trkpt lat="43.32815" lon="5.77003">
        <ele>906.1</ele>
        <time>2025-10-05T11:57:22Z</time>
      </trkpt>
      <trkpt lat="43.32815" lon="5.77003">
        <ele>906.1</ele>
        <time>2025-10-05T11:57:23Z</time>
      </trkpt>
      <trkpt lat="43.32815" lon="5.77002">
        <ele>906</ele>
        <time>2025-10-05T11:57:24Z</time>
      </trkpt>
      <trkpt lat="43.32815" lon="5.77002">
        <ele>906.1</ele>
        <time>2025-10-05T11:57:25Z</time>
      </trkpt>
      <trkpt lat="43.32814" lon="5.77001">
        <ele>906.1</ele>
        <time>2025-10-05T11:57:26Z</time>
      </trkpt>
      <trkpt lat="43.32814" lon="5.77001">
        <ele>905.9</ele>
        <time>2025-10-05T11:57:27Z</time>
      </trkpt>
      <trkpt lat="43.32814" lon="5.77001">
        <ele>905.8</ele>
        <time>2025-10-05T11:57:28Z</time>
      </trkpt>
      <trkpt lat="43.32814" lon="5.77">
        <ele>905.7</ele>
        <time>2025-10-05T11:57:29Z</time>
      </trkpt>
      <trkpt lat="43.32813" lon="5.77">
        <ele>905.7</ele>
        <time>2025-10-05T11:57:30Z</time>
      </trkpt>
      <trkpt lat="43.32813" lon="5.76999">
        <ele>905.7</ele>
        <time>2025-10-05T11:57:31Z</time>
      </trkpt>
      <trkpt lat="43.32812" lon="5.76999">
        <ele>905.6</ele>
        <time>2025-10-05T11:57:32Z</time>
      </trkpt>
      <trkpt lat="43.32812" lon="5.76999">
        <ele>905.5</ele>
        <time>2025-10-05T11:57:33Z</time>
      </trkpt>
      <trkpt lat="43.32812" lon="5.76998">
        <ele>905.4</ele>
        <time>2025-10-05T11:57:34Z</time>
      </trkpt>
      <trkpt lat="43.32812" lon="5.76998">
        <ele>905.3</ele>
        <time>2025-10-05T11:57:35Z</time>
      </trkpt>
      <trkpt lat="43.32812" lon="5.76998">
        <ele>905.1</ele>
        <time>2025-10-05T11:57:36Z</time>
      </trkpt>
      <trkpt lat="43.32812" lon="5.76997">
        <ele>905</ele>
        <time>2025-10-05T11:57:37Z</time>
      </trkpt>
      <trkpt lat="43.32812" lon="5.76997">
        <ele>904.9</ele>
        <time>2025-10-05T11:57:38Z</time>
      </trkpt>
      <trkpt lat="43.32812" lon="5.76996">
        <ele>904.6</ele>
        <time>2025-10-05T11:57:39Z</time>
      </trkpt>
      <trkpt lat="43.32812" lon="5.76996">
        <ele>904.4</ele>
        <time>2025-10-05T11:57:40Z</time>
      </trkpt>
      <trkpt lat="43.32813" lon="5.76996">
        <ele>904.2</ele>
        <time>2025-10-05T11:57:41Z</time>
      </trkpt>
      <trkpt lat="43.32813" lon="5.76995">
        <ele>904</ele>
        <time>2025-10-05T11:57:42Z</time>
      </trkpt>
      <trkpt lat="43.32814" lon="5.76995">
        <ele>903.8</ele>
        <time>2025-10-05T11:57:43Z</time>
      </trkpt>
      <trkpt lat="43.32814" lon="5.76993">
        <ele>903.6</ele>
        <time>2025-10-05T11:57:44Z</time>
      </trkpt>
      <trkpt lat="43.32815" lon="5.76993">
        <ele>903.4</ele>
        <time>2025-10-05T11:57:45Z</time>
      </trkpt>
      <trkpt lat="43.32814" lon="5.76993">
        <ele>903.2</ele>
        <time>2025-10-05T11:57:46Z</time>
      </trkpt>
      <trkpt lat="43.32815" lon="5.76992">
        <ele>903</ele>
        <time>2025-10-05T11:57:47Z</time>
      </trkpt>
      <trkpt lat="43.32815" lon="5.76991">
        <ele>902.7</ele>
        <time>2025-10-05T11:57:48Z</time>
      </trkpt>
      <trkpt lat="43.32815" lon="5.7699">
        <ele>902.5</ele>
        <time>2025-10-05T11:57:49Z</time>
      </trkpt>
      <trkpt lat="43.32816" lon="5.7699">
        <ele>902.3</ele>
        <time>2025-10-05T11:57:50Z</time>
      </trkpt>
      <trkpt lat="43.32816" lon="5.76989">
        <ele>902.1</ele>
        <time>2025-10-05T11:57:51Z</time>
      </trkpt>
      <trkpt lat="43.32816" lon="5.76988">
        <ele>901.7</ele>
        <time>2025-10-05T11:57:52Z</time>
      </trkpt>
      <trkpt lat="43.32817" lon="5.76987">
        <ele>901.4</ele>
        <time>2025-10-05T11:57:53Z</time>
      </trkpt>
      <trkpt lat="43.32817" lon="5.76986">
        <ele>901.2</ele>
        <time>2025-10-05T11:57:54Z</time>
      </trkpt>
      <trkpt lat="43.32817" lon="5.76985">
        <ele>901</ele>
        <time>2025-10-05T11:57:55Z</time>
      </trkpt>
      <trkpt lat="43.32817" lon="5.76985">
        <ele>900.8</ele>
        <time>2025-10-05T11:57:56Z</time>
      </trkpt>
      <trkpt lat="43.32816" lon="5.76984">
        <ele>900.7</ele>
        <time>2025-10-05T11:57:57Z</time>
      </trkpt>
      <trkpt lat="43.32817" lon="5.76983">
        <ele>900.5</ele>
        <time>2025-10-05T11:57:58Z</time>
      </trkpt>
      <trkpt lat="43.32816" lon="5.76983">
        <ele>900.4</ele>
        <time>2025-10-05T11:57:59Z</time>
      </trkpt>
      <trkpt lat="43.32817" lon="5.76982">
        <ele>900.3</ele>
        <time>2025-10-05T11:58:00Z</time>
      </trkpt>
      <trkpt lat="43.32817" lon="5.76981">
        <ele>900.1</ele>
        <time>2025-10-05T11:58:01Z</time>
      </trkpt>
      <trkpt lat="43.32817" lon="5.7698">
        <ele>900</ele>
        <time>2025-10-05T11:58:02Z</time>
      </trkpt>
      <trkpt lat="43.32817" lon="5.7698">
        <ele>899.9</ele>
        <time>2025-10-05T11:58:03Z</time>
      </trkpt>
      <trkpt lat="43.32816" lon="5.76979">
        <ele>899.7</ele>
        <time>2025-10-05T11:58:04Z</time>
      </trkpt>
      <trkpt lat="43.32817" lon="5.76978">
        <ele>899.5</ele>
        <time>2025-10-05T11:58:05Z</time>
      </trkpt>
      <trkpt lat="43.32817" lon="5.76978">
        <ele>899.3</ele>
        <time>2025-10-05T11:58:06Z</time>
      </trkpt>
      <trkpt lat="43.32818" lon="5.76977">
        <ele>899.2</ele>
        <time>2025-10-05T11:58:07Z</time>
      </trkpt>
      <trkpt lat="43.32818" lon="5.76976">
        <ele>899.2</ele>
        <time>2025-10-05T11:58:08Z</time>
      </trkpt>
      <trkpt lat="43.32819" lon="5.76974">
        <ele>899.1</ele>
        <time>2025-10-05T11:58:09Z</time>
      </trkpt>
      <trkpt lat="43.32818" lon="5.76974">
        <ele>899.1</ele>
        <time>2025-10-05T11:58:10Z</time>
      </trkpt>
      <trkpt lat="43.32819" lon="5.76973">
        <ele>899</ele>
        <time>2025-10-05T11:58:11Z</time>
      </trkpt>
      <trkpt lat="43.32819" lon="5.76972">
        <ele>898.9</ele>
        <time>2025-10-05T11:58:12Z</time>
      </trkpt>
      <trkpt lat="43.32819" lon="5.76971">
        <ele>898.8</ele>
        <time>2025-10-05T11:58:13Z</time>
      </trkpt>
      <trkpt lat="43.32819" lon="5.76971">
        <ele>898.7</ele>
        <time>2025-10-05T11:58:14Z</time>
      </trkpt>
      <trkpt lat="43.3282" lon="5.7697">
        <ele>898.4</ele>
        <time>2025-10-05T11:58:15Z</time>
      </trkpt>
      <trkpt lat="43.3282" lon="5.7697">
        <ele>898.2</ele>
        <time>2025-10-05T11:58:16Z</time>
      </trkpt>
      <trkpt lat="43.3282" lon="5.76969">
        <ele>897.9</ele>
        <time>2025-10-05T11:58:17Z</time>
      </trkpt>
      <trkpt lat="43.3282" lon="5.76968">
        <ele>897.6</ele>
        <time>2025-10-05T11:58:18Z</time>
      </trkpt>
      <trkpt lat="43.3282" lon="5.76967">
        <ele>897.3</ele>
        <time>2025-10-05T11:58:19Z</time>
      </trkpt>
      <trkpt lat="43.3282" lon="5.76966">
        <ele>897.1</ele>
        <time>2025-10-05T11:58:20Z</time>
      </trkpt>
      <trkpt lat="43.3282" lon="5.76965">
        <ele>896.9</ele>
        <time>2025-10-05T11:58:21Z</time>
      </trkpt>
      <trkpt lat="43.32821" lon="5.76963">
        <ele>896.7</ele>
        <time>2025-10-05T11:58:22Z</time>
      </trkpt>
      <trkpt lat="43.32821" lon="5.76961">
        <ele>896.5</ele>
        <time>2025-10-05T11:58:23Z</time>
      </trkpt>
      <trkpt lat="43.32821" lon="5.76961">
        <ele>896.4</ele>
        <time>2025-10-05T11:58:24Z</time>
      </trkpt>
      <trkpt lat="43.32821" lon="5.7696">
        <ele>896.3</ele>
        <time>2025-10-05T11:58:25Z</time>
      </trkpt>
      <trkpt lat="43.32821" lon="5.76959">
        <ele>896.2</ele>
        <time>2025-10-05T11:58:26Z</time>
      </trkpt>
      <trkpt lat="43.32823" lon="5.7696">
        <ele>896</ele>
        <time>2025-10-05T11:58:27Z</time>
      </trkpt>
      <trkpt lat="43.32824" lon="5.7696">
        <ele>895.8</ele>
        <time>2025-10-05T11:58:28Z</time>
      </trkpt>
      <trkpt lat="43.32825" lon="5.76961">
        <ele>895.6</ele>
        <time>2025-10-05T11:58:29Z</time>
      </trkpt>
      <trkpt lat="43.32825" lon="5.76961">
        <ele>895.3</ele>
        <time>2025-10-05T11:58:30Z</time>
      </trkpt>
      <trkpt lat="43.32825" lon="5.76962">
        <ele>894.9</ele>
        <time>2025-10-05T11:58:31Z</time>
      </trkpt>
      <trkpt lat="43.32826" lon="5.76963">
        <ele>894.4</ele>
        <time>2025-10-05T11:58:32Z</time>
      </trkpt>
      <trkpt lat="43.32827" lon="5.76963">
        <ele>893.9</ele>
        <time>2025-10-05T11:58:33Z</time>
      </trkpt>
      <trkpt lat="43.32827" lon="5.76964">
        <ele>893.4</ele>
        <time>2025-10-05T11:58:34Z</time>
      </trkpt>
      <trkpt lat="43.32827" lon="5.76964">
        <ele>893.1</ele>
        <time>2025-10-05T11:58:35Z</time>
      </trkpt>
      <trkpt lat="43.32827" lon="5.76965">
        <ele>892.9</ele>
        <time>2025-10-05T11:58:36Z</time>
      </trkpt>
      <trkpt lat="43.32828" lon="5.76965">
        <ele>892.6</ele>
        <time>2025-10-05T11:58:37Z</time>
      </trkpt>
      <trkpt lat="43.32829" lon="5.76965">
        <ele>892.5</ele>
        <time>2025-10-05T11:58:38Z</time>
      </trkpt>
      <trkpt lat="43.3283" lon="5.76964">
        <ele>892.7</ele>
        <time>2025-10-05T11:58:39Z</time>
      </trkpt>
      <trkpt lat="43.3283" lon="5.76964">
        <ele>892.8</ele>
        <time>2025-10-05T11:58:40Z</time>
      </trkpt>
      <trkpt lat="43.32831" lon="5.76964">
        <ele>892.8</ele>
        <time>2025-10-05T11:58:41Z</time>
      </trkpt>
      <trkpt lat="43.32831" lon="5.76963">
        <ele>892.8</ele>
        <time>2025-10-05T11:58:42Z</time>
      </trkpt>
      <trkpt lat="43.32831" lon="5.76962">
        <ele>892.6</ele>
        <time>2025-10-05T11:58:43Z</time>
      </trkpt>
      <trkpt lat="43.32831" lon="5.76961">
        <ele>892.4</ele>
        <time>2025-10-05T11:58:44Z</time>
      </trkpt>
      <trkpt lat="43.32831" lon="5.76961">
        <ele>892.3</ele>
        <time>2025-10-05T11:58:45Z</time>
      </trkpt>
      <trkpt lat="43.32831" lon="5.7696">
        <ele>892</ele>
        <time>2025-10-05T11:58:46Z</time>
      </trkpt>
      <trkpt lat="43.32831" lon="5.76959">
        <ele>891.9</ele>
        <time>2025-10-05T11:58:47Z</time>
      </trkpt>
      <trkpt lat="43.32831" lon="5.76958">
        <ele>891.6</ele>
        <time>2025-10-05T11:58:48Z</time>
      </trkpt>
      <trkpt lat="43.32831" lon="5.76957">
        <ele>891.5</ele>
        <time>2025-10-05T11:58:49Z</time>
      </trkpt>
      <trkpt lat="43.3283" lon="5.76956">
        <ele>891.3</ele>
        <time>2025-10-05T11:58:50Z</time>
      </trkpt>
      <trkpt lat="43.3283" lon="5.76956">
        <ele>891.1</ele>
        <time>2025-10-05T11:58:51Z</time>
      </trkpt>
      <trkpt lat="43.3283" lon="5.76955">
        <ele>890.8</ele>
        <time>2025-10-05T11:58:52Z</time>
      </trkpt>
      <trkpt lat="43.3283" lon="5.76955">
        <ele>890.6</ele>
        <time>2025-10-05T11:58:53Z</time>
      </trkpt>
      <trkpt lat="43.3283" lon="5.76954">
        <ele>890.1</ele>
        <time>2025-10-05T11:58:54Z</time>
      </trkpt>
      <trkpt lat="43.3283" lon="5.76953">
        <ele>889.9</ele>
        <time>2025-10-05T11:58:55Z</time>
      </trkpt>
      <trkpt lat="43.3283" lon="5.76951">
        <ele>889.8</ele>
        <time>2025-10-05T11:58:56Z</time>
      </trkpt>
      <trkpt lat="43.3283" lon="5.7695">
        <ele>889.7</ele>
        <time>2025-10-05T11:58:57Z</time>
      </trkpt>
      <trkpt lat="43.3283" lon="5.76949">
        <ele>889.6</ele>
        <time>2025-10-05T11:58:58Z</time>
      </trkpt>
      <trkpt lat="43.3283" lon="5.76947">
        <ele>889.6</ele>
        <time>2025-10-05T11:58:59Z</time>
      </trkpt>
      <trkpt lat="43.3283" lon="5.76946">
        <ele>889.5</ele>
        <time>2025-10-05T11:59:00Z</time>
      </trkpt>
      <trkpt lat="43.3283" lon="5.76945">
        <ele>889.3</ele>
        <time>2025-10-05T11:59:01Z</time>
      </trkpt>
      <trkpt lat="43.3283" lon="5.76943">
        <ele>889.1</ele>
        <time>2025-10-05T11:59:02Z</time>
      </trkpt>
      <trkpt lat="43.32831" lon="5.76942">
        <ele>888.9</ele>
        <time>2025-10-05T11:59:03Z</time>
      </trkpt>
      <trkpt lat="43.32831" lon="5.76941">
        <ele>888.9</ele>
        <time>2025-10-05T11:59:04Z</time>
      </trkpt>
      <trkpt lat="43.32831" lon="5.7694">
        <ele>888.8</ele>
        <time>2025-10-05T11:59:05Z</time>
      </trkpt>
      <trkpt lat="43.32831" lon="5.76939">
        <ele>888.8</ele>
        <time>2025-10-05T11:59:06Z</time>
      </trkpt>
      <trkpt lat="43.32832" lon="5.76937">
        <ele>888.8</ele>
        <time>2025-10-05T11:59:07Z</time>
      </trkpt>
      <trkpt lat="43.32832" lon="5.76936">
        <ele>888.6</ele>
        <time>2025-10-05T11:59:08Z</time>
      </trkpt>
      <trkpt lat="43.32832" lon="5.76935">
        <ele>888.4</ele>
        <time>2025-10-05T11:59:09Z</time>
      </trkpt>
      <trkpt lat="43.32832" lon="5.76934">
        <ele>888.2</ele>
        <time>2025-10-05T11:59:10Z</time>
      </trkpt>
      <trkpt lat="43.32832" lon="5.76933">
        <ele>888.1</ele>
        <time>2025-10-05T11:59:11Z</time>
      </trkpt>
      <trkpt lat="43.32832" lon="5.76931">
        <ele>887.8</ele>
        <time>2025-10-05T11:59:12Z</time>
      </trkpt>
      <trkpt lat="43.32831" lon="5.7693">
        <ele>887.7</ele>
        <time>2025-10-05T11:59:13Z</time>
      </trkpt>
      <trkpt lat="43.32832" lon="5.76929">
        <ele>887.5</ele>
        <time>2025-10-05T11:59:14Z</time>
      </trkpt>
      <trkpt lat="43.32833" lon="5.76928">
        <ele>887.3</ele>
        <time>2025-10-05T11:59:15Z</time>
      </trkpt>
      <trkpt lat="43.32833" lon="5.76927">
        <ele>887.1</ele>
        <time>2025-10-05T11:59:16Z</time>
      </trkpt>
      <trkpt lat="43.32834" lon="5.76926">
        <ele>886.9</ele>
        <time>2025-10-05T11:59:17Z</time>
      </trkpt>
      <trkpt lat="43.32833" lon="5.76926">
        <ele>886.7</ele>
        <time>2025-10-05T11:59:18Z</time>
      </trkpt>
      <trkpt lat="43.32833" lon="5.76925">
        <ele>886.6</ele>
        <time>2025-10-05T11:59:19Z</time>
      </trkpt>
      <trkpt lat="43.32834" lon="5.76924">
        <ele>886.5</ele>
        <time>2025-10-05T11:59:20Z</time>
      </trkpt>
      <trkpt lat="43.32834" lon="5.76924">
        <ele>886.2</ele>
        <time>2025-10-05T11:59:21Z</time>
      </trkpt>
      <trkpt lat="43.32834" lon="5.76923">
        <ele>886.1</ele>
        <time>2025-10-05T11:59:22Z</time>
      </trkpt>
      <trkpt lat="43.32834" lon="5.76922">
        <ele>885.9</ele>
        <time>2025-10-05T11:59:23Z</time>
      </trkpt>
      <trkpt lat="43.32834" lon="5.76922">
        <ele>885.8</ele>
        <time>2025-10-05T11:59:24Z</time>
      </trkpt>
      <trkpt lat="43.32834" lon="5.76921">
        <ele>885.7</ele>
        <time>2025-10-05T11:59:25Z</time>
      </trkpt>
      <trkpt lat="43.32835" lon="5.7692">
        <ele>885.6</ele>
        <time>2025-10-05T11:59:26Z</time>
      </trkpt>
      <trkpt lat="43.32834" lon="5.76918">
        <ele>885.5</ele>
        <time>2025-10-05T11:59:27Z</time>
      </trkpt>
      <trkpt lat="43.32835" lon="5.76916">
        <ele>885.3</ele>
        <time>2025-10-05T11:59:28Z</time>
      </trkpt>
      <trkpt lat="43.32835" lon="5.76915">
        <ele>885</ele>
        <time>2025-10-05T11:59:29Z</time>
      </trkpt>
      <trkpt lat="43.32836" lon="5.76914">
        <ele>884.7</ele>
        <time>2025-10-05T11:59:30Z</time>
      </trkpt>
      <trkpt lat="43.32836" lon="5.76913">
        <ele>884.5</ele>
        <time>2025-10-05T11:59:31Z</time>
      </trkpt>
      <trkpt lat="43.32836" lon="5.76913">
        <ele>884.4</ele>
        <time>2025-10-05T11:59:32Z</time>
      </trkpt>
      <trkpt lat="43.32836" lon="5.76912">
        <ele>884.3</ele>
        <time>2025-10-05T11:59:33Z</time>
      </trkpt>
      <trkpt lat="43.32835" lon="5.76911">
        <ele>884.3</ele>
        <time>2025-10-05T11:59:34Z</time>
      </trkpt>
      <trkpt lat="43.32836" lon="5.7691">
        <ele>884.2</ele>
        <time>2025-10-05T11:59:35Z</time>
      </trkpt>
      <trkpt lat="43.32836" lon="5.76909">
        <ele>884.1</ele>
        <time>2025-10-05T11:59:36Z</time>
      </trkpt>
      <trkpt lat="43.32837" lon="5.76907">
        <ele>884</ele>
        <time>2025-10-05T11:59:37Z</time>
      </trkpt>
      <trkpt lat="43.32837" lon="5.76906">
        <ele>883.9</ele>
        <time>2025-10-05T11:59:38Z</time>
      </trkpt>
      <trkpt lat="43.32838" lon="5.76905">
        <ele>883.8</ele>
        <time>2025-10-05T11:59:39Z</time>
      </trkpt>
      <trkpt lat="43.32837" lon="5.76905">
        <ele>883.7</ele>
        <time>2025-10-05T11:59:40Z</time>
      </trkpt>
      <trkpt lat="43.32837" lon="5.76904">
        <ele>883.5</ele>
        <time>2025-10-05T11:59:41Z</time>
      </trkpt>
      <trkpt lat="43.32837" lon="5.76903">
        <ele>883.2</ele>
        <time>2025-10-05T11:59:42Z</time>
      </trkpt>
      <trkpt lat="43.32837" lon="5.76903">
        <ele>883</ele>
        <time>2025-10-05T11:59:43Z</time>
      </trkpt>
      <trkpt lat="43.32838" lon="5.76903">
        <ele>882.8</ele>
        <time>2025-10-05T11:59:44Z</time>
      </trkpt>
      <trkpt lat="43.32839" lon="5.76903">
        <ele>882.7</ele>
        <time>2025-10-05T11:59:45Z</time>
      </trkpt>
      <trkpt lat="43.32839" lon="5.76902">
        <ele>882.5</ele>
        <time>2025-10-05T11:59:46Z</time>
      </trkpt>
      <trkpt lat="43.32839" lon="5.76903">
        <ele>882.3</ele>
        <time>2025-10-05T11:59:47Z</time>
      </trkpt>
      <trkpt lat="43.32839" lon="5.76904">
        <ele>882.2</ele>
        <time>2025-10-05T11:59:48Z</time>
      </trkpt>
      <trkpt lat="43.32838" lon="5.76903">
        <ele>882.1</ele>
        <time>2025-10-05T11:59:49Z</time>
      </trkpt>
      <trkpt lat="43.32839" lon="5.76903">
        <ele>881.9</ele>
        <time>2025-10-05T11:59:50Z</time>
      </trkpt>
      <trkpt lat="43.32839" lon="5.76903">
        <ele>881.7</ele>
        <time>2025-10-05T11:59:51Z</time>
      </trkpt>
      <trkpt lat="43.32839" lon="5.76903">
        <ele>881.5</ele>
        <time>2025-10-05T11:59:52Z</time>
      </trkpt>
      <trkpt lat="43.32839" lon="5.76904">
        <ele>881.4</ele>
        <time>2025-10-05T11:59:53Z</time>
      </trkpt>
      <trkpt lat="43.32841" lon="5.76905">
        <ele>881.2</ele>
        <time>2025-10-05T11:59:54Z</time>
      </trkpt>
      <trkpt lat="43.3284" lon="5.76905">
        <ele>881</ele>
        <time>2025-10-05T11:59:55Z</time>
      </trkpt>
      <trkpt lat="43.32841" lon="5.76906">
        <ele>880.7</ele>
        <time>2025-10-05T11:59:56Z</time>
      </trkpt>
      <trkpt lat="43.32842" lon="5.76906">
        <ele>880.4</ele>
        <time>2025-10-05T11:59:57Z</time>
      </trkpt>
      <trkpt lat="43.32842" lon="5.76906">
        <ele>880.1</ele>
        <time>2025-10-05T11:59:58Z</time>
      </trkpt>
      <trkpt lat="43.32842" lon="5.76906">
        <ele>879.8</ele>
        <time>2025-10-05T11:59:59Z</time>
      </trkpt>
      <trkpt lat="43.32842" lon="5.76906">
        <ele>879.6</ele>
        <time>2025-10-05T12:00:00Z</time>
      </trkpt>
      <trkpt lat="43.32841" lon="5.76906">
        <ele>879.4</ele>
        <time>2025-10-05T12:00:01Z</time>
      </trkpt>
      <trkpt lat="43.32842" lon="5.76906">
        <ele>879.2</ele>
        <time>2025-10-05T12:00:02Z</time>
      </trkpt>
      <trkpt lat="43.32843" lon="5.76907">
        <ele>879</ele>
        <time>2025-10-05T12:00:03Z</time>
      </trkpt>
      <trkpt lat="43.32844" lon="5.76908">
        <ele>878.8</ele>
        <time>2025-10-05T12:00:04Z</time>
      </trkpt>
      <trkpt lat="43.32844" lon="5.76907">
        <ele>878.6</ele>
        <time>2025-10-05T12:00:05Z</time>
      </trkpt>
      <trkpt lat="43.32844" lon="5.76907">
        <ele>878.4</ele>
        <time>2025-10-05T12:00:06Z</time>
      </trkpt>
      <trkpt lat="43.32844" lon="5.76908">
        <ele>878.3</ele>
        <time>2025-10-05T12:00:07Z</time>
      </trkpt>
      <trkpt lat="43.32844" lon="5.76908">
        <ele>878</ele>
        <time>2025-10-05T12:00:08Z</time>
      </trkpt>
      <trkpt lat="43.32845" lon="5.76909">
        <ele>877.9</ele>
        <time>2025-10-05T12:00:09Z</time>
      </trkpt>
      <trkpt lat="43.32845" lon="5.76909">
        <ele>877.7</ele>
        <time>2025-10-05T12:00:10Z</time>
      </trkpt>
      <trkpt lat="43.32846" lon="5.76909">
        <ele>877.5</ele>
        <time>2025-10-05T12:00:11Z</time>
      </trkpt>
      <trkpt lat="43.32846" lon="5.7691">
        <ele>877.4</ele>
        <time>2025-10-05T12:00:12Z</time>
      </trkpt>
      <trkpt lat="43.32847" lon="5.7691">
        <ele>877.2</ele>
        <time>2025-10-05T12:00:13Z</time>
      </trkpt>
      <trkpt lat="43.32849" lon="5.7691">
        <ele>877</ele>
        <time>2025-10-05T12:00:14Z</time>
      </trkpt>
      <trkpt lat="43.3285" lon="5.76911">
        <ele>876.8</ele>
        <time>2025-10-05T12:00:15Z</time>
      </trkpt>
      <trkpt lat="43.3285" lon="5.76911">
        <ele>876.5</ele>
        <time>2025-10-05T12:00:16Z</time>
      </trkpt>
      <trkpt lat="43.3285" lon="5.76913">
        <ele>876.2</ele>
        <time>2025-10-05T12:00:17Z</time>
      </trkpt>
      <trkpt lat="43.32852" lon="5.76913">
        <ele>875.9</ele>
        <time>2025-10-05T12:00:18Z</time>
      </trkpt>
      <trkpt lat="43.32852" lon="5.76914">
        <ele>875.7</ele>
        <time>2025-10-05T12:00:19Z</time>
      </trkpt>
      <trkpt lat="43.32853" lon="5.76914">
        <ele>875.5</ele>
        <time>2025-10-05T12:00:20Z</time>
      </trkpt>
      <trkpt lat="43.32854" lon="5.76914">
        <ele>875.3</ele>
        <time>2025-10-05T12:00:21Z</time>
      </trkpt>
      <trkpt lat="43.32855" lon="5.76914">
        <ele>875</ele>
        <time>2025-10-05T12:00:22Z</time>
      </trkpt>
      <trkpt lat="43.32856" lon="5.76914">
        <ele>874.8</ele>
        <time>2025-10-05T12:00:23Z</time>
      </trkpt>
      <trkpt lat="43.32856" lon="5.76914">
        <ele>874.6</ele>
        <time>2025-10-05T12:00:24Z</time>
      </trkpt>
      <trkpt lat="43.32856" lon="5.76915">
        <ele>874.3</ele>
        <time>2025-10-05T12:00:25Z</time>
      </trkpt>
      <trkpt lat="43.32857" lon="5.76915">
        <ele>874.1</ele>
        <time>2025-10-05T12:00:26Z</time>
      </trkpt>
      <trkpt lat="43.32858" lon="5.76916">
        <ele>873.8</ele>
        <time>2025-10-05T12:00:27Z</time>
      </trkpt>
      <trkpt lat="43.32858" lon="5.76916">
        <ele>873.6</ele>
        <time>2025-10-05T12:00:28Z</time>
      </trkpt>
      <trkpt lat="43.32858" lon="5.76916">
        <ele>873.4</ele>
        <time>2025-10-05T12:00:29Z</time>
      </trkpt>
      <trkpt lat="43.32858" lon="5.76918">
        <ele>873.2</ele>
        <time>2025-10-05T12:00:30Z</time>
      </trkpt>
      <trkpt lat="43.32859" lon="5.76918">
        <ele>873</ele>
        <time>2025-10-05T12:00:31Z</time>
      </trkpt>
      <trkpt lat="43.3286" lon="5.76918">
        <ele>872.7</ele>
        <time>2025-10-05T12:00:32Z</time>
      </trkpt>
      <trkpt lat="43.32861" lon="5.76918">
        <ele>872.5</ele>
        <time>2025-10-05T12:00:33Z</time>
      </trkpt>
      <trkpt lat="43.32861" lon="5.76919">
        <ele>872.3</ele>
        <time>2025-10-05T12:00:34Z</time>
      </trkpt>
      <trkpt lat="43.32862" lon="5.76919">
        <ele>872</ele>
        <time>2025-10-05T12:00:35Z</time>
      </trkpt>
      <trkpt lat="43.32863" lon="5.7692">
        <ele>871.8</ele>
        <time>2025-10-05T12:00:36Z</time>
      </trkpt>
      <trkpt lat="43.32863" lon="5.7692">
        <ele>871.5</ele>
        <time>2025-10-05T12:00:37Z</time>
      </trkpt>
      <trkpt lat="43.32864" lon="5.76921">
        <ele>871.3</ele>
        <time>2025-10-05T12:00:38Z</time>
      </trkpt>
      <trkpt lat="43.32863" lon="5.76922">
        <ele>871</ele>
        <time>2025-10-05T12:00:39Z</time>
      </trkpt>
      <trkpt lat="43.32862" lon="5.76922">
        <ele>870.8</ele>
        <time>2025-10-05T12:00:40Z</time>
      </trkpt>
      <trkpt lat="43.32863" lon="5.76922">
        <ele>870.6</ele>
        <time>2025-10-05T12:00:41Z</time>
      </trkpt>
      <trkpt lat="43.32863" lon="5.76922">
        <ele>870.4</ele>
        <time>2025-10-05T12:00:42Z</time>
      </trkpt>
      <trkpt lat="43.32864" lon="5.76922">
        <ele>870.2</ele>
        <time>2025-10-05T12:00:43Z</time>
      </trkpt>
      <trkpt lat="43.32863" lon="5.76922">
        <ele>870</ele>
        <time>2025-10-05T12:00:44Z</time>
      </trkpt>
      <trkpt lat="43.32863" lon="5.76921">
        <ele>869.7</ele>
        <time>2025-10-05T12:00:45Z</time>
      </trkpt>
      <trkpt lat="43.32863" lon="5.76921">
        <ele>869.5</ele>
        <time>2025-10-05T12:00:46Z</time>
      </trkpt>
      <trkpt lat="43.32863" lon="5.7692">
        <ele>869.3</ele>
        <time>2025-10-05T12:00:47Z</time>
      </trkpt>
      <trkpt lat="43.32864" lon="5.76919">
        <ele>869.1</ele>
        <time>2025-10-05T12:00:48Z</time>
      </trkpt>
      <trkpt lat="43.32864" lon="5.76919">
        <ele>868.9</ele>
        <time>2025-10-05T12:00:49Z</time>
      </trkpt>
      <trkpt lat="43.32865" lon="5.76918">
        <ele>868.6</ele>
        <time>2025-10-05T12:00:50Z</time>
      </trkpt>
      <trkpt lat="43.32865" lon="5.76917">
        <ele>868.3</ele>
        <time>2025-10-05T12:00:51Z</time>
      </trkpt>
      <trkpt lat="43.32865" lon="5.76916">
        <ele>868.1</ele>
        <time>2025-10-05T12:00:52Z</time>
      </trkpt>
      <trkpt lat="43.32865" lon="5.76915">
        <ele>867.9</ele>
        <time>2025-10-05T12:00:53Z</time>
      </trkpt>
      <trkpt lat="43.32865" lon="5.76914">
        <ele>867.8</ele>
        <time>2025-10-05T12:00:54Z</time>
      </trkpt>
      <trkpt lat="43.32864" lon="5.76914">
        <ele>867.6</ele>
        <time>2025-10-05T12:00:55Z</time>
      </trkpt>
      <trkpt lat="43.32865" lon="5.76914">
        <ele>867.5</ele>
        <time>2025-10-05T12:00:56Z</time>
      </trkpt>
      <trkpt lat="43.32866" lon="5.76913">
        <ele>867.2</ele>
        <time>2025-10-05T12:00:57Z</time>
      </trkpt>
      <trkpt lat="43.32867" lon="5.76912">
        <ele>866.9</ele>
        <time>2025-10-05T12:00:58Z</time>
      </trkpt>
      <trkpt lat="43.32867" lon="5.76911">
        <ele>866.7</ele>
        <time>2025-10-05T12:00:59Z</time>
      </trkpt>
      <trkpt lat="43.32867" lon="5.7691">
        <ele>866.4</ele>
        <time>2025-10-05T12:01:00Z</time>
      </trkpt>
      <trkpt lat="43.32867" lon="5.76909">
        <ele>866.2</ele>
        <time>2025-10-05T12:01:01Z</time>
      </trkpt>
      <trkpt lat="43.32866" lon="5.76909">
        <ele>866</ele>
        <time>2025-10-05T12:01:02Z</time>
      </trkpt>
      <trkpt lat="43.32866" lon="5.76909">
        <ele>865.9</ele>
        <time>2025-10-05T12:01:03Z</time>
      </trkpt>
      <trkpt lat="43.32866" lon="5.76908">
        <ele>865.7</ele>
        <time>2025-10-05T12:01:04Z</time>
      </trkpt>
      <trkpt lat="43.32866" lon="5.76907">
        <ele>865.6</ele>
        <time>2025-10-05T12:01:05Z</time>
      </trkpt>
      <trkpt lat="43.32867" lon="5.76906">
        <ele>865.3</ele>
        <time>2025-10-05T12:01:06Z</time>
      </trkpt>
      <trkpt lat="43.32868" lon="5.76904">
        <ele>865.1</ele>
        <time>2025-10-05T12:01:07Z</time>
      </trkpt>
      <trkpt lat="43.32868" lon="5.76903">
        <ele>864.9</ele>
        <time>2025-10-05T12:01:08Z</time>
      </trkpt>
      <trkpt lat="43.3287" lon="5.76901">
        <ele>864.8</ele>
        <time>2025-10-05T12:01:09Z</time>
      </trkpt>
      <trkpt lat="43.32871" lon="5.76899">
        <ele>864.4</ele>
        <time>2025-10-05T12:01:10Z</time>
      </trkpt>
      <trkpt lat="43.32871" lon="5.76897">
        <ele>864</ele>
        <time>2025-10-05T12:01:11Z</time>
      </trkpt>
      <trkpt lat="43.32872" lon="5.76895">
        <ele>863.9</ele>
        <time>2025-10-05T12:01:12Z</time>
      </trkpt>
      <trkpt lat="43.32872" lon="5.76895">
        <ele>863.7</ele>
        <time>2025-10-05T12:01:13Z</time>
      </trkpt>
      <trkpt lat="43.32872" lon="5.76894">
        <ele>863.4</ele>
        <time>2025-10-05T12:01:14Z</time>
      </trkpt>
      <trkpt lat="43.32873" lon="5.76893">
        <ele>863.2</ele>
        <time>2025-10-05T12:01:15Z</time>
      </trkpt>
      <trkpt lat="43.32872" lon="5.76892">
        <ele>862.9</ele>
        <time>2025-10-05T12:01:16Z</time>
      </trkpt>
      <trkpt lat="43.32872" lon="5.76891">
        <ele>862.8</ele>
        <time>2025-10-05T12:01:17Z</time>
      </trkpt>
      <trkpt lat="43.32872" lon="5.76889">
        <ele>862.6</ele>
        <time>2025-10-05T12:01:18Z</time>
      </trkpt>
      <trkpt lat="43.32872" lon="5.76888">
        <ele>862.4</ele>
        <time>2025-10-05T12:01:19Z</time>
      </trkpt>
      <trkpt lat="43.32871" lon="5.76887">
        <ele>862.1</ele>
        <time>2025-10-05T12:01:20Z</time>
      </trkpt>
      <trkpt lat="43.32872" lon="5.76885">
        <ele>861.8</ele>
        <time>2025-10-05T12:01:21Z</time>
      </trkpt>
      <trkpt lat="43.32872" lon="5.76884">
        <ele>861.5</ele>
        <time>2025-10-05T12:01:22Z</time>
      </trkpt>
      <trkpt lat="43.32874" lon="5.76884">
        <ele>861.3</ele>
        <time>2025-10-05T12:01:23Z</time>
      </trkpt>
      <trkpt lat="43.32874" lon="5.76883">
        <ele>861</ele>
        <time>2025-10-05T12:01:24Z</time>
      </trkpt>
      <trkpt lat="43.32874" lon="5.76881">
        <ele>860.8</ele>
        <time>2025-10-05T12:01:25Z</time>
      </trkpt>
      <trkpt lat="43.32874" lon="5.7688">
        <ele>860.6</ele>
        <time>2025-10-05T12:01:26Z</time>
      </trkpt>
      <trkpt lat="43.32874" lon="5.7688">
        <ele>860.3</ele>
        <time>2025-10-05T12:01:27Z</time>
      </trkpt>
      <trkpt lat="43.32874" lon="5.76879">
        <ele>860.1</ele>
        <time>2025-10-05T12:01:28Z</time>
      </trkpt>
      <trkpt lat="43.32874" lon="5.76878">
        <ele>859.9</ele>
        <time>2025-10-05T12:01:29Z</time>
      </trkpt>
      <trkpt lat="43.32874" lon="5.76877">
        <ele>859.8</ele>
        <time>2025-10-05T12:01:30Z</time>
      </trkpt>
      <trkpt lat="43.32875" lon="5.76876">
        <ele>859.6</ele>
        <time>2025-10-05T12:01:31Z</time>
      </trkpt>
      <trkpt lat="43.32875" lon="5.76875">
        <ele>859.5</ele>
        <time>2025-10-05T12:01:32Z</time>
      </trkpt>
      <trkpt lat="43.32876" lon="5.76874">
        <ele>859.3</ele>
        <time>2025-10-05T12:01:33Z</time>
      </trkpt>
      <trkpt lat="43.32877" lon="5.76873">
        <ele>859.1</ele>
        <time>2025-10-05T12:01:34Z</time>
      </trkpt>
      <trkpt lat="43.32877" lon="5.76873">
        <ele>859</ele>
        <time>2025-10-05T12:01:35Z</time>
      </trkpt>
      <trkpt lat="43.32877" lon="5.76872">
        <ele>858.7</ele>
        <time>2025-10-05T12:01:36Z</time>
      </trkpt>
      <trkpt lat="43.32879" lon="5.7687">
        <ele>858.5</ele>
        <time>2025-10-05T12:01:37Z</time>
      </trkpt>
      <trkpt lat="43.3288" lon="5.76869">
        <ele>858.4</ele>
        <time>2025-10-05T12:01:38Z</time>
      </trkpt>
      <trkpt lat="43.3288" lon="5.76868">
        <ele>858.2</ele>
        <time>2025-10-05T12:01:39Z</time>
      </trkpt>
      <trkpt lat="43.3288" lon="5.76867">
        <ele>858.1</ele>
        <time>2025-10-05T12:01:40Z</time>
      </trkpt>
      <trkpt lat="43.32881" lon="5.76866">
        <ele>857.8</ele>
        <time>2025-10-05T12:01:41Z</time>
      </trkpt>
      <trkpt lat="43.32882" lon="5.76864">
        <ele>857.6</ele>
        <time>2025-10-05T12:01:42Z</time>
      </trkpt>
      <trkpt lat="43.32883" lon="5.76863">
        <ele>857.4</ele>
        <time>2025-10-05T12:01:43Z</time>
      </trkpt>
      <trkpt lat="43.32884" lon="5.76862">
        <ele>857</ele>
        <time>2025-10-05T12:01:44Z</time>
      </trkpt>
      <trkpt lat="43.32884" lon="5.76861">
        <ele>856.8</ele>
        <time>2025-10-05T12:01:45Z</time>
      </trkpt>
      <trkpt lat="43.32884" lon="5.7686">
        <ele>856.6</ele>
        <time>2025-10-05T12:01:46Z</time>
      </trkpt>
      <trkpt lat="43.32885" lon="5.76859">
        <ele>856.4</ele>
        <time>2025-10-05T12:01:47Z</time>
      </trkpt>
      <trkpt lat="43.32884" lon="5.76857">
        <ele>856.2</ele>
        <time>2025-10-05T12:01:48Z</time>
      </trkpt>
      <trkpt lat="43.32885" lon="5.76856">
        <ele>856</ele>
        <time>2025-10-05T12:01:49Z</time>
      </trkpt>
      <trkpt lat="43.32884" lon="5.76856">
        <ele>855.8</ele>
        <time>2025-10-05T12:01:50Z</time>
      </trkpt>
      <trkpt lat="43.32884" lon="5.76854">
        <ele>855.6</ele>
        <time>2025-10-05T12:01:51Z</time>
      </trkpt>
      <trkpt lat="43.32884" lon="5.76853">
        <ele>855.5</ele>
        <time>2025-10-05T12:01:52Z</time>
      </trkpt>
      <trkpt lat="43.32884" lon="5.76852">
        <ele>855.2</ele>
        <time>2025-10-05T12:01:53Z</time>
      </trkpt>
      <trkpt lat="43.32885" lon="5.76851">
        <ele>855</ele>
        <time>2025-10-05T12:01:54Z</time>
      </trkpt>
      <trkpt lat="43.32885" lon="5.7685">
        <ele>854.8</ele>
        <time>2025-10-05T12:01:55Z</time>
      </trkpt>
      <trkpt lat="43.32885" lon="5.76849">
        <ele>854.7</ele>
        <time>2025-10-05T12:01:56Z</time>
      </trkpt>
      <trkpt lat="43.32885" lon="5.76848">
        <ele>854.6</ele>
        <time>2025-10-05T12:01:57Z</time>
      </trkpt>
      <trkpt lat="43.32885" lon="5.76846">
        <ele>854.4</ele>
        <time>2025-10-05T12:01:58Z</time>
      </trkpt>
      <trkpt lat="43.32884" lon="5.76844">
        <ele>854.1</ele>
        <time>2025-10-05T12:01:59Z</time>
      </trkpt>
      <trkpt lat="43.32885" lon="5.76843">
        <ele>853.9</ele>
        <time>2025-10-05T12:02:00Z</time>
      </trkpt>
      <trkpt lat="43.32886" lon="5.76842">
        <ele>853.7</ele>
        <time>2025-10-05T12:02:01Z</time>
      </trkpt>
      <trkpt lat="43.32886" lon="5.76841">
        <ele>853.3</ele>
        <time>2025-10-05T12:02:02Z</time>
      </trkpt>
      <trkpt lat="43.32886" lon="5.7684">
        <ele>853.1</ele>
        <time>2025-10-05T12:02:03Z</time>
      </trkpt>
      <trkpt lat="43.32887" lon="5.76839">
        <ele>852.9</ele>
        <time>2025-10-05T12:02:04Z</time>
      </trkpt>
      <trkpt lat="43.32888" lon="5.76839">
        <ele>852.8</ele>
        <time>2025-10-05T12:02:05Z</time>
      </trkpt>
      <trkpt lat="43.32889" lon="5.76837">
        <ele>852.6</ele>
        <time>2025-10-05T12:02:06Z</time>
      </trkpt>
      <trkpt lat="43.32889" lon="5.76836">
        <ele>852.5</ele>
        <time>2025-10-05T12:02:07Z</time>
      </trkpt>
      <trkpt lat="43.32888" lon="5.76835">
        <ele>852.4</ele>
        <time>2025-10-05T12:02:08Z</time>
      </trkpt>
      <trkpt lat="43.32888" lon="5.76833">
        <ele>852.4</ele>
        <time>2025-10-05T12:02:09Z</time>
      </trkpt>
      <trkpt lat="43.32888" lon="5.76832">
        <ele>852.3</ele>
        <time>2025-10-05T12:02:10Z</time>
      </trkpt>
      <trkpt lat="43.32888" lon="5.7683">
        <ele>852.1</ele>
        <time>2025-10-05T12:02:11Z</time>
      </trkpt>
      <trkpt lat="43.32888" lon="5.76828">
        <ele>852</ele>
        <time>2025-10-05T12:02:12Z</time>
      </trkpt>
      <trkpt lat="43.32888" lon="5.76827">
        <ele>851.8</ele>
        <time>2025-10-05T12:02:13Z</time>
      </trkpt>
      <trkpt lat="43.32888" lon="5.76826">
        <ele>851.8</ele>
        <time>2025-10-05T12:02:14Z</time>
      </trkpt>
      <trkpt lat="43.32889" lon="5.76825">
        <ele>851.6</ele>
        <time>2025-10-05T12:02:15Z</time>
      </trkpt>
      <trkpt lat="43.32889" lon="5.76824">
        <ele>851.5</ele>
        <time>2025-10-05T12:02:16Z</time>
      </trkpt>
      <trkpt lat="43.3289" lon="5.76822">
        <ele>851.4</ele>
        <time>2025-10-05T12:02:17Z</time>
      </trkpt>
      <trkpt lat="43.32891" lon="5.76821">
        <ele>851.2</ele>
        <time>2025-10-05T12:02:18Z</time>
      </trkpt>
      <trkpt lat="43.32891" lon="5.7682">
        <ele>851.1</ele>
        <time>2025-10-05T12:02:19Z</time>
      </trkpt>
      <trkpt lat="43.32891" lon="5.76818">
        <ele>851</ele>
        <time>2025-10-05T12:02:20Z</time>
      </trkpt>
      <trkpt lat="43.32891" lon="5.76816">
        <ele>850.9</ele>
        <time>2025-10-05T12:02:21Z</time>
      </trkpt>
      <trkpt lat="43.32891" lon="5.76815">
        <ele>850.8</ele>
        <time>2025-10-05T12:02:22Z</time>
      </trkpt>
      <trkpt lat="43.32891" lon="5.76814">
        <ele>850.8</ele>
        <time>2025-10-05T12:02:23Z</time>
      </trkpt>
      <trkpt lat="43.32893" lon="5.76813">
        <ele>850.6</ele>
        <time>2025-10-05T12:02:24Z</time>
      </trkpt>
      <trkpt lat="43.32893" lon="5.76813">
        <ele>850.5</ele>
        <time>2025-10-05T12:02:25Z</time>
      </trkpt>
      <trkpt lat="43.32894" lon="5.76812">
        <ele>850.4</ele>
        <time>2025-10-05T12:02:26Z</time>
      </trkpt>
      <trkpt lat="43.32894" lon="5.76811">
        <ele>850.3</ele>
        <time>2025-10-05T12:02:27Z</time>
      </trkpt>
      <trkpt lat="43.32895" lon="5.7681">
        <ele>850.1</ele>
        <time>2025-10-05T12:02:28Z</time>
      </trkpt>
      <trkpt lat="43.32894" lon="5.76809">
        <ele>850</ele>
        <time>2025-10-05T12:02:29Z</time>
      </trkpt>
      <trkpt lat="43.32894" lon="5.76807">
        <ele>849.9</ele>
        <time>2025-10-05T12:02:30Z</time>
      </trkpt>
      <trkpt lat="43.32894" lon="5.76805">
        <ele>849.9</ele>
        <time>2025-10-05T12:02:31Z</time>
      </trkpt>
      <trkpt lat="43.32894" lon="5.76804">
        <ele>849.9</ele>
        <time>2025-10-05T12:02:32Z</time>
      </trkpt>
      <trkpt lat="43.32895" lon="5.76803">
        <ele>849.8</ele>
        <time>2025-10-05T12:02:33Z</time>
      </trkpt>
      <trkpt lat="43.32895" lon="5.76801">
        <ele>849.6</ele>
        <time>2025-10-05T12:02:34Z</time>
      </trkpt>
      <trkpt lat="43.32895" lon="5.768">
        <ele>849.4</ele>
        <time>2025-10-05T12:02:35Z</time>
      </trkpt>
      <trkpt lat="43.32895" lon="5.76798">
        <ele>849.4</ele>
        <time>2025-10-05T12:02:36Z</time>
      </trkpt>
      <trkpt lat="43.32895" lon="5.76796">
        <ele>849.4</ele>
        <time>2025-10-05T12:02:37Z</time>
      </trkpt>
      <trkpt lat="43.32896" lon="5.76795">
        <ele>849.4</ele>
        <time>2025-10-05T12:02:38Z</time>
      </trkpt>
      <trkpt lat="43.32896" lon="5.76793">
        <ele>849.3</ele>
        <time>2025-10-05T12:02:39Z</time>
      </trkpt>
      <trkpt lat="43.32896" lon="5.76792">
        <ele>849.2</ele>
        <time>2025-10-05T12:02:40Z</time>
      </trkpt>
      <trkpt lat="43.32896" lon="5.76791">
        <ele>849.1</ele>
        <time>2025-10-05T12:02:41Z</time>
      </trkpt>
      <trkpt lat="43.32896" lon="5.7679">
        <ele>849</ele>
        <time>2025-10-05T12:02:42Z</time>
      </trkpt>
      <trkpt lat="43.32896" lon="5.76788">
        <ele>848.8</ele>
        <time>2025-10-05T12:02:43Z</time>
      </trkpt>
      <trkpt lat="43.32896" lon="5.76786">
        <ele>848.7</ele>
        <time>2025-10-05T12:02:44Z</time>
      </trkpt>
      <trkpt lat="43.32895" lon="5.76785">
        <ele>848.6</ele>
        <time>2025-10-05T12:02:45Z</time>
      </trkpt>
      <trkpt lat="43.32895" lon="5.76784">
        <ele>848.5</ele>
        <time>2025-10-05T12:02:46Z</time>
      </trkpt>
      <trkpt lat="43.32895" lon="5.76783">
        <ele>848.4</ele>
        <time>2025-10-05T12:02:47Z</time>
      </trkpt>
      <trkpt lat="43.32892" lon="5.76781">
        <ele>848.3</ele>
        <time>2025-10-05T12:02:48Z</time>
      </trkpt>
      <trkpt lat="43.32891" lon="5.76779">
        <ele>848.2</ele>
        <time>2025-10-05T12:02:49Z</time>
      </trkpt>
      <trkpt lat="43.32892" lon="5.76778">
        <ele>848</ele>
        <time>2025-10-05T12:02:50Z</time>
      </trkpt>
      <trkpt lat="43.32893" lon="5.76776">
        <ele>847.9</ele>
        <time>2025-10-05T12:02:51Z</time>
      </trkpt>
      <trkpt lat="43.32893" lon="5.76775">
        <ele>847.8</ele>
        <time>2025-10-05T12:02:52Z</time>
      </trkpt>
      <trkpt lat="43.32893" lon="5.76773">
        <ele>847.6</ele>
        <time>2025-10-05T12:02:53Z</time>
      </trkpt>
      <trkpt lat="43.32893" lon="5.76772">
        <ele>847.5</ele>
        <time>2025-10-05T12:02:54Z</time>
      </trkpt>
      <trkpt lat="43.32891" lon="5.7677">
        <ele>847.5</ele>
        <time>2025-10-05T12:02:55Z</time>
      </trkpt>
      <trkpt lat="43.32891" lon="5.76768">
        <ele>847.4</ele>
        <time>2025-10-05T12:02:56Z</time>
      </trkpt>
      <trkpt lat="43.3289" lon="5.76767">
        <ele>847.3</ele>
        <time>2025-10-05T12:02:57Z</time>
      </trkpt>
      <trkpt lat="43.32889" lon="5.76766">
        <ele>847.3</ele>
        <time>2025-10-05T12:02:58Z</time>
      </trkpt>
      <trkpt lat="43.32889" lon="5.76765">
        <ele>847.3</ele>
        <time>2025-10-05T12:02:59Z</time>
      </trkpt>
      <trkpt lat="43.32887" lon="5.76764">
        <ele>847.3</ele>
        <time>2025-10-05T12:03:00Z</time>
      </trkpt>
      <trkpt lat="43.32887" lon="5.76762">
        <ele>847.4</ele>
        <time>2025-10-05T12:03:01Z</time>
      </trkpt>
      <trkpt lat="43.32886" lon="5.76762">
        <ele>847.4</ele>
        <time>2025-10-05T12:03:02Z</time>
      </trkpt>
      <trkpt lat="43.32885" lon="5.76761">
        <ele>847.4</ele>
        <time>2025-10-05T12:03:03Z</time>
      </trkpt>
      <trkpt lat="43.32885" lon="5.7676">
        <ele>847.3</ele>
        <time>2025-10-05T12:03:04Z</time>
      </trkpt>
      <trkpt lat="43.32885" lon="5.76759">
        <ele>847.2</ele>
        <time>2025-10-05T12:03:05Z</time>
      </trkpt>
      <trkpt lat="43.32885" lon="5.76759">
        <ele>847.2</ele>
        <time>2025-10-05T12:03:06Z</time>
      </trkpt>
      <trkpt lat="43.32884" lon="5.76759">
        <ele>847.1</ele>
        <time>2025-10-05T12:03:07Z</time>
      </trkpt>
      <trkpt lat="43.32884" lon="5.76759">
        <ele>847.1</ele>
        <time>2025-10-05T12:03:08Z</time>
      </trkpt>
      <trkpt lat="43.32883" lon="5.76759">
        <ele>847.1</ele>
        <time>2025-10-05T12:03:09Z</time>
      </trkpt>
      <trkpt lat="43.32885" lon="5.76758">
        <ele>847</ele>
        <time>2025-10-05T12:03:10Z</time>
      </trkpt>
      <trkpt lat="43.32885" lon="5.76757">
        <ele>847</ele>
        <time>2025-10-05T12:03:11Z</time>
      </trkpt>
      <trkpt lat="43.32884" lon="5.76757">
        <ele>846.9</ele>
        <time>2025-10-05T12:03:12Z</time>
      </trkpt>
      <trkpt lat="43.32883" lon="5.76757">
        <ele>846.9</ele>
        <time>2025-10-05T12:03:13Z</time>
      </trkpt>
      <trkpt lat="43.32884" lon="5.76756">
        <ele>846.9</ele>
        <time>2025-10-05T12:03:14Z</time>
      </trkpt>
      <trkpt lat="43.32884" lon="5.76756">
        <ele>846.9</ele>
        <time>2025-10-05T12:03:15Z</time>
      </trkpt>
      <trkpt lat="43.32884" lon="5.76755">
        <ele>846.8</ele>
        <time>2025-10-05T12:03:16Z</time>
      </trkpt>
      <trkpt lat="43.32884" lon="5.76754">
        <ele>846.8</ele>
        <time>2025-10-05T12:03:17Z</time>
      </trkpt>
      <trkpt lat="43.32883" lon="5.76753">
        <ele>846.7</ele>
        <time>2025-10-05T12:03:18Z</time>
      </trkpt>
      <trkpt lat="43.32881" lon="5.76752">
        <ele>846.6</ele>
        <time>2025-10-05T12:03:19Z</time>
      </trkpt>
      <trkpt lat="43.32881" lon="5.76752">
        <ele>846.5</ele>
        <time>2025-10-05T12:03:20Z</time>
      </trkpt>
      <trkpt lat="43.3288" lon="5.76751">
        <ele>846.4</ele>
        <time>2025-10-05T12:03:21Z</time>
      </trkpt>
      <trkpt lat="43.3288" lon="5.76751">
        <ele>846.3</ele>
        <time>2025-10-05T12:03:22Z</time>
      </trkpt>
      <trkpt lat="43.32879" lon="5.76751">
        <ele>846.2</ele>
        <time>2025-10-05T12:03:23Z</time>
      </trkpt>
      <trkpt lat="43.32879" lon="5.7675">
        <ele>846</ele>
        <time>2025-10-05T12:03:24Z</time>
      </trkpt>
      <trkpt lat="43.32879" lon="5.7675">
        <ele>845.9</ele>
        <time>2025-10-05T12:03:25Z</time>
      </trkpt>
      <trkpt lat="43.32879" lon="5.7675">
        <ele>845.7</ele>
        <time>2025-10-05T12:03:26Z</time>
      </trkpt>
      <trkpt lat="43.32879" lon="5.7675">
        <ele>845.6</ele>
        <time>2025-10-05T12:03:27Z</time>
      </trkpt>
      <trkpt lat="43.32879" lon="5.7675">
        <ele>845.4</ele>
        <time>2025-10-05T12:03:28Z</time>
      </trkpt>
      <trkpt lat="43.32878" lon="5.7675">
        <ele>845.3</ele>
        <time>2025-10-05T12:03:29Z</time>
      </trkpt>
      <trkpt lat="43.32879" lon="5.76749">
        <ele>845.3</ele>
        <time>2025-10-05T12:03:30Z</time>
      </trkpt>
      <trkpt lat="43.32879" lon="5.76749">
        <ele>845.2</ele>
        <time>2025-10-05T12:03:31Z</time>
      </trkpt>
      <trkpt lat="43.32879" lon="5.76749">
        <ele>845.3</ele>
        <time>2025-10-05T12:03:32Z</time>
      </trkpt>
      <trkpt lat="43.32879" lon="5.76748">
        <ele>845.3</ele>
        <time>2025-10-05T12:03:33Z</time>
      </trkpt>
      <trkpt lat="43.32879" lon="5.76747">
        <ele>845.3</ele>
        <time>2025-10-05T12:03:34Z</time>
      </trkpt>
      <trkpt lat="43.32879" lon="5.76746">
        <ele>845.3</ele>
        <time>2025-10-05T12:03:35Z</time>
      </trkpt>
      <trkpt lat="43.32879" lon="5.76746">
        <ele>845.3</ele>
        <time>2025-10-05T12:03:36Z</time>
      </trkpt>
      <trkpt lat="43.32879" lon="5.76746">
        <ele>845.3</ele>
        <time>2025-10-05T12:03:37Z</time>
      </trkpt>
      <trkpt lat="43.3288" lon="5.76746">
        <ele>845.2</ele>
        <time>2025-10-05T12:03:38Z</time>
      </trkpt>
      <trkpt lat="43.3288" lon="5.76745">
        <ele>845.1</ele>
        <time>2025-10-05T12:03:39Z</time>
      </trkpt>
      <trkpt lat="43.32881" lon="5.76745">
        <ele>845.1</ele>
        <time>2025-10-05T12:03:40Z</time>
      </trkpt>
      <trkpt lat="43.32881" lon="5.76745">
        <ele>845</ele>
        <time>2025-10-05T12:03:41Z</time>
      </trkpt>
      <trkpt lat="43.32882" lon="5.76744">
        <ele>845.2</ele>
        <time>2025-10-05T12:03:42Z</time>
      </trkpt>
      <trkpt lat="43.32882" lon="5.76744">
        <ele>845.1</ele>
        <time>2025-10-05T12:03:43Z</time>
      </trkpt>
      <trkpt lat="43.32881" lon="5.76744">
        <ele>845.1</ele>
        <time>2025-10-05T12:03:44Z</time>
      </trkpt>
      <trkpt lat="43.32881" lon="5.76744">
        <ele>845.1</ele>
        <time>2025-10-05T12:03:45Z</time>
      </trkpt>
      <trkpt lat="43.3288" lon="5.76744">
        <ele>845</ele>
        <time>2025-10-05T12:03:46Z</time>
      </trkpt>
      <trkpt lat="43.32881" lon="5.76744">
        <ele>845</ele>
        <time>2025-10-05T12:03:47Z</time>
      </trkpt>
      <trkpt lat="43.32881" lon="5.76744">
        <ele>844.9</ele>
        <time>2025-10-05T12:03:48Z</time>
      </trkpt>
      <trkpt lat="43.32882" lon="5.76744">
        <ele>844.9</ele>
        <time>2025-10-05T12:03:49Z</time>
      </trkpt>
      <trkpt lat="43.32882" lon="5.76743">
        <ele>844.8</ele>
        <time>2025-10-05T12:03:50Z</time>
      </trkpt>
      <trkpt lat="43.32883" lon="5.76742">
        <ele>844.8</ele>
        <time>2025-10-05T12:03:51Z</time>
      </trkpt>
      <trkpt lat="43.32883" lon="5.76742">
        <ele>844.7</ele>
        <time>2025-10-05T12:03:52Z</time>
      </trkpt>
      <trkpt lat="43.32883" lon="5.76742">
        <ele>844.6</ele>
        <time>2025-10-05T12:03:53Z</time>
      </trkpt>
      <trkpt lat="43.32884" lon="5.76742">
        <ele>844.7</ele>
        <time>2025-10-05T12:03:54Z</time>
      </trkpt>
      <trkpt lat="43.32884" lon="5.76741">
        <ele>844.7</ele>
        <time>2025-10-05T12:03:55Z</time>
      </trkpt>
      <trkpt lat="43.32884" lon="5.76741">
        <ele>844.7</ele>
        <time>2025-10-05T12:03:56Z</time>
      </trkpt>
      <trkpt lat="43.32884" lon="5.76741">
        <ele>844.8</ele>
        <time>2025-10-05T12:03:57Z</time>
      </trkpt>
      <trkpt lat="43.32883" lon="5.76742">
        <ele>844.7</ele>
        <time>2025-10-05T12:03:58Z</time>
      </trkpt>
      <trkpt lat="43.32881" lon="5.76743">
        <ele>844.7</ele>
        <time>2025-10-05T12:03:59Z</time>
      </trkpt>
      <trkpt lat="43.3288" lon="5.76744">
        <ele>844.7</ele>
        <time>2025-10-05T12:04:00Z</time>
      </trkpt>
      <trkpt lat="43.32881" lon="5.76744">
        <ele>844.7</ele>
        <time>2025-10-05T12:04:01Z</time>
      </trkpt>
      <trkpt lat="43.32881" lon="5.76743">
        <ele>844.7</ele>
        <time>2025-10-05T12:04:02Z</time>
      </trkpt>
      <trkpt lat="43.32881" lon="5.76743">
        <ele>844.7</ele>
        <time>2025-10-05T12:04:03Z</time>
      </trkpt>
      <trkpt lat="43.32882" lon="5.76743">
        <ele>844.7</ele>
        <time>2025-10-05T12:04:04Z</time>
      </trkpt>
      <trkpt lat="43.32881" lon="5.76743">
        <ele>844.7</ele>
        <time>2025-10-05T12:04:05Z</time>
      </trkpt>
      <trkpt lat="43.32881" lon="5.76742">
        <ele>844.7</ele>
        <time>2025-10-05T12:04:06Z</time>
      </trkpt>
      <trkpt lat="43.32881" lon="5.76743">
        <ele>844.8</ele>
        <time>2025-10-05T12:04:07Z</time>
      </trkpt>
      <trkpt lat="43.32881" lon="5.76743">
        <ele>844.9</ele>
        <time>2025-10-05T12:04:08Z</time>
      </trkpt>
      <trkpt lat="43.32881" lon="5.76743">
        <ele>844.9</ele>
        <time>2025-10-05T12:04:09Z</time>
      </trkpt>
      <trkpt lat="43.32881" lon="5.76743">
        <ele>844.9</ele>
        <time>2025-10-05T12:04:10Z</time>
      </trkpt>
      <trkpt lat="43.32881" lon="5.76743">
        <ele>845</ele>
        <time>2025-10-05T12:04:11Z</time>
      </trkpt>
      <trkpt lat="43.3288" lon="5.76743">
        <ele>845.1</ele>
        <time>2025-10-05T12:04:12Z</time>
      </trkpt>
      <trkpt lat="43.3288" lon="5.76744">
        <ele>845.1</ele>
        <time>2025-10-05T12:04:13Z</time>
      </trkpt>
      <trkpt lat="43.3288" lon="5.76744">
        <ele>845.2</ele>
        <time>2025-10-05T12:04:14Z</time>
      </trkpt>
      <trkpt lat="43.3288" lon="5.76744">
        <ele>845.3</ele>
        <time>2025-10-05T12:04:15Z</time>
      </trkpt>
      <trkpt lat="43.3288" lon="5.76744">
        <ele>845.3</ele>
        <time>2025-10-05T12:04:16Z</time>
      </trkpt>
      <trkpt lat="43.32881" lon="5.76743">
        <ele>845.3</ele>
        <time>2025-10-05T12:04:17Z</time>
      </trkpt>
      <trkpt lat="43.32881" lon="5.76743">
        <ele>845.3</ele>
        <time>2025-10-05T12:04:18Z</time>
      </trkpt>
      <trkpt lat="43.32882" lon="5.76743">
        <ele>845.3</ele>
        <time>2025-10-05T12:04:19Z</time>
      </trkpt>
      <trkpt lat="43.32882" lon="5.76743">
        <ele>845.2</ele>
        <time>2025-10-05T12:04:20Z</time>
      </trkpt>
      <trkpt lat="43.32882" lon="5.76743">
        <ele>845.1</ele>
        <time>2025-10-05T12:04:21Z</time>
      </trkpt>
      <trkpt lat="43.32881" lon="5.76742">
        <ele>845.1</ele>
        <time>2025-10-05T12:04:22Z</time>
      </trkpt>
      <trkpt lat="43.3288" lon="5.76742">
        <ele>845.1</ele>
        <time>2025-10-05T12:04:23Z</time>
      </trkpt>
      <trkpt lat="43.3288" lon="5.76742">
        <ele>845.2</ele>
        <time>2025-10-05T12:04:24Z</time>
      </trkpt>
      <trkpt lat="43.32879" lon="5.76742">
        <ele>845.3</ele>
        <time>2025-10-05T12:04:25Z</time>
      </trkpt>
      <trkpt lat="43.32879" lon="5.76742">
        <ele>845.3</ele>
        <time>2025-10-05T12:04:26Z</time>
      </trkpt>
      <trkpt lat="43.32879" lon="5.76742">
        <ele>845.3</ele>
        <time>2025-10-05T12:04:27Z</time>
      </trkpt>
      <trkpt lat="43.32878" lon="5.76742">
        <ele>845.3</ele>
        <time>2025-10-05T12:04:28Z</time>
      </trkpt>
      <trkpt lat="43.32878" lon="5.76742">
        <ele>845.4</ele>
        <time>2025-10-05T12:04:29Z</time>
      </trkpt>
      <trkpt lat="43.32878" lon="5.76743">
        <ele>845.4</ele>
        <time>2025-10-05T12:04:30Z</time>
      </trkpt>
      <trkpt lat="43.32877" lon="5.76743">
        <ele>845.5</ele>
        <time>2025-10-05T12:04:31Z</time>
      </trkpt>
      <trkpt lat="43.32877" lon="5.76743">
        <ele>845.6</ele>
        <time>2025-10-05T12:04:32Z</time>
      </trkpt>
      <trkpt lat="43.32877" lon="5.76744">
        <ele>845.6</ele>
        <time>2025-10-05T12:04:33Z</time>
      </trkpt>
      <trkpt lat="43.32877" lon="5.76744">
        <ele>845.6</ele>
        <time>2025-10-05T12:04:34Z</time>
      </trkpt>
      <trkpt lat="43.32877" lon="5.76744">
        <ele>845.7</ele>
        <time>2025-10-05T12:04:35Z</time>
      </trkpt>
      <trkpt lat="43.32878" lon="5.76743">
        <ele>845.7</ele>
        <time>2025-10-05T12:04:36Z</time>
      </trkpt>
      <trkpt lat="43.32878" lon="5.76743">
        <ele>845.8</ele>
        <time>2025-10-05T12:04:37Z</time>
      </trkpt>
      <trkpt lat="43.32878" lon="5.76742">
        <ele>845.8</ele>
        <time>2025-10-05T12:04:38Z</time>
      </trkpt>
      <trkpt lat="43.32879" lon="5.76741">
        <ele>845.8</ele>
        <time>2025-10-05T12:04:39Z</time>
      </trkpt>
      <trkpt lat="43.32879" lon="5.7674">
        <ele>845.9</ele>
        <time>2025-10-05T12:04:40Z</time>
      </trkpt>
      <trkpt lat="43.3288" lon="5.76739">
        <ele>845.8</ele>
        <time>2025-10-05T12:04:41Z</time>
      </trkpt>
      <trkpt lat="43.3288" lon="5.76738">
        <ele>845.7</ele>
        <time>2025-10-05T12:04:42Z</time>
      </trkpt>
      <trkpt lat="43.3288" lon="5.76738">
        <ele>845.6</ele>
        <time>2025-10-05T12:04:43Z</time>
      </trkpt>
      <trkpt lat="43.3288" lon="5.76737">
        <ele>845.5</ele>
        <time>2025-10-05T12:04:44Z</time>
      </trkpt>
      <trkpt lat="43.32881" lon="5.76737">
        <ele>845.3</ele>
        <time>2025-10-05T12:04:45Z</time>
      </trkpt>
      <trkpt lat="43.32883" lon="5.76735">
        <ele>845.1</ele>
        <time>2025-10-05T12:04:46Z</time>
      </trkpt>
      <trkpt lat="43.32882" lon="5.76735">
        <ele>845</ele>
        <time>2025-10-05T12:04:47Z</time>
      </trkpt>
      <trkpt lat="43.32881" lon="5.76734">
        <ele>844.7</ele>
        <time>2025-10-05T12:04:48Z</time>
      </trkpt>
      <trkpt lat="43.32881" lon="5.76733">
        <ele>844.5</ele>
        <time>2025-10-05T12:04:49Z</time>
      </trkpt>
      <trkpt lat="43.32881" lon="5.76732">
        <ele>844.3</ele>
        <time>2025-10-05T12:04:50Z</time>
      </trkpt>
      <trkpt lat="43.3288" lon="5.76731">
        <ele>844.2</ele>
        <time>2025-10-05T12:04:51Z</time>
      </trkpt>
      <trkpt lat="43.32881" lon="5.76729">
        <ele>844</ele>
        <time>2025-10-05T12:04:52Z</time>
      </trkpt>
      <trkpt lat="43.32881" lon="5.76729">
        <ele>843.8</ele>
        <time>2025-10-05T12:04:53Z</time>
      </trkpt>
      <trkpt lat="43.3288" lon="5.76728">
        <ele>843.7</ele>
        <time>2025-10-05T12:04:54Z</time>
      </trkpt>
      <trkpt lat="43.32881" lon="5.76727">
        <ele>843.6</ele>
        <time>2025-10-05T12:04:55Z</time>
      </trkpt>
      <trkpt lat="43.32882" lon="5.76726">
        <ele>843.4</ele>
        <time>2025-10-05T12:04:56Z</time>
      </trkpt>
      <trkpt lat="43.32882" lon="5.76725">
        <ele>843.2</ele>
        <time>2025-10-05T12:04:57Z</time>
      </trkpt>
      <trkpt lat="43.32882" lon="5.76724">
        <ele>842.9</ele>
        <time>2025-10-05T12:04:58Z</time>
      </trkpt>
      <trkpt lat="43.32882" lon="5.76724">
        <ele>842.7</ele>
        <time>2025-10-05T12:04:59Z</time>
      </trkpt>
      <trkpt lat="43.32882" lon="5.76723">
        <ele>842.5</ele>
        <time>2025-10-05T12:05:00Z</time>
      </trkpt>
      <trkpt lat="43.3288" lon="5.76722">
        <ele>842.3</ele>
        <time>2025-10-05T12:05:01Z</time>
      </trkpt>
      <trkpt lat="43.3288" lon="5.76721">
        <ele>842.2</ele>
        <time>2025-10-05T12:05:02Z</time>
      </trkpt>
      <trkpt lat="43.3288" lon="5.7672">
        <ele>841.9</ele>
        <time>2025-10-05T12:05:03Z</time>
      </trkpt>
      <trkpt lat="43.32879" lon="5.76719">
        <ele>841.7</ele>
        <time>2025-10-05T12:05:04Z</time>
      </trkpt>
      <trkpt lat="43.3288" lon="5.76718">
        <ele>841.5</ele>
        <time>2025-10-05T12:05:05Z</time>
      </trkpt>
      <trkpt lat="43.32879" lon="5.76717">
        <ele>841.3</ele>
        <time>2025-10-05T12:05:06Z</time>
      </trkpt>
      <trkpt lat="43.32879" lon="5.76717">
        <ele>841.1</ele>
        <time>2025-10-05T12:05:07Z</time>
      </trkpt>
      <trkpt lat="43.32879" lon="5.76716">
        <ele>840.8</ele>
        <time>2025-10-05T12:05:08Z</time>
      </trkpt>
      <trkpt lat="43.3288" lon="5.76715">
        <ele>840.7</ele>
        <time>2025-10-05T12:05:09Z</time>
      </trkpt>
      <trkpt lat="43.32879" lon="5.76714">
        <ele>840.5</ele>
        <time>2025-10-05T12:05:10Z</time>
      </trkpt>
      <trkpt lat="43.32878" lon="5.76714">
        <ele>840.3</ele>
        <time>2025-10-05T12:05:11Z</time>
      </trkpt>
      <trkpt lat="43.32878" lon="5.76713">
        <ele>840.2</ele>
        <time>2025-10-05T12:05:12Z</time>
      </trkpt>
      <trkpt lat="43.32877" lon="5.76712">
        <ele>840</ele>
        <time>2025-10-05T12:05:13Z</time>
      </trkpt>
      <trkpt lat="43.32877" lon="5.76712">
        <ele>839.8</ele>
        <time>2025-10-05T12:05:14Z</time>
      </trkpt>
      <trkpt lat="43.32877" lon="5.76711">
        <ele>839.6</ele>
        <time>2025-10-05T12:05:15Z</time>
      </trkpt>
      <trkpt lat="43.32877" lon="5.7671">
        <ele>839.5</ele>
        <time>2025-10-05T12:05:16Z</time>
      </trkpt>
      <trkpt lat="43.32877" lon="5.76709">
        <ele>839.3</ele>
        <time>2025-10-05T12:05:17Z</time>
      </trkpt>
      <trkpt lat="43.32877" lon="5.76708">
        <ele>839</ele>
        <time>2025-10-05T12:05:18Z</time>
      </trkpt>
      <trkpt lat="43.32877" lon="5.76707">
        <ele>839</ele>
        <time>2025-10-05T12:05:19Z</time>
      </trkpt>
      <trkpt lat="43.32877" lon="5.76706">
        <ele>838.7</ele>
        <time>2025-10-05T12:05:20Z</time>
      </trkpt>
      <trkpt lat="43.32877" lon="5.76705">
        <ele>838.5</ele>
        <time>2025-10-05T12:05:21Z</time>
      </trkpt>
      <trkpt lat="43.32876" lon="5.76704">
        <ele>838.2</ele>
        <time>2025-10-05T12:05:22Z</time>
      </trkpt>
      <trkpt lat="43.32877" lon="5.76704">
        <ele>838.1</ele>
        <time>2025-10-05T12:05:23Z</time>
      </trkpt>
      <trkpt lat="43.32876" lon="5.76703">
        <ele>838</ele>
        <time>2025-10-05T12:05:24Z</time>
      </trkpt>
      <trkpt lat="43.32875" lon="5.76702">
        <ele>837.9</ele>
        <time>2025-10-05T12:05:25Z</time>
      </trkpt>
      <trkpt lat="43.32874" lon="5.76702">
        <ele>837.8</ele>
        <time>2025-10-05T12:05:26Z</time>
      </trkpt>
      <trkpt lat="43.32874" lon="5.76701">
        <ele>837.6</ele>
        <time>2025-10-05T12:05:27Z</time>
      </trkpt>
      <trkpt lat="43.32873" lon="5.76701">
        <ele>837.4</ele>
        <time>2025-10-05T12:05:28Z</time>
      </trkpt>
      <trkpt lat="43.32873" lon="5.76701">
        <ele>837.3</ele>
        <time>2025-10-05T12:05:29Z</time>
      </trkpt>
      <trkpt lat="43.32872" lon="5.767">
        <ele>837.1</ele>
        <time>2025-10-05T12:05:30Z</time>
      </trkpt>
      <trkpt lat="43.32872" lon="5.76699">
        <ele>836.9</ele>
        <time>2025-10-05T12:05:31Z</time>
      </trkpt>
      <trkpt lat="43.3287" lon="5.76698">
        <ele>836.8</ele>
        <time>2025-10-05T12:05:32Z</time>
      </trkpt>
      <trkpt lat="43.32869" lon="5.76697">
        <ele>836.7</ele>
        <time>2025-10-05T12:05:33Z</time>
      </trkpt>
      <trkpt lat="43.32868" lon="5.76697">
        <ele>836.5</ele>
        <time>2025-10-05T12:05:34Z</time>
      </trkpt>
      <trkpt lat="43.32868" lon="5.76696">
        <ele>836.4</ele>
        <time>2025-10-05T12:05:35Z</time>
      </trkpt>
      <trkpt lat="43.32867" lon="5.76696">
        <ele>836.3</ele>
        <time>2025-10-05T12:05:36Z</time>
      </trkpt>
      <trkpt lat="43.32866" lon="5.76695">
        <ele>836.2</ele>
        <time>2025-10-05T12:05:37Z</time>
      </trkpt>
      <trkpt lat="43.32866" lon="5.76694">
        <ele>836.1</ele>
        <time>2025-10-05T12:05:38Z</time>
      </trkpt>
      <trkpt lat="43.32866" lon="5.76694">
        <ele>835.9</ele>
        <time>2025-10-05T12:05:39Z</time>
      </trkpt>
      <trkpt lat="43.32866" lon="5.76693">
        <ele>835.8</ele>
        <time>2025-10-05T12:05:40Z</time>
      </trkpt>
      <trkpt lat="43.32865" lon="5.76692">
        <ele>835.7</ele>
        <time>2025-10-05T12:05:41Z</time>
      </trkpt>
      <trkpt lat="43.32863" lon="5.76691">
        <ele>835.6</ele>
        <time>2025-10-05T12:05:42Z</time>
      </trkpt>
      <trkpt lat="43.32864" lon="5.7669">
        <ele>835.5</ele>
        <time>2025-10-05T12:05:43Z</time>
      </trkpt>
      <trkpt lat="43.32862" lon="5.7669">
        <ele>835.4</ele>
        <time>2025-10-05T12:05:44Z</time>
      </trkpt>
      <trkpt lat="43.32862" lon="5.76689">
        <ele>835.3</ele>
        <time>2025-10-05T12:05:45Z</time>
      </trkpt>
      <trkpt lat="43.32861" lon="5.76689">
        <ele>835.2</ele>
        <time>2025-10-05T12:05:46Z</time>
      </trkpt>
      <trkpt lat="43.3286" lon="5.76688">
        <ele>835.1</ele>
        <time>2025-10-05T12:05:47Z</time>
      </trkpt>
      <trkpt lat="43.3286" lon="5.76687">
        <ele>835</ele>
        <time>2025-10-05T12:05:48Z</time>
      </trkpt>
      <trkpt lat="43.32859" lon="5.76686">
        <ele>835</ele>
        <time>2025-10-05T12:05:49Z</time>
      </trkpt>
      <trkpt lat="43.32858" lon="5.76685">
        <ele>834.8</ele>
        <time>2025-10-05T12:05:50Z</time>
      </trkpt>
      <trkpt lat="43.32857" lon="5.76684">
        <ele>834.8</ele>
        <time>2025-10-05T12:05:51Z</time>
      </trkpt>
      <trkpt lat="43.32856" lon="5.76683">
        <ele>834.7</ele>
        <time>2025-10-05T12:05:52Z</time>
      </trkpt>
      <trkpt lat="43.32855" lon="5.76682">
        <ele>834.6</ele>
        <time>2025-10-05T12:05:53Z</time>
      </trkpt>
      <trkpt lat="43.32855" lon="5.76681">
        <ele>834.5</ele>
        <time>2025-10-05T12:05:54Z</time>
      </trkpt>
      <trkpt lat="43.32855" lon="5.7668">
        <ele>834.5</ele>
        <time>2025-10-05T12:05:55Z</time>
      </trkpt>
      <trkpt lat="43.32855" lon="5.76679">
        <ele>834.4</ele>
        <time>2025-10-05T12:05:56Z</time>
      </trkpt>
      <trkpt lat="43.32854" lon="5.76679">
        <ele>834.4</ele>
        <time>2025-10-05T12:05:57Z</time>
      </trkpt>
      <trkpt lat="43.32854" lon="5.76678">
        <ele>834.3</ele>
        <time>2025-10-05T12:05:58Z</time>
      </trkpt>
      <trkpt lat="43.32854" lon="5.76677">
        <ele>834.2</ele>
        <time>2025-10-05T12:05:59Z</time>
      </trkpt>
      <trkpt lat="43.32854" lon="5.76676">
        <ele>834</ele>
        <time>2025-10-05T12:06:00Z</time>
      </trkpt>
      <trkpt lat="43.32854" lon="5.76676">
        <ele>834.1</ele>
        <time>2025-10-05T12:06:01Z</time>
      </trkpt>
      <trkpt lat="43.32853" lon="5.76674">
        <ele>834</ele>
        <time>2025-10-05T12:06:02Z</time>
      </trkpt>
      <trkpt lat="43.32853" lon="5.76673">
        <ele>833.8</ele>
        <time>2025-10-05T12:06:03Z</time>
      </trkpt>
      <trkpt lat="43.32853" lon="5.76672">
        <ele>833.6</ele>
        <time>2025-10-05T12:06:04Z</time>
      </trkpt>
      <trkpt lat="43.32854" lon="5.76671">
        <ele>833.4</ele>
        <time>2025-10-05T12:06:05Z</time>
      </trkpt>
      <trkpt lat="43.32854" lon="5.76671">
        <ele>833.3</ele>
        <time>2025-10-05T12:06:06Z</time>
      </trkpt>
      <trkpt lat="43.32853" lon="5.7667">
        <ele>833.2</ele>
        <time>2025-10-05T12:06:07Z</time>
      </trkpt>
      <trkpt lat="43.32853" lon="5.76669">
        <ele>833</ele>
        <time>2025-10-05T12:06:08Z</time>
      </trkpt>
      <trkpt lat="43.32851" lon="5.76668">
        <ele>832.8</ele>
        <time>2025-10-05T12:06:09Z</time>
      </trkpt>
      <trkpt lat="43.32851" lon="5.76667">
        <ele>832.6</ele>
        <time>2025-10-05T12:06:10Z</time>
      </trkpt>
      <trkpt lat="43.3285" lon="5.76666">
        <ele>832.5</ele>
        <time>2025-10-05T12:06:11Z</time>
      </trkpt>
      <trkpt lat="43.3285" lon="5.76664">
        <ele>832.4</ele>
        <time>2025-10-05T12:06:12Z</time>
      </trkpt>
      <trkpt lat="43.32849" lon="5.76663">
        <ele>832.3</ele>
        <time>2025-10-05T12:06:13Z</time>
      </trkpt>
      <trkpt lat="43.3285" lon="5.76661">
        <ele>832.2</ele>
        <time>2025-10-05T12:06:14Z</time>
      </trkpt>
      <trkpt lat="43.32849" lon="5.7666">
        <ele>832.1</ele>
        <time>2025-10-05T12:06:15Z</time>
      </trkpt>
      <trkpt lat="43.3285" lon="5.76659">
        <ele>831.9</ele>
        <time>2025-10-05T12:06:16Z</time>
      </trkpt>
      <trkpt lat="43.32849" lon="5.76658">
        <ele>831.7</ele>
        <time>2025-10-05T12:06:17Z</time>
      </trkpt>
      <trkpt lat="43.32849" lon="5.76657">
        <ele>831.6</ele>
        <time>2025-10-05T12:06:18Z</time>
      </trkpt>
      <trkpt lat="43.32847" lon="5.76656">
        <ele>831.5</ele>
        <time>2025-10-05T12:06:19Z</time>
      </trkpt>
      <trkpt lat="43.32847" lon="5.76655">
        <ele>831.5</ele>
        <time>2025-10-05T12:06:20Z</time>
      </trkpt>
      <trkpt lat="43.32848" lon="5.76654">
        <ele>831.5</ele>
        <time>2025-10-05T12:06:21Z</time>
      </trkpt>
      <trkpt lat="43.32847" lon="5.76653">
        <ele>831.5</ele>
        <time>2025-10-05T12:06:22Z</time>
      </trkpt>
      <trkpt lat="43.32847" lon="5.76652">
        <ele>831.5</ele>
        <time>2025-10-05T12:06:23Z</time>
      </trkpt>
      <trkpt lat="43.32846" lon="5.76651">
        <ele>831.5</ele>
        <time>2025-10-05T12:06:24Z</time>
      </trkpt>
      <trkpt lat="43.32847" lon="5.76649">
        <ele>831.4</ele>
        <time>2025-10-05T12:06:25Z</time>
      </trkpt>
      <trkpt lat="43.32847" lon="5.76648">
        <ele>831.3</ele>
        <time>2025-10-05T12:06:26Z</time>
      </trkpt>
      <trkpt lat="43.32847" lon="5.76646">
        <ele>831.2</ele>
        <time>2025-10-05T12:06:27Z</time>
      </trkpt>
      <trkpt lat="43.32847" lon="5.76645">
        <ele>831.1</ele>
        <time>2025-10-05T12:06:28Z</time>
      </trkpt>
      <trkpt lat="43.32846" lon="5.76644">
        <ele>830.8</ele>
        <time>2025-10-05T12:06:29Z</time>
      </trkpt>
      <trkpt lat="43.32845" lon="5.76643">
        <ele>830.6</ele>
        <time>2025-10-05T12:06:30Z</time>
      </trkpt>
      <trkpt lat="43.32844" lon="5.76642">
        <ele>830.4</ele>
        <time>2025-10-05T12:06:31Z</time>
      </trkpt>
      <trkpt lat="43.32843" lon="5.76641">
        <ele>830.2</ele>
        <time>2025-10-05T12:06:32Z</time>
      </trkpt>
      <trkpt lat="43.32842" lon="5.7664">
        <ele>830.1</ele>
        <time>2025-10-05T12:06:33Z</time>
      </trkpt>
      <trkpt lat="43.32842" lon="5.76639">
        <ele>830</ele>
        <time>2025-10-05T12:06:34Z</time>
      </trkpt>
      <trkpt lat="43.32842" lon="5.76637">
        <ele>829.8</ele>
        <time>2025-10-05T12:06:35Z</time>
      </trkpt>
      <trkpt lat="43.32842" lon="5.76636">
        <ele>829.8</ele>
        <time>2025-10-05T12:06:36Z</time>
      </trkpt>
      <trkpt lat="43.32843" lon="5.76635">
        <ele>829.7</ele>
        <time>2025-10-05T12:06:37Z</time>
      </trkpt>
      <trkpt lat="43.32842" lon="5.76634">
        <ele>829.7</ele>
        <time>2025-10-05T12:06:38Z</time>
      </trkpt>
      <trkpt lat="43.32841" lon="5.76633">
        <ele>829.7</ele>
        <time>2025-10-05T12:06:39Z</time>
      </trkpt>
      <trkpt lat="43.32841" lon="5.76632">
        <ele>829.7</ele>
        <time>2025-10-05T12:06:40Z</time>
      </trkpt>
      <trkpt lat="43.3284" lon="5.76631">
        <ele>829.6</ele>
        <time>2025-10-05T12:06:41Z</time>
      </trkpt>
      <trkpt lat="43.32841" lon="5.7663">
        <ele>829.5</ele>
        <time>2025-10-05T12:06:42Z</time>
      </trkpt>
      <trkpt lat="43.3284" lon="5.76629">
        <ele>829.6</ele>
        <time>2025-10-05T12:06:43Z</time>
      </trkpt>
      <trkpt lat="43.3284" lon="5.76628">
        <ele>829.3</ele>
        <time>2025-10-05T12:06:44Z</time>
      </trkpt>
      <trkpt lat="43.3284" lon="5.76626">
        <ele>829.2</ele>
        <time>2025-10-05T12:06:45Z</time>
      </trkpt>
      <trkpt lat="43.32841" lon="5.76625">
        <ele>829.1</ele>
        <time>2025-10-05T12:06:46Z</time>
      </trkpt>
      <trkpt lat="43.32841" lon="5.76623">
        <ele>828.9</ele>
        <time>2025-10-05T12:06:47Z</time>
      </trkpt>
      <trkpt lat="43.32841" lon="5.76621">
        <ele>828.7</ele>
        <time>2025-10-05T12:06:48Z</time>
      </trkpt>
      <trkpt lat="43.32841" lon="5.7662">
        <ele>828.6</ele>
        <time>2025-10-05T12:06:49Z</time>
      </trkpt>
      <trkpt lat="43.3284" lon="5.76619">
        <ele>828.4</ele>
        <time>2025-10-05T12:06:50Z</time>
      </trkpt>
      <trkpt lat="43.3284" lon="5.76617">
        <ele>828.1</ele>
        <time>2025-10-05T12:06:51Z</time>
      </trkpt>
      <trkpt lat="43.3284" lon="5.76616">
        <ele>827.7</ele>
        <time>2025-10-05T12:06:52Z</time>
      </trkpt>
      <trkpt lat="43.3284" lon="5.76615">
        <ele>827.5</ele>
        <time>2025-10-05T12:06:53Z</time>
      </trkpt>
      <trkpt lat="43.32843" lon="5.76613">
        <ele>827.4</ele>
        <time>2025-10-05T12:06:54Z</time>
      </trkpt>
      <trkpt lat="43.32843" lon="5.76612">
        <ele>827.3</ele>
        <time>2025-10-05T12:06:55Z</time>
      </trkpt>
      <trkpt lat="43.32841" lon="5.76612">
        <ele>827.1</ele>
        <time>2025-10-05T12:06:56Z</time>
      </trkpt>
      <trkpt lat="43.32841" lon="5.7661">
        <ele>826.9</ele>
        <time>2025-10-05T12:06:57Z</time>
      </trkpt>
      <trkpt lat="43.3284" lon="5.76609">
        <ele>826.8</ele>
        <time>2025-10-05T12:06:58Z</time>
      </trkpt>
      <trkpt lat="43.32839" lon="5.76608">
        <ele>826.8</ele>
        <time>2025-10-05T12:06:59Z</time>
      </trkpt>
      <trkpt lat="43.32839" lon="5.76608">
        <ele>826.7</ele>
        <time>2025-10-05T12:07:00Z</time>
      </trkpt>
      <trkpt lat="43.32837" lon="5.76607">
        <ele>826.6</ele>
        <time>2025-10-05T12:07:01Z</time>
      </trkpt>
      <trkpt lat="43.32837" lon="5.76605">
        <ele>826.5</ele>
        <time>2025-10-05T12:07:02Z</time>
      </trkpt>
      <trkpt lat="43.32836" lon="5.76604">
        <ele>826.4</ele>
        <time>2025-10-05T12:07:03Z</time>
      </trkpt>
      <trkpt lat="43.32836" lon="5.76602">
        <ele>826.4</ele>
        <time>2025-10-05T12:07:04Z</time>
      </trkpt>
      <trkpt lat="43.32836" lon="5.76601">
        <ele>826.4</ele>
        <time>2025-10-05T12:07:05Z</time>
      </trkpt>
      <trkpt lat="43.32836" lon="5.766">
        <ele>826.3</ele>
        <time>2025-10-05T12:07:06Z</time>
      </trkpt>
      <trkpt lat="43.32836" lon="5.76599">
        <ele>826.3</ele>
        <time>2025-10-05T12:07:07Z</time>
      </trkpt>
      <trkpt lat="43.32836" lon="5.76598">
        <ele>826.2</ele>
        <time>2025-10-05T12:07:08Z</time>
      </trkpt>
      <trkpt lat="43.32835" lon="5.76597">
        <ele>826.1</ele>
        <time>2025-10-05T12:07:09Z</time>
      </trkpt>
      <trkpt lat="43.32835" lon="5.76596">
        <ele>826.1</ele>
        <time>2025-10-05T12:07:10Z</time>
      </trkpt>
      <trkpt lat="43.32834" lon="5.76595">
        <ele>826.1</ele>
        <time>2025-10-05T12:07:11Z</time>
      </trkpt>
      <trkpt lat="43.32834" lon="5.76593">
        <ele>826.1</ele>
        <time>2025-10-05T12:07:12Z</time>
      </trkpt>
      <trkpt lat="43.32834" lon="5.76592">
        <ele>826.2</ele>
        <time>2025-10-05T12:07:13Z</time>
      </trkpt>
      <trkpt lat="43.32834" lon="5.7659">
        <ele>826.2</ele>
        <time>2025-10-05T12:07:14Z</time>
      </trkpt>
      <trkpt lat="43.32834" lon="5.76588">
        <ele>826.3</ele>
        <time>2025-10-05T12:07:15Z</time>
      </trkpt>
      <trkpt lat="43.32835" lon="5.76586">
        <ele>826.3</ele>
        <time>2025-10-05T12:07:16Z</time>
      </trkpt>
      <trkpt lat="43.32835" lon="5.76584">
        <ele>826.4</ele>
        <time>2025-10-05T12:07:17Z</time>
      </trkpt>
      <trkpt lat="43.32835" lon="5.76583">
        <ele>826.3</ele>
        <time>2025-10-05T12:07:18Z</time>
      </trkpt>
      <trkpt lat="43.32836" lon="5.76581">
        <ele>826.3</ele>
        <time>2025-10-05T12:07:19Z</time>
      </trkpt>
      <trkpt lat="43.32836" lon="5.7658">
        <ele>826.2</ele>
        <time>2025-10-05T12:07:20Z</time>
      </trkpt>
      <trkpt lat="43.32835" lon="5.76579">
        <ele>826.2</ele>
        <time>2025-10-05T12:07:21Z</time>
      </trkpt>
      <trkpt lat="43.32836" lon="5.76578">
        <ele>826.1</ele>
        <time>2025-10-05T12:07:22Z</time>
      </trkpt>
      <trkpt lat="43.32835" lon="5.76578">
        <ele>826.1</ele>
        <time>2025-10-05T12:07:23Z</time>
      </trkpt>
      <trkpt lat="43.32835" lon="5.76577">
        <ele>826.1</ele>
        <time>2025-10-05T12:07:24Z</time>
      </trkpt>
      <trkpt lat="43.32834" lon="5.76576">
        <ele>826</ele>
        <time>2025-10-05T12:07:25Z</time>
      </trkpt>
      <trkpt lat="43.32835" lon="5.76575">
        <ele>825.9</ele>
        <time>2025-10-05T12:07:26Z</time>
      </trkpt>
      <trkpt lat="43.32835" lon="5.76573">
        <ele>825.8</ele>
        <time>2025-10-05T12:07:27Z</time>
      </trkpt>
      <trkpt lat="43.32836" lon="5.76572">
        <ele>825.9</ele>
        <time>2025-10-05T12:07:28Z</time>
      </trkpt>
      <trkpt lat="43.32836" lon="5.76571">
        <ele>825.9</ele>
        <time>2025-10-05T12:07:29Z</time>
      </trkpt>
      <trkpt lat="43.32836" lon="5.76569">
        <ele>825.9</ele>
        <time>2025-10-05T12:07:30Z</time>
      </trkpt>
      <trkpt lat="43.32837" lon="5.76568">
        <ele>825.8</ele>
        <time>2025-10-05T12:07:31Z</time>
      </trkpt>
      <trkpt lat="43.32837" lon="5.76566">
        <ele>825.8</ele>
        <time>2025-10-05T12:07:32Z</time>
      </trkpt>
      <trkpt lat="43.32838" lon="5.76564">
        <ele>825.7</ele>
        <time>2025-10-05T12:07:33Z</time>
      </trkpt>
      <trkpt lat="43.32838" lon="5.76562">
        <ele>825.7</ele>
        <time>2025-10-05T12:07:34Z</time>
      </trkpt>
      <trkpt lat="43.32836" lon="5.76561">
        <ele>825.6</ele>
        <time>2025-10-05T12:07:35Z</time>
      </trkpt>
      <trkpt lat="43.32836" lon="5.7656">
        <ele>825.6</ele>
        <time>2025-10-05T12:07:36Z</time>
      </trkpt>
      <trkpt lat="43.32837" lon="5.76558">
        <ele>825.4</ele>
        <time>2025-10-05T12:07:37Z</time>
      </trkpt>
      <trkpt lat="43.32836" lon="5.76557">
        <ele>825.2</ele>
        <time>2025-10-05T12:07:38Z</time>
      </trkpt>
      <trkpt lat="43.32837" lon="5.76556">
        <ele>825.1</ele>
        <time>2025-10-05T12:07:39Z</time>
      </trkpt>
      <trkpt lat="43.32837" lon="5.76555">
        <ele>825</ele>
        <time>2025-10-05T12:07:40Z</time>
      </trkpt>
      <trkpt lat="43.32836" lon="5.76553">
        <ele>824.9</ele>
        <time>2025-10-05T12:07:41Z</time>
      </trkpt>
      <trkpt lat="43.32836" lon="5.76552">
        <ele>824.9</ele>
        <time>2025-10-05T12:07:42Z</time>
      </trkpt>
      <trkpt lat="43.32835" lon="5.7655">
        <ele>824.8</ele>
        <time>2025-10-05T12:07:43Z</time>
      </trkpt>
      <trkpt lat="43.32835" lon="5.76549">
        <ele>824.8</ele>
        <time>2025-10-05T12:07:44Z</time>
      </trkpt>
      <trkpt lat="43.32835" lon="5.76547">
        <ele>824.8</ele>
        <time>2025-10-05T12:07:45Z</time>
      </trkpt>
      <trkpt lat="43.32835" lon="5.76546">
        <ele>824.8</ele>
        <time>2025-10-05T12:07:46Z</time>
      </trkpt>
      <trkpt lat="43.32835" lon="5.76544">
        <ele>825</ele>
        <time>2025-10-05T12:07:47Z</time>
      </trkpt>
      <trkpt lat="43.32835" lon="5.76543">
        <ele>825.1</ele>
        <time>2025-10-05T12:07:48Z</time>
      </trkpt>
      <trkpt lat="43.32835" lon="5.76542">
        <ele>825.2</ele>
        <time>2025-10-05T12:07:49Z</time>
      </trkpt>
      <trkpt lat="43.32835" lon="5.7654">
        <ele>825.3</ele>
        <time>2025-10-05T12:07:50Z</time>
      </trkpt>
      <trkpt lat="43.32835" lon="5.76539">
        <ele>825.4</ele>
        <time>2025-10-05T12:07:51Z</time>
      </trkpt>
      <trkpt lat="43.32834" lon="5.76538">
        <ele>825.5</ele>
        <time>2025-10-05T12:07:52Z</time>
      </trkpt>
      <trkpt lat="43.32834" lon="5.76537">
        <ele>825.6</ele>
        <time>2025-10-05T12:07:53Z</time>
      </trkpt>
      <trkpt lat="43.32833" lon="5.76535">
        <ele>825.7</ele>
        <time>2025-10-05T12:07:54Z</time>
      </trkpt>
      <trkpt lat="43.32831" lon="5.76535">
        <ele>825.9</ele>
        <time>2025-10-05T12:07:55Z</time>
      </trkpt>
      <trkpt lat="43.32829" lon="5.76534">
        <ele>826.2</ele>
        <time>2025-10-05T12:07:56Z</time>
      </trkpt>
      <trkpt lat="43.32828" lon="5.76533">
        <ele>826.4</ele>
        <time>2025-10-05T12:07:57Z</time>
      </trkpt>
      <trkpt lat="43.32827" lon="5.76533">
        <ele>826.6</ele>
        <time>2025-10-05T12:07:58Z</time>
      </trkpt>
      <trkpt lat="43.32827" lon="5.76531">
        <ele>826.8</ele>
        <time>2025-10-05T12:07:59Z</time>
      </trkpt>
      <trkpt lat="43.32828" lon="5.7653">
        <ele>827</ele>
        <time>2025-10-05T12:08:00Z</time>
      </trkpt>
      <trkpt lat="43.32827" lon="5.76529">
        <ele>827.3</ele>
        <time>2025-10-05T12:08:01Z</time>
      </trkpt>
      <trkpt lat="43.32826" lon="5.76528">
        <ele>827.4</ele>
        <time>2025-10-05T12:08:02Z</time>
      </trkpt>
      <trkpt lat="43.32826" lon="5.76527">
        <ele>827.6</ele>
        <time>2025-10-05T12:08:03Z</time>
      </trkpt>
      <trkpt lat="43.32826" lon="5.76526">
        <ele>827.6</ele>
        <time>2025-10-05T12:08:04Z</time>
      </trkpt>
      <trkpt lat="43.32826" lon="5.76526">
        <ele>827.7</ele>
        <time>2025-10-05T12:08:05Z</time>
      </trkpt>
      <trkpt lat="43.32825" lon="5.76526">
        <ele>827.8</ele>
        <time>2025-10-05T12:08:06Z</time>
      </trkpt>
      <trkpt lat="43.32825" lon="5.76525">
        <ele>828</ele>
        <time>2025-10-05T12:08:07Z</time>
      </trkpt>
      <trkpt lat="43.32825" lon="5.76524">
        <ele>828</ele>
        <time>2025-10-05T12:08:08Z</time>
      </trkpt>
      <trkpt lat="43.32824" lon="5.76524">
        <ele>828.1</ele>
        <time>2025-10-05T12:08:09Z</time>
      </trkpt>
      <trkpt lat="43.32824" lon="5.76523">
        <ele>828.2</ele>
        <time>2025-10-05T12:08:10Z</time>
      </trkpt>
      <trkpt lat="43.32824" lon="5.76522">
        <ele>828.4</ele>
        <time>2025-10-05T12:08:11Z</time>
      </trkpt>
      <trkpt lat="43.32823" lon="5.76521">
        <ele>828.4</ele>
        <time>2025-10-05T12:08:12Z</time>
      </trkpt>
      <trkpt lat="43.32823" lon="5.7652">
        <ele>828.5</ele>
        <time>2025-10-05T12:08:13Z</time>
      </trkpt>
      <trkpt lat="43.32823" lon="5.76519">
        <ele>828.7</ele>
        <time>2025-10-05T12:08:14Z</time>
      </trkpt>
      <trkpt lat="43.32823" lon="5.76518">
        <ele>828.9</ele>
        <time>2025-10-05T12:08:15Z</time>
      </trkpt>
      <trkpt lat="43.32824" lon="5.76517">
        <ele>829</ele>
        <time>2025-10-05T12:08:16Z</time>
      </trkpt>
      <trkpt lat="43.32824" lon="5.76516">
        <ele>829.2</ele>
        <time>2025-10-05T12:08:17Z</time>
      </trkpt>
      <trkpt lat="43.32824" lon="5.76514">
        <ele>829.4</ele>
        <time>2025-10-05T12:08:18Z</time>
      </trkpt>
      <trkpt lat="43.32824" lon="5.76514">
        <ele>829.6</ele>
        <time>2025-10-05T12:08:19Z</time>
      </trkpt>
      <trkpt lat="43.32825" lon="5.76513">
        <ele>829.8</ele>
        <time>2025-10-05T12:08:20Z</time>
      </trkpt>
      <trkpt lat="43.32826" lon="5.76512">
        <ele>830</ele>
        <time>2025-10-05T12:08:21Z</time>
      </trkpt>
      <trkpt lat="43.32826" lon="5.76512">
        <ele>830.1</ele>
        <time>2025-10-05T12:08:22Z</time>
      </trkpt>
      <trkpt lat="43.32827" lon="5.76511">
        <ele>830.4</ele>
        <time>2025-10-05T12:08:23Z</time>
      </trkpt>
      <trkpt lat="43.32828" lon="5.7651">
        <ele>830.7</ele>
        <time>2025-10-05T12:08:24Z</time>
      </trkpt>
      <trkpt lat="43.32827" lon="5.76508">
        <ele>830.9</ele>
        <time>2025-10-05T12:08:25Z</time>
      </trkpt>
      <trkpt lat="43.32827" lon="5.76507">
        <ele>831.1</ele>
        <time>2025-10-05T12:08:26Z</time>
      </trkpt>
      <trkpt lat="43.32827" lon="5.76506">
        <ele>831.4</ele>
        <time>2025-10-05T12:08:27Z</time>
      </trkpt>
      <trkpt lat="43.32826" lon="5.76505">
        <ele>831.6</ele>
        <time>2025-10-05T12:08:28Z</time>
      </trkpt>
      <trkpt lat="43.32826" lon="5.76504">
        <ele>831.8</ele>
        <time>2025-10-05T12:08:29Z</time>
      </trkpt>
      <trkpt lat="43.32825" lon="5.76503">
        <ele>832</ele>
        <time>2025-10-05T12:08:30Z</time>
      </trkpt>
      <trkpt lat="43.32825" lon="5.76502">
        <ele>832.2</ele>
        <time>2025-10-05T12:08:31Z</time>
      </trkpt>
      <trkpt lat="43.32824" lon="5.76501">
        <ele>832.3</ele>
        <time>2025-10-05T12:08:32Z</time>
      </trkpt>
      <trkpt lat="43.32824" lon="5.76501">
        <ele>832.4</ele>
        <time>2025-10-05T12:08:33Z</time>
      </trkpt>
      <trkpt lat="43.32823" lon="5.765">
        <ele>832.6</ele>
        <time>2025-10-05T12:08:34Z</time>
      </trkpt>
      <trkpt lat="43.32823" lon="5.76499">
        <ele>832.8</ele>
        <time>2025-10-05T12:08:35Z</time>
      </trkpt>
      <trkpt lat="43.32823" lon="5.76498">
        <ele>832.9</ele>
        <time>2025-10-05T12:08:36Z</time>
      </trkpt>
      <trkpt lat="43.32822" lon="5.76497">
        <ele>833.2</ele>
        <time>2025-10-05T12:08:37Z</time>
      </trkpt>
      <trkpt lat="43.32822" lon="5.76496">
        <ele>833.5</ele>
        <time>2025-10-05T12:08:38Z</time>
      </trkpt>
      <trkpt lat="43.32821" lon="5.76496">
        <ele>833.7</ele>
        <time>2025-10-05T12:08:39Z</time>
      </trkpt>
      <trkpt lat="43.32821" lon="5.76495">
        <ele>833.8</ele>
        <time>2025-10-05T12:08:40Z</time>
      </trkpt>
      <trkpt lat="43.3282" lon="5.76494">
        <ele>833.9</ele>
        <time>2025-10-05T12:08:41Z</time>
      </trkpt>
      <trkpt lat="43.32819" lon="5.76493">
        <ele>834</ele>
        <time>2025-10-05T12:08:42Z</time>
      </trkpt>
      <trkpt lat="43.32818" lon="5.76493">
        <ele>834.2</ele>
        <time>2025-10-05T12:08:43Z</time>
      </trkpt>
      <trkpt lat="43.32818" lon="5.76492">
        <ele>834.3</ele>
        <time>2025-10-05T12:08:44Z</time>
      </trkpt>
      <trkpt lat="43.32818" lon="5.76491">
        <ele>834.4</ele>
        <time>2025-10-05T12:08:45Z</time>
      </trkpt>
      <trkpt lat="43.32817" lon="5.7649">
        <ele>834.5</ele>
        <time>2025-10-05T12:08:46Z</time>
      </trkpt>
      <trkpt lat="43.32818" lon="5.7649">
        <ele>834.6</ele>
        <time>2025-10-05T12:08:47Z</time>
      </trkpt>
      <trkpt lat="43.32818" lon="5.76489">
        <ele>834.8</ele>
        <time>2025-10-05T12:08:48Z</time>
      </trkpt>
      <trkpt lat="43.32818" lon="5.76488">
        <ele>834.9</ele>
        <time>2025-10-05T12:08:49Z</time>
      </trkpt>
      <trkpt lat="43.32818" lon="5.76487">
        <ele>835.1</ele>
        <time>2025-10-05T12:08:50Z</time>
      </trkpt>
      <trkpt lat="43.32817" lon="5.76487">
        <ele>835.3</ele>
        <time>2025-10-05T12:08:51Z</time>
      </trkpt>
      <trkpt lat="43.32817" lon="5.76486">
        <ele>835.4</ele>
        <time>2025-10-05T12:08:52Z</time>
      </trkpt>
      <trkpt lat="43.32816" lon="5.76485">
        <ele>835.6</ele>
        <time>2025-10-05T12:08:53Z</time>
      </trkpt>
      <trkpt lat="43.32814" lon="5.76485">
        <ele>835.7</ele>
        <time>2025-10-05T12:08:54Z</time>
      </trkpt>
      <trkpt lat="43.32814" lon="5.76484">
        <ele>835.8</ele>
        <time>2025-10-05T12:08:55Z</time>
      </trkpt>
      <trkpt lat="43.32813" lon="5.76483">
        <ele>836.1</ele>
        <time>2025-10-05T12:08:56Z</time>
      </trkpt>
      <trkpt lat="43.32811" lon="5.76483">
        <ele>836.3</ele>
        <time>2025-10-05T12:08:57Z</time>
      </trkpt>
      <trkpt lat="43.32811" lon="5.76482">
        <ele>836.4</ele>
        <time>2025-10-05T12:08:58Z</time>
      </trkpt>
      <trkpt lat="43.32809" lon="5.76481">
        <ele>836.6</ele>
        <time>2025-10-05T12:08:59Z</time>
      </trkpt>
      <trkpt lat="43.32809" lon="5.7648">
        <ele>836.8</ele>
        <time>2025-10-05T12:09:00Z</time>
      </trkpt>
      <trkpt lat="43.32808" lon="5.76479">
        <ele>837</ele>
        <time>2025-10-05T12:09:01Z</time>
      </trkpt>
      <trkpt lat="43.32808" lon="5.76478">
        <ele>837.1</ele>
        <time>2025-10-05T12:09:02Z</time>
      </trkpt>
      <trkpt lat="43.32808" lon="5.76478">
        <ele>837.2</ele>
        <time>2025-10-05T12:09:03Z</time>
      </trkpt>
      <trkpt lat="43.32808" lon="5.76477">
        <ele>837.4</ele>
        <time>2025-10-05T12:09:04Z</time>
      </trkpt>
      <trkpt lat="43.32807" lon="5.76476">
        <ele>837.5</ele>
        <time>2025-10-05T12:09:05Z</time>
      </trkpt>
      <trkpt lat="43.32807" lon="5.76476">
        <ele>837.6</ele>
        <time>2025-10-05T12:09:06Z</time>
      </trkpt>
      <trkpt lat="43.32807" lon="5.76475">
        <ele>837.8</ele>
        <time>2025-10-05T12:09:07Z</time>
      </trkpt>
      <trkpt lat="43.32806" lon="5.76475">
        <ele>838</ele>
        <time>2025-10-05T12:09:08Z</time>
      </trkpt>
      <trkpt lat="43.32806" lon="5.76474">
        <ele>838.2</ele>
        <time>2025-10-05T12:09:09Z</time>
      </trkpt>
      <trkpt lat="43.32806" lon="5.76473">
        <ele>838.3</ele>
        <time>2025-10-05T12:09:10Z</time>
      </trkpt>
      <trkpt lat="43.32806" lon="5.76473">
        <ele>838.6</ele>
        <time>2025-10-05T12:09:11Z</time>
      </trkpt>
      <trkpt lat="43.32806" lon="5.76473">
        <ele>838.8</ele>
        <time>2025-10-05T12:09:12Z</time>
      </trkpt>
      <trkpt lat="43.32805" lon="5.76472">
        <ele>839.1</ele>
        <time>2025-10-05T12:09:13Z</time>
      </trkpt>
      <trkpt lat="43.32805" lon="5.76472">
        <ele>839.1</ele>
        <time>2025-10-05T12:09:14Z</time>
      </trkpt>
      <trkpt lat="43.32804" lon="5.76471">
        <ele>839.4</ele>
        <time>2025-10-05T12:09:15Z</time>
      </trkpt>
      <trkpt lat="43.32805" lon="5.76471">
        <ele>839.6</ele>
        <time>2025-10-05T12:09:16Z</time>
      </trkpt>
      <trkpt lat="43.32805" lon="5.7647">
        <ele>840</ele>
        <time>2025-10-05T12:09:17Z</time>
      </trkpt>
      <trkpt lat="43.32804" lon="5.76469">
        <ele>840.2</ele>
        <time>2025-10-05T12:09:18Z</time>
      </trkpt>
      <trkpt lat="43.32804" lon="5.76469">
        <ele>840.5</ele>
        <time>2025-10-05T12:09:19Z</time>
      </trkpt>
      <trkpt lat="43.32803" lon="5.76469">
        <ele>840.6</ele>
        <time>2025-10-05T12:09:20Z</time>
      </trkpt>
      <trkpt lat="43.32804" lon="5.76468">
        <ele>840.8</ele>
        <time>2025-10-05T12:09:21Z</time>
      </trkpt>
      <trkpt lat="43.32802" lon="5.76467">
        <ele>840.9</ele>
        <time>2025-10-05T12:09:22Z</time>
      </trkpt>
      <trkpt lat="43.32801" lon="5.76466">
        <ele>841.1</ele>
        <time>2025-10-05T12:09:23Z</time>
      </trkpt>
      <trkpt lat="43.328" lon="5.76465">
        <ele>841.3</ele>
        <time>2025-10-05T12:09:24Z</time>
      </trkpt>
      <trkpt lat="43.32799" lon="5.76465">
        <ele>841.6</ele>
        <time>2025-10-05T12:09:25Z</time>
      </trkpt>
      <trkpt lat="43.32799" lon="5.76464">
        <ele>841.9</ele>
        <time>2025-10-05T12:09:26Z</time>
      </trkpt>
      <trkpt lat="43.32798" lon="5.76463">
        <ele>842.1</ele>
        <time>2025-10-05T12:09:27Z</time>
      </trkpt>
      <trkpt lat="43.32797" lon="5.76462">
        <ele>842.3</ele>
        <time>2025-10-05T12:09:28Z</time>
      </trkpt>
      <trkpt lat="43.32795" lon="5.76462">
        <ele>842.5</ele>
        <time>2025-10-05T12:09:29Z</time>
      </trkpt>
      <trkpt lat="43.32794" lon="5.76462">
        <ele>842.6</ele>
        <time>2025-10-05T12:09:30Z</time>
      </trkpt>
      <trkpt lat="43.32792" lon="5.76461">
        <ele>842.7</ele>
        <time>2025-10-05T12:09:31Z</time>
      </trkpt>
      <trkpt lat="43.32792" lon="5.7646">
        <ele>842.8</ele>
        <time>2025-10-05T12:09:32Z</time>
      </trkpt>
      <trkpt lat="43.32792" lon="5.76459">
        <ele>842.9</ele>
        <time>2025-10-05T12:09:33Z</time>
      </trkpt>
      <trkpt lat="43.3279" lon="5.76459">
        <ele>843.2</ele>
        <time>2025-10-05T12:09:34Z</time>
      </trkpt>
      <trkpt lat="43.32789" lon="5.76458">
        <ele>843.3</ele>
        <time>2025-10-05T12:09:35Z</time>
      </trkpt>
      <trkpt lat="43.32788" lon="5.76458">
        <ele>843.4</ele>
        <time>2025-10-05T12:09:36Z</time>
      </trkpt>
      <trkpt lat="43.32787" lon="5.76458">
        <ele>843.4</ele>
        <time>2025-10-05T12:09:37Z</time>
      </trkpt>
      <trkpt lat="43.32786" lon="5.76456">
        <ele>843.5</ele>
        <time>2025-10-05T12:09:38Z</time>
      </trkpt>
      <trkpt lat="43.32786" lon="5.76456">
        <ele>843.6</ele>
        <time>2025-10-05T12:09:39Z</time>
      </trkpt>
      <trkpt lat="43.32785" lon="5.76455">
        <ele>843.6</ele>
        <time>2025-10-05T12:09:40Z</time>
      </trkpt>
      <trkpt lat="43.32784" lon="5.76455">
        <ele>843.7</ele>
        <time>2025-10-05T12:09:41Z</time>
      </trkpt>
      <trkpt lat="43.32783" lon="5.76455">
        <ele>843.9</ele>
        <time>2025-10-05T12:09:42Z</time>
      </trkpt>
      <trkpt lat="43.32782" lon="5.76454">
        <ele>844.1</ele>
        <time>2025-10-05T12:09:43Z</time>
      </trkpt>
      <trkpt lat="43.32781" lon="5.76453">
        <ele>844.3</ele>
        <time>2025-10-05T12:09:44Z</time>
      </trkpt>
      <trkpt lat="43.3278" lon="5.76453">
        <ele>844.4</ele>
        <time>2025-10-05T12:09:45Z</time>
      </trkpt>
      <trkpt lat="43.3278" lon="5.76452">
        <ele>844.5</ele>
        <time>2025-10-05T12:09:46Z</time>
      </trkpt>
      <trkpt lat="43.3278" lon="5.76451">
        <ele>844.6</ele>
        <time>2025-10-05T12:09:47Z</time>
      </trkpt>
      <trkpt lat="43.32778" lon="5.76451">
        <ele>844.7</ele>
        <time>2025-10-05T12:09:48Z</time>
      </trkpt>
      <trkpt lat="43.32777" lon="5.76451">
        <ele>844.8</ele>
        <time>2025-10-05T12:09:49Z</time>
      </trkpt>
      <trkpt lat="43.32776" lon="5.76451">
        <ele>845</ele>
        <time>2025-10-05T12:09:50Z</time>
      </trkpt>
      <trkpt lat="43.32775" lon="5.76451">
        <ele>845.1</ele>
        <time>2025-10-05T12:09:51Z</time>
      </trkpt>
      <trkpt lat="43.32774" lon="5.76451">
        <ele>845.3</ele>
        <time>2025-10-05T12:09:52Z</time>
      </trkpt>
      <trkpt lat="43.32773" lon="5.76451">
        <ele>845.4</ele>
        <time>2025-10-05T12:09:53Z</time>
      </trkpt>
      <trkpt lat="43.32773" lon="5.76452">
        <ele>845.3</ele>
        <time>2025-10-05T12:09:54Z</time>
      </trkpt>
      <trkpt lat="43.32771" lon="5.76452">
        <ele>845.3</ele>
        <time>2025-10-05T12:09:55Z</time>
      </trkpt>
      <trkpt lat="43.3277" lon="5.76452">
        <ele>845.2</ele>
        <time>2025-10-05T12:09:56Z</time>
      </trkpt>
      <trkpt lat="43.32769" lon="5.76452">
        <ele>845.2</ele>
        <time>2025-10-05T12:09:57Z</time>
      </trkpt>
      <trkpt lat="43.32769" lon="5.76452">
        <ele>845.3</ele>
        <time>2025-10-05T12:09:58Z</time>
      </trkpt>
      <trkpt lat="43.32769" lon="5.76451">
        <ele>845.4</ele>
        <time>2025-10-05T12:09:59Z</time>
      </trkpt>
      <trkpt lat="43.32769" lon="5.76451">
        <ele>845.4</ele>
        <time>2025-10-05T12:10:00Z</time>
      </trkpt>
      <trkpt lat="43.32769" lon="5.76451">
        <ele>845.5</ele>
        <time>2025-10-05T12:10:01Z</time>
      </trkpt>
      <trkpt lat="43.32769" lon="5.76451">
        <ele>845.4</ele>
        <time>2025-10-05T12:10:02Z</time>
      </trkpt>
      <trkpt lat="43.32768" lon="5.76451">
        <ele>845.3</ele>
        <time>2025-10-05T12:10:03Z</time>
      </trkpt>
      <trkpt lat="43.32769" lon="5.76451">
        <ele>845.4</ele>
        <time>2025-10-05T12:10:04Z</time>
      </trkpt>
      <trkpt lat="43.32768" lon="5.7645">
        <ele>845.5</ele>
        <time>2025-10-05T12:10:05Z</time>
      </trkpt>
      <trkpt lat="43.32768" lon="5.7645">
        <ele>845.5</ele>
        <time>2025-10-05T12:10:06Z</time>
      </trkpt>
      <trkpt lat="43.32767" lon="5.7645">
        <ele>845.6</ele>
        <time>2025-10-05T12:10:07Z</time>
      </trkpt>
      <trkpt lat="43.32767" lon="5.7645">
        <ele>845.7</ele>
        <time>2025-10-05T12:10:08Z</time>
      </trkpt>
      <trkpt lat="43.32766" lon="5.76449">
        <ele>845.8</ele>
        <time>2025-10-05T12:10:09Z</time>
      </trkpt>
      <trkpt lat="43.32766" lon="5.76448">
        <ele>845.8</ele>
        <time>2025-10-05T12:10:10Z</time>
      </trkpt>
      <trkpt lat="43.32766" lon="5.76447">
        <ele>845.8</ele>
        <time>2025-10-05T12:10:11Z</time>
      </trkpt>
      <trkpt lat="43.32765" lon="5.76446">
        <ele>845.9</ele>
        <time>2025-10-05T12:10:12Z</time>
      </trkpt>
      <trkpt lat="43.32765" lon="5.76445">
        <ele>846</ele>
        <time>2025-10-05T12:10:13Z</time>
      </trkpt>
      <trkpt lat="43.32764" lon="5.76445">
        <ele>846.1</ele>
        <time>2025-10-05T12:10:14Z</time>
      </trkpt>
      <trkpt lat="43.32764" lon="5.76444">
        <ele>846.2</ele>
        <time>2025-10-05T12:10:15Z</time>
      </trkpt>
      <trkpt lat="43.32764" lon="5.76443">
        <ele>846.4</ele>
        <time>2025-10-05T12:10:16Z</time>
      </trkpt>
      <trkpt lat="43.32763" lon="5.76442">
        <ele>846.6</ele>
        <time>2025-10-05T12:10:17Z</time>
      </trkpt>
      <trkpt lat="43.32763" lon="5.76441">
        <ele>846.7</ele>
        <time>2025-10-05T12:10:18Z</time>
      </trkpt>
      <trkpt lat="43.32763" lon="5.76441">
        <ele>846.9</ele>
        <time>2025-10-05T12:10:19Z</time>
      </trkpt>
      <trkpt lat="43.32762" lon="5.7644">
        <ele>847</ele>
        <time>2025-10-05T12:10:20Z</time>
      </trkpt>
      <trkpt lat="43.32761" lon="5.76439">
        <ele>847.2</ele>
        <time>2025-10-05T12:10:21Z</time>
      </trkpt>
      <trkpt lat="43.32761" lon="5.76438">
        <ele>847.4</ele>
        <time>2025-10-05T12:10:22Z</time>
      </trkpt>
      <trkpt lat="43.32761" lon="5.76437">
        <ele>847.5</ele>
        <time>2025-10-05T12:10:23Z</time>
      </trkpt>
      <trkpt lat="43.3276" lon="5.76437">
        <ele>847.5</ele>
        <time>2025-10-05T12:10:24Z</time>
      </trkpt>
      <trkpt lat="43.32759" lon="5.76437">
        <ele>847.6</ele>
        <time>2025-10-05T12:10:25Z</time>
      </trkpt>
      <trkpt lat="43.32757" lon="5.76436">
        <ele>847.9</ele>
        <time>2025-10-05T12:10:26Z</time>
      </trkpt>
      <trkpt lat="43.32757" lon="5.76435">
        <ele>848.1</ele>
        <time>2025-10-05T12:10:27Z</time>
      </trkpt>
      <trkpt lat="43.32756" lon="5.76435">
        <ele>848.2</ele>
        <time>2025-10-05T12:10:28Z</time>
      </trkpt>
      <trkpt lat="43.32756" lon="5.76435">
        <ele>848.3</ele>
        <time>2025-10-05T12:10:29Z</time>
      </trkpt>
      <trkpt lat="43.32755" lon="5.76433">
        <ele>848.4</ele>
        <time>2025-10-05T12:10:30Z</time>
      </trkpt>
      <trkpt lat="43.32754" lon="5.76433">
        <ele>848.6</ele>
        <time>2025-10-05T12:10:31Z</time>
      </trkpt>
      <trkpt lat="43.32754" lon="5.76432">
        <ele>848.9</ele>
        <time>2025-10-05T12:10:32Z</time>
      </trkpt>
      <trkpt lat="43.32753" lon="5.76432">
        <ele>849</ele>
        <time>2025-10-05T12:10:33Z</time>
      </trkpt>
      <trkpt lat="43.32753" lon="5.76431">
        <ele>849.2</ele>
        <time>2025-10-05T12:10:34Z</time>
      </trkpt>
      <trkpt lat="43.32754" lon="5.76431">
        <ele>849.3</ele>
        <time>2025-10-05T12:10:35Z</time>
      </trkpt>
      <trkpt lat="43.32754" lon="5.7643">
        <ele>849.4</ele>
        <time>2025-10-05T12:10:36Z</time>
      </trkpt>
      <trkpt lat="43.32754" lon="5.7643">
        <ele>849.6</ele>
        <time>2025-10-05T12:10:37Z</time>
      </trkpt>
      <trkpt lat="43.32754" lon="5.76429">
        <ele>849.8</ele>
        <time>2025-10-05T12:10:38Z</time>
      </trkpt>
      <trkpt lat="43.32752" lon="5.76429">
        <ele>850</ele>
        <time>2025-10-05T12:10:39Z</time>
      </trkpt>
      <trkpt lat="43.32752" lon="5.76428">
        <ele>850.2</ele>
        <time>2025-10-05T12:10:40Z</time>
      </trkpt>
      <trkpt lat="43.32751" lon="5.76427">
        <ele>850.3</ele>
        <time>2025-10-05T12:10:41Z</time>
      </trkpt>
      <trkpt lat="43.3275" lon="5.76427">
        <ele>850.4</ele>
        <time>2025-10-05T12:10:42Z</time>
      </trkpt>
      <trkpt lat="43.3275" lon="5.76426">
        <ele>850.6</ele>
        <time>2025-10-05T12:10:43Z</time>
      </trkpt>
      <trkpt lat="43.3275" lon="5.76426">
        <ele>850.7</ele>
        <time>2025-10-05T12:10:44Z</time>
      </trkpt>
      <trkpt lat="43.32749" lon="5.76425">
        <ele>850.9</ele>
        <time>2025-10-05T12:10:45Z</time>
      </trkpt>
      <trkpt lat="43.32749" lon="5.76425">
        <ele>851.1</ele>
        <time>2025-10-05T12:10:46Z</time>
      </trkpt>
      <trkpt lat="43.32748" lon="5.76424">
        <ele>851.2</ele>
        <time>2025-10-05T12:10:47Z</time>
      </trkpt>
      <trkpt lat="43.32748" lon="5.76424">
        <ele>851.3</ele>
        <time>2025-10-05T12:10:48Z</time>
      </trkpt>
      <trkpt lat="43.32746" lon="5.76424">
        <ele>851.4</ele>
        <time>2025-10-05T12:10:49Z</time>
      </trkpt>
      <trkpt lat="43.32745" lon="5.76424">
        <ele>851.3</ele>
        <time>2025-10-05T12:10:50Z</time>
      </trkpt>
      <trkpt lat="43.32743" lon="5.76424">
        <ele>851.4</ele>
        <time>2025-10-05T12:10:51Z</time>
      </trkpt>
      <trkpt lat="43.32742" lon="5.76423">
        <ele>851.4</ele>
        <time>2025-10-05T12:10:52Z</time>
      </trkpt>
      <trkpt lat="43.32741" lon="5.76423">
        <ele>851.4</ele>
        <time>2025-10-05T12:10:53Z</time>
      </trkpt>
      <trkpt lat="43.32741" lon="5.76423">
        <ele>851.4</ele>
        <time>2025-10-05T12:10:54Z</time>
      </trkpt>
      <trkpt lat="43.32739" lon="5.76423">
        <ele>851.4</ele>
        <time>2025-10-05T12:10:55Z</time>
      </trkpt>
      <trkpt lat="43.32738" lon="5.76423">
        <ele>851.5</ele>
        <time>2025-10-05T12:10:56Z</time>
      </trkpt>
      <trkpt lat="43.32737" lon="5.76422">
        <ele>851.6</ele>
        <time>2025-10-05T12:10:57Z</time>
      </trkpt>
      <trkpt lat="43.32735" lon="5.76422">
        <ele>851.6</ele>
        <time>2025-10-05T12:10:58Z</time>
      </trkpt>
      <trkpt lat="43.32734" lon="5.76422">
        <ele>851.6</ele>
        <time>2025-10-05T12:10:59Z</time>
      </trkpt>
      <trkpt lat="43.32734" lon="5.76421">
        <ele>851.7</ele>
        <time>2025-10-05T12:11:00Z</time>
      </trkpt>
      <trkpt lat="43.32733" lon="5.7642">
        <ele>851.8</ele>
        <time>2025-10-05T12:11:01Z</time>
      </trkpt>
      <trkpt lat="43.32733" lon="5.7642">
        <ele>852</ele>
        <time>2025-10-05T12:11:02Z</time>
      </trkpt>
      <trkpt lat="43.32731" lon="5.7642">
        <ele>852.2</ele>
        <time>2025-10-05T12:11:03Z</time>
      </trkpt>
      <trkpt lat="43.3273" lon="5.76419">
        <ele>852.5</ele>
        <time>2025-10-05T12:11:04Z</time>
      </trkpt>
      <trkpt lat="43.32729" lon="5.76418">
        <ele>852.7</ele>
        <time>2025-10-05T12:11:05Z</time>
      </trkpt>
      <trkpt lat="43.32728" lon="5.76418">
        <ele>852.8</ele>
        <time>2025-10-05T12:11:06Z</time>
      </trkpt>
      <trkpt lat="43.32729" lon="5.76418">
        <ele>853</ele>
        <time>2025-10-05T12:11:07Z</time>
      </trkpt>
      <trkpt lat="43.32728" lon="5.76417">
        <ele>853.4</ele>
        <time>2025-10-05T12:11:08Z</time>
      </trkpt>
      <trkpt lat="43.32727" lon="5.76417">
        <ele>853.7</ele>
        <time>2025-10-05T12:11:09Z</time>
      </trkpt>
      <trkpt lat="43.32726" lon="5.76417">
        <ele>853.9</ele>
        <time>2025-10-05T12:11:10Z</time>
      </trkpt>
      <trkpt lat="43.32725" lon="5.76416">
        <ele>854</ele>
        <time>2025-10-05T12:11:11Z</time>
      </trkpt>
      <trkpt lat="43.32725" lon="5.76416">
        <ele>854.1</ele>
        <time>2025-10-05T12:11:12Z</time>
      </trkpt>
      <trkpt lat="43.32723" lon="5.76417">
        <ele>854.3</ele>
        <time>2025-10-05T12:11:13Z</time>
      </trkpt>
      <trkpt lat="43.32721" lon="5.76417">
        <ele>854.5</ele>
        <time>2025-10-05T12:11:14Z</time>
      </trkpt>
      <trkpt lat="43.32721" lon="5.76418">
        <ele>854.7</ele>
        <time>2025-10-05T12:11:15Z</time>
      </trkpt>
      <trkpt lat="43.3272" lon="5.76418">
        <ele>854.9</ele>
        <time>2025-10-05T12:11:16Z</time>
      </trkpt>
      <trkpt lat="43.32719" lon="5.76419">
        <ele>855</ele>
        <time>2025-10-05T12:11:17Z</time>
      </trkpt>
      <trkpt lat="43.32718" lon="5.76419">
        <ele>855.2</ele>
        <time>2025-10-05T12:11:18Z</time>
      </trkpt>
      <trkpt lat="43.32718" lon="5.76419">
        <ele>855.4</ele>
        <time>2025-10-05T12:11:19Z</time>
      </trkpt>
      <trkpt lat="43.32718" lon="5.7642">
        <ele>855.6</ele>
        <time>2025-10-05T12:11:20Z</time>
      </trkpt>
      <trkpt lat="43.32718" lon="5.7642">
        <ele>855.8</ele>
        <time>2025-10-05T12:11:21Z</time>
      </trkpt>
      <trkpt lat="43.32718" lon="5.7642">
        <ele>856</ele>
        <time>2025-10-05T12:11:22Z</time>
      </trkpt>
      <trkpt lat="43.32718" lon="5.7642">
        <ele>856.1</ele>
        <time>2025-10-05T12:11:23Z</time>
      </trkpt>
      <trkpt lat="43.32717" lon="5.7642">
        <ele>856.2</ele>
        <time>2025-10-05T12:11:24Z</time>
      </trkpt>
      <trkpt lat="43.32716" lon="5.7642">
        <ele>856.5</ele>
        <time>2025-10-05T12:11:25Z</time>
      </trkpt>
      <trkpt lat="43.32716" lon="5.76421">
        <ele>856.6</ele>
        <time>2025-10-05T12:11:26Z</time>
      </trkpt>
      <trkpt lat="43.32716" lon="5.76421">
        <ele>856.7</ele>
        <time>2025-10-05T12:11:27Z</time>
      </trkpt>
      <trkpt lat="43.32716" lon="5.76422">
        <ele>856.9</ele>
        <time>2025-10-05T12:11:28Z</time>
      </trkpt>
      <trkpt lat="43.32716" lon="5.76423">
        <ele>856.9</ele>
        <time>2025-10-05T12:11:29Z</time>
      </trkpt>
      <trkpt lat="43.32716" lon="5.76423">
        <ele>857</ele>
        <time>2025-10-05T12:11:30Z</time>
      </trkpt>
      <trkpt lat="43.32715" lon="5.76425">
        <ele>857.1</ele>
        <time>2025-10-05T12:11:31Z</time>
      </trkpt>
      <trkpt lat="43.32715" lon="5.76426">
        <ele>857.2</ele>
        <time>2025-10-05T12:11:32Z</time>
      </trkpt>
      <trkpt lat="43.32715" lon="5.76426">
        <ele>857.3</ele>
        <time>2025-10-05T12:11:33Z</time>
      </trkpt>
      <trkpt lat="43.32716" lon="5.76427">
        <ele>857.4</ele>
        <time>2025-10-05T12:11:34Z</time>
      </trkpt>
      <trkpt lat="43.32716" lon="5.76428">
        <ele>857.5</ele>
        <time>2025-10-05T12:11:35Z</time>
      </trkpt>
      <trkpt lat="43.32716" lon="5.76428">
        <ele>857.5</ele>
        <time>2025-10-05T12:11:36Z</time>
      </trkpt>
      <trkpt lat="43.32717" lon="5.76429">
        <ele>857.6</ele>
        <time>2025-10-05T12:11:37Z</time>
      </trkpt>
      <trkpt lat="43.32718" lon="5.7643">
        <ele>857.7</ele>
        <time>2025-10-05T12:11:38Z</time>
      </trkpt>
      <trkpt lat="43.32718" lon="5.76431">
        <ele>857.7</ele>
        <time>2025-10-05T12:11:39Z</time>
      </trkpt>
      <trkpt lat="43.32718" lon="5.76432">
        <ele>857.8</ele>
        <time>2025-10-05T12:11:40Z</time>
      </trkpt>
      <trkpt lat="43.32719" lon="5.76433">
        <ele>857.9</ele>
        <time>2025-10-05T12:11:41Z</time>
      </trkpt>
      <trkpt lat="43.32719" lon="5.76434">
        <ele>858.1</ele>
        <time>2025-10-05T12:11:42Z</time>
      </trkpt>
      <trkpt lat="43.3272" lon="5.76434">
        <ele>858.1</ele>
        <time>2025-10-05T12:11:43Z</time>
      </trkpt>
      <trkpt lat="43.32721" lon="5.76435">
        <ele>858.3</ele>
        <time>2025-10-05T12:11:44Z</time>
      </trkpt>
      <trkpt lat="43.32721" lon="5.76436">
        <ele>858.5</ele>
        <time>2025-10-05T12:11:45Z</time>
      </trkpt>
      <trkpt lat="43.32721" lon="5.76437">
        <ele>858.5</ele>
        <time>2025-10-05T12:11:46Z</time>
      </trkpt>
      <trkpt lat="43.32722" lon="5.76438">
        <ele>858.5</ele>
        <time>2025-10-05T12:11:47Z</time>
      </trkpt>
      <trkpt lat="43.32723" lon="5.7644">
        <ele>858.5</ele>
        <time>2025-10-05T12:11:48Z</time>
      </trkpt>
      <trkpt lat="43.32724" lon="5.76441">
        <ele>858.5</ele>
        <time>2025-10-05T12:11:49Z</time>
      </trkpt>
      <trkpt lat="43.32725" lon="5.76442">
        <ele>858.5</ele>
        <time>2025-10-05T12:11:50Z</time>
      </trkpt>
      <trkpt lat="43.32725" lon="5.76443">
        <ele>858.5</ele>
        <time>2025-10-05T12:11:51Z</time>
      </trkpt>
      <trkpt lat="43.32725" lon="5.76443">
        <ele>858.6</ele>
        <time>2025-10-05T12:11:52Z</time>
      </trkpt>
      <trkpt lat="43.32725" lon="5.76444">
        <ele>858.6</ele>
        <time>2025-10-05T12:11:53Z</time>
      </trkpt>
      <trkpt lat="43.32726" lon="5.76445">
        <ele>858.7</ele>
        <time>2025-10-05T12:11:54Z</time>
      </trkpt>
      <trkpt lat="43.32727" lon="5.76445">
        <ele>858.8</ele>
        <time>2025-10-05T12:11:55Z</time>
      </trkpt>
      <trkpt lat="43.32727" lon="5.76445">
        <ele>858.9</ele>
        <time>2025-10-05T12:11:56Z</time>
      </trkpt>
      <trkpt lat="43.32727" lon="5.76446">
        <ele>858.9</ele>
        <time>2025-10-05T12:11:57Z</time>
      </trkpt>
      <trkpt lat="43.32727" lon="5.76448">
        <ele>859</ele>
        <time>2025-10-05T12:11:58Z</time>
      </trkpt>
      <trkpt lat="43.32728" lon="5.76449">
        <ele>859.2</ele>
        <time>2025-10-05T12:11:59Z</time>
      </trkpt>
      <trkpt lat="43.32729" lon="5.76449">
        <ele>859.3</ele>
        <time>2025-10-05T12:12:00Z</time>
      </trkpt>
      <trkpt lat="43.3273" lon="5.7645">
        <ele>859.3</ele>
        <time>2025-10-05T12:12:01Z</time>
      </trkpt>
      <trkpt lat="43.3273" lon="5.7645">
        <ele>859.4</ele>
        <time>2025-10-05T12:12:02Z</time>
      </trkpt>
      <trkpt lat="43.32731" lon="5.76451">
        <ele>859.4</ele>
        <time>2025-10-05T12:12:03Z</time>
      </trkpt>
      <trkpt lat="43.32731" lon="5.76452">
        <ele>859.5</ele>
        <time>2025-10-05T12:12:04Z</time>
      </trkpt>
      <trkpt lat="43.3273" lon="5.76453">
        <ele>859.7</ele>
        <time>2025-10-05T12:12:05Z</time>
      </trkpt>
      <trkpt lat="43.32731" lon="5.76453">
        <ele>859.7</ele>
        <time>2025-10-05T12:12:06Z</time>
      </trkpt>
      <trkpt lat="43.32732" lon="5.76454">
        <ele>859.7</ele>
        <time>2025-10-05T12:12:07Z</time>
      </trkpt>
      <trkpt lat="43.32732" lon="5.76455">
        <ele>859.7</ele>
        <time>2025-10-05T12:12:08Z</time>
      </trkpt>
      <trkpt lat="43.32733" lon="5.76456">
        <ele>859.8</ele>
        <time>2025-10-05T12:12:09Z</time>
      </trkpt>
      <trkpt lat="43.32733" lon="5.76457">
        <ele>860</ele>
        <time>2025-10-05T12:12:10Z</time>
      </trkpt>
      <trkpt lat="43.32733" lon="5.76458">
        <ele>860.1</ele>
        <time>2025-10-05T12:12:11Z</time>
      </trkpt>
      <trkpt lat="43.32734" lon="5.76458">
        <ele>860.2</ele>
        <time>2025-10-05T12:12:12Z</time>
      </trkpt>
      <trkpt lat="43.32733" lon="5.76458">
        <ele>860.3</ele>
        <time>2025-10-05T12:12:13Z</time>
      </trkpt>
      <trkpt lat="43.32732" lon="5.76458">
        <ele>860.5</ele>
        <time>2025-10-05T12:12:14Z</time>
      </trkpt>
      <trkpt lat="43.32732" lon="5.76459">
        <ele>860.7</ele>
        <time>2025-10-05T12:12:15Z</time>
      </trkpt>
      <trkpt lat="43.32732" lon="5.76459">
        <ele>860.9</ele>
        <time>2025-10-05T12:12:16Z</time>
      </trkpt>
      <trkpt lat="43.32732" lon="5.76459">
        <ele>861</ele>
        <time>2025-10-05T12:12:17Z</time>
      </trkpt>
      <trkpt lat="43.32731" lon="5.76458">
        <ele>861.3</ele>
        <time>2025-10-05T12:12:18Z</time>
      </trkpt>
      <trkpt lat="43.32731" lon="5.76458">
        <ele>861.5</ele>
        <time>2025-10-05T12:12:19Z</time>
      </trkpt>
      <trkpt lat="43.32731" lon="5.76457">
        <ele>861.9</ele>
        <time>2025-10-05T12:12:20Z</time>
      </trkpt>
      <trkpt lat="43.3273" lon="5.76457">
        <ele>862.2</ele>
        <time>2025-10-05T12:12:21Z</time>
      </trkpt>
      <trkpt lat="43.3273" lon="5.76457">
        <ele>862.5</ele>
        <time>2025-10-05T12:12:22Z</time>
      </trkpt>
      <trkpt lat="43.3273" lon="5.76457">
        <ele>862.7</ele>
        <time>2025-10-05T12:12:23Z</time>
      </trkpt>
      <trkpt lat="43.3273" lon="5.76456">
        <ele>863</ele>
        <time>2025-10-05T12:12:24Z</time>
      </trkpt>
      <trkpt lat="43.32729" lon="5.76455">
        <ele>863.1</ele>
        <time>2025-10-05T12:12:25Z</time>
      </trkpt>
      <trkpt lat="43.32729" lon="5.76455">
        <ele>863.2</ele>
        <time>2025-10-05T12:12:26Z</time>
      </trkpt>
      <trkpt lat="43.32728" lon="5.76454">
        <ele>863.3</ele>
        <time>2025-10-05T12:12:27Z</time>
      </trkpt>
      <trkpt lat="43.32727" lon="5.76454">
        <ele>863.5</ele>
        <time>2025-10-05T12:12:28Z</time>
      </trkpt>
      <trkpt lat="43.32726" lon="5.76453">
        <ele>863.7</ele>
        <time>2025-10-05T12:12:29Z</time>
      </trkpt>
      <trkpt lat="43.32726" lon="5.76453">
        <ele>863.8</ele>
        <time>2025-10-05T12:12:30Z</time>
      </trkpt>
      <trkpt lat="43.32726" lon="5.76452">
        <ele>863.9</ele>
        <time>2025-10-05T12:12:31Z</time>
      </trkpt>
      <trkpt lat="43.32725" lon="5.76452">
        <ele>864.1</ele>
        <time>2025-10-05T12:12:32Z</time>
      </trkpt>
      <trkpt lat="43.32725" lon="5.76453">
        <ele>864.2</ele>
        <time>2025-10-05T12:12:33Z</time>
      </trkpt>
      <trkpt lat="43.32724" lon="5.76453">
        <ele>864.4</ele>
        <time>2025-10-05T12:12:34Z</time>
      </trkpt>
      <trkpt lat="43.32724" lon="5.76453">
        <ele>864.6</ele>
        <time>2025-10-05T12:12:35Z</time>
      </trkpt>
      <trkpt lat="43.32724" lon="5.76452">
        <ele>864.8</ele>
        <time>2025-10-05T12:12:36Z</time>
      </trkpt>
      <trkpt lat="43.32723" lon="5.76453">
        <ele>865.1</ele>
        <time>2025-10-05T12:12:37Z</time>
      </trkpt>
      <trkpt lat="43.32722" lon="5.76453">
        <ele>865.4</ele>
        <time>2025-10-05T12:12:38Z</time>
      </trkpt>
      <trkpt lat="43.32721" lon="5.76454">
        <ele>865.6</ele>
        <time>2025-10-05T12:12:39Z</time>
      </trkpt>
      <trkpt lat="43.32721" lon="5.76454">
        <ele>865.7</ele>
        <time>2025-10-05T12:12:40Z</time>
      </trkpt>
      <trkpt lat="43.32721" lon="5.76454">
        <ele>866</ele>
        <time>2025-10-05T12:12:41Z</time>
      </trkpt>
      <trkpt lat="43.32721" lon="5.76454">
        <ele>866</ele>
        <time>2025-10-05T12:12:42Z</time>
      </trkpt>
      <trkpt lat="43.32721" lon="5.76454">
        <ele>866.1</ele>
        <time>2025-10-05T12:12:43Z</time>
      </trkpt>
      <trkpt lat="43.3272" lon="5.76454">
        <ele>866.2</ele>
        <time>2025-10-05T12:12:44Z</time>
      </trkpt>
      <trkpt lat="43.3272" lon="5.76454">
        <ele>866.2</ele>
        <time>2025-10-05T12:12:45Z</time>
      </trkpt>
      <trkpt lat="43.32719" lon="5.76455">
        <ele>866.4</ele>
        <time>2025-10-05T12:12:46Z</time>
      </trkpt>
      <trkpt lat="43.32717" lon="5.76454">
        <ele>866.5</ele>
        <time>2025-10-05T12:12:47Z</time>
      </trkpt>
      <trkpt lat="43.32717" lon="5.76454">
        <ele>866.5</ele>
        <time>2025-10-05T12:12:48Z</time>
      </trkpt>
      <trkpt lat="43.32717" lon="5.76453">
        <ele>866.6</ele>
        <time>2025-10-05T12:12:49Z</time>
      </trkpt>
      <trkpt lat="43.32716" lon="5.76453">
        <ele>866.5</ele>
        <time>2025-10-05T12:12:50Z</time>
      </trkpt>
      <trkpt lat="43.32716" lon="5.76453">
        <ele>866.7</ele>
        <time>2025-10-05T12:12:51Z</time>
      </trkpt>
      <trkpt lat="43.32715" lon="5.76452">
        <ele>866.8</ele>
        <time>2025-10-05T12:12:52Z</time>
      </trkpt>
      <trkpt lat="43.32715" lon="5.76451">
        <ele>867</ele>
        <time>2025-10-05T12:12:53Z</time>
      </trkpt>
      <trkpt lat="43.32714" lon="5.7645">
        <ele>867</ele>
        <time>2025-10-05T12:12:54Z</time>
      </trkpt>
      <trkpt lat="43.32713" lon="5.76449">
        <ele>867.1</ele>
        <time>2025-10-05T12:12:55Z</time>
      </trkpt>
      <trkpt lat="43.32713" lon="5.76449">
        <ele>867.1</ele>
        <time>2025-10-05T12:12:56Z</time>
      </trkpt>
      <trkpt lat="43.32712" lon="5.76449">
        <ele>867.2</ele>
        <time>2025-10-05T12:12:57Z</time>
      </trkpt>
      <trkpt lat="43.32712" lon="5.76448">
        <ele>867.3</ele>
        <time>2025-10-05T12:12:58Z</time>
      </trkpt>
      <trkpt lat="43.32712" lon="5.76447">
        <ele>867.5</ele>
        <time>2025-10-05T12:12:59Z</time>
      </trkpt>
      <trkpt lat="43.32711" lon="5.76447">
        <ele>867.5</ele>
        <time>2025-10-05T12:13:00Z</time>
      </trkpt>
      <trkpt lat="43.32711" lon="5.76446">
        <ele>867.6</ele>
        <time>2025-10-05T12:13:01Z</time>
      </trkpt>
      <trkpt lat="43.32711" lon="5.76446">
        <ele>867.8</ele>
        <time>2025-10-05T12:13:02Z</time>
      </trkpt>
      <trkpt lat="43.3271" lon="5.76445">
        <ele>868</ele>
        <time>2025-10-05T12:13:03Z</time>
      </trkpt>
      <trkpt lat="43.3271" lon="5.76445">
        <ele>868.1</ele>
        <time>2025-10-05T12:13:04Z</time>
      </trkpt>
      <trkpt lat="43.3271" lon="5.76444">
        <ele>868.2</ele>
        <time>2025-10-05T12:13:05Z</time>
      </trkpt>
      <trkpt lat="43.3271" lon="5.76444">
        <ele>868.3</ele>
        <time>2025-10-05T12:13:06Z</time>
      </trkpt>
      <trkpt lat="43.3271" lon="5.76444">
        <ele>868.4</ele>
        <time>2025-10-05T12:13:07Z</time>
      </trkpt>
      <trkpt lat="43.32711" lon="5.76444">
        <ele>868.5</ele>
        <time>2025-10-05T12:13:08Z</time>
      </trkpt>
      <trkpt lat="43.32711" lon="5.76443">
        <ele>868.6</ele>
        <time>2025-10-05T12:13:09Z</time>
      </trkpt>
      <trkpt lat="43.3271" lon="5.76443">
        <ele>868.7</ele>
        <time>2025-10-05T12:13:10Z</time>
      </trkpt>
      <trkpt lat="43.3271" lon="5.76442">
        <ele>868.8</ele>
        <time>2025-10-05T12:13:11Z</time>
      </trkpt>
      <trkpt lat="43.32711" lon="5.76442">
        <ele>868.9</ele>
        <time>2025-10-05T12:13:12Z</time>
      </trkpt>
      <trkpt lat="43.32711" lon="5.76441">
        <ele>868.9</ele>
        <time>2025-10-05T12:13:13Z</time>
      </trkpt>
      <trkpt lat="43.32711" lon="5.7644">
        <ele>869.1</ele>
        <time>2025-10-05T12:13:14Z</time>
      </trkpt>
      <trkpt lat="43.3271" lon="5.76439">
        <ele>869.2</ele>
        <time>2025-10-05T12:13:15Z</time>
      </trkpt>
      <trkpt lat="43.32709" lon="5.7644">
        <ele>869.3</ele>
        <time>2025-10-05T12:13:16Z</time>
      </trkpt>
      <trkpt lat="43.32709" lon="5.7644">
        <ele>869.4</ele>
        <time>2025-10-05T12:13:17Z</time>
      </trkpt>
      <trkpt lat="43.32708" lon="5.7644">
        <ele>869.4</ele>
        <time>2025-10-05T12:13:18Z</time>
      </trkpt>
      <trkpt lat="43.32708" lon="5.76439">
        <ele>869.4</ele>
        <time>2025-10-05T12:13:19Z</time>
      </trkpt>
      <trkpt lat="43.32708" lon="5.7644">
        <ele>869.3</ele>
        <time>2025-10-05T12:13:20Z</time>
      </trkpt>
      <trkpt lat="43.32708" lon="5.7644">
        <ele>869.2</ele>
        <time>2025-10-05T12:13:21Z</time>
      </trkpt>
      <trkpt lat="43.32709" lon="5.7644">
        <ele>869.2</ele>
        <time>2025-10-05T12:13:22Z</time>
      </trkpt>
      <trkpt lat="43.32709" lon="5.7644">
        <ele>869</ele>
        <time>2025-10-05T12:13:23Z</time>
      </trkpt>
      <trkpt lat="43.3271" lon="5.7644">
        <ele>868.8</ele>
        <time>2025-10-05T12:13:24Z</time>
      </trkpt>
      <trkpt lat="43.32709" lon="5.7644">
        <ele>868.7</ele>
        <time>2025-10-05T12:13:25Z</time>
      </trkpt>
      <trkpt lat="43.3271" lon="5.76441">
        <ele>868.6</ele>
        <time>2025-10-05T12:13:26Z</time>
      </trkpt>
      <trkpt lat="43.32709" lon="5.76441">
        <ele>868.6</ele>
        <time>2025-10-05T12:13:27Z</time>
      </trkpt>
      <trkpt lat="43.32708" lon="5.76442">
        <ele>868.6</ele>
        <time>2025-10-05T12:13:28Z</time>
      </trkpt>
      <trkpt lat="43.32708" lon="5.76442">
        <ele>868.7</ele>
        <time>2025-10-05T12:13:29Z</time>
      </trkpt>
      <trkpt lat="43.32707" lon="5.76442">
        <ele>869</ele>
        <time>2025-10-05T12:13:30Z</time>
      </trkpt>
      <trkpt lat="43.32707" lon="5.76442">
        <ele>869.2</ele>
        <time>2025-10-05T12:13:31Z</time>
      </trkpt>
      <trkpt lat="43.32706" lon="5.76441">
        <ele>869.3</ele>
        <time>2025-10-05T12:13:32Z</time>
      </trkpt>
      <trkpt lat="43.32706" lon="5.76441">
        <ele>869.4</ele>
        <time>2025-10-05T12:13:33Z</time>
      </trkpt>
      <trkpt lat="43.32706" lon="5.76441">
        <ele>869.5</ele>
        <time>2025-10-05T12:13:34Z</time>
      </trkpt>
      <trkpt lat="43.32706" lon="5.76441">
        <ele>869.7</ele>
        <time>2025-10-05T12:13:35Z</time>
      </trkpt>
      <trkpt lat="43.32706" lon="5.7644">
        <ele>869.9</ele>
        <time>2025-10-05T12:13:36Z</time>
      </trkpt>
      <trkpt lat="43.32706" lon="5.76441">
        <ele>870</ele>
        <time>2025-10-05T12:13:37Z</time>
      </trkpt>
      <trkpt lat="43.32706" lon="5.76442">
        <ele>870.1</ele>
        <time>2025-10-05T12:13:38Z</time>
      </trkpt>
      <trkpt lat="43.32705" lon="5.76441">
        <ele>870.2</ele>
        <time>2025-10-05T12:13:39Z</time>
      </trkpt>
      <trkpt lat="43.32705" lon="5.76441">
        <ele>870.4</ele>
        <time>2025-10-05T12:13:40Z</time>
      </trkpt>
      <trkpt lat="43.32705" lon="5.76441">
        <ele>870.6</ele>
        <time>2025-10-05T12:13:41Z</time>
      </trkpt>
      <trkpt lat="43.32704" lon="5.76441">
        <ele>870.9</ele>
        <time>2025-10-05T12:13:42Z</time>
      </trkpt>
      <trkpt lat="43.32704" lon="5.76441">
        <ele>871.2</ele>
        <time>2025-10-05T12:13:43Z</time>
      </trkpt>
      <trkpt lat="43.32703" lon="5.7644">
        <ele>871.5</ele>
        <time>2025-10-05T12:13:44Z</time>
      </trkpt>
      <trkpt lat="43.32703" lon="5.76441">
        <ele>871.9</ele>
        <time>2025-10-05T12:13:45Z</time>
      </trkpt>
      <trkpt lat="43.32703" lon="5.7644">
        <ele>872.2</ele>
        <time>2025-10-05T12:13:46Z</time>
      </trkpt>
      <trkpt lat="43.32703" lon="5.76439">
        <ele>872.4</ele>
        <time>2025-10-05T12:13:47Z</time>
      </trkpt>
      <trkpt lat="43.32702" lon="5.76439">
        <ele>872.6</ele>
        <time>2025-10-05T12:13:48Z</time>
      </trkpt>
      <trkpt lat="43.32702" lon="5.76438">
        <ele>872.9</ele>
        <time>2025-10-05T12:13:49Z</time>
      </trkpt>
      <trkpt lat="43.32702" lon="5.76438">
        <ele>873.1</ele>
        <time>2025-10-05T12:13:50Z</time>
      </trkpt>
      <trkpt lat="43.32702" lon="5.76436">
        <ele>873.5</ele>
        <time>2025-10-05T12:13:51Z</time>
      </trkpt>
      <trkpt lat="43.32702" lon="5.76436">
        <ele>873.9</ele>
        <time>2025-10-05T12:13:52Z</time>
      </trkpt>
      <trkpt lat="43.32702" lon="5.76436">
        <ele>874.2</ele>
        <time>2025-10-05T12:13:53Z</time>
      </trkpt>
      <trkpt lat="43.32703" lon="5.76435">
        <ele>874.4</ele>
        <time>2025-10-05T12:13:54Z</time>
      </trkpt>
      <trkpt lat="43.32702" lon="5.76435">
        <ele>874.9</ele>
        <time>2025-10-05T12:13:55Z</time>
      </trkpt>
      <trkpt lat="43.32702" lon="5.76435">
        <ele>875.3</ele>
        <time>2025-10-05T12:13:56Z</time>
      </trkpt>
      <trkpt lat="43.32702" lon="5.76434">
        <ele>875.5</ele>
        <time>2025-10-05T12:13:57Z</time>
      </trkpt>
      <trkpt lat="43.32702" lon="5.76434">
        <ele>875.7</ele>
        <time>2025-10-05T12:13:58Z</time>
      </trkpt>
      <trkpt lat="43.32702" lon="5.76432">
        <ele>875.9</ele>
        <time>2025-10-05T12:13:59Z</time>
      </trkpt>
      <trkpt lat="43.32703" lon="5.76433">
        <ele>876</ele>
        <time>2025-10-05T12:14:00Z</time>
      </trkpt>
      <trkpt lat="43.32702" lon="5.76433">
        <ele>876.2</ele>
        <time>2025-10-05T12:14:01Z</time>
      </trkpt>
      <trkpt lat="43.32702" lon="5.76433">
        <ele>876.4</ele>
        <time>2025-10-05T12:14:02Z</time>
      </trkpt>
      <trkpt lat="43.32703" lon="5.76434">
        <ele>876.8</ele>
        <time>2025-10-05T12:14:03Z</time>
      </trkpt>
      <trkpt lat="43.32703" lon="5.76433">
        <ele>877.3</ele>
        <time>2025-10-05T12:14:04Z</time>
      </trkpt>
      <trkpt lat="43.32702" lon="5.76433">
        <ele>877.7</ele>
        <time>2025-10-05T12:14:05Z</time>
      </trkpt>
      <trkpt lat="43.32702" lon="5.76433">
        <ele>878.1</ele>
        <time>2025-10-05T12:14:06Z</time>
      </trkpt>
      <trkpt lat="43.32702" lon="5.76433">
        <ele>878.5</ele>
        <time>2025-10-05T12:14:07Z</time>
      </trkpt>
      <trkpt lat="43.32701" lon="5.76433">
        <ele>878.7</ele>
        <time>2025-10-05T12:14:08Z</time>
      </trkpt>
      <trkpt lat="43.32702" lon="5.76435">
        <ele>879</ele>
        <time>2025-10-05T12:14:09Z</time>
      </trkpt>
      <trkpt lat="43.32703" lon="5.76435">
        <ele>879.3</ele>
        <time>2025-10-05T12:14:10Z</time>
      </trkpt>
      <trkpt lat="43.32703" lon="5.76435">
        <ele>879.6</ele>
        <time>2025-10-05T12:14:11Z</time>
      </trkpt>
      <trkpt lat="43.32703" lon="5.76435">
        <ele>879.8</ele>
        <time>2025-10-05T12:14:12Z</time>
      </trkpt>
      <trkpt lat="43.32703" lon="5.76435">
        <ele>880</ele>
        <time>2025-10-05T12:14:13Z</time>
      </trkpt>
      <trkpt lat="43.32703" lon="5.76435">
        <ele>880.3</ele>
        <time>2025-10-05T12:14:14Z</time>
      </trkpt>
      <trkpt lat="43.32703" lon="5.76435">
        <ele>880.4</ele>
        <time>2025-10-05T12:14:15Z</time>
      </trkpt>
      <trkpt lat="43.32703" lon="5.76434">
        <ele>880.6</ele>
        <time>2025-10-05T12:14:16Z</time>
      </trkpt>
      <trkpt lat="43.32703" lon="5.76434">
        <ele>880.8</ele>
        <time>2025-10-05T12:14:17Z</time>
      </trkpt>
      <trkpt lat="43.32702" lon="5.76434">
        <ele>881.1</ele>
        <time>2025-10-05T12:14:18Z</time>
      </trkpt>
      <trkpt lat="43.32702" lon="5.76434">
        <ele>881.4</ele>
        <time>2025-10-05T12:14:19Z</time>
      </trkpt>
      <trkpt lat="43.32701" lon="5.76434">
        <ele>881.6</ele>
        <time>2025-10-05T12:14:20Z</time>
      </trkpt>
      <trkpt lat="43.32701" lon="5.76435">
        <ele>881.7</ele>
        <time>2025-10-05T12:14:21Z</time>
      </trkpt>
      <trkpt lat="43.32701" lon="5.76436">
        <ele>881.8</ele>
        <time>2025-10-05T12:14:22Z</time>
      </trkpt>
      <trkpt lat="43.32701" lon="5.76436">
        <ele>881.9</ele>
        <time>2025-10-05T12:14:23Z</time>
      </trkpt>
      <trkpt lat="43.32701" lon="5.76436">
        <ele>882</ele>
        <time>2025-10-05T12:14:24Z</time>
      </trkpt>
      <trkpt lat="43.32701" lon="5.76437">
        <ele>882.2</ele>
        <time>2025-10-05T12:14:25Z</time>
      </trkpt>
      <trkpt lat="43.32702" lon="5.76439">
        <ele>882.4</ele>
        <time>2025-10-05T12:14:26Z</time>
      </trkpt>
      <trkpt lat="43.32702" lon="5.76439">
        <ele>882.9</ele>
        <time>2025-10-05T12:14:27Z</time>
      </trkpt>
      <trkpt lat="43.32701" lon="5.7644">
        <ele>883</ele>
        <time>2025-10-05T12:14:28Z</time>
      </trkpt>
      <trkpt lat="43.32701" lon="5.7644">
        <ele>883.2</ele>
        <time>2025-10-05T12:14:29Z</time>
      </trkpt>
      <trkpt lat="43.32701" lon="5.7644">
        <ele>883.2</ele>
        <time>2025-10-05T12:14:30Z</time>
      </trkpt>
      <trkpt lat="43.32701" lon="5.7644">
        <ele>883.2</ele>
        <time>2025-10-05T12:14:31Z</time>
      </trkpt>
      <trkpt lat="43.32701" lon="5.7644">
        <ele>883.5</ele>
        <time>2025-10-05T12:14:32Z</time>
      </trkpt>
      <trkpt lat="43.32701" lon="5.76441">
        <ele>883.7</ele>
        <time>2025-10-05T12:14:33Z</time>
      </trkpt>
      <trkpt lat="43.32701" lon="5.7644">
        <ele>883.7</ele>
        <time>2025-10-05T12:14:34Z</time>
      </trkpt>
      <trkpt lat="43.32702" lon="5.7644">
        <ele>883.7</ele>
        <time>2025-10-05T12:14:35Z</time>
      </trkpt>
      <trkpt lat="43.32702" lon="5.76439">
        <ele>883.7</ele>
        <time>2025-10-05T12:14:36Z</time>
      </trkpt>
      <trkpt lat="43.32703" lon="5.76441">
        <ele>884</ele>
        <time>2025-10-05T12:14:37Z</time>
      </trkpt>
      <trkpt lat="43.32703" lon="5.76441">
        <ele>884.4</ele>
        <time>2025-10-05T12:14:38Z</time>
      </trkpt>
      <trkpt lat="43.32703" lon="5.76441">
        <ele>885.1</ele>
        <time>2025-10-05T12:14:39Z</time>
      </trkpt>
      <trkpt lat="43.32703" lon="5.76443">
        <ele>885.5</ele>
        <time>2025-10-05T12:14:40Z</time>
      </trkpt>
      <trkpt lat="43.32704" lon="5.76443">
        <ele>885.8</ele>
        <time>2025-10-05T12:14:41Z</time>
      </trkpt>
      <trkpt lat="43.32704" lon="5.76444">
        <ele>885.9</ele>
        <time>2025-10-05T12:14:42Z</time>
      </trkpt>
      <trkpt lat="43.32705" lon="5.76445">
        <ele>886.1</ele>
        <time>2025-10-05T12:14:43Z</time>
      </trkpt>
      <trkpt lat="43.32704" lon="5.76445">
        <ele>886.2</ele>
        <time>2025-10-05T12:14:44Z</time>
      </trkpt>
      <trkpt lat="43.32704" lon="5.76445">
        <ele>886.2</ele>
        <time>2025-10-05T12:14:45Z</time>
      </trkpt>
      <trkpt lat="43.32703" lon="5.76445">
        <ele>886.2</ele>
        <time>2025-10-05T12:14:46Z</time>
      </trkpt>
      <trkpt lat="43.32702" lon="5.76445">
        <ele>886.1</ele>
        <time>2025-10-05T12:14:47Z</time>
      </trkpt>
      <trkpt lat="43.32701" lon="5.76443">
        <ele>886</ele>
        <time>2025-10-05T12:14:48Z</time>
      </trkpt>
      <trkpt lat="43.32701" lon="5.76443">
        <ele>886</ele>
        <time>2025-10-05T12:14:49Z</time>
      </trkpt>
      <trkpt lat="43.32701" lon="5.76443">
        <ele>886.1</ele>
        <time>2025-10-05T12:14:50Z</time>
      </trkpt>
      <trkpt lat="43.327" lon="5.76444">
        <ele>886.4</ele>
        <time>2025-10-05T12:14:51Z</time>
      </trkpt>
      <trkpt lat="43.32699" lon="5.76442">
        <ele>886.5</ele>
        <time>2025-10-05T12:14:52Z</time>
      </trkpt>
      <trkpt lat="43.327" lon="5.7644">
        <ele>886.6</ele>
        <time>2025-10-05T12:14:53Z</time>
      </trkpt>
      <trkpt lat="43.32699" lon="5.7644">
        <ele>886.7</ele>
        <time>2025-10-05T12:14:54Z</time>
      </trkpt>
      <trkpt lat="43.32699" lon="5.7644">
        <ele>887.1</ele>
        <time>2025-10-05T12:14:55Z</time>
      </trkpt>
      <trkpt lat="43.32698" lon="5.7644">
        <ele>887.4</ele>
        <time>2025-10-05T12:14:56Z</time>
      </trkpt>
      <trkpt lat="43.32698" lon="5.7644">
        <ele>887.7</ele>
        <time>2025-10-05T12:14:57Z</time>
      </trkpt>
      <trkpt lat="43.32698" lon="5.76441">
        <ele>887.9</ele>
        <time>2025-10-05T12:14:58Z</time>
      </trkpt>
      <trkpt lat="43.32697" lon="5.76441">
        <ele>888.1</ele>
        <time>2025-10-05T12:14:59Z</time>
      </trkpt>
      <trkpt lat="43.32698" lon="5.76439">
        <ele>888.3</ele>
        <time>2025-10-05T12:15:00Z</time>
      </trkpt>
      <trkpt lat="43.32697" lon="5.76442">
        <ele>888.3</ele>
        <time>2025-10-05T12:15:01Z</time>
      </trkpt>
      <trkpt lat="43.32696" lon="5.76444">
        <ele>888.5</ele>
        <time>2025-10-05T12:15:02Z</time>
      </trkpt>
      <trkpt lat="43.32696" lon="5.76444">
        <ele>888.6</ele>
        <time>2025-10-05T12:15:03Z</time>
      </trkpt>
      <trkpt lat="43.32696" lon="5.76444">
        <ele>888.9</ele>
        <time>2025-10-05T12:15:04Z</time>
      </trkpt>
      <trkpt lat="43.32697" lon="5.76444">
        <ele>889.2</ele>
        <time>2025-10-05T12:15:05Z</time>
      </trkpt>
      <trkpt lat="43.32698" lon="5.76445">
        <ele>889.5</ele>
        <time>2025-10-05T12:15:06Z</time>
      </trkpt>
      <trkpt lat="43.32697" lon="5.76444">
        <ele>889.8</ele>
        <time>2025-10-05T12:15:07Z</time>
      </trkpt>
      <trkpt lat="43.32697" lon="5.76443">
        <ele>890.1</ele>
        <time>2025-10-05T12:15:08Z</time>
      </trkpt>
      <trkpt lat="43.32697" lon="5.76444">
        <ele>890.2</ele>
        <time>2025-10-05T12:15:09Z</time>
      </trkpt>
      <trkpt lat="43.32697" lon="5.76444">
        <ele>890.3</ele>
        <time>2025-10-05T12:15:10Z</time>
      </trkpt>
      <trkpt lat="43.32698" lon="5.76444">
        <ele>890.4</ele>
        <time>2025-10-05T12:15:11Z</time>
      </trkpt>
      <trkpt lat="43.32697" lon="5.76442">
        <ele>890.4</ele>
        <time>2025-10-05T12:15:12Z</time>
      </trkpt>
      <trkpt lat="43.32697" lon="5.76442">
        <ele>890.5</ele>
        <time>2025-10-05T12:15:13Z</time>
      </trkpt>
      <trkpt lat="43.32698" lon="5.76442">
        <ele>890.5</ele>
        <time>2025-10-05T12:15:14Z</time>
      </trkpt>
      <trkpt lat="43.32697" lon="5.76441">
        <ele>890.5</ele>
        <time>2025-10-05T12:15:15Z</time>
      </trkpt>
      <trkpt lat="43.32697" lon="5.76441">
        <ele>890.5</ele>
        <time>2025-10-05T12:15:16Z</time>
      </trkpt>
      <trkpt lat="43.32697" lon="5.76441">
        <ele>890.5</ele>
        <time>2025-10-05T12:15:17Z</time>
      </trkpt>
      <trkpt lat="43.32697" lon="5.76442">
        <ele>890.4</ele>
        <time>2025-10-05T12:15:18Z</time>
      </trkpt>
      <trkpt lat="43.32697" lon="5.76442">
        <ele>890.4</ele>
        <time>2025-10-05T12:15:19Z</time>
      </trkpt>
      <trkpt lat="43.3269" lon="5.76448">
        <ele>890.3</ele>
        <time>2025-10-05T12:15:20Z</time>
      </trkpt>
      <trkpt lat="43.32688" lon="5.76449">
        <ele>890.2</ele>
        <time>2025-10-05T12:15:22Z</time>
      </trkpt>
      <trkpt lat="43.32689" lon="5.7645">
        <ele>890.1</ele>
        <time>2025-10-05T12:15:23Z</time>
      </trkpt>
      <trkpt lat="43.3269" lon="5.7645">
        <ele>890</ele>
        <time>2025-10-05T12:15:24Z</time>
      </trkpt>
      <trkpt lat="43.3269" lon="5.7645">
        <ele>889.9</ele>
        <time>2025-10-05T12:15:25Z</time>
      </trkpt>
      <trkpt lat="43.3269" lon="5.76451">
        <ele>889.9</ele>
        <time>2025-10-05T12:15:26Z</time>
      </trkpt>
      <trkpt lat="43.3269" lon="5.76451">
        <ele>889.8</ele>
        <time>2025-10-05T12:15:27Z</time>
      </trkpt>
      <trkpt lat="43.32691" lon="5.76451">
        <ele>889.7</ele>
        <time>2025-10-05T12:15:28Z</time>
      </trkpt>
      <trkpt lat="43.32691" lon="5.76451">
        <ele>889.7</ele>
        <time>2025-10-05T12:15:29Z</time>
      </trkpt>
      <trkpt lat="43.32691" lon="5.76451">
        <ele>889.5</ele>
        <time>2025-10-05T12:15:30Z</time>
      </trkpt>
      <trkpt lat="43.32692" lon="5.76451">
        <ele>889.4</ele>
        <time>2025-10-05T12:15:31Z</time>
      </trkpt>
      <trkpt lat="43.32692" lon="5.7645">
        <ele>889.3</ele>
        <time>2025-10-05T12:15:32Z</time>
      </trkpt>
      <trkpt lat="43.32693" lon="5.76448">
        <ele>889.2</ele>
        <time>2025-10-05T12:15:33Z</time>
      </trkpt>
      <trkpt lat="43.32694" lon="5.76447">
        <ele>889.2</ele>
        <time>2025-10-05T12:15:34Z</time>
      </trkpt>
      <trkpt lat="43.32693" lon="5.76446">
        <ele>889.1</ele>
        <time>2025-10-05T12:15:35Z</time>
      </trkpt>
      <trkpt lat="43.32693" lon="5.76444">
        <ele>888.9</ele>
        <time>2025-10-05T12:15:36Z</time>
      </trkpt>
      <trkpt lat="43.32692" lon="5.76442">
        <ele>888.7</ele>
        <time>2025-10-05T12:15:37Z</time>
      </trkpt>
      <trkpt lat="43.32692" lon="5.7644">
        <ele>888.6</ele>
        <time>2025-10-05T12:15:38Z</time>
      </trkpt>
      <trkpt lat="43.32691" lon="5.7644">
        <ele>888.5</ele>
        <time>2025-10-05T12:15:39Z</time>
      </trkpt>
      <trkpt lat="43.3269" lon="5.7644">
        <ele>888.4</ele>
        <time>2025-10-05T12:15:40Z</time>
      </trkpt>
      <trkpt lat="43.3269" lon="5.76441">
        <ele>888.4</ele>
        <time>2025-10-05T12:15:41Z</time>
      </trkpt>
      <trkpt lat="43.3269" lon="5.76441">
        <ele>888.4</ele>
        <time>2025-10-05T12:15:42Z</time>
      </trkpt>
      <trkpt lat="43.32689" lon="5.76441">
        <ele>888.3</ele>
        <time>2025-10-05T12:15:43Z</time>
      </trkpt>
      <trkpt lat="43.32689" lon="5.76441">
        <ele>888.4</ele>
        <time>2025-10-05T12:15:44Z</time>
      </trkpt>
      <trkpt lat="43.32689" lon="5.76441">
        <ele>888.4</ele>
        <time>2025-10-05T12:15:45Z</time>
      </trkpt>
      <trkpt lat="43.32689" lon="5.76441">
        <ele>888.6</ele>
        <time>2025-10-05T12:15:46Z</time>
      </trkpt>
      <trkpt lat="43.32689" lon="5.76442">
        <ele>888.6</ele>
        <time>2025-10-05T12:15:47Z</time>
      </trkpt>
      <trkpt lat="43.3269" lon="5.76442">
        <ele>888.6</ele>
        <time>2025-10-05T12:15:48Z</time>
      </trkpt>
      <trkpt lat="43.3269" lon="5.76441">
        <ele>888.7</ele>
        <time>2025-10-05T12:15:49Z</time>
      </trkpt>
      <trkpt lat="43.3269" lon="5.7644">
        <ele>888.8</ele>
        <time>2025-10-05T12:15:50Z</time>
      </trkpt>
      <trkpt lat="43.3269" lon="5.76439">
        <ele>888.9</ele>
        <time>2025-10-05T12:15:51Z</time>
      </trkpt>
      <trkpt lat="43.32689" lon="5.76439">
        <ele>889.1</ele>
        <time>2025-10-05T12:15:52Z</time>
      </trkpt>
      <trkpt lat="43.32689" lon="5.76438">
        <ele>889.3</ele>
        <time>2025-10-05T12:15:53Z</time>
      </trkpt>
      <trkpt lat="43.32689" lon="5.76436">
        <ele>889.6</ele>
        <time>2025-10-05T12:15:54Z</time>
      </trkpt>
      <trkpt lat="43.32688" lon="5.76436">
        <ele>889.9</ele>
        <time>2025-10-05T12:15:55Z</time>
      </trkpt>
      <trkpt lat="43.32688" lon="5.76436">
        <ele>890.2</ele>
        <time>2025-10-05T12:15:56Z</time>
      </trkpt>
      <trkpt lat="43.32688" lon="5.76434">
        <ele>890.5</ele>
        <time>2025-10-05T12:15:57Z</time>
      </trkpt>
      <trkpt lat="43.32688" lon="5.76434">
        <ele>890.8</ele>
        <time>2025-10-05T12:15:58Z</time>
      </trkpt>
      <trkpt lat="43.32688" lon="5.76433">
        <ele>891.1</ele>
        <time>2025-10-05T12:15:59Z</time>
      </trkpt>
      <trkpt lat="43.32688" lon="5.76433">
        <ele>891.4</ele>
        <time>2025-10-05T12:16:00Z</time>
      </trkpt>
      <trkpt lat="43.32688" lon="5.76432">
        <ele>891.6</ele>
        <time>2025-10-05T12:16:01Z</time>
      </trkpt>
      <trkpt lat="43.32688" lon="5.76431">
        <ele>891.8</ele>
        <time>2025-10-05T12:16:02Z</time>
      </trkpt>
      <trkpt lat="43.32688" lon="5.76431">
        <ele>892</ele>
        <time>2025-10-05T12:16:03Z</time>
      </trkpt>
      <trkpt lat="43.32688" lon="5.76431">
        <ele>892</ele>
        <time>2025-10-05T12:16:04Z</time>
      </trkpt>
      <trkpt lat="43.32688" lon="5.76431">
        <ele>892.1</ele>
        <time>2025-10-05T12:16:05Z</time>
      </trkpt>
      <trkpt lat="43.32688" lon="5.76431">
        <ele>892.2</ele>
        <time>2025-10-05T12:16:06Z</time>
      </trkpt>
      <trkpt lat="43.32688" lon="5.76431">
        <ele>892</ele>
        <time>2025-10-05T12:16:07Z</time>
      </trkpt>
      <trkpt lat="43.32688" lon="5.76431">
        <ele>891.8</ele>
        <time>2025-10-05T12:16:08Z</time>
      </trkpt>
      <trkpt lat="43.32689" lon="5.76431">
        <ele>891.7</ele>
        <time>2025-10-05T12:16:09Z</time>
      </trkpt>
      <trkpt lat="43.32689" lon="5.76431">
        <ele>891.5</ele>
        <time>2025-10-05T12:16:10Z</time>
      </trkpt>
      <trkpt lat="43.32689" lon="5.76431">
        <ele>891.4</ele>
        <time>2025-10-05T12:16:11Z</time>
      </trkpt>
      <trkpt lat="43.32689" lon="5.76431">
        <ele>891.2</ele>
        <time>2025-10-05T12:16:12Z</time>
      </trkpt>
      <trkpt lat="43.3269" lon="5.76431">
        <ele>890.9</ele>
        <time>2025-10-05T12:16:13Z</time>
      </trkpt>
      <trkpt lat="43.3269" lon="5.76431">
        <ele>890.6</ele>
        <time>2025-10-05T12:16:14Z</time>
      </trkpt>
      <trkpt lat="43.3269" lon="5.76431">
        <ele>890.3</ele>
        <time>2025-10-05T12:16:15Z</time>
      </trkpt>
      <trkpt lat="43.3269" lon="5.7643">
        <ele>890.1</ele>
        <time>2025-10-05T12:16:16Z</time>
      </trkpt>
      <trkpt lat="43.32691" lon="5.7643">
        <ele>889.9</ele>
        <time>2025-10-05T12:16:17Z</time>
      </trkpt>
      <trkpt lat="43.32691" lon="5.7643">
        <ele>889.7</ele>
        <time>2025-10-05T12:16:18Z</time>
      </trkpt>
      <trkpt lat="43.32691" lon="5.7643">
        <ele>889.6</ele>
        <time>2025-10-05T12:16:19Z</time>
      </trkpt>
      <trkpt lat="43.32691" lon="5.7643">
        <ele>889.5</ele>
        <time>2025-10-05T12:16:20Z</time>
      </trkpt>
      <trkpt lat="43.32691" lon="5.7643">
        <ele>889.5</ele>
        <time>2025-10-05T12:16:21Z</time>
      </trkpt>
      <trkpt lat="43.32691" lon="5.7643">
        <ele>889.4</ele>
        <time>2025-10-05T12:16:22Z</time>
      </trkpt>
      <trkpt lat="43.32691" lon="5.7643">
        <ele>889.5</ele>
        <time>2025-10-05T12:16:23Z</time>
      </trkpt>
      <trkpt lat="43.32691" lon="5.7643">
        <ele>889.5</ele>
        <time>2025-10-05T12:16:24Z</time>
      </trkpt>
      <trkpt lat="43.32691" lon="5.7643">
        <ele>889.5</ele>
        <time>2025-10-05T12:16:25Z</time>
      </trkpt>
      <trkpt lat="43.32691" lon="5.7643">
        <ele>889.5</ele>
        <time>2025-10-05T12:16:26Z</time>
      </trkpt>
      <trkpt lat="43.32691" lon="5.7643">
        <ele>889.6</ele>
        <time>2025-10-05T12:16:27Z</time>
      </trkpt>
      <trkpt lat="43.32692" lon="5.7643">
        <ele>889.7</ele>
        <time>2025-10-05T12:16:28Z</time>
      </trkpt>
      <trkpt lat="43.32692" lon="5.76429">
        <ele>889.8</ele>
        <time>2025-10-05T12:16:29Z</time>
      </trkpt>
      <trkpt lat="43.32692" lon="5.7643">
        <ele>890</ele>
        <time>2025-10-05T12:16:30Z</time>
      </trkpt>
      <trkpt lat="43.32691" lon="5.7643">
        <ele>890.2</ele>
        <time>2025-10-05T12:16:31Z</time>
      </trkpt>
      <trkpt lat="43.32692" lon="5.7643">
        <ele>890.3</ele>
        <time>2025-10-05T12:16:32Z</time>
      </trkpt>
      <trkpt lat="43.32692" lon="5.7643">
        <ele>890.5</ele>
        <time>2025-10-05T12:16:33Z</time>
      </trkpt>
      <trkpt lat="43.32693" lon="5.7643">
        <ele>890.6</ele>
        <time>2025-10-05T12:16:34Z</time>
      </trkpt>
      <trkpt lat="43.32693" lon="5.7643">
        <ele>890.7</ele>
        <time>2025-10-05T12:16:35Z</time>
      </trkpt>
      <trkpt lat="43.32694" lon="5.76429">
        <ele>890.8</ele>
        <time>2025-10-05T12:16:36Z</time>
      </trkpt>
      <trkpt lat="43.32694" lon="5.76429">
        <ele>890.8</ele>
        <time>2025-10-05T12:16:37Z</time>
      </trkpt>
      <trkpt lat="43.32694" lon="5.76429">
        <ele>890.8</ele>
        <time>2025-10-05T12:16:38Z</time>
      </trkpt>
      <trkpt lat="43.32694" lon="5.76429">
        <ele>890.8</ele>
        <time>2025-10-05T12:16:39Z</time>
      </trkpt>
      <trkpt lat="43.32694" lon="5.76429">
        <ele>890.7</ele>
        <time>2025-10-05T12:16:40Z</time>
      </trkpt>
      <trkpt lat="43.32694" lon="5.76429">
        <ele>890.5</ele>
        <time>2025-10-05T12:16:41Z</time>
      </trkpt>
      <trkpt lat="43.32694" lon="5.76429">
        <ele>890.4</ele>
        <time>2025-10-05T12:16:42Z</time>
      </trkpt>
      <trkpt lat="43.32695" lon="5.76428">
        <ele>890.3</ele>
        <time>2025-10-05T12:16:43Z</time>
      </trkpt>
      <trkpt lat="43.32695" lon="5.76428">
        <ele>890.3</ele>
        <time>2025-10-05T12:16:44Z</time>
      </trkpt>
      <trkpt lat="43.32695" lon="5.76428">
        <ele>890.2</ele>
        <time>2025-10-05T12:16:45Z</time>
      </trkpt>
      <trkpt lat="43.32695" lon="5.76428">
        <ele>890</ele>
        <time>2025-10-05T12:16:46Z</time>
      </trkpt>
      <trkpt lat="43.32696" lon="5.76428">
        <ele>889.9</ele>
        <time>2025-10-05T12:16:47Z</time>
      </trkpt>
      <trkpt lat="43.32695" lon="5.76428">
        <ele>889.8</ele>
        <time>2025-10-05T12:16:48Z</time>
      </trkpt>
      <trkpt lat="43.32696" lon="5.76428">
        <ele>889.6</ele>
        <time>2025-10-05T12:16:49Z</time>
      </trkpt>
      <trkpt lat="43.32696" lon="5.76428">
        <ele>889.2</ele>
        <time>2025-10-05T12:16:50Z</time>
      </trkpt>
      <trkpt lat="43.32696" lon="5.76428">
        <ele>888.9</ele>
        <time>2025-10-05T12:16:51Z</time>
      </trkpt>
      <trkpt lat="43.32696" lon="5.76428">
        <ele>888.8</ele>
        <time>2025-10-05T12:16:52Z</time>
      </trkpt>
      <trkpt lat="43.32696" lon="5.76428">
        <ele>888.9</ele>
        <time>2025-10-05T12:16:53Z</time>
      </trkpt>
      <trkpt lat="43.32696" lon="5.76428">
        <ele>889</ele>
        <time>2025-10-05T12:16:54Z</time>
      </trkpt>
      <trkpt lat="43.32696" lon="5.76428">
        <ele>889.1</ele>
        <time>2025-10-05T12:16:55Z</time>
      </trkpt>
      <trkpt lat="43.32696" lon="5.76428">
        <ele>889.2</ele>
        <time>2025-10-05T12:16:56Z</time>
      </trkpt>
      <trkpt lat="43.32696" lon="5.76428">
        <ele>889.5</ele>
        <time>2025-10-05T12:16:57Z</time>
      </trkpt>
      <trkpt lat="43.32696" lon="5.76428">
        <ele>889.7</ele>
        <time>2025-10-05T12:16:58Z</time>
      </trkpt>
      <trkpt lat="43.32696" lon="5.76429">
        <ele>889.9</ele>
        <time>2025-10-05T12:16:59Z</time>
      </trkpt>
      <trkpt lat="43.32696" lon="5.76429">
        <ele>890.1</ele>
        <time>2025-10-05T12:17:00Z</time>
      </trkpt>
      <trkpt lat="43.32696" lon="5.76429">
        <ele>890.2</ele>
        <time>2025-10-05T12:17:01Z</time>
      </trkpt>
      <trkpt lat="43.32696" lon="5.76429">
        <ele>890.4</ele>
        <time>2025-10-05T12:17:02Z</time>
      </trkpt>
      <trkpt lat="43.32696" lon="5.76429">
        <ele>890.5</ele>
        <time>2025-10-05T12:17:03Z</time>
      </trkpt>
      <trkpt lat="43.32696" lon="5.76429">
        <ele>890.5</ele>
        <time>2025-10-05T12:17:04Z</time>
      </trkpt>
      <trkpt lat="43.32696" lon="5.76429">
        <ele>890.6</ele>
        <time>2025-10-05T12:17:05Z</time>
      </trkpt>
      <trkpt lat="43.32696" lon="5.76429">
        <ele>890.6</ele>
        <time>2025-10-05T12:17:06Z</time>
      </trkpt>
      <trkpt lat="43.32696" lon="5.76429">
        <ele>890.6</ele>
        <time>2025-10-05T12:17:07Z</time>
      </trkpt>
      <trkpt lat="43.32695" lon="5.76429">
        <ele>890.6</ele>
        <time>2025-10-05T12:17:08Z</time>
      </trkpt>
      <trkpt lat="43.32696" lon="5.76429">
        <ele>890.6</ele>
        <time>2025-10-05T12:17:09Z</time>
      </trkpt>
      <trkpt lat="43.32696" lon="5.76429">
        <ele>890.6</ele>
        <time>2025-10-05T12:17:10Z</time>
      </trkpt>
      <trkpt lat="43.32696" lon="5.76429">
        <ele>890.7</ele>
        <time>2025-10-05T12:17:11Z</time>
      </trkpt>
      <trkpt lat="43.32696" lon="5.76429">
        <ele>890.7</ele>
        <time>2025-10-05T12:17:12Z</time>
      </trkpt>
      <trkpt lat="43.32696" lon="5.76429">
        <ele>890.7</ele>
        <time>2025-10-05T12:17:13Z</time>
      </trkpt>
      <trkpt lat="43.32696" lon="5.76429">
        <ele>890.9</ele>
        <time>2025-10-05T12:17:14Z</time>
      </trkpt>
      <trkpt lat="43.32696" lon="5.76429">
        <ele>891</ele>
        <time>2025-10-05T12:17:15Z</time>
      </trkpt>
      <trkpt lat="43.32696" lon="5.76429">
        <ele>891.1</ele>
        <time>2025-10-05T12:17:16Z</time>
      </trkpt>
      <trkpt lat="43.32696" lon="5.76428">
        <ele>891.2</ele>
        <time>2025-10-05T12:17:17Z</time>
      </trkpt>
      <trkpt lat="43.32696" lon="5.76428">
        <ele>891.3</ele>
        <time>2025-10-05T12:17:18Z</time>
      </trkpt>
      <trkpt lat="43.32695" lon="5.76427">
        <ele>891.3</ele>
        <time>2025-10-05T12:17:19Z</time>
      </trkpt>
      <trkpt lat="43.32695" lon="5.76427">
        <ele>891.4</ele>
        <time>2025-10-05T12:17:20Z</time>
      </trkpt>
      <trkpt lat="43.32693" lon="5.76427">
        <ele>891.5</ele>
        <time>2025-10-05T12:17:21Z</time>
      </trkpt>
      <trkpt lat="43.32692" lon="5.76427">
        <ele>891.5</ele>
        <time>2025-10-05T12:17:22Z</time>
      </trkpt>
      <trkpt lat="43.32691" lon="5.76428">
        <ele>891.5</ele>
        <time>2025-10-05T12:17:23Z</time>
      </trkpt>
      <trkpt lat="43.3269" lon="5.76428">
        <ele>891.5</ele>
        <time>2025-10-05T12:17:24Z</time>
      </trkpt>
      <trkpt lat="43.32689" lon="5.76429">
        <ele>891.5</ele>
        <time>2025-10-05T12:17:25Z</time>
      </trkpt>
      <trkpt lat="43.32688" lon="5.76428">
        <ele>891.6</ele>
        <time>2025-10-05T12:17:26Z</time>
      </trkpt>
      <trkpt lat="43.32687" lon="5.76428">
        <ele>891.6</ele>
        <time>2025-10-05T12:17:27Z</time>
      </trkpt>
      <trkpt lat="43.32686" lon="5.76428">
        <ele>891.6</ele>
        <time>2025-10-05T12:17:28Z</time>
      </trkpt>
      <trkpt lat="43.32686" lon="5.76428">
        <ele>891.7</ele>
        <time>2025-10-05T12:17:29Z</time>
      </trkpt>
      <trkpt lat="43.32685" lon="5.76428">
        <ele>891.9</ele>
        <time>2025-10-05T12:17:30Z</time>
      </trkpt>
      <trkpt lat="43.32685" lon="5.76428">
        <ele>892.1</ele>
        <time>2025-10-05T12:17:31Z</time>
      </trkpt>
      <trkpt lat="43.32684" lon="5.76428">
        <ele>892.2</ele>
        <time>2025-10-05T12:17:32Z</time>
      </trkpt>
      <trkpt lat="43.32684" lon="5.76429">
        <ele>892.4</ele>
        <time>2025-10-05T12:17:33Z</time>
      </trkpt>
      <trkpt lat="43.32684" lon="5.76429">
        <ele>892.5</ele>
        <time>2025-10-05T12:17:34Z</time>
      </trkpt>
      <trkpt lat="43.32684" lon="5.76428">
        <ele>892.7</ele>
        <time>2025-10-05T12:17:35Z</time>
      </trkpt>
      <trkpt lat="43.32684" lon="5.76428">
        <ele>892.9</ele>
        <time>2025-10-05T12:17:36Z</time>
      </trkpt>
      <trkpt lat="43.32684" lon="5.76428">
        <ele>893</ele>
        <time>2025-10-05T12:17:37Z</time>
      </trkpt>
      <trkpt lat="43.32684" lon="5.76428">
        <ele>893.2</ele>
        <time>2025-10-05T12:17:38Z</time>
      </trkpt>
      <trkpt lat="43.32684" lon="5.76428">
        <ele>893.3</ele>
        <time>2025-10-05T12:17:39Z</time>
      </trkpt>
      <trkpt lat="43.32684" lon="5.76428">
        <ele>893.3</ele>
        <time>2025-10-05T12:17:40Z</time>
      </trkpt>
      <trkpt lat="43.32684" lon="5.76428">
        <ele>893.4</ele>
        <time>2025-10-05T12:17:41Z</time>
      </trkpt>
      <trkpt lat="43.32684" lon="5.76429">
        <ele>893.3</ele>
        <time>2025-10-05T12:17:42Z</time>
      </trkpt>
      <trkpt lat="43.32684" lon="5.76429">
        <ele>893.3</ele>
        <time>2025-10-05T12:17:43Z</time>
      </trkpt>
      <trkpt lat="43.32683" lon="5.76429">
        <ele>893.1</ele>
        <time>2025-10-05T12:17:44Z</time>
      </trkpt>
      <trkpt lat="43.32683" lon="5.76429">
        <ele>893.1</ele>
        <time>2025-10-05T12:17:45Z</time>
      </trkpt>
      <trkpt lat="43.32683" lon="5.7643">
        <ele>893.1</ele>
        <time>2025-10-05T12:17:46Z</time>
      </trkpt>
      <trkpt lat="43.32683" lon="5.7643">
        <ele>893.1</ele>
        <time>2025-10-05T12:17:47Z</time>
      </trkpt>
      <trkpt lat="43.32683" lon="5.7643">
        <ele>893</ele>
        <time>2025-10-05T12:17:48Z</time>
      </trkpt>
      <trkpt lat="43.32683" lon="5.76431">
        <ele>893.1</ele>
        <time>2025-10-05T12:17:49Z</time>
      </trkpt>
      <trkpt lat="43.32683" lon="5.7643">
        <ele>893</ele>
        <time>2025-10-05T12:17:50Z</time>
      </trkpt>
      <trkpt lat="43.32683" lon="5.76427">
        <ele>892.9</ele>
        <time>2025-10-05T12:17:51Z</time>
      </trkpt>
      <trkpt lat="43.32683" lon="5.76426">
        <ele>893</ele>
        <time>2025-10-05T12:17:55Z</time>
      </trkpt>
      <trkpt lat="43.32682" lon="5.76426">
        <ele>892.8</ele>
        <time>2025-10-05T12:17:56Z</time>
      </trkpt>
      <trkpt lat="43.32681" lon="5.76425">
        <ele>892.6</ele>
        <time>2025-10-05T12:17:57Z</time>
      </trkpt>
      <trkpt lat="43.32679" lon="5.76446">
        <ele>892.3</ele>
        <time>2025-10-05T12:26:27Z</time>
      </trkpt>
      <trkpt lat="43.32679" lon="5.7645">
        <ele>892.6</ele>
        <time>2025-10-05T12:26:28Z</time>
      </trkpt>
      <trkpt lat="43.32679" lon="5.76466">
        <ele>892.8</ele>
        <time>2025-10-05T12:26:29Z</time>
      </trkpt>
      <trkpt lat="43.3268" lon="5.76473">
        <ele>892.9</ele>
        <time>2025-10-05T12:26:30Z</time>
      </trkpt>
      <trkpt lat="43.32682" lon="5.76471">
        <ele>893.2</ele>
        <time>2025-10-05T12:26:31Z</time>
      </trkpt>
      <trkpt lat="43.32683" lon="5.76461">
        <ele>893.3</ele>
        <time>2025-10-05T12:26:32Z</time>
      </trkpt>
      <trkpt lat="43.32685" lon="5.76456">
        <ele>893.5</ele>
        <time>2025-10-05T12:26:33Z</time>
      </trkpt>
      <trkpt lat="43.32685" lon="5.7645">
        <ele>893.4</ele>
        <time>2025-10-05T12:26:34Z</time>
      </trkpt>
      <trkpt lat="43.32686" lon="5.76445">
        <ele>893.2</ele>
        <time>2025-10-05T12:26:35Z</time>
      </trkpt>
      <trkpt lat="43.32689" lon="5.7644">
        <ele>893.1</ele>
        <time>2025-10-05T12:26:36Z</time>
      </trkpt>
      <trkpt lat="43.32689" lon="5.76438">
        <ele>893</ele>
        <time>2025-10-05T12:26:37Z</time>
      </trkpt>
      <trkpt lat="43.3269" lon="5.76439">
        <ele>892.9</ele>
        <time>2025-10-05T12:26:38Z</time>
      </trkpt>
      <trkpt lat="43.32691" lon="5.76438">
        <ele>892.8</ele>
        <time>2025-10-05T12:26:39Z</time>
      </trkpt>
      <trkpt lat="43.32693" lon="5.76437">
        <ele>892.6</ele>
        <time>2025-10-05T12:26:40Z</time>
      </trkpt>
      <trkpt lat="43.32694" lon="5.76438">
        <ele>892.5</ele>
        <time>2025-10-05T12:26:41Z</time>
      </trkpt>
      <trkpt lat="43.32693" lon="5.76439">
        <ele>892.4</ele>
        <time>2025-10-05T12:26:42Z</time>
      </trkpt>
      <trkpt lat="43.32692" lon="5.76439">
        <ele>892.4</ele>
        <time>2025-10-05T12:26:43Z</time>
      </trkpt>
      <trkpt lat="43.32695" lon="5.76438">
        <ele>892.4</ele>
        <time>2025-10-05T12:26:44Z</time>
      </trkpt>
      <trkpt lat="43.32694" lon="5.76438">
        <ele>892.4</ele>
        <time>2025-10-05T12:26:45Z</time>
      </trkpt>
      <trkpt lat="43.32696" lon="5.76438">
        <ele>892.4</ele>
        <time>2025-10-05T12:26:46Z</time>
      </trkpt>
      <trkpt lat="43.32695" lon="5.76438">
        <ele>892.4</ele>
        <time>2025-10-05T12:26:47Z</time>
      </trkpt>
      <trkpt lat="43.32694" lon="5.76438">
        <ele>892.4</ele>
        <time>2025-10-05T12:26:48Z</time>
      </trkpt>
      <trkpt lat="43.32694" lon="5.76439">
        <ele>892.5</ele>
        <time>2025-10-05T12:26:49Z</time>
      </trkpt>
      <trkpt lat="43.32692" lon="5.76439">
        <ele>892.5</ele>
        <time>2025-10-05T12:26:50Z</time>
      </trkpt>
      <trkpt lat="43.3269" lon="5.76439">
        <ele>892.6</ele>
        <time>2025-10-05T12:26:51Z</time>
      </trkpt>
      <trkpt lat="43.3269" lon="5.76439">
        <ele>892.7</ele>
        <time>2025-10-05T12:26:52Z</time>
      </trkpt>
      <trkpt lat="43.32689" lon="5.76439">
        <ele>892.7</ele>
        <time>2025-10-05T12:26:53Z</time>
      </trkpt>
      <trkpt lat="43.32689" lon="5.76439">
        <ele>892.8</ele>
        <time>2025-10-05T12:26:54Z</time>
      </trkpt>
      <trkpt lat="43.3269" lon="5.76439">
        <ele>892.8</ele>
        <time>2025-10-05T12:26:55Z</time>
      </trkpt>
      <trkpt lat="43.32691" lon="5.76438">
        <ele>892.9</ele>
        <time>2025-10-05T12:26:56Z</time>
      </trkpt>
      <trkpt lat="43.32692" lon="5.76437">
        <ele>892.9</ele>
        <time>2025-10-05T12:26:57Z</time>
      </trkpt>
      <trkpt lat="43.32692" lon="5.76437">
        <ele>893</ele>
        <time>2025-10-05T12:26:58Z</time>
      </trkpt>
      <trkpt lat="43.32693" lon="5.76437">
        <ele>892.9</ele>
        <time>2025-10-05T12:26:59Z</time>
      </trkpt>
      <trkpt lat="43.32696" lon="5.76436">
        <ele>892.9</ele>
        <time>2025-10-05T12:27:00Z</time>
      </trkpt>
      <trkpt lat="43.32697" lon="5.76436">
        <ele>892.9</ele>
        <time>2025-10-05T12:27:01Z</time>
      </trkpt>
      <trkpt lat="43.32697" lon="5.76436">
        <ele>892.9</ele>
        <time>2025-10-05T12:27:02Z</time>
      </trkpt>
      <trkpt lat="43.32697" lon="5.76436">
        <ele>892.9</ele>
        <time>2025-10-05T12:27:03Z</time>
      </trkpt>
      <trkpt lat="43.32698" lon="5.76435">
        <ele>892.9</ele>
        <time>2025-10-05T12:27:04Z</time>
      </trkpt>
      <trkpt lat="43.32697" lon="5.76435">
        <ele>892.8</ele>
        <time>2025-10-05T12:27:05Z</time>
      </trkpt>
      <trkpt lat="43.32696" lon="5.76435">
        <ele>892.8</ele>
        <time>2025-10-05T12:27:06Z</time>
      </trkpt>
      <trkpt lat="43.32695" lon="5.76435">
        <ele>892.9</ele>
        <time>2025-10-05T12:27:07Z</time>
      </trkpt>
      <trkpt lat="43.32695" lon="5.76434">
        <ele>892.9</ele>
        <time>2025-10-05T12:27:08Z</time>
      </trkpt>
      <trkpt lat="43.32697" lon="5.76434">
        <ele>893</ele>
        <time>2025-10-05T12:27:09Z</time>
      </trkpt>
      <trkpt lat="43.32697" lon="5.76434">
        <ele>893</ele>
        <time>2025-10-05T12:27:10Z</time>
      </trkpt>
      <trkpt lat="43.32698" lon="5.76433">
        <ele>892.9</ele>
        <time>2025-10-05T12:27:11Z</time>
      </trkpt>
      <trkpt lat="43.32699" lon="5.76433">
        <ele>893</ele>
        <time>2025-10-05T12:27:12Z</time>
      </trkpt>
      <trkpt lat="43.32698" lon="5.76434">
        <ele>892.9</ele>
        <time>2025-10-05T12:27:13Z</time>
      </trkpt>
      <trkpt lat="43.32697" lon="5.76434">
        <ele>892.9</ele>
        <time>2025-10-05T12:27:14Z</time>
      </trkpt>
      <trkpt lat="43.32697" lon="5.76434">
        <ele>893</ele>
        <time>2025-10-05T12:27:15Z</time>
      </trkpt>
      <trkpt lat="43.32696" lon="5.76434">
        <ele>893</ele>
        <time>2025-10-05T12:27:16Z</time>
      </trkpt>
      <trkpt lat="43.32697" lon="5.76434">
        <ele>893</ele>
        <time>2025-10-05T12:27:17Z</time>
      </trkpt>
      <trkpt lat="43.32696" lon="5.76434">
        <ele>893.1</ele>
        <time>2025-10-05T12:27:18Z</time>
      </trkpt>
      <trkpt lat="43.32696" lon="5.76434">
        <ele>893.2</ele>
        <time>2025-10-05T12:27:19Z</time>
      </trkpt>
      <trkpt lat="43.32696" lon="5.76433">
        <ele>893.4</ele>
        <time>2025-10-05T12:27:20Z</time>
      </trkpt>
      <trkpt lat="43.32696" lon="5.76433">
        <ele>893.4</ele>
        <time>2025-10-05T12:27:21Z</time>
      </trkpt>
      <trkpt lat="43.32696" lon="5.76433">
        <ele>893.4</ele>
        <time>2025-10-05T12:27:22Z</time>
      </trkpt>
      <trkpt lat="43.32697" lon="5.76433">
        <ele>893.5</ele>
        <time>2025-10-05T12:27:23Z</time>
      </trkpt>
      <trkpt lat="43.32697" lon="5.76433">
        <ele>893.5</ele>
        <time>2025-10-05T12:27:24Z</time>
      </trkpt>
      <trkpt lat="43.32697" lon="5.76433">
        <ele>893.4</ele>
        <time>2025-10-05T12:27:25Z</time>
      </trkpt>
      <trkpt lat="43.32696" lon="5.76433">
        <ele>893.4</ele>
        <time>2025-10-05T12:27:26Z</time>
      </trkpt>
      <trkpt lat="43.32696" lon="5.76432">
        <ele>893.3</ele>
        <time>2025-10-05T12:27:27Z</time>
      </trkpt>
      <trkpt lat="43.32696" lon="5.76432">
        <ele>893.3</ele>
        <time>2025-10-05T12:27:28Z</time>
      </trkpt>
      <trkpt lat="43.32696" lon="5.76432">
        <ele>893.2</ele>
        <time>2025-10-05T12:27:29Z</time>
      </trkpt>
      <trkpt lat="43.32695" lon="5.76432">
        <ele>893.2</ele>
        <time>2025-10-05T12:27:30Z</time>
      </trkpt>
      <trkpt lat="43.32695" lon="5.76432">
        <ele>893.1</ele>
        <time>2025-10-05T12:27:31Z</time>
      </trkpt>
      <trkpt lat="43.32695" lon="5.76432">
        <ele>893.1</ele>
        <time>2025-10-05T12:27:32Z</time>
      </trkpt>
      <trkpt lat="43.32695" lon="5.76432">
        <ele>893.2</ele>
        <time>2025-10-05T12:27:33Z</time>
      </trkpt>
      <trkpt lat="43.32694" lon="5.76432">
        <ele>893.2</ele>
        <time>2025-10-05T12:27:34Z</time>
      </trkpt>
      <trkpt lat="43.32693" lon="5.76432">
        <ele>893.3</ele>
        <time>2025-10-05T12:27:35Z</time>
      </trkpt>
      <trkpt lat="43.32693" lon="5.76432">
        <ele>893.3</ele>
        <time>2025-10-05T12:27:36Z</time>
      </trkpt>
      <trkpt lat="43.32693" lon="5.76432">
        <ele>893.4</ele>
        <time>2025-10-05T12:27:37Z</time>
      </trkpt>
      <trkpt lat="43.32693" lon="5.76431">
        <ele>893.4</ele>
        <time>2025-10-05T12:27:38Z</time>
      </trkpt>
      <trkpt lat="43.32692" lon="5.76431">
        <ele>893.4</ele>
        <time>2025-10-05T12:27:39Z</time>
      </trkpt>
      <trkpt lat="43.32692" lon="5.76431">
        <ele>893.5</ele>
        <time>2025-10-05T12:27:40Z</time>
      </trkpt>
      <trkpt lat="43.32692" lon="5.76431">
        <ele>893.6</ele>
        <time>2025-10-05T12:27:41Z</time>
      </trkpt>
      <trkpt lat="43.32692" lon="5.76431">
        <ele>893.6</ele>
        <time>2025-10-05T12:27:42Z</time>
      </trkpt>
      <trkpt lat="43.32692" lon="5.76431">
        <ele>893.7</ele>
        <time>2025-10-05T12:27:43Z</time>
      </trkpt>
      <trkpt lat="43.32692" lon="5.76431">
        <ele>893.7</ele>
        <time>2025-10-05T12:27:44Z</time>
      </trkpt>
      <trkpt lat="43.32693" lon="5.76431">
        <ele>893.7</ele>
        <time>2025-10-05T12:27:45Z</time>
      </trkpt>
      <trkpt lat="43.32693" lon="5.76432">
        <ele>893.7</ele>
        <time>2025-10-05T12:27:46Z</time>
      </trkpt>
      <trkpt lat="43.32693" lon="5.76432">
        <ele>893.7</ele>
        <time>2025-10-05T12:27:47Z</time>
      </trkpt>
      <trkpt lat="43.32693" lon="5.76432">
        <ele>893.7</ele>
        <time>2025-10-05T12:27:48Z</time>
      </trkpt>
      <trkpt lat="43.32693" lon="5.76432">
        <ele>893.8</ele>
        <time>2025-10-05T12:27:49Z</time>
      </trkpt>
      <trkpt lat="43.32693" lon="5.76432">
        <ele>893.8</ele>
        <time>2025-10-05T12:27:50Z</time>
      </trkpt>
      <trkpt lat="43.32693" lon="5.76432">
        <ele>893.7</ele>
        <time>2025-10-05T12:27:51Z</time>
      </trkpt>
      <trkpt lat="43.32694" lon="5.76432">
        <ele>893.8</ele>
        <time>2025-10-05T12:27:52Z</time>
      </trkpt>
      <trkpt lat="43.32694" lon="5.76432">
        <ele>893.7</ele>
        <time>2025-10-05T12:27:53Z</time>
      </trkpt>
      <trkpt lat="43.32695" lon="5.76432">
        <ele>893.7</ele>
        <time>2025-10-05T12:27:54Z</time>
      </trkpt>
      <trkpt lat="43.32694" lon="5.76432">
        <ele>893.8</ele>
        <time>2025-10-05T12:27:55Z</time>
      </trkpt>
      <trkpt lat="43.32693" lon="5.76432">
        <ele>893.8</ele>
        <time>2025-10-05T12:27:56Z</time>
      </trkpt>
      <trkpt lat="43.32693" lon="5.76432">
        <ele>893.7</ele>
        <time>2025-10-05T12:27:57Z</time>
      </trkpt>
      <trkpt lat="43.32693" lon="5.76432">
        <ele>893.6</ele>
        <time>2025-10-05T12:27:58Z</time>
      </trkpt>
      <trkpt lat="43.32693" lon="5.76432">
        <ele>893.7</ele>
        <time>2025-10-05T12:27:59Z</time>
      </trkpt>
      <trkpt lat="43.32694" lon="5.76431">
        <ele>893.7</ele>
        <time>2025-10-05T12:28:00Z</time>
      </trkpt>
      <trkpt lat="43.32694" lon="5.76431">
        <ele>893.6</ele>
        <time>2025-10-05T12:28:01Z</time>
      </trkpt>
      <trkpt lat="43.32694" lon="5.76431">
        <ele>893.5</ele>
        <time>2025-10-05T12:28:02Z</time>
      </trkpt>
      <trkpt lat="43.32695" lon="5.7643">
        <ele>893.5</ele>
        <time>2025-10-05T12:28:03Z</time>
      </trkpt>
      <trkpt lat="43.32695" lon="5.7643">
        <ele>893.4</ele>
        <time>2025-10-05T12:28:04Z</time>
      </trkpt>
      <trkpt lat="43.32696" lon="5.7643">
        <ele>893.3</ele>
        <time>2025-10-05T12:28:05Z</time>
      </trkpt>
      <trkpt lat="43.32696" lon="5.76429">
        <ele>893.2</ele>
        <time>2025-10-05T12:28:06Z</time>
      </trkpt>
      <trkpt lat="43.32697" lon="5.76429">
        <ele>893</ele>
        <time>2025-10-05T12:28:07Z</time>
      </trkpt>
      <trkpt lat="43.32698" lon="5.76429">
        <ele>892.9</ele>
        <time>2025-10-05T12:28:08Z</time>
      </trkpt>
      <trkpt lat="43.32699" lon="5.76429">
        <ele>892.8</ele>
        <time>2025-10-05T12:28:09Z</time>
      </trkpt>
      <trkpt lat="43.32698" lon="5.76429">
        <ele>892.8</ele>
        <time>2025-10-05T12:28:10Z</time>
      </trkpt>
      <trkpt lat="43.32698" lon="5.76429">
        <ele>892.8</ele>
        <time>2025-10-05T12:28:11Z</time>
      </trkpt>
      <trkpt lat="43.32699" lon="5.76428">
        <ele>892.9</ele>
        <time>2025-10-05T12:28:12Z</time>
      </trkpt>
      <trkpt lat="43.327" lon="5.76428">
        <ele>892.9</ele>
        <time>2025-10-05T12:28:13Z</time>
      </trkpt>
      <trkpt lat="43.327" lon="5.76428">
        <ele>892.9</ele>
        <time>2025-10-05T12:28:14Z</time>
      </trkpt>
      <trkpt lat="43.327" lon="5.76427">
        <ele>892.9</ele>
        <time>2025-10-05T12:28:15Z</time>
      </trkpt>
      <trkpt lat="43.327" lon="5.76427">
        <ele>892.9</ele>
        <time>2025-10-05T12:28:16Z</time>
      </trkpt>
      <trkpt lat="43.327" lon="5.76427">
        <ele>893</ele>
        <time>2025-10-05T12:28:17Z</time>
      </trkpt>
      <trkpt lat="43.32701" lon="5.76427">
        <ele>892.9</ele>
        <time>2025-10-05T12:28:18Z</time>
      </trkpt>
      <trkpt lat="43.32701" lon="5.76427">
        <ele>892.9</ele>
        <time>2025-10-05T12:28:19Z</time>
      </trkpt>
      <trkpt lat="43.32701" lon="5.76427">
        <ele>892.8</ele>
        <time>2025-10-05T12:28:20Z</time>
      </trkpt>
      <trkpt lat="43.32701" lon="5.76427">
        <ele>892.8</ele>
        <time>2025-10-05T12:28:21Z</time>
      </trkpt>
      <trkpt lat="43.32702" lon="5.76427">
        <ele>892.8</ele>
        <time>2025-10-05T12:28:22Z</time>
      </trkpt>
      <trkpt lat="43.32702" lon="5.76427">
        <ele>892.7</ele>
        <time>2025-10-05T12:28:23Z</time>
      </trkpt>
      <trkpt lat="43.32701" lon="5.76427">
        <ele>892.6</ele>
        <time>2025-10-05T12:28:24Z</time>
      </trkpt>
      <trkpt lat="43.32702" lon="5.76427">
        <ele>892.5</ele>
        <time>2025-10-05T12:28:25Z</time>
      </trkpt>
      <trkpt lat="43.32702" lon="5.76427">
        <ele>892.5</ele>
        <time>2025-10-05T12:28:26Z</time>
      </trkpt>
      <trkpt lat="43.32701" lon="5.76428">
        <ele>892.4</ele>
        <time>2025-10-05T12:28:27Z</time>
      </trkpt>
      <trkpt lat="43.32702" lon="5.76428">
        <ele>892.4</ele>
        <time>2025-10-05T12:28:28Z</time>
      </trkpt>
      <trkpt lat="43.32702" lon="5.76428">
        <ele>892.4</ele>
        <time>2025-10-05T12:28:29Z</time>
      </trkpt>
      <trkpt lat="43.32702" lon="5.76428">
        <ele>892.2</ele>
        <time>2025-10-05T12:28:30Z</time>
      </trkpt>
      <trkpt lat="43.32702" lon="5.76428">
        <ele>892</ele>
        <time>2025-10-05T12:28:31Z</time>
      </trkpt>
      <trkpt lat="43.32703" lon="5.76428">
        <ele>891.9</ele>
        <time>2025-10-05T12:28:32Z</time>
      </trkpt>
      <trkpt lat="43.32703" lon="5.76428">
        <ele>891.8</ele>
        <time>2025-10-05T12:28:33Z</time>
      </trkpt>
      <trkpt lat="43.32703" lon="5.76428">
        <ele>891.8</ele>
        <time>2025-10-05T12:28:34Z</time>
      </trkpt>
      <trkpt lat="43.32704" lon="5.76428">
        <ele>891.8</ele>
        <time>2025-10-05T12:28:35Z</time>
      </trkpt>
      <trkpt lat="43.32704" lon="5.76428">
        <ele>891.7</ele>
        <time>2025-10-05T12:28:36Z</time>
      </trkpt>
      <trkpt lat="43.32704" lon="5.76428">
        <ele>891.7</ele>
        <time>2025-10-05T12:28:37Z</time>
      </trkpt>
      <trkpt lat="43.32704" lon="5.76428">
        <ele>891.7</ele>
        <time>2025-10-05T12:28:38Z</time>
      </trkpt>
      <trkpt lat="43.32704" lon="5.76427">
        <ele>891.7</ele>
        <time>2025-10-05T12:28:39Z</time>
      </trkpt>
      <trkpt lat="43.32704" lon="5.76427">
        <ele>891.7</ele>
        <time>2025-10-05T12:28:40Z</time>
      </trkpt>
      <trkpt lat="43.32705" lon="5.76427">
        <ele>891.7</ele>
        <time>2025-10-05T12:28:41Z</time>
      </trkpt>
      <trkpt lat="43.32705" lon="5.76427">
        <ele>891.7</ele>
        <time>2025-10-05T12:28:42Z</time>
      </trkpt>
      <trkpt lat="43.32705" lon="5.76427">
        <ele>891.7</ele>
        <time>2025-10-05T12:28:43Z</time>
      </trkpt>
      <trkpt lat="43.32705" lon="5.76427">
        <ele>891.8</ele>
        <time>2025-10-05T12:28:44Z</time>
      </trkpt>
      <trkpt lat="43.32705" lon="5.76426">
        <ele>891.8</ele>
        <time>2025-10-05T12:28:45Z</time>
      </trkpt>
      <trkpt lat="43.32705" lon="5.76426">
        <ele>891.8</ele>
        <time>2025-10-05T12:28:46Z</time>
      </trkpt>
      <trkpt lat="43.32706" lon="5.76426">
        <ele>891.7</ele>
        <time>2025-10-05T12:28:47Z</time>
      </trkpt>
      <trkpt lat="43.32706" lon="5.76426">
        <ele>891.5</ele>
        <time>2025-10-05T12:28:48Z</time>
      </trkpt>
      <trkpt lat="43.32706" lon="5.76426">
        <ele>891.2</ele>
        <time>2025-10-05T12:28:49Z</time>
      </trkpt>
      <trkpt lat="43.32705" lon="5.76426">
        <ele>891</ele>
        <time>2025-10-05T12:28:50Z</time>
      </trkpt>
      <trkpt lat="43.32705" lon="5.76426">
        <ele>890.8</ele>
        <time>2025-10-05T12:28:51Z</time>
      </trkpt>
      <trkpt lat="43.32706" lon="5.76426">
        <ele>890.7</ele>
        <time>2025-10-05T12:28:52Z</time>
      </trkpt>
      <trkpt lat="43.32705" lon="5.76426">
        <ele>890.7</ele>
        <time>2025-10-05T12:28:53Z</time>
      </trkpt>
      <trkpt lat="43.32705" lon="5.76426">
        <ele>890.6</ele>
        <time>2025-10-05T12:28:54Z</time>
      </trkpt>
      <trkpt lat="43.32705" lon="5.76427">
        <ele>890.5</ele>
        <time>2025-10-05T12:28:55Z</time>
      </trkpt>
      <trkpt lat="43.32704" lon="5.76427">
        <ele>890.5</ele>
        <time>2025-10-05T12:28:56Z</time>
      </trkpt>
      <trkpt lat="43.32704" lon="5.76427">
        <ele>890.4</ele>
        <time>2025-10-05T12:28:57Z</time>
      </trkpt>
      <trkpt lat="43.32704" lon="5.76427">
        <ele>890.5</ele>
        <time>2025-10-05T12:28:58Z</time>
      </trkpt>
      <trkpt lat="43.32705" lon="5.76427">
        <ele>890.5</ele>
        <time>2025-10-05T12:28:59Z</time>
      </trkpt>
      <trkpt lat="43.32703" lon="5.76428">
        <ele>890.6</ele>
        <time>2025-10-05T12:29:00Z</time>
      </trkpt>
      <trkpt lat="43.32704" lon="5.76428">
        <ele>890.6</ele>
        <time>2025-10-05T12:29:01Z</time>
      </trkpt>
      <trkpt lat="43.32703" lon="5.76428">
        <ele>890.7</ele>
        <time>2025-10-05T12:29:02Z</time>
      </trkpt>
      <trkpt lat="43.32703" lon="5.76428">
        <ele>890.8</ele>
        <time>2025-10-05T12:29:03Z</time>
      </trkpt>
      <trkpt lat="43.32701" lon="5.76428">
        <ele>890.9</ele>
        <time>2025-10-05T12:29:04Z</time>
      </trkpt>
      <trkpt lat="43.32701" lon="5.76429">
        <ele>891.1</ele>
        <time>2025-10-05T12:29:05Z</time>
      </trkpt>
      <trkpt lat="43.327" lon="5.76429">
        <ele>891.2</ele>
        <time>2025-10-05T12:29:06Z</time>
      </trkpt>
      <trkpt lat="43.32699" lon="5.76429">
        <ele>891.3</ele>
        <time>2025-10-05T12:29:07Z</time>
      </trkpt>
      <trkpt lat="43.32699" lon="5.76429">
        <ele>891.4</ele>
        <time>2025-10-05T12:29:08Z</time>
      </trkpt>
      <trkpt lat="43.32699" lon="5.76429">
        <ele>891.5</ele>
        <time>2025-10-05T12:29:09Z</time>
      </trkpt>
      <trkpt lat="43.32698" lon="5.76429">
        <ele>891.6</ele>
        <time>2025-10-05T12:29:10Z</time>
      </trkpt>
      <trkpt lat="43.32698" lon="5.76429">
        <ele>891.7</ele>
        <time>2025-10-05T12:29:11Z</time>
      </trkpt>
      <trkpt lat="43.32698" lon="5.76429">
        <ele>891.9</ele>
        <time>2025-10-05T12:29:12Z</time>
      </trkpt>
      <trkpt lat="43.32697" lon="5.76429">
        <ele>892</ele>
        <time>2025-10-05T12:29:13Z</time>
      </trkpt>
      <trkpt lat="43.32697" lon="5.76429">
        <ele>892.2</ele>
        <time>2025-10-05T12:29:14Z</time>
      </trkpt>
      <trkpt lat="43.32697" lon="5.76429">
        <ele>892.3</ele>
        <time>2025-10-05T12:29:15Z</time>
      </trkpt>
      <trkpt lat="43.32696" lon="5.76429">
        <ele>892.3</ele>
        <time>2025-10-05T12:29:16Z</time>
      </trkpt>
      <trkpt lat="43.32696" lon="5.76429">
        <ele>892.4</ele>
        <time>2025-10-05T12:29:17Z</time>
      </trkpt>
      <trkpt lat="43.32696" lon="5.76429">
        <ele>892.5</ele>
        <time>2025-10-05T12:29:18Z</time>
      </trkpt>
      <trkpt lat="43.32695" lon="5.76429">
        <ele>892.6</ele>
        <time>2025-10-05T12:29:19Z</time>
      </trkpt>
      <trkpt lat="43.32694" lon="5.76429">
        <ele>892.7</ele>
        <time>2025-10-05T12:29:20Z</time>
      </trkpt>
      <trkpt lat="43.32694" lon="5.76429">
        <ele>892.8</ele>
        <time>2025-10-05T12:29:21Z</time>
      </trkpt>
      <trkpt lat="43.32694" lon="5.76428">
        <ele>892.9</ele>
        <time>2025-10-05T12:29:22Z</time>
      </trkpt>
      <trkpt lat="43.32693" lon="5.76428">
        <ele>892.9</ele>
        <time>2025-10-05T12:29:23Z</time>
      </trkpt>
      <trkpt lat="43.32693" lon="5.76428">
        <ele>893</ele>
        <time>2025-10-05T12:29:24Z</time>
      </trkpt>
      <trkpt lat="43.32694" lon="5.76428">
        <ele>893</ele>
        <time>2025-10-05T12:29:25Z</time>
      </trkpt>
      <trkpt lat="43.32694" lon="5.76428">
        <ele>893</ele>
        <time>2025-10-05T12:29:26Z</time>
      </trkpt>
      <trkpt lat="43.32694" lon="5.76428">
        <ele>893</ele>
        <time>2025-10-05T12:29:27Z</time>
      </trkpt>
      <trkpt lat="43.32694" lon="5.76428">
        <ele>893</ele>
        <time>2025-10-05T12:29:28Z</time>
      </trkpt>
      <trkpt lat="43.32694" lon="5.76428">
        <ele>893</ele>
        <time>2025-10-05T12:29:29Z</time>
      </trkpt>
      <trkpt lat="43.32694" lon="5.76428">
        <ele>893</ele>
        <time>2025-10-05T12:29:30Z</time>
      </trkpt>
      <trkpt lat="43.32695" lon="5.76428">
        <ele>893</ele>
        <time>2025-10-05T12:29:31Z</time>
      </trkpt>
      <trkpt lat="43.32694" lon="5.76428">
        <ele>893</ele>
        <time>2025-10-05T12:29:32Z</time>
      </trkpt>
      <trkpt lat="43.32694" lon="5.76428">
        <ele>892.9</ele>
        <time>2025-10-05T12:29:33Z</time>
      </trkpt>
      <trkpt lat="43.32694" lon="5.76428">
        <ele>892.9</ele>
        <time>2025-10-05T12:29:34Z</time>
      </trkpt>
      <trkpt lat="43.32693" lon="5.76428">
        <ele>892.9</ele>
        <time>2025-10-05T12:29:35Z</time>
      </trkpt>
      <trkpt lat="43.32693" lon="5.76428">
        <ele>892.8</ele>
        <time>2025-10-05T12:29:36Z</time>
      </trkpt>
      <trkpt lat="43.32693" lon="5.76428">
        <ele>892.6</ele>
        <time>2025-10-05T12:29:37Z</time>
      </trkpt>
      <trkpt lat="43.32693" lon="5.76428">
        <ele>892.4</ele>
        <time>2025-10-05T12:29:38Z</time>
      </trkpt>
      <trkpt lat="43.32693" lon="5.76428">
        <ele>892.3</ele>
        <time>2025-10-05T12:29:39Z</time>
      </trkpt>
      <trkpt lat="43.32692" lon="5.76428">
        <ele>892.1</ele>
        <time>2025-10-05T12:29:40Z</time>
      </trkpt>
      <trkpt lat="43.32692" lon="5.76428">
        <ele>892</ele>
        <time>2025-10-05T12:29:41Z</time>
      </trkpt>
      <trkpt lat="43.32692" lon="5.76429">
        <ele>892</ele>
        <time>2025-10-05T12:29:42Z</time>
      </trkpt>
      <trkpt lat="43.32692" lon="5.76429">
        <ele>892</ele>
        <time>2025-10-05T12:29:43Z</time>
      </trkpt>
      <trkpt lat="43.32691" lon="5.76429">
        <ele>892</ele>
        <time>2025-10-05T12:29:44Z</time>
      </trkpt>
      <trkpt lat="43.32691" lon="5.76429">
        <ele>892.1</ele>
        <time>2025-10-05T12:29:45Z</time>
      </trkpt>
      <trkpt lat="43.32688" lon="5.7643">
        <ele>892.1</ele>
        <time>2025-10-05T12:29:46Z</time>
      </trkpt>
      <trkpt lat="43.32685" lon="5.76431">
        <ele>892</ele>
        <time>2025-10-05T12:29:47Z</time>
      </trkpt>
      <trkpt lat="43.32682" lon="5.76432">
        <ele>891.9</ele>
        <time>2025-10-05T12:29:48Z</time>
      </trkpt>
      <trkpt lat="43.3268" lon="5.76432">
        <ele>891.8</ele>
        <time>2025-10-05T12:29:49Z</time>
      </trkpt>
      <trkpt lat="43.3268" lon="5.76433">
        <ele>891.8</ele>
        <time>2025-10-05T12:29:50Z</time>
      </trkpt>
      <trkpt lat="43.32679" lon="5.76433">
        <ele>891.6</ele>
        <time>2025-10-05T12:29:51Z</time>
      </trkpt>
      <trkpt lat="43.32679" lon="5.76433">
        <ele>891.4</ele>
        <time>2025-10-05T12:29:52Z</time>
      </trkpt>
      <trkpt lat="43.32679" lon="5.76433">
        <ele>891.2</ele>
        <time>2025-10-05T12:29:53Z</time>
      </trkpt>
      <trkpt lat="43.3268" lon="5.76433">
        <ele>890.9</ele>
        <time>2025-10-05T12:29:54Z</time>
      </trkpt>
      <trkpt lat="43.3268" lon="5.76433">
        <ele>890.7</ele>
        <time>2025-10-05T12:29:55Z</time>
      </trkpt>
      <trkpt lat="43.3268" lon="5.76433">
        <ele>890.5</ele>
        <time>2025-10-05T12:29:56Z</time>
      </trkpt>
      <trkpt lat="43.3268" lon="5.76433">
        <ele>890.4</ele>
        <time>2025-10-05T12:29:57Z</time>
      </trkpt>
      <trkpt lat="43.3268" lon="5.76433">
        <ele>890.3</ele>
        <time>2025-10-05T12:29:58Z</time>
      </trkpt>
      <trkpt lat="43.3268" lon="5.76433">
        <ele>890.4</ele>
        <time>2025-10-05T12:29:59Z</time>
      </trkpt>
      <trkpt lat="43.3268" lon="5.76433">
        <ele>890.5</ele>
        <time>2025-10-05T12:30:00Z</time>
      </trkpt>
      <trkpt lat="43.3268" lon="5.76434">
        <ele>890.6</ele>
        <time>2025-10-05T12:30:01Z</time>
      </trkpt>
      <trkpt lat="43.3268" lon="5.76434">
        <ele>890.7</ele>
        <time>2025-10-05T12:30:02Z</time>
      </trkpt>
      <trkpt lat="43.3268" lon="5.76433">
        <ele>890.8</ele>
        <time>2025-10-05T12:30:03Z</time>
      </trkpt>
      <trkpt lat="43.3268" lon="5.76433">
        <ele>891</ele>
        <time>2025-10-05T12:30:04Z</time>
      </trkpt>
      <trkpt lat="43.3268" lon="5.76434">
        <ele>891</ele>
        <time>2025-10-05T12:30:05Z</time>
      </trkpt>
      <trkpt lat="43.32679" lon="5.76434">
        <ele>891.1</ele>
        <time>2025-10-05T12:30:06Z</time>
      </trkpt>
      <trkpt lat="43.32679" lon="5.76434">
        <ele>891.2</ele>
        <time>2025-10-05T12:30:07Z</time>
      </trkpt>
      <trkpt lat="43.3268" lon="5.76434">
        <ele>891.2</ele>
        <time>2025-10-05T12:30:08Z</time>
      </trkpt>
      <trkpt lat="43.3268" lon="5.76434">
        <ele>891.2</ele>
        <time>2025-10-05T12:30:09Z</time>
      </trkpt>
      <trkpt lat="43.3268" lon="5.76434">
        <ele>891.3</ele>
        <time>2025-10-05T12:30:10Z</time>
      </trkpt>
      <trkpt lat="43.3268" lon="5.76434">
        <ele>891.3</ele>
        <time>2025-10-05T12:30:11Z</time>
      </trkpt>
      <trkpt lat="43.3268" lon="5.76434">
        <ele>891.4</ele>
        <time>2025-10-05T12:30:12Z</time>
      </trkpt>
      <trkpt lat="43.3268" lon="5.76434">
        <ele>891.6</ele>
        <time>2025-10-05T12:30:13Z</time>
      </trkpt>
      <trkpt lat="43.32681" lon="5.76434">
        <ele>891.7</ele>
        <time>2025-10-05T12:30:14Z</time>
      </trkpt>
      <trkpt lat="43.32681" lon="5.76434">
        <ele>891.8</ele>
        <time>2025-10-05T12:30:15Z</time>
      </trkpt>
      <trkpt lat="43.32681" lon="5.76434">
        <ele>891.9</ele>
        <time>2025-10-05T12:30:16Z</time>
      </trkpt>
      <trkpt lat="43.32681" lon="5.76434">
        <ele>891.9</ele>
        <time>2025-10-05T12:30:17Z</time>
      </trkpt>
      <trkpt lat="43.32681" lon="5.76434">
        <ele>891.9</ele>
        <time>2025-10-05T12:30:18Z</time>
      </trkpt>
      <trkpt lat="43.32682" lon="5.76434">
        <ele>891.9</ele>
        <time>2025-10-05T12:30:19Z</time>
      </trkpt>
      <trkpt lat="43.32682" lon="5.76434">
        <ele>891.9</ele>
        <time>2025-10-05T12:30:20Z</time>
      </trkpt>
      <trkpt lat="43.32682" lon="5.76434">
        <ele>891.8</ele>
        <time>2025-10-05T12:30:21Z</time>
      </trkpt>
      <trkpt lat="43.32682" lon="5.76434">
        <ele>891.8</ele>
        <time>2025-10-05T12:30:22Z</time>
      </trkpt>
      <trkpt lat="43.32682" lon="5.76434">
        <ele>891.9</ele>
        <time>2025-10-05T12:30:23Z</time>
      </trkpt>
      <trkpt lat="43.32683" lon="5.76434">
        <ele>891.9</ele>
        <time>2025-10-05T12:30:24Z</time>
      </trkpt>
      <trkpt lat="43.32683" lon="5.76434">
        <ele>892</ele>
        <time>2025-10-05T12:30:25Z</time>
      </trkpt>
      <trkpt lat="43.32683" lon="5.76434">
        <ele>892.1</ele>
        <time>2025-10-05T12:30:26Z</time>
      </trkpt>
      <trkpt lat="43.32682" lon="5.76435">
        <ele>892.2</ele>
        <time>2025-10-05T12:30:27Z</time>
      </trkpt>
      <trkpt lat="43.32682" lon="5.76434">
        <ele>892.3</ele>
        <time>2025-10-05T12:30:28Z</time>
      </trkpt>
      <trkpt lat="43.32681" lon="5.76434">
        <ele>892.4</ele>
        <time>2025-10-05T12:30:29Z</time>
      </trkpt>
      <trkpt lat="43.3268" lon="5.76435">
        <ele>892.5</ele>
        <time>2025-10-05T12:30:30Z</time>
      </trkpt>
      <trkpt lat="43.3268" lon="5.76435">
        <ele>892.7</ele>
        <time>2025-10-05T12:30:31Z</time>
      </trkpt>
      <trkpt lat="43.32679" lon="5.76435">
        <ele>892.8</ele>
        <time>2025-10-05T12:30:32Z</time>
      </trkpt>
      <trkpt lat="43.32679" lon="5.76435">
        <ele>893</ele>
        <time>2025-10-05T12:30:33Z</time>
      </trkpt>
      <trkpt lat="43.3268" lon="5.76435">
        <ele>893.1</ele>
        <time>2025-10-05T12:30:34Z</time>
      </trkpt>
      <trkpt lat="43.3268" lon="5.76434">
        <ele>893.3</ele>
        <time>2025-10-05T12:30:35Z</time>
      </trkpt>
      <trkpt lat="43.3268" lon="5.76435">
        <ele>893.3</ele>
        <time>2025-10-05T12:30:36Z</time>
      </trkpt>
      <trkpt lat="43.32679" lon="5.76435">
        <ele>893.2</ele>
        <time>2025-10-05T12:30:37Z</time>
      </trkpt>
      <trkpt lat="43.32679" lon="5.76435">
        <ele>893.2</ele>
        <time>2025-10-05T12:30:38Z</time>
      </trkpt>
      <trkpt lat="43.3268" lon="5.76435">
        <ele>893.1</ele>
        <time>2025-10-05T12:30:39Z</time>
      </trkpt>
      <trkpt lat="43.32681" lon="5.76435">
        <ele>893.2</ele>
        <time>2025-10-05T12:30:40Z</time>
      </trkpt>
      <trkpt lat="43.32681" lon="5.76434">
        <ele>893.1</ele>
        <time>2025-10-05T12:30:41Z</time>
      </trkpt>
      <trkpt lat="43.32682" lon="5.76434">
        <ele>893.1</ele>
        <time>2025-10-05T12:30:42Z</time>
      </trkpt>
      <trkpt lat="43.32683" lon="5.76434">
        <ele>893.1</ele>
        <time>2025-10-05T12:30:43Z</time>
      </trkpt>
      <trkpt lat="43.32684" lon="5.76434">
        <ele>893.2</ele>
        <time>2025-10-05T12:30:44Z</time>
      </trkpt>
      <trkpt lat="43.32684" lon="5.76434">
        <ele>893.1</ele>
        <time>2025-10-05T12:30:45Z</time>
      </trkpt>
      <trkpt lat="43.32684" lon="5.76433">
        <ele>893.1</ele>
        <time>2025-10-05T12:30:46Z</time>
      </trkpt>
      <trkpt lat="43.32684" lon="5.76433">
        <ele>893.1</ele>
        <time>2025-10-05T12:30:47Z</time>
      </trkpt>
      <trkpt lat="43.32684" lon="5.76433">
        <ele>893</ele>
        <time>2025-10-05T12:30:48Z</time>
      </trkpt>
      <trkpt lat="43.32684" lon="5.76433">
        <ele>893.1</ele>
        <time>2025-10-05T12:30:49Z</time>
      </trkpt>
      <trkpt lat="43.32684" lon="5.76433">
        <ele>893.1</ele>
        <time>2025-10-05T12:30:50Z</time>
      </trkpt>
      <trkpt lat="43.32685" lon="5.76433">
        <ele>893.2</ele>
        <time>2025-10-05T12:30:51Z</time>
      </trkpt>
      <trkpt lat="43.32685" lon="5.76433">
        <ele>893.3</ele>
        <time>2025-10-05T12:30:52Z</time>
      </trkpt>
      <trkpt lat="43.32685" lon="5.76433">
        <ele>893.4</ele>
        <time>2025-10-05T12:30:53Z</time>
      </trkpt>
      <trkpt lat="43.32685" lon="5.76433">
        <ele>893.4</ele>
        <time>2025-10-05T12:30:54Z</time>
      </trkpt>
      <trkpt lat="43.32685" lon="5.76433">
        <ele>893.4</ele>
        <time>2025-10-05T12:30:55Z</time>
      </trkpt>
      <trkpt lat="43.32685" lon="5.76433">
        <ele>893.4</ele>
        <time>2025-10-05T12:30:56Z</time>
      </trkpt>
      <trkpt lat="43.32684" lon="5.76433">
        <ele>893.4</ele>
        <time>2025-10-05T12:30:57Z</time>
      </trkpt>
      <trkpt lat="43.32684" lon="5.76433">
        <ele>893.5</ele>
        <time>2025-10-05T12:30:58Z</time>
      </trkpt>
      <trkpt lat="43.32685" lon="5.76432">
        <ele>893.6</ele>
        <time>2025-10-05T12:30:59Z</time>
      </trkpt>
      <trkpt lat="43.32685" lon="5.76432">
        <ele>893.7</ele>
        <time>2025-10-05T12:31:00Z</time>
      </trkpt>
      <trkpt lat="43.32684" lon="5.76432">
        <ele>893.7</ele>
        <time>2025-10-05T12:31:01Z</time>
      </trkpt>
      <trkpt lat="43.32684" lon="5.76432">
        <ele>893.7</ele>
        <time>2025-10-05T12:31:02Z</time>
      </trkpt>
      <trkpt lat="43.32683" lon="5.76432">
        <ele>893.7</ele>
        <time>2025-10-05T12:31:03Z</time>
      </trkpt>
      <trkpt lat="43.32682" lon="5.76432">
        <ele>893.6</ele>
        <time>2025-10-05T12:31:04Z</time>
      </trkpt>
      <trkpt lat="43.32681" lon="5.76433">
        <ele>893.7</ele>
        <time>2025-10-05T12:31:05Z</time>
      </trkpt>
      <trkpt lat="43.32681" lon="5.76433">
        <ele>893.7</ele>
        <time>2025-10-05T12:31:06Z</time>
      </trkpt>
      <trkpt lat="43.32682" lon="5.76433">
        <ele>893.7</ele>
        <time>2025-10-05T12:31:07Z</time>
      </trkpt>
      <trkpt lat="43.32682" lon="5.76433">
        <ele>893.8</ele>
        <time>2025-10-05T12:31:08Z</time>
      </trkpt>
      <trkpt lat="43.32682" lon="5.76433">
        <ele>893.9</ele>
        <time>2025-10-05T12:31:09Z</time>
      </trkpt>
      <trkpt lat="43.32684" lon="5.76432">
        <ele>893.9</ele>
        <time>2025-10-05T12:31:10Z</time>
      </trkpt>
      <trkpt lat="43.32684" lon="5.76432">
        <ele>893.9</ele>
        <time>2025-10-05T12:31:11Z</time>
      </trkpt>
      <trkpt lat="43.32685" lon="5.76432">
        <ele>893.9</ele>
        <time>2025-10-05T12:31:12Z</time>
      </trkpt>
      <trkpt lat="43.32685" lon="5.76432">
        <ele>893.8</ele>
        <time>2025-10-05T12:31:13Z</time>
      </trkpt>
      <trkpt lat="43.32685" lon="5.76432">
        <ele>893.8</ele>
        <time>2025-10-05T12:31:14Z</time>
      </trkpt>
      <trkpt lat="43.32685" lon="5.76432">
        <ele>893.8</ele>
        <time>2025-10-05T12:31:15Z</time>
      </trkpt>
      <trkpt lat="43.32685" lon="5.76432">
        <ele>893.8</ele>
        <time>2025-10-05T12:31:16Z</time>
      </trkpt>
      <trkpt lat="43.32686" lon="5.76433">
        <ele>893.9</ele>
        <time>2025-10-05T12:31:17Z</time>
      </trkpt>
      <trkpt lat="43.32686" lon="5.76434">
        <ele>893.9</ele>
        <time>2025-10-05T12:31:18Z</time>
      </trkpt>
      <trkpt lat="43.32686" lon="5.76434">
        <ele>894</ele>
        <time>2025-10-05T12:31:19Z</time>
      </trkpt>
      <trkpt lat="43.32687" lon="5.76435">
        <ele>894</ele>
        <time>2025-10-05T12:31:20Z</time>
      </trkpt>
      <trkpt lat="43.32688" lon="5.76435">
        <ele>893.9</ele>
        <time>2025-10-05T12:31:21Z</time>
      </trkpt>
      <trkpt lat="43.32689" lon="5.76435">
        <ele>893.8</ele>
        <time>2025-10-05T12:31:22Z</time>
      </trkpt>
      <trkpt lat="43.32691" lon="5.76436">
        <ele>893.7</ele>
        <time>2025-10-05T12:31:23Z</time>
      </trkpt>
      <trkpt lat="43.32691" lon="5.76437">
        <ele>893.6</ele>
        <time>2025-10-05T12:31:24Z</time>
      </trkpt>
      <trkpt lat="43.32692" lon="5.76437">
        <ele>893.6</ele>
        <time>2025-10-05T12:31:25Z</time>
      </trkpt>
      <trkpt lat="43.32693" lon="5.76437">
        <ele>893.5</ele>
        <time>2025-10-05T12:31:26Z</time>
      </trkpt>
      <trkpt lat="43.32693" lon="5.76437">
        <ele>893.4</ele>
        <time>2025-10-05T12:31:27Z</time>
      </trkpt>
      <trkpt lat="43.32694" lon="5.76437">
        <ele>893.4</ele>
        <time>2025-10-05T12:31:28Z</time>
      </trkpt>
      <trkpt lat="43.32694" lon="5.76438">
        <ele>893.3</ele>
        <time>2025-10-05T12:31:29Z</time>
      </trkpt>
      <trkpt lat="43.32695" lon="5.76438">
        <ele>893.2</ele>
        <time>2025-10-05T12:31:30Z</time>
      </trkpt>
      <trkpt lat="43.32694" lon="5.76439">
        <ele>893.1</ele>
        <time>2025-10-05T12:31:31Z</time>
      </trkpt>
      <trkpt lat="43.32694" lon="5.76439">
        <ele>892.9</ele>
        <time>2025-10-05T12:31:32Z</time>
      </trkpt>
      <trkpt lat="43.32694" lon="5.7644">
        <ele>892.7</ele>
        <time>2025-10-05T12:31:33Z</time>
      </trkpt>
      <trkpt lat="43.32694" lon="5.76441">
        <ele>892.5</ele>
        <time>2025-10-05T12:31:34Z</time>
      </trkpt>
      <trkpt lat="43.32694" lon="5.76441">
        <ele>892.3</ele>
        <time>2025-10-05T12:31:35Z</time>
      </trkpt>
      <trkpt lat="43.32693" lon="5.7644">
        <ele>892.1</ele>
        <time>2025-10-05T12:31:36Z</time>
      </trkpt>
      <trkpt lat="43.32693" lon="5.7644">
        <ele>892.1</ele>
        <time>2025-10-05T12:31:37Z</time>
      </trkpt>
      <trkpt lat="43.32693" lon="5.76441">
        <ele>892</ele>
        <time>2025-10-05T12:31:38Z</time>
      </trkpt>
      <trkpt lat="43.32692" lon="5.76442">
        <ele>891.9</ele>
        <time>2025-10-05T12:31:39Z</time>
      </trkpt>
      <trkpt lat="43.32694" lon="5.76444">
        <ele>891.6</ele>
        <time>2025-10-05T12:31:40Z</time>
      </trkpt>
      <trkpt lat="43.32694" lon="5.76445">
        <ele>891.4</ele>
        <time>2025-10-05T12:31:41Z</time>
      </trkpt>
      <trkpt lat="43.32693" lon="5.76446">
        <ele>891.3</ele>
        <time>2025-10-05T12:31:42Z</time>
      </trkpt>
      <trkpt lat="43.32694" lon="5.76446">
        <ele>891.2</ele>
        <time>2025-10-05T12:31:43Z</time>
      </trkpt>
      <trkpt lat="43.32693" lon="5.76446">
        <ele>891</ele>
        <time>2025-10-05T12:31:44Z</time>
      </trkpt>
      <trkpt lat="43.32693" lon="5.76446">
        <ele>891</ele>
        <time>2025-10-05T12:31:45Z</time>
      </trkpt>
      <trkpt lat="43.32694" lon="5.76446">
        <ele>890.9</ele>
        <time>2025-10-05T12:31:46Z</time>
      </trkpt>
      <trkpt lat="43.32694" lon="5.76447">
        <ele>890.9</ele>
        <time>2025-10-05T12:31:47Z</time>
      </trkpt>
      <trkpt lat="43.32694" lon="5.76447">
        <ele>890.8</ele>
        <time>2025-10-05T12:31:48Z</time>
      </trkpt>
      <trkpt lat="43.32695" lon="5.76447">
        <ele>890.8</ele>
        <time>2025-10-05T12:31:49Z</time>
      </trkpt>
      <trkpt lat="43.32695" lon="5.76448">
        <ele>890.7</ele>
        <time>2025-10-05T12:31:50Z</time>
      </trkpt>
      <trkpt lat="43.32695" lon="5.76448">
        <ele>890.6</ele>
        <time>2025-10-05T12:31:51Z</time>
      </trkpt>
      <trkpt lat="43.32693" lon="5.76446">
        <ele>890.4</ele>
        <time>2025-10-05T12:31:52Z</time>
      </trkpt>
      <trkpt lat="43.32691" lon="5.7644">
        <ele>890.2</ele>
        <time>2025-10-05T12:31:53Z</time>
      </trkpt>
      <trkpt lat="43.32691" lon="5.76439">
        <ele>890.1</ele>
        <time>2025-10-05T12:31:54Z</time>
      </trkpt>
      <trkpt lat="43.32691" lon="5.76438">
        <ele>889.9</ele>
        <time>2025-10-05T12:31:55Z</time>
      </trkpt>
      <trkpt lat="43.32692" lon="5.76437">
        <ele>889.4</ele>
        <time>2025-10-05T12:31:56Z</time>
      </trkpt>
      <trkpt lat="43.32692" lon="5.76437">
        <ele>889.2</ele>
        <time>2025-10-05T12:31:57Z</time>
      </trkpt>
      <trkpt lat="43.32693" lon="5.76436">
        <ele>889</ele>
        <time>2025-10-05T12:31:58Z</time>
      </trkpt>
      <trkpt lat="43.32692" lon="5.76436">
        <ele>888.5</ele>
        <time>2025-10-05T12:31:59Z</time>
      </trkpt>
      <trkpt lat="43.32694" lon="5.76434">
        <ele>888.1</ele>
        <time>2025-10-05T12:32:00Z</time>
      </trkpt>
      <trkpt lat="43.32694" lon="5.76433">
        <ele>887.8</ele>
        <time>2025-10-05T12:32:01Z</time>
      </trkpt>
      <trkpt lat="43.3269" lon="5.76428">
        <ele>887.6</ele>
        <time>2025-10-05T12:32:02Z</time>
      </trkpt>
      <trkpt lat="43.32688" lon="5.76426">
        <ele>887.4</ele>
        <time>2025-10-05T12:32:03Z</time>
      </trkpt>
      <trkpt lat="43.32689" lon="5.76425">
        <ele>887.2</ele>
        <time>2025-10-05T12:32:04Z</time>
      </trkpt>
      <trkpt lat="43.32689" lon="5.76425">
        <ele>887</ele>
        <time>2025-10-05T12:32:05Z</time>
      </trkpt>
      <trkpt lat="43.3269" lon="5.76425">
        <ele>886.9</ele>
        <time>2025-10-05T12:32:06Z</time>
      </trkpt>
      <trkpt lat="43.32691" lon="5.76427">
        <ele>886.7</ele>
        <time>2025-10-05T12:32:07Z</time>
      </trkpt>
      <trkpt lat="43.32692" lon="5.76427">
        <ele>886.5</ele>
        <time>2025-10-05T12:32:08Z</time>
      </trkpt>
      <trkpt lat="43.32693" lon="5.76427">
        <ele>886.3</ele>
        <time>2025-10-05T12:32:09Z</time>
      </trkpt>
      <trkpt lat="43.32694" lon="5.76427">
        <ele>886.2</ele>
        <time>2025-10-05T12:32:10Z</time>
      </trkpt>
      <trkpt lat="43.32693" lon="5.76427">
        <ele>885.9</ele>
        <time>2025-10-05T12:32:11Z</time>
      </trkpt>
      <trkpt lat="43.32695" lon="5.76426">
        <ele>885.7</ele>
        <time>2025-10-05T12:32:12Z</time>
      </trkpt>
      <trkpt lat="43.32695" lon="5.76426">
        <ele>885.4</ele>
        <time>2025-10-05T12:32:13Z</time>
      </trkpt>
      <trkpt lat="43.32695" lon="5.76426">
        <ele>885.1</ele>
        <time>2025-10-05T12:32:14Z</time>
      </trkpt>
      <trkpt lat="43.32695" lon="5.76427">
        <ele>884.9</ele>
        <time>2025-10-05T12:32:15Z</time>
      </trkpt>
      <trkpt lat="43.32695" lon="5.76428">
        <ele>884.7</ele>
        <time>2025-10-05T12:32:16Z</time>
      </trkpt>
      <trkpt lat="43.32695" lon="5.76429">
        <ele>884.5</ele>
        <time>2025-10-05T12:32:17Z</time>
      </trkpt>
      <trkpt lat="43.32695" lon="5.7643">
        <ele>884.5</ele>
        <time>2025-10-05T12:32:18Z</time>
      </trkpt>
      <trkpt lat="43.32696" lon="5.76431">
        <ele>884.4</ele>
        <time>2025-10-05T12:32:19Z</time>
      </trkpt>
      <trkpt lat="43.32695" lon="5.76432">
        <ele>884.5</ele>
        <time>2025-10-05T12:32:20Z</time>
      </trkpt>
      <trkpt lat="43.32695" lon="5.76433">
        <ele>884.4</ele>
        <time>2025-10-05T12:32:21Z</time>
      </trkpt>
      <trkpt lat="43.32695" lon="5.76433">
        <ele>884.3</ele>
        <time>2025-10-05T12:32:22Z</time>
      </trkpt>
      <trkpt lat="43.32696" lon="5.76433">
        <ele>884.2</ele>
        <time>2025-10-05T12:32:23Z</time>
      </trkpt>
      <trkpt lat="43.32696" lon="5.76433">
        <ele>884.2</ele>
        <time>2025-10-05T12:32:24Z</time>
      </trkpt>
      <trkpt lat="43.32696" lon="5.76434">
        <ele>884.2</ele>
        <time>2025-10-05T12:32:25Z</time>
      </trkpt>
      <trkpt lat="43.32696" lon="5.76434">
        <ele>884.2</ele>
        <time>2025-10-05T12:32:26Z</time>
      </trkpt>
      <trkpt lat="43.32696" lon="5.76436">
        <ele>884.1</ele>
        <time>2025-10-05T12:32:27Z</time>
      </trkpt>
      <trkpt lat="43.32696" lon="5.76437">
        <ele>883.9</ele>
        <time>2025-10-05T12:32:28Z</time>
      </trkpt>
      <trkpt lat="43.32695" lon="5.76439">
        <ele>883.7</ele>
        <time>2025-10-05T12:32:29Z</time>
      </trkpt>
      <trkpt lat="43.32695" lon="5.7644">
        <ele>883.6</ele>
        <time>2025-10-05T12:32:30Z</time>
      </trkpt>
      <trkpt lat="43.32696" lon="5.76442">
        <ele>883.2</ele>
        <time>2025-10-05T12:32:31Z</time>
      </trkpt>
      <trkpt lat="43.32695" lon="5.76445">
        <ele>882.9</ele>
        <time>2025-10-05T12:32:32Z</time>
      </trkpt>
      <trkpt lat="43.32695" lon="5.76446">
        <ele>882.7</ele>
        <time>2025-10-05T12:32:33Z</time>
      </trkpt>
      <trkpt lat="43.32696" lon="5.76447">
        <ele>882.4</ele>
        <time>2025-10-05T12:32:34Z</time>
      </trkpt>
      <trkpt lat="43.32697" lon="5.76448">
        <ele>882.2</ele>
        <time>2025-10-05T12:32:35Z</time>
      </trkpt>
      <trkpt lat="43.32697" lon="5.76449">
        <ele>881.9</ele>
        <time>2025-10-05T12:32:36Z</time>
      </trkpt>
      <trkpt lat="43.32697" lon="5.76449">
        <ele>881.7</ele>
        <time>2025-10-05T12:32:37Z</time>
      </trkpt>
      <trkpt lat="43.32697" lon="5.76448">
        <ele>881.7</ele>
        <time>2025-10-05T12:32:38Z</time>
      </trkpt>
      <trkpt lat="43.32698" lon="5.76449">
        <ele>881.6</ele>
        <time>2025-10-05T12:32:39Z</time>
      </trkpt>
      <trkpt lat="43.32698" lon="5.76449">
        <ele>881.5</ele>
        <time>2025-10-05T12:32:40Z</time>
      </trkpt>
      <trkpt lat="43.32699" lon="5.7645">
        <ele>881.4</ele>
        <time>2025-10-05T12:32:41Z</time>
      </trkpt>
      <trkpt lat="43.32698" lon="5.7645">
        <ele>881.3</ele>
        <time>2025-10-05T12:32:42Z</time>
      </trkpt>
      <trkpt lat="43.32698" lon="5.76452">
        <ele>881.2</ele>
        <time>2025-10-05T12:32:43Z</time>
      </trkpt>
      <trkpt lat="43.327" lon="5.76453">
        <ele>881.1</ele>
        <time>2025-10-05T12:32:44Z</time>
      </trkpt>
      <trkpt lat="43.32701" lon="5.76454">
        <ele>881</ele>
        <time>2025-10-05T12:32:45Z</time>
      </trkpt>
      <trkpt lat="43.32701" lon="5.76455">
        <ele>880.8</ele>
        <time>2025-10-05T12:32:46Z</time>
      </trkpt>
      <trkpt lat="43.32702" lon="5.76456">
        <ele>880.7</ele>
        <time>2025-10-05T12:32:47Z</time>
      </trkpt>
      <trkpt lat="43.32702" lon="5.76457">
        <ele>880.5</ele>
        <time>2025-10-05T12:32:48Z</time>
      </trkpt>
      <trkpt lat="43.32703" lon="5.76457">
        <ele>880.4</ele>
        <time>2025-10-05T12:32:49Z</time>
      </trkpt>
      <trkpt lat="43.32702" lon="5.76457">
        <ele>880.3</ele>
        <time>2025-10-05T12:32:50Z</time>
      </trkpt>
      <trkpt lat="43.32703" lon="5.76459">
        <ele>880.2</ele>
        <time>2025-10-05T12:32:51Z</time>
      </trkpt>
      <trkpt lat="43.32703" lon="5.76459">
        <ele>880</ele>
        <time>2025-10-05T12:32:52Z</time>
      </trkpt>
      <trkpt lat="43.32703" lon="5.76456">
        <ele>879.8</ele>
        <time>2025-10-05T12:32:53Z</time>
      </trkpt>
      <trkpt lat="43.32703" lon="5.76457">
        <ele>879.6</ele>
        <time>2025-10-05T12:32:54Z</time>
      </trkpt>
      <trkpt lat="43.32704" lon="5.76458">
        <ele>879.4</ele>
        <time>2025-10-05T12:32:55Z</time>
      </trkpt>
      <trkpt lat="43.32706" lon="5.76458">
        <ele>879.2</ele>
        <time>2025-10-05T12:32:56Z</time>
      </trkpt>
      <trkpt lat="43.32706" lon="5.76458">
        <ele>879.1</ele>
        <time>2025-10-05T12:32:57Z</time>
      </trkpt>
      <trkpt lat="43.32707" lon="5.76457">
        <ele>878.9</ele>
        <time>2025-10-05T12:32:58Z</time>
      </trkpt>
      <trkpt lat="43.32706" lon="5.76457">
        <ele>878.7</ele>
        <time>2025-10-05T12:32:59Z</time>
      </trkpt>
      <trkpt lat="43.32707" lon="5.76457">
        <ele>878.6</ele>
        <time>2025-10-05T12:33:00Z</time>
      </trkpt>
      <trkpt lat="43.32707" lon="5.76454">
        <ele>878.4</ele>
        <time>2025-10-05T12:33:01Z</time>
      </trkpt>
      <trkpt lat="43.32707" lon="5.76453">
        <ele>878.2</ele>
        <time>2025-10-05T12:33:02Z</time>
      </trkpt>
      <trkpt lat="43.32706" lon="5.76452">
        <ele>878.1</ele>
        <time>2025-10-05T12:33:03Z</time>
      </trkpt>
      <trkpt lat="43.32706" lon="5.76451">
        <ele>877.8</ele>
        <time>2025-10-05T12:33:04Z</time>
      </trkpt>
      <trkpt lat="43.32707" lon="5.7645">
        <ele>877.6</ele>
        <time>2025-10-05T12:33:05Z</time>
      </trkpt>
      <trkpt lat="43.32707" lon="5.76448">
        <ele>877.5</ele>
        <time>2025-10-05T12:33:06Z</time>
      </trkpt>
      <trkpt lat="43.32707" lon="5.76447">
        <ele>877.2</ele>
        <time>2025-10-05T12:33:07Z</time>
      </trkpt>
      <trkpt lat="43.32706" lon="5.76447">
        <ele>877</ele>
        <time>2025-10-05T12:33:08Z</time>
      </trkpt>
      <trkpt lat="43.32705" lon="5.76447">
        <ele>876.8</ele>
        <time>2025-10-05T12:33:09Z</time>
      </trkpt>
      <trkpt lat="43.32703" lon="5.76447">
        <ele>876.6</ele>
        <time>2025-10-05T12:33:10Z</time>
      </trkpt>
      <trkpt lat="43.32703" lon="5.76447">
        <ele>876.5</ele>
        <time>2025-10-05T12:33:11Z</time>
      </trkpt>
      <trkpt lat="43.32703" lon="5.76445">
        <ele>876.3</ele>
        <time>2025-10-05T12:33:12Z</time>
      </trkpt>
      <trkpt lat="43.32703" lon="5.76445">
        <ele>876.2</ele>
        <time>2025-10-05T12:33:13Z</time>
      </trkpt>
      <trkpt lat="43.32704" lon="5.76445">
        <ele>876.1</ele>
        <time>2025-10-05T12:33:14Z</time>
      </trkpt>
      <trkpt lat="43.32703" lon="5.76446">
        <ele>875.8</ele>
        <time>2025-10-05T12:33:15Z</time>
      </trkpt>
      <trkpt lat="43.32704" lon="5.76446">
        <ele>875.6</ele>
        <time>2025-10-05T12:33:16Z</time>
      </trkpt>
      <trkpt lat="43.32705" lon="5.76446">
        <ele>875.3</ele>
        <time>2025-10-05T12:33:17Z</time>
      </trkpt>
      <trkpt lat="43.32706" lon="5.76444">
        <ele>875.2</ele>
        <time>2025-10-05T12:33:18Z</time>
      </trkpt>
      <trkpt lat="43.32707" lon="5.76444">
        <ele>874.9</ele>
        <time>2025-10-05T12:33:19Z</time>
      </trkpt>
      <trkpt lat="43.32708" lon="5.76443">
        <ele>874.7</ele>
        <time>2025-10-05T12:33:20Z</time>
      </trkpt>
      <trkpt lat="43.32709" lon="5.76443">
        <ele>874.4</ele>
        <time>2025-10-05T12:33:21Z</time>
      </trkpt>
      <trkpt lat="43.3271" lon="5.76442">
        <ele>874</ele>
        <time>2025-10-05T12:33:22Z</time>
      </trkpt>
      <trkpt lat="43.32711" lon="5.76443">
        <ele>873.7</ele>
        <time>2025-10-05T12:33:23Z</time>
      </trkpt>
      <trkpt lat="43.32712" lon="5.76443">
        <ele>873.4</ele>
        <time>2025-10-05T12:33:24Z</time>
      </trkpt>
      <trkpt lat="43.32712" lon="5.76442">
        <ele>873.2</ele>
        <time>2025-10-05T12:33:25Z</time>
      </trkpt>
      <trkpt lat="43.32713" lon="5.76443">
        <ele>873</ele>
        <time>2025-10-05T12:33:26Z</time>
      </trkpt>
      <trkpt lat="43.32713" lon="5.76444">
        <ele>872.8</ele>
        <time>2025-10-05T12:33:27Z</time>
      </trkpt>
      <trkpt lat="43.32714" lon="5.76444">
        <ele>872.7</ele>
        <time>2025-10-05T12:33:28Z</time>
      </trkpt>
      <trkpt lat="43.32715" lon="5.76444">
        <ele>872.4</ele>
        <time>2025-10-05T12:33:29Z</time>
      </trkpt>
      <trkpt lat="43.32715" lon="5.76443">
        <ele>872.2</ele>
        <time>2025-10-05T12:33:30Z</time>
      </trkpt>
      <trkpt lat="43.32715" lon="5.76444">
        <ele>872</ele>
        <time>2025-10-05T12:33:31Z</time>
      </trkpt>
      <trkpt lat="43.32717" lon="5.76444">
        <ele>871.8</ele>
        <time>2025-10-05T12:33:32Z</time>
      </trkpt>
      <trkpt lat="43.32718" lon="5.76444">
        <ele>871.6</ele>
        <time>2025-10-05T12:33:33Z</time>
      </trkpt>
      <trkpt lat="43.32719" lon="5.76445">
        <ele>871.5</ele>
        <time>2025-10-05T12:33:34Z</time>
      </trkpt>
      <trkpt lat="43.32719" lon="5.76445">
        <ele>871.1</ele>
        <time>2025-10-05T12:33:35Z</time>
      </trkpt>
      <trkpt lat="43.32721" lon="5.76446">
        <ele>870.8</ele>
        <time>2025-10-05T12:33:36Z</time>
      </trkpt>
      <trkpt lat="43.32722" lon="5.76446">
        <ele>870.6</ele>
        <time>2025-10-05T12:33:37Z</time>
      </trkpt>
      <trkpt lat="43.32721" lon="5.76447">
        <ele>870.5</ele>
        <time>2025-10-05T12:33:38Z</time>
      </trkpt>
      <trkpt lat="43.32722" lon="5.7645">
        <ele>870.4</ele>
        <time>2025-10-05T12:33:39Z</time>
      </trkpt>
      <trkpt lat="43.32721" lon="5.76451">
        <ele>870.2</ele>
        <time>2025-10-05T12:33:40Z</time>
      </trkpt>
      <trkpt lat="43.32723" lon="5.76451">
        <ele>869.9</ele>
        <time>2025-10-05T12:33:41Z</time>
      </trkpt>
      <trkpt lat="43.32725" lon="5.7645">
        <ele>869.6</ele>
        <time>2025-10-05T12:33:42Z</time>
      </trkpt>
      <trkpt lat="43.32727" lon="5.76451">
        <ele>869.3</ele>
        <time>2025-10-05T12:33:43Z</time>
      </trkpt>
      <trkpt lat="43.32729" lon="5.76452">
        <ele>868.9</ele>
        <time>2025-10-05T12:33:44Z</time>
      </trkpt>
      <trkpt lat="43.3273" lon="5.76452">
        <ele>868.6</ele>
        <time>2025-10-05T12:33:45Z</time>
      </trkpt>
      <trkpt lat="43.32731" lon="5.76452">
        <ele>868.4</ele>
        <time>2025-10-05T12:33:46Z</time>
      </trkpt>
      <trkpt lat="43.32733" lon="5.76452">
        <ele>868.2</ele>
        <time>2025-10-05T12:33:47Z</time>
      </trkpt>
      <trkpt lat="43.32735" lon="5.76452">
        <ele>867.9</ele>
        <time>2025-10-05T12:33:48Z</time>
      </trkpt>
      <trkpt lat="43.32736" lon="5.76452">
        <ele>867.7</ele>
        <time>2025-10-05T12:33:49Z</time>
      </trkpt>
      <trkpt lat="43.32738" lon="5.76453">
        <ele>867.6</ele>
        <time>2025-10-05T12:33:50Z</time>
      </trkpt>
      <trkpt lat="43.32739" lon="5.76453">
        <ele>867.5</ele>
        <time>2025-10-05T12:33:51Z</time>
      </trkpt>
      <trkpt lat="43.32741" lon="5.76453">
        <ele>867.4</ele>
        <time>2025-10-05T12:33:52Z</time>
      </trkpt>
      <trkpt lat="43.32741" lon="5.76453">
        <ele>867.3</ele>
        <time>2025-10-05T12:33:53Z</time>
      </trkpt>
      <trkpt lat="43.32743" lon="5.76453">
        <ele>867.2</ele>
        <time>2025-10-05T12:33:54Z</time>
      </trkpt>
      <trkpt lat="43.32744" lon="5.76454">
        <ele>867.1</ele>
        <time>2025-10-05T12:33:55Z</time>
      </trkpt>
      <trkpt lat="43.32744" lon="5.76453">
        <ele>867</ele>
        <time>2025-10-05T12:33:56Z</time>
      </trkpt>
      <trkpt lat="43.32745" lon="5.76454">
        <ele>866.9</ele>
        <time>2025-10-05T12:33:57Z</time>
      </trkpt>
      <trkpt lat="43.32744" lon="5.76453">
        <ele>866.9</ele>
        <time>2025-10-05T12:33:58Z</time>
      </trkpt>
      <trkpt lat="43.32745" lon="5.76454">
        <ele>866.8</ele>
        <time>2025-10-05T12:33:59Z</time>
      </trkpt>
      <trkpt lat="43.32745" lon="5.76454">
        <ele>866.6</ele>
        <time>2025-10-05T12:34:00Z</time>
      </trkpt>
      <trkpt lat="43.32746" lon="5.76454">
        <ele>866.4</ele>
        <time>2025-10-05T12:34:01Z</time>
      </trkpt>
      <trkpt lat="43.32746" lon="5.76455">
        <ele>866.3</ele>
        <time>2025-10-05T12:34:02Z</time>
      </trkpt>
      <trkpt lat="43.32747" lon="5.76454">
        <ele>866.2</ele>
        <time>2025-10-05T12:34:03Z</time>
      </trkpt>
      <trkpt lat="43.32747" lon="5.76454">
        <ele>866</ele>
        <time>2025-10-05T12:34:04Z</time>
      </trkpt>
      <trkpt lat="43.32747" lon="5.76455">
        <ele>865.9</ele>
        <time>2025-10-05T12:34:05Z</time>
      </trkpt>
      <trkpt lat="43.32747" lon="5.76455">
        <ele>865.8</ele>
        <time>2025-10-05T12:34:06Z</time>
      </trkpt>
      <trkpt lat="43.32748" lon="5.76455">
        <ele>865.7</ele>
        <time>2025-10-05T12:34:07Z</time>
      </trkpt>
      <trkpt lat="43.32747" lon="5.76456">
        <ele>865.4</ele>
        <time>2025-10-05T12:34:08Z</time>
      </trkpt>
      <trkpt lat="43.32747" lon="5.76455">
        <ele>865.3</ele>
        <time>2025-10-05T12:34:09Z</time>
      </trkpt>
      <trkpt lat="43.32747" lon="5.76455">
        <ele>865.3</ele>
        <time>2025-10-05T12:34:10Z</time>
      </trkpt>
      <trkpt lat="43.32746" lon="5.76455">
        <ele>865.1</ele>
        <time>2025-10-05T12:34:11Z</time>
      </trkpt>
      <trkpt lat="43.32746" lon="5.76454">
        <ele>864.9</ele>
        <time>2025-10-05T12:34:12Z</time>
      </trkpt>
      <trkpt lat="43.32745" lon="5.76453">
        <ele>864.6</ele>
        <time>2025-10-05T12:34:13Z</time>
      </trkpt>
      <trkpt lat="43.32745" lon="5.76453">
        <ele>864.3</ele>
        <time>2025-10-05T12:34:14Z</time>
      </trkpt>
      <trkpt lat="43.32744" lon="5.76452">
        <ele>864</ele>
        <time>2025-10-05T12:34:15Z</time>
      </trkpt>
      <trkpt lat="43.32744" lon="5.76451">
        <ele>863.8</ele>
        <time>2025-10-05T12:34:16Z</time>
      </trkpt>
      <trkpt lat="43.32743" lon="5.76451">
        <ele>863.6</ele>
        <time>2025-10-05T12:34:17Z</time>
      </trkpt>
      <trkpt lat="43.32742" lon="5.7645">
        <ele>863.5</ele>
        <time>2025-10-05T12:34:18Z</time>
      </trkpt>
      <trkpt lat="43.32741" lon="5.76449">
        <ele>863.3</ele>
        <time>2025-10-05T12:34:19Z</time>
      </trkpt>
      <trkpt lat="43.32739" lon="5.76448">
        <ele>863.1</ele>
        <time>2025-10-05T12:34:20Z</time>
      </trkpt>
      <trkpt lat="43.32739" lon="5.76448">
        <ele>862.8</ele>
        <time>2025-10-05T12:34:21Z</time>
      </trkpt>
      <trkpt lat="43.32739" lon="5.76447">
        <ele>862.5</ele>
        <time>2025-10-05T12:34:22Z</time>
      </trkpt>
      <trkpt lat="43.32739" lon="5.76446">
        <ele>862.3</ele>
        <time>2025-10-05T12:34:23Z</time>
      </trkpt>
      <trkpt lat="43.32738" lon="5.76445">
        <ele>862.1</ele>
        <time>2025-10-05T12:34:24Z</time>
      </trkpt>
      <trkpt lat="43.32738" lon="5.76444">
        <ele>861.9</ele>
        <time>2025-10-05T12:34:25Z</time>
      </trkpt>
      <trkpt lat="43.32738" lon="5.76443">
        <ele>861.8</ele>
        <time>2025-10-05T12:34:26Z</time>
      </trkpt>
      <trkpt lat="43.32738" lon="5.76443">
        <ele>861.6</ele>
        <time>2025-10-05T12:34:27Z</time>
      </trkpt>
      <trkpt lat="43.32738" lon="5.76443">
        <ele>861.4</ele>
        <time>2025-10-05T12:34:28Z</time>
      </trkpt>
      <trkpt lat="43.32738" lon="5.76442">
        <ele>861.2</ele>
        <time>2025-10-05T12:34:29Z</time>
      </trkpt>
      <trkpt lat="43.32737" lon="5.76442">
        <ele>861.1</ele>
        <time>2025-10-05T12:34:30Z</time>
      </trkpt>
      <trkpt lat="43.32737" lon="5.76441">
        <ele>860.9</ele>
        <time>2025-10-05T12:34:31Z</time>
      </trkpt>
      <trkpt lat="43.32737" lon="5.7644">
        <ele>860.7</ele>
        <time>2025-10-05T12:34:32Z</time>
      </trkpt>
      <trkpt lat="43.32736" lon="5.76439">
        <ele>860.5</ele>
        <time>2025-10-05T12:34:33Z</time>
      </trkpt>
      <trkpt lat="43.32736" lon="5.76438">
        <ele>860.4</ele>
        <time>2025-10-05T12:34:34Z</time>
      </trkpt>
      <trkpt lat="43.32735" lon="5.76437">
        <ele>860.1</ele>
        <time>2025-10-05T12:34:35Z</time>
      </trkpt>
      <trkpt lat="43.32735" lon="5.76436">
        <ele>860</ele>
        <time>2025-10-05T12:34:36Z</time>
      </trkpt>
      <trkpt lat="43.32734" lon="5.76436">
        <ele>859.9</ele>
        <time>2025-10-05T12:34:37Z</time>
      </trkpt>
      <trkpt lat="43.32734" lon="5.76435">
        <ele>859.8</ele>
        <time>2025-10-05T12:34:38Z</time>
      </trkpt>
      <trkpt lat="43.32734" lon="5.76435">
        <ele>859.7</ele>
        <time>2025-10-05T12:34:39Z</time>
      </trkpt>
      <trkpt lat="43.32732" lon="5.76434">
        <ele>859.7</ele>
        <time>2025-10-05T12:34:40Z</time>
      </trkpt>
      <trkpt lat="43.32732" lon="5.76433">
        <ele>859.6</ele>
        <time>2025-10-05T12:34:41Z</time>
      </trkpt>
      <trkpt lat="43.32732" lon="5.76431">
        <ele>859.6</ele>
        <time>2025-10-05T12:34:42Z</time>
      </trkpt>
      <trkpt lat="43.32731" lon="5.7643">
        <ele>859.6</ele>
        <time>2025-10-05T12:34:43Z</time>
      </trkpt>
      <trkpt lat="43.32731" lon="5.7643">
        <ele>859.5</ele>
        <time>2025-10-05T12:34:44Z</time>
      </trkpt>
      <trkpt lat="43.32729" lon="5.76429">
        <ele>859.4</ele>
        <time>2025-10-05T12:34:45Z</time>
      </trkpt>
      <trkpt lat="43.3273" lon="5.76428">
        <ele>859.3</ele>
        <time>2025-10-05T12:34:46Z</time>
      </trkpt>
      <trkpt lat="43.3273" lon="5.76427">
        <ele>859.2</ele>
        <time>2025-10-05T12:34:47Z</time>
      </trkpt>
      <trkpt lat="43.3273" lon="5.76426">
        <ele>859</ele>
        <time>2025-10-05T12:34:48Z</time>
      </trkpt>
      <trkpt lat="43.3273" lon="5.76425">
        <ele>858.9</ele>
        <time>2025-10-05T12:34:49Z</time>
      </trkpt>
      <trkpt lat="43.3273" lon="5.76424">
        <ele>858.8</ele>
        <time>2025-10-05T12:34:50Z</time>
      </trkpt>
      <trkpt lat="43.3273" lon="5.76423">
        <ele>858.7</ele>
        <time>2025-10-05T12:34:51Z</time>
      </trkpt>
      <trkpt lat="43.32731" lon="5.76422">
        <ele>858.5</ele>
        <time>2025-10-05T12:34:52Z</time>
      </trkpt>
      <trkpt lat="43.32731" lon="5.76422">
        <ele>858.3</ele>
        <time>2025-10-05T12:34:53Z</time>
      </trkpt>
      <trkpt lat="43.32732" lon="5.76422">
        <ele>858.1</ele>
        <time>2025-10-05T12:34:54Z</time>
      </trkpt>
      <trkpt lat="43.32732" lon="5.76422">
        <ele>857.8</ele>
        <time>2025-10-05T12:34:55Z</time>
      </trkpt>
      <trkpt lat="43.32733" lon="5.76423">
        <ele>857.5</ele>
        <time>2025-10-05T12:34:56Z</time>
      </trkpt>
      <trkpt lat="43.32732" lon="5.76423">
        <ele>857.2</ele>
        <time>2025-10-05T12:34:57Z</time>
      </trkpt>
      <trkpt lat="43.32732" lon="5.76424">
        <ele>857</ele>
        <time>2025-10-05T12:34:58Z</time>
      </trkpt>
      <trkpt lat="43.32733" lon="5.76424">
        <ele>856.7</ele>
        <time>2025-10-05T12:34:59Z</time>
      </trkpt>
      <trkpt lat="43.32733" lon="5.76425">
        <ele>856.5</ele>
        <time>2025-10-05T12:35:00Z</time>
      </trkpt>
      <trkpt lat="43.32734" lon="5.76425">
        <ele>856.3</ele>
        <time>2025-10-05T12:35:01Z</time>
      </trkpt>
      <trkpt lat="43.32734" lon="5.76427">
        <ele>856.1</ele>
        <time>2025-10-05T12:35:02Z</time>
      </trkpt>
      <trkpt lat="43.32734" lon="5.76427">
        <ele>856</ele>
        <time>2025-10-05T12:35:03Z</time>
      </trkpt>
      <trkpt lat="43.32734" lon="5.76428">
        <ele>855.9</ele>
        <time>2025-10-05T12:35:04Z</time>
      </trkpt>
      <trkpt lat="43.32734" lon="5.76429">
        <ele>855.9</ele>
        <time>2025-10-05T12:35:05Z</time>
      </trkpt>
      <trkpt lat="43.32734" lon="5.7643">
        <ele>855.7</ele>
        <time>2025-10-05T12:35:06Z</time>
      </trkpt>
      <trkpt lat="43.32734" lon="5.7643">
        <ele>855.3</ele>
        <time>2025-10-05T12:35:07Z</time>
      </trkpt>
      <trkpt lat="43.32734" lon="5.76431">
        <ele>855.1</ele>
        <time>2025-10-05T12:35:08Z</time>
      </trkpt>
      <trkpt lat="43.32735" lon="5.76431">
        <ele>854.9</ele>
        <time>2025-10-05T12:35:09Z</time>
      </trkpt>
      <trkpt lat="43.32735" lon="5.76432">
        <ele>854.7</ele>
        <time>2025-10-05T12:35:10Z</time>
      </trkpt>
      <trkpt lat="43.32735" lon="5.76432">
        <ele>854.5</ele>
        <time>2025-10-05T12:35:11Z</time>
      </trkpt>
      <trkpt lat="43.32736" lon="5.76433">
        <ele>854.3</ele>
        <time>2025-10-05T12:35:12Z</time>
      </trkpt>
      <trkpt lat="43.32735" lon="5.76434">
        <ele>854.2</ele>
        <time>2025-10-05T12:35:13Z</time>
      </trkpt>
      <trkpt lat="43.32735" lon="5.76434">
        <ele>854</ele>
        <time>2025-10-05T12:35:14Z</time>
      </trkpt>
      <trkpt lat="43.32735" lon="5.76435">
        <ele>853.8</ele>
        <time>2025-10-05T12:35:15Z</time>
      </trkpt>
      <trkpt lat="43.32735" lon="5.76435">
        <ele>853.7</ele>
        <time>2025-10-05T12:35:16Z</time>
      </trkpt>
      <trkpt lat="43.32736" lon="5.76436">
        <ele>853.6</ele>
        <time>2025-10-05T12:35:17Z</time>
      </trkpt>
      <trkpt lat="43.32736" lon="5.76436">
        <ele>853.4</ele>
        <time>2025-10-05T12:35:18Z</time>
      </trkpt>
      <trkpt lat="43.32736" lon="5.76437">
        <ele>853.2</ele>
        <time>2025-10-05T12:35:19Z</time>
      </trkpt>
      <trkpt lat="43.32736" lon="5.76437">
        <ele>853</ele>
        <time>2025-10-05T12:35:20Z</time>
      </trkpt>
      <trkpt lat="43.32736" lon="5.76437">
        <ele>852.9</ele>
        <time>2025-10-05T12:35:21Z</time>
      </trkpt>
      <trkpt lat="43.32737" lon="5.76438">
        <ele>852.8</ele>
        <time>2025-10-05T12:35:22Z</time>
      </trkpt>
      <trkpt lat="43.32738" lon="5.76438">
        <ele>852.7</ele>
        <time>2025-10-05T12:35:23Z</time>
      </trkpt>
      <trkpt lat="43.32738" lon="5.76439">
        <ele>852.6</ele>
        <time>2025-10-05T12:35:24Z</time>
      </trkpt>
      <trkpt lat="43.32739" lon="5.76439">
        <ele>852.6</ele>
        <time>2025-10-05T12:35:25Z</time>
      </trkpt>
      <trkpt lat="43.32739" lon="5.76439">
        <ele>852.5</ele>
        <time>2025-10-05T12:35:26Z</time>
      </trkpt>
      <trkpt lat="43.32741" lon="5.76438">
        <ele>852.5</ele>
        <time>2025-10-05T12:35:27Z</time>
      </trkpt>
      <trkpt lat="43.32741" lon="5.76439">
        <ele>852.3</ele>
        <time>2025-10-05T12:35:28Z</time>
      </trkpt>
      <trkpt lat="43.32742" lon="5.76439">
        <ele>852.3</ele>
        <time>2025-10-05T12:35:29Z</time>
      </trkpt>
      <trkpt lat="43.32742" lon="5.7644">
        <ele>852.1</ele>
        <time>2025-10-05T12:35:30Z</time>
      </trkpt>
      <trkpt lat="43.32743" lon="5.7644">
        <ele>852</ele>
        <time>2025-10-05T12:35:31Z</time>
      </trkpt>
      <trkpt lat="43.32744" lon="5.76441">
        <ele>852</ele>
        <time>2025-10-05T12:35:32Z</time>
      </trkpt>
      <trkpt lat="43.32745" lon="5.76441">
        <ele>851.9</ele>
        <time>2025-10-05T12:35:33Z</time>
      </trkpt>
      <trkpt lat="43.32746" lon="5.76442">
        <ele>851.8</ele>
        <time>2025-10-05T12:35:34Z</time>
      </trkpt>
      <trkpt lat="43.32747" lon="5.76443">
        <ele>851.7</ele>
        <time>2025-10-05T12:35:35Z</time>
      </trkpt>
      <trkpt lat="43.32747" lon="5.76443">
        <ele>851.4</ele>
        <time>2025-10-05T12:35:36Z</time>
      </trkpt>
      <trkpt lat="43.32748" lon="5.76444">
        <ele>851.3</ele>
        <time>2025-10-05T12:35:37Z</time>
      </trkpt>
      <trkpt lat="43.32749" lon="5.76445">
        <ele>851.2</ele>
        <time>2025-10-05T12:35:38Z</time>
      </trkpt>
      <trkpt lat="43.32749" lon="5.76446">
        <ele>851</ele>
        <time>2025-10-05T12:35:39Z</time>
      </trkpt>
      <trkpt lat="43.32749" lon="5.76448">
        <ele>850.8</ele>
        <time>2025-10-05T12:35:40Z</time>
      </trkpt>
      <trkpt lat="43.3275" lon="5.76448">
        <ele>850.6</ele>
        <time>2025-10-05T12:35:41Z</time>
      </trkpt>
      <trkpt lat="43.32751" lon="5.76449">
        <ele>850.4</ele>
        <time>2025-10-05T12:35:42Z</time>
      </trkpt>
      <trkpt lat="43.32752" lon="5.7645">
        <ele>850.3</ele>
        <time>2025-10-05T12:35:43Z</time>
      </trkpt>
      <trkpt lat="43.32752" lon="5.7645">
        <ele>850.2</ele>
        <time>2025-10-05T12:35:44Z</time>
      </trkpt>
      <trkpt lat="43.32752" lon="5.76451">
        <ele>850.1</ele>
        <time>2025-10-05T12:35:45Z</time>
      </trkpt>
      <trkpt lat="43.32753" lon="5.76451">
        <ele>849.9</ele>
        <time>2025-10-05T12:35:46Z</time>
      </trkpt>
      <trkpt lat="43.32754" lon="5.76452">
        <ele>849.7</ele>
        <time>2025-10-05T12:35:47Z</time>
      </trkpt>
      <trkpt lat="43.32754" lon="5.76452">
        <ele>849.6</ele>
        <time>2025-10-05T12:35:48Z</time>
      </trkpt>
      <trkpt lat="43.32754" lon="5.76453">
        <ele>849.2</ele>
        <time>2025-10-05T12:35:49Z</time>
      </trkpt>
      <trkpt lat="43.32755" lon="5.76454">
        <ele>849</ele>
        <time>2025-10-05T12:35:50Z</time>
      </trkpt>
      <trkpt lat="43.32757" lon="5.76454">
        <ele>848.8</ele>
        <time>2025-10-05T12:35:51Z</time>
      </trkpt>
      <trkpt lat="43.32757" lon="5.76455">
        <ele>848.7</ele>
        <time>2025-10-05T12:35:52Z</time>
      </trkpt>
      <trkpt lat="43.32758" lon="5.76456">
        <ele>848.6</ele>
        <time>2025-10-05T12:35:53Z</time>
      </trkpt>
      <trkpt lat="43.32758" lon="5.76457">
        <ele>848.6</ele>
        <time>2025-10-05T12:35:54Z</time>
      </trkpt>
      <trkpt lat="43.32758" lon="5.76457">
        <ele>848.5</ele>
        <time>2025-10-05T12:35:55Z</time>
      </trkpt>
      <trkpt lat="43.32759" lon="5.76458">
        <ele>848.4</ele>
        <time>2025-10-05T12:35:56Z</time>
      </trkpt>
      <trkpt lat="43.3276" lon="5.76458">
        <ele>848.2</ele>
        <time>2025-10-05T12:35:57Z</time>
      </trkpt>
      <trkpt lat="43.3276" lon="5.76458">
        <ele>848</ele>
        <time>2025-10-05T12:35:58Z</time>
      </trkpt>
      <trkpt lat="43.32762" lon="5.76459">
        <ele>847.7</ele>
        <time>2025-10-05T12:35:59Z</time>
      </trkpt>
      <trkpt lat="43.32762" lon="5.7646">
        <ele>847.7</ele>
        <time>2025-10-05T12:36:00Z</time>
      </trkpt>
      <trkpt lat="43.32764" lon="5.7646">
        <ele>847.6</ele>
        <time>2025-10-05T12:36:01Z</time>
      </trkpt>
      <trkpt lat="43.32764" lon="5.7646">
        <ele>847.4</ele>
        <time>2025-10-05T12:36:02Z</time>
      </trkpt>
      <trkpt lat="43.32765" lon="5.76461">
        <ele>847.3</ele>
        <time>2025-10-05T12:36:03Z</time>
      </trkpt>
      <trkpt lat="43.32766" lon="5.76461">
        <ele>847.2</ele>
        <time>2025-10-05T12:36:04Z</time>
      </trkpt>
      <trkpt lat="43.32767" lon="5.76462">
        <ele>847</ele>
        <time>2025-10-05T12:36:05Z</time>
      </trkpt>
      <trkpt lat="43.32767" lon="5.76463">
        <ele>846.9</ele>
        <time>2025-10-05T12:36:06Z</time>
      </trkpt>
      <trkpt lat="43.32768" lon="5.76463">
        <ele>846.8</ele>
        <time>2025-10-05T12:36:07Z</time>
      </trkpt>
      <trkpt lat="43.32768" lon="5.76464">
        <ele>846.6</ele>
        <time>2025-10-05T12:36:08Z</time>
      </trkpt>
      <trkpt lat="43.32769" lon="5.76464">
        <ele>846.3</ele>
        <time>2025-10-05T12:36:09Z</time>
      </trkpt>
      <trkpt lat="43.3277" lon="5.76465">
        <ele>846.1</ele>
        <time>2025-10-05T12:36:10Z</time>
      </trkpt>
      <trkpt lat="43.3277" lon="5.76466">
        <ele>845.8</ele>
        <time>2025-10-05T12:36:11Z</time>
      </trkpt>
      <trkpt lat="43.3277" lon="5.76467">
        <ele>845.5</ele>
        <time>2025-10-05T12:36:12Z</time>
      </trkpt>
      <trkpt lat="43.32772" lon="5.76468">
        <ele>845.3</ele>
        <time>2025-10-05T12:36:13Z</time>
      </trkpt>
      <trkpt lat="43.32773" lon="5.76469">
        <ele>845.1</ele>
        <time>2025-10-05T12:36:14Z</time>
      </trkpt>
      <trkpt lat="43.32773" lon="5.76469">
        <ele>844.7</ele>
        <time>2025-10-05T12:36:15Z</time>
      </trkpt>
      <trkpt lat="43.32774" lon="5.7647">
        <ele>844.4</ele>
        <time>2025-10-05T12:36:16Z</time>
      </trkpt>
      <trkpt lat="43.32774" lon="5.7647">
        <ele>844.2</ele>
        <time>2025-10-05T12:36:17Z</time>
      </trkpt>
      <trkpt lat="43.32775" lon="5.76471">
        <ele>844</ele>
        <time>2025-10-05T12:36:18Z</time>
      </trkpt>
      <trkpt lat="43.32776" lon="5.76472">
        <ele>843.8</ele>
        <time>2025-10-05T12:36:19Z</time>
      </trkpt>
      <trkpt lat="43.32776" lon="5.76473">
        <ele>843.5</ele>
        <time>2025-10-05T12:36:20Z</time>
      </trkpt>
      <trkpt lat="43.32776" lon="5.76474">
        <ele>843.2</ele>
        <time>2025-10-05T12:36:21Z</time>
      </trkpt>
      <trkpt lat="43.32777" lon="5.76474">
        <ele>843</ele>
        <time>2025-10-05T12:36:22Z</time>
      </trkpt>
      <trkpt lat="43.32777" lon="5.76475">
        <ele>842.8</ele>
        <time>2025-10-05T12:36:23Z</time>
      </trkpt>
      <trkpt lat="43.32777" lon="5.76475">
        <ele>842.6</ele>
        <time>2025-10-05T12:36:24Z</time>
      </trkpt>
      <trkpt lat="43.32778" lon="5.76476">
        <ele>842.4</ele>
        <time>2025-10-05T12:36:25Z</time>
      </trkpt>
      <trkpt lat="43.32778" lon="5.76477">
        <ele>842.2</ele>
        <time>2025-10-05T12:36:26Z</time>
      </trkpt>
      <trkpt lat="43.32778" lon="5.76478">
        <ele>842.1</ele>
        <time>2025-10-05T12:36:27Z</time>
      </trkpt>
      <trkpt lat="43.32779" lon="5.76478">
        <ele>841.9</ele>
        <time>2025-10-05T12:36:28Z</time>
      </trkpt>
      <trkpt lat="43.32779" lon="5.76479">
        <ele>841.8</ele>
        <time>2025-10-05T12:36:29Z</time>
      </trkpt>
      <trkpt lat="43.32779" lon="5.7648">
        <ele>841.7</ele>
        <time>2025-10-05T12:36:30Z</time>
      </trkpt>
      <trkpt lat="43.32779" lon="5.76481">
        <ele>841.5</ele>
        <time>2025-10-05T12:36:31Z</time>
      </trkpt>
      <trkpt lat="43.32779" lon="5.76482">
        <ele>841.4</ele>
        <time>2025-10-05T12:36:32Z</time>
      </trkpt>
      <trkpt lat="43.3278" lon="5.76482">
        <ele>841.2</ele>
        <time>2025-10-05T12:36:33Z</time>
      </trkpt>
      <trkpt lat="43.3278" lon="5.76482">
        <ele>841.1</ele>
        <time>2025-10-05T12:36:34Z</time>
      </trkpt>
      <trkpt lat="43.32781" lon="5.76482">
        <ele>841</ele>
        <time>2025-10-05T12:36:35Z</time>
      </trkpt>
      <trkpt lat="43.32782" lon="5.76483">
        <ele>840.9</ele>
        <time>2025-10-05T12:36:36Z</time>
      </trkpt>
      <trkpt lat="43.32782" lon="5.76484">
        <ele>840.6</ele>
        <time>2025-10-05T12:36:37Z</time>
      </trkpt>
      <trkpt lat="43.32783" lon="5.76484">
        <ele>840.4</ele>
        <time>2025-10-05T12:36:38Z</time>
      </trkpt>
      <trkpt lat="43.32784" lon="5.76486">
        <ele>840.1</ele>
        <time>2025-10-05T12:36:39Z</time>
      </trkpt>
      <trkpt lat="43.32786" lon="5.76486">
        <ele>839.8</ele>
        <time>2025-10-05T12:36:40Z</time>
      </trkpt>
      <trkpt lat="43.32786" lon="5.76487">
        <ele>839.6</ele>
        <time>2025-10-05T12:36:41Z</time>
      </trkpt>
      <trkpt lat="43.32787" lon="5.76488">
        <ele>839.3</ele>
        <time>2025-10-05T12:36:42Z</time>
      </trkpt>
      <trkpt lat="43.32788" lon="5.76489">
        <ele>839</ele>
        <time>2025-10-05T12:36:43Z</time>
      </trkpt>
      <trkpt lat="43.32789" lon="5.7649">
        <ele>838.6</ele>
        <time>2025-10-05T12:36:44Z</time>
      </trkpt>
      <trkpt lat="43.3279" lon="5.7649">
        <ele>838.3</ele>
        <time>2025-10-05T12:36:45Z</time>
      </trkpt>
      <trkpt lat="43.32791" lon="5.76491">
        <ele>838</ele>
        <time>2025-10-05T12:36:46Z</time>
      </trkpt>
      <trkpt lat="43.32792" lon="5.76492">
        <ele>837.8</ele>
        <time>2025-10-05T12:36:47Z</time>
      </trkpt>
      <trkpt lat="43.32793" lon="5.76492">
        <ele>837.5</ele>
        <time>2025-10-05T12:36:48Z</time>
      </trkpt>
      <trkpt lat="43.32794" lon="5.76493">
        <ele>837</ele>
        <time>2025-10-05T12:36:49Z</time>
      </trkpt>
      <trkpt lat="43.32795" lon="5.76494">
        <ele>836.7</ele>
        <time>2025-10-05T12:36:50Z</time>
      </trkpt>
      <trkpt lat="43.32796" lon="5.76494">
        <ele>836.5</ele>
        <time>2025-10-05T12:36:51Z</time>
      </trkpt>
      <trkpt lat="43.32796" lon="5.76494">
        <ele>836.4</ele>
        <time>2025-10-05T12:36:52Z</time>
      </trkpt>
      <trkpt lat="43.32797" lon="5.76494">
        <ele>836.1</ele>
        <time>2025-10-05T12:36:53Z</time>
      </trkpt>
      <trkpt lat="43.32797" lon="5.76495">
        <ele>835.9</ele>
        <time>2025-10-05T12:36:54Z</time>
      </trkpt>
      <trkpt lat="43.32798" lon="5.76495">
        <ele>835.7</ele>
        <time>2025-10-05T12:36:55Z</time>
      </trkpt>
      <trkpt lat="43.32798" lon="5.76496">
        <ele>835.6</ele>
        <time>2025-10-05T12:36:56Z</time>
      </trkpt>
      <trkpt lat="43.32799" lon="5.76496">
        <ele>835.3</ele>
        <time>2025-10-05T12:36:57Z</time>
      </trkpt>
      <trkpt lat="43.32799" lon="5.76496">
        <ele>835.2</ele>
        <time>2025-10-05T12:36:58Z</time>
      </trkpt>
      <trkpt lat="43.32799" lon="5.76496">
        <ele>835.1</ele>
        <time>2025-10-05T12:36:59Z</time>
      </trkpt>
      <trkpt lat="43.328" lon="5.76497">
        <ele>834.9</ele>
        <time>2025-10-05T12:37:00Z</time>
      </trkpt>
      <trkpt lat="43.328" lon="5.76497">
        <ele>834.7</ele>
        <time>2025-10-05T12:37:01Z</time>
      </trkpt>
      <trkpt lat="43.32802" lon="5.76498">
        <ele>834.5</ele>
        <time>2025-10-05T12:37:02Z</time>
      </trkpt>
      <trkpt lat="43.32803" lon="5.76499">
        <ele>834.2</ele>
        <time>2025-10-05T12:37:03Z</time>
      </trkpt>
      <trkpt lat="43.32804" lon="5.76499">
        <ele>833.7</ele>
        <time>2025-10-05T12:37:04Z</time>
      </trkpt>
      <trkpt lat="43.32805" lon="5.76499">
        <ele>833.4</ele>
        <time>2025-10-05T12:37:05Z</time>
      </trkpt>
      <trkpt lat="43.32805" lon="5.765">
        <ele>833.2</ele>
        <time>2025-10-05T12:37:06Z</time>
      </trkpt>
      <trkpt lat="43.32805" lon="5.76501">
        <ele>832.9</ele>
        <time>2025-10-05T12:37:07Z</time>
      </trkpt>
      <trkpt lat="43.32806" lon="5.76502">
        <ele>832.6</ele>
        <time>2025-10-05T12:37:08Z</time>
      </trkpt>
      <trkpt lat="43.32806" lon="5.76503">
        <ele>832.3</ele>
        <time>2025-10-05T12:37:09Z</time>
      </trkpt>
      <trkpt lat="43.32808" lon="5.76504">
        <ele>832</ele>
        <time>2025-10-05T12:37:10Z</time>
      </trkpt>
      <trkpt lat="43.32808" lon="5.76504">
        <ele>831.6</ele>
        <time>2025-10-05T12:37:11Z</time>
      </trkpt>
      <trkpt lat="43.32809" lon="5.76505">
        <ele>831.3</ele>
        <time>2025-10-05T12:37:12Z</time>
      </trkpt>
      <trkpt lat="43.3281" lon="5.76505">
        <ele>831</ele>
        <time>2025-10-05T12:37:13Z</time>
      </trkpt>
      <trkpt lat="43.32811" lon="5.76506">
        <ele>830.7</ele>
        <time>2025-10-05T12:37:14Z</time>
      </trkpt>
      <trkpt lat="43.32811" lon="5.76506">
        <ele>830.5</ele>
        <time>2025-10-05T12:37:15Z</time>
      </trkpt>
      <trkpt lat="43.32812" lon="5.76507">
        <ele>830.2</ele>
        <time>2025-10-05T12:37:16Z</time>
      </trkpt>
      <trkpt lat="43.32812" lon="5.76507">
        <ele>830</ele>
        <time>2025-10-05T12:37:17Z</time>
      </trkpt>
      <trkpt lat="43.32812" lon="5.76508">
        <ele>829.9</ele>
        <time>2025-10-05T12:37:18Z</time>
      </trkpt>
      <trkpt lat="43.32812" lon="5.76509">
        <ele>829.8</ele>
        <time>2025-10-05T12:37:19Z</time>
      </trkpt>
      <trkpt lat="43.32811" lon="5.7651">
        <ele>829.5</ele>
        <time>2025-10-05T12:37:20Z</time>
      </trkpt>
      <trkpt lat="43.32811" lon="5.76511">
        <ele>829.4</ele>
        <time>2025-10-05T12:37:21Z</time>
      </trkpt>
      <trkpt lat="43.32811" lon="5.76513">
        <ele>829.3</ele>
        <time>2025-10-05T12:37:22Z</time>
      </trkpt>
      <trkpt lat="43.32813" lon="5.76513">
        <ele>829.2</ele>
        <time>2025-10-05T12:37:23Z</time>
      </trkpt>
      <trkpt lat="43.32815" lon="5.76513">
        <ele>829</ele>
        <time>2025-10-05T12:37:24Z</time>
      </trkpt>
      <trkpt lat="43.32816" lon="5.76515">
        <ele>828.8</ele>
        <time>2025-10-05T12:37:25Z</time>
      </trkpt>
      <trkpt lat="43.32817" lon="5.76516">
        <ele>828.6</ele>
        <time>2025-10-05T12:37:26Z</time>
      </trkpt>
      <trkpt lat="43.32817" lon="5.76517">
        <ele>828.4</ele>
        <time>2025-10-05T12:37:27Z</time>
      </trkpt>
      <trkpt lat="43.32818" lon="5.76518">
        <ele>828.3</ele>
        <time>2025-10-05T12:37:28Z</time>
      </trkpt>
      <trkpt lat="43.32818" lon="5.7652">
        <ele>828.2</ele>
        <time>2025-10-05T12:37:29Z</time>
      </trkpt>
      <trkpt lat="43.32818" lon="5.7652">
        <ele>828</ele>
        <time>2025-10-05T12:37:30Z</time>
      </trkpt>
      <trkpt lat="43.32819" lon="5.76521">
        <ele>827.9</ele>
        <time>2025-10-05T12:37:31Z</time>
      </trkpt>
      <trkpt lat="43.3282" lon="5.76522">
        <ele>827.7</ele>
        <time>2025-10-05T12:37:32Z</time>
      </trkpt>
      <trkpt lat="43.32819" lon="5.76525">
        <ele>827.7</ele>
        <time>2025-10-05T12:37:33Z</time>
      </trkpt>
      <trkpt lat="43.3282" lon="5.76526">
        <ele>827.6</ele>
        <time>2025-10-05T12:37:34Z</time>
      </trkpt>
      <trkpt lat="43.3282" lon="5.76527">
        <ele>827.4</ele>
        <time>2025-10-05T12:37:35Z</time>
      </trkpt>
      <trkpt lat="43.3282" lon="5.76528">
        <ele>827.3</ele>
        <time>2025-10-05T12:37:36Z</time>
      </trkpt>
      <trkpt lat="43.32821" lon="5.76529">
        <ele>827.1</ele>
        <time>2025-10-05T12:37:37Z</time>
      </trkpt>
      <trkpt lat="43.32823" lon="5.7653">
        <ele>827</ele>
        <time>2025-10-05T12:37:38Z</time>
      </trkpt>
      <trkpt lat="43.32824" lon="5.7653">
        <ele>826.8</ele>
        <time>2025-10-05T12:37:39Z</time>
      </trkpt>
      <trkpt lat="43.32825" lon="5.76532">
        <ele>826.7</ele>
        <time>2025-10-05T12:37:40Z</time>
      </trkpt>
      <trkpt lat="43.32825" lon="5.76533">
        <ele>826.6</ele>
        <time>2025-10-05T12:37:41Z</time>
      </trkpt>
      <trkpt lat="43.32825" lon="5.76534">
        <ele>826.4</ele>
        <time>2025-10-05T12:37:42Z</time>
      </trkpt>
      <trkpt lat="43.32825" lon="5.76535">
        <ele>826.3</ele>
        <time>2025-10-05T12:37:43Z</time>
      </trkpt>
      <trkpt lat="43.32826" lon="5.76537">
        <ele>826.1</ele>
        <time>2025-10-05T12:37:44Z</time>
      </trkpt>
      <trkpt lat="43.32827" lon="5.76537">
        <ele>825.8</ele>
        <time>2025-10-05T12:37:45Z</time>
      </trkpt>
      <trkpt lat="43.32826" lon="5.76539">
        <ele>825.6</ele>
        <time>2025-10-05T12:37:46Z</time>
      </trkpt>
      <trkpt lat="43.32827" lon="5.76539">
        <ele>825.4</ele>
        <time>2025-10-05T12:37:47Z</time>
      </trkpt>
      <trkpt lat="43.32826" lon="5.76539">
        <ele>825.2</ele>
        <time>2025-10-05T12:37:48Z</time>
      </trkpt>
      <trkpt lat="43.32827" lon="5.76539">
        <ele>825</ele>
        <time>2025-10-05T12:37:49Z</time>
      </trkpt>
      <trkpt lat="43.32827" lon="5.76538">
        <ele>825</ele>
        <time>2025-10-05T12:37:50Z</time>
      </trkpt>
      <trkpt lat="43.32827" lon="5.76537">
        <ele>824.9</ele>
        <time>2025-10-05T12:37:51Z</time>
      </trkpt>
      <trkpt lat="43.32827" lon="5.76537">
        <ele>824.7</ele>
        <time>2025-10-05T12:37:52Z</time>
      </trkpt>
      <trkpt lat="43.32827" lon="5.76537">
        <ele>824.6</ele>
        <time>2025-10-05T12:37:53Z</time>
      </trkpt>
      <trkpt lat="43.32827" lon="5.76537">
        <ele>824.5</ele>
        <time>2025-10-05T12:37:54Z</time>
      </trkpt>
      <trkpt lat="43.32828" lon="5.76536">
        <ele>824.4</ele>
        <time>2025-10-05T12:37:55Z</time>
      </trkpt>
      <trkpt lat="43.32828" lon="5.76536">
        <ele>824.4</ele>
        <time>2025-10-05T12:37:56Z</time>
      </trkpt>
      <trkpt lat="43.32828" lon="5.76536">
        <ele>824.4</ele>
        <time>2025-10-05T12:37:57Z</time>
      </trkpt>
      <trkpt lat="43.32827" lon="5.76535">
        <ele>824.5</ele>
        <time>2025-10-05T12:37:58Z</time>
      </trkpt>
      <trkpt lat="43.32828" lon="5.76534">
        <ele>824.6</ele>
        <time>2025-10-05T12:37:59Z</time>
      </trkpt>
      <trkpt lat="43.32828" lon="5.76534">
        <ele>824.7</ele>
        <time>2025-10-05T12:38:00Z</time>
      </trkpt>
      <trkpt lat="43.32828" lon="5.76535">
        <ele>824.8</ele>
        <time>2025-10-05T12:38:01Z</time>
      </trkpt>
      <trkpt lat="43.32828" lon="5.76535">
        <ele>824.8</ele>
        <time>2025-10-05T12:38:02Z</time>
      </trkpt>
      <trkpt lat="43.32828" lon="5.76536">
        <ele>824.9</ele>
        <time>2025-10-05T12:38:03Z</time>
      </trkpt>
      <trkpt lat="43.32828" lon="5.76536">
        <ele>824.9</ele>
        <time>2025-10-05T12:38:04Z</time>
      </trkpt>
      <trkpt lat="43.32828" lon="5.76537">
        <ele>825</ele>
        <time>2025-10-05T12:38:05Z</time>
      </trkpt>
      <trkpt lat="43.32829" lon="5.76539">
        <ele>824.9</ele>
        <time>2025-10-05T12:38:06Z</time>
      </trkpt>
      <trkpt lat="43.32829" lon="5.7654">
        <ele>825</ele>
        <time>2025-10-05T12:38:07Z</time>
      </trkpt>
      <trkpt lat="43.3283" lon="5.76541">
        <ele>824.9</ele>
        <time>2025-10-05T12:38:08Z</time>
      </trkpt>
      <trkpt lat="43.32831" lon="5.76542">
        <ele>824.9</ele>
        <time>2025-10-05T12:38:09Z</time>
      </trkpt>
      <trkpt lat="43.32831" lon="5.76543">
        <ele>824.7</ele>
        <time>2025-10-05T12:38:10Z</time>
      </trkpt>
      <trkpt lat="43.32832" lon="5.76545">
        <ele>824.6</ele>
        <time>2025-10-05T12:38:11Z</time>
      </trkpt>
      <trkpt lat="43.32832" lon="5.76546">
        <ele>824.5</ele>
        <time>2025-10-05T12:38:12Z</time>
      </trkpt>
      <trkpt lat="43.32832" lon="5.76547">
        <ele>824.4</ele>
        <time>2025-10-05T12:38:13Z</time>
      </trkpt>
      <trkpt lat="43.32833" lon="5.76548">
        <ele>824.3</ele>
        <time>2025-10-05T12:38:14Z</time>
      </trkpt>
      <trkpt lat="43.32834" lon="5.76549">
        <ele>824.2</ele>
        <time>2025-10-05T12:38:15Z</time>
      </trkpt>
      <trkpt lat="43.32834" lon="5.76551">
        <ele>824.1</ele>
        <time>2025-10-05T12:38:16Z</time>
      </trkpt>
      <trkpt lat="43.32834" lon="5.76553">
        <ele>824</ele>
        <time>2025-10-05T12:38:17Z</time>
      </trkpt>
      <trkpt lat="43.32834" lon="5.76554">
        <ele>823.9</ele>
        <time>2025-10-05T12:38:18Z</time>
      </trkpt>
      <trkpt lat="43.32835" lon="5.76556">
        <ele>823.7</ele>
        <time>2025-10-05T12:38:19Z</time>
      </trkpt>
      <trkpt lat="43.32835" lon="5.76557">
        <ele>823.6</ele>
        <time>2025-10-05T12:38:20Z</time>
      </trkpt>
      <trkpt lat="43.32836" lon="5.76558">
        <ele>823.4</ele>
        <time>2025-10-05T12:38:21Z</time>
      </trkpt>
      <trkpt lat="43.32838" lon="5.76559">
        <ele>823.3</ele>
        <time>2025-10-05T12:38:22Z</time>
      </trkpt>
      <trkpt lat="43.32838" lon="5.76561">
        <ele>823.2</ele>
        <time>2025-10-05T12:38:23Z</time>
      </trkpt>
      <trkpt lat="43.32838" lon="5.76562">
        <ele>823.1</ele>
        <time>2025-10-05T12:38:24Z</time>
      </trkpt>
      <trkpt lat="43.32838" lon="5.76564">
        <ele>822.9</ele>
        <time>2025-10-05T12:38:25Z</time>
      </trkpt>
      <trkpt lat="43.32839" lon="5.76564">
        <ele>822.7</ele>
        <time>2025-10-05T12:38:26Z</time>
      </trkpt>
      <trkpt lat="43.3284" lon="5.76566">
        <ele>822.6</ele>
        <time>2025-10-05T12:38:27Z</time>
      </trkpt>
      <trkpt lat="43.3284" lon="5.76567">
        <ele>822.3</ele>
        <time>2025-10-05T12:38:28Z</time>
      </trkpt>
      <trkpt lat="43.32841" lon="5.76568">
        <ele>822.1</ele>
        <time>2025-10-05T12:38:29Z</time>
      </trkpt>
      <trkpt lat="43.32842" lon="5.76569">
        <ele>821.6</ele>
        <time>2025-10-05T12:38:30Z</time>
      </trkpt>
      <trkpt lat="43.32844" lon="5.7657">
        <ele>821.3</ele>
        <time>2025-10-05T12:38:31Z</time>
      </trkpt>
      <trkpt lat="43.32843" lon="5.76571">
        <ele>821.1</ele>
        <time>2025-10-05T12:38:32Z</time>
      </trkpt>
      <trkpt lat="43.32844" lon="5.76573">
        <ele>820.9</ele>
        <time>2025-10-05T12:38:33Z</time>
      </trkpt>
      <trkpt lat="43.32844" lon="5.76574">
        <ele>820.8</ele>
        <time>2025-10-05T12:38:34Z</time>
      </trkpt>
      <trkpt lat="43.32845" lon="5.76576">
        <ele>820</ele>
        <time>2025-10-05T12:38:35Z</time>
      </trkpt>
      <trkpt lat="43.32846" lon="5.76577">
        <ele>819.8</ele>
        <time>2025-10-05T12:38:36Z</time>
      </trkpt>
      <trkpt lat="43.32847" lon="5.76578">
        <ele>819.7</ele>
        <time>2025-10-05T12:38:37Z</time>
      </trkpt>
      <trkpt lat="43.32848" lon="5.7658">
        <ele>819.5</ele>
        <time>2025-10-05T12:38:38Z</time>
      </trkpt>
      <trkpt lat="43.32848" lon="5.76581">
        <ele>819.3</ele>
        <time>2025-10-05T12:38:39Z</time>
      </trkpt>
      <trkpt lat="43.32849" lon="5.76582">
        <ele>819</ele>
        <time>2025-10-05T12:38:40Z</time>
      </trkpt>
      <trkpt lat="43.32849" lon="5.76584">
        <ele>818.7</ele>
        <time>2025-10-05T12:38:41Z</time>
      </trkpt>
      <trkpt lat="43.3285" lon="5.76585">
        <ele>818.4</ele>
        <time>2025-10-05T12:38:42Z</time>
      </trkpt>
      <trkpt lat="43.32851" lon="5.76586">
        <ele>818.2</ele>
        <time>2025-10-05T12:38:43Z</time>
      </trkpt>
      <trkpt lat="43.32852" lon="5.76588">
        <ele>818</ele>
        <time>2025-10-05T12:38:44Z</time>
      </trkpt>
      <trkpt lat="43.32854" lon="5.76588">
        <ele>817.8</ele>
        <time>2025-10-05T12:38:45Z</time>
      </trkpt>
      <trkpt lat="43.32854" lon="5.7659">
        <ele>817.7</ele>
        <time>2025-10-05T12:38:46Z</time>
      </trkpt>
      <trkpt lat="43.32855" lon="5.76591">
        <ele>817.5</ele>
        <time>2025-10-05T12:38:47Z</time>
      </trkpt>
      <trkpt lat="43.32856" lon="5.76591">
        <ele>817.1</ele>
        <time>2025-10-05T12:38:48Z</time>
      </trkpt>
      <trkpt lat="43.32856" lon="5.76592">
        <ele>816.8</ele>
        <time>2025-10-05T12:38:49Z</time>
      </trkpt>
      <trkpt lat="43.32857" lon="5.76593">
        <ele>816.6</ele>
        <time>2025-10-05T12:38:50Z</time>
      </trkpt>
      <trkpt lat="43.32857" lon="5.76593">
        <ele>816.2</ele>
        <time>2025-10-05T12:38:51Z</time>
      </trkpt>
      <trkpt lat="43.32857" lon="5.76594">
        <ele>816</ele>
        <time>2025-10-05T12:38:52Z</time>
      </trkpt>
      <trkpt lat="43.32859" lon="5.76594">
        <ele>815.8</ele>
        <time>2025-10-05T12:38:53Z</time>
      </trkpt>
      <trkpt lat="43.32861" lon="5.76594">
        <ele>815.4</ele>
        <time>2025-10-05T12:38:54Z</time>
      </trkpt>
      <trkpt lat="43.32861" lon="5.76595">
        <ele>815.1</ele>
        <time>2025-10-05T12:38:55Z</time>
      </trkpt>
      <trkpt lat="43.32863" lon="5.76596">
        <ele>814.9</ele>
        <time>2025-10-05T12:38:56Z</time>
      </trkpt>
      <trkpt lat="43.32864" lon="5.76597">
        <ele>814.7</ele>
        <time>2025-10-05T12:38:57Z</time>
      </trkpt>
      <trkpt lat="43.32865" lon="5.76598">
        <ele>814.5</ele>
        <time>2025-10-05T12:38:58Z</time>
      </trkpt>
      <trkpt lat="43.32866" lon="5.76598">
        <ele>814.3</ele>
        <time>2025-10-05T12:38:59Z</time>
      </trkpt>
      <trkpt lat="43.32867" lon="5.76598">
        <ele>814.1</ele>
        <time>2025-10-05T12:39:00Z</time>
      </trkpt>
      <trkpt lat="43.32869" lon="5.76598">
        <ele>813.8</ele>
        <time>2025-10-05T12:39:01Z</time>
      </trkpt>
      <trkpt lat="43.3287" lon="5.76599">
        <ele>813.6</ele>
        <time>2025-10-05T12:39:02Z</time>
      </trkpt>
      <trkpt lat="43.32871" lon="5.76599">
        <ele>813.4</ele>
        <time>2025-10-05T12:39:03Z</time>
      </trkpt>
      <trkpt lat="43.32872" lon="5.766">
        <ele>813.2</ele>
        <time>2025-10-05T12:39:04Z</time>
      </trkpt>
      <trkpt lat="43.32873" lon="5.766">
        <ele>813</ele>
        <time>2025-10-05T12:39:05Z</time>
      </trkpt>
      <trkpt lat="43.32874" lon="5.766">
        <ele>812.7</ele>
        <time>2025-10-05T12:39:06Z</time>
      </trkpt>
      <trkpt lat="43.32875" lon="5.76601">
        <ele>812.4</ele>
        <time>2025-10-05T12:39:07Z</time>
      </trkpt>
      <trkpt lat="43.32876" lon="5.76601">
        <ele>812.2</ele>
        <time>2025-10-05T12:39:08Z</time>
      </trkpt>
      <trkpt lat="43.32877" lon="5.76602">
        <ele>812</ele>
        <time>2025-10-05T12:39:09Z</time>
      </trkpt>
      <trkpt lat="43.32878" lon="5.76603">
        <ele>811.8</ele>
        <time>2025-10-05T12:39:10Z</time>
      </trkpt>
      <trkpt lat="43.32879" lon="5.76604">
        <ele>811.6</ele>
        <time>2025-10-05T12:39:11Z</time>
      </trkpt>
      <trkpt lat="43.32879" lon="5.76605">
        <ele>811.4</ele>
        <time>2025-10-05T12:39:12Z</time>
      </trkpt>
      <trkpt lat="43.3288" lon="5.76606">
        <ele>811.1</ele>
        <time>2025-10-05T12:39:13Z</time>
      </trkpt>
      <trkpt lat="43.32881" lon="5.76607">
        <ele>810.9</ele>
        <time>2025-10-05T12:39:14Z</time>
      </trkpt>
      <trkpt lat="43.32882" lon="5.76608">
        <ele>810.7</ele>
        <time>2025-10-05T12:39:15Z</time>
      </trkpt>
      <trkpt lat="43.32882" lon="5.76609">
        <ele>810.5</ele>
        <time>2025-10-05T12:39:16Z</time>
      </trkpt>
      <trkpt lat="43.32883" lon="5.76609">
        <ele>810.3</ele>
        <time>2025-10-05T12:39:17Z</time>
      </trkpt>
      <trkpt lat="43.32883" lon="5.76611">
        <ele>810.2</ele>
        <time>2025-10-05T12:39:18Z</time>
      </trkpt>
      <trkpt lat="43.32884" lon="5.76612">
        <ele>810.1</ele>
        <time>2025-10-05T12:39:19Z</time>
      </trkpt>
      <trkpt lat="43.32885" lon="5.76613">
        <ele>810</ele>
        <time>2025-10-05T12:39:20Z</time>
      </trkpt>
      <trkpt lat="43.32886" lon="5.76614">
        <ele>809.8</ele>
        <time>2025-10-05T12:39:21Z</time>
      </trkpt>
      <trkpt lat="43.32887" lon="5.76615">
        <ele>809.7</ele>
        <time>2025-10-05T12:39:22Z</time>
      </trkpt>
      <trkpt lat="43.32888" lon="5.76615">
        <ele>809.5</ele>
        <time>2025-10-05T12:39:23Z</time>
      </trkpt>
      <trkpt lat="43.32888" lon="5.76616">
        <ele>809.3</ele>
        <time>2025-10-05T12:39:24Z</time>
      </trkpt>
      <trkpt lat="43.3289" lon="5.76617">
        <ele>809.2</ele>
        <time>2025-10-05T12:39:25Z</time>
      </trkpt>
      <trkpt lat="43.32891" lon="5.76618">
        <ele>809</ele>
        <time>2025-10-05T12:39:26Z</time>
      </trkpt>
      <trkpt lat="43.32892" lon="5.76619">
        <ele>808.8</ele>
        <time>2025-10-05T12:39:27Z</time>
      </trkpt>
      <trkpt lat="43.32893" lon="5.7662">
        <ele>808.6</ele>
        <time>2025-10-05T12:39:28Z</time>
      </trkpt>
      <trkpt lat="43.32894" lon="5.76621">
        <ele>808.5</ele>
        <time>2025-10-05T12:39:29Z</time>
      </trkpt>
      <trkpt lat="43.32894" lon="5.76623">
        <ele>808.3</ele>
        <time>2025-10-05T12:39:30Z</time>
      </trkpt>
      <trkpt lat="43.32895" lon="5.76625">
        <ele>808.1</ele>
        <time>2025-10-05T12:39:31Z</time>
      </trkpt>
      <trkpt lat="43.32896" lon="5.76625">
        <ele>807.9</ele>
        <time>2025-10-05T12:39:32Z</time>
      </trkpt>
      <trkpt lat="43.32897" lon="5.76626">
        <ele>807.7</ele>
        <time>2025-10-05T12:39:33Z</time>
      </trkpt>
      <trkpt lat="43.32898" lon="5.76626">
        <ele>807.5</ele>
        <time>2025-10-05T12:39:34Z</time>
      </trkpt>
      <trkpt lat="43.32898" lon="5.76626">
        <ele>807.3</ele>
        <time>2025-10-05T12:39:35Z</time>
      </trkpt>
      <trkpt lat="43.32899" lon="5.76627">
        <ele>807.1</ele>
        <time>2025-10-05T12:39:36Z</time>
      </trkpt>
      <trkpt lat="43.329" lon="5.76628">
        <ele>806.9</ele>
        <time>2025-10-05T12:39:37Z</time>
      </trkpt>
      <trkpt lat="43.32901" lon="5.76628">
        <ele>806.7</ele>
        <time>2025-10-05T12:39:38Z</time>
      </trkpt>
      <trkpt lat="43.32902" lon="5.76629">
        <ele>806.5</ele>
        <time>2025-10-05T12:39:39Z</time>
      </trkpt>
      <trkpt lat="43.32902" lon="5.76631">
        <ele>806.3</ele>
        <time>2025-10-05T12:39:40Z</time>
      </trkpt>
      <trkpt lat="43.32903" lon="5.76632">
        <ele>806.1</ele>
        <time>2025-10-05T12:39:41Z</time>
      </trkpt>
      <trkpt lat="43.32904" lon="5.76633">
        <ele>805.9</ele>
        <time>2025-10-05T12:39:42Z</time>
      </trkpt>
      <trkpt lat="43.32905" lon="5.76633">
        <ele>805.6</ele>
        <time>2025-10-05T12:39:43Z</time>
      </trkpt>
      <trkpt lat="43.32905" lon="5.76634">
        <ele>805.3</ele>
        <time>2025-10-05T12:39:44Z</time>
      </trkpt>
      <trkpt lat="43.32906" lon="5.76635">
        <ele>805.1</ele>
        <time>2025-10-05T12:39:45Z</time>
      </trkpt>
      <trkpt lat="43.32906" lon="5.76636">
        <ele>804.8</ele>
        <time>2025-10-05T12:39:46Z</time>
      </trkpt>
      <trkpt lat="43.32907" lon="5.76637">
        <ele>804.6</ele>
        <time>2025-10-05T12:39:47Z</time>
      </trkpt>
      <trkpt lat="43.32909" lon="5.76638">
        <ele>804.4</ele>
        <time>2025-10-05T12:39:48Z</time>
      </trkpt>
      <trkpt lat="43.3291" lon="5.76638">
        <ele>804.2</ele>
        <time>2025-10-05T12:39:49Z</time>
      </trkpt>
      <trkpt lat="43.3291" lon="5.76639">
        <ele>804</ele>
        <time>2025-10-05T12:39:50Z</time>
      </trkpt>
      <trkpt lat="43.32911" lon="5.7664">
        <ele>803.7</ele>
        <time>2025-10-05T12:39:51Z</time>
      </trkpt>
      <trkpt lat="43.32913" lon="5.76641">
        <ele>803.5</ele>
        <time>2025-10-05T12:39:52Z</time>
      </trkpt>
      <trkpt lat="43.32914" lon="5.76641">
        <ele>803.3</ele>
        <time>2025-10-05T12:39:53Z</time>
      </trkpt>
      <trkpt lat="43.32915" lon="5.76642">
        <ele>803.2</ele>
        <time>2025-10-05T12:39:54Z</time>
      </trkpt>
      <trkpt lat="43.32916" lon="5.76642">
        <ele>803.1</ele>
        <time>2025-10-05T12:39:55Z</time>
      </trkpt>
      <trkpt lat="43.32916" lon="5.76643">
        <ele>802.9</ele>
        <time>2025-10-05T12:39:56Z</time>
      </trkpt>
      <trkpt lat="43.32917" lon="5.76644">
        <ele>802.7</ele>
        <time>2025-10-05T12:39:57Z</time>
      </trkpt>
      <trkpt lat="43.32918" lon="5.76645">
        <ele>802.5</ele>
        <time>2025-10-05T12:39:58Z</time>
      </trkpt>
      <trkpt lat="43.32919" lon="5.76646">
        <ele>802.3</ele>
        <time>2025-10-05T12:39:59Z</time>
      </trkpt>
      <trkpt lat="43.3292" lon="5.76647">
        <ele>802</ele>
        <time>2025-10-05T12:40:00Z</time>
      </trkpt>
      <trkpt lat="43.32921" lon="5.76648">
        <ele>801.6</ele>
        <time>2025-10-05T12:40:01Z</time>
      </trkpt>
      <trkpt lat="43.32922" lon="5.76648">
        <ele>801.4</ele>
        <time>2025-10-05T12:40:02Z</time>
      </trkpt>
      <trkpt lat="43.32922" lon="5.76648">
        <ele>801.2</ele>
        <time>2025-10-05T12:40:03Z</time>
      </trkpt>
      <trkpt lat="43.32923" lon="5.76649">
        <ele>801</ele>
        <time>2025-10-05T12:40:04Z</time>
      </trkpt>
      <trkpt lat="43.32923" lon="5.7665">
        <ele>800.8</ele>
        <time>2025-10-05T12:40:05Z</time>
      </trkpt>
      <trkpt lat="43.32924" lon="5.76649">
        <ele>800.5</ele>
        <time>2025-10-05T12:40:06Z</time>
      </trkpt>
      <trkpt lat="43.32924" lon="5.7665">
        <ele>800.2</ele>
        <time>2025-10-05T12:40:07Z</time>
      </trkpt>
      <trkpt lat="43.32925" lon="5.76651">
        <ele>800.1</ele>
        <time>2025-10-05T12:40:08Z</time>
      </trkpt>
      <trkpt lat="43.32927" lon="5.76652">
        <ele>799.9</ele>
        <time>2025-10-05T12:40:09Z</time>
      </trkpt>
      <trkpt lat="43.32928" lon="5.76653">
        <ele>799.8</ele>
        <time>2025-10-05T12:40:10Z</time>
      </trkpt>
      <trkpt lat="43.32929" lon="5.76654">
        <ele>799.7</ele>
        <time>2025-10-05T12:40:11Z</time>
      </trkpt>
      <trkpt lat="43.32929" lon="5.76655">
        <ele>799.6</ele>
        <time>2025-10-05T12:40:12Z</time>
      </trkpt>
      <trkpt lat="43.32929" lon="5.76657">
        <ele>799.4</ele>
        <time>2025-10-05T12:40:13Z</time>
      </trkpt>
      <trkpt lat="43.3293" lon="5.76657">
        <ele>799.3</ele>
        <time>2025-10-05T12:40:14Z</time>
      </trkpt>
      <trkpt lat="43.3293" lon="5.76658">
        <ele>799.2</ele>
        <time>2025-10-05T12:40:15Z</time>
      </trkpt>
      <trkpt lat="43.32932" lon="5.76659">
        <ele>799.1</ele>
        <time>2025-10-05T12:40:16Z</time>
      </trkpt>
      <trkpt lat="43.32933" lon="5.7666">
        <ele>799</ele>
        <time>2025-10-05T12:40:17Z</time>
      </trkpt>
      <trkpt lat="43.32934" lon="5.76661">
        <ele>798.9</ele>
        <time>2025-10-05T12:40:18Z</time>
      </trkpt>
      <trkpt lat="43.32934" lon="5.76662">
        <ele>798.8</ele>
        <time>2025-10-05T12:40:19Z</time>
      </trkpt>
      <trkpt lat="43.32935" lon="5.76663">
        <ele>798.6</ele>
        <time>2025-10-05T12:40:20Z</time>
      </trkpt>
      <trkpt lat="43.32936" lon="5.76663">
        <ele>798.4</ele>
        <time>2025-10-05T12:40:21Z</time>
      </trkpt>
      <trkpt lat="43.32938" lon="5.76664">
        <ele>798.1</ele>
        <time>2025-10-05T12:40:22Z</time>
      </trkpt>
      <trkpt lat="43.32938" lon="5.76665">
        <ele>797.8</ele>
        <time>2025-10-05T12:40:23Z</time>
      </trkpt>
      <trkpt lat="43.32939" lon="5.76666">
        <ele>797.6</ele>
        <time>2025-10-05T12:40:24Z</time>
      </trkpt>
      <trkpt lat="43.3294" lon="5.76668">
        <ele>797.5</ele>
        <time>2025-10-05T12:40:25Z</time>
      </trkpt>
      <trkpt lat="43.32941" lon="5.76669">
        <ele>797.3</ele>
        <time>2025-10-05T12:40:26Z</time>
      </trkpt>
      <trkpt lat="43.32942" lon="5.7667">
        <ele>797.2</ele>
        <time>2025-10-05T12:40:27Z</time>
      </trkpt>
      <trkpt lat="43.32943" lon="5.76671">
        <ele>797</ele>
        <time>2025-10-05T12:40:28Z</time>
      </trkpt>
      <trkpt lat="43.32945" lon="5.76672">
        <ele>796.8</ele>
        <time>2025-10-05T12:40:29Z</time>
      </trkpt>
      <trkpt lat="43.32945" lon="5.76673">
        <ele>796.6</ele>
        <time>2025-10-05T12:40:30Z</time>
      </trkpt>
      <trkpt lat="43.32946" lon="5.76674">
        <ele>796.5</ele>
        <time>2025-10-05T12:40:31Z</time>
      </trkpt>
      <trkpt lat="43.32946" lon="5.76675">
        <ele>796.4</ele>
        <time>2025-10-05T12:40:32Z</time>
      </trkpt>
      <trkpt lat="43.32947" lon="5.76676">
        <ele>796.4</ele>
        <time>2025-10-05T12:40:33Z</time>
      </trkpt>
      <trkpt lat="43.32948" lon="5.76677">
        <ele>796.3</ele>
        <time>2025-10-05T12:40:34Z</time>
      </trkpt>
      <trkpt lat="43.32949" lon="5.76678">
        <ele>796.1</ele>
        <time>2025-10-05T12:40:35Z</time>
      </trkpt>
      <trkpt lat="43.3295" lon="5.76679">
        <ele>795.9</ele>
        <time>2025-10-05T12:40:36Z</time>
      </trkpt>
      <trkpt lat="43.3295" lon="5.76679">
        <ele>795.8</ele>
        <time>2025-10-05T12:40:37Z</time>
      </trkpt>
      <trkpt lat="43.32951" lon="5.7668">
        <ele>795.7</ele>
        <time>2025-10-05T12:40:38Z</time>
      </trkpt>
      <trkpt lat="43.32951" lon="5.7668">
        <ele>795.6</ele>
        <time>2025-10-05T12:40:39Z</time>
      </trkpt>
      <trkpt lat="43.32952" lon="5.76681">
        <ele>795.5</ele>
        <time>2025-10-05T12:40:40Z</time>
      </trkpt>
      <trkpt lat="43.32952" lon="5.76681">
        <ele>795.3</ele>
        <time>2025-10-05T12:40:41Z</time>
      </trkpt>
      <trkpt lat="43.32952" lon="5.76682">
        <ele>795.2</ele>
        <time>2025-10-05T12:40:42Z</time>
      </trkpt>
      <trkpt lat="43.32952" lon="5.76682">
        <ele>795</ele>
        <time>2025-10-05T12:40:43Z</time>
      </trkpt>
      <trkpt lat="43.32953" lon="5.76682">
        <ele>795</ele>
        <time>2025-10-05T12:40:44Z</time>
      </trkpt>
      <trkpt lat="43.32953" lon="5.76682">
        <ele>794.8</ele>
        <time>2025-10-05T12:40:45Z</time>
      </trkpt>
      <trkpt lat="43.32954" lon="5.76682">
        <ele>794.5</ele>
        <time>2025-10-05T12:40:46Z</time>
      </trkpt>
      <trkpt lat="43.32954" lon="5.76681">
        <ele>794.4</ele>
        <time>2025-10-05T12:40:47Z</time>
      </trkpt>
      <trkpt lat="43.32955" lon="5.76681">
        <ele>794.1</ele>
        <time>2025-10-05T12:40:48Z</time>
      </trkpt>
      <trkpt lat="43.32955" lon="5.7668">
        <ele>793.8</ele>
        <time>2025-10-05T12:40:49Z</time>
      </trkpt>
      <trkpt lat="43.32955" lon="5.76679">
        <ele>793.7</ele>
        <time>2025-10-05T12:40:50Z</time>
      </trkpt>
      <trkpt lat="43.32956" lon="5.76679">
        <ele>793.5</ele>
        <time>2025-10-05T12:40:51Z</time>
      </trkpt>
      <trkpt lat="43.32956" lon="5.76678">
        <ele>793.4</ele>
        <time>2025-10-05T12:40:52Z</time>
      </trkpt>
      <trkpt lat="43.32957" lon="5.76678">
        <ele>793.2</ele>
        <time>2025-10-05T12:40:53Z</time>
      </trkpt>
      <trkpt lat="43.32958" lon="5.76677">
        <ele>793</ele>
        <time>2025-10-05T12:40:54Z</time>
      </trkpt>
      <trkpt lat="43.32958" lon="5.76676">
        <ele>792.9</ele>
        <time>2025-10-05T12:40:55Z</time>
      </trkpt>
      <trkpt lat="43.32957" lon="5.76675">
        <ele>792.5</ele>
        <time>2025-10-05T12:40:56Z</time>
      </trkpt>
      <trkpt lat="43.32957" lon="5.76674">
        <ele>792.3</ele>
        <time>2025-10-05T12:40:57Z</time>
      </trkpt>
      <trkpt lat="43.32958" lon="5.76673">
        <ele>792.1</ele>
        <time>2025-10-05T12:40:58Z</time>
      </trkpt>
      <trkpt lat="43.32957" lon="5.76672">
        <ele>791.9</ele>
        <time>2025-10-05T12:40:59Z</time>
      </trkpt>
      <trkpt lat="43.32957" lon="5.76671">
        <ele>791.6</ele>
        <time>2025-10-05T12:41:00Z</time>
      </trkpt>
      <trkpt lat="43.32958" lon="5.76671">
        <ele>791.4</ele>
        <time>2025-10-05T12:41:01Z</time>
      </trkpt>
      <trkpt lat="43.32958" lon="5.7667">
        <ele>791.2</ele>
        <time>2025-10-05T12:41:02Z</time>
      </trkpt>
      <trkpt lat="43.32958" lon="5.76669">
        <ele>791</ele>
        <time>2025-10-05T12:41:03Z</time>
      </trkpt>
      <trkpt lat="43.32957" lon="5.76667">
        <ele>790.9</ele>
        <time>2025-10-05T12:41:04Z</time>
      </trkpt>
      <trkpt lat="43.32957" lon="5.76666">
        <ele>790.7</ele>
        <time>2025-10-05T12:41:05Z</time>
      </trkpt>
      <trkpt lat="43.32957" lon="5.76664">
        <ele>790.5</ele>
        <time>2025-10-05T12:41:06Z</time>
      </trkpt>
      <trkpt lat="43.32957" lon="5.76663">
        <ele>790.2</ele>
        <time>2025-10-05T12:41:07Z</time>
      </trkpt>
      <trkpt lat="43.32957" lon="5.76662">
        <ele>790</ele>
        <time>2025-10-05T12:41:08Z</time>
      </trkpt>
      <trkpt lat="43.32957" lon="5.76661">
        <ele>789.8</ele>
        <time>2025-10-05T12:41:09Z</time>
      </trkpt>
      <trkpt lat="43.32956" lon="5.7666">
        <ele>789.7</ele>
        <time>2025-10-05T12:41:10Z</time>
      </trkpt>
      <trkpt lat="43.32956" lon="5.76659">
        <ele>789.4</ele>
        <time>2025-10-05T12:41:11Z</time>
      </trkpt>
      <trkpt lat="43.32955" lon="5.76658">
        <ele>789.4</ele>
        <time>2025-10-05T12:41:12Z</time>
      </trkpt>
      <trkpt lat="43.32956" lon="5.76656">
        <ele>789.3</ele>
        <time>2025-10-05T12:41:13Z</time>
      </trkpt>
      <trkpt lat="43.32955" lon="5.76655">
        <ele>789.3</ele>
        <time>2025-10-05T12:41:14Z</time>
      </trkpt>
      <trkpt lat="43.32955" lon="5.76654">
        <ele>789.2</ele>
        <time>2025-10-05T12:41:15Z</time>
      </trkpt>
      <trkpt lat="43.32955" lon="5.76652">
        <ele>789.2</ele>
        <time>2025-10-05T12:41:16Z</time>
      </trkpt>
      <trkpt lat="43.32955" lon="5.76651">
        <ele>789.1</ele>
        <time>2025-10-05T12:41:17Z</time>
      </trkpt>
      <trkpt lat="43.32954" lon="5.76651">
        <ele>789</ele>
        <time>2025-10-05T12:41:18Z</time>
      </trkpt>
      <trkpt lat="43.32954" lon="5.7665">
        <ele>788.8</ele>
        <time>2025-10-05T12:41:19Z</time>
      </trkpt>
      <trkpt lat="43.32954" lon="5.76648">
        <ele>788.7</ele>
        <time>2025-10-05T12:41:20Z</time>
      </trkpt>
      <trkpt lat="43.32954" lon="5.76647">
        <ele>788.6</ele>
        <time>2025-10-05T12:41:21Z</time>
      </trkpt>
      <trkpt lat="43.32954" lon="5.76645">
        <ele>788.6</ele>
        <time>2025-10-05T12:41:22Z</time>
      </trkpt>
      <trkpt lat="43.32954" lon="5.76644">
        <ele>788.5</ele>
        <time>2025-10-05T12:41:23Z</time>
      </trkpt>
      <trkpt lat="43.32954" lon="5.76643">
        <ele>788.4</ele>
        <time>2025-10-05T12:41:24Z</time>
      </trkpt>
      <trkpt lat="43.32955" lon="5.76642">
        <ele>788.3</ele>
        <time>2025-10-05T12:41:25Z</time>
      </trkpt>
      <trkpt lat="43.32954" lon="5.7664">
        <ele>788.2</ele>
        <time>2025-10-05T12:41:26Z</time>
      </trkpt>
      <trkpt lat="43.32954" lon="5.76639">
        <ele>788.1</ele>
        <time>2025-10-05T12:41:27Z</time>
      </trkpt>
      <trkpt lat="43.32953" lon="5.76638">
        <ele>788</ele>
        <time>2025-10-05T12:41:28Z</time>
      </trkpt>
      <trkpt lat="43.32953" lon="5.76636">
        <ele>787.9</ele>
        <time>2025-10-05T12:41:29Z</time>
      </trkpt>
      <trkpt lat="43.32952" lon="5.76635">
        <ele>787.7</ele>
        <time>2025-10-05T12:41:30Z</time>
      </trkpt>
      <trkpt lat="43.32952" lon="5.76634">
        <ele>787.6</ele>
        <time>2025-10-05T12:41:31Z</time>
      </trkpt>
      <trkpt lat="43.32951" lon="5.76633">
        <ele>787.5</ele>
        <time>2025-10-05T12:41:32Z</time>
      </trkpt>
      <trkpt lat="43.32951" lon="5.76632">
        <ele>787.2</ele>
        <time>2025-10-05T12:41:33Z</time>
      </trkpt>
      <trkpt lat="43.32951" lon="5.76631">
        <ele>787</ele>
        <time>2025-10-05T12:41:34Z</time>
      </trkpt>
      <trkpt lat="43.32951" lon="5.76629">
        <ele>786.8</ele>
        <time>2025-10-05T12:41:35Z</time>
      </trkpt>
      <trkpt lat="43.32951" lon="5.76628">
        <ele>786.6</ele>
        <time>2025-10-05T12:41:36Z</time>
      </trkpt>
      <trkpt lat="43.32951" lon="5.76626">
        <ele>786.5</ele>
        <time>2025-10-05T12:41:37Z</time>
      </trkpt>
      <trkpt lat="43.32952" lon="5.76624">
        <ele>786.1</ele>
        <time>2025-10-05T12:41:38Z</time>
      </trkpt>
      <trkpt lat="43.32953" lon="5.76623">
        <ele>785.7</ele>
        <time>2025-10-05T12:41:39Z</time>
      </trkpt>
      <trkpt lat="43.32953" lon="5.76622">
        <ele>785.5</ele>
        <time>2025-10-05T12:41:40Z</time>
      </trkpt>
      <trkpt lat="43.32954" lon="5.76622">
        <ele>785.3</ele>
        <time>2025-10-05T12:41:41Z</time>
      </trkpt>
      <trkpt lat="43.32954" lon="5.76622">
        <ele>785.1</ele>
        <time>2025-10-05T12:41:42Z</time>
      </trkpt>
      <trkpt lat="43.32954" lon="5.76623">
        <ele>784.9</ele>
        <time>2025-10-05T12:41:43Z</time>
      </trkpt>
      <trkpt lat="43.32955" lon="5.76623">
        <ele>784.6</ele>
        <time>2025-10-05T12:41:44Z</time>
      </trkpt>
      <trkpt lat="43.32955" lon="5.76625">
        <ele>784.3</ele>
        <time>2025-10-05T12:41:45Z</time>
      </trkpt>
      <trkpt lat="43.32955" lon="5.76625">
        <ele>784</ele>
        <time>2025-10-05T12:41:46Z</time>
      </trkpt>
      <trkpt lat="43.32955" lon="5.76626">
        <ele>783.9</ele>
        <time>2025-10-05T12:41:47Z</time>
      </trkpt>
      <trkpt lat="43.32955" lon="5.76627">
        <ele>783.7</ele>
        <time>2025-10-05T12:41:48Z</time>
      </trkpt>
      <trkpt lat="43.32955" lon="5.76627">
        <ele>783.6</ele>
        <time>2025-10-05T12:41:49Z</time>
      </trkpt>
      <trkpt lat="43.32955" lon="5.76627">
        <ele>783.3</ele>
        <time>2025-10-05T12:41:50Z</time>
      </trkpt>
      <trkpt lat="43.32955" lon="5.76628">
        <ele>783.1</ele>
        <time>2025-10-05T12:41:51Z</time>
      </trkpt>
      <trkpt lat="43.32956" lon="5.76629">
        <ele>782.9</ele>
        <time>2025-10-05T12:41:52Z</time>
      </trkpt>
      <trkpt lat="43.32956" lon="5.7663">
        <ele>782.8</ele>
        <time>2025-10-05T12:41:53Z</time>
      </trkpt>
      <trkpt lat="43.32956" lon="5.7663">
        <ele>782.5</ele>
        <time>2025-10-05T12:41:54Z</time>
      </trkpt>
      <trkpt lat="43.32956" lon="5.7663">
        <ele>782.3</ele>
        <time>2025-10-05T12:41:55Z</time>
      </trkpt>
      <trkpt lat="43.32956" lon="5.76629">
        <ele>782</ele>
        <time>2025-10-05T12:41:56Z</time>
      </trkpt>
      <trkpt lat="43.32956" lon="5.76629">
        <ele>781.7</ele>
        <time>2025-10-05T12:41:57Z</time>
      </trkpt>
      <trkpt lat="43.32956" lon="5.76629">
        <ele>781.6</ele>
        <time>2025-10-05T12:41:58Z</time>
      </trkpt>
      <trkpt lat="43.32956" lon="5.7663">
        <ele>781.4</ele>
        <time>2025-10-05T12:41:59Z</time>
      </trkpt>
      <trkpt lat="43.32957" lon="5.76631">
        <ele>781.2</ele>
        <time>2025-10-05T12:42:00Z</time>
      </trkpt>
      <trkpt lat="43.32957" lon="5.76632">
        <ele>781</ele>
        <time>2025-10-05T12:42:01Z</time>
      </trkpt>
      <trkpt lat="43.32958" lon="5.76633">
        <ele>780.7</ele>
        <time>2025-10-05T12:42:02Z</time>
      </trkpt>
      <trkpt lat="43.32958" lon="5.76633">
        <ele>780.5</ele>
        <time>2025-10-05T12:42:03Z</time>
      </trkpt>
      <trkpt lat="43.32958" lon="5.76634">
        <ele>780.4</ele>
        <time>2025-10-05T12:42:04Z</time>
      </trkpt>
      <trkpt lat="43.32959" lon="5.76635">
        <ele>780.2</ele>
        <time>2025-10-05T12:42:05Z</time>
      </trkpt>
      <trkpt lat="43.3296" lon="5.76637">
        <ele>779.9</ele>
        <time>2025-10-05T12:42:06Z</time>
      </trkpt>
      <trkpt lat="43.32961" lon="5.76637">
        <ele>779.7</ele>
        <time>2025-10-05T12:42:07Z</time>
      </trkpt>
      <trkpt lat="43.32962" lon="5.76638">
        <ele>779.5</ele>
        <time>2025-10-05T12:42:08Z</time>
      </trkpt>
      <trkpt lat="43.32963" lon="5.76638">
        <ele>779.3</ele>
        <time>2025-10-05T12:42:09Z</time>
      </trkpt>
      <trkpt lat="43.32964" lon="5.76639">
        <ele>779.1</ele>
        <time>2025-10-05T12:42:10Z</time>
      </trkpt>
      <trkpt lat="43.32965" lon="5.76641">
        <ele>778.8</ele>
        <time>2025-10-05T12:42:11Z</time>
      </trkpt>
      <trkpt lat="43.32965" lon="5.76642">
        <ele>778.6</ele>
        <time>2025-10-05T12:42:12Z</time>
      </trkpt>
      <trkpt lat="43.32966" lon="5.76643">
        <ele>778.4</ele>
        <time>2025-10-05T12:42:13Z</time>
      </trkpt>
      <trkpt lat="43.32966" lon="5.76644">
        <ele>778.1</ele>
        <time>2025-10-05T12:42:14Z</time>
      </trkpt>
      <trkpt lat="43.32967" lon="5.76645">
        <ele>777.9</ele>
        <time>2025-10-05T12:42:15Z</time>
      </trkpt>
      <trkpt lat="43.32969" lon="5.76646">
        <ele>777.5</ele>
        <time>2025-10-05T12:42:16Z</time>
      </trkpt>
      <trkpt lat="43.32971" lon="5.76647">
        <ele>777.2</ele>
        <time>2025-10-05T12:42:17Z</time>
      </trkpt>
      <trkpt lat="43.32972" lon="5.76647">
        <ele>777</ele>
        <time>2025-10-05T12:42:18Z</time>
      </trkpt>
      <trkpt lat="43.32972" lon="5.76648">
        <ele>776.8</ele>
        <time>2025-10-05T12:42:19Z</time>
      </trkpt>
      <trkpt lat="43.32973" lon="5.76649">
        <ele>776.7</ele>
        <time>2025-10-05T12:42:20Z</time>
      </trkpt>
      <trkpt lat="43.32973" lon="5.76649">
        <ele>776.6</ele>
        <time>2025-10-05T12:42:21Z</time>
      </trkpt>
      <trkpt lat="43.32973" lon="5.76649">
        <ele>776.5</ele>
        <time>2025-10-05T12:42:22Z</time>
      </trkpt>
      <trkpt lat="43.32973" lon="5.7665">
        <ele>776.5</ele>
        <time>2025-10-05T12:42:23Z</time>
      </trkpt>
      <trkpt lat="43.32974" lon="5.76652">
        <ele>776.5</ele>
        <time>2025-10-05T12:42:24Z</time>
      </trkpt>
      <trkpt lat="43.32975" lon="5.76653">
        <ele>776.4</ele>
        <time>2025-10-05T12:42:25Z</time>
      </trkpt>
      <trkpt lat="43.32975" lon="5.76654">
        <ele>776.3</ele>
        <time>2025-10-05T12:42:26Z</time>
      </trkpt>
      <trkpt lat="43.32975" lon="5.76655">
        <ele>776.1</ele>
        <time>2025-10-05T12:42:27Z</time>
      </trkpt>
      <trkpt lat="43.32976" lon="5.76657">
        <ele>775.9</ele>
        <time>2025-10-05T12:42:28Z</time>
      </trkpt>
      <trkpt lat="43.32977" lon="5.76658">
        <ele>775.8</ele>
        <time>2025-10-05T12:42:29Z</time>
      </trkpt>
      <trkpt lat="43.32977" lon="5.76659">
        <ele>775.7</ele>
        <time>2025-10-05T12:42:30Z</time>
      </trkpt>
      <trkpt lat="43.32976" lon="5.76659">
        <ele>775.5</ele>
        <time>2025-10-05T12:42:31Z</time>
      </trkpt>
      <trkpt lat="43.32977" lon="5.7666">
        <ele>775.4</ele>
        <time>2025-10-05T12:42:32Z</time>
      </trkpt>
      <trkpt lat="43.32978" lon="5.7666">
        <ele>775.1</ele>
        <time>2025-10-05T12:42:33Z</time>
      </trkpt>
      <trkpt lat="43.32979" lon="5.76661">
        <ele>774.8</ele>
        <time>2025-10-05T12:42:34Z</time>
      </trkpt>
      <trkpt lat="43.32979" lon="5.76662">
        <ele>774.7</ele>
        <time>2025-10-05T12:42:35Z</time>
      </trkpt>
      <trkpt lat="43.32979" lon="5.76664">
        <ele>774.6</ele>
        <time>2025-10-05T12:42:36Z</time>
      </trkpt>
      <trkpt lat="43.3298" lon="5.76665">
        <ele>774.4</ele>
        <time>2025-10-05T12:42:37Z</time>
      </trkpt>
      <trkpt lat="43.3298" lon="5.76665">
        <ele>774.2</ele>
        <time>2025-10-05T12:42:38Z</time>
      </trkpt>
      <trkpt lat="43.32982" lon="5.76666">
        <ele>774.1</ele>
        <time>2025-10-05T12:42:39Z</time>
      </trkpt>
      <trkpt lat="43.32983" lon="5.76667">
        <ele>774</ele>
        <time>2025-10-05T12:42:40Z</time>
      </trkpt>
      <trkpt lat="43.32984" lon="5.76668">
        <ele>773.8</ele>
        <time>2025-10-05T12:42:41Z</time>
      </trkpt>
      <trkpt lat="43.32985" lon="5.76669">
        <ele>773.6</ele>
        <time>2025-10-05T12:42:42Z</time>
      </trkpt>
      <trkpt lat="43.32985" lon="5.7667">
        <ele>773.5</ele>
        <time>2025-10-05T12:42:43Z</time>
      </trkpt>
      <trkpt lat="43.32986" lon="5.76672">
        <ele>773.2</ele>
        <time>2025-10-05T12:42:44Z</time>
      </trkpt>
      <trkpt lat="43.32987" lon="5.76673">
        <ele>772.9</ele>
        <time>2025-10-05T12:42:45Z</time>
      </trkpt>
      <trkpt lat="43.32988" lon="5.76673">
        <ele>772.8</ele>
        <time>2025-10-05T12:42:46Z</time>
      </trkpt>
      <trkpt lat="43.32988" lon="5.76674">
        <ele>772.6</ele>
        <time>2025-10-05T12:42:47Z</time>
      </trkpt>
      <trkpt lat="43.32989" lon="5.76675">
        <ele>772.4</ele>
        <time>2025-10-05T12:42:48Z</time>
      </trkpt>
      <trkpt lat="43.32989" lon="5.76676">
        <ele>772.3</ele>
        <time>2025-10-05T12:42:49Z</time>
      </trkpt>
      <trkpt lat="43.3299" lon="5.76677">
        <ele>772.1</ele>
        <time>2025-10-05T12:42:50Z</time>
      </trkpt>
      <trkpt lat="43.32991" lon="5.76678">
        <ele>771.8</ele>
        <time>2025-10-05T12:42:51Z</time>
      </trkpt>
      <trkpt lat="43.32992" lon="5.7668">
        <ele>771.5</ele>
        <time>2025-10-05T12:42:52Z</time>
      </trkpt>
      <trkpt lat="43.32993" lon="5.76681">
        <ele>771.2</ele>
        <time>2025-10-05T12:42:53Z</time>
      </trkpt>
      <trkpt lat="43.32994" lon="5.76682">
        <ele>770.9</ele>
        <time>2025-10-05T12:42:54Z</time>
      </trkpt>
      <trkpt lat="43.32995" lon="5.76683">
        <ele>770.7</ele>
        <time>2025-10-05T12:42:55Z</time>
      </trkpt>
      <trkpt lat="43.32996" lon="5.76684">
        <ele>770.4</ele>
        <time>2025-10-05T12:42:56Z</time>
      </trkpt>
      <trkpt lat="43.32996" lon="5.76685">
        <ele>770.3</ele>
        <time>2025-10-05T12:42:57Z</time>
      </trkpt>
      <trkpt lat="43.32997" lon="5.76686">
        <ele>770.1</ele>
        <time>2025-10-05T12:42:58Z</time>
      </trkpt>
      <trkpt lat="43.32999" lon="5.76686">
        <ele>770</ele>
        <time>2025-10-05T12:42:59Z</time>
      </trkpt>
      <trkpt lat="43.33" lon="5.76687">
        <ele>769.9</ele>
        <time>2025-10-05T12:43:00Z</time>
      </trkpt>
      <trkpt lat="43.33001" lon="5.76688">
        <ele>769.8</ele>
        <time>2025-10-05T12:43:01Z</time>
      </trkpt>
      <trkpt lat="43.33001" lon="5.7669">
        <ele>769.8</ele>
        <time>2025-10-05T12:43:02Z</time>
      </trkpt>
      <trkpt lat="43.33002" lon="5.76691">
        <ele>769.7</ele>
        <time>2025-10-05T12:43:03Z</time>
      </trkpt>
      <trkpt lat="43.33003" lon="5.76692">
        <ele>769.6</ele>
        <time>2025-10-05T12:43:04Z</time>
      </trkpt>
      <trkpt lat="43.33004" lon="5.76692">
        <ele>769.5</ele>
        <time>2025-10-05T12:43:05Z</time>
      </trkpt>
      <trkpt lat="43.33005" lon="5.76693">
        <ele>769.4</ele>
        <time>2025-10-05T12:43:06Z</time>
      </trkpt>
      <trkpt lat="43.33005" lon="5.76695">
        <ele>769.1</ele>
        <time>2025-10-05T12:43:07Z</time>
      </trkpt>
      <trkpt lat="43.33007" lon="5.76696">
        <ele>768.9</ele>
        <time>2025-10-05T12:43:08Z</time>
      </trkpt>
      <trkpt lat="43.33007" lon="5.76697">
        <ele>768.7</ele>
        <time>2025-10-05T12:43:09Z</time>
      </trkpt>
      <trkpt lat="43.33008" lon="5.76698">
        <ele>768.5</ele>
        <time>2025-10-05T12:43:10Z</time>
      </trkpt>
      <trkpt lat="43.3301" lon="5.76699">
        <ele>768.3</ele>
        <time>2025-10-05T12:43:11Z</time>
      </trkpt>
      <trkpt lat="43.33011" lon="5.76699">
        <ele>768.1</ele>
        <time>2025-10-05T12:43:12Z</time>
      </trkpt>
      <trkpt lat="43.33011" lon="5.767">
        <ele>768</ele>
        <time>2025-10-05T12:43:13Z</time>
      </trkpt>
      <trkpt lat="43.33011" lon="5.76701">
        <ele>767.8</ele>
        <time>2025-10-05T12:43:14Z</time>
      </trkpt>
      <trkpt lat="43.33012" lon="5.76701">
        <ele>767.7</ele>
        <time>2025-10-05T12:43:15Z</time>
      </trkpt>
      <trkpt lat="43.33013" lon="5.76702">
        <ele>767.5</ele>
        <time>2025-10-05T12:43:16Z</time>
      </trkpt>
      <trkpt lat="43.33014" lon="5.76704">
        <ele>767.4</ele>
        <time>2025-10-05T12:43:17Z</time>
      </trkpt>
      <trkpt lat="43.33015" lon="5.76705">
        <ele>767.3</ele>
        <time>2025-10-05T12:43:18Z</time>
      </trkpt>
      <trkpt lat="43.33015" lon="5.76706">
        <ele>767.2</ele>
        <time>2025-10-05T12:43:19Z</time>
      </trkpt>
      <trkpt lat="43.33016" lon="5.76707">
        <ele>767</ele>
        <time>2025-10-05T12:43:20Z</time>
      </trkpt>
      <trkpt lat="43.33018" lon="5.76707">
        <ele>767</ele>
        <time>2025-10-05T12:43:21Z</time>
      </trkpt>
      <trkpt lat="43.33019" lon="5.76708">
        <ele>766.9</ele>
        <time>2025-10-05T12:43:22Z</time>
      </trkpt>
      <trkpt lat="43.33019" lon="5.76709">
        <ele>766.8</ele>
        <time>2025-10-05T12:43:23Z</time>
      </trkpt>
      <trkpt lat="43.3302" lon="5.76709">
        <ele>766.7</ele>
        <time>2025-10-05T12:43:24Z</time>
      </trkpt>
      <trkpt lat="43.33021" lon="5.76711">
        <ele>766.5</ele>
        <time>2025-10-05T12:43:25Z</time>
      </trkpt>
      <trkpt lat="43.33022" lon="5.76712">
        <ele>766.4</ele>
        <time>2025-10-05T12:43:26Z</time>
      </trkpt>
      <trkpt lat="43.33023" lon="5.76714">
        <ele>766.3</ele>
        <time>2025-10-05T12:43:27Z</time>
      </trkpt>
      <trkpt lat="43.33023" lon="5.76715">
        <ele>766.2</ele>
        <time>2025-10-05T12:43:28Z</time>
      </trkpt>
      <trkpt lat="43.33024" lon="5.76716">
        <ele>766.1</ele>
        <time>2025-10-05T12:43:29Z</time>
      </trkpt>
      <trkpt lat="43.33025" lon="5.76717">
        <ele>765.9</ele>
        <time>2025-10-05T12:43:30Z</time>
      </trkpt>
      <trkpt lat="43.33027" lon="5.76719">
        <ele>765.8</ele>
        <time>2025-10-05T12:43:31Z</time>
      </trkpt>
      <trkpt lat="43.33027" lon="5.76719">
        <ele>765.7</ele>
        <time>2025-10-05T12:43:32Z</time>
      </trkpt>
      <trkpt lat="43.33029" lon="5.7672">
        <ele>765.7</ele>
        <time>2025-10-05T12:43:33Z</time>
      </trkpt>
      <trkpt lat="43.3303" lon="5.76721">
        <ele>765.6</ele>
        <time>2025-10-05T12:43:34Z</time>
      </trkpt>
      <trkpt lat="43.3303" lon="5.76722">
        <ele>765.5</ele>
        <time>2025-10-05T12:43:35Z</time>
      </trkpt>
      <trkpt lat="43.33031" lon="5.76724">
        <ele>765.5</ele>
        <time>2025-10-05T12:43:36Z</time>
      </trkpt>
      <trkpt lat="43.33031" lon="5.76725">
        <ele>765.4</ele>
        <time>2025-10-05T12:43:37Z</time>
      </trkpt>
      <trkpt lat="43.33033" lon="5.76726">
        <ele>765.5</ele>
        <time>2025-10-05T12:43:38Z</time>
      </trkpt>
      <trkpt lat="43.33033" lon="5.76727">
        <ele>765.5</ele>
        <time>2025-10-05T12:43:39Z</time>
      </trkpt>
      <trkpt lat="43.33034" lon="5.76728">
        <ele>765.3</ele>
        <time>2025-10-05T12:43:40Z</time>
      </trkpt>
      <trkpt lat="43.33035" lon="5.76729">
        <ele>765.3</ele>
        <time>2025-10-05T12:43:41Z</time>
      </trkpt>
      <trkpt lat="43.33036" lon="5.76731">
        <ele>765.3</ele>
        <time>2025-10-05T12:43:42Z</time>
      </trkpt>
      <trkpt lat="43.33037" lon="5.76732">
        <ele>765.2</ele>
        <time>2025-10-05T12:43:43Z</time>
      </trkpt>
      <trkpt lat="43.33037" lon="5.76733">
        <ele>765.1</ele>
        <time>2025-10-05T12:43:44Z</time>
      </trkpt>
      <trkpt lat="43.33038" lon="5.76734">
        <ele>765.1</ele>
        <time>2025-10-05T12:43:45Z</time>
      </trkpt>
      <trkpt lat="43.33039" lon="5.76735">
        <ele>765</ele>
        <time>2025-10-05T12:43:46Z</time>
      </trkpt>
      <trkpt lat="43.3304" lon="5.76736">
        <ele>764.9</ele>
        <time>2025-10-05T12:43:47Z</time>
      </trkpt>
      <trkpt lat="43.33041" lon="5.76737">
        <ele>764.8</ele>
        <time>2025-10-05T12:43:48Z</time>
      </trkpt>
      <trkpt lat="43.33042" lon="5.76738">
        <ele>764.7</ele>
        <time>2025-10-05T12:43:49Z</time>
      </trkpt>
      <trkpt lat="43.33043" lon="5.76739">
        <ele>764.6</ele>
        <time>2025-10-05T12:43:50Z</time>
      </trkpt>
      <trkpt lat="43.33044" lon="5.7674">
        <ele>764.5</ele>
        <time>2025-10-05T12:43:51Z</time>
      </trkpt>
      <trkpt lat="43.33045" lon="5.76741">
        <ele>764.4</ele>
        <time>2025-10-05T12:43:52Z</time>
      </trkpt>
      <trkpt lat="43.33046" lon="5.76742">
        <ele>764.3</ele>
        <time>2025-10-05T12:43:53Z</time>
      </trkpt>
      <trkpt lat="43.33047" lon="5.76743">
        <ele>764.2</ele>
        <time>2025-10-05T12:43:54Z</time>
      </trkpt>
      <trkpt lat="43.33048" lon="5.76744">
        <ele>764.1</ele>
        <time>2025-10-05T12:43:55Z</time>
      </trkpt>
      <trkpt lat="43.33049" lon="5.76744">
        <ele>763.9</ele>
        <time>2025-10-05T12:43:56Z</time>
      </trkpt>
      <trkpt lat="43.3305" lon="5.76745">
        <ele>763.8</ele>
        <time>2025-10-05T12:43:57Z</time>
      </trkpt>
      <trkpt lat="43.33051" lon="5.76746">
        <ele>763.7</ele>
        <time>2025-10-05T12:43:58Z</time>
      </trkpt>
      <trkpt lat="43.33052" lon="5.76748">
        <ele>763.5</ele>
        <time>2025-10-05T12:43:59Z</time>
      </trkpt>
      <trkpt lat="43.33052" lon="5.76749">
        <ele>763.4</ele>
        <time>2025-10-05T12:44:00Z</time>
      </trkpt>
      <trkpt lat="43.33053" lon="5.7675">
        <ele>763</ele>
        <time>2025-10-05T12:44:01Z</time>
      </trkpt>
      <trkpt lat="43.33053" lon="5.76751">
        <ele>762.7</ele>
        <time>2025-10-05T12:44:02Z</time>
      </trkpt>
      <trkpt lat="43.33054" lon="5.76752">
        <ele>762.4</ele>
        <time>2025-10-05T12:44:03Z</time>
      </trkpt>
      <trkpt lat="43.33054" lon="5.76753">
        <ele>762.3</ele>
        <time>2025-10-05T12:44:04Z</time>
      </trkpt>
      <trkpt lat="43.33055" lon="5.76754">
        <ele>762</ele>
        <time>2025-10-05T12:44:05Z</time>
      </trkpt>
      <trkpt lat="43.33056" lon="5.76756">
        <ele>761.8</ele>
        <time>2025-10-05T12:44:06Z</time>
      </trkpt>
      <trkpt lat="43.33056" lon="5.76757">
        <ele>761.5</ele>
        <time>2025-10-05T12:44:07Z</time>
      </trkpt>
      <trkpt lat="43.33056" lon="5.76758">
        <ele>761.3</ele>
        <time>2025-10-05T12:44:08Z</time>
      </trkpt>
      <trkpt lat="43.33057" lon="5.76758">
        <ele>761</ele>
        <time>2025-10-05T12:44:09Z</time>
      </trkpt>
      <trkpt lat="43.33057" lon="5.76759">
        <ele>760.7</ele>
        <time>2025-10-05T12:44:10Z</time>
      </trkpt>
      <trkpt lat="43.33058" lon="5.7676">
        <ele>760.5</ele>
        <time>2025-10-05T12:44:11Z</time>
      </trkpt>
      <trkpt lat="43.33058" lon="5.76761">
        <ele>760.3</ele>
        <time>2025-10-05T12:44:12Z</time>
      </trkpt>
      <trkpt lat="43.33059" lon="5.76762">
        <ele>760.1</ele>
        <time>2025-10-05T12:44:13Z</time>
      </trkpt>
      <trkpt lat="43.33059" lon="5.76763">
        <ele>759.8</ele>
        <time>2025-10-05T12:44:14Z</time>
      </trkpt>
      <trkpt lat="43.33059" lon="5.76764">
        <ele>759.7</ele>
        <time>2025-10-05T12:44:15Z</time>
      </trkpt>
      <trkpt lat="43.33059" lon="5.76765">
        <ele>759.5</ele>
        <time>2025-10-05T12:44:16Z</time>
      </trkpt>
      <trkpt lat="43.3306" lon="5.76766">
        <ele>759.3</ele>
        <time>2025-10-05T12:44:17Z</time>
      </trkpt>
      <trkpt lat="43.3306" lon="5.76767">
        <ele>759.2</ele>
        <time>2025-10-05T12:44:18Z</time>
      </trkpt>
      <trkpt lat="43.33061" lon="5.76767">
        <ele>759</ele>
        <time>2025-10-05T12:44:19Z</time>
      </trkpt>
      <trkpt lat="43.33062" lon="5.76768">
        <ele>758.8</ele>
        <time>2025-10-05T12:44:20Z</time>
      </trkpt>
      <trkpt lat="43.33062" lon="5.76769">
        <ele>758.6</ele>
        <time>2025-10-05T12:44:21Z</time>
      </trkpt>
      <trkpt lat="43.33063" lon="5.76769">
        <ele>758.5</ele>
        <time>2025-10-05T12:44:22Z</time>
      </trkpt>
      <trkpt lat="43.33063" lon="5.7677">
        <ele>758.3</ele>
        <time>2025-10-05T12:44:23Z</time>
      </trkpt>
      <trkpt lat="43.33064" lon="5.7677">
        <ele>758</ele>
        <time>2025-10-05T12:44:24Z</time>
      </trkpt>
      <trkpt lat="43.33065" lon="5.7677">
        <ele>757.9</ele>
        <time>2025-10-05T12:44:25Z</time>
      </trkpt>
      <trkpt lat="43.33065" lon="5.76771">
        <ele>757.7</ele>
        <time>2025-10-05T12:44:26Z</time>
      </trkpt>
      <trkpt lat="43.33065" lon="5.76772">
        <ele>757.4</ele>
        <time>2025-10-05T12:44:27Z</time>
      </trkpt>
      <trkpt lat="43.33065" lon="5.76772">
        <ele>757.1</ele>
        <time>2025-10-05T12:44:28Z</time>
      </trkpt>
      <trkpt lat="43.33065" lon="5.76772">
        <ele>757</ele>
        <time>2025-10-05T12:44:29Z</time>
      </trkpt>
      <trkpt lat="43.33065" lon="5.76773">
        <ele>756.9</ele>
        <time>2025-10-05T12:44:30Z</time>
      </trkpt>
      <trkpt lat="43.33065" lon="5.76773">
        <ele>756.7</ele>
        <time>2025-10-05T12:44:31Z</time>
      </trkpt>
      <trkpt lat="43.33065" lon="5.76773">
        <ele>756.5</ele>
        <time>2025-10-05T12:44:32Z</time>
      </trkpt>
      <trkpt lat="43.33065" lon="5.76773">
        <ele>756.4</ele>
        <time>2025-10-05T12:44:33Z</time>
      </trkpt>
      <trkpt lat="43.33066" lon="5.76773">
        <ele>756.3</ele>
        <time>2025-10-05T12:44:34Z</time>
      </trkpt>
      <trkpt lat="43.33067" lon="5.76773">
        <ele>756.2</ele>
        <time>2025-10-05T12:44:35Z</time>
      </trkpt>
      <trkpt lat="43.33067" lon="5.76773">
        <ele>756.2</ele>
        <time>2025-10-05T12:44:36Z</time>
      </trkpt>
      <trkpt lat="43.33067" lon="5.76773">
        <ele>756.1</ele>
        <time>2025-10-05T12:44:37Z</time>
      </trkpt>
      <trkpt lat="43.33067" lon="5.76772">
        <ele>756.1</ele>
        <time>2025-10-05T12:44:38Z</time>
      </trkpt>
      <trkpt lat="43.33068" lon="5.76772">
        <ele>756</ele>
        <time>2025-10-05T12:44:39Z</time>
      </trkpt>
      <trkpt lat="43.33068" lon="5.76772">
        <ele>755.9</ele>
        <time>2025-10-05T12:44:40Z</time>
      </trkpt>
      <trkpt lat="43.33068" lon="5.76772">
        <ele>755.8</ele>
        <time>2025-10-05T12:44:41Z</time>
      </trkpt>
      <trkpt lat="43.33068" lon="5.76772">
        <ele>755.7</ele>
        <time>2025-10-05T12:44:42Z</time>
      </trkpt>
      <trkpt lat="43.33069" lon="5.76772">
        <ele>755.7</ele>
        <time>2025-10-05T12:44:43Z</time>
      </trkpt>
      <trkpt lat="43.33069" lon="5.76772">
        <ele>755.7</ele>
        <time>2025-10-05T12:44:44Z</time>
      </trkpt>
      <trkpt lat="43.33069" lon="5.76772">
        <ele>755.8</ele>
        <time>2025-10-05T12:44:45Z</time>
      </trkpt>
      <trkpt lat="43.3307" lon="5.76771">
        <ele>755.9</ele>
        <time>2025-10-05T12:44:46Z</time>
      </trkpt>
      <trkpt lat="43.3307" lon="5.76771">
        <ele>756</ele>
        <time>2025-10-05T12:44:47Z</time>
      </trkpt>
      <trkpt lat="43.3307" lon="5.76771">
        <ele>756</ele>
        <time>2025-10-05T12:44:48Z</time>
      </trkpt>
      <trkpt lat="43.33071" lon="5.7677">
        <ele>756.1</ele>
        <time>2025-10-05T12:44:49Z</time>
      </trkpt>
      <trkpt lat="43.33071" lon="5.76768">
        <ele>756.1</ele>
        <time>2025-10-05T12:44:50Z</time>
      </trkpt>
      <trkpt lat="43.33071" lon="5.76767">
        <ele>756.1</ele>
        <time>2025-10-05T12:44:51Z</time>
      </trkpt>
      <trkpt lat="43.33072" lon="5.76766">
        <ele>756.1</ele>
        <time>2025-10-05T12:44:52Z</time>
      </trkpt>
      <trkpt lat="43.33072" lon="5.76766">
        <ele>756.1</ele>
        <time>2025-10-05T12:44:53Z</time>
      </trkpt>
      <trkpt lat="43.33072" lon="5.76764">
        <ele>756.2</ele>
        <time>2025-10-05T12:44:54Z</time>
      </trkpt>
      <trkpt lat="43.33072" lon="5.76763">
        <ele>756.2</ele>
        <time>2025-10-05T12:44:55Z</time>
      </trkpt>
      <trkpt lat="43.33072" lon="5.76763">
        <ele>756.3</ele>
        <time>2025-10-05T12:44:56Z</time>
      </trkpt>
      <trkpt lat="43.33072" lon="5.76762">
        <ele>756.2</ele>
        <time>2025-10-05T12:44:57Z</time>
      </trkpt>
      <trkpt lat="43.33073" lon="5.76761">
        <ele>756.2</ele>
        <time>2025-10-05T12:44:58Z</time>
      </trkpt>
      <trkpt lat="43.33073" lon="5.7676">
        <ele>756.2</ele>
        <time>2025-10-05T12:44:59Z</time>
      </trkpt>
      <trkpt lat="43.33073" lon="5.76759">
        <ele>756.1</ele>
        <time>2025-10-05T12:45:00Z</time>
      </trkpt>
      <trkpt lat="43.33074" lon="5.76758">
        <ele>756</ele>
        <time>2025-10-05T12:45:01Z</time>
      </trkpt>
      <trkpt lat="43.33074" lon="5.76757">
        <ele>756</ele>
        <time>2025-10-05T12:45:02Z</time>
      </trkpt>
      <trkpt lat="43.33074" lon="5.76756">
        <ele>756</ele>
        <time>2025-10-05T12:45:03Z</time>
      </trkpt>
      <trkpt lat="43.33075" lon="5.76754">
        <ele>755.8</ele>
        <time>2025-10-05T12:45:04Z</time>
      </trkpt>
      <trkpt lat="43.33075" lon="5.76753">
        <ele>755.6</ele>
        <time>2025-10-05T12:45:05Z</time>
      </trkpt>
      <trkpt lat="43.33075" lon="5.76752">
        <ele>755.5</ele>
        <time>2025-10-05T12:45:06Z</time>
      </trkpt>
      <trkpt lat="43.33076" lon="5.76751">
        <ele>755.3</ele>
        <time>2025-10-05T12:45:07Z</time>
      </trkpt>
      <trkpt lat="43.33076" lon="5.7675">
        <ele>755.3</ele>
        <time>2025-10-05T12:45:08Z</time>
      </trkpt>
      <trkpt lat="43.33077" lon="5.7675">
        <ele>755.2</ele>
        <time>2025-10-05T12:45:09Z</time>
      </trkpt>
      <trkpt lat="43.33077" lon="5.76749">
        <ele>755.1</ele>
        <time>2025-10-05T12:45:10Z</time>
      </trkpt>
      <trkpt lat="43.33077" lon="5.76748">
        <ele>755</ele>
        <time>2025-10-05T12:45:11Z</time>
      </trkpt>
      <trkpt lat="43.33077" lon="5.76747">
        <ele>754.9</ele>
        <time>2025-10-05T12:45:12Z</time>
      </trkpt>
      <trkpt lat="43.33078" lon="5.76746">
        <ele>754.9</ele>
        <time>2025-10-05T12:45:13Z</time>
      </trkpt>
      <trkpt lat="43.33078" lon="5.76745">
        <ele>754.7</ele>
        <time>2025-10-05T12:45:14Z</time>
      </trkpt>
      <trkpt lat="43.33078" lon="5.76744">
        <ele>754.5</ele>
        <time>2025-10-05T12:45:15Z</time>
      </trkpt>
      <trkpt lat="43.33079" lon="5.76744">
        <ele>754.3</ele>
        <time>2025-10-05T12:45:16Z</time>
      </trkpt>
      <trkpt lat="43.33079" lon="5.76742">
        <ele>754.1</ele>
        <time>2025-10-05T12:45:17Z</time>
      </trkpt>
      <trkpt lat="43.3308" lon="5.76741">
        <ele>753.9</ele>
        <time>2025-10-05T12:45:18Z</time>
      </trkpt>
      <trkpt lat="43.3308" lon="5.7674">
        <ele>753.7</ele>
        <time>2025-10-05T12:45:19Z</time>
      </trkpt>
      <trkpt lat="43.33081" lon="5.76738">
        <ele>753.5</ele>
        <time>2025-10-05T12:45:20Z</time>
      </trkpt>
      <trkpt lat="43.33081" lon="5.76737">
        <ele>753.4</ele>
        <time>2025-10-05T12:45:21Z</time>
      </trkpt>
      <trkpt lat="43.33081" lon="5.76736">
        <ele>753.3</ele>
        <time>2025-10-05T12:45:22Z</time>
      </trkpt>
      <trkpt lat="43.33082" lon="5.76735">
        <ele>753.2</ele>
        <time>2025-10-05T12:45:23Z</time>
      </trkpt>
      <trkpt lat="43.33083" lon="5.76733">
        <ele>753.1</ele>
        <time>2025-10-05T12:45:24Z</time>
      </trkpt>
      <trkpt lat="43.33083" lon="5.76732">
        <ele>752.9</ele>
        <time>2025-10-05T12:45:25Z</time>
      </trkpt>
      <trkpt lat="43.33084" lon="5.76732">
        <ele>752.7</ele>
        <time>2025-10-05T12:45:26Z</time>
      </trkpt>
      <trkpt lat="43.33084" lon="5.7673">
        <ele>752.6</ele>
        <time>2025-10-05T12:45:27Z</time>
      </trkpt>
      <trkpt lat="43.33085" lon="5.76729">
        <ele>752.4</ele>
        <time>2025-10-05T12:45:28Z</time>
      </trkpt>
      <trkpt lat="43.33085" lon="5.76728">
        <ele>752.2</ele>
        <time>2025-10-05T12:45:29Z</time>
      </trkpt>
      <trkpt lat="43.33085" lon="5.76727">
        <ele>752.1</ele>
        <time>2025-10-05T12:45:30Z</time>
      </trkpt>
      <trkpt lat="43.33085" lon="5.76725">
        <ele>751.9</ele>
        <time>2025-10-05T12:45:31Z</time>
      </trkpt>
      <trkpt lat="43.33086" lon="5.76724">
        <ele>751.8</ele>
        <time>2025-10-05T12:45:32Z</time>
      </trkpt>
      <trkpt lat="43.33086" lon="5.76723">
        <ele>751.6</ele>
        <time>2025-10-05T12:45:33Z</time>
      </trkpt>
      <trkpt lat="43.33086" lon="5.76722">
        <ele>751.5</ele>
        <time>2025-10-05T12:45:34Z</time>
      </trkpt>
      <trkpt lat="43.33087" lon="5.7672">
        <ele>751.4</ele>
        <time>2025-10-05T12:45:35Z</time>
      </trkpt>
      <trkpt lat="43.33087" lon="5.76719">
        <ele>751.2</ele>
        <time>2025-10-05T12:45:36Z</time>
      </trkpt>
      <trkpt lat="43.33088" lon="5.76718">
        <ele>751.1</ele>
        <time>2025-10-05T12:45:37Z</time>
      </trkpt>
      <trkpt lat="43.33089" lon="5.76718">
        <ele>750.8</ele>
        <time>2025-10-05T12:45:38Z</time>
      </trkpt>
      <trkpt lat="43.33089" lon="5.76717">
        <ele>750.6</ele>
        <time>2025-10-05T12:45:39Z</time>
      </trkpt>
      <trkpt lat="43.33089" lon="5.76715">
        <ele>750.5</ele>
        <time>2025-10-05T12:45:40Z</time>
      </trkpt>
      <trkpt lat="43.33089" lon="5.76714">
        <ele>750.3</ele>
        <time>2025-10-05T12:45:41Z</time>
      </trkpt>
      <trkpt lat="43.3309" lon="5.76713">
        <ele>750.1</ele>
        <time>2025-10-05T12:45:42Z</time>
      </trkpt>
      <trkpt lat="43.3309" lon="5.76712">
        <ele>750</ele>
        <time>2025-10-05T12:45:43Z</time>
      </trkpt>
      <trkpt lat="43.3309" lon="5.7671">
        <ele>750</ele>
        <time>2025-10-05T12:45:44Z</time>
      </trkpt>
      <trkpt lat="43.33091" lon="5.76709">
        <ele>749.8</ele>
        <time>2025-10-05T12:45:45Z</time>
      </trkpt>
      <trkpt lat="43.33091" lon="5.76708">
        <ele>749.7</ele>
        <time>2025-10-05T12:45:46Z</time>
      </trkpt>
      <trkpt lat="43.33092" lon="5.76706">
        <ele>749.4</ele>
        <time>2025-10-05T12:45:47Z</time>
      </trkpt>
      <trkpt lat="43.33092" lon="5.76705">
        <ele>749.2</ele>
        <time>2025-10-05T12:45:48Z</time>
      </trkpt>
      <trkpt lat="43.33093" lon="5.76704">
        <ele>749</ele>
        <time>2025-10-05T12:45:49Z</time>
      </trkpt>
      <trkpt lat="43.33093" lon="5.76703">
        <ele>748.7</ele>
        <time>2025-10-05T12:45:50Z</time>
      </trkpt>
      <trkpt lat="43.33094" lon="5.76701">
        <ele>748.5</ele>
        <time>2025-10-05T12:45:51Z</time>
      </trkpt>
      <trkpt lat="43.33094" lon="5.767">
        <ele>748.4</ele>
        <time>2025-10-05T12:45:52Z</time>
      </trkpt>
      <trkpt lat="43.33094" lon="5.76699">
        <ele>748.3</ele>
        <time>2025-10-05T12:45:53Z</time>
      </trkpt>
      <trkpt lat="43.33094" lon="5.76698">
        <ele>748.1</ele>
        <time>2025-10-05T12:45:54Z</time>
      </trkpt>
      <trkpt lat="43.33094" lon="5.76696">
        <ele>747.9</ele>
        <time>2025-10-05T12:45:55Z</time>
      </trkpt>
      <trkpt lat="43.33095" lon="5.76695">
        <ele>747.7</ele>
        <time>2025-10-05T12:45:56Z</time>
      </trkpt>
      <trkpt lat="43.33096" lon="5.76694">
        <ele>747.5</ele>
        <time>2025-10-05T12:45:57Z</time>
      </trkpt>
      <trkpt lat="43.33096" lon="5.76693">
        <ele>747.2</ele>
        <time>2025-10-05T12:45:58Z</time>
      </trkpt>
      <trkpt lat="43.33097" lon="5.76692">
        <ele>747</ele>
        <time>2025-10-05T12:45:59Z</time>
      </trkpt>
      <trkpt lat="43.33098" lon="5.76691">
        <ele>746.8</ele>
        <time>2025-10-05T12:46:00Z</time>
      </trkpt>
      <trkpt lat="43.33098" lon="5.7669">
        <ele>746.6</ele>
        <time>2025-10-05T12:46:01Z</time>
      </trkpt>
      <trkpt lat="43.33098" lon="5.76689">
        <ele>746.4</ele>
        <time>2025-10-05T12:46:02Z</time>
      </trkpt>
      <trkpt lat="43.33099" lon="5.76688">
        <ele>746.2</ele>
        <time>2025-10-05T12:46:03Z</time>
      </trkpt>
      <trkpt lat="43.33099" lon="5.76687">
        <ele>746.1</ele>
        <time>2025-10-05T12:46:04Z</time>
      </trkpt>
      <trkpt lat="43.331" lon="5.76686">
        <ele>746</ele>
        <time>2025-10-05T12:46:05Z</time>
      </trkpt>
      <trkpt lat="43.331" lon="5.76685">
        <ele>745.8</ele>
        <time>2025-10-05T12:46:06Z</time>
      </trkpt>
      <trkpt lat="43.33101" lon="5.76683">
        <ele>745.7</ele>
        <time>2025-10-05T12:46:07Z</time>
      </trkpt>
      <trkpt lat="43.33101" lon="5.76683">
        <ele>745.5</ele>
        <time>2025-10-05T12:46:08Z</time>
      </trkpt>
      <trkpt lat="43.33101" lon="5.76682">
        <ele>745.2</ele>
        <time>2025-10-05T12:46:09Z</time>
      </trkpt>
      <trkpt lat="43.33101" lon="5.76681">
        <ele>745</ele>
        <time>2025-10-05T12:46:10Z</time>
      </trkpt>
      <trkpt lat="43.33102" lon="5.76679">
        <ele>744.8</ele>
        <time>2025-10-05T12:46:11Z</time>
      </trkpt>
      <trkpt lat="43.33102" lon="5.76678">
        <ele>744.5</ele>
        <time>2025-10-05T12:46:12Z</time>
      </trkpt>
      <trkpt lat="43.33103" lon="5.76677">
        <ele>744.3</ele>
        <time>2025-10-05T12:46:13Z</time>
      </trkpt>
      <trkpt lat="43.33103" lon="5.76675">
        <ele>744.1</ele>
        <time>2025-10-05T12:46:14Z</time>
      </trkpt>
      <trkpt lat="43.33103" lon="5.76674">
        <ele>743.8</ele>
        <time>2025-10-05T12:46:15Z</time>
      </trkpt>
      <trkpt lat="43.33104" lon="5.76673">
        <ele>743.6</ele>
        <time>2025-10-05T12:46:16Z</time>
      </trkpt>
      <trkpt lat="43.33104" lon="5.76671">
        <ele>743.4</ele>
        <time>2025-10-05T12:46:17Z</time>
      </trkpt>
      <trkpt lat="43.33104" lon="5.7667">
        <ele>743.3</ele>
        <time>2025-10-05T12:46:18Z</time>
      </trkpt>
      <trkpt lat="43.33104" lon="5.76669">
        <ele>743</ele>
        <time>2025-10-05T12:46:19Z</time>
      </trkpt>
      <trkpt lat="43.33104" lon="5.76667">
        <ele>742.8</ele>
        <time>2025-10-05T12:46:20Z</time>
      </trkpt>
      <trkpt lat="43.33104" lon="5.76665">
        <ele>742.8</ele>
        <time>2025-10-05T12:46:21Z</time>
      </trkpt>
      <trkpt lat="43.33105" lon="5.76664">
        <ele>742.7</ele>
        <time>2025-10-05T12:46:22Z</time>
      </trkpt>
      <trkpt lat="43.33105" lon="5.76663">
        <ele>742.6</ele>
        <time>2025-10-05T12:46:23Z</time>
      </trkpt>
      <trkpt lat="43.33106" lon="5.76661">
        <ele>742.4</ele>
        <time>2025-10-05T12:46:24Z</time>
      </trkpt>
      <trkpt lat="43.33106" lon="5.7666">
        <ele>742.3</ele>
        <time>2025-10-05T12:46:25Z</time>
      </trkpt>
      <trkpt lat="43.33107" lon="5.76659">
        <ele>742.1</ele>
        <time>2025-10-05T12:46:26Z</time>
      </trkpt>
      <trkpt lat="43.33108" lon="5.76657">
        <ele>742</ele>
        <time>2025-10-05T12:46:27Z</time>
      </trkpt>
      <trkpt lat="43.33108" lon="5.76657">
        <ele>741.9</ele>
        <time>2025-10-05T12:46:28Z</time>
      </trkpt>
      <trkpt lat="43.33109" lon="5.76656">
        <ele>741.8</ele>
        <time>2025-10-05T12:46:29Z</time>
      </trkpt>
      <trkpt lat="43.33109" lon="5.76654">
        <ele>741.7</ele>
        <time>2025-10-05T12:46:30Z</time>
      </trkpt>
      <trkpt lat="43.33109" lon="5.76653">
        <ele>741.6</ele>
        <time>2025-10-05T12:46:31Z</time>
      </trkpt>
      <trkpt lat="43.3311" lon="5.76652">
        <ele>741.5</ele>
        <time>2025-10-05T12:46:32Z</time>
      </trkpt>
      <trkpt lat="43.3311" lon="5.76651">
        <ele>741.4</ele>
        <time>2025-10-05T12:46:33Z</time>
      </trkpt>
      <trkpt lat="43.33111" lon="5.7665">
        <ele>741.3</ele>
        <time>2025-10-05T12:46:34Z</time>
      </trkpt>
      <trkpt lat="43.33112" lon="5.7665">
        <ele>741.2</ele>
        <time>2025-10-05T12:46:35Z</time>
      </trkpt>
      <trkpt lat="43.33112" lon="5.76649">
        <ele>741</ele>
        <time>2025-10-05T12:46:36Z</time>
      </trkpt>
      <trkpt lat="43.33113" lon="5.76648">
        <ele>740.9</ele>
        <time>2025-10-05T12:46:37Z</time>
      </trkpt>
      <trkpt lat="43.33114" lon="5.76647">
        <ele>740.9</ele>
        <time>2025-10-05T12:46:38Z</time>
      </trkpt>
      <trkpt lat="43.33114" lon="5.76646">
        <ele>740.8</ele>
        <time>2025-10-05T12:46:39Z</time>
      </trkpt>
      <trkpt lat="43.33115" lon="5.76645">
        <ele>740.6</ele>
        <time>2025-10-05T12:46:40Z</time>
      </trkpt>
      <trkpt lat="43.33116" lon="5.76645">
        <ele>740.4</ele>
        <time>2025-10-05T12:46:41Z</time>
      </trkpt>
      <trkpt lat="43.33117" lon="5.76644">
        <ele>740.2</ele>
        <time>2025-10-05T12:46:42Z</time>
      </trkpt>
      <trkpt lat="43.33117" lon="5.76644">
        <ele>740</ele>
        <time>2025-10-05T12:46:43Z</time>
      </trkpt>
      <trkpt lat="43.33118" lon="5.76643">
        <ele>739.8</ele>
        <time>2025-10-05T12:46:44Z</time>
      </trkpt>
      <trkpt lat="43.33118" lon="5.76642">
        <ele>739.7</ele>
        <time>2025-10-05T12:46:45Z</time>
      </trkpt>
      <trkpt lat="43.33119" lon="5.76642">
        <ele>739.7</ele>
        <time>2025-10-05T12:46:46Z</time>
      </trkpt>
      <trkpt lat="43.3312" lon="5.76642">
        <ele>739.6</ele>
        <time>2025-10-05T12:46:47Z</time>
      </trkpt>
      <trkpt lat="43.33121" lon="5.76641">
        <ele>739.5</ele>
        <time>2025-10-05T12:46:48Z</time>
      </trkpt>
      <trkpt lat="43.33122" lon="5.7664">
        <ele>739.3</ele>
        <time>2025-10-05T12:46:49Z</time>
      </trkpt>
      <trkpt lat="43.33122" lon="5.7664">
        <ele>739.2</ele>
        <time>2025-10-05T12:46:50Z</time>
      </trkpt>
      <trkpt lat="43.33123" lon="5.76639">
        <ele>739.1</ele>
        <time>2025-10-05T12:46:51Z</time>
      </trkpt>
      <trkpt lat="43.33123" lon="5.76638">
        <ele>738.9</ele>
        <time>2025-10-05T12:46:52Z</time>
      </trkpt>
      <trkpt lat="43.33124" lon="5.76637">
        <ele>738.7</ele>
        <time>2025-10-05T12:46:53Z</time>
      </trkpt>
      <trkpt lat="43.33125" lon="5.76636">
        <ele>738.5</ele>
        <time>2025-10-05T12:46:54Z</time>
      </trkpt>
      <trkpt lat="43.33125" lon="5.76635">
        <ele>738.2</ele>
        <time>2025-10-05T12:46:55Z</time>
      </trkpt>
      <trkpt lat="43.33126" lon="5.76634">
        <ele>738</ele>
        <time>2025-10-05T12:46:56Z</time>
      </trkpt>
      <trkpt lat="43.33127" lon="5.76633">
        <ele>737.9</ele>
        <time>2025-10-05T12:46:57Z</time>
      </trkpt>
      <trkpt lat="43.33128" lon="5.76632">
        <ele>737.7</ele>
        <time>2025-10-05T12:46:58Z</time>
      </trkpt>
      <trkpt lat="43.33129" lon="5.76632">
        <ele>737.5</ele>
        <time>2025-10-05T12:46:59Z</time>
      </trkpt>
      <trkpt lat="43.3313" lon="5.76631">
        <ele>737.4</ele>
        <time>2025-10-05T12:47:00Z</time>
      </trkpt>
      <trkpt lat="43.3313" lon="5.7663">
        <ele>737.3</ele>
        <time>2025-10-05T12:47:01Z</time>
      </trkpt>
      <trkpt lat="43.3313" lon="5.76629">
        <ele>737.2</ele>
        <time>2025-10-05T12:47:02Z</time>
      </trkpt>
      <trkpt lat="43.33131" lon="5.76628">
        <ele>737.1</ele>
        <time>2025-10-05T12:47:03Z</time>
      </trkpt>
      <trkpt lat="43.33131" lon="5.76627">
        <ele>736.9</ele>
        <time>2025-10-05T12:47:04Z</time>
      </trkpt>
      <trkpt lat="43.33132" lon="5.76626">
        <ele>736.8</ele>
        <time>2025-10-05T12:47:05Z</time>
      </trkpt>
      <trkpt lat="43.33133" lon="5.76625">
        <ele>736.6</ele>
        <time>2025-10-05T12:47:06Z</time>
      </trkpt>
      <trkpt lat="43.33134" lon="5.76625">
        <ele>736.4</ele>
        <time>2025-10-05T12:47:07Z</time>
      </trkpt>
      <trkpt lat="43.33135" lon="5.76624">
        <ele>736.2</ele>
        <time>2025-10-05T12:47:08Z</time>
      </trkpt>
      <trkpt lat="43.33135" lon="5.76623">
        <ele>736</ele>
        <time>2025-10-05T12:47:09Z</time>
      </trkpt>
      <trkpt lat="43.33136" lon="5.76622">
        <ele>735.9</ele>
        <time>2025-10-05T12:47:10Z</time>
      </trkpt>
      <trkpt lat="43.33136" lon="5.7662">
        <ele>735.7</ele>
        <time>2025-10-05T12:47:11Z</time>
      </trkpt>
      <trkpt lat="43.33137" lon="5.76619">
        <ele>735.5</ele>
        <time>2025-10-05T12:47:12Z</time>
      </trkpt>
      <trkpt lat="43.33138" lon="5.76618">
        <ele>735.3</ele>
        <time>2025-10-05T12:47:13Z</time>
      </trkpt>
      <trkpt lat="43.33138" lon="5.76616">
        <ele>735.1</ele>
        <time>2025-10-05T12:47:14Z</time>
      </trkpt>
      <trkpt lat="43.33138" lon="5.76615">
        <ele>735</ele>
        <time>2025-10-05T12:47:15Z</time>
      </trkpt>
      <trkpt lat="43.33139" lon="5.76614">
        <ele>734.8</ele>
        <time>2025-10-05T12:47:16Z</time>
      </trkpt>
      <trkpt lat="43.3314" lon="5.76614">
        <ele>734.6</ele>
        <time>2025-10-05T12:47:17Z</time>
      </trkpt>
      <trkpt lat="43.33141" lon="5.76613">
        <ele>734.4</ele>
        <time>2025-10-05T12:47:18Z</time>
      </trkpt>
      <trkpt lat="43.33141" lon="5.76612">
        <ele>734.2</ele>
        <time>2025-10-05T12:47:19Z</time>
      </trkpt>
      <trkpt lat="43.33142" lon="5.76611">
        <ele>734.1</ele>
        <time>2025-10-05T12:47:20Z</time>
      </trkpt>
      <trkpt lat="43.33143" lon="5.7661">
        <ele>734</ele>
        <time>2025-10-05T12:47:21Z</time>
      </trkpt>
      <trkpt lat="43.33144" lon="5.76609">
        <ele>733.9</ele>
        <time>2025-10-05T12:47:22Z</time>
      </trkpt>
      <trkpt lat="43.33145" lon="5.76609">
        <ele>733.8</ele>
        <time>2025-10-05T12:47:23Z</time>
      </trkpt>
      <trkpt lat="43.33145" lon="5.76608">
        <ele>733.7</ele>
        <time>2025-10-05T12:47:24Z</time>
      </trkpt>
      <trkpt lat="43.33146" lon="5.76607">
        <ele>733.6</ele>
        <time>2025-10-05T12:47:25Z</time>
      </trkpt>
      <trkpt lat="43.33147" lon="5.76606">
        <ele>733.4</ele>
        <time>2025-10-05T12:47:26Z</time>
      </trkpt>
      <trkpt lat="43.33147" lon="5.76605">
        <ele>733.3</ele>
        <time>2025-10-05T12:47:27Z</time>
      </trkpt>
      <trkpt lat="43.33147" lon="5.76604">
        <ele>733.3</ele>
        <time>2025-10-05T12:47:28Z</time>
      </trkpt>
      <trkpt lat="43.33148" lon="5.76603">
        <ele>733.2</ele>
        <time>2025-10-05T12:47:29Z</time>
      </trkpt>
      <trkpt lat="43.33148" lon="5.76602">
        <ele>733.2</ele>
        <time>2025-10-05T12:47:30Z</time>
      </trkpt>
      <trkpt lat="43.33149" lon="5.76602">
        <ele>733</ele>
        <time>2025-10-05T12:47:31Z</time>
      </trkpt>
      <trkpt lat="43.3315" lon="5.76601">
        <ele>732.8</ele>
        <time>2025-10-05T12:47:32Z</time>
      </trkpt>
      <trkpt lat="43.33151" lon="5.76601">
        <ele>732.7</ele>
        <time>2025-10-05T12:47:33Z</time>
      </trkpt>
      <trkpt lat="43.33151" lon="5.766">
        <ele>732.4</ele>
        <time>2025-10-05T12:47:34Z</time>
      </trkpt>
      <trkpt lat="43.33152" lon="5.76599">
        <ele>732.3</ele>
        <time>2025-10-05T12:47:35Z</time>
      </trkpt>
      <trkpt lat="43.33153" lon="5.76599">
        <ele>732.2</ele>
        <time>2025-10-05T12:47:36Z</time>
      </trkpt>
      <trkpt lat="43.33154" lon="5.76599">
        <ele>732.1</ele>
        <time>2025-10-05T12:47:37Z</time>
      </trkpt>
      <trkpt lat="43.33155" lon="5.76598">
        <ele>732</ele>
        <time>2025-10-05T12:47:38Z</time>
      </trkpt>
      <trkpt lat="43.33155" lon="5.76597">
        <ele>731.8</ele>
        <time>2025-10-05T12:47:39Z</time>
      </trkpt>
      <trkpt lat="43.33156" lon="5.76596">
        <ele>731.6</ele>
        <time>2025-10-05T12:47:40Z</time>
      </trkpt>
      <trkpt lat="43.33157" lon="5.76595">
        <ele>731.4</ele>
        <time>2025-10-05T12:47:41Z</time>
      </trkpt>
      <trkpt lat="43.33158" lon="5.76594">
        <ele>731.2</ele>
        <time>2025-10-05T12:47:42Z</time>
      </trkpt>
      <trkpt lat="43.33158" lon="5.76593">
        <ele>731.1</ele>
        <time>2025-10-05T12:47:43Z</time>
      </trkpt>
      <trkpt lat="43.33159" lon="5.76592">
        <ele>730.9</ele>
        <time>2025-10-05T12:47:44Z</time>
      </trkpt>
      <trkpt lat="43.33161" lon="5.76591">
        <ele>730.7</ele>
        <time>2025-10-05T12:47:45Z</time>
      </trkpt>
      <trkpt lat="43.33161" lon="5.7659">
        <ele>730.4</ele>
        <time>2025-10-05T12:47:46Z</time>
      </trkpt>
      <trkpt lat="43.33162" lon="5.76589">
        <ele>730.2</ele>
        <time>2025-10-05T12:47:47Z</time>
      </trkpt>
      <trkpt lat="43.33163" lon="5.76588">
        <ele>730</ele>
        <time>2025-10-05T12:47:48Z</time>
      </trkpt>
      <trkpt lat="43.33163" lon="5.76587">
        <ele>729.9</ele>
        <time>2025-10-05T12:47:49Z</time>
      </trkpt>
      <trkpt lat="43.33164" lon="5.76586">
        <ele>729.7</ele>
        <time>2025-10-05T12:47:50Z</time>
      </trkpt>
      <trkpt lat="43.33164" lon="5.76586">
        <ele>729.8</ele>
        <time>2025-10-05T12:47:51Z</time>
      </trkpt>
      <trkpt lat="43.33165" lon="5.76585">
        <ele>729.7</ele>
        <time>2025-10-05T12:47:52Z</time>
      </trkpt>
      <trkpt lat="43.33165" lon="5.76584">
        <ele>729.6</ele>
        <time>2025-10-05T12:47:53Z</time>
      </trkpt>
      <trkpt lat="43.33166" lon="5.76583">
        <ele>729.4</ele>
        <time>2025-10-05T12:47:54Z</time>
      </trkpt>
      <trkpt lat="43.33166" lon="5.76582">
        <ele>729.3</ele>
        <time>2025-10-05T12:47:55Z</time>
      </trkpt>
      <trkpt lat="43.33168" lon="5.76582">
        <ele>729.1</ele>
        <time>2025-10-05T12:47:56Z</time>
      </trkpt>
      <trkpt lat="43.33169" lon="5.76581">
        <ele>729</ele>
        <time>2025-10-05T12:47:57Z</time>
      </trkpt>
      <trkpt lat="43.3317" lon="5.7658">
        <ele>728.8</ele>
        <time>2025-10-05T12:47:58Z</time>
      </trkpt>
      <trkpt lat="43.3317" lon="5.76579">
        <ele>728.7</ele>
        <time>2025-10-05T12:47:59Z</time>
      </trkpt>
      <trkpt lat="43.33171" lon="5.76578">
        <ele>728.6</ele>
        <time>2025-10-05T12:48:00Z</time>
      </trkpt>
      <trkpt lat="43.33172" lon="5.76578">
        <ele>728.5</ele>
        <time>2025-10-05T12:48:01Z</time>
      </trkpt>
      <trkpt lat="43.33173" lon="5.76577">
        <ele>728.2</ele>
        <time>2025-10-05T12:48:02Z</time>
      </trkpt>
      <trkpt lat="43.33174" lon="5.76576">
        <ele>728</ele>
        <time>2025-10-05T12:48:03Z</time>
      </trkpt>
      <trkpt lat="43.33175" lon="5.76576">
        <ele>727.9</ele>
        <time>2025-10-05T12:48:04Z</time>
      </trkpt>
      <trkpt lat="43.33175" lon="5.76575">
        <ele>727.7</ele>
        <time>2025-10-05T12:48:05Z</time>
      </trkpt>
      <trkpt lat="43.33176" lon="5.76574">
        <ele>727.4</ele>
        <time>2025-10-05T12:48:06Z</time>
      </trkpt>
      <trkpt lat="43.33177" lon="5.76573">
        <ele>727.3</ele>
        <time>2025-10-05T12:48:07Z</time>
      </trkpt>
      <trkpt lat="43.33177" lon="5.76572">
        <ele>727.1</ele>
        <time>2025-10-05T12:48:08Z</time>
      </trkpt>
      <trkpt lat="43.33178" lon="5.76571">
        <ele>726.9</ele>
        <time>2025-10-05T12:48:09Z</time>
      </trkpt>
      <trkpt lat="43.33179" lon="5.7657">
        <ele>726.7</ele>
        <time>2025-10-05T12:48:10Z</time>
      </trkpt>
      <trkpt lat="43.3318" lon="5.7657">
        <ele>726.6</ele>
        <time>2025-10-05T12:48:11Z</time>
      </trkpt>
      <trkpt lat="43.33181" lon="5.76569">
        <ele>726.4</ele>
        <time>2025-10-05T12:48:12Z</time>
      </trkpt>
      <trkpt lat="43.33182" lon="5.76568">
        <ele>726.3</ele>
        <time>2025-10-05T12:48:13Z</time>
      </trkpt>
      <trkpt lat="43.33182" lon="5.76567">
        <ele>726.2</ele>
        <time>2025-10-05T12:48:14Z</time>
      </trkpt>
      <trkpt lat="43.33183" lon="5.76566">
        <ele>726.1</ele>
        <time>2025-10-05T12:48:15Z</time>
      </trkpt>
      <trkpt lat="43.33184" lon="5.76565">
        <ele>726</ele>
        <time>2025-10-05T12:48:16Z</time>
      </trkpt>
      <trkpt lat="43.33184" lon="5.76564">
        <ele>725.9</ele>
        <time>2025-10-05T12:48:17Z</time>
      </trkpt>
      <trkpt lat="43.33185" lon="5.76563">
        <ele>725.6</ele>
        <time>2025-10-05T12:48:18Z</time>
      </trkpt>
      <trkpt lat="43.33186" lon="5.76563">
        <ele>725.4</ele>
        <time>2025-10-05T12:48:19Z</time>
      </trkpt>
      <trkpt lat="43.33187" lon="5.76562">
        <ele>725.2</ele>
        <time>2025-10-05T12:48:20Z</time>
      </trkpt>
      <trkpt lat="43.33188" lon="5.76561">
        <ele>725</ele>
        <time>2025-10-05T12:48:21Z</time>
      </trkpt>
      <trkpt lat="43.33188" lon="5.76559">
        <ele>724.9</ele>
        <time>2025-10-05T12:48:22Z</time>
      </trkpt>
      <trkpt lat="43.33188" lon="5.76558">
        <ele>724.7</ele>
        <time>2025-10-05T12:48:23Z</time>
      </trkpt>
      <trkpt lat="43.33189" lon="5.76558">
        <ele>724.5</ele>
        <time>2025-10-05T12:48:24Z</time>
      </trkpt>
      <trkpt lat="43.3319" lon="5.76556">
        <ele>724.3</ele>
        <time>2025-10-05T12:48:25Z</time>
      </trkpt>
      <trkpt lat="43.33191" lon="5.76554">
        <ele>724.1</ele>
        <time>2025-10-05T12:48:26Z</time>
      </trkpt>
      <trkpt lat="43.33191" lon="5.76553">
        <ele>723.8</ele>
        <time>2025-10-05T12:48:27Z</time>
      </trkpt>
      <trkpt lat="43.33192" lon="5.76552">
        <ele>723.6</ele>
        <time>2025-10-05T12:48:28Z</time>
      </trkpt>
      <trkpt lat="43.33193" lon="5.76551">
        <ele>723.4</ele>
        <time>2025-10-05T12:48:29Z</time>
      </trkpt>
      <trkpt lat="43.33193" lon="5.7655">
        <ele>723.3</ele>
        <time>2025-10-05T12:48:30Z</time>
      </trkpt>
      <trkpt lat="43.33194" lon="5.76549">
        <ele>723.1</ele>
        <time>2025-10-05T12:48:31Z</time>
      </trkpt>
      <trkpt lat="43.33195" lon="5.76548">
        <ele>722.9</ele>
        <time>2025-10-05T12:48:32Z</time>
      </trkpt>
      <trkpt lat="43.33195" lon="5.76547">
        <ele>722.7</ele>
        <time>2025-10-05T12:48:33Z</time>
      </trkpt>
      <trkpt lat="43.33196" lon="5.76546">
        <ele>722.5</ele>
        <time>2025-10-05T12:48:34Z</time>
      </trkpt>
      <trkpt lat="43.33197" lon="5.76545">
        <ele>722.3</ele>
        <time>2025-10-05T12:48:35Z</time>
      </trkpt>
      <trkpt lat="43.33197" lon="5.76545">
        <ele>722.2</ele>
        <time>2025-10-05T12:48:36Z</time>
      </trkpt>
      <trkpt lat="43.33198" lon="5.76543">
        <ele>722</ele>
        <time>2025-10-05T12:48:37Z</time>
      </trkpt>
      <trkpt lat="43.33199" lon="5.76541">
        <ele>722</ele>
        <time>2025-10-05T12:48:38Z</time>
      </trkpt>
      <trkpt lat="43.332" lon="5.7654">
        <ele>721.9</ele>
        <time>2025-10-05T12:48:39Z</time>
      </trkpt>
      <trkpt lat="43.33201" lon="5.76539">
        <ele>721.8</ele>
        <time>2025-10-05T12:48:40Z</time>
      </trkpt>
      <trkpt lat="43.33201" lon="5.76538">
        <ele>721.7</ele>
        <time>2025-10-05T12:48:41Z</time>
      </trkpt>
      <trkpt lat="43.33202" lon="5.76537">
        <ele>721.5</ele>
        <time>2025-10-05T12:48:42Z</time>
      </trkpt>
      <trkpt lat="43.33203" lon="5.76537">
        <ele>721.3</ele>
        <time>2025-10-05T12:48:43Z</time>
      </trkpt>
      <trkpt lat="43.33204" lon="5.76536">
        <ele>721</ele>
        <time>2025-10-05T12:48:44Z</time>
      </trkpt>
      <trkpt lat="43.33205" lon="5.76536">
        <ele>720.8</ele>
        <time>2025-10-05T12:48:45Z</time>
      </trkpt>
      <trkpt lat="43.33206" lon="5.76535">
        <ele>720.7</ele>
        <time>2025-10-05T12:48:46Z</time>
      </trkpt>
      <trkpt lat="43.33207" lon="5.76534">
        <ele>720.5</ele>
        <time>2025-10-05T12:48:47Z</time>
      </trkpt>
      <trkpt lat="43.33208" lon="5.76534">
        <ele>720.3</ele>
        <time>2025-10-05T12:48:48Z</time>
      </trkpt>
      <trkpt lat="43.33209" lon="5.76533">
        <ele>720.1</ele>
        <time>2025-10-05T12:48:49Z</time>
      </trkpt>
      <trkpt lat="43.3321" lon="5.76532">
        <ele>719.9</ele>
        <time>2025-10-05T12:48:50Z</time>
      </trkpt>
      <trkpt lat="43.33211" lon="5.76532">
        <ele>719.7</ele>
        <time>2025-10-05T12:48:51Z</time>
      </trkpt>
      <trkpt lat="43.33212" lon="5.76531">
        <ele>719.6</ele>
        <time>2025-10-05T12:48:52Z</time>
      </trkpt>
      <trkpt lat="43.33213" lon="5.76529">
        <ele>719.3</ele>
        <time>2025-10-05T12:48:53Z</time>
      </trkpt>
      <trkpt lat="43.33214" lon="5.76528">
        <ele>719.1</ele>
        <time>2025-10-05T12:48:54Z</time>
      </trkpt>
      <trkpt lat="43.33215" lon="5.76527">
        <ele>718.9</ele>
        <time>2025-10-05T12:48:55Z</time>
      </trkpt>
      <trkpt lat="43.33215" lon="5.76527">
        <ele>718.7</ele>
        <time>2025-10-05T12:48:56Z</time>
      </trkpt>
      <trkpt lat="43.33216" lon="5.76527">
        <ele>718.6</ele>
        <time>2025-10-05T12:48:57Z</time>
      </trkpt>
      <trkpt lat="43.33217" lon="5.76526">
        <ele>718.6</ele>
        <time>2025-10-05T12:48:58Z</time>
      </trkpt>
      <trkpt lat="43.33218" lon="5.76525">
        <ele>718.5</ele>
        <time>2025-10-05T12:48:59Z</time>
      </trkpt>
      <trkpt lat="43.33219" lon="5.76524">
        <ele>718.5</ele>
        <time>2025-10-05T12:49:00Z</time>
      </trkpt>
      <trkpt lat="43.3322" lon="5.76523">
        <ele>718.4</ele>
        <time>2025-10-05T12:49:01Z</time>
      </trkpt>
      <trkpt lat="43.33221" lon="5.76522">
        <ele>718.3</ele>
        <time>2025-10-05T12:49:02Z</time>
      </trkpt>
      <trkpt lat="43.33221" lon="5.76521">
        <ele>718.2</ele>
        <time>2025-10-05T12:49:03Z</time>
      </trkpt>
      <trkpt lat="43.33223" lon="5.76521">
        <ele>718.1</ele>
        <time>2025-10-05T12:49:04Z</time>
      </trkpt>
      <trkpt lat="43.33223" lon="5.76519">
        <ele>717.9</ele>
        <time>2025-10-05T12:49:05Z</time>
      </trkpt>
      <trkpt lat="43.33223" lon="5.76518">
        <ele>717.8</ele>
        <time>2025-10-05T12:49:06Z</time>
      </trkpt>
      <trkpt lat="43.33224" lon="5.76517">
        <ele>717.6</ele>
        <time>2025-10-05T12:49:07Z</time>
      </trkpt>
      <trkpt lat="43.33225" lon="5.76517">
        <ele>717.5</ele>
        <time>2025-10-05T12:49:08Z</time>
      </trkpt>
      <trkpt lat="43.33226" lon="5.76516">
        <ele>717.4</ele>
        <time>2025-10-05T12:49:09Z</time>
      </trkpt>
      <trkpt lat="43.33226" lon="5.76515">
        <ele>717.4</ele>
        <time>2025-10-05T12:49:10Z</time>
      </trkpt>
      <trkpt lat="43.33228" lon="5.76514">
        <ele>717.3</ele>
        <time>2025-10-05T12:49:11Z</time>
      </trkpt>
      <trkpt lat="43.33229" lon="5.76513">
        <ele>717.2</ele>
        <time>2025-10-05T12:49:12Z</time>
      </trkpt>
      <trkpt lat="43.33229" lon="5.76512">
        <ele>717.1</ele>
        <time>2025-10-05T12:49:13Z</time>
      </trkpt>
      <trkpt lat="43.3323" lon="5.76512">
        <ele>717</ele>
        <time>2025-10-05T12:49:14Z</time>
      </trkpt>
      <trkpt lat="43.33231" lon="5.76512">
        <ele>716.9</ele>
        <time>2025-10-05T12:49:15Z</time>
      </trkpt>
      <trkpt lat="43.33232" lon="5.7651">
        <ele>716.8</ele>
        <time>2025-10-05T12:49:16Z</time>
      </trkpt>
      <trkpt lat="43.33233" lon="5.76509">
        <ele>716.7</ele>
        <time>2025-10-05T12:49:17Z</time>
      </trkpt>
      <trkpt lat="43.33234" lon="5.76509">
        <ele>716.6</ele>
        <time>2025-10-05T12:49:18Z</time>
      </trkpt>
      <trkpt lat="43.33235" lon="5.76508">
        <ele>716.5</ele>
        <time>2025-10-05T12:49:19Z</time>
      </trkpt>
      <trkpt lat="43.33235" lon="5.76507">
        <ele>716.4</ele>
        <time>2025-10-05T12:49:20Z</time>
      </trkpt>
      <trkpt lat="43.33236" lon="5.76507">
        <ele>716.4</ele>
        <time>2025-10-05T12:49:21Z</time>
      </trkpt>
      <trkpt lat="43.33237" lon="5.76507">
        <ele>716.4</ele>
        <time>2025-10-05T12:49:22Z</time>
      </trkpt>
      <trkpt lat="43.33238" lon="5.76507">
        <ele>716.4</ele>
        <time>2025-10-05T12:49:23Z</time>
      </trkpt>
      <trkpt lat="43.33239" lon="5.76507">
        <ele>716.4</ele>
        <time>2025-10-05T12:49:24Z</time>
      </trkpt>
      <trkpt lat="43.33241" lon="5.76507">
        <ele>716.4</ele>
        <time>2025-10-05T12:49:25Z</time>
      </trkpt>
      <trkpt lat="43.33242" lon="5.76506">
        <ele>716.3</ele>
        <time>2025-10-05T12:49:26Z</time>
      </trkpt>
      <trkpt lat="43.33243" lon="5.76505">
        <ele>716.3</ele>
        <time>2025-10-05T12:49:27Z</time>
      </trkpt>
      <trkpt lat="43.33244" lon="5.76504">
        <ele>716.3</ele>
        <time>2025-10-05T12:49:28Z</time>
      </trkpt>
      <trkpt lat="43.33245" lon="5.76503">
        <ele>716.3</ele>
        <time>2025-10-05T12:49:29Z</time>
      </trkpt>
      <trkpt lat="43.33247" lon="5.76502">
        <ele>716.2</ele>
        <time>2025-10-05T12:49:30Z</time>
      </trkpt>
      <trkpt lat="43.33248" lon="5.76501">
        <ele>716.2</ele>
        <time>2025-10-05T12:49:31Z</time>
      </trkpt>
      <trkpt lat="43.33249" lon="5.76501">
        <ele>716.1</ele>
        <time>2025-10-05T12:49:32Z</time>
      </trkpt>
      <trkpt lat="43.3325" lon="5.765">
        <ele>716.1</ele>
        <time>2025-10-05T12:49:33Z</time>
      </trkpt>
      <trkpt lat="43.3325" lon="5.765">
        <ele>716</ele>
        <time>2025-10-05T12:49:34Z</time>
      </trkpt>
      <trkpt lat="43.3325" lon="5.765">
        <ele>715.9</ele>
        <time>2025-10-05T12:49:35Z</time>
      </trkpt>
      <trkpt lat="43.33251" lon="5.765">
        <ele>715.8</ele>
        <time>2025-10-05T12:49:36Z</time>
      </trkpt>
      <trkpt lat="43.33252" lon="5.76499">
        <ele>715.8</ele>
        <time>2025-10-05T12:49:37Z</time>
      </trkpt>
      <trkpt lat="43.33253" lon="5.76498">
        <ele>715.8</ele>
        <time>2025-10-05T12:49:38Z</time>
      </trkpt>
      <trkpt lat="43.33254" lon="5.76498">
        <ele>715.8</ele>
        <time>2025-10-05T12:49:39Z</time>
      </trkpt>
      <trkpt lat="43.33254" lon="5.76496">
        <ele>715.6</ele>
        <time>2025-10-05T12:49:40Z</time>
      </trkpt>
      <trkpt lat="43.33256" lon="5.76495">
        <ele>715.5</ele>
        <time>2025-10-05T12:49:41Z</time>
      </trkpt>
      <trkpt lat="43.33256" lon="5.76494">
        <ele>715.5</ele>
        <time>2025-10-05T12:49:42Z</time>
      </trkpt>
      <trkpt lat="43.33257" lon="5.76494">
        <ele>715.5</ele>
        <time>2025-10-05T12:49:43Z</time>
      </trkpt>
      <trkpt lat="43.33259" lon="5.76493">
        <ele>715.5</ele>
        <time>2025-10-05T12:49:44Z</time>
      </trkpt>
      <trkpt lat="43.33259" lon="5.76492">
        <ele>715.5</ele>
        <time>2025-10-05T12:49:45Z</time>
      </trkpt>
      <trkpt lat="43.3326" lon="5.76492">
        <ele>715.4</ele>
        <time>2025-10-05T12:49:46Z</time>
      </trkpt>
      <trkpt lat="43.33262" lon="5.76492">
        <ele>715.3</ele>
        <time>2025-10-05T12:49:47Z</time>
      </trkpt>
      <trkpt lat="43.33263" lon="5.76492">
        <ele>715.3</ele>
        <time>2025-10-05T12:49:48Z</time>
      </trkpt>
      <trkpt lat="43.33264" lon="5.76492">
        <ele>715.2</ele>
        <time>2025-10-05T12:49:49Z</time>
      </trkpt>
      <trkpt lat="43.33265" lon="5.76493">
        <ele>715.1</ele>
        <time>2025-10-05T12:49:50Z</time>
      </trkpt>
      <trkpt lat="43.33267" lon="5.76494">
        <ele>715.1</ele>
        <time>2025-10-05T12:49:51Z</time>
      </trkpt>
      <trkpt lat="43.33268" lon="5.76494">
        <ele>714.9</ele>
        <time>2025-10-05T12:49:52Z</time>
      </trkpt>
      <trkpt lat="43.33269" lon="5.76494">
        <ele>714.8</ele>
        <time>2025-10-05T12:49:53Z</time>
      </trkpt>
      <trkpt lat="43.3327" lon="5.76494">
        <ele>714.6</ele>
        <time>2025-10-05T12:49:54Z</time>
      </trkpt>
      <trkpt lat="43.33271" lon="5.76494">
        <ele>714.5</ele>
        <time>2025-10-05T12:49:55Z</time>
      </trkpt>
      <trkpt lat="43.33272" lon="5.76495">
        <ele>714.5</ele>
        <time>2025-10-05T12:49:56Z</time>
      </trkpt>
      <trkpt lat="43.33272" lon="5.76495">
        <ele>714.3</ele>
        <time>2025-10-05T12:49:57Z</time>
      </trkpt>
      <trkpt lat="43.33273" lon="5.76496">
        <ele>714.1</ele>
        <time>2025-10-05T12:49:58Z</time>
      </trkpt>
      <trkpt lat="43.33274" lon="5.76497">
        <ele>714</ele>
        <time>2025-10-05T12:49:59Z</time>
      </trkpt>
      <trkpt lat="43.33275" lon="5.76498">
        <ele>713.9</ele>
        <time>2025-10-05T12:50:00Z</time>
      </trkpt>
      <trkpt lat="43.33276" lon="5.76499">
        <ele>713.8</ele>
        <time>2025-10-05T12:50:01Z</time>
      </trkpt>
      <trkpt lat="43.33276" lon="5.76499">
        <ele>713.8</ele>
        <time>2025-10-05T12:50:02Z</time>
      </trkpt>
      <trkpt lat="43.33278" lon="5.76499">
        <ele>713.7</ele>
        <time>2025-10-05T12:50:03Z</time>
      </trkpt>
      <trkpt lat="43.33279" lon="5.765">
        <ele>713.7</ele>
        <time>2025-10-05T12:50:04Z</time>
      </trkpt>
      <trkpt lat="43.3328" lon="5.765">
        <ele>713.6</ele>
        <time>2025-10-05T12:50:05Z</time>
      </trkpt>
      <trkpt lat="43.33281" lon="5.765">
        <ele>713.4</ele>
        <time>2025-10-05T12:50:06Z</time>
      </trkpt>
      <trkpt lat="43.33283" lon="5.765">
        <ele>713.3</ele>
        <time>2025-10-05T12:50:07Z</time>
      </trkpt>
      <trkpt lat="43.33284" lon="5.76501">
        <ele>713.2</ele>
        <time>2025-10-05T12:50:08Z</time>
      </trkpt>
      <trkpt lat="43.33285" lon="5.76502">
        <ele>713</ele>
        <time>2025-10-05T12:50:09Z</time>
      </trkpt>
      <trkpt lat="43.33286" lon="5.76503">
        <ele>712.9</ele>
        <time>2025-10-05T12:50:10Z</time>
      </trkpt>
      <trkpt lat="43.33287" lon="5.76504">
        <ele>712.9</ele>
        <time>2025-10-05T12:50:11Z</time>
      </trkpt>
      <trkpt lat="43.33288" lon="5.76504">
        <ele>712.9</ele>
        <time>2025-10-05T12:50:12Z</time>
      </trkpt>
      <trkpt lat="43.33289" lon="5.76506">
        <ele>712.9</ele>
        <time>2025-10-05T12:50:13Z</time>
      </trkpt>
      <trkpt lat="43.3329" lon="5.76506">
        <ele>712.8</ele>
        <time>2025-10-05T12:50:14Z</time>
      </trkpt>
      <trkpt lat="43.33291" lon="5.76507">
        <ele>712.7</ele>
        <time>2025-10-05T12:50:15Z</time>
      </trkpt>
      <trkpt lat="43.33292" lon="5.76507">
        <ele>712.6</ele>
        <time>2025-10-05T12:50:16Z</time>
      </trkpt>
      <trkpt lat="43.33293" lon="5.76508">
        <ele>712.5</ele>
        <time>2025-10-05T12:50:17Z</time>
      </trkpt>
      <trkpt lat="43.33294" lon="5.76508">
        <ele>712.4</ele>
        <time>2025-10-05T12:50:18Z</time>
      </trkpt>
      <trkpt lat="43.33295" lon="5.76509">
        <ele>712.2</ele>
        <time>2025-10-05T12:50:19Z</time>
      </trkpt>
      <trkpt lat="43.33296" lon="5.7651">
        <ele>712.1</ele>
        <time>2025-10-05T12:50:20Z</time>
      </trkpt>
      <trkpt lat="43.33297" lon="5.7651">
        <ele>712.1</ele>
        <time>2025-10-05T12:50:21Z</time>
      </trkpt>
      <trkpt lat="43.33298" lon="5.76511">
        <ele>712</ele>
        <time>2025-10-05T12:50:22Z</time>
      </trkpt>
      <trkpt lat="43.33298" lon="5.76511">
        <ele>711.8</ele>
        <time>2025-10-05T12:50:23Z</time>
      </trkpt>
      <trkpt lat="43.33299" lon="5.76512">
        <ele>711.6</ele>
        <time>2025-10-05T12:50:24Z</time>
      </trkpt>
      <trkpt lat="43.33299" lon="5.76512">
        <ele>711.5</ele>
        <time>2025-10-05T12:50:25Z</time>
      </trkpt>
      <trkpt lat="43.333" lon="5.76512">
        <ele>711.5</ele>
        <time>2025-10-05T12:50:26Z</time>
      </trkpt>
      <trkpt lat="43.33301" lon="5.76512">
        <ele>711.4</ele>
        <time>2025-10-05T12:50:27Z</time>
      </trkpt>
      <trkpt lat="43.33302" lon="5.76513">
        <ele>711.2</ele>
        <time>2025-10-05T12:50:28Z</time>
      </trkpt>
      <trkpt lat="43.33302" lon="5.76514">
        <ele>711.1</ele>
        <time>2025-10-05T12:50:29Z</time>
      </trkpt>
      <trkpt lat="43.33302" lon="5.76514">
        <ele>711</ele>
        <time>2025-10-05T12:50:30Z</time>
      </trkpt>
      <trkpt lat="43.33303" lon="5.76514">
        <ele>710.8</ele>
        <time>2025-10-05T12:50:31Z</time>
      </trkpt>
      <trkpt lat="43.33303" lon="5.76515">
        <ele>710.6</ele>
        <time>2025-10-05T12:50:32Z</time>
      </trkpt>
      <trkpt lat="43.33304" lon="5.76516">
        <ele>710.4</ele>
        <time>2025-10-05T12:50:33Z</time>
      </trkpt>
      <trkpt lat="43.33304" lon="5.76517">
        <ele>710.2</ele>
        <time>2025-10-05T12:50:34Z</time>
      </trkpt>
      <trkpt lat="43.33305" lon="5.76518">
        <ele>709.9</ele>
        <time>2025-10-05T12:50:35Z</time>
      </trkpt>
      <trkpt lat="43.33306" lon="5.7652">
        <ele>709.8</ele>
        <time>2025-10-05T12:50:36Z</time>
      </trkpt>
      <trkpt lat="43.33306" lon="5.76521">
        <ele>709.5</ele>
        <time>2025-10-05T12:50:37Z</time>
      </trkpt>
      <trkpt lat="43.33307" lon="5.76521">
        <ele>709.2</ele>
        <time>2025-10-05T12:50:38Z</time>
      </trkpt>
      <trkpt lat="43.33307" lon="5.76522">
        <ele>709.1</ele>
        <time>2025-10-05T12:50:39Z</time>
      </trkpt>
      <trkpt lat="43.33308" lon="5.76522">
        <ele>708.8</ele>
        <time>2025-10-05T12:50:40Z</time>
      </trkpt>
      <trkpt lat="43.33309" lon="5.76522">
        <ele>708.7</ele>
        <time>2025-10-05T12:50:41Z</time>
      </trkpt>
      <trkpt lat="43.33309" lon="5.76523">
        <ele>708.5</ele>
        <time>2025-10-05T12:50:42Z</time>
      </trkpt>
      <trkpt lat="43.3331" lon="5.76524">
        <ele>708.4</ele>
        <time>2025-10-05T12:50:43Z</time>
      </trkpt>
      <trkpt lat="43.3331" lon="5.76526">
        <ele>708.3</ele>
        <time>2025-10-05T12:50:44Z</time>
      </trkpt>
      <trkpt lat="43.33311" lon="5.76527">
        <ele>708.2</ele>
        <time>2025-10-05T12:50:45Z</time>
      </trkpt>
      <trkpt lat="43.33313" lon="5.76528">
        <ele>708.1</ele>
        <time>2025-10-05T12:50:46Z</time>
      </trkpt>
      <trkpt lat="43.33314" lon="5.76529">
        <ele>708</ele>
        <time>2025-10-05T12:50:47Z</time>
      </trkpt>
      <trkpt lat="43.33315" lon="5.76529">
        <ele>707.9</ele>
        <time>2025-10-05T12:50:48Z</time>
      </trkpt>
      <trkpt lat="43.33315" lon="5.76529">
        <ele>707.8</ele>
        <time>2025-10-05T12:50:49Z</time>
      </trkpt>
      <trkpt lat="43.33316" lon="5.7653">
        <ele>707.7</ele>
        <time>2025-10-05T12:50:50Z</time>
      </trkpt>
      <trkpt lat="43.33317" lon="5.76531">
        <ele>707.7</ele>
        <time>2025-10-05T12:50:51Z</time>
      </trkpt>
      <trkpt lat="43.33317" lon="5.76532">
        <ele>707.6</ele>
        <time>2025-10-05T12:50:52Z</time>
      </trkpt>
      <trkpt lat="43.33318" lon="5.76533">
        <ele>707.6</ele>
        <time>2025-10-05T12:50:53Z</time>
      </trkpt>
      <trkpt lat="43.33319" lon="5.76534">
        <ele>707.5</ele>
        <time>2025-10-05T12:50:54Z</time>
      </trkpt>
      <trkpt lat="43.33319" lon="5.76536">
        <ele>707.4</ele>
        <time>2025-10-05T12:50:55Z</time>
      </trkpt>
      <trkpt lat="43.3332" lon="5.76536">
        <ele>707.3</ele>
        <time>2025-10-05T12:50:56Z</time>
      </trkpt>
      <trkpt lat="43.33321" lon="5.76537">
        <ele>707.2</ele>
        <time>2025-10-05T12:50:57Z</time>
      </trkpt>
      <trkpt lat="43.33321" lon="5.76538">
        <ele>707.1</ele>
        <time>2025-10-05T12:50:58Z</time>
      </trkpt>
      <trkpt lat="43.33322" lon="5.76539">
        <ele>707</ele>
        <time>2025-10-05T12:50:59Z</time>
      </trkpt>
      <trkpt lat="43.33323" lon="5.76541">
        <ele>706.9</ele>
        <time>2025-10-05T12:51:00Z</time>
      </trkpt>
      <trkpt lat="43.33323" lon="5.76541">
        <ele>706.8</ele>
        <time>2025-10-05T12:51:01Z</time>
      </trkpt>
      <trkpt lat="43.33324" lon="5.76543">
        <ele>706.8</ele>
        <time>2025-10-05T12:51:02Z</time>
      </trkpt>
      <trkpt lat="43.33325" lon="5.76544">
        <ele>706.6</ele>
        <time>2025-10-05T12:51:03Z</time>
      </trkpt>
      <trkpt lat="43.33326" lon="5.76545">
        <ele>706.5</ele>
        <time>2025-10-05T12:51:04Z</time>
      </trkpt>
      <trkpt lat="43.33327" lon="5.76546">
        <ele>706.4</ele>
        <time>2025-10-05T12:51:05Z</time>
      </trkpt>
      <trkpt lat="43.33328" lon="5.76547">
        <ele>706.4</ele>
        <time>2025-10-05T12:51:06Z</time>
      </trkpt>
      <trkpt lat="43.33328" lon="5.76548">
        <ele>706.3</ele>
        <time>2025-10-05T12:51:07Z</time>
      </trkpt>
      <trkpt lat="43.33329" lon="5.76549">
        <ele>706.2</ele>
        <time>2025-10-05T12:51:08Z</time>
      </trkpt>
      <trkpt lat="43.3333" lon="5.7655">
        <ele>706.1</ele>
        <time>2025-10-05T12:51:09Z</time>
      </trkpt>
      <trkpt lat="43.33331" lon="5.7655">
        <ele>706</ele>
        <time>2025-10-05T12:51:10Z</time>
      </trkpt>
      <trkpt lat="43.33331" lon="5.7655">
        <ele>705.9</ele>
        <time>2025-10-05T12:51:11Z</time>
      </trkpt>
      <trkpt lat="43.33332" lon="5.76551">
        <ele>705.7</ele>
        <time>2025-10-05T12:51:12Z</time>
      </trkpt>
      <trkpt lat="43.33333" lon="5.76552">
        <ele>705.5</ele>
        <time>2025-10-05T12:51:13Z</time>
      </trkpt>
      <trkpt lat="43.33334" lon="5.76553">
        <ele>705.4</ele>
        <time>2025-10-05T12:51:14Z</time>
      </trkpt>
      <trkpt lat="43.33335" lon="5.76554">
        <ele>705.3</ele>
        <time>2025-10-05T12:51:15Z</time>
      </trkpt>
      <trkpt lat="43.33336" lon="5.76555">
        <ele>705.2</ele>
        <time>2025-10-05T12:51:16Z</time>
      </trkpt>
      <trkpt lat="43.33337" lon="5.76556">
        <ele>705</ele>
        <time>2025-10-05T12:51:17Z</time>
      </trkpt>
      <trkpt lat="43.33339" lon="5.76556">
        <ele>704.9</ele>
        <time>2025-10-05T12:51:18Z</time>
      </trkpt>
      <trkpt lat="43.3334" lon="5.76557">
        <ele>704.8</ele>
        <time>2025-10-05T12:51:19Z</time>
      </trkpt>
      <trkpt lat="43.33341" lon="5.76558">
        <ele>704.7</ele>
        <time>2025-10-05T12:51:20Z</time>
      </trkpt>
      <trkpt lat="43.33342" lon="5.76559">
        <ele>704.6</ele>
        <time>2025-10-05T12:51:21Z</time>
      </trkpt>
      <trkpt lat="43.33343" lon="5.76559">
        <ele>704.5</ele>
        <time>2025-10-05T12:51:22Z</time>
      </trkpt>
      <trkpt lat="43.33344" lon="5.7656">
        <ele>704.3</ele>
        <time>2025-10-05T12:51:23Z</time>
      </trkpt>
      <trkpt lat="43.33345" lon="5.76561">
        <ele>704.1</ele>
        <time>2025-10-05T12:51:24Z</time>
      </trkpt>
      <trkpt lat="43.33346" lon="5.76561">
        <ele>704</ele>
        <time>2025-10-05T12:51:25Z</time>
      </trkpt>
      <trkpt lat="43.33348" lon="5.76561">
        <ele>703.9</ele>
        <time>2025-10-05T12:51:26Z</time>
      </trkpt>
      <trkpt lat="43.33349" lon="5.76562">
        <ele>703.8</ele>
        <time>2025-10-05T12:51:27Z</time>
      </trkpt>
      <trkpt lat="43.33351" lon="5.76562">
        <ele>703.7</ele>
        <time>2025-10-05T12:51:28Z</time>
      </trkpt>
      <trkpt lat="43.33352" lon="5.76563">
        <ele>703.6</ele>
        <time>2025-10-05T12:51:29Z</time>
      </trkpt>
      <trkpt lat="43.33353" lon="5.76563">
        <ele>703.4</ele>
        <time>2025-10-05T12:51:30Z</time>
      </trkpt>
      <trkpt lat="43.33355" lon="5.76564">
        <ele>703.1</ele>
        <time>2025-10-05T12:51:31Z</time>
      </trkpt>
      <trkpt lat="43.33356" lon="5.76564">
        <ele>702.9</ele>
        <time>2025-10-05T12:51:32Z</time>
      </trkpt>
      <trkpt lat="43.33357" lon="5.76565">
        <ele>702.8</ele>
        <time>2025-10-05T12:51:33Z</time>
      </trkpt>
      <trkpt lat="43.33358" lon="5.76565">
        <ele>702.7</ele>
        <time>2025-10-05T12:51:34Z</time>
      </trkpt>
      <trkpt lat="43.33359" lon="5.76565">
        <ele>702.6</ele>
        <time>2025-10-05T12:51:35Z</time>
      </trkpt>
      <trkpt lat="43.3336" lon="5.76566">
        <ele>702.2</ele>
        <time>2025-10-05T12:51:36Z</time>
      </trkpt>
      <trkpt lat="43.33361" lon="5.76566">
        <ele>702</ele>
        <time>2025-10-05T12:51:37Z</time>
      </trkpt>
      <trkpt lat="43.33362" lon="5.76568">
        <ele>701.9</ele>
        <time>2025-10-05T12:51:38Z</time>
      </trkpt>
      <trkpt lat="43.33364" lon="5.76568">
        <ele>701.8</ele>
        <time>2025-10-05T12:51:39Z</time>
      </trkpt>
      <trkpt lat="43.33364" lon="5.76569">
        <ele>701.5</ele>
        <time>2025-10-05T12:51:40Z</time>
      </trkpt>
      <trkpt lat="43.33365" lon="5.76569">
        <ele>701.2</ele>
        <time>2025-10-05T12:51:41Z</time>
      </trkpt>
      <trkpt lat="43.33366" lon="5.7657">
        <ele>700.9</ele>
        <time>2025-10-05T12:51:42Z</time>
      </trkpt>
      <trkpt lat="43.33367" lon="5.7657">
        <ele>700.7</ele>
        <time>2025-10-05T12:51:43Z</time>
      </trkpt>
      <trkpt lat="43.33369" lon="5.76571">
        <ele>700.5</ele>
        <time>2025-10-05T12:51:44Z</time>
      </trkpt>
      <trkpt lat="43.3337" lon="5.7657">
        <ele>700.3</ele>
        <time>2025-10-05T12:51:45Z</time>
      </trkpt>
      <trkpt lat="43.33371" lon="5.7657">
        <ele>700.1</ele>
        <time>2025-10-05T12:51:46Z</time>
      </trkpt>
      <trkpt lat="43.33372" lon="5.7657">
        <ele>699.9</ele>
        <time>2025-10-05T12:51:47Z</time>
      </trkpt>
      <trkpt lat="43.33373" lon="5.76569">
        <ele>699.8</ele>
        <time>2025-10-05T12:51:48Z</time>
      </trkpt>
      <trkpt lat="43.33373" lon="5.7657">
        <ele>699.7</ele>
        <time>2025-10-05T12:51:49Z</time>
      </trkpt>
      <trkpt lat="43.33374" lon="5.7657">
        <ele>699.6</ele>
        <time>2025-10-05T12:51:50Z</time>
      </trkpt>
      <trkpt lat="43.33374" lon="5.7657">
        <ele>699.4</ele>
        <time>2025-10-05T12:51:51Z</time>
      </trkpt>
      <trkpt lat="43.33376" lon="5.7657">
        <ele>699.4</ele>
        <time>2025-10-05T12:51:52Z</time>
      </trkpt>
      <trkpt lat="43.33377" lon="5.76569">
        <ele>699.4</ele>
        <time>2025-10-05T12:51:53Z</time>
      </trkpt>
      <trkpt lat="43.33377" lon="5.76569">
        <ele>699.1</ele>
        <time>2025-10-05T12:51:54Z</time>
      </trkpt>
      <trkpt lat="43.33379" lon="5.76568">
        <ele>699.1</ele>
        <time>2025-10-05T12:51:55Z</time>
      </trkpt>
      <trkpt lat="43.33379" lon="5.76568">
        <ele>699</ele>
        <time>2025-10-05T12:51:56Z</time>
      </trkpt>
      <trkpt lat="43.3338" lon="5.76568">
        <ele>699</ele>
        <time>2025-10-05T12:51:57Z</time>
      </trkpt>
      <trkpt lat="43.33381" lon="5.76567">
        <ele>698.9</ele>
        <time>2025-10-05T12:51:58Z</time>
      </trkpt>
      <trkpt lat="43.33382" lon="5.76566">
        <ele>698.9</ele>
        <time>2025-10-05T12:51:59Z</time>
      </trkpt>
      <trkpt lat="43.33383" lon="5.76565">
        <ele>698.8</ele>
        <time>2025-10-05T12:52:00Z</time>
      </trkpt>
      <trkpt lat="43.33384" lon="5.76565">
        <ele>698.7</ele>
        <time>2025-10-05T12:52:01Z</time>
      </trkpt>
      <trkpt lat="43.33385" lon="5.76564">
        <ele>698.5</ele>
        <time>2025-10-05T12:52:02Z</time>
      </trkpt>
      <trkpt lat="43.33386" lon="5.76563">
        <ele>698.3</ele>
        <time>2025-10-05T12:52:03Z</time>
      </trkpt>
      <trkpt lat="43.33387" lon="5.76563">
        <ele>698.2</ele>
        <time>2025-10-05T12:52:04Z</time>
      </trkpt>
      <trkpt lat="43.33388" lon="5.76561">
        <ele>698.1</ele>
        <time>2025-10-05T12:52:05Z</time>
      </trkpt>
      <trkpt lat="43.33389" lon="5.76561">
        <ele>697.9</ele>
        <time>2025-10-05T12:52:06Z</time>
      </trkpt>
      <trkpt lat="43.3339" lon="5.7656">
        <ele>697.7</ele>
        <time>2025-10-05T12:52:07Z</time>
      </trkpt>
      <trkpt lat="43.33391" lon="5.7656">
        <ele>697.6</ele>
        <time>2025-10-05T12:52:08Z</time>
      </trkpt>
      <trkpt lat="43.33392" lon="5.76559">
        <ele>697.4</ele>
        <time>2025-10-05T12:52:09Z</time>
      </trkpt>
      <trkpt lat="43.33392" lon="5.76559">
        <ele>697.2</ele>
        <time>2025-10-05T12:52:10Z</time>
      </trkpt>
      <trkpt lat="43.33393" lon="5.76559">
        <ele>697</ele>
        <time>2025-10-05T12:52:11Z</time>
      </trkpt>
      <trkpt lat="43.33394" lon="5.76558">
        <ele>696.8</ele>
        <time>2025-10-05T12:52:12Z</time>
      </trkpt>
      <trkpt lat="43.33395" lon="5.76557">
        <ele>696.7</ele>
        <time>2025-10-05T12:52:13Z</time>
      </trkpt>
      <trkpt lat="43.33396" lon="5.76556">
        <ele>696.5</ele>
        <time>2025-10-05T12:52:14Z</time>
      </trkpt>
      <trkpt lat="43.33397" lon="5.76555">
        <ele>696.3</ele>
        <time>2025-10-05T12:52:15Z</time>
      </trkpt>
      <trkpt lat="43.33398" lon="5.76555">
        <ele>696.2</ele>
        <time>2025-10-05T12:52:16Z</time>
      </trkpt>
      <trkpt lat="43.33399" lon="5.76553">
        <ele>696.2</ele>
        <time>2025-10-05T12:52:17Z</time>
      </trkpt>
      <trkpt lat="43.33399" lon="5.76552">
        <ele>696.2</ele>
        <time>2025-10-05T12:52:18Z</time>
      </trkpt>
      <trkpt lat="43.334" lon="5.76551">
        <ele>696</ele>
        <time>2025-10-05T12:52:19Z</time>
      </trkpt>
      <trkpt lat="43.33401" lon="5.76551">
        <ele>695.9</ele>
        <time>2025-10-05T12:52:20Z</time>
      </trkpt>
      <trkpt lat="43.33402" lon="5.7655">
        <ele>695.7</ele>
        <time>2025-10-05T12:52:21Z</time>
      </trkpt>
      <trkpt lat="43.33404" lon="5.76549">
        <ele>695.5</ele>
        <time>2025-10-05T12:52:22Z</time>
      </trkpt>
      <trkpt lat="43.33405" lon="5.76548">
        <ele>695.3</ele>
        <time>2025-10-05T12:52:23Z</time>
      </trkpt>
      <trkpt lat="43.33406" lon="5.76547">
        <ele>695.1</ele>
        <time>2025-10-05T12:52:24Z</time>
      </trkpt>
      <trkpt lat="43.33407" lon="5.76546">
        <ele>694.9</ele>
        <time>2025-10-05T12:52:25Z</time>
      </trkpt>
      <trkpt lat="43.33407" lon="5.76545">
        <ele>694.6</ele>
        <time>2025-10-05T12:52:26Z</time>
      </trkpt>
      <trkpt lat="43.33408" lon="5.76545">
        <ele>694.4</ele>
        <time>2025-10-05T12:52:27Z</time>
      </trkpt>
      <trkpt lat="43.33409" lon="5.76544">
        <ele>694.2</ele>
        <time>2025-10-05T12:52:28Z</time>
      </trkpt>
      <trkpt lat="43.3341" lon="5.76543">
        <ele>693.9</ele>
        <time>2025-10-05T12:52:29Z</time>
      </trkpt>
      <trkpt lat="43.33411" lon="5.76543">
        <ele>693.7</ele>
        <time>2025-10-05T12:52:30Z</time>
      </trkpt>
      <trkpt lat="43.33412" lon="5.76542">
        <ele>693.5</ele>
        <time>2025-10-05T12:52:31Z</time>
      </trkpt>
      <trkpt lat="43.33413" lon="5.76541">
        <ele>693.2</ele>
        <time>2025-10-05T12:52:32Z</time>
      </trkpt>
      <trkpt lat="43.33414" lon="5.76541">
        <ele>693</ele>
        <time>2025-10-05T12:52:33Z</time>
      </trkpt>
      <trkpt lat="43.33415" lon="5.7654">
        <ele>692.7</ele>
        <time>2025-10-05T12:52:34Z</time>
      </trkpt>
      <trkpt lat="43.33416" lon="5.7654">
        <ele>692.4</ele>
        <time>2025-10-05T12:52:35Z</time>
      </trkpt>
      <trkpt lat="43.33417" lon="5.76539">
        <ele>692.2</ele>
        <time>2025-10-05T12:52:36Z</time>
      </trkpt>
      <trkpt lat="43.33417" lon="5.76538">
        <ele>692</ele>
        <time>2025-10-05T12:52:37Z</time>
      </trkpt>
      <trkpt lat="43.33418" lon="5.76537">
        <ele>691.9</ele>
        <time>2025-10-05T12:52:38Z</time>
      </trkpt>
      <trkpt lat="43.33419" lon="5.76536">
        <ele>691.8</ele>
        <time>2025-10-05T12:52:39Z</time>
      </trkpt>
      <trkpt lat="43.3342" lon="5.76536">
        <ele>691.6</ele>
        <time>2025-10-05T12:52:40Z</time>
      </trkpt>
      <trkpt lat="43.33421" lon="5.76535">
        <ele>691.2</ele>
        <time>2025-10-05T12:52:41Z</time>
      </trkpt>
      <trkpt lat="43.33421" lon="5.76535">
        <ele>691</ele>
        <time>2025-10-05T12:52:42Z</time>
      </trkpt>
      <trkpt lat="43.33422" lon="5.76534">
        <ele>690.8</ele>
        <time>2025-10-05T12:52:43Z</time>
      </trkpt>
      <trkpt lat="43.33423" lon="5.76534">
        <ele>690.6</ele>
        <time>2025-10-05T12:52:44Z</time>
      </trkpt>
      <trkpt lat="43.33424" lon="5.76533">
        <ele>690.5</ele>
        <time>2025-10-05T12:52:45Z</time>
      </trkpt>
      <trkpt lat="43.33424" lon="5.76533">
        <ele>690.3</ele>
        <time>2025-10-05T12:52:46Z</time>
      </trkpt>
      <trkpt lat="43.33426" lon="5.76533">
        <ele>690.3</ele>
        <time>2025-10-05T12:52:47Z</time>
      </trkpt>
      <trkpt lat="43.33426" lon="5.76534">
        <ele>690.2</ele>
        <time>2025-10-05T12:52:48Z</time>
      </trkpt>
      <trkpt lat="43.33427" lon="5.76534">
        <ele>690.1</ele>
        <time>2025-10-05T12:52:49Z</time>
      </trkpt>
      <trkpt lat="43.33428" lon="5.76534">
        <ele>690.1</ele>
        <time>2025-10-05T12:52:50Z</time>
      </trkpt>
      <trkpt lat="43.33429" lon="5.76534">
        <ele>689.9</ele>
        <time>2025-10-05T12:52:51Z</time>
      </trkpt>
      <trkpt lat="43.33429" lon="5.76535">
        <ele>689.7</ele>
        <time>2025-10-05T12:52:52Z</time>
      </trkpt>
      <trkpt lat="43.3343" lon="5.76536">
        <ele>689.5</ele>
        <time>2025-10-05T12:52:53Z</time>
      </trkpt>
      <trkpt lat="43.33431" lon="5.76536">
        <ele>689.4</ele>
        <time>2025-10-05T12:52:54Z</time>
      </trkpt>
      <trkpt lat="43.33431" lon="5.76537">
        <ele>689.3</ele>
        <time>2025-10-05T12:52:55Z</time>
      </trkpt>
      <trkpt lat="43.33432" lon="5.76537">
        <ele>689.1</ele>
        <time>2025-10-05T12:52:56Z</time>
      </trkpt>
      <trkpt lat="43.33433" lon="5.76538">
        <ele>689</ele>
        <time>2025-10-05T12:52:57Z</time>
      </trkpt>
      <trkpt lat="43.33433" lon="5.76538">
        <ele>688.8</ele>
        <time>2025-10-05T12:52:58Z</time>
      </trkpt>
      <trkpt lat="43.33434" lon="5.76539">
        <ele>688.6</ele>
        <time>2025-10-05T12:52:59Z</time>
      </trkpt>
      <trkpt lat="43.33435" lon="5.76539">
        <ele>688.4</ele>
        <time>2025-10-05T12:53:00Z</time>
      </trkpt>
      <trkpt lat="43.33435" lon="5.7654">
        <ele>688.3</ele>
        <time>2025-10-05T12:53:01Z</time>
      </trkpt>
      <trkpt lat="43.33436" lon="5.7654">
        <ele>688.2</ele>
        <time>2025-10-05T12:53:02Z</time>
      </trkpt>
      <trkpt lat="43.33437" lon="5.76541">
        <ele>688.1</ele>
        <time>2025-10-05T12:53:03Z</time>
      </trkpt>
      <trkpt lat="43.33437" lon="5.76541">
        <ele>688.1</ele>
        <time>2025-10-05T12:53:04Z</time>
      </trkpt>
      <trkpt lat="43.33437" lon="5.76542">
        <ele>688</ele>
        <time>2025-10-05T12:53:05Z</time>
      </trkpt>
      <trkpt lat="43.33438" lon="5.76542">
        <ele>688</ele>
        <time>2025-10-05T12:53:06Z</time>
      </trkpt>
      <trkpt lat="43.33438" lon="5.76542">
        <ele>687.9</ele>
        <time>2025-10-05T12:53:07Z</time>
      </trkpt>
      <trkpt lat="43.33439" lon="5.76543">
        <ele>687.8</ele>
        <time>2025-10-05T12:53:08Z</time>
      </trkpt>
      <trkpt lat="43.33439" lon="5.76543">
        <ele>687.7</ele>
        <time>2025-10-05T12:53:09Z</time>
      </trkpt>
      <trkpt lat="43.33441" lon="5.76544">
        <ele>687.6</ele>
        <time>2025-10-05T12:53:10Z</time>
      </trkpt>
      <trkpt lat="43.33442" lon="5.76546">
        <ele>687.5</ele>
        <time>2025-10-05T12:53:11Z</time>
      </trkpt>
      <trkpt lat="43.33442" lon="5.76546">
        <ele>687.6</ele>
        <time>2025-10-05T12:53:12Z</time>
      </trkpt>
      <trkpt lat="43.33443" lon="5.76546">
        <ele>687.7</ele>
        <time>2025-10-05T12:53:13Z</time>
      </trkpt>
      <trkpt lat="43.33444" lon="5.76547">
        <ele>687.8</ele>
        <time>2025-10-05T12:53:14Z</time>
      </trkpt>
      <trkpt lat="43.33445" lon="5.76548">
        <ele>687.9</ele>
        <time>2025-10-05T12:53:15Z</time>
      </trkpt>
      <trkpt lat="43.33446" lon="5.76548">
        <ele>688</ele>
        <time>2025-10-05T12:53:16Z</time>
      </trkpt>
      <trkpt lat="43.33446" lon="5.76548">
        <ele>687.7</ele>
        <time>2025-10-05T12:53:17Z</time>
      </trkpt>
      <trkpt lat="43.33447" lon="5.76549">
        <ele>687.5</ele>
        <time>2025-10-05T12:53:18Z</time>
      </trkpt>
      <trkpt lat="43.33448" lon="5.7655">
        <ele>687.3</ele>
        <time>2025-10-05T12:53:19Z</time>
      </trkpt>
      <trkpt lat="43.33449" lon="5.76552">
        <ele>686.9</ele>
        <time>2025-10-05T12:53:20Z</time>
      </trkpt>
      <trkpt lat="43.33449" lon="5.76552">
        <ele>686.6</ele>
        <time>2025-10-05T12:53:21Z</time>
      </trkpt>
      <trkpt lat="43.3345" lon="5.76553">
        <ele>686.4</ele>
        <time>2025-10-05T12:53:22Z</time>
      </trkpt>
      <trkpt lat="43.33451" lon="5.76554">
        <ele>686.1</ele>
        <time>2025-10-05T12:53:23Z</time>
      </trkpt>
      <trkpt lat="43.33453" lon="5.76555">
        <ele>685.9</ele>
        <time>2025-10-05T12:53:24Z</time>
      </trkpt>
      <trkpt lat="43.33453" lon="5.76555">
        <ele>685.5</ele>
        <time>2025-10-05T12:53:25Z</time>
      </trkpt>
      <trkpt lat="43.33454" lon="5.76556">
        <ele>685.2</ele>
        <time>2025-10-05T12:53:26Z</time>
      </trkpt>
      <trkpt lat="43.33454" lon="5.76557">
        <ele>684.9</ele>
        <time>2025-10-05T12:53:27Z</time>
      </trkpt>
      <trkpt lat="43.33455" lon="5.76558">
        <ele>684.5</ele>
        <time>2025-10-05T12:53:28Z</time>
      </trkpt>
      <trkpt lat="43.33456" lon="5.76559">
        <ele>684.2</ele>
        <time>2025-10-05T12:53:29Z</time>
      </trkpt>
      <trkpt lat="43.33457" lon="5.7656">
        <ele>683.9</ele>
        <time>2025-10-05T12:53:30Z</time>
      </trkpt>
      <trkpt lat="43.33458" lon="5.76561">
        <ele>683.7</ele>
        <time>2025-10-05T12:53:31Z</time>
      </trkpt>
      <trkpt lat="43.3346" lon="5.76562">
        <ele>683.5</ele>
        <time>2025-10-05T12:53:32Z</time>
      </trkpt>
      <trkpt lat="43.3346" lon="5.76563">
        <ele>683.2</ele>
        <time>2025-10-05T12:53:33Z</time>
      </trkpt>
      <trkpt lat="43.33461" lon="5.76563">
        <ele>683</ele>
        <time>2025-10-05T12:53:34Z</time>
      </trkpt>
      <trkpt lat="43.33462" lon="5.76565">
        <ele>682.7</ele>
        <time>2025-10-05T12:53:35Z</time>
      </trkpt>
      <trkpt lat="43.33463" lon="5.76566">
        <ele>682.3</ele>
        <time>2025-10-05T12:53:36Z</time>
      </trkpt>
      <trkpt lat="43.33464" lon="5.76567">
        <ele>682.1</ele>
        <time>2025-10-05T12:53:37Z</time>
      </trkpt>
      <trkpt lat="43.33464" lon="5.76568">
        <ele>681.9</ele>
        <time>2025-10-05T12:53:38Z</time>
      </trkpt>
      <trkpt lat="43.33465" lon="5.76568">
        <ele>681.7</ele>
        <time>2025-10-05T12:53:39Z</time>
      </trkpt>
      <trkpt lat="43.33466" lon="5.76569">
        <ele>681.5</ele>
        <time>2025-10-05T12:53:40Z</time>
      </trkpt>
      <trkpt lat="43.33467" lon="5.76569">
        <ele>681.5</ele>
        <time>2025-10-05T12:53:41Z</time>
      </trkpt>
      <trkpt lat="43.33467" lon="5.7657">
        <ele>681.2</ele>
        <time>2025-10-05T12:53:42Z</time>
      </trkpt>
      <trkpt lat="43.33468" lon="5.7657">
        <ele>681</ele>
        <time>2025-10-05T12:53:43Z</time>
      </trkpt>
      <trkpt lat="43.33469" lon="5.7657">
        <ele>680.7</ele>
        <time>2025-10-05T12:53:44Z</time>
      </trkpt>
      <trkpt lat="43.33469" lon="5.7657">
        <ele>680.6</ele>
        <time>2025-10-05T12:53:45Z</time>
      </trkpt>
      <trkpt lat="43.3347" lon="5.76571">
        <ele>680.5</ele>
        <time>2025-10-05T12:53:46Z</time>
      </trkpt>
      <trkpt lat="43.33471" lon="5.7657">
        <ele>680.6</ele>
        <time>2025-10-05T12:53:47Z</time>
      </trkpt>
      <trkpt lat="43.33472" lon="5.7657">
        <ele>680.4</ele>
        <time>2025-10-05T12:53:48Z</time>
      </trkpt>
      <trkpt lat="43.33473" lon="5.76569">
        <ele>680.4</ele>
        <time>2025-10-05T12:53:49Z</time>
      </trkpt>
      <trkpt lat="43.33474" lon="5.76568">
        <ele>680.4</ele>
        <time>2025-10-05T12:53:50Z</time>
      </trkpt>
      <trkpt lat="43.33475" lon="5.76568">
        <ele>680.3</ele>
        <time>2025-10-05T12:53:51Z</time>
      </trkpt>
      <trkpt lat="43.33476" lon="5.76568">
        <ele>680.3</ele>
        <time>2025-10-05T12:53:52Z</time>
      </trkpt>
      <trkpt lat="43.33477" lon="5.76568">
        <ele>680.3</ele>
        <time>2025-10-05T12:53:53Z</time>
      </trkpt>
      <trkpt lat="43.33478" lon="5.76568">
        <ele>680.3</ele>
        <time>2025-10-05T12:53:54Z</time>
      </trkpt>
      <trkpt lat="43.33478" lon="5.76568">
        <ele>680.3</ele>
        <time>2025-10-05T12:53:55Z</time>
      </trkpt>
      <trkpt lat="43.33479" lon="5.76568">
        <ele>680.3</ele>
        <time>2025-10-05T12:53:56Z</time>
      </trkpt>
      <trkpt lat="43.3348" lon="5.76569">
        <ele>680.3</ele>
        <time>2025-10-05T12:53:57Z</time>
      </trkpt>
      <trkpt lat="43.3348" lon="5.76568">
        <ele>680.3</ele>
        <time>2025-10-05T12:53:58Z</time>
      </trkpt>
      <trkpt lat="43.33481" lon="5.76569">
        <ele>680.3</ele>
        <time>2025-10-05T12:53:59Z</time>
      </trkpt>
      <trkpt lat="43.33481" lon="5.76568">
        <ele>680.3</ele>
        <time>2025-10-05T12:54:00Z</time>
      </trkpt>
      <trkpt lat="43.33482" lon="5.76568">
        <ele>680.3</ele>
        <time>2025-10-05T12:54:01Z</time>
      </trkpt>
      <trkpt lat="43.33482" lon="5.76568">
        <ele>680.2</ele>
        <time>2025-10-05T12:54:02Z</time>
      </trkpt>
      <trkpt lat="43.33483" lon="5.76569">
        <ele>680.2</ele>
        <time>2025-10-05T12:54:03Z</time>
      </trkpt>
      <trkpt lat="43.33483" lon="5.7657">
        <ele>680.2</ele>
        <time>2025-10-05T12:54:04Z</time>
      </trkpt>
      <trkpt lat="43.33484" lon="5.7657">
        <ele>680.3</ele>
        <time>2025-10-05T12:54:05Z</time>
      </trkpt>
      <trkpt lat="43.33485" lon="5.7657">
        <ele>680.3</ele>
        <time>2025-10-05T12:54:06Z</time>
      </trkpt>
      <trkpt lat="43.33486" lon="5.7657">
        <ele>680.3</ele>
        <time>2025-10-05T12:54:07Z</time>
      </trkpt>
      <trkpt lat="43.33487" lon="5.76569">
        <ele>680.3</ele>
        <time>2025-10-05T12:54:08Z</time>
      </trkpt>
      <trkpt lat="43.33488" lon="5.76569">
        <ele>680.3</ele>
        <time>2025-10-05T12:54:09Z</time>
      </trkpt>
      <trkpt lat="43.33489" lon="5.76569">
        <ele>680.2</ele>
        <time>2025-10-05T12:54:10Z</time>
      </trkpt>
      <trkpt lat="43.3349" lon="5.76568">
        <ele>680.2</ele>
        <time>2025-10-05T12:54:11Z</time>
      </trkpt>
      <trkpt lat="43.3349" lon="5.76568">
        <ele>680.2</ele>
        <time>2025-10-05T12:54:12Z</time>
      </trkpt>
      <trkpt lat="43.33491" lon="5.76569">
        <ele>680.2</ele>
        <time>2025-10-05T12:54:13Z</time>
      </trkpt>
      <trkpt lat="43.33492" lon="5.76569">
        <ele>680.2</ele>
        <time>2025-10-05T12:54:14Z</time>
      </trkpt>
      <trkpt lat="43.33493" lon="5.76569">
        <ele>680.2</ele>
        <time>2025-10-05T12:54:15Z</time>
      </trkpt>
      <trkpt lat="43.33494" lon="5.76569">
        <ele>680.1</ele>
        <time>2025-10-05T12:54:16Z</time>
      </trkpt>
      <trkpt lat="43.33495" lon="5.76569">
        <ele>680.2</ele>
        <time>2025-10-05T12:54:17Z</time>
      </trkpt>
      <trkpt lat="43.33496" lon="5.76569">
        <ele>680.2</ele>
        <time>2025-10-05T12:54:18Z</time>
      </trkpt>
      <trkpt lat="43.33497" lon="5.76569">
        <ele>680.3</ele>
        <time>2025-10-05T12:54:19Z</time>
      </trkpt>
      <trkpt lat="43.33498" lon="5.76569">
        <ele>680.3</ele>
        <time>2025-10-05T12:54:20Z</time>
      </trkpt>
      <trkpt lat="43.33499" lon="5.76569">
        <ele>680.4</ele>
        <time>2025-10-05T12:54:21Z</time>
      </trkpt>
      <trkpt lat="43.335" lon="5.76569">
        <ele>680.3</ele>
        <time>2025-10-05T12:54:22Z</time>
      </trkpt>
      <trkpt lat="43.33501" lon="5.76569">
        <ele>680.2</ele>
        <time>2025-10-05T12:54:23Z</time>
      </trkpt>
      <trkpt lat="43.33502" lon="5.76569">
        <ele>680.1</ele>
        <time>2025-10-05T12:54:24Z</time>
      </trkpt>
      <trkpt lat="43.33503" lon="5.76569">
        <ele>680</ele>
        <time>2025-10-05T12:54:25Z</time>
      </trkpt>
      <trkpt lat="43.33504" lon="5.76568">
        <ele>679.8</ele>
        <time>2025-10-05T12:54:26Z</time>
      </trkpt>
      <trkpt lat="43.33505" lon="5.76568">
        <ele>679.7</ele>
        <time>2025-10-05T12:54:27Z</time>
      </trkpt>
      <trkpt lat="43.33505" lon="5.76568">
        <ele>679.5</ele>
        <time>2025-10-05T12:54:28Z</time>
      </trkpt>
      <trkpt lat="43.33506" lon="5.76568">
        <ele>679.3</ele>
        <time>2025-10-05T12:54:29Z</time>
      </trkpt>
      <trkpt lat="43.33506" lon="5.76568">
        <ele>679.1</ele>
        <time>2025-10-05T12:54:29Z</time>
      </trkpt>
      <trkpt lat="43.33506" lon="5.76568">
        <ele>679.1</ele>
        <time>2025-10-05T12:54:29Z</time>
      </trkpt>
    </trkseg>
  </trk>
</gpx>